<?xml version='1.0' encoding='UTF-8'?><gpx version="1.1" creator="JPX - https://github.com/jenetics/jpx" xmlns="http://www.topografix.com/GPX/1/1"><trk><trkseg><trkpt lat="46.1200767" lon="13.5241843"><ele>155.0</ele><time>2026-05-02T06:42:05.191Z</time></trkpt><trkpt lat="46.1201544" lon="13.5242019"><ele>155.0</ele><time>2026-05-02T06:42:11.173Z</time></trkpt><trkpt lat="46.1201829" lon="13.524307"><ele>155.0</ele><time>2026-05-02T06:46:01.168Z</time></trkpt><trkpt lat="46.1202058" lon="13.5244422"><ele>155.0</ele><time>2026-05-02T06:46:03.181Z</time></trkpt><trkpt lat="46.1202114" lon="13.5245361"><ele>155.0</ele><time>2026-05-02T06:46:04.181Z</time></trkpt><trkpt lat="46.1202048" lon="13.5246494"><ele>155.0</ele><time>2026-05-02T06:46:05.164Z</time></trkpt><trkpt lat="46.1201949" lon="13.5247888"><ele>155.0</ele><time>2026-05-02T06:46:06.173Z</time></trkpt><trkpt lat="46.1202031" lon="13.5249473"><ele>155.0</ele><time>2026-05-02T06:46:07.162Z</time></trkpt><trkpt lat="46.1202165" lon="13.5251001"><ele>155.0</ele><time>2026-05-02T06:46:08.166Z</time></trkpt><trkpt lat="46.1202297" lon="13.5252592"><ele>155.0</ele><time>2026-05-02T06:46:09.18Z</time></trkpt><trkpt lat="46.1202383" lon="13.5254185"><ele>155.0</ele><time>2026-05-02T06:46:10.159Z</time></trkpt><trkpt lat="46.1202538" lon="13.525576"><ele>155.4</ele><time>2026-05-02T06:46:11.182Z</time></trkpt><trkpt lat="46.1202738" lon="13.5257315"><ele>155.8</ele><time>2026-05-02T06:46:12.164Z</time></trkpt><trkpt lat="46.1203043" lon="13.5258781"><ele>156.2</ele><time>2026-05-02T06:46:13.16Z</time></trkpt><trkpt lat="46.1203495" lon="13.5260039"><ele>156.6</ele><time>2026-05-02T06:46:14.183Z</time></trkpt><trkpt lat="46.1204199" lon="13.52613"><ele>157.0</ele><time>2026-05-02T06:46:15.158Z</time></trkpt><trkpt lat="46.120481" lon="13.5262386"><ele>157.8</ele><time>2026-05-02T06:46:16.171Z</time></trkpt><trkpt lat="46.1205231" lon="13.5263568"><ele>158.6</ele><time>2026-05-02T06:46:17.166Z</time></trkpt><trkpt lat="46.120531" lon="13.526491"><ele>159.4</ele><time>2026-05-02T06:46:18.166Z</time></trkpt><trkpt lat="46.1205143" lon="13.5266421"><ele>160.20000000000002</ele><time>2026-05-02T06:46:19.167Z</time></trkpt><trkpt lat="46.1204841" lon="13.5268012"><ele>161.0</ele><time>2026-05-02T06:46:20.179Z</time></trkpt><trkpt lat="46.1204503" lon="13.5269605"><ele>161.0</ele><time>2026-05-02T06:46:21.163Z</time></trkpt><trkpt lat="46.1204202" lon="13.5271184"><ele>161.0</ele><time>2026-05-02T06:46:22.202Z</time></trkpt><trkpt lat="46.1203885" lon="13.5272811"><ele>161.0</ele><time>2026-05-02T06:46:23.178Z</time></trkpt><trkpt lat="46.1203655" lon="13.5274489"><ele>161.0</ele><time>2026-05-02T06:46:24.166Z</time></trkpt><trkpt lat="46.1203529" lon="13.5276265"><ele>161.0</ele><time>2026-05-02T06:46:25.17Z</time></trkpt><trkpt lat="46.1203437" lon="13.5278026"><ele>161.0</ele><time>2026-05-02T06:46:26.166Z</time></trkpt><trkpt lat="46.1203396" lon="13.5279757"><ele>161.0</ele><time>2026-05-02T06:46:27.175Z</time></trkpt><trkpt lat="46.120341" lon="13.5281453"><ele>161.0</ele><time>2026-05-02T06:46:28.18Z</time></trkpt><trkpt lat="46.1203547" lon="13.5283088"><ele>161.20000000000002</ele><time>2026-05-02T06:46:29.169Z</time></trkpt><trkpt lat="46.1203769" lon="13.5284641"><ele>161.4</ele><time>2026-05-02T06:46:30.179Z</time></trkpt><trkpt lat="46.1203998" lon="13.5286062"><ele>161.6</ele><time>2026-05-02T06:46:31.164Z</time></trkpt><trkpt lat="46.1204191" lon="13.5287391"><ele>161.8</ele><time>2026-05-02T06:46:32.169Z</time></trkpt><trkpt lat="46.1204274" lon="13.5288612"><ele>162.0</ele><time>2026-05-02T06:46:33.163Z</time></trkpt><trkpt lat="46.1204091" lon="13.5289705"><ele>161.66666666666666</ele><time>2026-05-02T06:46:34.169Z</time></trkpt><trkpt lat="46.1203619" lon="13.5290548"><ele>161.33333333333334</ele><time>2026-05-02T06:46:35.163Z</time></trkpt><trkpt lat="46.1202839" lon="13.5291251"><ele>161.0</ele><time>2026-05-02T06:46:36.161Z</time></trkpt><trkpt lat="46.1202203" lon="13.5291985"><ele>160.66666666666669</ele><time>2026-05-02T06:46:37.18Z</time></trkpt><trkpt lat="46.1201733" lon="13.5292914"><ele>160.33333333333334</ele><time>2026-05-02T06:46:38.186Z</time></trkpt><trkpt lat="46.1201433" lon="13.5294053"><ele>160.0</ele><time>2026-05-02T06:46:39.168Z</time></trkpt><trkpt lat="46.1201233" lon="13.5295383"><ele>160.6</ele><time>2026-05-02T06:46:40.17Z</time></trkpt><trkpt lat="46.1200932" lon="13.5296731"><ele>161.2</ele><time>2026-05-02T06:46:41.174Z</time></trkpt><trkpt lat="46.1200461" lon="13.5298145"><ele>161.8</ele><time>2026-05-02T06:46:42.181Z</time></trkpt><trkpt lat="46.1199759" lon="13.5299461"><ele>162.4</ele><time>2026-05-02T06:46:43.175Z</time></trkpt><trkpt lat="46.1198786" lon="13.5300447"><ele>163.0</ele><time>2026-05-02T06:46:44.187Z</time></trkpt><trkpt lat="46.119778" lon="13.5301053"><ele>163.8</ele><time>2026-05-02T06:46:45.182Z</time></trkpt><trkpt lat="46.1196785" lon="13.530145"><ele>164.60000000000002</ele><time>2026-05-02T06:46:46.18Z</time></trkpt><trkpt lat="46.1195863" lon="13.5301423"><ele>165.39999999999998</ele><time>2026-05-02T06:46:47.179Z</time></trkpt><trkpt lat="46.1194966" lon="13.5301263"><ele>166.2</ele><time>2026-05-02T06:46:48.171Z</time></trkpt><trkpt lat="46.1194134" lon="13.5301331"><ele>167.0</ele><time>2026-05-02T06:46:49.175Z</time></trkpt><trkpt lat="46.1193217" lon="13.5301556"><ele>167.0</ele><time>2026-05-02T06:46:50.169Z</time></trkpt><trkpt lat="46.119222" lon="13.530192"><ele>167.0</ele><time>2026-05-02T06:46:51.174Z</time></trkpt><trkpt lat="46.1191269" lon="13.5302238"><ele>167.0</ele><time>2026-05-02T06:46:52.189Z</time></trkpt><trkpt lat="46.1190448" lon="13.5302579"><ele>167.0</ele><time>2026-05-02T06:46:53.167Z</time></trkpt><trkpt lat="46.118973" lon="13.5303132"><ele>167.0</ele><time>2026-05-02T06:46:54.183Z</time></trkpt><trkpt lat="46.118908" lon="13.5303968"><ele>167.33333333333331</ele><time>2026-05-02T06:46:55.171Z</time></trkpt><trkpt lat="46.118863" lon="13.5304936"><ele>167.66666666666666</ele><time>2026-05-02T06:46:56.181Z</time></trkpt><trkpt lat="46.118834" lon="13.5306213"><ele>168.0</ele><time>2026-05-02T06:46:57.172Z</time></trkpt><trkpt lat="46.1187892" lon="13.5307433"><ele>168.33333333333334</ele><time>2026-05-02T06:46:58.168Z</time></trkpt><trkpt lat="46.1187421" lon="13.5308525"><ele>168.66666666666669</ele><time>2026-05-02T06:46:59.183Z</time></trkpt><trkpt lat="46.118697" lon="13.5309356"><ele>169.0</ele><time>2026-05-02T06:47:00.184Z</time></trkpt><trkpt lat="46.1186221" lon="13.531008"><ele>169.0</ele><time>2026-05-02T06:47:02.163Z</time></trkpt><trkpt lat="46.1186967" lon="13.5309899"><ele>169.0</ele><time>2026-05-02T06:47:19.181Z</time></trkpt><trkpt lat="46.1187225" lon="13.5311375"><ele>169.0</ele><time>2026-05-02T06:47:21.165Z</time></trkpt><trkpt lat="46.1187337" lon="13.5312343"><ele>169.0</ele><time>2026-05-02T06:47:22.156Z</time></trkpt><trkpt lat="46.1187406" lon="13.5313266"><ele>169.0</ele><time>2026-05-02T06:47:23.157Z</time></trkpt><trkpt lat="46.11874" lon="13.531452"><ele>169.0</ele><time>2026-05-02T06:47:25.158Z</time></trkpt><trkpt lat="46.118623" lon="13.5315205"><ele>169.2</ele><time>2026-05-02T06:47:27.157Z</time></trkpt><trkpt lat="46.118546" lon="13.531516"><ele>169.39999999999998</ele><time>2026-05-02T06:47:28.158Z</time></trkpt><trkpt lat="46.1184576" lon="13.5315145"><ele>169.6</ele><time>2026-05-02T06:47:29.154Z</time></trkpt><trkpt lat="46.1183664" lon="13.5315256"><ele>169.8</ele><time>2026-05-02T06:47:30.168Z</time></trkpt><trkpt lat="46.1182667" lon="13.5315443"><ele>170.0</ele><time>2026-05-02T06:47:31.168Z</time></trkpt><trkpt lat="46.1181602" lon="13.5315733"><ele>170.0</ele><time>2026-05-02T06:47:32.166Z</time></trkpt><trkpt lat="46.1180562" lon="13.5316089"><ele>170.0</ele><time>2026-05-02T06:47:33.169Z</time></trkpt><trkpt lat="46.1179568" lon="13.5316494"><ele>170.0</ele><time>2026-05-02T06:47:34.177Z</time></trkpt><trkpt lat="46.1178586" lon="13.5317"><ele>170.0</ele><time>2026-05-02T06:47:35.165Z</time></trkpt><trkpt lat="46.1177583" lon="13.5317655"><ele>170.0</ele><time>2026-05-02T06:47:36.156Z</time></trkpt><trkpt lat="46.1176653" lon="13.5318605"><ele>170.0</ele><time>2026-05-02T06:47:37.159Z</time></trkpt><trkpt lat="46.1175778" lon="13.5319622"><ele>170.0</ele><time>2026-05-02T06:47:38.159Z</time></trkpt><trkpt lat="46.1174878" lon="13.5320628"><ele>170.0</ele><time>2026-05-02T06:47:39.182Z</time></trkpt><trkpt lat="46.117387" lon="13.5321321"><ele>170.0</ele><time>2026-05-02T06:47:40.161Z</time></trkpt><trkpt lat="46.1172672" lon="13.5321648"><ele>171.25</ele><time>2026-05-02T06:47:41.162Z</time></trkpt><trkpt lat="46.117145" lon="13.5321549"><ele>172.5</ele><time>2026-05-02T06:47:42.149Z</time></trkpt><trkpt lat="46.1170194" lon="13.5321388"><ele>173.75</ele><time>2026-05-02T06:47:43.166Z</time></trkpt><trkpt lat="46.1168971" lon="13.5321204"><ele>175.0</ele><time>2026-05-02T06:47:44.181Z</time></trkpt><trkpt lat="46.1167797" lon="13.5321074"><ele>175.0</ele><time>2026-05-02T06:47:45.173Z</time></trkpt><trkpt lat="46.1166766" lon="13.5321119"><ele>175.0</ele><time>2026-05-02T06:47:46.162Z</time></trkpt><trkpt lat="46.1165891" lon="13.5321585"><ele>175.0</ele><time>2026-05-02T06:47:47.148Z</time></trkpt><trkpt lat="46.1165118" lon="13.532257"><ele>175.0</ele><time>2026-05-02T06:47:48.154Z</time></trkpt><trkpt lat="46.1164477" lon="13.5323849"><ele>175.0</ele><time>2026-05-02T06:47:49.153Z</time></trkpt><trkpt lat="46.1163888" lon="13.5325257"><ele>176.0</ele><time>2026-05-02T06:47:50.158Z</time></trkpt><trkpt lat="46.1163219" lon="13.5326497"><ele>177.0</ele><time>2026-05-02T06:47:51.172Z</time></trkpt><trkpt lat="46.116243" lon="13.5327688"><ele>178.0</ele><time>2026-05-02T06:47:52.165Z</time></trkpt><trkpt lat="46.1161451" lon="13.5328598"><ele>179.0</ele><time>2026-05-02T06:47:53.153Z</time></trkpt><trkpt lat="46.1160299" lon="13.5329221"><ele>179.25</ele><time>2026-05-02T06:47:54.153Z</time></trkpt><trkpt lat="46.1159102" lon="13.5329619"><ele>179.5</ele><time>2026-05-02T06:47:55.15Z</time></trkpt><trkpt lat="46.1157836" lon="13.5329917"><ele>179.75</ele><time>2026-05-02T06:47:56.173Z</time></trkpt><trkpt lat="46.1156575" lon="13.5330293"><ele>180.0</ele><time>2026-05-02T06:47:57.153Z</time></trkpt><trkpt lat="46.1155329" lon="13.5330898"><ele>182.0</ele><time>2026-05-02T06:47:58.16Z</time></trkpt><trkpt lat="46.1154145" lon="13.5331629"><ele>184.0</ele><time>2026-05-02T06:47:59.158Z</time></trkpt><trkpt lat="46.1152951" lon="13.5332528"><ele>186.0</ele><time>2026-05-02T06:48:00.155Z</time></trkpt><trkpt lat="46.1151825" lon="13.5333608"><ele>188.0</ele><time>2026-05-02T06:48:01.169Z</time></trkpt><trkpt lat="46.1150799" lon="13.5334845"><ele>188.0</ele><time>2026-05-02T06:48:02.167Z</time></trkpt><trkpt lat="46.1149821" lon="13.5336111"><ele>188.0</ele><time>2026-05-02T06:48:03.148Z</time></trkpt><trkpt lat="46.1148831" lon="13.533739"><ele>188.0</ele><time>2026-05-02T06:48:04.163Z</time></trkpt><trkpt lat="46.1147824" lon="13.5338803"><ele>188.0</ele><time>2026-05-02T06:48:05.16Z</time></trkpt><trkpt lat="46.1146768" lon="13.534019"><ele>190.75</ele><time>2026-05-02T06:48:06.155Z</time></trkpt><trkpt lat="46.1145695" lon="13.5341571"><ele>193.5</ele><time>2026-05-02T06:48:07.149Z</time></trkpt><trkpt lat="46.1144625" lon="13.5342875"><ele>196.25</ele><time>2026-05-02T06:48:08.156Z</time></trkpt><trkpt lat="46.1143566" lon="13.5344178"><ele>199.0</ele><time>2026-05-02T06:48:09.155Z</time></trkpt><trkpt lat="46.1142544" lon="13.5345488"><ele>200.2</ele><time>2026-05-02T06:48:10.159Z</time></trkpt><trkpt lat="46.1141574" lon="13.5346746"><ele>201.39999999999998</ele><time>2026-05-02T06:48:11.162Z</time></trkpt><trkpt lat="46.1140687" lon="13.5347878"><ele>202.6</ele><time>2026-05-02T06:48:12.152Z</time></trkpt><trkpt lat="46.1139901" lon="13.5348867"><ele>203.8</ele><time>2026-05-02T06:48:13.158Z</time></trkpt><trkpt lat="46.113924" lon="13.5349712"><ele>205.0</ele><time>2026-05-02T06:48:14.144Z</time></trkpt><trkpt lat="46.1138731" lon="13.5350388"><ele>205.0</ele><time>2026-05-02T06:48:15.158Z</time></trkpt><trkpt lat="46.1138647" lon="13.5351709"><ele>205.0</ele><time>2026-05-02T06:48:17.148Z</time></trkpt><trkpt lat="46.1139295" lon="13.53522"><ele>205.0</ele><time>2026-05-02T06:48:18.162Z</time></trkpt><trkpt lat="46.1140183" lon="13.5352333"><ele>205.0</ele><time>2026-05-02T06:48:19.153Z</time></trkpt><trkpt lat="46.1141106" lon="13.5352122"><ele>205.0</ele><time>2026-05-02T06:48:20.142Z</time></trkpt><trkpt lat="46.1142229" lon="13.5351972"><ele>205.0</ele><time>2026-05-02T06:48:21.159Z</time></trkpt><trkpt lat="46.1143507" lon="13.5351587"><ele>205.0</ele><time>2026-05-02T06:48:22.147Z</time></trkpt><trkpt lat="46.1144877" lon="13.5351155"><ele>205.0</ele><time>2026-05-02T06:48:23.145Z</time></trkpt><trkpt lat="46.1146335" lon="13.535079"><ele>205.0</ele><time>2026-05-02T06:48:24.152Z</time></trkpt><trkpt lat="46.114786" lon="13.5350488"><ele>206.0</ele><time>2026-05-02T06:48:25.142Z</time></trkpt><trkpt lat="46.1149393" lon="13.5350254"><ele>207.0</ele><time>2026-05-02T06:48:26.146Z</time></trkpt><trkpt lat="46.1150816" lon="13.5349986"><ele>208.0</ele><time>2026-05-02T06:48:27.16Z</time></trkpt><trkpt lat="46.1152211" lon="13.5349878"><ele>209.0</ele><time>2026-05-02T06:48:28.154Z</time></trkpt><trkpt lat="46.1153454" lon="13.5349955"><ele>209.00000000000003</ele><time>2026-05-02T06:48:29.153Z</time></trkpt><trkpt lat="46.1154558" lon="13.5350413"><ele>209.0</ele><time>2026-05-02T06:48:30.149Z</time></trkpt><trkpt lat="46.1155377" lon="13.535122"><ele>209.0</ele><time>2026-05-02T06:48:31.143Z</time></trkpt><trkpt lat="46.1155905" lon="13.5352205"><ele>209.0</ele><time>2026-05-02T06:48:32.152Z</time></trkpt><trkpt lat="46.1156219" lon="13.5353106"><ele>209.00000000000003</ele><time>2026-05-02T06:48:33.158Z</time></trkpt><trkpt lat="46.115651" lon="13.5354016"><ele>209.0</ele><time>2026-05-02T06:48:34.154Z</time></trkpt><trkpt lat="46.115695" lon="13.5355045"><ele>216.25</ele><time>2026-05-02T06:48:35.152Z</time></trkpt><trkpt lat="46.1157677" lon="13.535591"><ele>223.5</ele><time>2026-05-02T06:48:36.166Z</time></trkpt><trkpt lat="46.115879" lon="13.5356043"><ele>230.75</ele><time>2026-05-02T06:48:37.149Z</time></trkpt><trkpt lat="46.1160191" lon="13.5355645"><ele>238.0</ele><time>2026-05-02T06:48:38.155Z</time></trkpt><trkpt lat="46.1161582" lon="13.5355228"><ele>238.0</ele><time>2026-05-02T06:48:39.148Z</time></trkpt><trkpt lat="46.1162933" lon="13.5354759"><ele>238.0</ele><time>2026-05-02T06:48:40.154Z</time></trkpt><trkpt lat="46.1164216" lon="13.535411"><ele>238.0</ele><time>2026-05-02T06:48:41.165Z</time></trkpt><trkpt lat="46.1165538" lon="13.5353269"><ele>238.0</ele><time>2026-05-02T06:48:42.156Z</time></trkpt><trkpt lat="46.1166794" lon="13.5352415"><ele>235.25</ele><time>2026-05-02T06:48:43.151Z</time></trkpt><trkpt lat="46.1168054" lon="13.5351745"><ele>232.5</ele><time>2026-05-02T06:48:44.161Z</time></trkpt><trkpt lat="46.1169422" lon="13.5351395"><ele>229.75</ele><time>2026-05-02T06:48:45.146Z</time></trkpt><trkpt lat="46.1170872" lon="13.5351436"><ele>227.0</ele><time>2026-05-02T06:48:46.15Z</time></trkpt><trkpt lat="46.117232" lon="13.5351649"><ele>227.0</ele><time>2026-05-02T06:48:47.15Z</time></trkpt><trkpt lat="46.1173662" lon="13.5351745"><ele>227.0</ele><time>2026-05-02T06:48:48.154Z</time></trkpt><trkpt lat="46.1174859" lon="13.535164"><ele>227.0</ele><time>2026-05-02T06:48:49.16Z</time></trkpt><trkpt lat="46.1175916" lon="13.535124"><ele>227.0</ele><time>2026-05-02T06:48:50.157Z</time></trkpt><trkpt lat="46.117685" lon="13.5351032"><ele>228.8</ele><time>2026-05-02T06:48:51.157Z</time></trkpt><trkpt lat="46.1177594" lon="13.5351406"><ele>230.6</ele><time>2026-05-02T06:48:52.162Z</time></trkpt><trkpt lat="46.1177999" lon="13.5352297"><ele>232.40000000000003</ele><time>2026-05-02T06:48:53.162Z</time></trkpt><trkpt lat="46.1178061" lon="13.5353882"><ele>234.20000000000002</ele><time>2026-05-02T06:48:54.163Z</time></trkpt><trkpt lat="46.117806" lon="13.5355485"><ele>236.0</ele><time>2026-05-02T06:48:55.177Z</time></trkpt><trkpt lat="46.1178257" lon="13.5357277"><ele>239.0</ele><time>2026-05-02T06:48:56.157Z</time></trkpt><trkpt lat="46.1178607" lon="13.5359124"><ele>242.0</ele><time>2026-05-02T06:48:57.162Z</time></trkpt><trkpt lat="46.1178906" lon="13.5361081"><ele>245.0</ele><time>2026-05-02T06:48:58.158Z</time></trkpt><trkpt lat="46.1178952" lon="13.5363145"><ele>248.0</ele><time>2026-05-02T06:48:59.161Z</time></trkpt><trkpt lat="46.1178925" lon="13.5365181"><ele>249.83333333333334</ele><time>2026-05-02T06:49:00.169Z</time></trkpt><trkpt lat="46.1178921" lon="13.5366896"><ele>251.66666666666669</ele><time>2026-05-02T06:49:01.16Z</time></trkpt><trkpt lat="46.1179004" lon="13.5368258"><ele>253.5</ele><time>2026-05-02T06:49:02.182Z</time></trkpt><trkpt lat="46.1179208" lon="13.53694"><ele>255.33333333333331</ele><time>2026-05-02T06:49:03.16Z</time></trkpt><trkpt lat="46.1179394" lon="13.5370412"><ele>257.16666666666663</ele><time>2026-05-02T06:49:04.162Z</time></trkpt><trkpt lat="46.117911" lon="13.5371358"><ele>259.0</ele><time>2026-05-02T06:49:06.169Z</time></trkpt><trkpt lat="46.1177744" lon="13.5370304"><ele>259.0</ele><time>2026-05-02T06:49:08.154Z</time></trkpt><trkpt lat="46.1176887" lon="13.5369209"><ele>259.0</ele><time>2026-05-02T06:49:09.159Z</time></trkpt><trkpt lat="46.1176045" lon="13.5368103"><ele>259.0</ele><time>2026-05-02T06:49:10.158Z</time></trkpt><trkpt lat="46.1175162" lon="13.536719"><ele>259.0</ele><time>2026-05-02T06:49:11.153Z</time></trkpt><trkpt lat="46.1174134" lon="13.5366683"><ele>259.0</ele><time>2026-05-02T06:49:12.168Z</time></trkpt><trkpt lat="46.1173136" lon="13.5366587"><ele>260.0</ele><time>2026-05-02T06:49:13.174Z</time></trkpt><trkpt lat="46.1172095" lon="13.5367139"><ele>261.0</ele><time>2026-05-02T06:49:14.173Z</time></trkpt><trkpt lat="46.1171006" lon="13.5367731"><ele>262.0</ele><time>2026-05-02T06:49:15.153Z</time></trkpt><trkpt lat="46.1169911" lon="13.5368465"><ele>263.0</ele><time>2026-05-02T06:49:16.16Z</time></trkpt><trkpt lat="46.1168782" lon="13.5369235"><ele>263.0</ele><time>2026-05-02T06:49:17.154Z</time></trkpt><trkpt lat="46.1167651" lon="13.5369937"><ele>263.0</ele><time>2026-05-02T06:49:18.169Z</time></trkpt><trkpt lat="46.1166558" lon="13.5370297"><ele>263.0</ele><time>2026-05-02T06:49:19.172Z</time></trkpt><trkpt lat="46.1165593" lon="13.537049"><ele>263.0</ele><time>2026-05-02T06:49:20.17Z</time></trkpt><trkpt lat="46.1164864" lon="13.537086"><ele>263.0</ele><time>2026-05-02T06:49:21.16Z</time></trkpt><trkpt lat="46.1164618" lon="13.5372507"><ele>266.6</ele><time>2026-05-02T06:49:23.174Z</time></trkpt><trkpt lat="46.1165213" lon="13.5373503"><ele>270.20000000000005</ele><time>2026-05-02T06:49:24.159Z</time></trkpt><trkpt lat="46.1165975" lon="13.5374157"><ele>273.8</ele><time>2026-05-02T06:49:25.161Z</time></trkpt><trkpt lat="46.1167045" lon="13.5374689"><ele>277.40000000000003</ele><time>2026-05-02T06:49:26.183Z</time></trkpt><trkpt lat="46.1168206" lon="13.537516"><ele>281.0</ele><time>2026-05-02T06:49:27.15Z</time></trkpt><trkpt lat="46.1169269" lon="13.5375648"><ele>281.0</ele><time>2026-05-02T06:49:28.167Z</time></trkpt><trkpt lat="46.1169961" lon="13.537624"><ele>281.0</ele><time>2026-05-02T06:49:29.157Z</time></trkpt><trkpt lat="46.1170178" lon="13.5377122"><ele>281.0</ele><time>2026-05-02T06:49:30.161Z</time></trkpt><trkpt lat="46.1169855" lon="13.5378152"><ele>281.0</ele><time>2026-05-02T06:49:31.159Z</time></trkpt><trkpt lat="46.1169195" lon="13.5379091"><ele>281.0</ele><time>2026-05-02T06:49:32.15Z</time></trkpt><trkpt lat="46.1168436" lon="13.5379896"><ele>281.0</ele><time>2026-05-02T06:49:33.159Z</time></trkpt><trkpt lat="46.1167588" lon="13.5380671"><ele>283.2</ele><time>2026-05-02T06:49:34.167Z</time></trkpt><trkpt lat="46.116667" lon="13.5381126"><ele>285.40000000000003</ele><time>2026-05-02T06:49:35.146Z</time></trkpt><trkpt lat="46.1165773" lon="13.5381192"><ele>287.6</ele><time>2026-05-02T06:49:36.169Z</time></trkpt><trkpt lat="46.1164776" lon="13.5380452"><ele>289.8</ele><time>2026-05-02T06:49:37.182Z</time></trkpt><trkpt lat="46.1163711" lon="13.537931"><ele>292.0</ele><time>2026-05-02T06:49:38.148Z</time></trkpt><trkpt lat="46.1162665" lon="13.5378109"><ele>293.2</ele><time>2026-05-02T06:49:39.158Z</time></trkpt><trkpt lat="46.1161662" lon="13.5376935"><ele>294.4</ele><time>2026-05-02T06:49:40.166Z</time></trkpt><trkpt lat="46.1160763" lon="13.5375926"><ele>295.6</ele><time>2026-05-02T06:49:41.159Z</time></trkpt><trkpt lat="46.1160049" lon="13.5375189"><ele>296.8</ele><time>2026-05-02T06:49:42.166Z</time></trkpt><trkpt lat="46.1159269" lon="13.5375567"><ele>298.0</ele><time>2026-05-02T06:49:44.162Z</time></trkpt><trkpt lat="46.1159509" lon="13.5376669"><ele>298.0</ele><time>2026-05-02T06:49:45.169Z</time></trkpt><trkpt lat="46.1159999" lon="13.5377745"><ele>298.0</ele><time>2026-05-02T06:49:46.152Z</time></trkpt><trkpt lat="46.1160626" lon="13.5378756"><ele>298.0</ele><time>2026-05-02T06:49:47.146Z</time></trkpt><trkpt lat="46.1161105" lon="13.5379846"><ele>298.0</ele><time>2026-05-02T06:49:48.167Z</time></trkpt><trkpt lat="46.1161528" lon="13.5381374"><ele>298.0</ele><time>2026-05-02T06:49:49.158Z</time></trkpt><trkpt lat="46.1161995" lon="13.5383083"><ele>301.8</ele><time>2026-05-02T06:49:50.163Z</time></trkpt><trkpt lat="46.1162551" lon="13.538479"><ele>305.6</ele><time>2026-05-02T06:49:51.163Z</time></trkpt><trkpt lat="46.116303" lon="13.5386235"><ele>309.4</ele><time>2026-05-02T06:49:52.189Z</time></trkpt><trkpt lat="46.1163431" lon="13.5387512"><ele>313.2</ele><time>2026-05-02T06:49:53.161Z</time></trkpt><trkpt lat="46.1163586" lon="13.5388557"><ele>317.0</ele><time>2026-05-02T06:49:54.179Z</time></trkpt><trkpt lat="46.1163815" lon="13.5389564"><ele>320.0</ele><time>2026-05-02T06:49:55.153Z</time></trkpt><trkpt lat="46.1164049" lon="13.5390543"><ele>323.0</ele><time>2026-05-02T06:49:56.162Z</time></trkpt><trkpt lat="46.1164282" lon="13.5391651"><ele>326.0</ele><time>2026-05-02T06:49:57.163Z</time></trkpt><trkpt lat="46.1164497" lon="13.5392827"><ele>329.0</ele><time>2026-05-02T06:49:58.165Z</time></trkpt><trkpt lat="46.1164683" lon="13.5394078"><ele>332.0</ele><time>2026-05-02T06:49:59.174Z</time></trkpt><trkpt lat="46.1164866" lon="13.5395267"><ele>335.0</ele><time>2026-05-02T06:50:00.164Z</time></trkpt><trkpt lat="46.1165008" lon="13.5396582"><ele>337.0</ele><time>2026-05-02T06:50:01.162Z</time></trkpt><trkpt lat="46.1165151" lon="13.5398018"><ele>339.0</ele><time>2026-05-02T06:50:02.164Z</time></trkpt><trkpt lat="46.1165309" lon="13.5399432"><ele>341.0</ele><time>2026-05-02T06:50:03.177Z</time></trkpt><trkpt lat="46.1165391" lon="13.5400812"><ele>343.0</ele><time>2026-05-02T06:50:04.161Z</time></trkpt><trkpt lat="46.1165496" lon="13.5402037"><ele>345.0</ele><time>2026-05-02T06:50:05.171Z</time></trkpt><trkpt lat="46.1165498" lon="13.540331"><ele>346.6</ele><time>2026-05-02T06:50:06.174Z</time></trkpt><trkpt lat="46.1165474" lon="13.5404588"><ele>348.2</ele><time>2026-05-02T06:50:07.158Z</time></trkpt><trkpt lat="46.1165365" lon="13.5405905"><ele>349.79999999999995</ele><time>2026-05-02T06:50:08.165Z</time></trkpt><trkpt lat="46.1165227" lon="13.5407273"><ele>351.4</ele><time>2026-05-02T06:50:09.174Z</time></trkpt><trkpt lat="46.1165107" lon="13.5408708"><ele>353.0</ele><time>2026-05-02T06:50:10.159Z</time></trkpt><trkpt lat="46.1164981" lon="13.5410151"><ele>353.0</ele><time>2026-05-02T06:50:11.15Z</time></trkpt><trkpt lat="46.1164867" lon="13.5411605"><ele>353.0</ele><time>2026-05-02T06:50:12.164Z</time></trkpt><trkpt lat="46.1164713" lon="13.5413096"><ele>353.0</ele><time>2026-05-02T06:50:13.149Z</time></trkpt><trkpt lat="46.1164592" lon="13.5414556"><ele>353.0</ele><time>2026-05-02T06:50:14.164Z</time></trkpt><trkpt lat="46.116437" lon="13.5415916"><ele>353.0</ele><time>2026-05-02T06:50:15.162Z</time></trkpt><trkpt lat="46.116404" lon="13.5417241"><ele>353.79999999999995</ele><time>2026-05-02T06:50:16.163Z</time></trkpt><trkpt lat="46.116367" lon="13.5418577"><ele>354.6</ele><time>2026-05-02T06:50:17.162Z</time></trkpt><trkpt lat="46.1163282" lon="13.5419861"><ele>355.4</ele><time>2026-05-02T06:50:18.18Z</time></trkpt><trkpt lat="46.1162896" lon="13.542125"><ele>356.20000000000005</ele><time>2026-05-02T06:50:19.179Z</time></trkpt><trkpt lat="46.1162534" lon="13.5422651"><ele>357.0</ele><time>2026-05-02T06:50:20.165Z</time></trkpt><trkpt lat="46.1162158" lon="13.542414"><ele>355.0</ele><time>2026-05-02T06:50:21.163Z</time></trkpt><trkpt lat="46.1161586" lon="13.5425663"><ele>353.0</ele><time>2026-05-02T06:50:22.159Z</time></trkpt><trkpt lat="46.1160999" lon="13.5427168"><ele>351.0</ele><time>2026-05-02T06:50:23.16Z</time></trkpt><trkpt lat="46.1160434" lon="13.5428692"><ele>349.0</ele><time>2026-05-02T06:50:24.174Z</time></trkpt><trkpt lat="46.1159904" lon="13.5430067"><ele>346.4</ele><time>2026-05-02T06:50:25.158Z</time></trkpt><trkpt lat="46.115936" lon="13.5431472"><ele>343.79999999999995</ele><time>2026-05-02T06:50:26.173Z</time></trkpt><trkpt lat="46.1158779" lon="13.5432924"><ele>341.20000000000005</ele><time>2026-05-02T06:50:27.166Z</time></trkpt><trkpt lat="46.1158299" lon="13.5434333"><ele>338.6</ele><time>2026-05-02T06:50:28.154Z</time></trkpt><trkpt lat="46.1157921" lon="13.5435535"><ele>336.0</ele><time>2026-05-02T06:50:29.16Z</time></trkpt><trkpt lat="46.1157582" lon="13.5436531"><ele>335.6666666666667</ele><time>2026-05-02T06:50:30.163Z</time></trkpt><trkpt lat="46.1157285" lon="13.5437356"><ele>335.3333333333333</ele><time>2026-05-02T06:50:31.167Z</time></trkpt><trkpt lat="46.1157013" lon="13.5438669"><ele>335.0</ele><time>2026-05-02T06:50:33.153Z</time></trkpt><trkpt lat="46.1157779" lon="13.543997"><ele>334.66666666666663</ele><time>2026-05-02T06:50:35.165Z</time></trkpt><trkpt lat="46.1158314" lon="13.5440615"><ele>334.3333333333333</ele><time>2026-05-02T06:50:36.152Z</time></trkpt><trkpt lat="46.1159007" lon="13.5441209"><ele>334.0</ele><time>2026-05-02T06:50:37.154Z</time></trkpt><trkpt lat="46.1159812" lon="13.5441773"><ele>334.0</ele><time>2026-05-02T06:50:38.157Z</time></trkpt><trkpt lat="46.1160634" lon="13.5442323"><ele>334.0</ele><time>2026-05-02T06:50:39.157Z</time></trkpt><trkpt lat="46.1161546" lon="13.5442921"><ele>334.0</ele><time>2026-05-02T06:50:40.161Z</time></trkpt><trkpt lat="46.1162579" lon="13.5443441"><ele>334.0</ele><time>2026-05-02T06:50:41.156Z</time></trkpt><trkpt lat="46.1163609" lon="13.544397"><ele>334.0</ele><time>2026-05-02T06:50:42.155Z</time></trkpt><trkpt lat="46.1164497" lon="13.5444415"><ele>334.0</ele><time>2026-05-02T06:50:43.146Z</time></trkpt><trkpt lat="46.1165201" lon="13.5444778"><ele>334.0</ele><time>2026-05-02T06:50:44.167Z</time></trkpt><trkpt lat="46.1165846" lon="13.5445171"><ele>334.0</ele><time>2026-05-02T06:50:45.158Z</time></trkpt><trkpt lat="46.1166438" lon="13.5445667"><ele>334.0</ele><time>2026-05-02T06:50:46.167Z</time></trkpt><trkpt lat="46.1166972" lon="13.5446304"><ele>334.0</ele><time>2026-05-02T06:50:47.155Z</time></trkpt><trkpt lat="46.1167645" lon="13.5447784"><ele>334.0</ele><time>2026-05-02T06:50:49.165Z</time></trkpt><trkpt lat="46.1167939" lon="13.5448755"><ele>334.0</ele><time>2026-05-02T06:50:50.159Z</time></trkpt><trkpt lat="46.1168274" lon="13.5449941"><ele>334.0</ele><time>2026-05-02T06:50:51.16Z</time></trkpt><trkpt lat="46.1168572" lon="13.5451387"><ele>334.0</ele><time>2026-05-02T06:50:52.158Z</time></trkpt><trkpt lat="46.1168924" lon="13.5452867"><ele>334.0</ele><time>2026-05-02T06:50:53.157Z</time></trkpt><trkpt lat="46.1169317" lon="13.5454496"><ele>334.0</ele><time>2026-05-02T06:50:54.153Z</time></trkpt><trkpt lat="46.1169772" lon="13.5456098"><ele>338.79999999999995</ele><time>2026-05-02T06:50:55.16Z</time></trkpt><trkpt lat="46.1170334" lon="13.5457709"><ele>343.59999999999997</ele><time>2026-05-02T06:50:56.149Z</time></trkpt><trkpt lat="46.1170975" lon="13.5459117"><ele>348.4</ele><time>2026-05-02T06:50:57.164Z</time></trkpt><trkpt lat="46.1171554" lon="13.5460396"><ele>353.2</ele><time>2026-05-02T06:50:58.155Z</time></trkpt><trkpt lat="46.117206" lon="13.5461614"><ele>358.0</ele><time>2026-05-02T06:50:59.165Z</time></trkpt><trkpt lat="46.1172657" lon="13.5462889"><ele>362.2</ele><time>2026-05-02T06:51:00.159Z</time></trkpt><trkpt lat="46.1173276" lon="13.5464071"><ele>366.4</ele><time>2026-05-02T06:51:01.156Z</time></trkpt><trkpt lat="46.1173841" lon="13.546511"><ele>370.59999999999997</ele><time>2026-05-02T06:51:02.175Z</time></trkpt><trkpt lat="46.1174364" lon="13.5466073"><ele>374.79999999999995</ele><time>2026-05-02T06:51:03.155Z</time></trkpt><trkpt lat="46.1174809" lon="13.5467102"><ele>379.0</ele><time>2026-05-02T06:51:04.144Z</time></trkpt><trkpt lat="46.1175243" lon="13.5468267"><ele>371.0</ele><time>2026-05-02T06:51:05.161Z</time></trkpt><trkpt lat="46.1175623" lon="13.5469695"><ele>363.0</ele><time>2026-05-02T06:51:06.161Z</time></trkpt><trkpt lat="46.1175952" lon="13.5471227"><ele>355.0</ele><time>2026-05-02T06:51:07.163Z</time></trkpt><trkpt lat="46.1176187" lon="13.5472751"><ele>347.0</ele><time>2026-05-02T06:51:08.162Z</time></trkpt><trkpt lat="46.1176428" lon="13.5474279"><ele>339.0</ele><time>2026-05-02T06:51:09.148Z</time></trkpt><trkpt lat="46.117672" lon="13.5475625"><ele>339.0</ele><time>2026-05-02T06:51:10.165Z</time></trkpt><trkpt lat="46.1176962" lon="13.5476907"><ele>339.0</ele><time>2026-05-02T06:51:11.142Z</time></trkpt><trkpt lat="46.1177166" lon="13.5478077"><ele>339.0</ele><time>2026-05-02T06:51:12.165Z</time></trkpt><trkpt lat="46.1177306" lon="13.5479372"><ele>339.0</ele><time>2026-05-02T06:51:13.151Z</time></trkpt><trkpt lat="46.1177288" lon="13.5480635"><ele>339.0</ele><time>2026-05-02T06:51:14.166Z</time></trkpt><trkpt lat="46.1177151" lon="13.5482016"><ele>338.0</ele><time>2026-05-02T06:51:15.152Z</time></trkpt><trkpt lat="46.117689" lon="13.5483223"><ele>337.0</ele><time>2026-05-02T06:51:16.144Z</time></trkpt><trkpt lat="46.1176593" lon="13.5484315"><ele>336.0</ele><time>2026-05-02T06:51:17.162Z</time></trkpt><trkpt lat="46.1176298" lon="13.5485347"><ele>335.0</ele><time>2026-05-02T06:51:18.156Z</time></trkpt><trkpt lat="46.1175944" lon="13.5486389"><ele>334.0</ele><time>2026-05-02T06:51:19.166Z</time></trkpt><trkpt lat="46.1175426" lon="13.5487514"><ele>333.0</ele><time>2026-05-02T06:51:20.161Z</time></trkpt><trkpt lat="46.1174813" lon="13.54888"><ele>330.4</ele><time>2026-05-02T06:51:21.157Z</time></trkpt><trkpt lat="46.1174143" lon="13.5489979"><ele>327.79999999999995</ele><time>2026-05-02T06:51:22.153Z</time></trkpt><trkpt lat="46.117339" lon="13.5491157"><ele>325.2</ele><time>2026-05-02T06:51:23.154Z</time></trkpt><trkpt lat="46.1172788" lon="13.5492162"><ele>322.6</ele><time>2026-05-02T06:51:24.147Z</time></trkpt><trkpt lat="46.1172185" lon="13.5493186"><ele>320.0</ele><time>2026-05-02T06:51:25.17Z</time></trkpt><trkpt lat="46.1171737" lon="13.5494256"><ele>329.6</ele><time>2026-05-02T06:51:26.159Z</time></trkpt><trkpt lat="46.1171365" lon="13.5495527"><ele>339.2</ele><time>2026-05-02T06:51:27.161Z</time></trkpt><trkpt lat="46.1171073" lon="13.5496875"><ele>348.79999999999995</ele><time>2026-05-02T06:51:28.147Z</time></trkpt><trkpt lat="46.1170839" lon="13.5498224"><ele>358.4</ele><time>2026-05-02T06:51:29.146Z</time></trkpt><trkpt lat="46.1170567" lon="13.5499599"><ele>368.0</ele><time>2026-05-02T06:51:30.15Z</time></trkpt><trkpt lat="46.1170234" lon="13.5501021"><ele>368.0</ele><time>2026-05-02T06:51:31.144Z</time></trkpt><trkpt lat="46.116988" lon="13.5502472"><ele>368.0</ele><time>2026-05-02T06:51:32.154Z</time></trkpt><trkpt lat="46.1169539" lon="13.5503721"><ele>368.0</ele><time>2026-05-02T06:51:33.158Z</time></trkpt><trkpt lat="46.1169025" lon="13.5504971"><ele>368.0</ele><time>2026-05-02T06:51:34.144Z</time></trkpt><trkpt lat="46.1168495" lon="13.5506194"><ele>368.0</ele><time>2026-05-02T06:51:35.143Z</time></trkpt><trkpt lat="46.1168012" lon="13.5507255"><ele>365.83333333333337</ele><time>2026-05-02T06:51:36.17Z</time></trkpt><trkpt lat="46.1167605" lon="13.5508281"><ele>363.6666666666667</ele><time>2026-05-02T06:51:37.136Z</time></trkpt><trkpt lat="46.1167322" lon="13.550916"><ele>361.5</ele><time>2026-05-02T06:51:38.135Z</time></trkpt><trkpt lat="46.1167243" lon="13.5510659"><ele>359.3333333333333</ele><time>2026-05-02T06:51:40.156Z</time></trkpt><trkpt lat="46.1168055" lon="13.5511458"><ele>357.16666666666663</ele><time>2026-05-02T06:51:42.139Z</time></trkpt><trkpt lat="46.11687" lon="13.5511251"><ele>355.0</ele><time>2026-05-02T06:51:43.146Z</time></trkpt><trkpt lat="46.1169352" lon="13.5510919"><ele>355.0</ele><time>2026-05-02T06:51:44.137Z</time></trkpt><trkpt lat="46.1169992" lon="13.5510513"><ele>355.0</ele><time>2026-05-02T06:51:45.136Z</time></trkpt><trkpt lat="46.1170635" lon="13.551013"><ele>355.0</ele><time>2026-05-02T06:51:46.148Z</time></trkpt><trkpt lat="46.1171289" lon="13.5509653"><ele>355.0</ele><time>2026-05-02T06:51:47.141Z</time></trkpt><trkpt lat="46.1171911" lon="13.5509079"><ele>355.0</ele><time>2026-05-02T06:51:48.136Z</time></trkpt><trkpt lat="46.1172499" lon="13.5508708"><ele>355.0</ele><time>2026-05-02T06:51:49.145Z</time></trkpt><trkpt lat="46.1173061" lon="13.5508279"><ele>355.0</ele><time>2026-05-02T06:51:50.137Z</time></trkpt><trkpt lat="46.1174303" lon="13.550747"><ele>351.3333333333333</ele><time>2026-05-02T06:51:52.145Z</time></trkpt><trkpt lat="46.1174882" lon="13.5507068"><ele>347.66666666666663</ele><time>2026-05-02T06:51:53.144Z</time></trkpt><trkpt lat="46.117545" lon="13.5506539"><ele>344.0</ele><time>2026-05-02T06:51:54.163Z</time></trkpt><trkpt lat="46.1175985" lon="13.5505992"><ele>340.3333333333333</ele><time>2026-05-02T06:51:55.149Z</time></trkpt><trkpt lat="46.1176972" lon="13.5505108"><ele>336.6666666666667</ele><time>2026-05-02T06:51:57.143Z</time></trkpt><trkpt lat="46.1178147" lon="13.5504635"><ele>333.0</ele><time>2026-05-02T06:51:59.156Z</time></trkpt><trkpt lat="46.1178879" lon="13.5504634"><ele>333.0</ele><time>2026-05-02T06:52:00.149Z</time></trkpt><trkpt lat="46.1179693" lon="13.5504738"><ele>333.0</ele><time>2026-05-02T06:52:01.147Z</time></trkpt><trkpt lat="46.1180629" lon="13.5504841"><ele>333.0</ele><time>2026-05-02T06:52:02.149Z</time></trkpt><trkpt lat="46.1181538" lon="13.5505122"><ele>333.0</ele><time>2026-05-02T06:52:03.154Z</time></trkpt><trkpt lat="46.1182537" lon="13.5505389"><ele>333.0</ele><time>2026-05-02T06:52:04.15Z</time></trkpt><trkpt lat="46.1183485" lon="13.550548"><ele>333.6666666666667</ele><time>2026-05-02T06:52:05.144Z</time></trkpt><trkpt lat="46.1184261" lon="13.5505493"><ele>334.3333333333333</ele><time>2026-05-02T06:52:06.142Z</time></trkpt><trkpt lat="46.1185024" lon="13.5505618"><ele>335.0</ele><time>2026-05-02T06:52:07.148Z</time></trkpt><trkpt lat="46.1185819" lon="13.5505883"><ele>335.66666666666663</ele><time>2026-05-02T06:52:08.146Z</time></trkpt><trkpt lat="46.1186652" lon="13.5505861"><ele>336.3333333333333</ele><time>2026-05-02T06:52:09.153Z</time></trkpt><trkpt lat="46.1187596" lon="13.5505841"><ele>337.0</ele><time>2026-05-02T06:52:10.167Z</time></trkpt><trkpt lat="46.1188391" lon="13.5505781"><ele>337.0</ele><time>2026-05-02T06:52:11.147Z</time></trkpt><trkpt lat="46.1189075" lon="13.5505735"><ele>337.0</ele><time>2026-05-02T06:52:12.154Z</time></trkpt><trkpt lat="46.1190256" lon="13.5506163"><ele>337.0</ele><time>2026-05-02T06:52:14.151Z</time></trkpt><trkpt lat="46.1190816" lon="13.5506681"><ele>337.0</ele><time>2026-05-02T06:52:15.156Z</time></trkpt><trkpt lat="46.1191423" lon="13.5507394"><ele>337.0</ele><time>2026-05-02T06:52:16.162Z</time></trkpt><trkpt lat="46.1192082" lon="13.5508125"><ele>337.0</ele><time>2026-05-02T06:52:17.163Z</time></trkpt><trkpt lat="46.1192699" lon="13.5508859"><ele>334.5</ele><time>2026-05-02T06:52:18.156Z</time></trkpt><trkpt lat="46.1193427" lon="13.5509489"><ele>332.0</ele><time>2026-05-02T06:52:19.171Z</time></trkpt><trkpt lat="46.1194185" lon="13.5510096"><ele>329.5</ele><time>2026-05-02T06:52:20.16Z</time></trkpt><trkpt lat="46.119494" lon="13.5510717"><ele>327.0</ele><time>2026-05-02T06:52:21.15Z</time></trkpt><trkpt lat="46.1195686" lon="13.5511385"><ele>324.5</ele><time>2026-05-02T06:52:22.182Z</time></trkpt><trkpt lat="46.119646" lon="13.5512037"><ele>322.0</ele><time>2026-05-02T06:52:23.157Z</time></trkpt><trkpt lat="46.1197214" lon="13.5512626"><ele>323.0</ele><time>2026-05-02T06:52:24.149Z</time></trkpt><trkpt lat="46.1197905" lon="13.5513272"><ele>324.0</ele><time>2026-05-02T06:52:25.16Z</time></trkpt><trkpt lat="46.1198553" lon="13.551381"><ele>325.0</ele><time>2026-05-02T06:52:26.151Z</time></trkpt><trkpt lat="46.1199245" lon="13.5514295"><ele>326.0</ele><time>2026-05-02T06:52:27.159Z</time></trkpt><trkpt lat="46.1200044" lon="13.5514668"><ele>327.0</ele><time>2026-05-02T06:52:28.155Z</time></trkpt><trkpt lat="46.1200855" lon="13.5514951"><ele>328.0</ele><time>2026-05-02T06:52:29.152Z</time></trkpt><trkpt lat="46.1201699" lon="13.5515157"><ele>327.99999999999994</ele><time>2026-05-02T06:52:30.155Z</time></trkpt><trkpt lat="46.1202543" lon="13.5515324"><ele>328.0</ele><time>2026-05-02T06:52:31.15Z</time></trkpt><trkpt lat="46.1203281" lon="13.5515457"><ele>328.0</ele><time>2026-05-02T06:52:32.158Z</time></trkpt><trkpt lat="46.1204036" lon="13.5515578"><ele>328.0</ele><time>2026-05-02T06:52:33.157Z</time></trkpt><trkpt lat="46.1204719" lon="13.5515829"><ele>328.0</ele><time>2026-05-02T06:52:34.171Z</time></trkpt><trkpt lat="46.1205319" lon="13.5516342"><ele>327.99999999999994</ele><time>2026-05-02T06:52:35.156Z</time></trkpt><trkpt lat="46.1205882" lon="13.5516925"><ele>328.0</ele><time>2026-05-02T06:52:36.16Z</time></trkpt><trkpt lat="46.1206396" lon="13.551754"><ele>328.0</ele><time>2026-05-02T06:52:37.172Z</time></trkpt><trkpt lat="46.120687" lon="13.5518243"><ele>328.0</ele><time>2026-05-02T06:52:38.177Z</time></trkpt><trkpt lat="46.1207274" lon="13.5519111"><ele>328.0</ele><time>2026-05-02T06:52:39.168Z</time></trkpt><trkpt lat="46.1207621" lon="13.55199"><ele>328.0</ele><time>2026-05-02T06:52:40.166Z</time></trkpt><trkpt lat="46.120802" lon="13.5521356"><ele>328.0</ele><time>2026-05-02T06:52:42.185Z</time></trkpt><trkpt lat="46.1208175" lon="13.5523065"><ele>328.0</ele><time>2026-05-02T06:52:44.174Z</time></trkpt><trkpt lat="46.1208286" lon="13.552434"><ele>326.0</ele><time>2026-05-02T06:52:45.166Z</time></trkpt><trkpt lat="46.1208305" lon="13.5525839"><ele>324.0</ele><time>2026-05-02T06:52:46.163Z</time></trkpt><trkpt lat="46.1208413" lon="13.5527165"><ele>322.0</ele><time>2026-05-02T06:52:47.18Z</time></trkpt><trkpt lat="46.1208521" lon="13.5528463"><ele>320.0</ele><time>2026-05-02T06:52:48.155Z</time></trkpt><trkpt lat="46.120856" lon="13.5529782"><ele>318.0</ele><time>2026-05-02T06:52:49.173Z</time></trkpt><trkpt lat="46.1208672" lon="13.5531089"><ele>318.0</ele><time>2026-05-02T06:52:50.169Z</time></trkpt><trkpt lat="46.1208908" lon="13.5532417"><ele>318.0</ele><time>2026-05-02T06:52:51.171Z</time></trkpt><trkpt lat="46.1209167" lon="13.5533674"><ele>318.0</ele><time>2026-05-02T06:52:52.163Z</time></trkpt><trkpt lat="46.1209445" lon="13.5535003"><ele>318.0</ele><time>2026-05-02T06:52:53.168Z</time></trkpt><trkpt lat="46.1209862" lon="13.5536119"><ele>318.0</ele><time>2026-05-02T06:52:54.173Z</time></trkpt><trkpt lat="46.1210294" lon="13.5537052"><ele>318.0</ele><time>2026-05-02T06:52:55.164Z</time></trkpt><trkpt lat="46.1210673" lon="13.5537806"><ele>317.6</ele><time>2026-05-02T06:52:56.178Z</time></trkpt><trkpt lat="46.1211074" lon="13.5539435"><ele>317.20000000000005</ele><time>2026-05-02T06:52:58.167Z</time></trkpt><trkpt lat="46.1211064" lon="13.5540409"><ele>316.8</ele><time>2026-05-02T06:52:59.161Z</time></trkpt><trkpt lat="46.1210923" lon="13.5541537"><ele>316.40000000000003</ele><time>2026-05-02T06:53:00.152Z</time></trkpt><trkpt lat="46.1210687" lon="13.5542737"><ele>316.0</ele><time>2026-05-02T06:53:01.151Z</time></trkpt><trkpt lat="46.1210326" lon="13.5544055"><ele>312.8</ele><time>2026-05-02T06:53:02.165Z</time></trkpt><trkpt lat="46.1209933" lon="13.5545386"><ele>309.6</ele><time>2026-05-02T06:53:03.155Z</time></trkpt><trkpt lat="46.1209591" lon="13.5546707"><ele>306.4</ele><time>2026-05-02T06:53:04.168Z</time></trkpt><trkpt lat="46.120925" lon="13.5547992"><ele>303.2</ele><time>2026-05-02T06:53:05.158Z</time></trkpt><trkpt lat="46.1208914" lon="13.5549236"><ele>300.0</ele><time>2026-05-02T06:53:06.173Z</time></trkpt><trkpt lat="46.1208575" lon="13.5550492"><ele>300.0</ele><time>2026-05-02T06:53:07.149Z</time></trkpt><trkpt lat="46.1208253" lon="13.5551654"><ele>300.0</ele><time>2026-05-02T06:53:08.155Z</time></trkpt><trkpt lat="46.1207858" lon="13.5552903"><ele>300.0</ele><time>2026-05-02T06:53:09.166Z</time></trkpt><trkpt lat="46.1207512" lon="13.5554087"><ele>300.0</ele><time>2026-05-02T06:53:10.152Z</time></trkpt><trkpt lat="46.1207169" lon="13.5555232"><ele>300.0</ele><time>2026-05-02T06:53:11.156Z</time></trkpt><trkpt lat="46.1206782" lon="13.5556271"><ele>300.0</ele><time>2026-05-02T06:53:12.154Z</time></trkpt><trkpt lat="46.1206366" lon="13.555726"><ele>300.5</ele><time>2026-05-02T06:53:13.15Z</time></trkpt><trkpt lat="46.120591" lon="13.5558358"><ele>301.0</ele><time>2026-05-02T06:53:14.15Z</time></trkpt><trkpt lat="46.1205455" lon="13.5559478"><ele>301.5</ele><time>2026-05-02T06:53:15.147Z</time></trkpt><trkpt lat="46.1205067" lon="13.5560554"><ele>302.0</ele><time>2026-05-02T06:53:16.156Z</time></trkpt><trkpt lat="46.1204639" lon="13.5561517"><ele>302.5</ele><time>2026-05-02T06:53:17.167Z</time></trkpt><trkpt lat="46.1204204" lon="13.5562552"><ele>303.0</ele><time>2026-05-02T06:53:18.166Z</time></trkpt><trkpt lat="46.1203831" lon="13.5563583"><ele>303.0</ele><time>2026-05-02T06:53:19.159Z</time></trkpt><trkpt lat="46.1203456" lon="13.5564511"><ele>303.0</ele><time>2026-05-02T06:53:20.169Z</time></trkpt><trkpt lat="46.1203127" lon="13.5565366"><ele>303.0</ele><time>2026-05-02T06:53:21.138Z</time></trkpt><trkpt lat="46.1202531" lon="13.5566748"><ele>303.0</ele><time>2026-05-02T06:53:23.151Z</time></trkpt><trkpt lat="46.1201983" lon="13.5567278"><ele>303.0</ele><time>2026-05-02T06:53:24.151Z</time></trkpt><trkpt lat="46.1201381" lon="13.5567852"><ele>303.0</ele><time>2026-05-02T06:53:25.159Z</time></trkpt><trkpt lat="46.1200728" lon="13.5568593"><ele>303.0</ele><time>2026-05-02T06:53:26.153Z</time></trkpt><trkpt lat="46.1200128" lon="13.5569337"><ele>303.0</ele><time>2026-05-02T06:53:27.149Z</time></trkpt><trkpt lat="46.1199439" lon="13.5570045"><ele>303.0</ele><time>2026-05-02T06:53:28.161Z</time></trkpt><trkpt lat="46.1198789" lon="13.5570763"><ele>303.0</ele><time>2026-05-02T06:53:29.152Z</time></trkpt><trkpt lat="46.1198117" lon="13.5571567"><ele>303.0</ele><time>2026-05-02T06:53:30.161Z</time></trkpt><trkpt lat="46.1197516" lon="13.5572374"><ele>303.0</ele><time>2026-05-02T06:53:31.145Z</time></trkpt><trkpt lat="46.1196951" lon="13.5573199"><ele>305.5</ele><time>2026-05-02T06:53:32.16Z</time></trkpt><trkpt lat="46.1196407" lon="13.5574007"><ele>308.0</ele><time>2026-05-02T06:53:33.139Z</time></trkpt><trkpt lat="46.1195923" lon="13.5574852"><ele>310.5</ele><time>2026-05-02T06:53:34.15Z</time></trkpt><trkpt lat="46.1195543" lon="13.557574"><ele>313.0</ele><time>2026-05-02T06:53:35.146Z</time></trkpt><trkpt lat="46.1195177" lon="13.5576532"><ele>315.5</ele><time>2026-05-02T06:53:36.159Z</time></trkpt><trkpt lat="46.1194804" lon="13.5577837"><ele>318.0</ele><time>2026-05-02T06:53:38.159Z</time></trkpt><trkpt lat="46.1194982" lon="13.5578897"><ele>318.0</ele><time>2026-05-02T06:53:40.147Z</time></trkpt><trkpt lat="46.1195774" lon="13.5579636"><ele>318.0</ele><time>2026-05-02T06:53:42.152Z</time></trkpt><trkpt lat="46.1196411" lon="13.5580131"><ele>318.0</ele><time>2026-05-02T06:53:43.162Z</time></trkpt><trkpt lat="46.1197068" lon="13.5580457"><ele>318.0</ele><time>2026-05-02T06:53:44.153Z</time></trkpt><trkpt lat="46.1197723" lon="13.5580596"><ele>318.0</ele><time>2026-05-02T06:53:45.141Z</time></trkpt><trkpt lat="46.1198611" lon="13.5580668"><ele>318.0</ele><time>2026-05-02T06:53:46.145Z</time></trkpt><trkpt lat="46.119957" lon="13.5580777"><ele>314.1666666666667</ele><time>2026-05-02T06:53:47.137Z</time></trkpt><trkpt lat="46.1200364" lon="13.5580937"><ele>310.3333333333333</ele><time>2026-05-02T06:53:48.139Z</time></trkpt><trkpt lat="46.1201054" lon="13.5581232"><ele>306.5</ele><time>2026-05-02T06:53:49.15Z</time></trkpt><trkpt lat="46.120173" lon="13.5581676"><ele>302.66666666666663</ele><time>2026-05-02T06:53:50.164Z</time></trkpt><trkpt lat="46.1202434" lon="13.5582305"><ele>298.8333333333333</ele><time>2026-05-02T06:53:51.14Z</time></trkpt><trkpt lat="46.1203125" lon="13.5582916"><ele>295.0</ele><time>2026-05-02T06:53:52.165Z</time></trkpt><trkpt lat="46.1203842" lon="13.5583677"><ele>295.0</ele><time>2026-05-02T06:53:53.15Z</time></trkpt><trkpt lat="46.1204516" lon="13.558442"><ele>295.0</ele><time>2026-05-02T06:53:54.142Z</time></trkpt><trkpt lat="46.1205118" lon="13.5585118"><ele>295.0</ele><time>2026-05-02T06:53:55.143Z</time></trkpt><trkpt lat="46.1205903" lon="13.5586254"><ele>295.0</ele><time>2026-05-02T06:53:57.145Z</time></trkpt><trkpt lat="46.1206354" lon="13.5587838"><ele>295.0</ele><time>2026-05-02T06:53:59.135Z</time></trkpt><trkpt lat="46.1206905" lon="13.5588702"><ele>296.2</ele><time>2026-05-02T06:54:01.154Z</time></trkpt><trkpt lat="46.1208174" lon="13.5588494"><ele>297.4</ele><time>2026-05-02T06:54:03.152Z</time></trkpt><trkpt lat="46.1208954" lon="13.5588464"><ele>298.6</ele><time>2026-05-02T06:54:04.157Z</time></trkpt><trkpt lat="46.1209875" lon="13.5588526"><ele>299.8</ele><time>2026-05-02T06:54:05.153Z</time></trkpt><trkpt lat="46.1210838" lon="13.5588666"><ele>301.0</ele><time>2026-05-02T06:54:06.131Z</time></trkpt><trkpt lat="46.1211749" lon="13.5588831"><ele>301.0</ele><time>2026-05-02T06:54:07.131Z</time></trkpt><trkpt lat="46.1212648" lon="13.5588959"><ele>301.0</ele><time>2026-05-02T06:54:08.156Z</time></trkpt><trkpt lat="46.1213578" lon="13.5589181"><ele>301.0</ele><time>2026-05-02T06:54:09.148Z</time></trkpt><trkpt lat="46.1214436" lon="13.5589402"><ele>301.0</ele><time>2026-05-02T06:54:10.154Z</time></trkpt><trkpt lat="46.1215254" lon="13.5589759"><ele>301.0</ele><time>2026-05-02T06:54:11.142Z</time></trkpt><trkpt lat="46.1215911" lon="13.5590146"><ele>301.0</ele><time>2026-05-02T06:54:12.143Z</time></trkpt><trkpt lat="46.1216844" lon="13.5591112"><ele>318.0</ele><time>2026-05-02T06:54:14.161Z</time></trkpt><trkpt lat="46.1195543" lon="13.557574"><ele>318.0</ele><time>2026-05-02T06:53:35.146Z</time></trkpt><trkpt lat="46.1195177" lon="13.5576532"><ele>318.0</ele><time>2026-05-02T06:53:36.159Z</time></trkpt><trkpt lat="46.1194804" lon="13.5577837"><ele>318.0</ele><time>2026-05-02T06:53:38.159Z</time></trkpt><trkpt lat="46.1194982" lon="13.5578897"><ele>318.0</ele><time>2026-05-02T06:53:40.147Z</time></trkpt><trkpt lat="46.1195774" lon="13.5579636"><ele>318.0</ele><time>2026-05-02T06:53:42.152Z</time></trkpt><trkpt lat="46.1196411" lon="13.5580131"><ele>318.0</ele><time>2026-05-02T06:53:43.162Z</time></trkpt><trkpt lat="46.1197068" lon="13.5580457"><ele>318.0</ele><time>2026-05-02T06:53:44.153Z</time></trkpt><trkpt lat="46.1197723" lon="13.5580596"><ele>318.0</ele><time>2026-05-02T06:53:45.141Z</time></trkpt><trkpt lat="46.1198611" lon="13.5580668"><ele>318.0</ele><time>2026-05-02T06:53:46.145Z</time></trkpt><trkpt lat="46.119957" lon="13.5580777"><ele>318.0</ele><time>2026-05-02T06:53:47.137Z</time></trkpt><trkpt lat="46.1200364" lon="13.5580937"><ele>318.0</ele><time>2026-05-02T06:53:48.139Z</time></trkpt><trkpt lat="46.1201054" lon="13.5581232"><ele>318.0</ele><time>2026-05-02T06:53:49.15Z</time></trkpt><trkpt lat="46.120173" lon="13.5581676"><ele>314.1666666666667</ele><time>2026-05-02T06:53:50.164Z</time></trkpt><trkpt lat="46.1202434" lon="13.5582305"><ele>310.3333333333333</ele><time>2026-05-02T06:53:51.14Z</time></trkpt><trkpt lat="46.1203125" lon="13.5582916"><ele>306.5</ele><time>2026-05-02T06:53:52.165Z</time></trkpt><trkpt lat="46.1203842" lon="13.5583677"><ele>302.66666666666663</ele><time>2026-05-02T06:53:53.15Z</time></trkpt><trkpt lat="46.1204516" lon="13.558442"><ele>298.8333333333333</ele><time>2026-05-02T06:53:54.142Z</time></trkpt><trkpt lat="46.1205118" lon="13.5585118"><ele>295.0</ele><time>2026-05-02T06:53:55.143Z</time></trkpt><trkpt lat="46.1205903" lon="13.5586254"><ele>296.2</ele><time>2026-05-02T06:53:57.145Z</time></trkpt><trkpt lat="46.1206354" lon="13.5587838"><ele>297.4</ele><time>2026-05-02T06:53:59.135Z</time></trkpt><trkpt lat="46.1206905" lon="13.5588702"><ele>298.6</ele><time>2026-05-02T06:54:01.154Z</time></trkpt><trkpt lat="46.1208174" lon="13.5588494"><ele>299.8</ele><time>2026-05-02T06:54:03.152Z</time></trkpt><trkpt lat="46.1208954" lon="13.5588464"><ele>301.0</ele><time>2026-05-02T06:54:04.157Z</time></trkpt><trkpt lat="46.1209875" lon="13.5588526"><ele>301.0</ele><time>2026-05-02T06:54:05.153Z</time></trkpt><trkpt lat="46.1210838" lon="13.5588666"><ele>301.0</ele><time>2026-05-02T06:54:06.131Z</time></trkpt><trkpt lat="46.1211749" lon="13.5588831"><ele>301.0</ele><time>2026-05-02T06:54:07.131Z</time></trkpt><trkpt lat="46.1212648" lon="13.5588959"><ele>301.0</ele><time>2026-05-02T06:54:08.156Z</time></trkpt><trkpt lat="46.1213578" lon="13.5589181"><ele>301.0</ele><time>2026-05-02T06:54:09.148Z</time></trkpt><trkpt lat="46.1214436" lon="13.5589402"><ele>301.0</ele><time>2026-05-02T06:54:10.154Z</time></trkpt><trkpt lat="46.1215254" lon="13.5589759"><ele>301.0</ele><time>2026-05-02T06:54:11.142Z</time></trkpt><trkpt lat="46.1215911" lon="13.5590146"><ele>301.0</ele><time>2026-05-02T06:54:12.143Z</time></trkpt><trkpt lat="46.1216844" lon="13.5591112"><ele>301.0</ele><time>2026-05-02T06:54:14.161Z</time></trkpt><trkpt lat="46.1217472" lon="13.5592799"><ele>301.0</ele><time>2026-05-02T06:54:16.163Z</time></trkpt><trkpt lat="46.1217795" lon="13.5593896"><ele>301.6</ele><time>2026-05-02T06:54:17.157Z</time></trkpt><trkpt lat="46.1218091" lon="13.559517"><ele>302.20000000000005</ele><time>2026-05-02T06:54:18.144Z</time></trkpt><trkpt lat="46.1218208" lon="13.5596674"><ele>302.79999999999995</ele><time>2026-05-02T06:54:19.15Z</time></trkpt><trkpt lat="46.1218303" lon="13.5598166"><ele>303.4</ele><time>2026-05-02T06:54:20.168Z</time></trkpt><trkpt lat="46.121841" lon="13.5599562"><ele>304.0</ele><time>2026-05-02T06:54:21.151Z</time></trkpt><trkpt lat="46.1218612" lon="13.5600942"><ele>304.0</ele><time>2026-05-02T06:54:22.172Z</time></trkpt><trkpt lat="46.1218844" lon="13.5602266"><ele>304.0</ele><time>2026-05-02T06:54:23.16Z</time></trkpt><trkpt lat="46.1219145" lon="13.5603579"><ele>304.0</ele><time>2026-05-02T06:54:24.146Z</time></trkpt><trkpt lat="46.1219418" lon="13.5604671"><ele>304.0</ele><time>2026-05-02T06:54:25.157Z</time></trkpt><trkpt lat="46.1219638" lon="13.5605671"><ele>304.0</ele><time>2026-05-02T06:54:26.154Z</time></trkpt><trkpt lat="46.121994" lon="13.5606607"><ele>304.0</ele><time>2026-05-02T06:54:27.144Z</time></trkpt><trkpt lat="46.1220449" lon="13.5607361"><ele>306.16666666666663</ele><time>2026-05-02T06:54:28.15Z</time></trkpt><trkpt lat="46.1221069" lon="13.5608233"><ele>308.3333333333333</ele><time>2026-05-02T06:54:29.15Z</time></trkpt><trkpt lat="46.1221597" lon="13.5609092"><ele>310.5</ele><time>2026-05-02T06:54:30.141Z</time></trkpt><trkpt lat="46.1221969" lon="13.5609904"><ele>312.6666666666667</ele><time>2026-05-02T06:54:31.159Z</time></trkpt><trkpt lat="46.1222267" lon="13.5610935"><ele>314.83333333333337</ele><time>2026-05-02T06:54:32.153Z</time></trkpt><trkpt lat="46.1222356" lon="13.5612169"><ele>317.0</ele><time>2026-05-02T06:54:33.169Z</time></trkpt><trkpt lat="46.1222405" lon="13.5613527"><ele>320.0</ele><time>2026-05-02T06:54:34.148Z</time></trkpt><trkpt lat="46.1222549" lon="13.5614828"><ele>323.0</ele><time>2026-05-02T06:54:35.147Z</time></trkpt><trkpt lat="46.1222811" lon="13.5616125"><ele>326.0</ele><time>2026-05-02T06:54:36.155Z</time></trkpt><trkpt lat="46.1223186" lon="13.5617521"><ele>329.0</ele><time>2026-05-02T06:54:37.153Z</time></trkpt><trkpt lat="46.1223613" lon="13.5618729"><ele>332.0</ele><time>2026-05-02T06:54:38.14Z</time></trkpt><trkpt lat="46.1224208" lon="13.5619818"><ele>326.40000000000003</ele><time>2026-05-02T06:54:39.143Z</time></trkpt><trkpt lat="46.1224859" lon="13.5620917"><ele>320.8</ele><time>2026-05-02T06:54:40.149Z</time></trkpt><trkpt lat="46.1225541" lon="13.5622007"><ele>315.2</ele><time>2026-05-02T06:54:41.144Z</time></trkpt><trkpt lat="46.1226174" lon="13.5623103"><ele>309.6</ele><time>2026-05-02T06:54:42.155Z</time></trkpt><trkpt lat="46.1226782" lon="13.5623937"><ele>304.0</ele><time>2026-05-02T06:54:43.147Z</time></trkpt><trkpt lat="46.1227371" lon="13.5624584"><ele>304.0</ele><time>2026-05-02T06:54:44.158Z</time></trkpt><trkpt lat="46.122785" lon="13.5625294"><ele>304.0</ele><time>2026-05-02T06:54:45.147Z</time></trkpt><trkpt lat="46.1228291" lon="13.5626192"><ele>304.0</ele><time>2026-05-02T06:54:46.158Z</time></trkpt><trkpt lat="46.1228732" lon="13.5627262"><ele>304.0</ele><time>2026-05-02T06:54:47.159Z</time></trkpt><trkpt lat="46.1229194" lon="13.5628424"><ele>304.0</ele><time>2026-05-02T06:54:48.142Z</time></trkpt><trkpt lat="46.1229623" lon="13.5629482"><ele>304.0</ele><time>2026-05-02T06:54:49.164Z</time></trkpt><trkpt lat="46.1230182" lon="13.5630298"><ele>302.8</ele><time>2026-05-02T06:54:50.162Z</time></trkpt><trkpt lat="46.1230846" lon="13.5630813"><ele>301.59999999999997</ele><time>2026-05-02T06:54:51.162Z</time></trkpt><trkpt lat="46.123171" lon="13.5631162"><ele>300.4</ele><time>2026-05-02T06:54:52.165Z</time></trkpt><trkpt lat="46.1232718" lon="13.5631338"><ele>299.2</ele><time>2026-05-02T06:54:53.148Z</time></trkpt><trkpt lat="46.1233726" lon="13.5631547"><ele>298.0</ele><time>2026-05-02T06:54:54.165Z</time></trkpt><trkpt lat="46.1234675" lon="13.563164"><ele>298.0</ele><time>2026-05-02T06:54:55.161Z</time></trkpt><trkpt lat="46.123555" lon="13.5631807"><ele>298.0</ele><time>2026-05-02T06:54:56.153Z</time></trkpt><trkpt lat="46.1236351" lon="13.5632047"><ele>298.0</ele><time>2026-05-02T06:54:57.156Z</time></trkpt><trkpt lat="46.1237191" lon="13.5632333"><ele>298.0</ele><time>2026-05-02T06:54:58.151Z</time></trkpt><trkpt lat="46.1237915" lon="13.5632733"><ele>298.0</ele><time>2026-05-02T06:54:59.157Z</time></trkpt><trkpt lat="46.1238655" lon="13.563347"><ele>298.0</ele><time>2026-05-02T06:55:00.155Z</time></trkpt><trkpt lat="46.1239322" lon="13.5634549"><ele>298.0</ele><time>2026-05-02T06:55:01.169Z</time></trkpt><trkpt lat="46.123983" lon="13.563567"><ele>298.0</ele><time>2026-05-02T06:55:02.151Z</time></trkpt><trkpt lat="46.1240335" lon="13.5636806"><ele>298.0</ele><time>2026-05-02T06:55:03.167Z</time></trkpt><trkpt lat="46.1240805" lon="13.563796"><ele>298.0</ele><time>2026-05-02T06:55:04.158Z</time></trkpt><trkpt lat="46.1241282" lon="13.5639047"><ele>298.0</ele><time>2026-05-02T06:55:05.155Z</time></trkpt><trkpt lat="46.1241725" lon="13.5640117"><ele>297.3333333333333</ele><time>2026-05-02T06:55:06.159Z</time></trkpt><trkpt lat="46.1242111" lon="13.5641171"><ele>296.66666666666663</ele><time>2026-05-02T06:55:07.158Z</time></trkpt><trkpt lat="46.1242363" lon="13.5642306"><ele>296.0</ele><time>2026-05-02T06:55:08.18Z</time></trkpt><trkpt lat="46.1242508" lon="13.5643485"><ele>295.3333333333333</ele><time>2026-05-02T06:55:09.169Z</time></trkpt><trkpt lat="46.1242647" lon="13.5644674"><ele>294.6666666666667</ele><time>2026-05-02T06:55:10.154Z</time></trkpt><trkpt lat="46.1242766" lon="13.5645738"><ele>294.0</ele><time>2026-05-02T06:55:11.157Z</time></trkpt><trkpt lat="46.1242926" lon="13.564667"><ele>293.8</ele><time>2026-05-02T06:55:12.165Z</time></trkpt><trkpt lat="46.1243108" lon="13.5647554"><ele>293.59999999999997</ele><time>2026-05-02T06:55:13.161Z</time></trkpt><trkpt lat="46.1243376" lon="13.5648733"><ele>293.4</ele><time>2026-05-02T06:55:14.169Z</time></trkpt><trkpt lat="46.1243524" lon="13.5650168"><ele>293.2</ele><time>2026-05-02T06:55:15.168Z</time></trkpt><trkpt lat="46.1243512" lon="13.5651662"><ele>293.0</ele><time>2026-05-02T06:55:16.159Z</time></trkpt><trkpt lat="46.1243435" lon="13.5653122"><ele>292.8</ele><time>2026-05-02T06:55:17.166Z</time></trkpt><trkpt lat="46.1243363" lon="13.5654609"><ele>292.6</ele><time>2026-05-02T06:55:18.17Z</time></trkpt><trkpt lat="46.1243255" lon="13.565604"><ele>292.4</ele><time>2026-05-02T06:55:19.161Z</time></trkpt><trkpt lat="46.1243117" lon="13.5657514"><ele>292.2</ele><time>2026-05-02T06:55:20.159Z</time></trkpt><trkpt lat="46.1243006" lon="13.5658949"><ele>292.0</ele><time>2026-05-02T06:55:21.171Z</time></trkpt><trkpt lat="46.1242878" lon="13.5660375"><ele>292.0</ele><time>2026-05-02T06:55:22.155Z</time></trkpt><trkpt lat="46.1242759" lon="13.5661776"><ele>292.0</ele><time>2026-05-02T06:55:23.154Z</time></trkpt><trkpt lat="46.1242593" lon="13.5663244"><ele>292.0</ele><time>2026-05-02T06:55:24.163Z</time></trkpt><trkpt lat="46.1242495" lon="13.5664649"><ele>292.0</ele><time>2026-05-02T06:55:25.144Z</time></trkpt><trkpt lat="46.124249" lon="13.5665951"><ele>292.0</ele><time>2026-05-02T06:55:26.164Z</time></trkpt><trkpt lat="46.1242521" lon="13.5667194"><ele>291.5</ele><time>2026-05-02T06:55:27.156Z</time></trkpt><trkpt lat="46.1242506" lon="13.5668376"><ele>291.0</ele><time>2026-05-02T06:55:28.156Z</time></trkpt><trkpt lat="46.1242493" lon="13.5669549"><ele>290.5</ele><time>2026-05-02T06:55:29.16Z</time></trkpt><trkpt lat="46.1242437" lon="13.5670705"><ele>290.0</ele><time>2026-05-02T06:55:30.157Z</time></trkpt><trkpt lat="46.1242309" lon="13.5671851"><ele>289.5</ele><time>2026-05-02T06:55:31.142Z</time></trkpt><trkpt lat="46.124214" lon="13.5672949"><ele>289.0</ele><time>2026-05-02T06:55:32.146Z</time></trkpt><trkpt lat="46.1241989" lon="13.567386"><ele>286.5</ele><time>2026-05-02T06:55:33.156Z</time></trkpt><trkpt lat="46.124127" lon="13.5675272"><ele>284.0</ele><time>2026-05-02T06:55:35.164Z</time></trkpt><trkpt lat="46.1240779" lon="13.5675992"><ele>281.5</ele><time>2026-05-02T06:55:36.156Z</time></trkpt><trkpt lat="46.1239907" lon="13.5676943"><ele>279.0</ele><time>2026-05-02T06:55:38.165Z</time></trkpt><trkpt lat="46.1240019" lon="13.5677845"><ele>276.5</ele><time>2026-05-02T06:55:41.151Z</time></trkpt><trkpt lat="46.1240656" lon="13.5677372"><ele>274.0</ele><time>2026-05-02T06:55:43.149Z</time></trkpt><trkpt lat="46.1241191" lon="13.5676832"><ele>274.00000000000006</ele><time>2026-05-02T06:55:44.163Z</time></trkpt><trkpt lat="46.1241717" lon="13.5676188"><ele>274.0</ele><time>2026-05-02T06:55:45.146Z</time></trkpt><trkpt lat="46.1242215" lon="13.5675535"><ele>274.0</ele><time>2026-05-02T06:55:46.156Z</time></trkpt><trkpt lat="46.1242671" lon="13.5674846"><ele>274.0</ele><time>2026-05-02T06:55:47.152Z</time></trkpt><trkpt lat="46.1243087" lon="13.567406"><ele>274.0</ele><time>2026-05-02T06:55:48.146Z</time></trkpt><trkpt lat="46.1243495" lon="13.5673096"><ele>274.00000000000006</ele><time>2026-05-02T06:55:49.142Z</time></trkpt><trkpt lat="46.1243912" lon="13.5672071"><ele>274.0</ele><time>2026-05-02T06:55:50.146Z</time></trkpt><trkpt lat="46.1244259" lon="13.5671034"><ele>276.5</ele><time>2026-05-02T06:55:51.147Z</time></trkpt><trkpt lat="46.1244539" lon="13.5669994"><ele>279.0</ele><time>2026-05-02T06:55:52.159Z</time></trkpt><trkpt lat="46.1244806" lon="13.5668932"><ele>281.5</ele><time>2026-05-02T06:55:53.153Z</time></trkpt><trkpt lat="46.124505" lon="13.5667766"><ele>284.0</ele><time>2026-05-02T06:55:54.151Z</time></trkpt><trkpt lat="46.1245278" lon="13.5666487"><ele>286.5</ele><time>2026-05-02T06:55:55.16Z</time></trkpt><trkpt lat="46.1245381" lon="13.5665113"><ele>289.0</ele><time>2026-05-02T06:55:56.161Z</time></trkpt><trkpt lat="46.1245407" lon="13.5663847"><ele>289.0</ele><time>2026-05-02T06:55:57.153Z</time></trkpt><trkpt lat="46.1245509" lon="13.566253"><ele>289.0</ele><time>2026-05-02T06:55:58.147Z</time></trkpt><trkpt lat="46.1245673" lon="13.5661276"><ele>289.0</ele><time>2026-05-02T06:55:59.148Z</time></trkpt><trkpt lat="46.124583" lon="13.5660032"><ele>289.0</ele><time>2026-05-02T06:56:00.146Z</time></trkpt><trkpt lat="46.1246067" lon="13.5658734"><ele>289.0</ele><time>2026-05-02T06:56:01.146Z</time></trkpt><trkpt lat="46.1246368" lon="13.5657559"><ele>289.0</ele><time>2026-05-02T06:56:02.159Z</time></trkpt><trkpt lat="46.1246658" lon="13.5656453"><ele>289.42857142857144</ele><time>2026-05-02T06:56:03.145Z</time></trkpt><trkpt lat="46.1246926" lon="13.5655365"><ele>289.85714285714283</ele><time>2026-05-02T06:56:04.154Z</time></trkpt><trkpt lat="46.1247208" lon="13.5654377"><ele>290.2857142857143</ele><time>2026-05-02T06:56:05.14Z</time></trkpt><trkpt lat="46.1247462" lon="13.5653313"><ele>290.7142857142857</ele><time>2026-05-02T06:56:06.159Z</time></trkpt><trkpt lat="46.1247648" lon="13.5652271"><ele>291.14285714285717</ele><time>2026-05-02T06:56:07.14Z</time></trkpt><trkpt lat="46.1247803" lon="13.5651293"><ele>291.57142857142856</ele><time>2026-05-02T06:56:08.159Z</time></trkpt><trkpt lat="46.1247952" lon="13.5650279"><ele>292.0</ele><time>2026-05-02T06:56:09.151Z</time></trkpt><trkpt lat="46.1248092" lon="13.5649223"><ele>292.1428571428571</ele><time>2026-05-02T06:56:10.159Z</time></trkpt><trkpt lat="46.1248316" lon="13.5648252"><ele>292.2857142857143</ele><time>2026-05-02T06:56:11.178Z</time></trkpt><trkpt lat="46.1248547" lon="13.5647298"><ele>292.42857142857144</ele><time>2026-05-02T06:56:12.16Z</time></trkpt><trkpt lat="46.1248713" lon="13.5646324"><ele>292.57142857142856</ele><time>2026-05-02T06:56:13.15Z</time></trkpt><trkpt lat="46.1248885" lon="13.5645335"><ele>292.7142857142857</ele><time>2026-05-02T06:56:14.167Z</time></trkpt><trkpt lat="46.1249092" lon="13.5644378"><ele>292.85714285714283</ele><time>2026-05-02T06:56:15.162Z</time></trkpt><trkpt lat="46.1249282" lon="13.5643436"><ele>293.0</ele><time>2026-05-02T06:56:16.155Z</time></trkpt><trkpt lat="46.1249534" lon="13.564252"><ele>285.0</ele><time>2026-05-02T06:56:17.157Z</time></trkpt><trkpt lat="46.124977" lon="13.5641615"><ele>277.0</ele><time>2026-05-02T06:56:18.156Z</time></trkpt><trkpt lat="46.1250002" lon="13.5640569"><ele>269.0</ele><time>2026-05-02T06:56:19.161Z</time></trkpt><trkpt lat="46.1250151" lon="13.5639492"><ele>261.0</ele><time>2026-05-02T06:56:20.16Z</time></trkpt><trkpt lat="46.1250187" lon="13.5638368"><ele>253.00000000000003</ele><time>2026-05-02T06:56:21.162Z</time></trkpt><trkpt lat="46.1250265" lon="13.5637276"><ele>245.0</ele><time>2026-05-02T06:56:22.15Z</time></trkpt><trkpt lat="46.1250303" lon="13.5636151"><ele>243.85714285714286</ele><time>2026-05-02T06:56:23.151Z</time></trkpt><trkpt lat="46.1250316" lon="13.5635099"><ele>242.71428571428572</ele><time>2026-05-02T06:56:24.16Z</time></trkpt><trkpt lat="46.1250362" lon="13.5634057"><ele>241.57142857142856</ele><time>2026-05-02T06:56:25.149Z</time></trkpt><trkpt lat="46.1250395" lon="13.5632935"><ele>240.42857142857142</ele><time>2026-05-02T06:56:26.154Z</time></trkpt><trkpt lat="46.1250407" lon="13.5631946"><ele>239.28571428571428</ele><time>2026-05-02T06:56:27.154Z</time></trkpt><trkpt lat="46.1250277" lon="13.5630961"><ele>238.1428571428571</ele><time>2026-05-02T06:56:28.151Z</time></trkpt><trkpt lat="46.1250054" lon="13.5630018"><ele>236.99999999999997</ele><time>2026-05-02T06:56:29.155Z</time></trkpt><trkpt lat="46.1249867" lon="13.5629037"><ele>236.83333333333334</ele><time>2026-05-02T06:56:30.159Z</time></trkpt><trkpt lat="46.124976" lon="13.5628002"><ele>236.66666666666669</ele><time>2026-05-02T06:56:31.153Z</time></trkpt><trkpt lat="46.1249731" lon="13.562698"><ele>236.5</ele><time>2026-05-02T06:56:32.161Z</time></trkpt><trkpt lat="46.1249779" lon="13.5625895"><ele>236.33333333333334</ele><time>2026-05-02T06:56:33.149Z</time></trkpt><trkpt lat="46.1249722" lon="13.5624631"><ele>236.16666666666669</ele><time>2026-05-02T06:56:34.153Z</time></trkpt><trkpt lat="46.1249664" lon="13.5623392"><ele>236.0</ele><time>2026-05-02T06:56:35.141Z</time></trkpt><trkpt lat="46.1249594" lon="13.5622259"><ele>236.00000000000003</ele><time>2026-05-02T06:56:36.162Z</time></trkpt><trkpt lat="46.1249543" lon="13.562124"><ele>236.0</ele><time>2026-05-02T06:56:37.143Z</time></trkpt><trkpt lat="46.1249545" lon="13.5620306"><ele>236.0</ele><time>2026-05-02T06:56:38.147Z</time></trkpt><trkpt lat="46.1249491" lon="13.5618916"><ele>236.0</ele><time>2026-05-02T06:56:40.162Z</time></trkpt><trkpt lat="46.1249419" lon="13.5617863"><ele>236.00000000000003</ele><time>2026-05-02T06:57:43.172Z</time></trkpt><trkpt lat="46.1249074" lon="13.5616698"><ele>236.0</ele><time>2026-05-02T06:57:45.16Z</time></trkpt><trkpt lat="46.1248827" lon="13.5615758"><ele>235.0</ele><time>2026-05-02T06:57:46.188Z</time></trkpt><trkpt lat="46.1248574" lon="13.5614768"><ele>234.0</ele><time>2026-05-02T06:57:47.168Z</time></trkpt><trkpt lat="46.1248343" lon="13.5613898"><ele>233.0</ele><time>2026-05-02T06:57:48.16Z</time></trkpt><trkpt lat="46.1248071" lon="13.5613007"><ele>232.0</ele><time>2026-05-02T06:57:49.165Z</time></trkpt><trkpt lat="46.1247711" lon="13.5612113"><ele>231.0</ele><time>2026-05-02T06:57:50.162Z</time></trkpt><trkpt lat="46.1247281" lon="13.5611178"><ele>230.0</ele><time>2026-05-02T06:57:51.165Z</time></trkpt><trkpt lat="46.1246705" lon="13.561037"><ele>229.0</ele><time>2026-05-02T06:57:52.17Z</time></trkpt><trkpt lat="46.1246069" lon="13.5609682"><ele>228.99999999999997</ele><time>2026-05-02T06:57:53.151Z</time></trkpt><trkpt lat="46.1245465" lon="13.560905"><ele>229.0</ele><time>2026-05-02T06:57:54.155Z</time></trkpt><trkpt lat="46.1244954" lon="13.5608262"><ele>229.0</ele><time>2026-05-02T06:57:55.165Z</time></trkpt><trkpt lat="46.1244445" lon="13.5607348"><ele>229.0</ele><time>2026-05-02T06:57:56.165Z</time></trkpt><trkpt lat="46.1243948" lon="13.5606388"><ele>228.99999999999997</ele><time>2026-05-02T06:57:57.171Z</time></trkpt><trkpt lat="46.1243506" lon="13.5605344"><ele>229.0</ele><time>2026-05-02T06:57:58.169Z</time></trkpt><trkpt lat="46.1243058" lon="13.5604264"><ele>230.83333333333331</ele><time>2026-05-02T06:57:59.164Z</time></trkpt><trkpt lat="46.1242619" lon="13.5603201"><ele>232.66666666666666</ele><time>2026-05-02T06:58:00.164Z</time></trkpt><trkpt lat="46.1242072" lon="13.5602219"><ele>234.5</ele><time>2026-05-02T06:58:01.161Z</time></trkpt><trkpt lat="46.1241532" lon="13.5601237"><ele>236.33333333333331</ele><time>2026-05-02T06:58:02.161Z</time></trkpt><trkpt lat="46.1241114" lon="13.5600177"><ele>238.16666666666666</ele><time>2026-05-02T06:58:03.167Z</time></trkpt><trkpt lat="46.1240741" lon="13.5599117"><ele>240.0</ele><time>2026-05-02T06:58:04.155Z</time></trkpt><trkpt lat="46.1240342" lon="13.5598032"><ele>240.0</ele><time>2026-05-02T06:58:05.171Z</time></trkpt><trkpt lat="46.1239897" lon="13.5597104"><ele>240.0</ele><time>2026-05-02T06:58:06.155Z</time></trkpt><trkpt lat="46.1239528" lon="13.5596266"><ele>240.0</ele><time>2026-05-02T06:58:07.173Z</time></trkpt><trkpt lat="46.1239462" lon="13.5594465"><ele>240.0</ele><time>2026-05-02T06:58:09.156Z</time></trkpt><trkpt lat="46.123948" lon="13.5593377"><ele>240.0</ele><time>2026-05-02T06:58:10.154Z</time></trkpt><trkpt lat="46.1239328" lon="13.5592463"><ele>240.0</ele><time>2026-05-02T06:58:11.156Z</time></trkpt><trkpt lat="46.1238955" lon="13.5591577"><ele>238.6</ele><time>2026-05-02T06:58:12.166Z</time></trkpt><trkpt lat="46.1238755" lon="13.558995"><ele>237.2</ele><time>2026-05-02T06:58:14.146Z</time></trkpt><trkpt lat="46.1239315" lon="13.558884"><ele>235.8</ele><time>2026-05-02T06:58:16.153Z</time></trkpt><trkpt lat="46.1240014" lon="13.5587774"><ele>234.4</ele><time>2026-05-02T06:58:18.153Z</time></trkpt><trkpt lat="46.1240004" lon="13.5586417"><ele>233.0</ele><time>2026-05-02T06:58:20.172Z</time></trkpt><trkpt lat="46.1239586" lon="13.5585651"><ele>230.83333333333334</ele><time>2026-05-02T06:58:21.154Z</time></trkpt><trkpt lat="46.1239032" lon="13.5584843"><ele>228.66666666666669</ele><time>2026-05-02T06:58:22.167Z</time></trkpt><trkpt lat="46.1238507" lon="13.5583862"><ele>226.5</ele><time>2026-05-02T06:58:23.162Z</time></trkpt><trkpt lat="46.1237955" lon="13.5582881"><ele>224.33333333333331</ele><time>2026-05-02T06:58:24.159Z</time></trkpt><trkpt lat="46.1237327" lon="13.5581861"><ele>222.16666666666666</ele><time>2026-05-02T06:58:25.156Z</time></trkpt><trkpt lat="46.1236761" lon="13.55808"><ele>220.0</ele><time>2026-05-02T06:58:26.164Z</time></trkpt><trkpt lat="46.123625" lon="13.5579619"><ele>218.2</ele><time>2026-05-02T06:58:27.158Z</time></trkpt><trkpt lat="46.1235833" lon="13.5578358"><ele>216.4</ele><time>2026-05-02T06:58:28.159Z</time></trkpt><trkpt lat="46.1235378" lon="13.5577114"><ele>214.60000000000002</ele><time>2026-05-02T06:58:29.156Z</time></trkpt><trkpt lat="46.1234902" lon="13.5575834"><ele>212.8</ele><time>2026-05-02T06:58:30.177Z</time></trkpt><trkpt lat="46.1234475" lon="13.5574506"><ele>211.0</ele><time>2026-05-02T06:58:31.159Z</time></trkpt><trkpt lat="46.1234152" lon="13.5573009"><ele>211.0</ele><time>2026-05-02T06:58:32.159Z</time></trkpt><trkpt lat="46.1233817" lon="13.5571412"><ele>211.0</ele><time>2026-05-02T06:58:33.158Z</time></trkpt><trkpt lat="46.1233551" lon="13.5569746"><ele>211.0</ele><time>2026-05-02T06:58:34.155Z</time></trkpt><trkpt lat="46.1233338" lon="13.5568"><ele>211.0</ele><time>2026-05-02T06:58:35.157Z</time></trkpt><trkpt lat="46.1233266" lon="13.5566219"><ele>208.75</ele><time>2026-05-02T06:58:36.159Z</time></trkpt><trkpt lat="46.1233206" lon="13.5564411"><ele>206.5</ele><time>2026-05-02T06:58:37.152Z</time></trkpt><trkpt lat="46.1233129" lon="13.5562561"><ele>204.25</ele><time>2026-05-02T06:58:38.162Z</time></trkpt><trkpt lat="46.1233053" lon="13.5560644"><ele>202.0</ele><time>2026-05-02T06:58:39.146Z</time></trkpt><trkpt lat="46.1232995" lon="13.55587"><ele>201.5</ele><time>2026-05-02T06:58:40.154Z</time></trkpt><trkpt lat="46.1232932" lon="13.5556741"><ele>201.0</ele><time>2026-05-02T06:58:41.155Z</time></trkpt><trkpt lat="46.1232882" lon="13.5554776"><ele>200.5</ele><time>2026-05-02T06:58:42.166Z</time></trkpt><trkpt lat="46.1232821" lon="13.5552784"><ele>200.0</ele><time>2026-05-02T06:58:43.154Z</time></trkpt><trkpt lat="46.1232738" lon="13.5550797"><ele>199.25</ele><time>2026-05-02T06:58:44.16Z</time></trkpt><trkpt lat="46.1232675" lon="13.5548795"><ele>198.5</ele><time>2026-05-02T06:58:45.147Z</time></trkpt><trkpt lat="46.1232645" lon="13.5546809"><ele>197.75</ele><time>2026-05-02T06:58:46.149Z</time></trkpt><trkpt lat="46.1232598" lon="13.5544776"><ele>197.0</ele><time>2026-05-02T06:58:47.151Z</time></trkpt><trkpt lat="46.1232537" lon="13.554279"><ele>196.0</ele><time>2026-05-02T06:58:48.151Z</time></trkpt><trkpt lat="46.1232427" lon="13.554078"><ele>195.0</ele><time>2026-05-02T06:58:49.168Z</time></trkpt><trkpt lat="46.1232308" lon="13.5538766"><ele>194.0</ele><time>2026-05-02T06:58:50.153Z</time></trkpt><trkpt lat="46.1232148" lon="13.5536742"><ele>193.0</ele><time>2026-05-02T06:58:51.154Z</time></trkpt><trkpt lat="46.1231916" lon="13.5534722"><ele>195.25</ele><time>2026-05-02T06:58:52.163Z</time></trkpt><trkpt lat="46.123157" lon="13.5532691"><ele>197.5</ele><time>2026-05-02T06:58:53.151Z</time></trkpt><trkpt lat="46.1231172" lon="13.5530633"><ele>199.75</ele><time>2026-05-02T06:58:54.151Z</time></trkpt><trkpt lat="46.1230694" lon="13.5528595"><ele>202.0</ele><time>2026-05-02T06:58:55.161Z</time></trkpt><trkpt lat="46.1230177" lon="13.5526577"><ele>202.0</ele><time>2026-05-02T06:58:56.168Z</time></trkpt><trkpt lat="46.1229626" lon="13.5524573"><ele>202.0</ele><time>2026-05-02T06:58:57.145Z</time></trkpt><trkpt lat="46.1229061" lon="13.5522556"><ele>202.0</ele><time>2026-05-02T06:58:58.152Z</time></trkpt><trkpt lat="46.1228524" lon="13.5520556"><ele>202.0</ele><time>2026-05-02T06:58:59.152Z</time></trkpt><trkpt lat="46.1228048" lon="13.5518502"><ele>199.66666666666666</ele><time>2026-05-02T06:59:00.162Z</time></trkpt><trkpt lat="46.1227626" lon="13.5516389"><ele>197.33333333333331</ele><time>2026-05-02T06:59:01.158Z</time></trkpt><trkpt lat="46.1227243" lon="13.5514264"><ele>195.0</ele><time>2026-05-02T06:59:02.158Z</time></trkpt><trkpt lat="46.1226873" lon="13.5512068"><ele>193.33333333333334</ele><time>2026-05-02T06:59:03.156Z</time></trkpt><trkpt lat="46.1226482" lon="13.5509802"><ele>191.66666666666669</ele><time>2026-05-02T06:59:04.167Z</time></trkpt><trkpt lat="46.122614" lon="13.5507546"><ele>190.0</ele><time>2026-05-02T06:59:05.167Z</time></trkpt><trkpt lat="46.122581" lon="13.5505244"><ele>189.66666666666669</ele><time>2026-05-02T06:59:06.163Z</time></trkpt><trkpt lat="46.122546" lon="13.5502895"><ele>189.33333333333334</ele><time>2026-05-02T06:59:07.182Z</time></trkpt><trkpt lat="46.1225131" lon="13.5500541"><ele>189.0</ele><time>2026-05-02T06:59:08.169Z</time></trkpt><trkpt lat="46.1224748" lon="13.5498128"><ele>189.0</ele><time>2026-05-02T06:59:09.173Z</time></trkpt><trkpt lat="46.1224387" lon="13.5495739"><ele>189.0</ele><time>2026-05-02T06:59:10.172Z</time></trkpt><trkpt lat="46.1224027" lon="13.5493276"><ele>189.0</ele><time>2026-05-02T06:59:11.155Z</time></trkpt><trkpt lat="46.1223704" lon="13.5490819"><ele>198.66666666666669</ele><time>2026-05-02T06:59:12.164Z</time></trkpt><trkpt lat="46.122342" lon="13.5488359"><ele>208.33333333333334</ele><time>2026-05-02T06:59:13.166Z</time></trkpt><trkpt lat="46.1223199" lon="13.5485897"><ele>218.0</ele><time>2026-05-02T06:59:14.163Z</time></trkpt><trkpt lat="46.1222976" lon="13.5483404"><ele>218.0</ele><time>2026-05-02T06:59:15.174Z</time></trkpt><trkpt lat="46.1222764" lon="13.5480917"><ele>218.0</ele><time>2026-05-02T06:59:16.171Z</time></trkpt><trkpt lat="46.12226" lon="13.5478454"><ele>218.0</ele><time>2026-05-02T06:59:17.165Z</time></trkpt><trkpt lat="46.1222431" lon="13.5476002"><ele>213.66666666666669</ele><time>2026-05-02T06:59:18.166Z</time></trkpt><trkpt lat="46.1222243" lon="13.5473549"><ele>209.33333333333331</ele><time>2026-05-02T06:59:19.155Z</time></trkpt><trkpt lat="46.1222101" lon="13.5471104"><ele>205.0</ele><time>2026-05-02T06:59:20.169Z</time></trkpt><trkpt lat="46.1221948" lon="13.5468631"><ele>200.33333333333331</ele><time>2026-05-02T06:59:21.157Z</time></trkpt><trkpt lat="46.1221746" lon="13.5466126"><ele>195.66666666666666</ele><time>2026-05-02T06:59:22.164Z</time></trkpt><trkpt lat="46.1221549" lon="13.546363"><ele>191.0</ele><time>2026-05-02T06:59:23.164Z</time></trkpt><trkpt lat="46.1221354" lon="13.5461151"><ele>188.33333333333331</ele><time>2026-05-02T06:59:24.191Z</time></trkpt><trkpt lat="46.1221148" lon="13.5458665"><ele>185.66666666666666</ele><time>2026-05-02T06:59:25.16Z</time></trkpt><trkpt lat="46.1220947" lon="13.5456157"><ele>183.0</ele><time>2026-05-02T06:59:26.167Z</time></trkpt><trkpt lat="46.122074" lon="13.5453645"><ele>183.0</ele><time>2026-05-02T06:59:27.179Z</time></trkpt><trkpt lat="46.1220546" lon="13.5451133"><ele>183.0</ele><time>2026-05-02T06:59:28.159Z</time></trkpt><trkpt lat="46.1220383" lon="13.5448648"><ele>183.0</ele><time>2026-05-02T06:59:29.173Z</time></trkpt><trkpt lat="46.122021" lon="13.54462"><ele>183.0</ele><time>2026-05-02T06:59:30.161Z</time></trkpt><trkpt lat="46.1220056" lon="13.5443807"><ele>183.0</ele><time>2026-05-02T06:59:31.169Z</time></trkpt><trkpt lat="46.121992" lon="13.5441474"><ele>183.0</ele><time>2026-05-02T06:59:32.169Z</time></trkpt><trkpt lat="46.1219755" lon="13.5439114"><ele>184.0</ele><time>2026-05-02T06:59:33.163Z</time></trkpt><trkpt lat="46.1219582" lon="13.5436769"><ele>185.0</ele><time>2026-05-02T06:59:34.165Z</time></trkpt><trkpt lat="46.1219394" lon="13.5434404"><ele>186.0</ele><time>2026-05-02T06:59:35.155Z</time></trkpt><trkpt lat="46.1219212" lon="13.5432018"><ele>186.0</ele><time>2026-05-02T06:59:36.162Z</time></trkpt><trkpt lat="46.1218939" lon="13.5429638"><ele>186.0</ele><time>2026-05-02T06:59:37.155Z</time></trkpt><trkpt lat="46.1218514" lon="13.5427265"><ele>186.0</ele><time>2026-05-02T06:59:38.179Z</time></trkpt><trkpt lat="46.1218009" lon="13.5424883"><ele>189.33333333333331</ele><time>2026-05-02T06:59:39.148Z</time></trkpt><trkpt lat="46.1217459" lon="13.5422545"><ele>192.66666666666666</ele><time>2026-05-02T06:59:40.161Z</time></trkpt><trkpt lat="46.121689" lon="13.5420174"><ele>196.0</ele><time>2026-05-02T06:59:41.156Z</time></trkpt><trkpt lat="46.1216329" lon="13.5417868"><ele>197.0</ele><time>2026-05-02T06:59:42.164Z</time></trkpt><trkpt lat="46.1215778" lon="13.5415532"><ele>198.0</ele><time>2026-05-02T06:59:43.152Z</time></trkpt><trkpt lat="46.121523" lon="13.5413242"><ele>199.0</ele><time>2026-05-02T06:59:44.167Z</time></trkpt><trkpt lat="46.121465" lon="13.5410885"><ele>192.33333333333331</ele><time>2026-05-02T06:59:45.164Z</time></trkpt><trkpt lat="46.121404" lon="13.5408522"><ele>185.66666666666666</ele><time>2026-05-02T06:59:46.16Z</time></trkpt><trkpt lat="46.1213455" lon="13.5406148"><ele>179.0</ele><time>2026-05-02T06:59:47.153Z</time></trkpt><trkpt lat="46.1212833" lon="13.5403764"><ele>179.0</ele><time>2026-05-02T06:59:48.158Z</time></trkpt><trkpt lat="46.121223" lon="13.5401359"><ele>179.0</ele><time>2026-05-02T06:59:49.162Z</time></trkpt><trkpt lat="46.1211557" lon="13.5399005"><ele>179.0</ele><time>2026-05-02T06:59:50.16Z</time></trkpt><trkpt lat="46.1210839" lon="13.5396706"><ele>178.66666666666666</ele><time>2026-05-02T06:59:51.169Z</time></trkpt><trkpt lat="46.1210145" lon="13.5394436"><ele>178.33333333333334</ele><time>2026-05-02T06:59:52.184Z</time></trkpt><trkpt lat="46.1209467" lon="13.5392159"><ele>178.0</ele><time>2026-05-02T06:59:53.167Z</time></trkpt><trkpt lat="46.1208781" lon="13.5389849"><ele>178.0</ele><time>2026-05-02T06:59:54.157Z</time></trkpt><trkpt lat="46.1208132" lon="13.5387529"><ele>178.0</ele><time>2026-05-02T06:59:55.172Z</time></trkpt><trkpt lat="46.1207465" lon="13.5385203"><ele>178.0</ele><time>2026-05-02T06:59:56.167Z</time></trkpt><trkpt lat="46.1206765" lon="13.5382892"><ele>177.0</ele><time>2026-05-02T06:59:57.167Z</time></trkpt><trkpt lat="46.1206038" lon="13.5380574"><ele>176.0</ele><time>2026-05-02T06:59:58.156Z</time></trkpt><trkpt lat="46.1205463" lon="13.5378293"><ele>175.0</ele><time>2026-05-02T06:59:59.17Z</time></trkpt><trkpt lat="46.1205071" lon="13.5375983"><ele>174.0</ele><time>2026-05-02T07:00:00.158Z</time></trkpt><trkpt lat="46.1204841" lon="13.5373533"><ele>173.0</ele><time>2026-05-02T07:00:01.158Z</time></trkpt><trkpt lat="46.1204602" lon="13.5370992"><ele>172.0</ele><time>2026-05-02T07:00:02.161Z</time></trkpt><trkpt lat="46.1204406" lon="13.536847"><ele>171.66666666666669</ele><time>2026-05-02T07:00:03.157Z</time></trkpt><trkpt lat="46.1204219" lon="13.5366023"><ele>171.33333333333334</ele><time>2026-05-02T07:00:04.169Z</time></trkpt><trkpt lat="46.1204042" lon="13.5363618"><ele>171.0</ele><time>2026-05-02T07:00:05.169Z</time></trkpt><trkpt lat="46.1204007" lon="13.5361278"><ele>171.66666666666666</ele><time>2026-05-02T07:00:06.163Z</time></trkpt><trkpt lat="46.1204199" lon="13.5358881"><ele>172.33333333333331</ele><time>2026-05-02T07:00:07.172Z</time></trkpt><trkpt lat="46.12046" lon="13.5356505"><ele>173.0</ele><time>2026-05-02T07:00:08.15Z</time></trkpt><trkpt lat="46.1205168" lon="13.5354037"><ele>173.66666666666666</ele><time>2026-05-02T07:00:09.169Z</time></trkpt><trkpt lat="46.1205859" lon="13.5351627"><ele>174.33333333333334</ele><time>2026-05-02T07:00:10.158Z</time></trkpt><trkpt lat="46.1206697" lon="13.5349322"><ele>175.0</ele><time>2026-05-02T07:00:11.146Z</time></trkpt><trkpt lat="46.1207607" lon="13.5347066"><ele>172.33333333333334</ele><time>2026-05-02T07:00:12.174Z</time></trkpt><trkpt lat="46.1208501" lon="13.5344849"><ele>169.66666666666666</ele><time>2026-05-02T07:00:13.144Z</time></trkpt><trkpt lat="46.1209342" lon="13.5342646"><ele>167.0</ele><time>2026-05-02T07:00:14.153Z</time></trkpt><trkpt lat="46.1210073" lon="13.5340391"><ele>167.0</ele><time>2026-05-02T07:00:15.171Z</time></trkpt><trkpt lat="46.1210698" lon="13.5338198"><ele>167.0</ele><time>2026-05-02T07:00:16.154Z</time></trkpt><trkpt lat="46.1211187" lon="13.5335863"><ele>167.0</ele><time>2026-05-02T07:00:17.165Z</time></trkpt><trkpt lat="46.1211495" lon="13.5333432"><ele>166.0</ele><time>2026-05-02T07:00:18.167Z</time></trkpt><trkpt lat="46.1211668" lon="13.5330906"><ele>165.0</ele><time>2026-05-02T07:00:19.164Z</time></trkpt><trkpt lat="46.1211784" lon="13.5328425"><ele>164.0</ele><time>2026-05-02T07:00:20.169Z</time></trkpt><trkpt lat="46.1211912" lon="13.5325877"><ele>164.0</ele><time>2026-05-02T07:00:21.164Z</time></trkpt><trkpt lat="46.1212074" lon="13.5323352"><ele>164.0</ele><time>2026-05-02T07:00:22.166Z</time></trkpt><trkpt lat="46.1212252" lon="13.5320809"><ele>164.0</ele><time>2026-05-02T07:00:23.166Z</time></trkpt><trkpt lat="46.1212419" lon="13.5318456"><ele>163.66666666666666</ele><time>2026-05-02T07:00:24.172Z</time></trkpt><trkpt lat="46.121256" lon="13.5316181"><ele>163.33333333333334</ele><time>2026-05-02T07:00:25.164Z</time></trkpt><trkpt lat="46.1212718" lon="13.5313848"><ele>163.0</ele><time>2026-05-02T07:00:26.172Z</time></trkpt><trkpt lat="46.1212955" lon="13.5311541"><ele>163.0</ele><time>2026-05-02T07:00:27.157Z</time></trkpt><trkpt lat="46.1213206" lon="13.5309189"><ele>163.0</ele><time>2026-05-02T07:00:28.169Z</time></trkpt><trkpt lat="46.1213555" lon="13.5306879"><ele>163.0</ele><time>2026-05-02T07:00:29.163Z</time></trkpt><trkpt lat="46.1213977" lon="13.5304596"><ele>163.0</ele><time>2026-05-02T07:00:30.168Z</time></trkpt><trkpt lat="46.1214404" lon="13.5302299"><ele>163.0</ele><time>2026-05-02T07:00:31.155Z</time></trkpt><trkpt lat="46.1214788" lon="13.5299998"><ele>163.0</ele><time>2026-05-02T07:00:32.153Z</time></trkpt><trkpt lat="46.1215123" lon="13.5297791"><ele>163.0</ele><time>2026-05-02T07:00:33.166Z</time></trkpt><trkpt lat="46.1215452" lon="13.529574"><ele>163.0</ele><time>2026-05-02T07:00:34.161Z</time></trkpt><trkpt lat="46.1215778" lon="13.5293828"><ele>163.0</ele><time>2026-05-02T07:00:35.148Z</time></trkpt><trkpt lat="46.1216027" lon="13.5291978"><ele>163.0</ele><time>2026-05-02T07:00:36.157Z</time></trkpt><trkpt lat="46.1216226" lon="13.5290234"><ele>164.16666666666669</ele><time>2026-05-02T07:00:37.159Z</time></trkpt><trkpt lat="46.1216424" lon="13.5288683"><ele>165.33333333333334</ele><time>2026-05-02T07:00:38.169Z</time></trkpt><trkpt lat="46.1216596" lon="13.5287354"><ele>166.5</ele><time>2026-05-02T07:00:39.16Z</time></trkpt><trkpt lat="46.121679" lon="13.5286236"><ele>167.66666666666666</ele><time>2026-05-02T07:00:40.159Z</time></trkpt><trkpt lat="46.1216924" lon="13.5285168"><ele>168.83333333333331</ele><time>2026-05-02T07:00:41.161Z</time></trkpt><trkpt lat="46.1216983" lon="13.5284237"><ele>170.0</ele><time>2026-05-02T07:00:42.169Z</time></trkpt><trkpt lat="46.1217189" lon="13.5283224"><ele>170.0</ele><time>2026-05-02T07:00:44.154Z</time></trkpt><trkpt lat="46.1218032" lon="13.5283589"><ele>170.0</ele><time>2026-05-02T07:00:46.15Z</time></trkpt><trkpt lat="46.1218568" lon="13.5284203"><ele>170.0</ele><time>2026-05-02T07:00:47.147Z</time></trkpt><trkpt lat="46.1219075" lon="13.5285088"><ele>170.0</ele><time>2026-05-02T07:00:48.149Z</time></trkpt><trkpt lat="46.121948" lon="13.5286147"><ele>170.0</ele><time>2026-05-02T07:00:49.167Z</time></trkpt><trkpt lat="46.1220241" lon="13.5286883"><ele>170.0</ele><time>2026-05-02T07:00:50.156Z</time></trkpt><trkpt lat="46.1221182" lon="13.5287219"><ele>170.4</ele><time>2026-05-02T07:00:51.157Z</time></trkpt><trkpt lat="46.1222209" lon="13.5287764"><ele>170.8</ele><time>2026-05-02T07:00:52.168Z</time></trkpt><trkpt lat="46.1222811" lon="13.5288945"><ele>171.2</ele><time>2026-05-02T07:00:53.156Z</time></trkpt><trkpt lat="46.1223015" lon="13.5290479"><ele>171.6</ele><time>2026-05-02T07:00:54.158Z</time></trkpt><trkpt lat="46.122295" lon="13.5292089"><ele>172.0</ele><time>2026-05-02T07:00:55.156Z</time></trkpt><trkpt lat="46.1222516" lon="13.5293789"><ele>172.0</ele><time>2026-05-02T07:00:56.153Z</time></trkpt><trkpt lat="46.1221871" lon="13.5295426"><ele>172.0</ele><time>2026-05-02T07:00:57.146Z</time></trkpt><trkpt lat="46.1221283" lon="13.5297143"><ele>172.0</ele><time>2026-05-02T07:00:58.153Z</time></trkpt><trkpt lat="46.1220715" lon="13.5298923"><ele>172.0</ele><time>2026-05-02T07:00:59.155Z</time></trkpt><trkpt lat="46.1220265" lon="13.5300656"><ele>173.25</ele><time>2026-05-02T07:01:00.149Z</time></trkpt><trkpt lat="46.1219879" lon="13.5302304"><ele>174.5</ele><time>2026-05-02T07:01:01.143Z</time></trkpt><trkpt lat="46.121964" lon="13.5303924"><ele>175.75</ele><time>2026-05-02T07:01:02.173Z</time></trkpt><trkpt lat="46.1219744" lon="13.5305666"><ele>177.0</ele><time>2026-05-02T07:01:03.165Z</time></trkpt><trkpt lat="46.1220025" lon="13.5307356"><ele>177.25</ele><time>2026-05-02T07:01:04.158Z</time></trkpt><trkpt lat="46.1220455" lon="13.5309049"><ele>177.5</ele><time>2026-05-02T07:01:05.171Z</time></trkpt><trkpt lat="46.1220992" lon="13.5310621"><ele>177.75</ele><time>2026-05-02T07:01:06.162Z</time></trkpt><trkpt lat="46.1221683" lon="13.5311987"><ele>178.0</ele><time>2026-05-02T07:01:07.158Z</time></trkpt><trkpt lat="46.122256" lon="13.5313121"><ele>178.0</ele><time>2026-05-02T07:01:08.18Z</time></trkpt><trkpt lat="46.1223626" lon="13.5313952"><ele>178.0</ele><time>2026-05-02T07:01:09.163Z</time></trkpt><trkpt lat="46.1224733" lon="13.5314547"><ele>178.0</ele><time>2026-05-02T07:01:10.159Z</time></trkpt><trkpt lat="46.1225779" lon="13.5314956"><ele>178.0</ele><time>2026-05-02T07:01:11.168Z</time></trkpt><trkpt lat="46.1226683" lon="13.5315429"><ele>178.0</ele><time>2026-05-02T07:01:12.154Z</time></trkpt><trkpt lat="46.1227424" lon="13.5316191"><ele>183.8</ele><time>2026-05-02T07:01:13.154Z</time></trkpt><trkpt lat="46.1227898" lon="13.5317207"><ele>189.60000000000002</ele><time>2026-05-02T07:01:14.163Z</time></trkpt><trkpt lat="46.1228082" lon="13.5318389"><ele>195.39999999999998</ele><time>2026-05-02T07:01:15.147Z</time></trkpt><trkpt lat="46.1227939" lon="13.531962"><ele>201.2</ele><time>2026-05-02T07:01:16.152Z</time></trkpt><trkpt lat="46.122738" lon="13.5320947"><ele>207.0</ele><time>2026-05-02T07:01:17.144Z</time></trkpt><trkpt lat="46.1226488" lon="13.532211"><ele>209.25</ele><time>2026-05-02T07:01:18.147Z</time></trkpt><trkpt lat="46.122555" lon="13.5323198"><ele>211.5</ele><time>2026-05-02T07:01:19.169Z</time></trkpt><trkpt lat="46.1224713" lon="13.5324349"><ele>213.75</ele><time>2026-05-02T07:01:20.151Z</time></trkpt><trkpt lat="46.1224353" lon="13.5325755"><ele>216.0</ele><time>2026-05-02T07:01:21.139Z</time></trkpt><trkpt lat="46.1224381" lon="13.5327549"><ele>217.0</ele><time>2026-05-02T07:01:22.146Z</time></trkpt><trkpt lat="46.1224763" lon="13.532949"><ele>218.0</ele><time>2026-05-02T07:01:23.157Z</time></trkpt><trkpt lat="46.1225275" lon="13.5331497"><ele>219.0</ele><time>2026-05-02T07:01:24.152Z</time></trkpt><trkpt lat="46.1225717" lon="13.5333605"><ele>220.0</ele><time>2026-05-02T07:01:25.142Z</time></trkpt><trkpt lat="46.1226131" lon="13.5335692"><ele>218.75</ele><time>2026-05-02T07:01:26.169Z</time></trkpt><trkpt lat="46.1226408" lon="13.533778"><ele>217.5</ele><time>2026-05-02T07:01:27.144Z</time></trkpt><trkpt lat="46.1226825" lon="13.5339774"><ele>216.25</ele><time>2026-05-02T07:01:28.154Z</time></trkpt><trkpt lat="46.1227349" lon="13.5341658"><ele>215.0</ele><time>2026-05-02T07:01:29.142Z</time></trkpt><trkpt lat="46.1227965" lon="13.5343429"><ele>215.0</ele><time>2026-05-02T07:01:30.143Z</time></trkpt><trkpt lat="46.1228589" lon="13.5345152"><ele>215.0</ele><time>2026-05-02T07:01:31.145Z</time></trkpt><trkpt lat="46.1229244" lon="13.5346869"><ele>215.0</ele><time>2026-05-02T07:01:32.14Z</time></trkpt><trkpt lat="46.1229815" lon="13.5348543"><ele>215.0</ele><time>2026-05-02T07:01:33.142Z</time></trkpt><trkpt lat="46.1230289" lon="13.5350117"><ele>213.25</ele><time>2026-05-02T07:01:34.167Z</time></trkpt><trkpt lat="46.1230708" lon="13.5351631"><ele>211.5</ele><time>2026-05-02T07:01:35.148Z</time></trkpt><trkpt lat="46.1231161" lon="13.5353152"><ele>209.75</ele><time>2026-05-02T07:01:36.163Z</time></trkpt><trkpt lat="46.1231729" lon="13.5354677"><ele>208.0</ele><time>2026-05-02T07:01:37.164Z</time></trkpt><trkpt lat="46.1232498" lon="13.5356219"><ele>215.25</ele><time>2026-05-02T07:01:38.16Z</time></trkpt><trkpt lat="46.123335" lon="13.5357685"><ele>222.5</ele><time>2026-05-02T07:01:39.166Z</time></trkpt><trkpt lat="46.123415" lon="13.5359158"><ele>229.75</ele><time>2026-05-02T07:01:40.165Z</time></trkpt><trkpt lat="46.1234906" lon="13.536053"><ele>237.0</ele><time>2026-05-02T07:01:41.156Z</time></trkpt><trkpt lat="46.1235777" lon="13.5361926"><ele>237.2</ele><time>2026-05-02T07:01:42.153Z</time></trkpt><trkpt lat="46.123663" lon="13.536318"><ele>237.39999999999998</ele><time>2026-05-02T07:01:43.15Z</time></trkpt><trkpt lat="46.1237418" lon="13.5364182"><ele>237.60000000000002</ele><time>2026-05-02T07:01:44.155Z</time></trkpt><trkpt lat="46.1238091" lon="13.5364875"><ele>237.8</ele><time>2026-05-02T07:01:45.145Z</time></trkpt><trkpt lat="46.1238658" lon="13.5365658"><ele>238.0</ele><time>2026-05-02T07:01:46.163Z</time></trkpt><trkpt lat="46.1239066" lon="13.5366481"><ele>237.99999999999997</ele><time>2026-05-02T07:01:47.156Z</time></trkpt><trkpt lat="46.1239155" lon="13.5367529"><ele>238.0</ele><time>2026-05-02T07:01:48.151Z</time></trkpt><trkpt lat="46.1238807" lon="13.5368621"><ele>238.0</ele><time>2026-05-02T07:01:49.153Z</time></trkpt><trkpt lat="46.1238178" lon="13.5369534"><ele>238.0</ele><time>2026-05-02T07:01:50.156Z</time></trkpt><trkpt lat="46.1237548" lon="13.5370447"><ele>237.99999999999997</ele><time>2026-05-02T07:01:51.151Z</time></trkpt><trkpt lat="46.1236985" lon="13.5371243"><ele>238.0</ele><time>2026-05-02T07:01:52.16Z</time></trkpt><trkpt lat="46.1236451" lon="13.5372313"><ele>238.0</ele><time>2026-05-02T07:01:54.16Z</time></trkpt><trkpt lat="46.1237165" lon="13.5372802"><ele>238.0</ele><time>2026-05-02T07:01:57.159Z</time></trkpt><trkpt lat="46.1238039" lon="13.5371636"><ele>238.0</ele><time>2026-05-02T07:01:59.142Z</time></trkpt><trkpt lat="46.1238988" lon="13.5370181"><ele>238.0</ele><time>2026-05-02T07:02:01.156Z</time></trkpt><trkpt lat="46.1239562" lon="13.5369278"><ele>238.0</ele><time>2026-05-02T07:02:02.149Z</time></trkpt><trkpt lat="46.1240094" lon="13.5368327"><ele>237.99999999999997</ele><time>2026-05-02T07:02:03.15Z</time></trkpt><trkpt lat="46.1240398" lon="13.5367525"><ele>238.0</ele><time>2026-05-02T07:02:04.16Z</time></trkpt><trkpt lat="46.1240521" lon="13.5366616"><ele>238.0</ele><time>2026-05-02T07:02:05.157Z</time></trkpt><trkpt lat="46.1240197" lon="13.5365617"><ele>238.0</ele><time>2026-05-02T07:02:06.153Z</time></trkpt><trkpt lat="46.1239665" lon="13.5364329"><ele>237.99999999999997</ele><time>2026-05-02T07:02:07.139Z</time></trkpt><trkpt lat="46.1239111" lon="13.536286"><ele>238.0</ele><time>2026-05-02T07:02:08.172Z</time></trkpt><trkpt lat="46.1238595" lon="13.5361498"><ele>237.83333333333331</ele><time>2026-05-02T07:02:09.166Z</time></trkpt><trkpt lat="46.1238265" lon="13.5360271"><ele>237.66666666666666</ele><time>2026-05-02T07:02:10.157Z</time></trkpt><trkpt lat="46.123795" lon="13.535922"><ele>237.5</ele><time>2026-05-02T07:02:11.162Z</time></trkpt><trkpt lat="46.1237626" lon="13.53581"><ele>237.33333333333331</ele><time>2026-05-02T07:02:12.17Z</time></trkpt><trkpt lat="46.1237392" lon="13.5356903"><ele>237.16666666666666</ele><time>2026-05-02T07:02:13.161Z</time></trkpt><trkpt lat="46.1237261" lon="13.535566"><ele>237.0</ele><time>2026-05-02T07:02:14.16Z</time></trkpt><trkpt lat="46.1237252" lon="13.5354344"><ele>238.6</ele><time>2026-05-02T07:02:15.171Z</time></trkpt><trkpt lat="46.1237398" lon="13.5352972"><ele>240.2</ele><time>2026-05-02T07:02:16.152Z</time></trkpt><trkpt lat="46.1237538" lon="13.5351571"><ele>241.8</ele><time>2026-05-02T07:02:17.159Z</time></trkpt><trkpt lat="46.1237789" lon="13.5350216"><ele>243.4</ele><time>2026-05-02T07:02:18.172Z</time></trkpt><trkpt lat="46.1238179" lon="13.534886"><ele>245.0</ele><time>2026-05-02T07:02:19.159Z</time></trkpt><trkpt lat="46.1238396" lon="13.5347512"><ele>245.0</ele><time>2026-05-02T07:02:20.178Z</time></trkpt><trkpt lat="46.1238358" lon="13.5346149"><ele>245.0</ele><time>2026-05-02T07:02:21.165Z</time></trkpt><trkpt lat="46.1238144" lon="13.5344756"><ele>245.0</ele><time>2026-05-02T07:02:22.166Z</time></trkpt><trkpt lat="46.1237895" lon="13.5343321"><ele>245.0</ele><time>2026-05-02T07:02:23.152Z</time></trkpt><trkpt lat="46.1237753" lon="13.5341869"><ele>245.0</ele><time>2026-05-02T07:02:24.158Z</time></trkpt><trkpt lat="46.1237657" lon="13.5340376"><ele>246.2</ele><time>2026-05-02T07:02:25.145Z</time></trkpt><trkpt lat="46.1237608" lon="13.5338878"><ele>247.4</ele><time>2026-05-02T07:02:26.161Z</time></trkpt><trkpt lat="46.1237619" lon="13.533744"><ele>248.60000000000002</ele><time>2026-05-02T07:02:27.176Z</time></trkpt><trkpt lat="46.1237732" lon="13.533609"><ele>249.8</ele><time>2026-05-02T07:02:28.167Z</time></trkpt><trkpt lat="46.1238014" lon="13.5334753"><ele>251.0</ele><time>2026-05-02T07:02:29.15Z</time></trkpt><trkpt lat="46.1238351" lon="13.5333423"><ele>251.20000000000002</ele><time>2026-05-02T07:02:30.165Z</time></trkpt><trkpt lat="46.1238745" lon="13.5332049"><ele>251.40000000000003</ele><time>2026-05-02T07:02:31.166Z</time></trkpt><trkpt lat="46.1239227" lon="13.5330739"><ele>251.6</ele><time>2026-05-02T07:02:32.161Z</time></trkpt><trkpt lat="46.1239748" lon="13.5329563"><ele>251.8</ele><time>2026-05-02T07:02:33.157Z</time></trkpt><trkpt lat="46.1240411" lon="13.5328712"><ele>252.0</ele><time>2026-05-02T07:02:34.168Z</time></trkpt><trkpt lat="46.1241214" lon="13.5328043"><ele>254.0</ele><time>2026-05-02T07:02:35.165Z</time></trkpt><trkpt lat="46.124204" lon="13.532763"><ele>256.0</ele><time>2026-05-02T07:02:36.173Z</time></trkpt><trkpt lat="46.1242813" lon="13.5327572"><ele>258.0</ele><time>2026-05-02T07:02:37.155Z</time></trkpt><trkpt lat="46.1243562" lon="13.5327935"><ele>260.0</ele><time>2026-05-02T07:02:38.16Z</time></trkpt><trkpt lat="46.1244368" lon="13.5328553"><ele>262.0</ele><time>2026-05-02T07:02:39.166Z</time></trkpt><trkpt lat="46.1245184" lon="13.5329342"><ele>264.0</ele><time>2026-05-02T07:02:40.17Z</time></trkpt><trkpt lat="46.1246014" lon="13.533021"><ele>264.8</ele><time>2026-05-02T07:02:41.167Z</time></trkpt><trkpt lat="46.1246866" lon="13.5331084"><ele>265.59999999999997</ele><time>2026-05-02T07:02:42.161Z</time></trkpt><trkpt lat="46.1247673" lon="13.5331951"><ele>266.4</ele><time>2026-05-02T07:02:43.174Z</time></trkpt><trkpt lat="46.1248434" lon="13.533277"><ele>267.2</ele><time>2026-05-02T07:02:44.183Z</time></trkpt><trkpt lat="46.1249204" lon="13.533373"><ele>268.0</ele><time>2026-05-02T07:02:45.153Z</time></trkpt><trkpt lat="46.1249929" lon="13.5334698"><ele>268.0</ele><time>2026-05-02T07:02:46.172Z</time></trkpt><trkpt lat="46.1250669" lon="13.5335613"><ele>268.0</ele><time>2026-05-02T07:02:47.166Z</time></trkpt><trkpt lat="46.1251389" lon="13.5336463"><ele>268.0</ele><time>2026-05-02T07:02:48.158Z</time></trkpt><trkpt lat="46.1252125" lon="13.5337166"><ele>268.0</ele><time>2026-05-02T07:02:49.164Z</time></trkpt><trkpt lat="46.1252835" lon="13.5337939"><ele>268.0</ele><time>2026-05-02T07:02:50.18Z</time></trkpt><trkpt lat="46.1253514" lon="13.5338826"><ele>272.0</ele><time>2026-05-02T07:02:51.179Z</time></trkpt><trkpt lat="46.1254135" lon="13.5339779"><ele>276.0</ele><time>2026-05-02T07:02:52.165Z</time></trkpt><trkpt lat="46.1254705" lon="13.5340841"><ele>280.0</ele><time>2026-05-02T07:02:53.169Z</time></trkpt><trkpt lat="46.1255127" lon="13.5341979"><ele>284.0</ele><time>2026-05-02T07:02:54.17Z</time></trkpt><trkpt lat="46.1255487" lon="13.5343137"><ele>288.0</ele><time>2026-05-02T07:02:55.172Z</time></trkpt><trkpt lat="46.1255686" lon="13.5344466"><ele>290.0</ele><time>2026-05-02T07:02:56.171Z</time></trkpt><trkpt lat="46.1255905" lon="13.5345854"><ele>292.0</ele><time>2026-05-02T07:02:57.163Z</time></trkpt><trkpt lat="46.1256132" lon="13.5347282"><ele>294.0</ele><time>2026-05-02T07:02:58.154Z</time></trkpt><trkpt lat="46.125631" lon="13.5348745"><ele>296.0</ele><time>2026-05-02T07:02:59.164Z</time></trkpt><trkpt lat="46.1256409" lon="13.5350171"><ele>298.0</ele><time>2026-05-02T07:03:00.171Z</time></trkpt><trkpt lat="46.1256482" lon="13.5351297"><ele>298.0</ele><time>2026-05-02T07:03:01.169Z</time></trkpt><trkpt lat="46.1256537" lon="13.5352466"><ele>298.0</ele><time>2026-05-02T07:03:02.171Z</time></trkpt><trkpt lat="46.1256381" lon="13.5353629"><ele>298.0</ele><time>2026-05-02T07:03:03.16Z</time></trkpt><trkpt lat="46.1256046" lon="13.5354595"><ele>298.0</ele><time>2026-05-02T07:03:04.166Z</time></trkpt><trkpt lat="46.1255532" lon="13.5355459"><ele>298.0</ele><time>2026-05-02T07:03:05.143Z</time></trkpt><trkpt lat="46.1254932" lon="13.5356188"><ele>298.0</ele><time>2026-05-02T07:03:06.163Z</time></trkpt><trkpt lat="46.1254155" lon="13.5356584"><ele>297.0</ele><time>2026-05-02T07:03:07.171Z</time></trkpt><trkpt lat="46.1253288" lon="13.53568"><ele>296.0</ele><time>2026-05-02T07:03:08.162Z</time></trkpt><trkpt lat="46.1252393" lon="13.5357033"><ele>295.0</ele><time>2026-05-02T07:03:09.18Z</time></trkpt><trkpt lat="46.1251477" lon="13.5357282"><ele>294.0</ele><time>2026-05-02T07:03:10.167Z</time></trkpt><trkpt lat="46.1250603" lon="13.5357628"><ele>293.0</ele><time>2026-05-02T07:03:11.175Z</time></trkpt><trkpt lat="46.1249857" lon="13.5358058"><ele>292.0</ele><time>2026-05-02T07:03:12.158Z</time></trkpt><trkpt lat="46.1249258" lon="13.535849"><ele>293.2</ele><time>2026-05-02T07:03:13.165Z</time></trkpt><trkpt lat="46.1248608" lon="13.5359917"><ele>294.4</ele><time>2026-05-02T07:03:15.164Z</time></trkpt><trkpt lat="46.1248654" lon="13.5360852"><ele>295.6</ele><time>2026-05-02T07:03:16.164Z</time></trkpt><trkpt lat="46.1248829" lon="13.5362061"><ele>296.8</ele><time>2026-05-02T07:03:17.172Z</time></trkpt><trkpt lat="46.1249005" lon="13.5363542"><ele>298.0</ele><time>2026-05-02T07:03:18.154Z</time></trkpt><trkpt lat="46.1249254" lon="13.5365187"><ele>298.0</ele><time>2026-05-02T07:03:19.16Z</time></trkpt><trkpt lat="46.124948" lon="13.5366861"><ele>298.0</ele><time>2026-05-02T07:03:20.165Z</time></trkpt><trkpt lat="46.1249716" lon="13.5368323"><ele>298.0</ele><time>2026-05-02T07:03:21.169Z</time></trkpt><trkpt lat="46.1249997" lon="13.5369807"><ele>298.0</ele><time>2026-05-02T07:03:22.168Z</time></trkpt><trkpt lat="46.1250367" lon="13.5371468"><ele>299.4</ele><time>2026-05-02T07:03:23.16Z</time></trkpt><trkpt lat="46.1250712" lon="13.537306"><ele>300.8</ele><time>2026-05-02T07:03:24.16Z</time></trkpt><trkpt lat="46.1251136" lon="13.5374463"><ele>302.2</ele><time>2026-05-02T07:03:25.155Z</time></trkpt><trkpt lat="46.1251557" lon="13.5375734"><ele>303.6</ele><time>2026-05-02T07:03:26.158Z</time></trkpt><trkpt lat="46.1252063" lon="13.5376749"><ele>305.0</ele><time>2026-05-02T07:03:27.167Z</time></trkpt><trkpt lat="46.1252671" lon="13.5377555"><ele>305.0</ele><time>2026-05-02T07:03:28.157Z</time></trkpt><trkpt lat="46.125329" lon="13.5378432"><ele>305.0</ele><time>2026-05-02T07:03:29.181Z</time></trkpt><trkpt lat="46.1253956" lon="13.5379328"><ele>305.0</ele><time>2026-05-02T07:03:30.166Z</time></trkpt><trkpt lat="46.1254684" lon="13.5380303"><ele>305.0</ele><time>2026-05-02T07:03:31.157Z</time></trkpt><trkpt lat="46.1255435" lon="13.5381282"><ele>305.0</ele><time>2026-05-02T07:03:32.164Z</time></trkpt><trkpt lat="46.1256166" lon="13.5382236"><ele>306.8</ele><time>2026-05-02T07:03:33.154Z</time></trkpt><trkpt lat="46.125683" lon="13.5383213"><ele>308.6</ele><time>2026-05-02T07:03:34.169Z</time></trkpt><trkpt lat="46.1257519" lon="13.5384219"><ele>310.4</ele><time>2026-05-02T07:03:35.156Z</time></trkpt><trkpt lat="46.1258302" lon="13.5385154"><ele>312.2</ele><time>2026-05-02T07:03:36.164Z</time></trkpt><trkpt lat="46.1259198" lon="13.538601"><ele>314.0</ele><time>2026-05-02T07:03:37.154Z</time></trkpt><trkpt lat="46.1260081" lon="13.5386853"><ele>318.0</ele><time>2026-05-02T07:03:38.162Z</time></trkpt><trkpt lat="46.1260896" lon="13.5387787"><ele>322.0</ele><time>2026-05-02T07:03:39.156Z</time></trkpt><trkpt lat="46.1261698" lon="13.5388663"><ele>326.0</ele><time>2026-05-02T07:03:40.167Z</time></trkpt><trkpt lat="46.1262426" lon="13.5389521"><ele>330.0</ele><time>2026-05-02T07:03:41.165Z</time></trkpt><trkpt lat="46.1263029" lon="13.5390434"><ele>334.0</ele><time>2026-05-02T07:03:42.172Z</time></trkpt><trkpt lat="46.1263477" lon="13.5391475"><ele>334.0</ele><time>2026-05-02T07:03:43.157Z</time></trkpt><trkpt lat="46.1263754" lon="13.5392584"><ele>334.0</ele><time>2026-05-02T07:03:44.152Z</time></trkpt><trkpt lat="46.1263894" lon="13.5393522"><ele>334.0</ele><time>2026-05-02T07:03:45.152Z</time></trkpt><trkpt lat="46.1264191" lon="13.5394618"><ele>334.0</ele><time>2026-05-02T07:03:47.151Z</time></trkpt><trkpt lat="46.1265058" lon="13.5395065"><ele>334.0</ele><time>2026-05-02T07:03:49.161Z</time></trkpt><trkpt lat="46.1265658" lon="13.5395408"><ele>334.0</ele><time>2026-05-02T07:03:50.159Z</time></trkpt><trkpt lat="46.1266487" lon="13.5395764"><ele>335.75</ele><time>2026-05-02T07:03:51.154Z</time></trkpt><trkpt lat="46.1267453" lon="13.5396272"><ele>337.5</ele><time>2026-05-02T07:03:52.168Z</time></trkpt><trkpt lat="46.1268454" lon="13.5397096"><ele>339.25</ele><time>2026-05-02T07:03:53.158Z</time></trkpt><trkpt lat="46.1269563" lon="13.5397977"><ele>341.0</ele><time>2026-05-02T07:03:54.163Z</time></trkpt><trkpt lat="46.1270611" lon="13.5398767"><ele>341.0</ele><time>2026-05-02T07:03:55.15Z</time></trkpt><trkpt lat="46.1271649" lon="13.5399388"><ele>341.0</ele><time>2026-05-02T07:03:56.165Z</time></trkpt><trkpt lat="46.127262" lon="13.5400039"><ele>341.0</ele><time>2026-05-02T07:03:57.151Z</time></trkpt><trkpt lat="46.1273504" lon="13.5400753"><ele>341.0</ele><time>2026-05-02T07:03:58.171Z</time></trkpt><trkpt lat="46.1274241" lon="13.5401452"><ele>341.0</ele><time>2026-05-02T07:03:59.146Z</time></trkpt><trkpt lat="46.1274827" lon="13.5402126"><ele>341.33333333333337</ele><time>2026-05-02T07:04:00.163Z</time></trkpt><trkpt lat="46.127538" lon="13.5402988"><ele>341.6666666666667</ele><time>2026-05-02T07:04:01.172Z</time></trkpt><trkpt lat="46.1275788" lon="13.5403969"><ele>342.0</ele><time>2026-05-02T07:04:02.155Z</time></trkpt><trkpt lat="46.1276124" lon="13.5405008"><ele>342.3333333333333</ele><time>2026-05-02T07:04:03.173Z</time></trkpt><trkpt lat="46.1276321" lon="13.5405872"><ele>342.66666666666663</ele><time>2026-05-02T07:04:04.184Z</time></trkpt><trkpt lat="46.1276316" lon="13.5406938"><ele>343.0</ele><time>2026-05-02T07:04:05.161Z</time></trkpt><trkpt lat="46.1276176" lon="13.5408077"><ele>343.0</ele><time>2026-05-02T07:04:06.175Z</time></trkpt><trkpt lat="46.1275825" lon="13.5409191"><ele>343.0</ele><time>2026-05-02T07:04:07.165Z</time></trkpt><trkpt lat="46.1275462" lon="13.5410364"><ele>343.0</ele><time>2026-05-02T07:04:08.156Z</time></trkpt><trkpt lat="46.1275057" lon="13.5411425"><ele>343.0</ele><time>2026-05-02T07:04:09.17Z</time></trkpt><trkpt lat="46.1274699" lon="13.5412557"><ele>343.0</ele><time>2026-05-02T07:04:10.176Z</time></trkpt><trkpt lat="46.127448" lon="13.5413501"><ele>343.0</ele><time>2026-05-02T07:04:11.175Z</time></trkpt><trkpt lat="46.1274365" lon="13.5414972"><ele>344.59999999999997</ele><time>2026-05-02T07:04:13.161Z</time></trkpt><trkpt lat="46.1275047" lon="13.5415728"><ele>346.2</ele><time>2026-05-02T07:04:15.156Z</time></trkpt><trkpt lat="46.1276365" lon="13.5415415"><ele>347.8</ele><time>2026-05-02T07:04:17.154Z</time></trkpt><trkpt lat="46.127726" lon="13.5415245"><ele>349.4</ele><time>2026-05-02T07:04:18.173Z</time></trkpt><trkpt lat="46.1278281" lon="13.5415568"><ele>351.0</ele><time>2026-05-02T07:04:19.164Z</time></trkpt><trkpt lat="46.1279352" lon="13.5416169"><ele>351.0</ele><time>2026-05-02T07:04:20.159Z</time></trkpt><trkpt lat="46.1280421" lon="13.541679"><ele>351.0</ele><time>2026-05-02T07:04:21.169Z</time></trkpt><trkpt lat="46.1281456" lon="13.5417496"><ele>351.0</ele><time>2026-05-02T07:04:22.155Z</time></trkpt><trkpt lat="46.128245" lon="13.5418165"><ele>351.0</ele><time>2026-05-02T07:04:23.163Z</time></trkpt><trkpt lat="46.1283594" lon="13.5418749"><ele>353.0</ele><time>2026-05-02T07:04:24.174Z</time></trkpt><trkpt lat="46.1284668" lon="13.5419023"><ele>355.0</ele><time>2026-05-02T07:04:25.177Z</time></trkpt><trkpt lat="46.1285587" lon="13.5419124"><ele>357.0</ele><time>2026-05-02T07:04:26.166Z</time></trkpt><trkpt lat="46.1286322" lon="13.5419253"><ele>359.0</ele><time>2026-05-02T07:04:27.159Z</time></trkpt><trkpt lat="46.1287002" lon="13.5419659"><ele>361.0</ele><time>2026-05-02T07:04:28.162Z</time></trkpt><trkpt lat="46.1287802" lon="13.5420346"><ele>363.0</ele><time>2026-05-02T07:04:29.152Z</time></trkpt><trkpt lat="46.1288715" lon="13.5421182"><ele>363.0</ele><time>2026-05-02T07:04:30.158Z</time></trkpt><trkpt lat="46.1289698" lon="13.5422007"><ele>363.0</ele><time>2026-05-02T07:04:31.167Z</time></trkpt><trkpt lat="46.1290672" lon="13.5422621"><ele>363.0</ele><time>2026-05-02T07:04:32.162Z</time></trkpt><trkpt lat="46.1291788" lon="13.5422894"><ele>363.0</ele><time>2026-05-02T07:04:33.172Z</time></trkpt><trkpt lat="46.1293005" lon="13.5422968"><ele>362.6666666666667</ele><time>2026-05-02T07:04:34.168Z</time></trkpt><trkpt lat="46.1294215" lon="13.5423131"><ele>362.3333333333333</ele><time>2026-05-02T07:04:35.159Z</time></trkpt><trkpt lat="46.1295111" lon="13.5423386"><ele>362.0</ele><time>2026-05-02T07:04:36.161Z</time></trkpt><trkpt lat="46.1295692" lon="13.5423835"><ele>361.66666666666663</ele><time>2026-05-02T07:04:37.16Z</time></trkpt><trkpt lat="46.1296231" lon="13.5424436"><ele>361.3333333333333</ele><time>2026-05-02T07:04:38.167Z</time></trkpt><trkpt lat="46.1296751" lon="13.542523"><ele>361.0</ele><time>2026-05-02T07:04:39.173Z</time></trkpt><trkpt lat="46.1297188" lon="13.5426204"><ele>361.0</ele><time>2026-05-02T07:04:40.174Z</time></trkpt><trkpt lat="46.1297458" lon="13.5427337"><ele>361.0</ele><time>2026-05-02T07:04:41.16Z</time></trkpt><trkpt lat="46.1297685" lon="13.5428399"><ele>361.0</ele><time>2026-05-02T07:04:42.175Z</time></trkpt><trkpt lat="46.1297896" lon="13.5429374"><ele>361.0</ele><time>2026-05-02T07:04:43.165Z</time></trkpt><trkpt lat="46.129875" lon="13.5430395"><ele>361.0</ele><time>2026-05-02T07:04:45.172Z</time></trkpt><trkpt lat="46.1299639" lon="13.543048"><ele>361.0</ele><time>2026-05-02T07:04:46.171Z</time></trkpt><trkpt lat="46.1300756" lon="13.5430626"><ele>362.0</ele><time>2026-05-02T07:04:47.171Z</time></trkpt><trkpt lat="46.1301891" lon="13.5430987"><ele>363.0</ele><time>2026-05-02T07:04:48.15Z</time></trkpt><trkpt lat="46.1302861" lon="13.543159"><ele>364.0</ele><time>2026-05-02T07:04:49.18Z</time></trkpt><trkpt lat="46.1303796" lon="13.5432549"><ele>365.0</ele><time>2026-05-02T07:04:50.17Z</time></trkpt><trkpt lat="46.130472" lon="13.5433605"><ele>365.0</ele><time>2026-05-02T07:04:51.164Z</time></trkpt><trkpt lat="46.1305709" lon="13.5434902"><ele>365.0</ele><time>2026-05-02T07:04:52.157Z</time></trkpt><trkpt lat="46.1306763" lon="13.5436371"><ele>365.0</ele><time>2026-05-02T07:04:53.159Z</time></trkpt><trkpt lat="46.1307831" lon="13.5437806"><ele>365.0</ele><time>2026-05-02T07:04:54.169Z</time></trkpt><trkpt lat="46.1308796" lon="13.5438917"><ele>367.4</ele><time>2026-05-02T07:04:55.165Z</time></trkpt><trkpt lat="46.1309729" lon="13.5439839"><ele>369.8</ele><time>2026-05-02T07:04:56.165Z</time></trkpt><trkpt lat="46.1310776" lon="13.544049"><ele>372.20000000000005</ele><time>2026-05-02T07:04:57.153Z</time></trkpt><trkpt lat="46.1311698" lon="13.544106"><ele>374.6</ele><time>2026-05-02T07:04:58.164Z</time></trkpt><trkpt lat="46.1312626" lon="13.5441693"><ele>377.0</ele><time>2026-05-02T07:04:59.163Z</time></trkpt><trkpt lat="46.1313482" lon="13.5442427"><ele>377.0</ele><time>2026-05-02T07:05:00.162Z</time></trkpt><trkpt lat="46.1314339" lon="13.5443168"><ele>377.0</ele><time>2026-05-02T07:05:01.175Z</time></trkpt><trkpt lat="46.1315287" lon="13.5443987"><ele>377.0</ele><time>2026-05-02T07:05:02.169Z</time></trkpt><trkpt lat="46.1316214" lon="13.5444858"><ele>377.0</ele><time>2026-05-02T07:05:03.171Z</time></trkpt><trkpt lat="46.1317054" lon="13.5445711"><ele>377.0</ele><time>2026-05-02T07:05:04.18Z</time></trkpt><trkpt lat="46.1317945" lon="13.5446408"><ele>378.20000000000005</ele><time>2026-05-02T07:05:05.176Z</time></trkpt><trkpt lat="46.1318894" lon="13.5446927"><ele>379.4</ele><time>2026-05-02T07:05:06.162Z</time></trkpt><trkpt lat="46.1319915" lon="13.5447384"><ele>380.6</ele><time>2026-05-02T07:05:07.162Z</time></trkpt><trkpt lat="46.1320913" lon="13.5447945"><ele>381.79999999999995</ele><time>2026-05-02T07:05:08.172Z</time></trkpt><trkpt lat="46.1321854" lon="13.5448627"><ele>383.0</ele><time>2026-05-02T07:05:09.166Z</time></trkpt><trkpt lat="46.1322724" lon="13.5449384"><ele>383.0</ele><time>2026-05-02T07:05:10.167Z</time></trkpt><trkpt lat="46.1323569" lon="13.5450118"><ele>383.0</ele><time>2026-05-02T07:05:11.15Z</time></trkpt><trkpt lat="46.132435" lon="13.5450799"><ele>383.0</ele><time>2026-05-02T07:05:12.184Z</time></trkpt><trkpt lat="46.1325133" lon="13.5451197"><ele>383.0</ele><time>2026-05-02T07:05:13.181Z</time></trkpt><trkpt lat="46.1325995" lon="13.5451454"><ele>383.0</ele><time>2026-05-02T07:05:14.182Z</time></trkpt><trkpt lat="46.1326823" lon="13.5451688"><ele>383.0</ele><time>2026-05-02T07:05:15.171Z</time></trkpt><trkpt lat="46.1327536" lon="13.5452022"><ele>380.83333333333337</ele><time>2026-05-02T07:05:16.185Z</time></trkpt><trkpt lat="46.132829" lon="13.545245"><ele>378.6666666666667</ele><time>2026-05-02T07:05:17.161Z</time></trkpt><trkpt lat="46.1329116" lon="13.545299"><ele>376.5</ele><time>2026-05-02T07:05:18.171Z</time></trkpt><trkpt lat="46.1329956" lon="13.5453349"><ele>374.3333333333333</ele><time>2026-05-02T07:05:19.169Z</time></trkpt><trkpt lat="46.1330708" lon="13.5453667"><ele>372.16666666666663</ele><time>2026-05-02T07:05:20.165Z</time></trkpt><trkpt lat="46.1331306" lon="13.5454022"><ele>370.0</ele><time>2026-05-02T07:05:21.171Z</time></trkpt><trkpt lat="46.1331932" lon="13.5454541"><ele>372.0</ele><time>2026-05-02T07:05:22.16Z</time></trkpt><trkpt lat="46.1332521" lon="13.5455056"><ele>374.0</ele><time>2026-05-02T07:05:23.157Z</time></trkpt><trkpt lat="46.1333598" lon="13.5455398"><ele>376.0</ele><time>2026-05-02T07:05:25.168Z</time></trkpt><trkpt lat="46.1334763" lon="13.5454481"><ele>378.0</ele><time>2026-05-02T07:05:27.158Z</time></trkpt><trkpt lat="46.133546" lon="13.5453741"><ele>380.0</ele><time>2026-05-02T07:05:28.165Z</time></trkpt><trkpt lat="46.1336271" lon="13.5452981"><ele>377.1666666666667</ele><time>2026-05-02T07:05:29.145Z</time></trkpt><trkpt lat="46.1337111" lon="13.5452357"><ele>374.33333333333337</ele><time>2026-05-02T07:05:30.163Z</time></trkpt><trkpt lat="46.1338022" lon="13.5451939"><ele>371.5</ele><time>2026-05-02T07:05:31.153Z</time></trkpt><trkpt lat="46.1338883" lon="13.5451785"><ele>368.6666666666667</ele><time>2026-05-02T07:05:32.155Z</time></trkpt><trkpt lat="46.1339635" lon="13.5451812"><ele>365.8333333333333</ele><time>2026-05-02T07:05:33.151Z</time></trkpt><trkpt lat="46.1340381" lon="13.5452108"><ele>363.0</ele><time>2026-05-02T07:05:34.158Z</time></trkpt><trkpt lat="46.1341135" lon="13.545273"><ele>363.0</ele><time>2026-05-02T07:05:35.147Z</time></trkpt><trkpt lat="46.1341887" lon="13.5453419"><ele>363.0</ele><time>2026-05-02T07:05:36.162Z</time></trkpt><trkpt lat="46.1342621" lon="13.5454087"><ele>363.0</ele><time>2026-05-02T07:05:37.162Z</time></trkpt><trkpt lat="46.1343374" lon="13.5454585"><ele>363.0</ele><time>2026-05-02T07:05:38.152Z</time></trkpt><trkpt lat="46.1344146" lon="13.5454937"><ele>363.0</ele><time>2026-05-02T07:05:39.157Z</time></trkpt><trkpt lat="46.1344813" lon="13.5455273"><ele>363.0</ele><time>2026-05-02T07:05:40.161Z</time></trkpt><trkpt lat="46.1345378" lon="13.545577"><ele>367.0</ele><time>2026-05-02T07:05:41.18Z</time></trkpt><trkpt lat="46.1345876" lon="13.5456608"><ele>371.0</ele><time>2026-05-02T07:05:42.168Z</time></trkpt><trkpt lat="46.1346257" lon="13.5457804"><ele>375.0</ele><time>2026-05-02T07:05:43.161Z</time></trkpt><trkpt lat="46.1346804" lon="13.5459274"><ele>379.0</ele><time>2026-05-02T07:05:44.156Z</time></trkpt><trkpt lat="46.1347402" lon="13.5460744"><ele>383.0</ele><time>2026-05-02T07:05:45.16Z</time></trkpt><trkpt lat="46.1347974" lon="13.5462343"><ele>382.59999999999997</ele><time>2026-05-02T07:05:46.174Z</time></trkpt><trkpt lat="46.1348503" lon="13.5463919"><ele>382.2</ele><time>2026-05-02T07:05:47.167Z</time></trkpt><trkpt lat="46.1349025" lon="13.5465295"><ele>381.8</ele><time>2026-05-02T07:05:48.154Z</time></trkpt><trkpt lat="46.1349574" lon="13.5466535"><ele>381.4</ele><time>2026-05-02T07:05:49.146Z</time></trkpt><trkpt lat="46.1350235" lon="13.5467669"><ele>381.0</ele><time>2026-05-02T07:05:50.149Z</time></trkpt><trkpt lat="46.1351002" lon="13.5468747"><ele>381.0</ele><time>2026-05-02T07:05:51.165Z</time></trkpt><trkpt lat="46.1351892" lon="13.5469902"><ele>381.0</ele><time>2026-05-02T07:05:52.151Z</time></trkpt><trkpt lat="46.1352809" lon="13.5471034"><ele>381.0</ele><time>2026-05-02T07:05:53.147Z</time></trkpt><trkpt lat="46.1353728" lon="13.5472254"><ele>381.0</ele><time>2026-05-02T07:05:54.168Z</time></trkpt><trkpt lat="46.1354669" lon="13.5473508"><ele>380.75</ele><time>2026-05-02T07:05:55.162Z</time></trkpt><trkpt lat="46.1355543" lon="13.5474642"><ele>380.5</ele><time>2026-05-02T07:05:56.146Z</time></trkpt><trkpt lat="46.1356478" lon="13.5475711"><ele>380.25</ele><time>2026-05-02T07:05:57.15Z</time></trkpt><trkpt lat="46.13575" lon="13.5476574"><ele>380.0</ele><time>2026-05-02T07:05:58.173Z</time></trkpt><trkpt lat="46.1358533" lon="13.5477143"><ele>380.0</ele><time>2026-05-02T07:05:59.142Z</time></trkpt><trkpt lat="46.135947" lon="13.5477593"><ele>380.0</ele><time>2026-05-02T07:06:00.147Z</time></trkpt><trkpt lat="46.136021" lon="13.5478079"><ele>380.0</ele><time>2026-05-02T07:06:01.149Z</time></trkpt><trkpt lat="46.1360858" lon="13.5478568"><ele>380.0</ele><time>2026-05-02T07:06:02.151Z</time></trkpt><trkpt lat="46.1361414" lon="13.5479188"><ele>380.0</ele><time>2026-05-02T07:06:03.151Z</time></trkpt><trkpt lat="46.1362064" lon="13.5480854"><ele>384.4</ele><time>2026-05-02T07:06:05.149Z</time></trkpt><trkpt lat="46.1362227" lon="13.5482556"><ele>388.8</ele><time>2026-05-02T07:06:07.14Z</time></trkpt><trkpt lat="46.136259" lon="13.5484186"><ele>393.20000000000005</ele><time>2026-05-02T07:06:09.15Z</time></trkpt><trkpt lat="46.1363083" lon="13.5485023"><ele>397.6</ele><time>2026-05-02T07:06:10.161Z</time></trkpt><trkpt lat="46.136375" lon="13.5485601"><ele>402.0</ele><time>2026-05-02T07:06:11.146Z</time></trkpt><trkpt lat="46.1364535" lon="13.5486112"><ele>402.0</ele><time>2026-05-02T07:06:12.147Z</time></trkpt><trkpt lat="46.1365305" lon="13.5486627"><ele>402.0</ele><time>2026-05-02T07:06:13.164Z</time></trkpt><trkpt lat="46.1365978" lon="13.5487302"><ele>402.0</ele><time>2026-05-02T07:06:14.15Z</time></trkpt><trkpt lat="46.1366645" lon="13.5488296"><ele>402.0</ele><time>2026-05-02T07:06:15.149Z</time></trkpt><trkpt lat="46.1367352" lon="13.5489485"><ele>402.0</ele><time>2026-05-02T07:06:16.155Z</time></trkpt><trkpt lat="46.1368144" lon="13.5490717"><ele>399.75</ele><time>2026-05-02T07:06:17.163Z</time></trkpt><trkpt lat="46.1368985" lon="13.5491955"><ele>397.5</ele><time>2026-05-02T07:06:18.163Z</time></trkpt><trkpt lat="46.1369829" lon="13.5493191"><ele>395.25</ele><time>2026-05-02T07:06:19.146Z</time></trkpt><trkpt lat="46.1370626" lon="13.549434"><ele>393.0</ele><time>2026-05-02T07:06:20.152Z</time></trkpt><trkpt lat="46.1371379" lon="13.5495395"><ele>395.5</ele><time>2026-05-02T07:06:21.161Z</time></trkpt><trkpt lat="46.1372052" lon="13.5496313"><ele>398.0</ele><time>2026-05-02T07:06:22.153Z</time></trkpt><trkpt lat="46.1372554" lon="13.5497124"><ele>400.5</ele><time>2026-05-02T07:06:23.169Z</time></trkpt><trkpt lat="46.1372881" lon="13.5497912"><ele>403.0</ele><time>2026-05-02T07:06:24.168Z</time></trkpt><trkpt lat="46.1373147" lon="13.5498981"><ele>405.5</ele><time>2026-05-02T07:06:25.162Z</time></trkpt><trkpt lat="46.1373312" lon="13.5500312"><ele>408.0</ele><time>2026-05-02T07:06:26.157Z</time></trkpt><trkpt lat="46.1373452" lon="13.5501711"><ele>408.0</ele><time>2026-05-02T07:06:27.166Z</time></trkpt><trkpt lat="46.1373647" lon="13.550296"><ele>408.0</ele><time>2026-05-02T07:06:28.157Z</time></trkpt><trkpt lat="46.1373796" lon="13.5504091"><ele>408.0</ele><time>2026-05-02T07:06:29.186Z</time></trkpt><trkpt lat="46.1373905" lon="13.550517"><ele>408.0</ele><time>2026-05-02T07:06:30.158Z</time></trkpt><trkpt lat="46.1373772" lon="13.5506106"><ele>408.0</ele><time>2026-05-02T07:06:31.165Z</time></trkpt><trkpt lat="46.1373435" lon="13.5507847"><ele>408.0</ele><time>2026-05-02T07:06:33.158Z</time></trkpt><trkpt lat="46.1373501" lon="13.5508795"><ele>409.8333333333333</ele><time>2026-05-02T07:06:34.165Z</time></trkpt><trkpt lat="46.13737" lon="13.5509958"><ele>411.66666666666663</ele><time>2026-05-02T07:06:35.162Z</time></trkpt><trkpt lat="46.1373946" lon="13.5511147"><ele>413.5</ele><time>2026-05-02T07:06:36.174Z</time></trkpt><trkpt lat="46.1374053" lon="13.551242"><ele>415.3333333333333</ele><time>2026-05-02T07:06:37.182Z</time></trkpt><trkpt lat="46.1374095" lon="13.5513642"><ele>417.16666666666663</ele><time>2026-05-02T07:06:38.18Z</time></trkpt><trkpt lat="46.1373949" lon="13.5514804"><ele>419.0</ele><time>2026-05-02T07:06:39.155Z</time></trkpt><trkpt lat="46.1373598" lon="13.5515829"><ele>419.71428571428567</ele><time>2026-05-02T07:06:40.185Z</time></trkpt><trkpt lat="46.1373324" lon="13.5516783"><ele>420.42857142857144</ele><time>2026-05-02T07:06:41.171Z</time></trkpt><trkpt lat="46.1372982" lon="13.55177"><ele>421.1428571428571</ele><time>2026-05-02T07:06:42.166Z</time></trkpt><trkpt lat="46.1372629" lon="13.5518673"><ele>421.85714285714283</ele><time>2026-05-02T07:06:43.183Z</time></trkpt><trkpt lat="46.137241" lon="13.5519636"><ele>422.57142857142856</ele><time>2026-05-02T07:06:44.159Z</time></trkpt><trkpt lat="46.1372169" lon="13.5520761"><ele>423.2857142857143</ele><time>2026-05-02T07:06:45.176Z</time></trkpt><trkpt lat="46.1372075" lon="13.5521806"><ele>424.0</ele><time>2026-05-02T07:06:46.163Z</time></trkpt><trkpt lat="46.13721" lon="13.5522946"><ele>424.50000000000006</ele><time>2026-05-02T07:06:47.156Z</time></trkpt><trkpt lat="46.1372282" lon="13.5524169"><ele>425.0</ele><time>2026-05-02T07:06:48.154Z</time></trkpt><trkpt lat="46.1372437" lon="13.5525338"><ele>425.5</ele><time>2026-05-02T07:06:49.179Z</time></trkpt><trkpt lat="46.1372635" lon="13.5526505"><ele>426.0</ele><time>2026-05-02T07:06:50.165Z</time></trkpt><trkpt lat="46.1372782" lon="13.5527625"><ele>426.50000000000006</ele><time>2026-05-02T07:06:51.163Z</time></trkpt><trkpt lat="46.137297" lon="13.5528838"><ele>427.0</ele><time>2026-05-02T07:06:52.167Z</time></trkpt><trkpt lat="46.1373185" lon="13.5529874"><ele>429.40000000000003</ele><time>2026-05-02T07:06:53.154Z</time></trkpt><trkpt lat="46.1373746" lon="13.5531014"><ele>431.80000000000007</ele><time>2026-05-02T07:06:55.171Z</time></trkpt><trkpt lat="46.1375113" lon="13.5530993"><ele>434.2</ele><time>2026-05-02T07:06:57.16Z</time></trkpt><trkpt lat="46.1375997" lon="13.5530611"><ele>436.6</ele><time>2026-05-02T07:06:58.163Z</time></trkpt><trkpt lat="46.1376849" lon="13.5530586"><ele>439.0</ele><time>2026-05-02T07:06:59.16Z</time></trkpt><trkpt lat="46.1377822" lon="13.5530809"><ele>431.75</ele><time>2026-05-02T07:07:00.168Z</time></trkpt><trkpt lat="46.1378874" lon="13.5531116"><ele>424.5</ele><time>2026-05-02T07:07:01.161Z</time></trkpt><trkpt lat="46.137996" lon="13.5531442"><ele>417.25</ele><time>2026-05-02T07:07:02.152Z</time></trkpt><trkpt lat="46.1381114" lon="13.5531792"><ele>410.0</ele><time>2026-05-02T07:07:03.167Z</time></trkpt><trkpt lat="46.1382285" lon="13.5532089"><ele>406.25</ele><time>2026-05-02T07:07:04.169Z</time></trkpt><trkpt lat="46.1383454" lon="13.5532404"><ele>402.5</ele><time>2026-05-02T07:07:05.159Z</time></trkpt><trkpt lat="46.1384542" lon="13.5532687"><ele>398.75</ele><time>2026-05-02T07:07:06.155Z</time></trkpt><trkpt lat="46.1385593" lon="13.5533104"><ele>395.0</ele><time>2026-05-02T07:07:07.152Z</time></trkpt><trkpt lat="46.1386683" lon="13.5533479"><ele>395.0</ele><time>2026-05-02T07:07:08.162Z</time></trkpt><trkpt lat="46.1387806" lon="13.5533797"><ele>395.0</ele><time>2026-05-02T07:07:09.15Z</time></trkpt><trkpt lat="46.1388902" lon="13.553389"><ele>395.0</ele><time>2026-05-02T07:07:10.166Z</time></trkpt><trkpt lat="46.1390009" lon="13.5533759"><ele>395.0</ele><time>2026-05-02T07:07:11.168Z</time></trkpt><trkpt lat="46.1391084" lon="13.553357"><ele>395.0</ele><time>2026-05-02T07:07:12.166Z</time></trkpt><trkpt lat="46.1392011" lon="13.5533075"><ele>394.2</ele><time>2026-05-02T07:07:13.152Z</time></trkpt><trkpt lat="46.1392956" lon="13.5532493"><ele>393.4</ele><time>2026-05-02T07:07:14.155Z</time></trkpt><trkpt lat="46.1393907" lon="13.5531961"><ele>392.6</ele><time>2026-05-02T07:07:15.168Z</time></trkpt><trkpt lat="46.1394801" lon="13.553165"><ele>391.8</ele><time>2026-05-02T07:07:16.181Z</time></trkpt><trkpt lat="46.1395789" lon="13.553152"><ele>391.0</ele><time>2026-05-02T07:07:17.164Z</time></trkpt><trkpt lat="46.1396722" lon="13.5531447"><ele>391.0</ele><time>2026-05-02T07:07:18.154Z</time></trkpt><trkpt lat="46.1397454" lon="13.553137"><ele>391.0</ele><time>2026-05-02T07:07:19.157Z</time></trkpt><trkpt lat="46.1398437" lon="13.5531721"><ele>391.0</ele><time>2026-05-02T07:07:21.157Z</time></trkpt><trkpt lat="46.1399134" lon="13.5532773"><ele>391.0</ele><time>2026-05-02T07:07:23.169Z</time></trkpt><trkpt lat="46.1399573" lon="13.5534269"><ele>391.0</ele><time>2026-05-02T07:07:25.169Z</time></trkpt><trkpt lat="46.1399662" lon="13.5535469"><ele>390.4</ele><time>2026-05-02T07:07:26.181Z</time></trkpt><trkpt lat="46.1399606" lon="13.5536824"><ele>389.8</ele><time>2026-05-02T07:07:27.17Z</time></trkpt><trkpt lat="46.1399658" lon="13.5538288"><ele>389.2</ele><time>2026-05-02T07:07:28.183Z</time></trkpt><trkpt lat="46.1399739" lon="13.5539655"><ele>388.59999999999997</ele><time>2026-05-02T07:07:29.172Z</time></trkpt><trkpt lat="46.1399852" lon="13.5540967"><ele>388.0</ele><time>2026-05-02T07:07:30.171Z</time></trkpt><trkpt lat="46.139992" lon="13.5542149"><ele>388.00000000000006</ele><time>2026-05-02T07:07:31.174Z</time></trkpt><trkpt lat="46.1399937" lon="13.5543227"><ele>388.0</ele><time>2026-05-02T07:07:32.184Z</time></trkpt><trkpt lat="46.1399896" lon="13.554436"><ele>388.0</ele><time>2026-05-02T07:07:33.161Z</time></trkpt><trkpt lat="46.1399732" lon="13.5545514"><ele>388.0</ele><time>2026-05-02T07:07:34.167Z</time></trkpt><trkpt lat="46.1399378" lon="13.5546841"><ele>388.00000000000006</ele><time>2026-05-02T07:07:35.157Z</time></trkpt><trkpt lat="46.1398944" lon="13.5548152"><ele>388.0</ele><time>2026-05-02T07:07:36.17Z</time></trkpt><trkpt lat="46.1398478" lon="13.5549485"><ele>391.79999999999995</ele><time>2026-05-02T07:07:37.161Z</time></trkpt><trkpt lat="46.1397982" lon="13.5550829"><ele>395.6</ele><time>2026-05-02T07:07:38.157Z</time></trkpt><trkpt lat="46.1397468" lon="13.5552118"><ele>399.4</ele><time>2026-05-02T07:07:39.176Z</time></trkpt><trkpt lat="46.1396899" lon="13.5553348"><ele>403.20000000000005</ele><time>2026-05-02T07:07:40.154Z</time></trkpt><trkpt lat="46.1396357" lon="13.5554563"><ele>407.0</ele><time>2026-05-02T07:07:41.179Z</time></trkpt><trkpt lat="46.1395887" lon="13.5555761"><ele>406.99999999999994</ele><time>2026-05-02T07:07:42.158Z</time></trkpt><trkpt lat="46.13955" lon="13.5556969"><ele>407.0</ele><time>2026-05-02T07:07:43.163Z</time></trkpt><trkpt lat="46.1395196" lon="13.5558087"><ele>407.0</ele><time>2026-05-02T07:07:44.168Z</time></trkpt><trkpt lat="46.1394946" lon="13.5559276"><ele>407.0</ele><time>2026-05-02T07:07:45.164Z</time></trkpt><trkpt lat="46.139471" lon="13.5560428"><ele>406.99999999999994</ele><time>2026-05-02T07:07:46.164Z</time></trkpt><trkpt lat="46.1394526" lon="13.5561386"><ele>407.0</ele><time>2026-05-02T07:07:47.154Z</time></trkpt><trkpt lat="46.1394313" lon="13.5562354"><ele>403.49999999999994</ele><time>2026-05-02T07:07:48.157Z</time></trkpt><trkpt lat="46.1394018" lon="13.5563252"><ele>400.0</ele><time>2026-05-02T07:07:49.182Z</time></trkpt><trkpt lat="46.139356" lon="13.556411"><ele>396.5</ele><time>2026-05-02T07:07:50.171Z</time></trkpt><trkpt lat="46.1392973" lon="13.5564893"><ele>393.0</ele><time>2026-05-02T07:07:51.153Z</time></trkpt><trkpt lat="46.139248" lon="13.5565735"><ele>389.49999999999994</ele><time>2026-05-02T07:07:52.166Z</time></trkpt><trkpt lat="46.1392027" lon="13.5566693"><ele>386.0</ele><time>2026-05-02T07:07:53.154Z</time></trkpt><trkpt lat="46.1391823" lon="13.5567832"><ele>385.99999999999994</ele><time>2026-05-02T07:07:54.152Z</time></trkpt><trkpt lat="46.1391825" lon="13.5569029"><ele>386.0</ele><time>2026-05-02T07:07:55.15Z</time></trkpt><trkpt lat="46.1391757" lon="13.557006"><ele>386.0</ele><time>2026-05-02T07:07:56.148Z</time></trkpt><trkpt lat="46.1391325" lon="13.557152"><ele>386.0</ele><time>2026-05-02T07:07:58.152Z</time></trkpt><trkpt lat="46.1391177" lon="13.5572967"><ele>385.99999999999994</ele><time>2026-05-02T07:08:00.15Z</time></trkpt><trkpt lat="46.1391511" lon="13.5573769"><ele>386.0</ele><time>2026-05-02T07:08:01.151Z</time></trkpt><trkpt lat="46.139223" lon="13.5574511"><ele>387.20000000000005</ele><time>2026-05-02T07:08:02.164Z</time></trkpt><trkpt lat="46.1393121" lon="13.5575198"><ele>388.40000000000003</ele><time>2026-05-02T07:08:03.147Z</time></trkpt><trkpt lat="46.139416" lon="13.5575571"><ele>389.6</ele><time>2026-05-02T07:08:04.153Z</time></trkpt><trkpt lat="46.1395298" lon="13.5575738"><ele>390.8</ele><time>2026-05-02T07:08:05.148Z</time></trkpt><trkpt lat="46.1396445" lon="13.5575691"><ele>392.0</ele><time>2026-05-02T07:08:06.154Z</time></trkpt><trkpt lat="46.1397475" lon="13.5575659"><ele>392.0</ele><time>2026-05-02T07:08:07.153Z</time></trkpt><trkpt lat="46.1398268" lon="13.5575632"><ele>392.0</ele><time>2026-05-02T07:08:08.157Z</time></trkpt><trkpt lat="46.1398903" lon="13.5575825"><ele>392.0</ele><time>2026-05-02T07:08:09.161Z</time></trkpt><trkpt lat="46.1399881" lon="13.5576908"><ele>392.0</ele><time>2026-05-02T07:08:11.147Z</time></trkpt><trkpt lat="46.1400346" lon="13.5578312"><ele>392.0</ele><time>2026-05-02T07:08:13.165Z</time></trkpt><trkpt lat="46.1400218" lon="13.5580479"><ele>387.75</ele><time>2026-05-02T07:08:15.153Z</time></trkpt><trkpt lat="46.1399867" lon="13.5582104"><ele>383.5</ele><time>2026-05-02T07:08:16.168Z</time></trkpt><trkpt lat="46.1399497" lon="13.5583729"><ele>379.25</ele><time>2026-05-02T07:08:17.152Z</time></trkpt><trkpt lat="46.1399076" lon="13.5585361"><ele>375.0</ele><time>2026-05-02T07:08:18.173Z</time></trkpt><trkpt lat="46.1398684" lon="13.5587003"><ele>388.0</ele><time>2026-05-02T07:08:19.167Z</time></trkpt><trkpt lat="46.1398463" lon="13.5588715"><ele>401.0</ele><time>2026-05-02T07:08:20.159Z</time></trkpt><trkpt lat="46.1398292" lon="13.559041"><ele>414.0</ele><time>2026-05-02T07:08:21.161Z</time></trkpt><trkpt lat="46.1398105" lon="13.5591997"><ele>427.0</ele><time>2026-05-02T07:08:22.157Z</time></trkpt><trkpt lat="46.1397951" lon="13.5593442"><ele>427.00000000000006</ele><time>2026-05-02T07:08:23.169Z</time></trkpt><trkpt lat="46.1397934" lon="13.5594604"><ele>427.0</ele><time>2026-05-02T07:08:24.16Z</time></trkpt><trkpt lat="46.1398157" lon="13.5596342"><ele>427.0</ele><time>2026-05-02T07:08:26.154Z</time></trkpt><trkpt lat="46.1398876" lon="13.5597041"><ele>427.0</ele><time>2026-05-02T07:08:28.162Z</time></trkpt><trkpt lat="46.1399581" lon="13.5596946"><ele>427.00000000000006</ele><time>2026-05-02T07:08:29.155Z</time></trkpt><trkpt lat="46.1400418" lon="13.5596845"><ele>427.0</ele><time>2026-05-02T07:08:30.16Z</time></trkpt><trkpt lat="46.1401565" lon="13.5596408"><ele>417.25</ele><time>2026-05-02T07:08:31.153Z</time></trkpt><trkpt lat="46.1402759" lon="13.5595902"><ele>407.5</ele><time>2026-05-02T07:08:32.16Z</time></trkpt><trkpt lat="46.1403964" lon="13.5595527"><ele>397.75</ele><time>2026-05-02T07:08:33.153Z</time></trkpt><trkpt lat="46.1405138" lon="13.5595214"><ele>388.0</ele><time>2026-05-02T07:08:34.15Z</time></trkpt><trkpt lat="46.1406255" lon="13.5595033"><ele>386.1666666666667</ele><time>2026-05-02T07:08:35.153Z</time></trkpt><trkpt lat="46.1407141" lon="13.5594776"><ele>384.33333333333337</ele><time>2026-05-02T07:08:36.155Z</time></trkpt><trkpt lat="46.1407897" lon="13.5594258"><ele>382.5</ele><time>2026-05-02T07:08:37.151Z</time></trkpt><trkpt lat="46.1408618" lon="13.5593597"><ele>380.6666666666667</ele><time>2026-05-02T07:08:38.16Z</time></trkpt><trkpt lat="46.140937" lon="13.5593173"><ele>378.83333333333337</ele><time>2026-05-02T07:08:39.159Z</time></trkpt><trkpt lat="46.1410097" lon="13.5592908"><ele>377.0</ele><time>2026-05-02T07:08:40.158Z</time></trkpt><trkpt lat="46.1410935" lon="13.5592822"><ele>375.0</ele><time>2026-05-02T07:08:41.154Z</time></trkpt><trkpt lat="46.1411879" lon="13.559261"><ele>373.0</ele><time>2026-05-02T07:08:42.159Z</time></trkpt><trkpt lat="46.1412777" lon="13.5592214"><ele>371.0</ele><time>2026-05-02T07:08:43.145Z</time></trkpt><trkpt lat="46.1413795" lon="13.5591473"><ele>369.0</ele><time>2026-05-02T07:08:44.163Z</time></trkpt><trkpt lat="46.1414784" lon="13.5590494"><ele>367.0</ele><time>2026-05-02T07:08:45.16Z</time></trkpt><trkpt lat="46.1415772" lon="13.558927"><ele>366.75</ele><time>2026-05-02T07:08:46.169Z</time></trkpt><trkpt lat="46.1416767" lon="13.5587972"><ele>366.5</ele><time>2026-05-02T07:08:47.166Z</time></trkpt><trkpt lat="46.1417835" lon="13.5586892"><ele>366.25</ele><time>2026-05-02T07:08:48.158Z</time></trkpt><trkpt lat="46.1418981" lon="13.5586047"><ele>366.0</ele><time>2026-05-02T07:08:49.164Z</time></trkpt><trkpt lat="46.1420183" lon="13.5585264"><ele>366.0</ele><time>2026-05-02T07:08:50.16Z</time></trkpt><trkpt lat="46.1421374" lon="13.5584522"><ele>366.0</ele><time>2026-05-02T07:08:51.181Z</time></trkpt><trkpt lat="46.1422409" lon="13.5583882"><ele>366.0</ele><time>2026-05-02T07:08:52.155Z</time></trkpt><trkpt lat="46.1423242" lon="13.5583391"><ele>366.0</ele><time>2026-05-02T07:08:53.154Z</time></trkpt><trkpt lat="46.142386" lon="13.55832"><ele>366.0</ele><time>2026-05-02T07:08:54.184Z</time></trkpt><trkpt lat="46.1424703" lon="13.5583813"><ele>368.20000000000005</ele><time>2026-05-02T07:08:56.173Z</time></trkpt><trkpt lat="46.142478" lon="13.5585122"><ele>370.40000000000003</ele><time>2026-05-02T07:08:58.174Z</time></trkpt><trkpt lat="46.1424547" lon="13.5586262"><ele>372.6</ele><time>2026-05-02T07:08:59.155Z</time></trkpt><trkpt lat="46.1424353" lon="13.5587718"><ele>374.8</ele><time>2026-05-02T07:09:00.173Z</time></trkpt><trkpt lat="46.1424274" lon="13.5589388"><ele>377.0</ele><time>2026-05-02T07:09:01.175Z</time></trkpt><trkpt lat="46.1424281" lon="13.5591192"><ele>379.33333333333337</ele><time>2026-05-02T07:09:02.174Z</time></trkpt><trkpt lat="46.1424369" lon="13.5592943"><ele>381.6666666666667</ele><time>2026-05-02T07:09:03.177Z</time></trkpt><trkpt lat="46.1424563" lon="13.5594245"><ele>384.0</ele><time>2026-05-02T07:09:04.166Z</time></trkpt><trkpt lat="46.1424786" lon="13.5595307"><ele>386.33333333333337</ele><time>2026-05-02T07:09:05.176Z</time></trkpt><trkpt lat="46.1425029" lon="13.5596146"><ele>388.6666666666667</ele><time>2026-05-02T07:09:06.169Z</time></trkpt><trkpt lat="46.1425055" lon="13.5597259"><ele>391.0</ele><time>2026-05-02T07:09:08.173Z</time></trkpt><trkpt lat="46.1424238" lon="13.5596968"><ele>390.33333333333337</ele><time>2026-05-02T07:09:11.172Z</time></trkpt><trkpt lat="46.1423623" lon="13.5596211"><ele>389.6666666666667</ele><time>2026-05-02T07:09:12.166Z</time></trkpt><trkpt lat="46.1422954" lon="13.5595297"><ele>389.0</ele><time>2026-05-02T07:09:13.159Z</time></trkpt><trkpt lat="46.1422332" lon="13.5594495"><ele>388.33333333333337</ele><time>2026-05-02T07:09:14.186Z</time></trkpt><trkpt lat="46.1421714" lon="13.5593998"><ele>387.6666666666667</ele><time>2026-05-02T07:09:15.18Z</time></trkpt><trkpt lat="46.1420735" lon="13.5593641"><ele>387.0</ele><time>2026-05-02T07:09:17.173Z</time></trkpt><trkpt lat="46.1419804" lon="13.559392"><ele>387.0</ele><time>2026-05-02T07:09:19.151Z</time></trkpt><trkpt lat="46.1418796" lon="13.5594592"><ele>387.0</ele><time>2026-05-02T07:09:21.162Z</time></trkpt><trkpt lat="46.1418331" lon="13.5595391"><ele>387.0</ele><time>2026-05-02T07:09:23.168Z</time></trkpt><trkpt lat="46.1418714" lon="13.559643"><ele>387.0</ele><time>2026-05-02T07:09:26.163Z</time></trkpt><trkpt lat="46.1419388" lon="13.5596564"><ele>387.0</ele><time>2026-05-02T07:09:28.162Z</time></trkpt><trkpt lat="46.1420382" lon="13.5596621"><ele>387.0</ele><time>2026-05-02T07:09:30.174Z</time></trkpt><trkpt lat="46.1421019" lon="13.5596957"><ele>391.0</ele><time>2026-05-02T07:09:31.168Z</time></trkpt><trkpt lat="46.1421566" lon="13.5597608"><ele>395.0</ele><time>2026-05-02T07:09:32.169Z</time></trkpt><trkpt lat="46.1422048" lon="13.5598508"><ele>399.0</ele><time>2026-05-02T07:09:33.152Z</time></trkpt><trkpt lat="46.1422515" lon="13.5599546"><ele>403.0</ele><time>2026-05-02T07:09:34.166Z</time></trkpt><trkpt lat="46.1422965" lon="13.5600587"><ele>407.0</ele><time>2026-05-02T07:09:35.169Z</time></trkpt><trkpt lat="46.1423383" lon="13.5601699"><ele>411.0</ele><time>2026-05-02T07:09:36.166Z</time></trkpt><trkpt lat="46.1423687" lon="13.5602659"><ele>410.3333333333333</ele><time>2026-05-02T07:09:37.165Z</time></trkpt><trkpt lat="46.1423814" lon="13.5603556"><ele>409.66666666666663</ele><time>2026-05-02T07:09:38.157Z</time></trkpt><trkpt lat="46.142382" lon="13.560459"><ele>409.0</ele><time>2026-05-02T07:09:39.166Z</time></trkpt><trkpt lat="46.1423796" lon="13.5605694"><ele>408.3333333333333</ele><time>2026-05-02T07:09:40.165Z</time></trkpt><trkpt lat="46.1423734" lon="13.5606849"><ele>407.66666666666663</ele><time>2026-05-02T07:09:41.161Z</time></trkpt><trkpt lat="46.1423624" lon="13.5608007"><ele>407.0</ele><time>2026-05-02T07:09:42.162Z</time></trkpt><trkpt lat="46.1423464" lon="13.5609195"><ele>412.16666666666663</ele><time>2026-05-02T07:09:43.177Z</time></trkpt><trkpt lat="46.1423316" lon="13.5610428"><ele>417.3333333333333</ele><time>2026-05-02T07:09:44.166Z</time></trkpt><trkpt lat="46.1423136" lon="13.5611634"><ele>422.5</ele><time>2026-05-02T07:09:45.164Z</time></trkpt><trkpt lat="46.142291" lon="13.5612907"><ele>427.66666666666663</ele><time>2026-05-02T07:09:46.175Z</time></trkpt><trkpt lat="46.1422697" lon="13.5614233"><ele>432.8333333333333</ele><time>2026-05-02T07:09:47.159Z</time></trkpt><trkpt lat="46.142256" lon="13.5615476"><ele>438.0</ele><time>2026-05-02T07:09:48.17Z</time></trkpt><trkpt lat="46.1422425" lon="13.5616628"><ele>438.8571428571429</ele><time>2026-05-02T07:09:49.154Z</time></trkpt><trkpt lat="46.1422304" lon="13.5617643"><ele>439.71428571428567</ele><time>2026-05-02T07:09:50.162Z</time></trkpt><trkpt lat="46.1422102" lon="13.5618549"><ele>440.57142857142856</ele><time>2026-05-02T07:09:51.168Z</time></trkpt><trkpt lat="46.1421786" lon="13.5619355"><ele>441.42857142857144</ele><time>2026-05-02T07:09:52.173Z</time></trkpt><trkpt lat="46.1421455" lon="13.5620275"><ele>442.28571428571433</ele><time>2026-05-02T07:09:53.17Z</time></trkpt><trkpt lat="46.1421058" lon="13.5621166"><ele>443.1428571428571</ele><time>2026-05-02T07:09:54.167Z</time></trkpt><trkpt lat="46.1420541" lon="13.5622254"><ele>444.0</ele><time>2026-05-02T07:09:55.156Z</time></trkpt><trkpt lat="46.1419998" lon="13.5623445"><ele>444.0</ele><time>2026-05-02T07:09:56.17Z</time></trkpt><trkpt lat="46.1419453" lon="13.5624702"><ele>444.0</ele><time>2026-05-02T07:09:57.182Z</time></trkpt><trkpt lat="46.1418858" lon="13.5625891"><ele>444.0</ele><time>2026-05-02T07:09:58.158Z</time></trkpt><trkpt lat="46.1418298" lon="13.5627092"><ele>444.0</ele><time>2026-05-02T07:09:59.162Z</time></trkpt><trkpt lat="46.1417962" lon="13.5627988"><ele>444.0</ele><time>2026-05-02T07:10:00.152Z</time></trkpt><trkpt lat="46.1417653" lon="13.5629589"><ele>444.4</ele><time>2026-05-02T07:10:02.17Z</time></trkpt><trkpt lat="46.1417833" lon="13.5631176"><ele>444.79999999999995</ele><time>2026-05-02T07:10:04.173Z</time></trkpt><trkpt lat="46.1418184" lon="13.5632852"><ele>445.20000000000005</ele><time>2026-05-02T07:10:06.16Z</time></trkpt><trkpt lat="46.1418721" lon="13.5633718"><ele>445.6</ele><time>2026-05-02T07:10:08.153Z</time></trkpt><trkpt lat="46.1419912" lon="13.5633778"><ele>446.0</ele><time>2026-05-02T07:10:10.166Z</time></trkpt><trkpt lat="46.1420707" lon="13.56335"><ele>446.0</ele><time>2026-05-02T07:10:11.154Z</time></trkpt><trkpt lat="46.1421436" lon="13.5633388"><ele>446.0</ele><time>2026-05-02T07:10:12.149Z</time></trkpt><trkpt lat="46.1422467" lon="13.5633915"><ele>446.0</ele><time>2026-05-02T07:10:14.148Z</time></trkpt><trkpt lat="46.1423303" lon="13.5635106"><ele>446.0</ele><time>2026-05-02T07:10:16.154Z</time></trkpt><trkpt lat="46.1424441" lon="13.5635511"><ele>446.0</ele><time>2026-05-02T07:10:18.148Z</time></trkpt><trkpt lat="46.1425175" lon="13.5635619"><ele>448.8333333333333</ele><time>2026-05-02T07:10:19.145Z</time></trkpt><trkpt lat="46.1425876" lon="13.5635803"><ele>451.66666666666663</ele><time>2026-05-02T07:10:20.154Z</time></trkpt><trkpt lat="46.1426647" lon="13.5636057"><ele>454.5</ele><time>2026-05-02T07:10:21.142Z</time></trkpt><trkpt lat="46.1427341" lon="13.5636307"><ele>457.33333333333337</ele><time>2026-05-02T07:10:22.166Z</time></trkpt><trkpt lat="46.1428049" lon="13.5636624"><ele>460.1666666666667</ele><time>2026-05-02T07:10:23.154Z</time></trkpt><trkpt lat="46.1428715" lon="13.5637031"><ele>463.0</ele><time>2026-05-02T07:10:24.16Z</time></trkpt><trkpt lat="46.1429755" lon="13.5638212"><ele>463.00000000000006</ele><time>2026-05-02T07:10:26.145Z</time></trkpt><trkpt lat="46.1430142" lon="13.5639008"><ele>463.0</ele><time>2026-05-02T07:10:27.162Z</time></trkpt><trkpt lat="46.1430542" lon="13.5640571"><ele>463.0</ele><time>2026-05-02T07:10:29.154Z</time></trkpt><trkpt lat="46.1430418" lon="13.5641754"><ele>463.0</ele><time>2026-05-02T07:10:31.138Z</time></trkpt><trkpt lat="46.1429683" lon="13.5641356"><ele>463.00000000000006</ele><time>2026-05-02T07:10:33.146Z</time></trkpt><trkpt lat="46.1429206" lon="13.564069"><ele>463.0</ele><time>2026-05-02T07:10:34.149Z</time></trkpt><trkpt lat="46.142825" lon="13.5639641"><ele>463.0</ele><time>2026-05-02T07:10:36.158Z</time></trkpt><trkpt lat="46.1427122" lon="13.563889"><ele>462.99999999999994</ele><time>2026-05-02T07:10:38.162Z</time></trkpt><trkpt lat="46.1425997" lon="13.5638982"><ele>462.99999999999994</ele><time>2026-05-02T07:10:40.15Z</time></trkpt><trkpt lat="46.1424889" lon="13.5639602"><ele>463.0</ele><time>2026-05-02T07:10:42.161Z</time></trkpt><trkpt lat="46.142425" lon="13.5640092"><ele>463.0</ele><time>2026-05-02T07:10:43.165Z</time></trkpt><trkpt lat="46.1423574" lon="13.5640598"><ele>464.33333333333337</ele><time>2026-05-02T07:10:44.158Z</time></trkpt><trkpt lat="46.1422812" lon="13.5640916"><ele>465.6666666666667</ele><time>2026-05-02T07:10:45.155Z</time></trkpt><trkpt lat="46.1422048" lon="13.5641001"><ele>467.0</ele><time>2026-05-02T07:10:46.154Z</time></trkpt><trkpt lat="46.1421363" lon="13.5641047"><ele>468.33333333333337</ele><time>2026-05-02T07:10:47.161Z</time></trkpt><trkpt lat="46.1420337" lon="13.5641533"><ele>469.6666666666667</ele><time>2026-05-02T07:10:49.154Z</time></trkpt><trkpt lat="46.1419698" lon="13.5641924"><ele>471.0</ele><time>2026-05-02T07:10:50.175Z</time></trkpt><trkpt lat="46.141899" lon="13.5642444"><ele>471.00000000000006</ele><time>2026-05-02T07:10:51.153Z</time></trkpt><trkpt lat="46.1418321" lon="13.5642914"><ele>471.0</ele><time>2026-05-02T07:10:52.159Z</time></trkpt><trkpt lat="46.1417676" lon="13.5643176"><ele>471.00000000000006</ele><time>2026-05-02T07:10:53.165Z</time></trkpt><trkpt lat="46.1417023" lon="13.5643163"><ele>471.00000000000006</ele><time>2026-05-02T07:10:54.158Z</time></trkpt><trkpt lat="46.1416351" lon="13.5642824"><ele>471.0</ele><time>2026-05-02T07:10:55.163Z</time></trkpt><trkpt lat="46.1415764" lon="13.5642361"><ele>471.00000000000006</ele><time>2026-05-02T07:10:56.147Z</time></trkpt><trkpt lat="46.1415258" lon="13.5641614"><ele>471.00000000000006</ele><time>2026-05-02T07:10:57.161Z</time></trkpt><trkpt lat="46.141478" lon="13.5640645"><ele>474.1666666666667</ele><time>2026-05-02T07:10:58.145Z</time></trkpt><trkpt lat="46.1414326" lon="13.5639743"><ele>477.33333333333337</ele><time>2026-05-02T07:10:59.145Z</time></trkpt><trkpt lat="46.1413982" lon="13.5638906"><ele>480.5</ele><time>2026-05-02T07:11:00.156Z</time></trkpt><trkpt lat="46.1413101" lon="13.5637689"><ele>483.6666666666667</ele><time>2026-05-02T07:11:02.162Z</time></trkpt><trkpt lat="46.1412587" lon="13.5637134"><ele>486.83333333333337</ele><time>2026-05-02T07:11:03.157Z</time></trkpt><trkpt lat="46.1412019" lon="13.5636613"><ele>490.0</ele><time>2026-05-02T07:11:04.158Z</time></trkpt><trkpt lat="46.1411621" lon="13.5635805"><ele>490.00000000000006</ele><time>2026-05-02T07:11:05.15Z</time></trkpt><trkpt lat="46.1411373" lon="13.5634798"><ele>490.0</ele><time>2026-05-02T07:11:06.155Z</time></trkpt><trkpt lat="46.1411128" lon="13.5633593"><ele>490.0</ele><time>2026-05-02T07:11:07.143Z</time></trkpt><trkpt lat="46.1410976" lon="13.5632428"><ele>490.0</ele><time>2026-05-02T07:11:08.152Z</time></trkpt><trkpt lat="46.1410816" lon="13.5631223"><ele>490.00000000000006</ele><time>2026-05-02T07:11:09.154Z</time></trkpt><trkpt lat="46.1410808" lon="13.5630025"><ele>490.0</ele><time>2026-05-02T07:11:10.165Z</time></trkpt><trkpt lat="46.1410903" lon="13.5628742"><ele>489.6666666666667</ele><time>2026-05-02T07:11:11.153Z</time></trkpt><trkpt lat="46.1411084" lon="13.5627581"><ele>489.33333333333337</ele><time>2026-05-02T07:11:12.16Z</time></trkpt><trkpt lat="46.1411258" lon="13.5626288"><ele>489.0</ele><time>2026-05-02T07:11:13.155Z</time></trkpt><trkpt lat="46.1411526" lon="13.5625025"><ele>488.66666666666663</ele><time>2026-05-02T07:11:14.151Z</time></trkpt><trkpt lat="46.1411765" lon="13.5623851"><ele>488.3333333333333</ele><time>2026-05-02T07:11:15.156Z</time></trkpt><trkpt lat="46.1412001" lon="13.5622734"><ele>488.0</ele><time>2026-05-02T07:11:16.167Z</time></trkpt><trkpt lat="46.1412347" lon="13.5621589"><ele>487.99999999999994</ele><time>2026-05-02T07:11:17.165Z</time></trkpt><trkpt lat="46.1412708" lon="13.5620408"><ele>488.0</ele><time>2026-05-02T07:11:18.166Z</time></trkpt><trkpt lat="46.1413163" lon="13.5619172"><ele>488.0</ele><time>2026-05-02T07:11:19.152Z</time></trkpt><trkpt lat="46.1413596" lon="13.5617992"><ele>488.0</ele><time>2026-05-02T07:11:20.165Z</time></trkpt><trkpt lat="46.1413929" lon="13.5616862"><ele>487.99999999999994</ele><time>2026-05-02T07:11:21.157Z</time></trkpt><trkpt lat="46.141415" lon="13.5615856"><ele>488.0</ele><time>2026-05-02T07:11:22.181Z</time></trkpt><trkpt lat="46.141413" lon="13.561482"><ele>485.16666666666663</ele><time>2026-05-02T07:11:24.182Z</time></trkpt><trkpt lat="46.1413315" lon="13.561496"><ele>482.3333333333333</ele><time>2026-05-02T07:11:26.188Z</time></trkpt><trkpt lat="46.1412176" lon="13.5615719"><ele>479.5</ele><time>2026-05-02T07:11:28.157Z</time></trkpt><trkpt lat="46.141149" lon="13.5616123"><ele>476.66666666666663</ele><time>2026-05-02T07:11:29.168Z</time></trkpt><trkpt lat="46.141076" lon="13.5616553"><ele>473.8333333333333</ele><time>2026-05-02T07:11:30.18Z</time></trkpt><trkpt lat="46.1409995" lon="13.5616945"><ele>471.0</ele><time>2026-05-02T07:11:31.175Z</time></trkpt><trkpt lat="46.1409183" lon="13.5617319"><ele>471.0</ele><time>2026-05-02T07:11:32.177Z</time></trkpt><trkpt lat="46.1408359" lon="13.5617659"><ele>471.0</ele><time>2026-05-02T07:11:33.174Z</time></trkpt><trkpt lat="46.1407523" lon="13.5617934"><ele>471.0</ele><time>2026-05-02T07:11:34.168Z</time></trkpt><trkpt lat="46.1406645" lon="13.5618208"><ele>471.0</ele><time>2026-05-02T07:11:35.177Z</time></trkpt><trkpt lat="46.1405824" lon="13.5618614"><ele>471.0</ele><time>2026-05-02T07:11:36.175Z</time></trkpt><trkpt lat="46.1405067" lon="13.561915"><ele>471.0</ele><time>2026-05-02T07:11:37.168Z</time></trkpt><trkpt lat="46.1404283" lon="13.561969"><ele>468.20000000000005</ele><time>2026-05-02T07:11:38.158Z</time></trkpt><trkpt lat="46.1403443" lon="13.5620177"><ele>465.40000000000003</ele><time>2026-05-02T07:11:39.159Z</time></trkpt><trkpt lat="46.140256" lon="13.5620658"><ele>462.6</ele><time>2026-05-02T07:11:40.159Z</time></trkpt><trkpt lat="46.1401774" lon="13.5621101"><ele>459.8</ele><time>2026-05-02T07:11:41.177Z</time></trkpt><trkpt lat="46.1401077" lon="13.562146"><ele>457.0</ele><time>2026-05-02T07:11:42.173Z</time></trkpt><trkpt lat="46.1400011" lon="13.5622194"><ele>460.33333333333337</ele><time>2026-05-02T07:11:44.171Z</time></trkpt><trkpt lat="46.1399454" lon="13.5622653"><ele>463.6666666666667</ele><time>2026-05-02T07:11:45.161Z</time></trkpt><trkpt lat="46.1398773" lon="13.5623362"><ele>467.0</ele><time>2026-05-02T07:11:46.174Z</time></trkpt><trkpt lat="46.139811" lon="13.5624056"><ele>470.33333333333337</ele><time>2026-05-02T07:11:47.163Z</time></trkpt><trkpt lat="46.1397385" lon="13.5624612"><ele>473.6666666666667</ele><time>2026-05-02T07:11:48.166Z</time></trkpt><trkpt lat="46.1396631" lon="13.5625131"><ele>477.0</ele><time>2026-05-02T07:11:49.185Z</time></trkpt><trkpt lat="46.1395935" lon="13.5625781"><ele>477.0</ele><time>2026-05-02T07:11:50.162Z</time></trkpt><trkpt lat="46.1395196" lon="13.562653"><ele>477.0</ele><time>2026-05-02T07:11:51.166Z</time></trkpt><trkpt lat="46.1394473" lon="13.5627299"><ele>477.0</ele><time>2026-05-02T07:11:52.171Z</time></trkpt><trkpt lat="46.1393769" lon="13.5628006"><ele>477.0</ele><time>2026-05-02T07:11:53.17Z</time></trkpt><trkpt lat="46.1393096" lon="13.5628634"><ele>477.0</ele><time>2026-05-02T07:11:54.177Z</time></trkpt><trkpt lat="46.1392487" lon="13.5629309"><ele>477.0</ele><time>2026-05-02T07:11:55.171Z</time></trkpt><trkpt lat="46.1391891" lon="13.5630216"><ele>483.0</ele><time>2026-05-02T07:11:56.168Z</time></trkpt><trkpt lat="46.1391212" lon="13.5631164"><ele>489.00000000000006</ele><time>2026-05-02T07:11:57.178Z</time></trkpt><trkpt lat="46.1390626" lon="13.5631985"><ele>495.00000000000006</ele><time>2026-05-02T07:11:58.161Z</time></trkpt><trkpt lat="46.1389864" lon="13.5633023"><ele>501.0</ele><time>2026-05-02T07:12:00.156Z</time></trkpt><trkpt lat="46.1389224" lon="13.5633445"><ele>507.0</ele><time>2026-05-02T07:12:02.159Z</time></trkpt><trkpt lat="46.1388244" lon="13.563275"><ele>509.6666666666667</ele><time>2026-05-02T07:12:04.149Z</time></trkpt><trkpt lat="46.1387568" lon="13.5631898"><ele>512.3333333333334</ele><time>2026-05-02T07:12:05.145Z</time></trkpt><trkpt lat="46.1386936" lon="13.5631104"><ele>515.0</ele><time>2026-05-02T07:12:06.143Z</time></trkpt><trkpt lat="46.1386251" lon="13.5630371"><ele>517.6666666666667</ele><time>2026-05-02T07:12:07.151Z</time></trkpt><trkpt lat="46.1385595" lon="13.5629915"><ele>520.3333333333334</ele><time>2026-05-02T07:12:08.145Z</time></trkpt><trkpt lat="46.1384877" lon="13.5629586"><ele>523.0</ele><time>2026-05-02T07:12:09.159Z</time></trkpt><trkpt lat="46.1384026" lon="13.5629446"><ele>522.9999999999999</ele><time>2026-05-02T07:12:10.152Z</time></trkpt><trkpt lat="46.1383186" lon="13.5629259"><ele>523.0</ele><time>2026-05-02T07:12:11.148Z</time></trkpt><trkpt lat="46.1382403" lon="13.5629082"><ele>523.0</ele><time>2026-05-02T07:12:12.158Z</time></trkpt><trkpt lat="46.1381721" lon="13.5628796"><ele>523.0</ele><time>2026-05-02T07:12:13.161Z</time></trkpt><trkpt lat="46.1381114" lon="13.5628382"><ele>523.0</ele><time>2026-05-02T07:12:14.158Z</time></trkpt><trkpt lat="46.1380638" lon="13.5627708"><ele>522.9999999999999</ele><time>2026-05-02T07:12:15.145Z</time></trkpt><trkpt lat="46.1380365" lon="13.5626865"><ele>523.0</ele><time>2026-05-02T07:12:16.174Z</time></trkpt><trkpt lat="46.1380218" lon="13.5625574"><ele>525.6</ele><time>2026-05-02T07:12:17.166Z</time></trkpt><trkpt lat="46.1379978" lon="13.5624011"><ele>528.1999999999999</ele><time>2026-05-02T07:12:18.164Z</time></trkpt><trkpt lat="46.1379814" lon="13.5622417"><ele>530.8</ele><time>2026-05-02T07:12:19.161Z</time></trkpt><trkpt lat="46.1379622" lon="13.5621006"><ele>533.4</ele><time>2026-05-02T07:12:20.165Z</time></trkpt><trkpt lat="46.1379434" lon="13.5619575"><ele>536.0</ele><time>2026-05-02T07:12:21.163Z</time></trkpt><trkpt lat="46.1379277" lon="13.5618237"><ele>536.6666666666666</ele><time>2026-05-02T07:12:22.147Z</time></trkpt><trkpt lat="46.1379179" lon="13.5617016"><ele>537.3333333333333</ele><time>2026-05-02T07:12:23.143Z</time></trkpt><trkpt lat="46.1379146" lon="13.5616003"><ele>538.0</ele><time>2026-05-02T07:12:24.163Z</time></trkpt><trkpt lat="46.1379055" lon="13.5615104"><ele>538.6666666666666</ele><time>2026-05-02T07:12:25.16Z</time></trkpt><trkpt lat="46.1378844" lon="13.5614142"><ele>539.3333333333334</ele><time>2026-05-02T07:12:26.166Z</time></trkpt><trkpt lat="46.1378258" lon="13.5613163"><ele>540.0</ele><time>2026-05-02T07:12:27.159Z</time></trkpt><trkpt lat="46.1377649" lon="13.5612159"><ele>540.3333333333334</ele><time>2026-05-02T07:12:28.149Z</time></trkpt><trkpt lat="46.1377214" lon="13.5611101"><ele>540.6666666666666</ele><time>2026-05-02T07:12:29.163Z</time></trkpt><trkpt lat="46.1376892" lon="13.5610158"><ele>541.0</ele><time>2026-05-02T07:12:30.169Z</time></trkpt><trkpt lat="46.1376692" lon="13.5609118"><ele>541.3333333333333</ele><time>2026-05-02T07:12:31.166Z</time></trkpt><trkpt lat="46.1376626" lon="13.5607909"><ele>541.6666666666666</ele><time>2026-05-02T07:12:32.161Z</time></trkpt><trkpt lat="46.1376575" lon="13.5606667"><ele>542.0</ele><time>2026-05-02T07:12:33.174Z</time></trkpt><trkpt lat="46.1376582" lon="13.5605558"><ele>542.0</ele><time>2026-05-02T07:12:34.16Z</time></trkpt><trkpt lat="46.1376727" lon="13.5604578"><ele>542.0</ele><time>2026-05-02T07:12:35.163Z</time></trkpt><trkpt lat="46.1376988" lon="13.5603643"><ele>542.0</ele><time>2026-05-02T07:12:36.167Z</time></trkpt><trkpt lat="46.1377311" lon="13.5602695"><ele>542.0</ele><time>2026-05-02T07:12:37.178Z</time></trkpt><trkpt lat="46.1377715" lon="13.5601766"><ele>542.0</ele><time>2026-05-02T07:12:38.176Z</time></trkpt><trkpt lat="46.1378174" lon="13.5600832"><ele>542.0</ele><time>2026-05-02T07:12:39.161Z</time></trkpt><trkpt lat="46.137861" lon="13.559999"><ele>542.0</ele><time>2026-05-02T07:12:40.156Z</time></trkpt><trkpt lat="46.1378912" lon="13.5599161"><ele>541.3333333333333</ele><time>2026-05-02T07:12:41.158Z</time></trkpt><trkpt lat="46.1379128" lon="13.5597619"><ele>540.6666666666666</ele><time>2026-05-02T07:12:43.16Z</time></trkpt><trkpt lat="46.1378915" lon="13.5595818"><ele>540.0</ele><time>2026-05-02T07:12:45.161Z</time></trkpt><trkpt lat="46.1378573" lon="13.5594924"><ele>539.3333333333334</ele><time>2026-05-02T07:12:46.166Z</time></trkpt><trkpt lat="46.1378038" lon="13.5594217"><ele>538.6666666666667</ele><time>2026-05-02T07:12:47.152Z</time></trkpt><trkpt lat="46.1377517" lon="13.5593584"><ele>538.0</ele><time>2026-05-02T07:12:48.157Z</time></trkpt><trkpt lat="46.1376896" lon="13.5592979"><ele>541.0</ele><time>2026-05-02T07:12:49.156Z</time></trkpt><trkpt lat="46.1376265" lon="13.5592366"><ele>544.0</ele><time>2026-05-02T07:12:50.16Z</time></trkpt><trkpt lat="46.1375527" lon="13.5591946"><ele>547.0</ele><time>2026-05-02T07:12:51.168Z</time></trkpt><trkpt lat="46.1374723" lon="13.5591727"><ele>550.0</ele><time>2026-05-02T07:12:52.16Z</time></trkpt><trkpt lat="46.1373983" lon="13.5591645"><ele>553.0</ele><time>2026-05-02T07:12:53.168Z</time></trkpt><trkpt lat="46.1373273" lon="13.5591642"><ele>556.0</ele><time>2026-05-02T07:12:54.154Z</time></trkpt><trkpt lat="46.1372195" lon="13.5591251"><ele>556.0</ele><time>2026-05-02T07:12:56.162Z</time></trkpt><trkpt lat="46.1371702" lon="13.558989"><ele>556.0</ele><time>2026-05-02T07:12:58.164Z</time></trkpt><trkpt lat="46.1371407" lon="13.5588559"><ele>556.0</ele><time>2026-05-02T07:12:59.167Z</time></trkpt><trkpt lat="46.1370999" lon="13.5586883"><ele>556.0</ele><time>2026-05-02T07:13:00.157Z</time></trkpt><trkpt lat="46.137063" lon="13.5585319"><ele>556.0</ele><time>2026-05-02T07:13:01.154Z</time></trkpt><trkpt lat="46.1370332" lon="13.5583795"><ele>555.4</ele><time>2026-05-02T07:13:02.177Z</time></trkpt><trkpt lat="46.137008" lon="13.5582386"><ele>554.8</ele><time>2026-05-02T07:13:03.166Z</time></trkpt><trkpt lat="46.1369912" lon="13.5581072"><ele>554.1999999999999</ele><time>2026-05-02T07:13:04.167Z</time></trkpt><trkpt lat="46.1369729" lon="13.5579756"><ele>553.6</ele><time>2026-05-02T07:13:05.163Z</time></trkpt><trkpt lat="46.1369578" lon="13.5578513"><ele>553.0</ele><time>2026-05-02T07:13:06.163Z</time></trkpt><trkpt lat="46.1369584" lon="13.5577338"><ele>552.4</ele><time>2026-05-02T07:13:07.187Z</time></trkpt><trkpt lat="46.1369618" lon="13.5576129"><ele>551.8</ele><time>2026-05-02T07:13:08.163Z</time></trkpt><trkpt lat="46.1369611" lon="13.5574768"><ele>551.2</ele><time>2026-05-02T07:13:09.163Z</time></trkpt><trkpt lat="46.1369578" lon="13.5573393"><ele>550.6</ele><time>2026-05-02T07:13:10.167Z</time></trkpt><trkpt lat="46.1369508" lon="13.5572038"><ele>550.0</ele><time>2026-05-02T07:13:11.171Z</time></trkpt><trkpt lat="46.1369415" lon="13.5570828"><ele>547.5714285714286</ele><time>2026-05-02T07:13:12.183Z</time></trkpt><trkpt lat="46.1369373" lon="13.5569709"><ele>545.1428571428571</ele><time>2026-05-02T07:13:13.17Z</time></trkpt><trkpt lat="46.1369357" lon="13.5568642"><ele>542.7142857142857</ele><time>2026-05-02T07:13:14.164Z</time></trkpt><trkpt lat="46.1369386" lon="13.5567641"><ele>540.2857142857142</ele><time>2026-05-02T07:13:15.179Z</time></trkpt><trkpt lat="46.1369435" lon="13.5566516"><ele>537.8571428571428</ele><time>2026-05-02T07:13:16.16Z</time></trkpt><trkpt lat="46.1369409" lon="13.5565449"><ele>535.4285714285714</ele><time>2026-05-02T07:13:17.165Z</time></trkpt><trkpt lat="46.1369423" lon="13.5564392"><ele>533.0</ele><time>2026-05-02T07:13:18.174Z</time></trkpt><trkpt lat="46.1369396" lon="13.5563438"><ele>533.0</ele><time>2026-05-02T07:13:19.17Z</time></trkpt><trkpt lat="46.1368899" lon="13.5562075"><ele>533.0</ele><time>2026-05-02T07:13:21.151Z</time></trkpt><trkpt lat="46.1368288" lon="13.5561581"><ele>533.0</ele><time>2026-05-02T07:13:22.178Z</time></trkpt><trkpt lat="46.1367514" lon="13.5561201"><ele>533.0</ele><time>2026-05-02T07:13:23.165Z</time></trkpt><trkpt lat="46.1366721" lon="13.5561064"><ele>533.0</ele><time>2026-05-02T07:13:24.163Z</time></trkpt><trkpt lat="46.1366043" lon="13.5561248"><ele>533.0</ele><time>2026-05-02T07:13:25.157Z</time></trkpt><trkpt lat="46.1365427" lon="13.5561662"><ele>533.5</ele><time>2026-05-02T07:13:26.159Z</time></trkpt><trkpt lat="46.1364839" lon="13.5562356"><ele>534.0</ele><time>2026-05-02T07:13:27.177Z</time></trkpt><trkpt lat="46.1364227" lon="13.5563028"><ele>534.5</ele><time>2026-05-02T07:13:28.185Z</time></trkpt><trkpt lat="46.1363551" lon="13.5563729"><ele>535.0</ele><time>2026-05-02T07:13:29.168Z</time></trkpt><trkpt lat="46.1362941" lon="13.5564327"><ele>535.5</ele><time>2026-05-02T07:13:30.183Z</time></trkpt><trkpt lat="46.1362307" lon="13.5564665"><ele>536.0</ele><time>2026-05-02T07:13:31.173Z</time></trkpt><trkpt lat="46.1361584" lon="13.5564738"><ele>536.0</ele><time>2026-05-02T07:13:32.172Z</time></trkpt><trkpt lat="46.1360733" lon="13.5564623"><ele>536.0</ele><time>2026-05-02T07:13:33.155Z</time></trkpt><trkpt lat="46.1359799" lon="13.5564522"><ele>536.0</ele><time>2026-05-02T07:13:34.159Z</time></trkpt><trkpt lat="46.1358822" lon="13.5564584"><ele>536.0</ele><time>2026-05-02T07:13:35.166Z</time></trkpt><trkpt lat="46.1357819" lon="13.5564712"><ele>536.0</ele><time>2026-05-02T07:13:36.158Z</time></trkpt><trkpt lat="46.1356919" lon="13.5564763"><ele>535.1428571428571</ele><time>2026-05-02T07:13:37.166Z</time></trkpt><trkpt lat="46.1356126" lon="13.5564654"><ele>534.2857142857142</ele><time>2026-05-02T07:13:38.182Z</time></trkpt><trkpt lat="46.13554" lon="13.5564377"><ele>533.4285714285713</ele><time>2026-05-02T07:13:39.177Z</time></trkpt><trkpt lat="46.1354794" lon="13.556397"><ele>532.5714285714286</ele><time>2026-05-02T07:13:40.167Z</time></trkpt><trkpt lat="46.1354165" lon="13.5563435"><ele>531.7142857142857</ele><time>2026-05-02T07:13:41.172Z</time></trkpt><trkpt lat="46.1353471" lon="13.5562935"><ele>530.8571428571428</ele><time>2026-05-02T07:13:42.18Z</time></trkpt><trkpt lat="46.1352843" lon="13.5562604"><ele>530.0</ele><time>2026-05-02T07:13:43.168Z</time></trkpt><trkpt lat="46.1352008" lon="13.5561884"><ele>530.0</ele><time>2026-05-02T07:13:45.161Z</time></trkpt><trkpt lat="46.1351482" lon="13.5561106"><ele>530.0</ele><time>2026-05-02T07:13:47.162Z</time></trkpt><trkpt lat="46.1350759" lon="13.5561536"><ele>530.0</ele><time>2026-05-02T07:13:56.163Z</time></trkpt><trkpt lat="46.1350234" lon="13.5562636"><ele>530.0</ele><time>2026-05-02T07:13:58.169Z</time></trkpt><trkpt lat="46.1349974" lon="13.5563518"><ele>530.0</ele><time>2026-05-02T07:13:59.183Z</time></trkpt><trkpt lat="46.1349728" lon="13.5564423"><ele>530.0</ele><time>2026-05-02T07:14:00.174Z</time></trkpt><trkpt lat="46.1349529" lon="13.5565502"><ele>530.0</ele><time>2026-05-02T07:14:01.17Z</time></trkpt><trkpt lat="46.1349319" lon="13.556668"><ele>530.0</ele><time>2026-05-02T07:14:02.164Z</time></trkpt><trkpt lat="46.1349187" lon="13.5567862"><ele>530.0</ele><time>2026-05-02T07:14:03.176Z</time></trkpt><trkpt lat="46.1349125" lon="13.5568956"><ele>530.0</ele><time>2026-05-02T07:14:04.187Z</time></trkpt><trkpt lat="46.1349162" lon="13.5570003"><ele>530.0</ele><time>2026-05-02T07:14:05.16Z</time></trkpt><trkpt lat="46.1349335" lon="13.5571033"><ele>530.0</ele><time>2026-05-02T07:14:06.163Z</time></trkpt><trkpt lat="46.1349539" lon="13.5572078"><ele>530.4285714285713</ele><time>2026-05-02T07:14:07.187Z</time></trkpt><trkpt lat="46.1349632" lon="13.5573146"><ele>530.8571428571429</ele><time>2026-05-02T07:14:08.208Z</time></trkpt><trkpt lat="46.1349624" lon="13.5574224"><ele>531.2857142857142</ele><time>2026-05-02T07:14:09.179Z</time></trkpt><trkpt lat="46.1349617" lon="13.5575312"><ele>531.7142857142857</ele><time>2026-05-02T07:14:10.182Z</time></trkpt><trkpt lat="46.1349651" lon="13.5576338"><ele>532.1428571428571</ele><time>2026-05-02T07:14:11.173Z</time></trkpt><trkpt lat="46.1349693" lon="13.557744"><ele>532.5714285714286</ele><time>2026-05-02T07:14:12.161Z</time></trkpt><trkpt lat="46.1349688" lon="13.5578553"><ele>533.0</ele><time>2026-05-02T07:14:13.179Z</time></trkpt><trkpt lat="46.1349638" lon="13.5579725"><ele>534.8333333333333</ele><time>2026-05-02T07:14:14.165Z</time></trkpt><trkpt lat="46.1349524" lon="13.5580956"><ele>536.6666666666666</ele><time>2026-05-02T07:14:15.171Z</time></trkpt><trkpt lat="46.1349307" lon="13.5582119"><ele>538.5</ele><time>2026-05-02T07:14:16.176Z</time></trkpt><trkpt lat="46.1349069" lon="13.5583256"><ele>540.3333333333334</ele><time>2026-05-02T07:14:17.166Z</time></trkpt><trkpt lat="46.1348824" lon="13.5584337"><ele>542.1666666666667</ele><time>2026-05-02T07:14:18.173Z</time></trkpt><trkpt lat="46.1348581" lon="13.558541"><ele>544.0</ele><time>2026-05-02T07:14:19.148Z</time></trkpt><trkpt lat="46.1348225" lon="13.55865"><ele>537.6</ele><time>2026-05-02T07:14:20.164Z</time></trkpt><trkpt lat="46.1347735" lon="13.558749"><ele>531.2</ele><time>2026-05-02T07:14:21.157Z</time></trkpt><trkpt lat="46.1347141" lon="13.5588477"><ele>524.8000000000001</ele><time>2026-05-02T07:14:22.158Z</time></trkpt><trkpt lat="46.1346541" lon="13.5589382"><ele>518.4</ele><time>2026-05-02T07:14:23.158Z</time></trkpt><trkpt lat="46.1346053" lon="13.5590245"><ele>512.0</ele><time>2026-05-02T07:14:24.157Z</time></trkpt><trkpt lat="46.1345514" lon="13.5591912"><ele>511.99999999999994</ele><time>2026-05-02T07:14:26.178Z</time></trkpt><trkpt lat="46.1345488" lon="13.5592934"><ele>512.0</ele><time>2026-05-02T07:14:27.153Z</time></trkpt><trkpt lat="46.1345505" lon="13.5593962"><ele>512.0</ele><time>2026-05-02T07:14:28.155Z</time></trkpt><trkpt lat="46.1345579" lon="13.5594901"><ele>512.0</ele><time>2026-05-02T07:14:29.163Z</time></trkpt><trkpt lat="46.1345945" lon="13.559639"><ele>511.99999999999994</ele><time>2026-05-02T07:14:31.172Z</time></trkpt><trkpt lat="46.1346447" lon="13.5597415"><ele>512.0</ele><time>2026-05-02T07:14:33.17Z</time></trkpt><trkpt lat="46.1347358" lon="13.5598587"><ele>511.49999999999994</ele><time>2026-05-02T07:14:35.16Z</time></trkpt><trkpt lat="46.1347889" lon="13.5599324"><ele>511.0</ele><time>2026-05-02T07:14:36.16Z</time></trkpt><trkpt lat="46.1348451" lon="13.5600174"><ele>510.5</ele><time>2026-05-02T07:14:37.166Z</time></trkpt><trkpt lat="46.1349019" lon="13.5601073"><ele>510.0</ele><time>2026-05-02T07:14:38.169Z</time></trkpt><trkpt lat="46.1349586" lon="13.5601937"><ele>509.49999999999994</ele><time>2026-05-02T07:14:39.169Z</time></trkpt><trkpt lat="46.1350132" lon="13.5602703"><ele>509.0</ele><time>2026-05-02T07:14:40.171Z</time></trkpt><trkpt lat="46.1350681" lon="13.5603222"><ele>519.5</ele><time>2026-05-02T07:14:41.166Z</time></trkpt><trkpt lat="46.135132" lon="13.5603517"><ele>530.0</ele><time>2026-05-02T07:14:42.169Z</time></trkpt><trkpt lat="46.1349974" lon="13.5563518"><ele>530.0</ele><time>2026-05-02T07:13:59.183Z</time></trkpt><trkpt lat="46.1349728" lon="13.5564423"><ele>530.0</ele><time>2026-05-02T07:14:00.174Z</time></trkpt><trkpt lat="46.1349529" lon="13.5565502"><ele>530.0</ele><time>2026-05-02T07:14:01.17Z</time></trkpt><trkpt lat="46.1349319" lon="13.556668"><ele>530.0</ele><time>2026-05-02T07:14:02.164Z</time></trkpt><trkpt lat="46.1349187" lon="13.5567862"><ele>530.0</ele><time>2026-05-02T07:14:03.176Z</time></trkpt><trkpt lat="46.1349125" lon="13.5568956"><ele>530.0</ele><time>2026-05-02T07:14:04.187Z</time></trkpt><trkpt lat="46.1349162" lon="13.5570003"><ele>530.4285714285713</ele><time>2026-05-02T07:14:05.16Z</time></trkpt><trkpt lat="46.1349335" lon="13.5571033"><ele>530.8571428571429</ele><time>2026-05-02T07:14:06.163Z</time></trkpt><trkpt lat="46.1349539" lon="13.5572078"><ele>531.2857142857142</ele><time>2026-05-02T07:14:07.187Z</time></trkpt><trkpt lat="46.1349632" lon="13.5573146"><ele>531.7142857142857</ele><time>2026-05-02T07:14:08.208Z</time></trkpt><trkpt lat="46.1349624" lon="13.5574224"><ele>532.1428571428571</ele><time>2026-05-02T07:14:09.179Z</time></trkpt><trkpt lat="46.1349617" lon="13.5575312"><ele>532.5714285714286</ele><time>2026-05-02T07:14:10.182Z</time></trkpt><trkpt lat="46.1349651" lon="13.5576338"><ele>533.0</ele><time>2026-05-02T07:14:11.173Z</time></trkpt><trkpt lat="46.1349693" lon="13.557744"><ele>533.0</ele><time>2026-05-02T07:14:12.161Z</time></trkpt><trkpt lat="46.1349688" lon="13.5578553"><ele>533.0</ele><time>2026-05-02T07:14:13.179Z</time></trkpt><trkpt lat="46.1349638" lon="13.5579725"><ele>533.0</ele><time>2026-05-02T07:14:14.165Z</time></trkpt><trkpt lat="46.1349524" lon="13.5580956"><ele>533.0</ele><time>2026-05-02T07:14:15.171Z</time></trkpt><trkpt lat="46.1349307" lon="13.5582119"><ele>533.0</ele><time>2026-05-02T07:14:16.176Z</time></trkpt><trkpt lat="46.1349069" lon="13.5583256"><ele>533.0</ele><time>2026-05-02T07:14:17.166Z</time></trkpt><trkpt lat="46.1348824" lon="13.5584337"><ele>529.5</ele><time>2026-05-02T07:14:18.173Z</time></trkpt><trkpt lat="46.1348581" lon="13.558541"><ele>526.0</ele><time>2026-05-02T07:14:19.148Z</time></trkpt><trkpt lat="46.1348225" lon="13.55865"><ele>522.5</ele><time>2026-05-02T07:14:20.164Z</time></trkpt><trkpt lat="46.1347735" lon="13.558749"><ele>519.0</ele><time>2026-05-02T07:14:21.157Z</time></trkpt><trkpt lat="46.1347141" lon="13.5588477"><ele>515.5</ele><time>2026-05-02T07:14:22.158Z</time></trkpt><trkpt lat="46.1346541" lon="13.5589382"><ele>512.0</ele><time>2026-05-02T07:14:23.158Z</time></trkpt><trkpt lat="46.1346053" lon="13.5590245"><ele>511.99999999999994</ele><time>2026-05-02T07:14:24.157Z</time></trkpt><trkpt lat="46.1345514" lon="13.5591912"><ele>512.0</ele><time>2026-05-02T07:14:26.178Z</time></trkpt><trkpt lat="46.1345488" lon="13.5592934"><ele>512.0</ele><time>2026-05-02T07:14:27.153Z</time></trkpt><trkpt lat="46.1345505" lon="13.5593962"><ele>512.0</ele><time>2026-05-02T07:14:28.155Z</time></trkpt><trkpt lat="46.1345579" lon="13.5594901"><ele>511.99999999999994</ele><time>2026-05-02T07:14:29.163Z</time></trkpt><trkpt lat="46.1345945" lon="13.559639"><ele>512.0</ele><time>2026-05-02T07:14:31.172Z</time></trkpt><trkpt lat="46.1346447" lon="13.5597415"><ele>511.49999999999994</ele><time>2026-05-02T07:14:33.17Z</time></trkpt><trkpt lat="46.1347358" lon="13.5598587"><ele>511.0</ele><time>2026-05-02T07:14:35.16Z</time></trkpt><trkpt lat="46.1347889" lon="13.5599324"><ele>510.5</ele><time>2026-05-02T07:14:36.16Z</time></trkpt><trkpt lat="46.1348451" lon="13.5600174"><ele>510.0</ele><time>2026-05-02T07:14:37.166Z</time></trkpt><trkpt lat="46.1349019" lon="13.5601073"><ele>509.49999999999994</ele><time>2026-05-02T07:14:38.169Z</time></trkpt><trkpt lat="46.1349586" lon="13.5601937"><ele>509.0</ele><time>2026-05-02T07:14:39.169Z</time></trkpt><trkpt lat="46.1350132" lon="13.5602703"><ele>512.1666666666666</ele><time>2026-05-02T07:14:40.171Z</time></trkpt><trkpt lat="46.1350681" lon="13.5603222"><ele>515.3333333333333</ele><time>2026-05-02T07:14:41.166Z</time></trkpt><trkpt lat="46.135132" lon="13.5603517"><ele>518.5</ele><time>2026-05-02T07:14:42.169Z</time></trkpt><trkpt lat="46.1351993" lon="13.5603757"><ele>521.6666666666666</ele><time>2026-05-02T07:14:43.168Z</time></trkpt><trkpt lat="46.1352721" lon="13.5604069"><ele>524.8333333333334</ele><time>2026-05-02T07:14:44.166Z</time></trkpt><trkpt lat="46.135357" lon="13.5604612"><ele>528.0</ele><time>2026-05-02T07:14:45.159Z</time></trkpt><trkpt lat="46.1354444" lon="13.5605282"><ele>528.0</ele><time>2026-05-02T07:14:46.175Z</time></trkpt><trkpt lat="46.1355279" lon="13.5605953"><ele>528.0</ele><time>2026-05-02T07:14:47.159Z</time></trkpt><trkpt lat="46.1356007" lon="13.5606526"><ele>528.0</ele><time>2026-05-02T07:14:48.163Z</time></trkpt><trkpt lat="46.1356703" lon="13.5606978"><ele>528.0</ele><time>2026-05-02T07:14:49.163Z</time></trkpt><trkpt lat="46.1357439" lon="13.5607323"><ele>528.0</ele><time>2026-05-02T07:14:50.169Z</time></trkpt><trkpt lat="46.1358228" lon="13.560751"><ele>528.0</ele><time>2026-05-02T07:14:51.166Z</time></trkpt><trkpt lat="46.1358984" lon="13.5607534"><ele>531.1666666666666</ele><time>2026-05-02T07:14:52.154Z</time></trkpt><trkpt lat="46.1359798" lon="13.5607541"><ele>534.3333333333334</ele><time>2026-05-02T07:14:53.169Z</time></trkpt><trkpt lat="46.1360632" lon="13.5607518"><ele>537.5</ele><time>2026-05-02T07:14:54.18Z</time></trkpt><trkpt lat="46.1361396" lon="13.5607599"><ele>540.6666666666667</ele><time>2026-05-02T07:14:55.175Z</time></trkpt><trkpt lat="46.1361979" lon="13.560795"><ele>543.8333333333334</ele><time>2026-05-02T07:14:56.165Z</time></trkpt><trkpt lat="46.1362566" lon="13.5608587"><ele>547.0</ele><time>2026-05-02T07:14:57.156Z</time></trkpt><trkpt lat="46.1363277" lon="13.5609474"><ele>547.0</ele><time>2026-05-02T07:14:58.158Z</time></trkpt><trkpt lat="46.1363913" lon="13.5610573"><ele>547.0</ele><time>2026-05-02T07:14:59.165Z</time></trkpt><trkpt lat="46.1364532" lon="13.5611562"><ele>547.0</ele><time>2026-05-02T07:15:00.168Z</time></trkpt><trkpt lat="46.1365152" lon="13.5612591"><ele>547.0</ele><time>2026-05-02T07:15:01.17Z</time></trkpt><trkpt lat="46.1365805" lon="13.5613576"><ele>547.0</ele><time>2026-05-02T07:15:02.157Z</time></trkpt><trkpt lat="46.1366486" lon="13.5614354"><ele>546.6666666666667</ele><time>2026-05-02T07:15:03.153Z</time></trkpt><trkpt lat="46.1367166" lon="13.5615144"><ele>546.3333333333334</ele><time>2026-05-02T07:15:04.16Z</time></trkpt><trkpt lat="46.136787" lon="13.5615928"><ele>546.0</ele><time>2026-05-02T07:15:05.16Z</time></trkpt><trkpt lat="46.1368564" lon="13.5616754"><ele>545.6666666666666</ele><time>2026-05-02T07:15:06.165Z</time></trkpt><trkpt lat="46.1369243" lon="13.5617519"><ele>545.3333333333333</ele><time>2026-05-02T07:15:07.175Z</time></trkpt><trkpt lat="46.1369911" lon="13.5618364"><ele>545.0</ele><time>2026-05-02T07:15:08.177Z</time></trkpt><trkpt lat="46.1370424" lon="13.5619365"><ele>542.8333333333333</ele><time>2026-05-02T07:15:09.16Z</time></trkpt><trkpt lat="46.1370851" lon="13.5620341"><ele>540.6666666666666</ele><time>2026-05-02T07:15:10.18Z</time></trkpt><trkpt lat="46.1371244" lon="13.5621358"><ele>538.5</ele><time>2026-05-02T07:15:11.159Z</time></trkpt><trkpt lat="46.1371537" lon="13.5622407"><ele>536.3333333333334</ele><time>2026-05-02T07:15:12.167Z</time></trkpt><trkpt lat="46.1371746" lon="13.5623681"><ele>534.1666666666667</ele><time>2026-05-02T07:15:13.161Z</time></trkpt><trkpt lat="46.1371921" lon="13.5624789"><ele>532.0</ele><time>2026-05-02T07:15:14.171Z</time></trkpt><trkpt lat="46.1372067" lon="13.5625716"><ele>532.0</ele><time>2026-05-02T07:15:15.165Z</time></trkpt><trkpt lat="46.137189" lon="13.5627709"><ele>532.0</ele><time>2026-05-02T07:15:17.174Z</time></trkpt><trkpt lat="46.137173" lon="13.562882"><ele>532.0</ele><time>2026-05-02T07:15:18.173Z</time></trkpt><trkpt lat="46.1371689" lon="13.5629731"><ele>532.0</ele><time>2026-05-02T07:15:19.179Z</time></trkpt><trkpt lat="46.1372048" lon="13.5631297"><ele>532.0</ele><time>2026-05-02T07:15:21.158Z</time></trkpt><trkpt lat="46.137243" lon="13.5632054"><ele>531.3333333333334</ele><time>2026-05-02T07:15:22.158Z</time></trkpt><trkpt lat="46.1372885" lon="13.5632797"><ele>530.6666666666667</ele><time>2026-05-02T07:15:23.159Z</time></trkpt><trkpt lat="46.1373372" lon="13.5633554"><ele>530.0</ele><time>2026-05-02T07:15:24.167Z</time></trkpt><trkpt lat="46.1373906" lon="13.5634342"><ele>529.3333333333334</ele><time>2026-05-02T07:15:25.16Z</time></trkpt><trkpt lat="46.1374541" lon="13.5634989"><ele>528.6666666666666</ele><time>2026-05-02T07:15:26.156Z</time></trkpt><trkpt lat="46.1375221" lon="13.56355"><ele>528.0</ele><time>2026-05-02T07:15:27.157Z</time></trkpt><trkpt lat="46.1375927" lon="13.5636012"><ele>530.5</ele><time>2026-05-02T07:15:28.152Z</time></trkpt><trkpt lat="46.1376664" lon="13.5636494"><ele>533.0</ele><time>2026-05-02T07:15:29.163Z</time></trkpt><trkpt lat="46.1377457" lon="13.5637"><ele>535.5</ele><time>2026-05-02T07:15:30.174Z</time></trkpt><trkpt lat="46.1378349" lon="13.5637579"><ele>538.0</ele><time>2026-05-02T07:15:31.163Z</time></trkpt><trkpt lat="46.1379153" lon="13.563824"><ele>540.5</ele><time>2026-05-02T07:15:32.163Z</time></trkpt><trkpt lat="46.1379933" lon="13.5638726"><ele>543.0</ele><time>2026-05-02T07:15:33.164Z</time></trkpt><trkpt lat="46.1380734" lon="13.5639042"><ele>544.1666666666666</ele><time>2026-05-02T07:15:34.167Z</time></trkpt><trkpt lat="46.1381469" lon="13.5639236"><ele>545.3333333333334</ele><time>2026-05-02T07:15:35.164Z</time></trkpt><trkpt lat="46.1382141" lon="13.563943"><ele>546.5</ele><time>2026-05-02T07:15:36.172Z</time></trkpt><trkpt lat="46.1382795" lon="13.5639766"><ele>547.6666666666667</ele><time>2026-05-02T07:15:37.167Z</time></trkpt><trkpt lat="46.1383396" lon="13.5640377"><ele>548.8333333333334</ele><time>2026-05-02T07:15:38.166Z</time></trkpt><trkpt lat="46.1384215" lon="13.5641596"><ele>550.0</ele><time>2026-05-02T07:15:40.167Z</time></trkpt><trkpt lat="46.1385266" lon="13.5642435"><ele>550.6666666666667</ele><time>2026-05-02T07:15:42.173Z</time></trkpt><trkpt lat="46.1385997" lon="13.5642782"><ele>551.3333333333334</ele><time>2026-05-02T07:15:43.155Z</time></trkpt><trkpt lat="46.1386765" lon="13.5643031"><ele>552.0</ele><time>2026-05-02T07:15:44.154Z</time></trkpt><trkpt lat="46.1387573" lon="13.5643138"><ele>552.6666666666666</ele><time>2026-05-02T07:15:45.154Z</time></trkpt><trkpt lat="46.1388345" lon="13.5643026"><ele>553.3333333333333</ele><time>2026-05-02T07:15:46.162Z</time></trkpt><trkpt lat="46.1389239" lon="13.5642959"><ele>554.0</ele><time>2026-05-02T07:15:47.146Z</time></trkpt><trkpt lat="46.1390164" lon="13.5642999"><ele>551.3333333333333</ele><time>2026-05-02T07:15:48.152Z</time></trkpt><trkpt lat="46.1391072" lon="13.5643053"><ele>548.6666666666666</ele><time>2026-05-02T07:15:49.158Z</time></trkpt><trkpt lat="46.1391963" lon="13.564315"><ele>546.0</ele><time>2026-05-02T07:15:50.143Z</time></trkpt><trkpt lat="46.1392886" lon="13.5643293"><ele>543.3333333333334</ele><time>2026-05-02T07:15:51.16Z</time></trkpt><trkpt lat="46.1393742" lon="13.5643343"><ele>540.6666666666667</ele><time>2026-05-02T07:15:52.14Z</time></trkpt><trkpt lat="46.1394401" lon="13.5643217"><ele>538.0</ele><time>2026-05-02T07:15:53.155Z</time></trkpt><trkpt lat="46.139545" lon="13.5642628"><ele>538.0</ele><time>2026-05-02T07:15:55.155Z</time></trkpt><trkpt lat="46.1396523" lon="13.5641855"><ele>538.0</ele><time>2026-05-02T07:15:57.145Z</time></trkpt><trkpt lat="46.1397508" lon="13.5641505"><ele>538.0</ele><time>2026-05-02T07:15:59.166Z</time></trkpt><trkpt lat="46.1398409" lon="13.5641673"><ele>538.0</ele><time>2026-05-02T07:16:01.171Z</time></trkpt><trkpt lat="46.1399315" lon="13.5642868"><ele>538.0</ele><time>2026-05-02T07:16:03.149Z</time></trkpt><trkpt lat="46.1399759" lon="13.5643756"><ele>536.8333333333334</ele><time>2026-05-02T07:16:04.16Z</time></trkpt><trkpt lat="46.1400154" lon="13.5644835"><ele>535.6666666666667</ele><time>2026-05-02T07:16:05.157Z</time></trkpt><trkpt lat="46.1400578" lon="13.5645803"><ele>534.5</ele><time>2026-05-02T07:16:06.171Z</time></trkpt><trkpt lat="46.1401141" lon="13.564645"><ele>533.3333333333334</ele><time>2026-05-02T07:16:07.153Z</time></trkpt><trkpt lat="46.1401757" lon="13.564704"><ele>532.1666666666666</ele><time>2026-05-02T07:16:08.16Z</time></trkpt><trkpt lat="46.1402451" lon="13.5647663"><ele>531.0</ele><time>2026-05-02T07:16:09.161Z</time></trkpt><trkpt lat="46.1403085" lon="13.5648456"><ele>536.3333333333334</ele><time>2026-05-02T07:16:10.154Z</time></trkpt><trkpt lat="46.14037" lon="13.5649401"><ele>541.6666666666666</ele><time>2026-05-02T07:16:11.154Z</time></trkpt><trkpt lat="46.1404347" lon="13.5650342"><ele>547.0</ele><time>2026-05-02T07:16:12.164Z</time></trkpt><trkpt lat="46.1405115" lon="13.5651119"><ele>552.3333333333333</ele><time>2026-05-02T07:16:13.162Z</time></trkpt><trkpt lat="46.1405758" lon="13.5651847"><ele>557.6666666666666</ele><time>2026-05-02T07:16:14.165Z</time></trkpt><trkpt lat="46.1406314" lon="13.5652497"><ele>563.0</ele><time>2026-05-02T07:16:15.152Z</time></trkpt><trkpt lat="46.1406792" lon="13.5653238"><ele>560.4</ele><time>2026-05-02T07:16:16.166Z</time></trkpt><trkpt lat="46.1407318" lon="13.5654098"><ele>557.8</ele><time>2026-05-02T07:16:17.152Z</time></trkpt><trkpt lat="46.1407991" lon="13.5655204"><ele>555.2</ele><time>2026-05-02T07:16:18.148Z</time></trkpt><trkpt lat="46.1408695" lon="13.5656314"><ele>552.6</ele><time>2026-05-02T07:16:19.157Z</time></trkpt><trkpt lat="46.1409456" lon="13.5656974"><ele>550.0</ele><time>2026-05-02T07:16:20.144Z</time></trkpt><trkpt lat="46.1410314" lon="13.5657519"><ele>550.0</ele><time>2026-05-02T07:16:21.149Z</time></trkpt><trkpt lat="46.1411074" lon="13.5657885"><ele>550.0</ele><time>2026-05-02T07:16:22.154Z</time></trkpt><trkpt lat="46.1411699" lon="13.5658235"><ele>550.0</ele><time>2026-05-02T07:16:23.151Z</time></trkpt><trkpt lat="46.1412272" lon="13.5659573"><ele>550.0</ele><time>2026-05-02T07:16:25.156Z</time></trkpt><trkpt lat="46.1412368" lon="13.5660598"><ele>550.0</ele><time>2026-05-02T07:16:26.165Z</time></trkpt><trkpt lat="46.1412441" lon="13.5661837"><ele>550.0</ele><time>2026-05-02T07:16:27.148Z</time></trkpt><trkpt lat="46.1412654" lon="13.5663117"><ele>552.3333333333334</ele><time>2026-05-02T07:16:28.156Z</time></trkpt><trkpt lat="46.141281" lon="13.5664303"><ele>554.6666666666667</ele><time>2026-05-02T07:16:29.157Z</time></trkpt><trkpt lat="46.1412762" lon="13.5665308"><ele>557.0</ele><time>2026-05-02T07:16:30.175Z</time></trkpt><trkpt lat="46.1412547" lon="13.5666296"><ele>559.3333333333334</ele><time>2026-05-02T07:16:31.167Z</time></trkpt><trkpt lat="46.1412313" lon="13.566731"><ele>561.6666666666666</ele><time>2026-05-02T07:16:32.154Z</time></trkpt><trkpt lat="46.1412065" lon="13.566846"><ele>564.0</ele><time>2026-05-02T07:16:33.177Z</time></trkpt><trkpt lat="46.1411812" lon="13.5669812"><ele>564.6666666666666</ele><time>2026-05-02T07:16:34.168Z</time></trkpt><trkpt lat="46.1411687" lon="13.567097"><ele>565.3333333333334</ele><time>2026-05-02T07:16:35.162Z</time></trkpt><trkpt lat="46.1411704" lon="13.5671998"><ele>566.0</ele><time>2026-05-02T07:16:36.174Z</time></trkpt><trkpt lat="46.1411804" lon="13.5673024"><ele>566.6666666666667</ele><time>2026-05-02T07:16:37.165Z</time></trkpt><trkpt lat="46.1411965" lon="13.5674125"><ele>567.3333333333334</ele><time>2026-05-02T07:16:38.157Z</time></trkpt><trkpt lat="46.1412177" lon="13.5675281"><ele>568.0</ele><time>2026-05-02T07:16:39.169Z</time></trkpt><trkpt lat="46.141235" lon="13.5676568"><ele>568.0</ele><time>2026-05-02T07:16:40.152Z</time></trkpt><trkpt lat="46.1412491" lon="13.5677767"><ele>568.0</ele><time>2026-05-02T07:16:41.175Z</time></trkpt><trkpt lat="46.1412617" lon="13.5679136"><ele>568.0</ele><time>2026-05-02T07:16:42.165Z</time></trkpt><trkpt lat="46.1412629" lon="13.5680483"><ele>568.0</ele><time>2026-05-02T07:16:43.161Z</time></trkpt><trkpt lat="46.141261" lon="13.5681864"><ele>568.0</ele><time>2026-05-02T07:16:44.167Z</time></trkpt><trkpt lat="46.1412589" lon="13.5683257"><ele>568.8</ele><time>2026-05-02T07:16:45.154Z</time></trkpt><trkpt lat="46.1412602" lon="13.5684507"><ele>569.5999999999999</ele><time>2026-05-02T07:16:46.153Z</time></trkpt><trkpt lat="46.1412576" lon="13.5685676"><ele>570.4000000000001</ele><time>2026-05-02T07:16:47.153Z</time></trkpt><trkpt lat="46.1412498" lon="13.568683"><ele>571.2</ele><time>2026-05-02T07:16:48.151Z</time></trkpt><trkpt lat="46.1412485" lon="13.5688214"><ele>572.0</ele><time>2026-05-02T07:16:49.159Z</time></trkpt><trkpt lat="46.1412512" lon="13.5689757"><ele>572.6</ele><time>2026-05-02T07:16:50.16Z</time></trkpt><trkpt lat="46.1412503" lon="13.5691289"><ele>573.2</ele><time>2026-05-02T07:16:51.152Z</time></trkpt><trkpt lat="46.1412553" lon="13.569277"><ele>573.8</ele><time>2026-05-02T07:16:52.176Z</time></trkpt><trkpt lat="46.1412649" lon="13.5694121"><ele>574.4</ele><time>2026-05-02T07:16:53.147Z</time></trkpt><trkpt lat="46.1412746" lon="13.5695265"><ele>575.0</ele><time>2026-05-02T07:16:54.162Z</time></trkpt><trkpt lat="46.1412781" lon="13.5696334"><ele>575.0</ele><time>2026-05-02T07:16:55.162Z</time></trkpt><trkpt lat="46.1412799" lon="13.5697391"><ele>575.0</ele><time>2026-05-02T07:16:56.155Z</time></trkpt><trkpt lat="46.1412709" lon="13.5698434"><ele>575.0</ele><time>2026-05-02T07:16:57.161Z</time></trkpt><trkpt lat="46.1412644" lon="13.5699447"><ele>575.0</ele><time>2026-05-02T07:16:58.154Z</time></trkpt><trkpt lat="46.1412704" lon="13.570038"><ele>575.0</ele><time>2026-05-02T07:16:59.162Z</time></trkpt><trkpt lat="46.1413064" lon="13.5702071"><ele>575.0</ele><time>2026-05-02T07:17:01.161Z</time></trkpt><trkpt lat="46.1414052" lon="13.5703171"><ele>575.0</ele><time>2026-05-02T07:17:03.16Z</time></trkpt><trkpt lat="46.1414798" lon="13.5703505"><ele>575.0</ele><time>2026-05-02T07:17:04.159Z</time></trkpt><trkpt lat="46.1415658" lon="13.5703642"><ele>575.0</ele><time>2026-05-02T07:17:05.147Z</time></trkpt><trkpt lat="46.1416572" lon="13.5703777"><ele>575.0</ele><time>2026-05-02T07:17:06.16Z</time></trkpt><trkpt lat="46.1417415" lon="13.5703834"><ele>575.0</ele><time>2026-05-02T07:17:07.155Z</time></trkpt><trkpt lat="46.1418345" lon="13.570397"><ele>575.0</ele><time>2026-05-02T07:17:08.156Z</time></trkpt><trkpt lat="46.1419347" lon="13.5704128"><ele>571.0</ele><time>2026-05-02T07:17:09.159Z</time></trkpt><trkpt lat="46.1420385" lon="13.5704379"><ele>567.0</ele><time>2026-05-02T07:17:10.167Z</time></trkpt><trkpt lat="46.1421307" lon="13.5704623"><ele>563.0</ele><time>2026-05-02T07:17:11.16Z</time></trkpt><trkpt lat="46.1422182" lon="13.5704913"><ele>559.0</ele><time>2026-05-02T07:17:12.156Z</time></trkpt><trkpt lat="46.142307" lon="13.5705109"><ele>555.0</ele><time>2026-05-02T07:17:13.161Z</time></trkpt><trkpt lat="46.1423988" lon="13.570522"><ele>550.0</ele><time>2026-05-02T07:17:14.159Z</time></trkpt><trkpt lat="46.1424803" lon="13.5705182"><ele>545.0</ele><time>2026-05-02T07:17:15.157Z</time></trkpt><trkpt lat="46.1425457" lon="13.5705252"><ele>540.0</ele><time>2026-05-02T07:17:16.184Z</time></trkpt><trkpt lat="46.1426539" lon="13.5705674"><ele>535.0</ele><time>2026-05-02T07:17:18.173Z</time></trkpt><trkpt lat="46.1426978" lon="13.5706576"><ele>530.0</ele><time>2026-05-02T07:17:20.161Z</time></trkpt><trkpt lat="46.1426742" lon="13.5708277"><ele>530.0</ele><time>2026-05-02T07:17:22.167Z</time></trkpt><trkpt lat="46.142649" lon="13.5709173"><ele>530.0</ele><time>2026-05-02T07:17:23.151Z</time></trkpt><trkpt lat="46.1426262" lon="13.5710066"><ele>530.0</ele><time>2026-05-02T07:17:24.165Z</time></trkpt><trkpt lat="46.1426079" lon="13.5711068"><ele>530.0</ele><time>2026-05-02T07:17:25.151Z</time></trkpt><trkpt lat="46.1425939" lon="13.5712139"><ele>530.0</ele><time>2026-05-02T07:17:26.157Z</time></trkpt><trkpt lat="46.1426123" lon="13.5713801"><ele>530.0</ele><time>2026-05-02T07:17:28.17Z</time></trkpt><trkpt lat="46.1426803" lon="13.5715043"><ele>531.8333333333333</ele><time>2026-05-02T07:17:30.147Z</time></trkpt><trkpt lat="46.1428086" lon="13.5715506"><ele>533.6666666666666</ele><time>2026-05-02T07:17:32.161Z</time></trkpt><trkpt lat="46.1428783" lon="13.5715527"><ele>535.5</ele><time>2026-05-02T07:17:33.154Z</time></trkpt><trkpt lat="46.1429492" lon="13.5715443"><ele>537.3333333333334</ele><time>2026-05-02T07:17:34.153Z</time></trkpt><trkpt lat="46.1430331" lon="13.5715416"><ele>539.1666666666667</ele><time>2026-05-02T07:17:35.162Z</time></trkpt><trkpt lat="46.1431021" lon="13.5715499"><ele>541.0</ele><time>2026-05-02T07:17:36.162Z</time></trkpt><trkpt lat="46.1431683" lon="13.5715821"><ele>538.6666666666667</ele><time>2026-05-02T07:17:37.153Z</time></trkpt><trkpt lat="46.1432404" lon="13.5716208"><ele>536.3333333333334</ele><time>2026-05-02T07:17:38.162Z</time></trkpt><trkpt lat="46.1433081" lon="13.5716539"><ele>534.0</ele><time>2026-05-02T07:17:39.154Z</time></trkpt><trkpt lat="46.1433876" lon="13.5716608"><ele>531.6666666666666</ele><time>2026-05-02T07:17:40.168Z</time></trkpt><trkpt lat="46.1434604" lon="13.5716258"><ele>529.3333333333333</ele><time>2026-05-02T07:17:41.162Z</time></trkpt><trkpt lat="46.1435343" lon="13.5715698"><ele>527.0</ele><time>2026-05-02T07:17:42.164Z</time></trkpt><trkpt lat="46.1436013" lon="13.5715167"><ele>527.0</ele><time>2026-05-02T07:17:43.153Z</time></trkpt><trkpt lat="46.1436753" lon="13.571475"><ele>527.0</ele><time>2026-05-02T07:17:44.154Z</time></trkpt><trkpt lat="46.1437565" lon="13.5714405"><ele>527.0</ele><time>2026-05-02T07:17:45.16Z</time></trkpt><trkpt lat="46.1438399" lon="13.5714193"><ele>527.0</ele><time>2026-05-02T07:17:46.155Z</time></trkpt><trkpt lat="46.143921" lon="13.5714017"><ele>527.0</ele><time>2026-05-02T07:17:47.15Z</time></trkpt><trkpt lat="46.144008" lon="13.5713834"><ele>527.0</ele><time>2026-05-02T07:17:48.163Z</time></trkpt><trkpt lat="46.1440966" lon="13.5713716"><ele>527.0</ele><time>2026-05-02T07:17:49.157Z</time></trkpt><trkpt lat="46.144188" lon="13.5713677"><ele>527.0</ele><time>2026-05-02T07:17:50.153Z</time></trkpt><trkpt lat="46.1442837" lon="13.5713672"><ele>527.0</ele><time>2026-05-02T07:17:51.148Z</time></trkpt><trkpt lat="46.1443672" lon="13.5713659"><ele>527.0</ele><time>2026-05-02T07:17:52.154Z</time></trkpt><trkpt lat="46.1444514" lon="13.5713399"><ele>527.0</ele><time>2026-05-02T07:17:53.146Z</time></trkpt><trkpt lat="46.1445231" lon="13.571294"><ele>527.0</ele><time>2026-05-02T07:17:54.15Z</time></trkpt><trkpt lat="46.1446022" lon="13.5712705"><ele>527.0000000000001</ele><time>2026-05-02T07:17:55.149Z</time></trkpt><trkpt lat="46.1446667" lon="13.5712554"><ele>527.0</ele><time>2026-05-02T07:17:56.166Z</time></trkpt><trkpt lat="46.1447375" lon="13.571246"><ele>527.0</ele><time>2026-05-02T07:17:57.163Z</time></trkpt><trkpt lat="46.1448119" lon="13.5712356"><ele>527.0</ele><time>2026-05-02T07:17:58.153Z</time></trkpt><trkpt lat="46.1448845" lon="13.5712396"><ele>527.0</ele><time>2026-05-02T07:17:59.157Z</time></trkpt><trkpt lat="46.1449572" lon="13.5712466"><ele>527.0000000000001</ele><time>2026-05-02T07:18:00.155Z</time></trkpt><trkpt lat="46.1450271" lon="13.5712631"><ele>527.0</ele><time>2026-05-02T07:18:01.154Z</time></trkpt><trkpt lat="46.1451302" lon="13.5713402"><ele>523.2</ele><time>2026-05-02T07:18:03.163Z</time></trkpt><trkpt lat="46.1451924" lon="13.5714724"><ele>519.4000000000001</ele><time>2026-05-02T07:18:05.169Z</time></trkpt><trkpt lat="46.1451897" lon="13.5716349"><ele>515.5999999999999</ele><time>2026-05-02T07:18:07.167Z</time></trkpt><trkpt lat="46.145181" lon="13.5717359"><ele>511.79999999999995</ele><time>2026-05-02T07:18:08.157Z</time></trkpt><trkpt lat="46.1451785" lon="13.5718524"><ele>508.0</ele><time>2026-05-02T07:18:09.159Z</time></trkpt><trkpt lat="46.1451643" lon="13.5719744"><ele>508.00000000000006</ele><time>2026-05-02T07:18:10.162Z</time></trkpt><trkpt lat="46.1451431" lon="13.5720955"><ele>508.0</ele><time>2026-05-02T07:18:11.181Z</time></trkpt><trkpt lat="46.145121" lon="13.5722037"><ele>508.0</ele><time>2026-05-02T07:18:12.164Z</time></trkpt><trkpt lat="46.1451028" lon="13.5723059"><ele>508.0</ele><time>2026-05-02T07:18:13.162Z</time></trkpt><trkpt lat="46.1450785" lon="13.5723929"><ele>508.00000000000006</ele><time>2026-05-02T07:18:14.172Z</time></trkpt><trkpt lat="46.1450248" lon="13.5725142"><ele>508.0</ele><time>2026-05-02T07:18:16.168Z</time></trkpt><trkpt lat="46.1449878" lon="13.5725897"><ele>508.0</ele><time>2026-05-02T07:18:18.171Z</time></trkpt><trkpt lat="46.1449334" lon="13.5727028"><ele>507.99999999999994</ele><time>2026-05-02T07:18:24.156Z</time></trkpt><trkpt lat="46.1448679" lon="13.5728323"><ele>507.99999999999994</ele><time>2026-05-02T07:18:26.171Z</time></trkpt><trkpt lat="46.144819" lon="13.5729709"><ele>508.0</ele><time>2026-05-02T07:18:28.166Z</time></trkpt><trkpt lat="46.1448067" lon="13.5731429"><ele>508.0</ele><time>2026-05-02T07:18:30.172Z</time></trkpt><trkpt lat="46.1448223" lon="13.5732398"><ele>505.50000000000006</ele><time>2026-05-02T07:18:31.165Z</time></trkpt><trkpt lat="46.1448573" lon="13.5733414"><ele>503.0</ele><time>2026-05-02T07:18:32.17Z</time></trkpt><trkpt lat="46.144898" lon="13.5734396"><ele>500.5</ele><time>2026-05-02T07:18:33.154Z</time></trkpt><trkpt lat="46.1449416" lon="13.5735381"><ele>498.0</ele><time>2026-05-02T07:18:34.179Z</time></trkpt><trkpt lat="46.1449774" lon="13.5736351"><ele>495.50000000000006</ele><time>2026-05-02T07:18:35.158Z</time></trkpt><trkpt lat="46.1450074" lon="13.5737315"><ele>493.0</ele><time>2026-05-02T07:18:36.167Z</time></trkpt><trkpt lat="46.1450227" lon="13.5738315"><ele>491.0</ele><time>2026-05-02T07:18:37.174Z</time></trkpt><trkpt lat="46.1450231" lon="13.5739292"><ele>489.0</ele><time>2026-05-02T07:18:38.175Z</time></trkpt><trkpt lat="46.1450173" lon="13.5740251"><ele>487.0</ele><time>2026-05-02T07:18:39.174Z</time></trkpt><trkpt lat="46.1449975" lon="13.5741251"><ele>485.0</ele><time>2026-05-02T07:18:40.178Z</time></trkpt><trkpt lat="46.1449554" lon="13.5742247"><ele>483.0</ele><time>2026-05-02T07:18:41.181Z</time></trkpt><trkpt lat="46.1449112" lon="13.5743181"><ele>481.0</ele><time>2026-05-02T07:18:42.173Z</time></trkpt><trkpt lat="46.1448672" lon="13.5744088"><ele>479.0</ele><time>2026-05-02T07:18:43.157Z</time></trkpt><trkpt lat="46.1448164" lon="13.5744867"><ele>482.4</ele><time>2026-05-02T07:18:44.17Z</time></trkpt><trkpt lat="46.1447674" lon="13.5745522"><ele>485.79999999999995</ele><time>2026-05-02T07:18:45.157Z</time></trkpt><trkpt lat="46.1447195" lon="13.5746145"><ele>489.20000000000005</ele><time>2026-05-02T07:18:46.159Z</time></trkpt><trkpt lat="46.1446581" lon="13.5747293"><ele>492.6</ele><time>2026-05-02T07:18:48.162Z</time></trkpt><trkpt lat="46.1446483" lon="13.5748693"><ele>496.0</ele><time>2026-05-02T07:18:51.143Z</time></trkpt><trkpt lat="46.1446723" lon="13.5750478"><ele>496.00000000000006</ele><time>2026-05-02T07:18:53.152Z</time></trkpt><trkpt lat="46.1446831" lon="13.5751473"><ele>496.0</ele><time>2026-05-02T07:18:54.144Z</time></trkpt><trkpt lat="46.1446839" lon="13.5752497"><ele>496.0</ele><time>2026-05-02T07:18:55.148Z</time></trkpt><trkpt lat="46.1446753" lon="13.5753506"><ele>496.0</ele><time>2026-05-02T07:18:56.163Z</time></trkpt><trkpt lat="46.1446566" lon="13.5754455"><ele>496.00000000000006</ele><time>2026-05-02T07:18:57.157Z</time></trkpt><trkpt lat="46.1445798" lon="13.5755821"><ele>496.0</ele><time>2026-05-02T07:18:59.15Z</time></trkpt><trkpt lat="46.1445182" lon="13.5756379"><ele>490.6</ele><time>2026-05-02T07:19:00.153Z</time></trkpt><trkpt lat="46.1444431" lon="13.5756886"><ele>485.20000000000005</ele><time>2026-05-02T07:19:01.147Z</time></trkpt><trkpt lat="46.1443581" lon="13.5757274"><ele>479.79999999999995</ele><time>2026-05-02T07:19:02.16Z</time></trkpt><trkpt lat="46.1442578" lon="13.5757541"><ele>474.4</ele><time>2026-05-02T07:19:03.183Z</time></trkpt><trkpt lat="46.1441608" lon="13.5757767"><ele>469.0</ele><time>2026-05-02T07:19:04.153Z</time></trkpt><trkpt lat="46.1440731" lon="13.5758099"><ele>473.50000000000006</ele><time>2026-05-02T07:19:05.151Z</time></trkpt><trkpt lat="46.1439882" lon="13.5758552"><ele>478.0</ele><time>2026-05-02T07:19:06.15Z</time></trkpt><trkpt lat="46.1439097" lon="13.5758946"><ele>482.5</ele><time>2026-05-02T07:19:07.16Z</time></trkpt><trkpt lat="46.1438349" lon="13.5759286"><ele>487.0</ele><time>2026-05-02T07:19:08.154Z</time></trkpt><trkpt lat="46.1437639" lon="13.5759676"><ele>491.50000000000006</ele><time>2026-05-02T07:19:09.171Z</time></trkpt><trkpt lat="46.1437024" lon="13.5759979"><ele>496.0</ele><time>2026-05-02T07:19:10.151Z</time></trkpt><trkpt lat="46.1436204" lon="13.5760844"><ele>496.0</ele><time>2026-05-02T07:19:12.147Z</time></trkpt><trkpt lat="46.1436006" lon="13.5761817"><ele>496.0</ele><time>2026-05-02T07:19:14.141Z</time></trkpt><trkpt lat="46.1436407" lon="13.5763118"><ele>496.0</ele><time>2026-05-02T07:19:17.143Z</time></trkpt><trkpt lat="46.1437676" lon="13.5764327"><ele>496.0</ele><time>2026-05-02T07:19:19.155Z</time></trkpt><trkpt lat="46.1438497" lon="13.5765148"><ele>496.0</ele><time>2026-05-02T07:19:20.162Z</time></trkpt><trkpt lat="46.1439259" lon="13.5766079"><ele>495.8</ele><time>2026-05-02T07:19:21.155Z</time></trkpt><trkpt lat="46.1440016" lon="13.5767103"><ele>495.6</ele><time>2026-05-02T07:19:22.151Z</time></trkpt><trkpt lat="46.144075" lon="13.5768017"><ele>495.4</ele><time>2026-05-02T07:19:23.146Z</time></trkpt><trkpt lat="46.1441346" lon="13.5769025"><ele>495.2</ele><time>2026-05-02T07:19:24.156Z</time></trkpt><trkpt lat="46.1441906" lon="13.576996"><ele>495.0</ele><time>2026-05-02T07:19:25.15Z</time></trkpt><trkpt lat="46.1442339" lon="13.5770954"><ele>489.0</ele><time>2026-05-02T07:19:26.152Z</time></trkpt><trkpt lat="46.1442683" lon="13.5771888"><ele>483.0</ele><time>2026-05-02T07:19:27.145Z</time></trkpt><trkpt lat="46.1442986" lon="13.5772853"><ele>477.0</ele><time>2026-05-02T07:19:28.153Z</time></trkpt><trkpt lat="46.1443223" lon="13.5773705"><ele>471.0</ele><time>2026-05-02T07:19:29.157Z</time></trkpt><trkpt lat="46.1443206" lon="13.5775383"><ele>465.0</ele><time>2026-05-02T07:19:31.162Z</time></trkpt><trkpt lat="46.1442852" lon="13.577637"><ele>459.0</ele><time>2026-05-02T07:19:32.144Z</time></trkpt><trkpt lat="46.1442473" lon="13.5777399"><ele>459.0</ele><time>2026-05-02T07:19:33.144Z</time></trkpt><trkpt lat="46.1442042" lon="13.5778315"><ele>459.0</ele><time>2026-05-02T07:19:34.158Z</time></trkpt><trkpt lat="46.1441615" lon="13.5779211"><ele>459.0</ele><time>2026-05-02T07:19:35.147Z</time></trkpt><trkpt lat="46.1441256" lon="13.5780116"><ele>459.0</ele><time>2026-05-02T07:19:36.154Z</time></trkpt><trkpt lat="46.1440891" lon="13.5780891"><ele>459.0</ele><time>2026-05-02T07:19:37.153Z</time></trkpt><trkpt lat="46.1440182" lon="13.5782193"><ele>459.0</ele><time>2026-05-02T07:19:39.152Z</time></trkpt><trkpt lat="46.1440054" lon="13.5783478"><ele>458.6</ele><time>2026-05-02T07:19:41.156Z</time></trkpt><trkpt lat="46.1440786" lon="13.5784143"><ele>458.2</ele><time>2026-05-02T07:19:43.151Z</time></trkpt><trkpt lat="46.1441583" lon="13.5784516"><ele>457.80000000000007</ele><time>2026-05-02T07:19:45.159Z</time></trkpt><trkpt lat="46.1442541" lon="13.5784634"><ele>457.40000000000003</ele><time>2026-05-02T07:19:48.15Z</time></trkpt><trkpt lat="46.144329" lon="13.5784694"><ele>457.0</ele><time>2026-05-02T07:19:50.149Z</time></trkpt><trkpt lat="46.144441" lon="13.5784893"><ele>457.00000000000006</ele><time>2026-05-02T07:19:52.156Z</time></trkpt><trkpt lat="46.1445083" lon="13.5784981"><ele>457.0</ele><time>2026-05-02T07:19:53.156Z</time></trkpt><trkpt lat="46.1445777" lon="13.5785051"><ele>457.00000000000006</ele><time>2026-05-02T07:19:54.147Z</time></trkpt><trkpt lat="46.1446543" lon="13.5785072"><ele>457.00000000000006</ele><time>2026-05-02T07:19:55.161Z</time></trkpt><trkpt lat="46.144728" lon="13.5784998"><ele>457.0</ele><time>2026-05-02T07:19:56.167Z</time></trkpt><trkpt lat="46.144804" lon="13.5784934"><ele>457.00000000000006</ele><time>2026-05-02T07:19:57.146Z</time></trkpt><trkpt lat="46.1448772" lon="13.5784888"><ele>457.00000000000006</ele><time>2026-05-02T07:19:58.161Z</time></trkpt><trkpt lat="46.1449949" lon="13.5785015"><ele>455.83333333333337</ele><time>2026-05-02T07:20:00.157Z</time></trkpt><trkpt lat="46.1450547" lon="13.578557"><ele>454.6666666666667</ele><time>2026-05-02T07:20:01.155Z</time></trkpt><trkpt lat="46.1451303" lon="13.5786515"><ele>453.5</ele><time>2026-05-02T07:20:03.149Z</time></trkpt><trkpt lat="46.1452256" lon="13.5787537"><ele>452.33333333333337</ele><time>2026-05-02T07:20:05.151Z</time></trkpt><trkpt lat="46.1452889" lon="13.5788017"><ele>451.1666666666667</ele><time>2026-05-02T07:20:06.165Z</time></trkpt><trkpt lat="46.145354" lon="13.5788623"><ele>450.0</ele><time>2026-05-02T07:20:07.15Z</time></trkpt><trkpt lat="46.1454055" lon="13.578935"><ele>450.0</ele><time>2026-05-02T07:20:08.182Z</time></trkpt><trkpt lat="46.1454682" lon="13.5790511"><ele>450.0</ele><time>2026-05-02T07:20:10.139Z</time></trkpt><trkpt lat="46.1454505" lon="13.579217"><ele>450.0</ele><time>2026-05-02T07:20:12.159Z</time></trkpt><trkpt lat="46.1454333" lon="13.5793171"><ele>450.0</ele><time>2026-05-02T07:20:13.153Z</time></trkpt><trkpt lat="46.1454258" lon="13.5794192"><ele>450.0</ele><time>2026-05-02T07:20:14.154Z</time></trkpt><trkpt lat="46.1454359" lon="13.5795937"><ele>447.5</ele><time>2026-05-02T07:20:16.161Z</time></trkpt><trkpt lat="46.1454666" lon="13.5796745"><ele>445.0</ele><time>2026-05-02T07:20:17.159Z</time></trkpt><trkpt lat="46.1455267" lon="13.5798092"><ele>442.5</ele><time>2026-05-02T07:20:19.15Z</time></trkpt><trkpt lat="46.1455971" lon="13.5798826"><ele>440.0</ele><time>2026-05-02T07:20:21.151Z</time></trkpt><trkpt lat="46.1456786" lon="13.5799096"><ele>437.5</ele><time>2026-05-02T07:20:23.146Z</time></trkpt><trkpt lat="46.1457673" lon="13.5798594"><ele>435.0</ele><time>2026-05-02T07:20:25.137Z</time></trkpt><trkpt lat="46.145826" lon="13.5798165"><ele>435.0</ele><time>2026-05-02T07:20:26.149Z</time></trkpt><trkpt lat="46.1458896" lon="13.5797696"><ele>435.0</ele><time>2026-05-02T07:20:27.15Z</time></trkpt><trkpt lat="46.1459533" lon="13.5797275"><ele>435.0</ele><time>2026-05-02T07:20:28.147Z</time></trkpt><trkpt lat="46.1460082" lon="13.579673"><ele>435.0</ele><time>2026-05-02T07:20:29.142Z</time></trkpt><trkpt lat="46.1460655" lon="13.5795249"><ele>435.0</ele><time>2026-05-02T07:20:31.148Z</time></trkpt><trkpt lat="46.1461494" lon="13.5794026"><ele>435.0</ele><time>2026-05-02T07:20:33.146Z</time></trkpt><trkpt lat="46.146255" lon="13.5792783"><ele>434.42857142857144</ele><time>2026-05-02T07:20:35.148Z</time></trkpt><trkpt lat="46.146318" lon="13.5792166"><ele>433.8571428571429</ele><time>2026-05-02T07:20:36.155Z</time></trkpt><trkpt lat="46.1463802" lon="13.5791665"><ele>433.28571428571433</ele><time>2026-05-02T07:20:37.14Z</time></trkpt><trkpt lat="46.1464354" lon="13.5791068"><ele>432.7142857142857</ele><time>2026-05-02T07:20:38.194Z</time></trkpt><trkpt lat="46.1464812" lon="13.5790282"><ele>432.1428571428571</ele><time>2026-05-02T07:20:39.149Z</time></trkpt><trkpt lat="46.1465195" lon="13.5789419"><ele>431.5714285714286</ele><time>2026-05-02T07:20:40.154Z</time></trkpt><trkpt lat="46.1465517" lon="13.5788497"><ele>431.0</ele><time>2026-05-02T07:20:41.15Z</time></trkpt><trkpt lat="46.1465949" lon="13.5787559"><ele>426.8571428571429</ele><time>2026-05-02T07:20:42.174Z</time></trkpt><trkpt lat="46.1466427" lon="13.5786804"><ele>422.71428571428567</ele><time>2026-05-02T07:20:43.148Z</time></trkpt><trkpt lat="46.1466985" lon="13.5786106"><ele>418.57142857142856</ele><time>2026-05-02T07:20:44.157Z</time></trkpt><trkpt lat="46.1467539" lon="13.5785486"><ele>414.42857142857144</ele><time>2026-05-02T07:20:45.159Z</time></trkpt><trkpt lat="46.1468132" lon="13.5785016"><ele>410.28571428571433</ele><time>2026-05-02T07:20:46.164Z</time></trkpt><trkpt lat="46.1468775" lon="13.5784676"><ele>406.1428571428571</ele><time>2026-05-02T07:20:47.177Z</time></trkpt><trkpt lat="46.146936" lon="13.5784318"><ele>402.0</ele><time>2026-05-02T07:20:48.162Z</time></trkpt><trkpt lat="46.1469904" lon="13.5783782"><ele>402.0</ele><time>2026-05-02T07:20:49.162Z</time></trkpt><trkpt lat="46.1470411" lon="13.578315"><ele>402.0</ele><time>2026-05-02T07:20:50.155Z</time></trkpt><trkpt lat="46.147093" lon="13.5782443"><ele>402.0</ele><time>2026-05-02T07:20:51.16Z</time></trkpt><trkpt lat="46.1471409" lon="13.5781745"><ele>402.0</ele><time>2026-05-02T07:20:52.149Z</time></trkpt><trkpt lat="46.1471898" lon="13.5780913"><ele>402.0</ele><time>2026-05-02T07:20:53.129Z</time></trkpt><trkpt lat="46.1472445" lon="13.5780018"><ele>402.0</ele><time>2026-05-02T07:20:54.149Z</time></trkpt><trkpt lat="46.1473081" lon="13.5779166"><ele>401.6666666666667</ele><time>2026-05-02T07:20:55.187Z</time></trkpt><trkpt lat="46.1473679" lon="13.5778294"><ele>401.33333333333337</ele><time>2026-05-02T07:20:56.14Z</time></trkpt><trkpt lat="46.1474244" lon="13.577745"><ele>401.0</ele><time>2026-05-02T07:20:57.163Z</time></trkpt><trkpt lat="46.1474749" lon="13.5776761"><ele>400.6666666666667</ele><time>2026-05-02T07:20:58.147Z</time></trkpt><trkpt lat="46.1475238" lon="13.577611"><ele>400.33333333333337</ele><time>2026-05-02T07:20:59.141Z</time></trkpt><trkpt lat="46.1476196" lon="13.5775251"><ele>400.0</ele><time>2026-05-02T07:21:01.16Z</time></trkpt><trkpt lat="46.1477117" lon="13.5775134"><ele>400.00000000000006</ele><time>2026-05-02T07:21:03.142Z</time></trkpt><trkpt lat="46.1478173" lon="13.5774864"><ele>400.0</ele><time>2026-05-02T07:21:05.149Z</time></trkpt><trkpt lat="46.1478762" lon="13.5774338"><ele>400.0</ele><time>2026-05-02T07:21:06.168Z</time></trkpt><trkpt lat="46.1479425" lon="13.5773667"><ele>400.0</ele><time>2026-05-02T07:21:07.15Z</time></trkpt><trkpt lat="46.1479986" lon="13.5772751"><ele>400.00000000000006</ele><time>2026-05-02T07:21:08.147Z</time></trkpt><trkpt lat="46.1480531" lon="13.5771862"><ele>400.0</ele><time>2026-05-02T07:21:09.145Z</time></trkpt><trkpt lat="46.1481027" lon="13.5770969"><ele>398.7142857142857</ele><time>2026-05-02T07:21:10.157Z</time></trkpt><trkpt lat="46.1481486" lon="13.5770079"><ele>397.42857142857144</ele><time>2026-05-02T07:21:11.159Z</time></trkpt><trkpt lat="46.1482003" lon="13.5769352"><ele>396.1428571428571</ele><time>2026-05-02T07:21:12.148Z</time></trkpt><trkpt lat="46.1482563" lon="13.5768783"><ele>394.8571428571429</ele><time>2026-05-02T07:21:13.149Z</time></trkpt><trkpt lat="46.1483272" lon="13.5768365"><ele>393.57142857142856</ele><time>2026-05-02T07:21:14.157Z</time></trkpt><trkpt lat="46.1483951" lon="13.5767941"><ele>392.2857142857143</ele><time>2026-05-02T07:21:15.146Z</time></trkpt><trkpt lat="46.1484689" lon="13.5767673"><ele>391.0</ele><time>2026-05-02T07:21:16.148Z</time></trkpt><trkpt lat="46.1485516" lon="13.5767468"><ele>390.99999999999994</ele><time>2026-05-02T07:21:17.15Z</time></trkpt><trkpt lat="46.1486314" lon="13.5767264"><ele>391.0</ele><time>2026-05-02T07:21:18.149Z</time></trkpt><trkpt lat="46.1487033" lon="13.5767055"><ele>391.0</ele><time>2026-05-02T07:21:19.153Z</time></trkpt><trkpt lat="46.148772" lon="13.5766665"><ele>391.0</ele><time>2026-05-02T07:21:20.162Z</time></trkpt><trkpt lat="46.1488369" lon="13.57661"><ele>391.0</ele><time>2026-05-02T07:21:21.152Z</time></trkpt><trkpt lat="46.1488976" lon="13.5765463"><ele>390.99999999999994</ele><time>2026-05-02T07:21:22.151Z</time></trkpt><trkpt lat="46.1489509" lon="13.5764955"><ele>391.0</ele><time>2026-05-02T07:21:23.15Z</time></trkpt><trkpt lat="46.1490541" lon="13.5764492"><ele>391.1666666666667</ele><time>2026-05-02T07:21:25.158Z</time></trkpt><trkpt lat="46.1491344" lon="13.5765359"><ele>391.33333333333337</ele><time>2026-05-02T07:21:27.144Z</time></trkpt><trkpt lat="46.1491784" lon="13.5766201"><ele>391.5</ele><time>2026-05-02T07:21:28.148Z</time></trkpt><trkpt lat="46.1492115" lon="13.5767164"><ele>391.66666666666663</ele><time>2026-05-02T07:21:29.151Z</time></trkpt><trkpt lat="46.1492357" lon="13.576826"><ele>391.8333333333333</ele><time>2026-05-02T07:21:30.144Z</time></trkpt><trkpt lat="46.1492524" lon="13.5769569"><ele>392.0</ele><time>2026-05-02T07:21:31.148Z</time></trkpt><trkpt lat="46.1492664" lon="13.5770912"><ele>395.16666666666663</ele><time>2026-05-02T07:21:32.159Z</time></trkpt><trkpt lat="46.149276" lon="13.5772249"><ele>398.3333333333333</ele><time>2026-05-02T07:21:33.15Z</time></trkpt><trkpt lat="46.1492822" lon="13.5773557"><ele>401.5</ele><time>2026-05-02T07:21:34.167Z</time></trkpt><trkpt lat="46.1492887" lon="13.5774797"><ele>404.66666666666663</ele><time>2026-05-02T07:21:35.143Z</time></trkpt><trkpt lat="46.1492959" lon="13.5775788"><ele>407.8333333333333</ele><time>2026-05-02T07:21:36.164Z</time></trkpt><trkpt lat="46.1493377" lon="13.5776734"><ele>411.0</ele><time>2026-05-02T07:21:38.157Z</time></trkpt><trkpt lat="46.1494393" lon="13.5777228"><ele>411.0</ele><time>2026-05-02T07:21:40.169Z</time></trkpt><trkpt lat="46.149506" lon="13.5777345"><ele>411.0</ele><time>2026-05-02T07:21:41.148Z</time></trkpt><trkpt lat="46.149586" lon="13.5777344"><ele>411.0</ele><time>2026-05-02T07:21:42.149Z</time></trkpt><trkpt lat="46.1496647" lon="13.5777245"><ele>411.0</ele><time>2026-05-02T07:21:43.139Z</time></trkpt><trkpt lat="46.1497379" lon="13.5777009"><ele>411.0</ele><time>2026-05-02T07:21:44.153Z</time></trkpt><trkpt lat="46.1498092" lon="13.5776784"><ele>411.0</ele><time>2026-05-02T07:21:45.156Z</time></trkpt><trkpt lat="46.1498782" lon="13.5776676"><ele>411.0</ele><time>2026-05-02T07:21:46.162Z</time></trkpt><trkpt lat="46.1499953" lon="13.5777074"><ele>406.8333333333333</ele><time>2026-05-02T07:21:48.17Z</time></trkpt><trkpt lat="46.1500574" lon="13.5778164"><ele>402.66666666666663</ele><time>2026-05-02T07:21:50.162Z</time></trkpt><trkpt lat="46.1501501" lon="13.5778384"><ele>398.5</ele><time>2026-05-02T07:21:52.157Z</time></trkpt><trkpt lat="46.1502597" lon="13.5777912"><ele>394.3333333333333</ele><time>2026-05-02T07:21:54.163Z</time></trkpt><trkpt lat="46.1503217" lon="13.5777558"><ele>390.16666666666663</ele><time>2026-05-02T07:21:55.15Z</time></trkpt><trkpt lat="46.1503821" lon="13.5777261"><ele>386.0</ele><time>2026-05-02T07:21:56.168Z</time></trkpt><trkpt lat="46.1504865" lon="13.5777169"><ele>386.0</ele><time>2026-05-02T07:21:58.161Z</time></trkpt><trkpt lat="46.1505506" lon="13.5778274"><ele>386.0</ele><time>2026-05-02T07:22:00.142Z</time></trkpt><trkpt lat="46.1506035" lon="13.5779517"><ele>386.0</ele><time>2026-05-02T07:22:02.161Z</time></trkpt><trkpt lat="46.1506916" lon="13.5780011"><ele>386.0</ele><time>2026-05-02T07:22:04.151Z</time></trkpt><trkpt lat="46.1507975" lon="13.5779775"><ele>386.0</ele><time>2026-05-02T07:22:06.159Z</time></trkpt><trkpt lat="46.1508934" lon="13.5779301"><ele>389.20000000000005</ele><time>2026-05-02T07:22:08.156Z</time></trkpt><trkpt lat="46.150983" lon="13.577905"><ele>392.40000000000003</ele><time>2026-05-02T07:22:10.148Z</time></trkpt><trkpt lat="46.1510706" lon="13.5779703"><ele>395.6</ele><time>2026-05-02T07:22:12.152Z</time></trkpt><trkpt lat="46.1511123" lon="13.5780912"><ele>398.8</ele><time>2026-05-02T07:22:14.156Z</time></trkpt><trkpt lat="46.151141" lon="13.5782492"><ele>402.0</ele><time>2026-05-02T07:22:16.166Z</time></trkpt><trkpt lat="46.1512066" lon="13.578371"><ele>402.0</ele><time>2026-05-02T07:22:18.157Z</time></trkpt><trkpt lat="46.151302" lon="13.5784355"><ele>402.0</ele><time>2026-05-02T07:22:20.151Z</time></trkpt><trkpt lat="46.1514043" lon="13.5784483"><ele>402.0</ele><time>2026-05-02T07:22:22.161Z</time></trkpt><trkpt lat="46.1515046" lon="13.578436"><ele>402.0</ele><time>2026-05-02T07:22:24.172Z</time></trkpt><trkpt lat="46.1515869" lon="13.5784248"><ele>402.0</ele><time>2026-05-02T07:22:26.162Z</time></trkpt><trkpt lat="46.1516597" lon="13.5783846"><ele>398.40000000000003</ele><time>2026-05-02T07:22:29.163Z</time></trkpt><trkpt lat="46.1517301" lon="13.578357"><ele>394.8</ele><time>2026-05-02T07:22:31.158Z</time></trkpt><trkpt lat="46.151819" lon="13.5783841"><ele>391.2</ele><time>2026-05-02T07:22:33.157Z</time></trkpt><trkpt lat="46.1518832" lon="13.5785028"><ele>387.6</ele><time>2026-05-02T07:22:35.163Z</time></trkpt><trkpt lat="46.1518929" lon="13.5786547"><ele>384.0</ele><time>2026-05-02T07:22:37.163Z</time></trkpt><trkpt lat="46.1518683" lon="13.5788129"><ele>384.0</ele><time>2026-05-02T07:22:39.147Z</time></trkpt><trkpt lat="46.1518106" lon="13.5789721"><ele>384.0</ele><time>2026-05-02T07:22:41.165Z</time></trkpt><trkpt lat="46.151774" lon="13.5790529"><ele>384.0</ele><time>2026-05-02T07:22:42.17Z</time></trkpt><trkpt lat="46.1517287" lon="13.5791237"><ele>384.0</ele><time>2026-05-02T07:22:43.168Z</time></trkpt><trkpt lat="46.1516737" lon="13.5791946"><ele>384.0</ele><time>2026-05-02T07:22:44.156Z</time></trkpt><trkpt lat="46.1516155" lon="13.5792683"><ele>384.0</ele><time>2026-05-02T07:22:45.155Z</time></trkpt><trkpt lat="46.1515682" lon="13.5793397"><ele>385.4</ele><time>2026-05-02T07:22:46.17Z</time></trkpt><trkpt lat="46.1515184" lon="13.5795045"><ele>386.79999999999995</ele><time>2026-05-02T07:22:48.172Z</time></trkpt><trkpt lat="46.1514928" lon="13.5796766"><ele>388.20000000000005</ele><time>2026-05-02T07:22:50.159Z</time></trkpt><trkpt lat="46.1514793" lon="13.5798234"><ele>389.6</ele><time>2026-05-02T07:22:52.155Z</time></trkpt><trkpt lat="46.1515476" lon="13.5798986"><ele>391.0</ele><time>2026-05-02T07:22:54.157Z</time></trkpt><trkpt lat="46.1516569" lon="13.5799644"><ele>391.00000000000006</ele><time>2026-05-02T07:22:56.147Z</time></trkpt><trkpt lat="46.1517625" lon="13.5800605"><ele>391.0</ele><time>2026-05-02T07:22:58.163Z</time></trkpt><trkpt lat="46.1518167" lon="13.5801135"><ele>391.0</ele><time>2026-05-02T07:22:59.154Z</time></trkpt><trkpt lat="46.1518772" lon="13.5801674"><ele>391.0</ele><time>2026-05-02T07:23:00.158Z</time></trkpt><trkpt lat="46.1519402" lon="13.580219"><ele>391.00000000000006</ele><time>2026-05-02T07:23:01.154Z</time></trkpt><trkpt lat="46.1520053" lon="13.5802811"><ele>391.0</ele><time>2026-05-02T07:23:02.159Z</time></trkpt><trkpt lat="46.1520579" lon="13.5803446"><ele>395.4</ele><time>2026-05-02T07:23:03.147Z</time></trkpt><trkpt lat="46.1520898" lon="13.5804264"><ele>399.8</ele><time>2026-05-02T07:23:04.166Z</time></trkpt><trkpt lat="46.1521328" lon="13.5805784"><ele>404.2</ele><time>2026-05-02T07:23:06.155Z</time></trkpt><trkpt lat="46.1522259" lon="13.5806814"><ele>408.59999999999997</ele><time>2026-05-02T07:23:08.157Z</time></trkpt><trkpt lat="46.152298" lon="13.5807209"><ele>413.0</ele><time>2026-05-02T07:23:09.145Z</time></trkpt><trkpt lat="46.1523702" lon="13.5807637"><ele>404.2</ele><time>2026-05-02T07:23:10.15Z</time></trkpt><trkpt lat="46.1524497" lon="13.5808096"><ele>395.4</ele><time>2026-05-02T07:23:11.144Z</time></trkpt><trkpt lat="46.1525115" lon="13.5808324"><ele>386.59999999999997</ele><time>2026-05-02T07:23:12.17Z</time></trkpt><trkpt lat="46.1525983" lon="13.5809104"><ele>377.79999999999995</ele><time>2026-05-02T07:23:14.151Z</time></trkpt><trkpt lat="46.1525987" lon="13.5810213"><ele>369.0</ele><time>2026-05-02T07:23:16.155Z</time></trkpt><trkpt lat="46.1525256" lon="13.5811792"><ele>368.0</ele><time>2026-05-02T07:23:18.161Z</time></trkpt><trkpt lat="46.1524685" lon="13.5812699"><ele>367.0</ele><time>2026-05-02T07:23:19.156Z</time></trkpt><trkpt lat="46.1524062" lon="13.5813534"><ele>366.0</ele><time>2026-05-02T07:23:20.146Z</time></trkpt><trkpt lat="46.1523371" lon="13.5814525"><ele>365.0</ele><time>2026-05-02T07:23:21.15Z</time></trkpt><trkpt lat="46.1522642" lon="13.5815545"><ele>364.0</ele><time>2026-05-02T07:23:22.146Z</time></trkpt><trkpt lat="46.1522035" lon="13.5816594"><ele>374.2</ele><time>2026-05-02T07:23:23.152Z</time></trkpt><trkpt lat="46.1521577" lon="13.5817575"><ele>384.4</ele><time>2026-05-02T07:23:24.16Z</time></trkpt><trkpt lat="46.1521293" lon="13.5818524"><ele>394.6</ele><time>2026-05-02T07:23:25.155Z</time></trkpt><trkpt lat="46.1521055" lon="13.5820154"><ele>404.8</ele><time>2026-05-02T07:23:27.156Z</time></trkpt><trkpt lat="46.1521568" lon="13.5821418"><ele>415.0</ele><time>2026-05-02T07:23:29.146Z</time></trkpt><trkpt lat="46.152227" lon="13.5822422"><ele>415.33333333333337</ele><time>2026-05-02T07:23:31.152Z</time></trkpt><trkpt lat="46.1522941" lon="13.5823959"><ele>415.6666666666667</ele><time>2026-05-02T07:23:33.157Z</time></trkpt><trkpt lat="46.1523094" lon="13.5824927"><ele>416.0</ele><time>2026-05-02T07:23:34.159Z</time></trkpt><trkpt lat="46.1523114" lon="13.5825868"><ele>416.33333333333337</ele><time>2026-05-02T07:23:35.159Z</time></trkpt><trkpt lat="46.152308" lon="13.5826875"><ele>416.6666666666667</ele><time>2026-05-02T07:23:36.152Z</time></trkpt><trkpt lat="46.1523098" lon="13.5827806"><ele>417.0</ele><time>2026-05-02T07:23:37.142Z</time></trkpt><trkpt lat="46.1523625" lon="13.5828658"><ele>413.1666666666667</ele><time>2026-05-02T07:23:39.156Z</time></trkpt><trkpt lat="46.1524866" lon="13.5829099"><ele>409.33333333333337</ele><time>2026-05-02T07:23:41.144Z</time></trkpt><trkpt lat="46.1525518" lon="13.5829519"><ele>405.5</ele><time>2026-05-02T07:23:42.148Z</time></trkpt><trkpt lat="46.1526214" lon="13.5829992"><ele>401.6666666666667</ele><time>2026-05-02T07:23:43.156Z</time></trkpt><trkpt lat="46.1526869" lon="13.5830344"><ele>397.83333333333337</ele><time>2026-05-02T07:23:44.161Z</time></trkpt><trkpt lat="46.152766" lon="13.5830623"><ele>394.0</ele><time>2026-05-02T07:23:45.146Z</time></trkpt><trkpt lat="46.1528408" lon="13.5830894"><ele>394.0</ele><time>2026-05-02T07:23:46.157Z</time></trkpt><trkpt lat="46.15291" lon="13.5831137"><ele>394.0</ele><time>2026-05-02T07:23:47.135Z</time></trkpt><trkpt lat="46.1529735" lon="13.5831573"><ele>394.0</ele><time>2026-05-02T07:23:48.155Z</time></trkpt><trkpt lat="46.1530407" lon="13.5832049"><ele>394.0</ele><time>2026-05-02T07:23:49.155Z</time></trkpt><trkpt lat="46.1531121" lon="13.5832336"><ele>394.0</ele><time>2026-05-02T07:23:50.164Z</time></trkpt><trkpt lat="46.1531845" lon="13.5832595"><ele>394.0</ele><time>2026-05-02T07:23:51.142Z</time></trkpt><trkpt lat="46.1532573" lon="13.5832804"><ele>394.0</ele><time>2026-05-02T07:23:52.141Z</time></trkpt><trkpt lat="46.1533272" lon="13.5833068"><ele>389.00000000000006</ele><time>2026-05-02T07:23:53.142Z</time></trkpt><trkpt lat="46.1533917" lon="13.5833415"><ele>384.0</ele><time>2026-05-02T07:23:54.159Z</time></trkpt><trkpt lat="46.1534725" lon="13.5833731"><ele>379.0</ele><time>2026-05-02T07:23:55.14Z</time></trkpt><trkpt lat="46.1535549" lon="13.5834239"><ele>374.0</ele><time>2026-05-02T07:23:56.156Z</time></trkpt><trkpt lat="46.1536423" lon="13.5834735"><ele>369.0</ele><time>2026-05-02T07:23:57.144Z</time></trkpt><trkpt lat="46.1537302" lon="13.5835225"><ele>364.0</ele><time>2026-05-02T07:23:58.141Z</time></trkpt><trkpt lat="46.1538087" lon="13.583555"><ele>364.0</ele><time>2026-05-02T07:23:59.147Z</time></trkpt><trkpt lat="46.153885" lon="13.5836032"><ele>364.0</ele><time>2026-05-02T07:24:00.144Z</time></trkpt><trkpt lat="46.1539546" lon="13.5836637"><ele>364.0</ele><time>2026-05-02T07:24:01.141Z</time></trkpt><trkpt lat="46.1540151" lon="13.5837288"><ele>364.0</ele><time>2026-05-02T07:24:02.145Z</time></trkpt><trkpt lat="46.1540642" lon="13.5838083"><ele>364.0</ele><time>2026-05-02T07:24:03.149Z</time></trkpt><trkpt lat="46.1541116" lon="13.583889"><ele>364.0</ele><time>2026-05-02T07:24:04.142Z</time></trkpt><trkpt lat="46.1541606" lon="13.5839694"><ele>364.0</ele><time>2026-05-02T07:24:05.15Z</time></trkpt><trkpt lat="46.1541998" lon="13.5841128"><ele>364.0</ele><time>2026-05-02T07:24:07.148Z</time></trkpt><trkpt lat="46.1541908" lon="13.5842709"><ele>364.0</ele><time>2026-05-02T07:24:09.145Z</time></trkpt><trkpt lat="46.1542093" lon="13.5844448"><ele>364.0</ele><time>2026-05-02T07:24:11.144Z</time></trkpt><trkpt lat="46.1542277" lon="13.5845475"><ele>364.0</ele><time>2026-05-02T07:24:12.145Z</time></trkpt><trkpt lat="46.154242" lon="13.584643"><ele>363.66666666666663</ele><time>2026-05-02T07:24:13.168Z</time></trkpt><trkpt lat="46.1542492" lon="13.5847448"><ele>363.3333333333333</ele><time>2026-05-02T07:24:14.152Z</time></trkpt><trkpt lat="46.1542412" lon="13.5848484"><ele>363.0</ele><time>2026-05-02T07:24:15.139Z</time></trkpt><trkpt lat="46.1542223" lon="13.5849541"><ele>362.6666666666667</ele><time>2026-05-02T07:24:16.152Z</time></trkpt><trkpt lat="46.1541811" lon="13.5850536"><ele>362.33333333333337</ele><time>2026-05-02T07:24:17.158Z</time></trkpt><trkpt lat="46.1541246" lon="13.5851354"><ele>362.0</ele><time>2026-05-02T07:24:18.142Z</time></trkpt><trkpt lat="46.1540584" lon="13.5851971"><ele>366.5</ele><time>2026-05-02T07:24:19.146Z</time></trkpt><trkpt lat="46.1539901" lon="13.5852522"><ele>371.0</ele><time>2026-05-02T07:24:20.142Z</time></trkpt><trkpt lat="46.1539211" lon="13.5852916"><ele>375.5</ele><time>2026-05-02T07:24:21.157Z</time></trkpt><trkpt lat="46.153842" lon="13.5853281"><ele>380.0</ele><time>2026-05-02T07:24:22.157Z</time></trkpt><trkpt lat="46.1537703" lon="13.5853669"><ele>384.49999999999994</ele><time>2026-05-02T07:24:23.158Z</time></trkpt><trkpt lat="46.1537137" lon="13.5854166"><ele>389.0</ele><time>2026-05-02T07:24:24.154Z</time></trkpt><trkpt lat="46.1536748" lon="13.5855437"><ele>389.0</ele><time>2026-05-02T07:24:26.143Z</time></trkpt><trkpt lat="46.1536726" lon="13.5857046"><ele>389.0</ele><time>2026-05-02T07:24:28.147Z</time></trkpt><trkpt lat="46.1536621" lon="13.5858801"><ele>389.0</ele><time>2026-05-02T07:24:30.151Z</time></trkpt><trkpt lat="46.1536479" lon="13.5860495"><ele>389.0</ele><time>2026-05-02T07:24:32.141Z</time></trkpt><trkpt lat="46.1536335" lon="13.5861456"><ele>389.0</ele><time>2026-05-02T07:24:33.143Z</time></trkpt><trkpt lat="46.1536084" lon="13.5862499"><ele>389.2</ele><time>2026-05-02T07:24:34.157Z</time></trkpt><trkpt lat="46.1535791" lon="13.5863621"><ele>389.4</ele><time>2026-05-02T07:24:35.15Z</time></trkpt><trkpt lat="46.1535451" lon="13.5864843"><ele>389.6</ele><time>2026-05-02T07:24:36.146Z</time></trkpt><trkpt lat="46.1535077" lon="13.5866055"><ele>389.8</ele><time>2026-05-02T07:24:37.141Z</time></trkpt><trkpt lat="46.1534618" lon="13.5867275"><ele>390.0</ele><time>2026-05-02T07:24:38.161Z</time></trkpt><trkpt lat="46.1534205" lon="13.5868391"><ele>390.0</ele><time>2026-05-02T07:24:39.151Z</time></trkpt><trkpt lat="46.153388" lon="13.5869401"><ele>390.0</ele><time>2026-05-02T07:24:40.152Z</time></trkpt><trkpt lat="46.1533567" lon="13.5870418"><ele>390.0</ele><time>2026-05-02T07:24:41.161Z</time></trkpt><trkpt lat="46.1533324" lon="13.5871407"><ele>390.0</ele><time>2026-05-02T07:24:42.154Z</time></trkpt><trkpt lat="46.1533087" lon="13.5872354"><ele>390.0</ele><time>2026-05-02T07:24:43.16Z</time></trkpt><trkpt lat="46.1532858" lon="13.5873231"><ele>390.0</ele><time>2026-05-02T07:24:44.171Z</time></trkpt><trkpt lat="46.1532487" lon="13.5874149"><ele>390.0</ele><time>2026-05-02T07:24:45.166Z</time></trkpt><trkpt lat="46.1532128" lon="13.5875032"><ele>393.3333333333333</ele><time>2026-05-02T07:24:46.181Z</time></trkpt><trkpt lat="46.1531746" lon="13.587581"><ele>396.66666666666663</ele><time>2026-05-02T07:24:47.166Z</time></trkpt><trkpt lat="46.1531345" lon="13.5876706"><ele>400.0</ele><time>2026-05-02T07:24:48.149Z</time></trkpt><trkpt lat="46.1530963" lon="13.5877789"><ele>403.3333333333333</ele><time>2026-05-02T07:24:49.153Z</time></trkpt><trkpt lat="46.1530542" lon="13.587899"><ele>406.66666666666663</ele><time>2026-05-02T07:24:50.151Z</time></trkpt><trkpt lat="46.1530077" lon="13.5880138"><ele>410.0</ele><time>2026-05-02T07:24:51.147Z</time></trkpt><trkpt lat="46.1529542" lon="13.5881238"><ele>410.0</ele><time>2026-05-02T07:24:52.146Z</time></trkpt><trkpt lat="46.1529007" lon="13.5882251"><ele>410.0</ele><time>2026-05-02T07:24:53.141Z</time></trkpt><trkpt lat="46.1528547" lon="13.5883122"><ele>410.0</ele><time>2026-05-02T07:24:54.154Z</time></trkpt><trkpt lat="46.1528043" lon="13.5883878"><ele>410.0</ele><time>2026-05-02T07:24:55.154Z</time></trkpt><trkpt lat="46.1527483" lon="13.5884491"><ele>410.0</ele><time>2026-05-02T07:24:56.153Z</time></trkpt><trkpt lat="46.152684" lon="13.5884832"><ele>410.0</ele><time>2026-05-02T07:24:57.153Z</time></trkpt><trkpt lat="46.1526148" lon="13.588517"><ele>410.0</ele><time>2026-05-02T07:24:58.146Z</time></trkpt><trkpt lat="46.152513" lon="13.5885652"><ele>410.0</ele><time>2026-05-02T07:25:00.148Z</time></trkpt><trkpt lat="46.152437" lon="13.5886042"><ele>410.0</ele><time>2026-05-02T07:25:33.161Z</time></trkpt><trkpt lat="46.1523216" lon="13.5885909"><ele>410.0</ele><time>2026-05-02T07:25:35.17Z</time></trkpt><trkpt lat="46.1522259" lon="13.5885893"><ele>410.0</ele><time>2026-05-02T07:25:37.157Z</time></trkpt><trkpt lat="46.1521123" lon="13.5885389"><ele>410.0</ele><time>2026-05-02T07:25:39.153Z</time></trkpt><trkpt lat="46.1520202" lon="13.5884627"><ele>409.8333333333333</ele><time>2026-05-02T07:25:41.155Z</time></trkpt><trkpt lat="46.1519612" lon="13.5884166"><ele>409.66666666666663</ele><time>2026-05-02T07:25:42.165Z</time></trkpt><trkpt lat="46.1518945" lon="13.5883706"><ele>409.5</ele><time>2026-05-02T07:25:43.168Z</time></trkpt><trkpt lat="46.1518209" lon="13.5883328"><ele>409.33333333333337</ele><time>2026-05-02T07:25:44.162Z</time></trkpt><trkpt lat="46.151747" lon="13.588291"><ele>409.1666666666667</ele><time>2026-05-02T07:25:45.151Z</time></trkpt><trkpt lat="46.1516814" lon="13.5882344"><ele>409.0</ele><time>2026-05-02T07:25:46.165Z</time></trkpt><trkpt lat="46.1516242" lon="13.5881622"><ele>409.00000000000006</ele><time>2026-05-02T07:25:47.149Z</time></trkpt><trkpt lat="46.1515691" lon="13.5880881"><ele>409.0</ele><time>2026-05-02T07:25:48.163Z</time></trkpt><trkpt lat="46.1515056" lon="13.5880119"><ele>409.0</ele><time>2026-05-02T07:25:49.154Z</time></trkpt><trkpt lat="46.1514326" lon="13.5879188"><ele>409.0</ele><time>2026-05-02T07:25:50.181Z</time></trkpt><trkpt lat="46.1513575" lon="13.5878296"><ele>409.00000000000006</ele><time>2026-05-02T07:25:51.156Z</time></trkpt><trkpt lat="46.151279" lon="13.5877509"><ele>409.0</ele><time>2026-05-02T07:25:52.159Z</time></trkpt><trkpt lat="46.1512069" lon="13.5876767"><ele>413.4</ele><time>2026-05-02T07:25:53.144Z</time></trkpt><trkpt lat="46.1511408" lon="13.5876322"><ele>417.79999999999995</ele><time>2026-05-02T07:25:54.16Z</time></trkpt><trkpt lat="46.1510128" lon="13.5875895"><ele>422.20000000000005</ele><time>2026-05-02T07:25:56.163Z</time></trkpt><trkpt lat="46.1509478" lon="13.5875876"><ele>426.6</ele><time>2026-05-02T07:25:57.172Z</time></trkpt><trkpt lat="46.1508575" lon="13.58767"><ele>431.0</ele><time>2026-05-02T07:25:59.147Z</time></trkpt><trkpt lat="46.1508329" lon="13.5877802"><ele>429.8333333333333</ele><time>2026-05-02T07:26:00.145Z</time></trkpt><trkpt lat="46.1508048" lon="13.5878803"><ele>428.66666666666663</ele><time>2026-05-02T07:26:01.162Z</time></trkpt><trkpt lat="46.1507706" lon="13.5879763"><ele>427.5</ele><time>2026-05-02T07:26:02.161Z</time></trkpt><trkpt lat="46.1507201" lon="13.5880539"><ele>426.33333333333337</ele><time>2026-05-02T07:26:03.161Z</time></trkpt><trkpt lat="46.1506605" lon="13.5881036"><ele>425.1666666666667</ele><time>2026-05-02T07:26:04.169Z</time></trkpt><trkpt lat="46.1505832" lon="13.5881388"><ele>424.0</ele><time>2026-05-02T07:26:05.143Z</time></trkpt><trkpt lat="46.150505" lon="13.5881486"><ele>424.00000000000006</ele><time>2026-05-02T07:26:06.143Z</time></trkpt><trkpt lat="46.1504312" lon="13.5881582"><ele>424.0</ele><time>2026-05-02T07:26:07.147Z</time></trkpt><trkpt lat="46.1503605" lon="13.5881664"><ele>424.0</ele><time>2026-05-02T07:26:08.165Z</time></trkpt><trkpt lat="46.150289" lon="13.5881746"><ele>424.0</ele><time>2026-05-02T07:26:09.15Z</time></trkpt><trkpt lat="46.1502023" lon="13.5881735"><ele>424.00000000000006</ele><time>2026-05-02T07:26:10.161Z</time></trkpt><trkpt lat="46.150121" lon="13.5881668"><ele>424.0</ele><time>2026-05-02T07:26:11.152Z</time></trkpt><trkpt lat="46.1500412" lon="13.5881698"><ele>424.00000000000006</ele><time>2026-05-02T07:26:12.151Z</time></trkpt><trkpt lat="46.1499648" lon="13.5881717"><ele>424.0</ele><time>2026-05-02T07:26:13.154Z</time></trkpt><trkpt lat="46.1498956" lon="13.5881781"><ele>424.0</ele><time>2026-05-02T07:26:14.162Z</time></trkpt><trkpt lat="46.1498138" lon="13.588273"><ele>424.0</ele><time>2026-05-02T07:26:16.149Z</time></trkpt><trkpt lat="46.1497932" lon="13.5883693"><ele>424.00000000000006</ele><time>2026-05-02T07:26:17.154Z</time></trkpt><trkpt lat="46.1497908" lon="13.5885218"><ele>424.0</ele><time>2026-05-02T07:26:19.135Z</time></trkpt><trkpt lat="46.1498163" lon="13.5886082"><ele>425.6666666666667</ele><time>2026-05-02T07:26:20.147Z</time></trkpt><trkpt lat="46.1498568" lon="13.5886998"><ele>427.33333333333337</ele><time>2026-05-02T07:26:21.149Z</time></trkpt><trkpt lat="46.1499124" lon="13.5887927"><ele>429.0</ele><time>2026-05-02T07:26:22.147Z</time></trkpt><trkpt lat="46.1499712" lon="13.588889"><ele>430.66666666666663</ele><time>2026-05-02T07:26:23.154Z</time></trkpt><trkpt lat="46.1500269" lon="13.5889933"><ele>432.3333333333333</ele><time>2026-05-02T07:26:24.139Z</time></trkpt><trkpt lat="46.150093" lon="13.5891015"><ele>434.0</ele><time>2026-05-02T07:26:25.141Z</time></trkpt><trkpt lat="46.150166" lon="13.5892098"><ele>433.99999999999994</ele><time>2026-05-02T07:26:26.133Z</time></trkpt><trkpt lat="46.1502362" lon="13.589306"><ele>434.0</ele><time>2026-05-02T07:26:27.132Z</time></trkpt><trkpt lat="46.1503142" lon="13.5893798"><ele>434.0</ele><time>2026-05-02T07:26:28.163Z</time></trkpt><trkpt lat="46.1503946" lon="13.5894357"><ele>434.0</ele><time>2026-05-02T07:26:29.132Z</time></trkpt><trkpt lat="46.1504739" lon="13.5894888"><ele>433.99999999999994</ele><time>2026-05-02T07:26:30.143Z</time></trkpt><trkpt lat="46.1505478" lon="13.5895421"><ele>434.0</ele><time>2026-05-02T07:26:31.15Z</time></trkpt><trkpt lat="46.1506149" lon="13.5895954"><ele>437.0</ele><time>2026-05-02T07:26:32.147Z</time></trkpt><trkpt lat="46.1506731" lon="13.5896473"><ele>440.0</ele><time>2026-05-02T07:26:33.163Z</time></trkpt><trkpt lat="46.1507532" lon="13.5897755"><ele>443.0</ele><time>2026-05-02T07:26:35.147Z</time></trkpt><trkpt lat="46.150755" lon="13.5899245"><ele>446.0</ele><time>2026-05-02T07:26:37.149Z</time></trkpt><trkpt lat="46.1507128" lon="13.5900075"><ele>449.0</ele><time>2026-05-02T07:26:38.157Z</time></trkpt><trkpt lat="46.1506447" lon="13.5900992"><ele>449.0</ele><time>2026-05-02T07:26:39.154Z</time></trkpt><trkpt lat="46.150561" lon="13.5902117"><ele>449.0</ele><time>2026-05-02T07:26:40.174Z</time></trkpt><trkpt lat="46.1504726" lon="13.59032"><ele>449.0</ele><time>2026-05-02T07:26:41.154Z</time></trkpt><trkpt lat="46.1503816" lon="13.5904195"><ele>449.0</ele><time>2026-05-02T07:26:42.16Z</time></trkpt><trkpt lat="46.1502878" lon="13.5905212"><ele>445.79999999999995</ele><time>2026-05-02T07:26:43.167Z</time></trkpt><trkpt lat="46.1502031" lon="13.5906248"><ele>442.59999999999997</ele><time>2026-05-02T07:26:44.144Z</time></trkpt><trkpt lat="46.150125" lon="13.5907305"><ele>439.4</ele><time>2026-05-02T07:26:45.169Z</time></trkpt><trkpt lat="46.1500572" lon="13.5908444"><ele>436.2</ele><time>2026-05-02T07:26:46.163Z</time></trkpt><trkpt lat="46.1500145" lon="13.5909549"><ele>433.0</ele><time>2026-05-02T07:26:47.151Z</time></trkpt><trkpt lat="46.1499791" lon="13.5910381"><ele>433.0</ele><time>2026-05-02T07:26:48.162Z</time></trkpt><trkpt lat="46.1498794" lon="13.5911519"><ele>432.99999999999994</ele><time>2026-05-02T07:26:50.159Z</time></trkpt><trkpt lat="46.1498009" lon="13.5912021"><ele>432.99999999999994</ele><time>2026-05-02T07:26:51.152Z</time></trkpt><trkpt lat="46.149715" lon="13.5912486"><ele>433.0</ele><time>2026-05-02T07:26:52.145Z</time></trkpt><trkpt lat="46.1496148" lon="13.5912954"><ele>433.0</ele><time>2026-05-02T07:26:53.171Z</time></trkpt><trkpt lat="46.1495108" lon="13.5913158"><ele>424.0</ele><time>2026-05-02T07:26:54.147Z</time></trkpt><trkpt lat="46.1506605" lon="13.5881036"><ele>424.00000000000006</ele><time>2026-05-02T07:26:04.169Z</time></trkpt><trkpt lat="46.1505832" lon="13.5881388"><ele>424.0</ele><time>2026-05-02T07:26:05.143Z</time></trkpt><trkpt lat="46.150505" lon="13.5881486"><ele>424.0</ele><time>2026-05-02T07:26:06.143Z</time></trkpt><trkpt lat="46.1504312" lon="13.5881582"><ele>424.0</ele><time>2026-05-02T07:26:07.147Z</time></trkpt><trkpt lat="46.1503605" lon="13.5881664"><ele>424.00000000000006</ele><time>2026-05-02T07:26:08.165Z</time></trkpt><trkpt lat="46.150289" lon="13.5881746"><ele>424.0</ele><time>2026-05-02T07:26:09.15Z</time></trkpt><trkpt lat="46.1502023" lon="13.5881735"><ele>424.00000000000006</ele><time>2026-05-02T07:26:10.161Z</time></trkpt><trkpt lat="46.150121" lon="13.5881668"><ele>424.0</ele><time>2026-05-02T07:26:11.152Z</time></trkpt><trkpt lat="46.1500412" lon="13.5881698"><ele>424.0</ele><time>2026-05-02T07:26:12.151Z</time></trkpt><trkpt lat="46.1499648" lon="13.5881717"><ele>424.0</ele><time>2026-05-02T07:26:13.154Z</time></trkpt><trkpt lat="46.1498956" lon="13.5881781"><ele>424.00000000000006</ele><time>2026-05-02T07:26:14.162Z</time></trkpt><trkpt lat="46.1498138" lon="13.588273"><ele>424.0</ele><time>2026-05-02T07:26:16.149Z</time></trkpt><trkpt lat="46.1497932" lon="13.5883693"><ele>425.6666666666667</ele><time>2026-05-02T07:26:17.154Z</time></trkpt><trkpt lat="46.1497908" lon="13.5885218"><ele>427.33333333333337</ele><time>2026-05-02T07:26:19.135Z</time></trkpt><trkpt lat="46.1498163" lon="13.5886082"><ele>429.0</ele><time>2026-05-02T07:26:20.147Z</time></trkpt><trkpt lat="46.1498568" lon="13.5886998"><ele>430.66666666666663</ele><time>2026-05-02T07:26:21.149Z</time></trkpt><trkpt lat="46.1499124" lon="13.5887927"><ele>432.3333333333333</ele><time>2026-05-02T07:26:22.147Z</time></trkpt><trkpt lat="46.1499712" lon="13.588889"><ele>434.0</ele><time>2026-05-02T07:26:23.154Z</time></trkpt><trkpt lat="46.1500269" lon="13.5889933"><ele>434.0</ele><time>2026-05-02T07:26:24.139Z</time></trkpt><trkpt lat="46.150093" lon="13.5891015"><ele>434.0</ele><time>2026-05-02T07:26:25.141Z</time></trkpt><trkpt lat="46.150166" lon="13.5892098"><ele>434.0</ele><time>2026-05-02T07:26:26.133Z</time></trkpt><trkpt lat="46.1502362" lon="13.589306"><ele>434.0</ele><time>2026-05-02T07:26:27.132Z</time></trkpt><trkpt lat="46.1503142" lon="13.5893798"><ele>434.0</ele><time>2026-05-02T07:26:28.163Z</time></trkpt><trkpt lat="46.1503946" lon="13.5894357"><ele>433.99999999999994</ele><time>2026-05-02T07:26:29.132Z</time></trkpt><trkpt lat="46.1504739" lon="13.5894888"><ele>434.0</ele><time>2026-05-02T07:26:30.143Z</time></trkpt><trkpt lat="46.1505478" lon="13.5895421"><ele>434.0</ele><time>2026-05-02T07:26:31.15Z</time></trkpt><trkpt lat="46.1506149" lon="13.5895954"><ele>434.0</ele><time>2026-05-02T07:26:32.147Z</time></trkpt><trkpt lat="46.1506731" lon="13.5896473"><ele>433.99999999999994</ele><time>2026-05-02T07:26:33.163Z</time></trkpt><trkpt lat="46.1507532" lon="13.5897755"><ele>434.0</ele><time>2026-05-02T07:26:35.147Z</time></trkpt><trkpt lat="46.150755" lon="13.5899245"><ele>433.79999999999995</ele><time>2026-05-02T07:26:37.149Z</time></trkpt><trkpt lat="46.1507128" lon="13.5900075"><ele>433.59999999999997</ele><time>2026-05-02T07:26:38.157Z</time></trkpt><trkpt lat="46.1506447" lon="13.5900992"><ele>433.4</ele><time>2026-05-02T07:26:39.154Z</time></trkpt><trkpt lat="46.150561" lon="13.5902117"><ele>433.2</ele><time>2026-05-02T07:26:40.174Z</time></trkpt><trkpt lat="46.1504726" lon="13.59032"><ele>433.0</ele><time>2026-05-02T07:26:41.154Z</time></trkpt><trkpt lat="46.1503816" lon="13.5904195"><ele>433.0</ele><time>2026-05-02T07:26:42.16Z</time></trkpt><trkpt lat="46.1502878" lon="13.5905212"><ele>432.99999999999994</ele><time>2026-05-02T07:26:43.167Z</time></trkpt><trkpt lat="46.1502031" lon="13.5906248"><ele>432.99999999999994</ele><time>2026-05-02T07:26:44.144Z</time></trkpt><trkpt lat="46.150125" lon="13.5907305"><ele>433.0</ele><time>2026-05-02T07:26:45.169Z</time></trkpt><trkpt lat="46.1500572" lon="13.5908444"><ele>433.0</ele><time>2026-05-02T07:26:46.163Z</time></trkpt><trkpt lat="46.1500145" lon="13.5909549"><ele>433.0</ele><time>2026-05-02T07:26:47.151Z</time></trkpt><trkpt lat="46.1499791" lon="13.5910381"><ele>432.99999999999994</ele><time>2026-05-02T07:26:48.162Z</time></trkpt><trkpt lat="46.1498794" lon="13.5911519"><ele>432.99999999999994</ele><time>2026-05-02T07:26:50.159Z</time></trkpt><trkpt lat="46.1498009" lon="13.5912021"><ele>433.0</ele><time>2026-05-02T07:26:51.152Z</time></trkpt><trkpt lat="46.149715" lon="13.5912486"><ele>433.0</ele><time>2026-05-02T07:26:52.145Z</time></trkpt><trkpt lat="46.1496148" lon="13.5912954"><ele>433.1666666666667</ele><time>2026-05-02T07:26:53.171Z</time></trkpt><trkpt lat="46.1495108" lon="13.5913158"><ele>433.33333333333337</ele><time>2026-05-02T07:26:54.147Z</time></trkpt><trkpt lat="46.1494151" lon="13.5913573"><ele>433.5</ele><time>2026-05-02T07:26:55.146Z</time></trkpt><trkpt lat="46.1493346" lon="13.5913978"><ele>433.66666666666663</ele><time>2026-05-02T07:26:56.163Z</time></trkpt><trkpt lat="46.1492611" lon="13.5914375"><ele>433.8333333333333</ele><time>2026-05-02T07:26:57.15Z</time></trkpt><trkpt lat="46.1491855" lon="13.5914546"><ele>434.0</ele><time>2026-05-02T07:26:58.159Z</time></trkpt><trkpt lat="46.149092" lon="13.5914619"><ele>438.79999999999995</ele><time>2026-05-02T07:26:59.142Z</time></trkpt><trkpt lat="46.1489835" lon="13.5914663"><ele>443.59999999999997</ele><time>2026-05-02T07:27:00.151Z</time></trkpt><trkpt lat="46.1488713" lon="13.5914754"><ele>448.4</ele><time>2026-05-02T07:27:01.151Z</time></trkpt><trkpt lat="46.1487624" lon="13.59148"><ele>453.2</ele><time>2026-05-02T07:27:02.15Z</time></trkpt><trkpt lat="46.1486649" lon="13.5914924"><ele>458.0</ele><time>2026-05-02T07:27:03.155Z</time></trkpt><trkpt lat="46.1485896" lon="13.5915104"><ele>457.99999999999994</ele><time>2026-05-02T07:27:04.161Z</time></trkpt><trkpt lat="46.1484833" lon="13.5915551"><ele>458.0</ele><time>2026-05-02T07:27:06.15Z</time></trkpt><trkpt lat="46.1484469" lon="13.5916634"><ele>458.0</ele><time>2026-05-02T07:27:08.149Z</time></trkpt><trkpt lat="46.1484634" lon="13.5917638"><ele>458.0</ele><time>2026-05-02T07:27:10.152Z</time></trkpt><trkpt lat="46.1484955" lon="13.5918605"><ele>457.99999999999994</ele><time>2026-05-02T07:27:12.142Z</time></trkpt><trkpt lat="46.1485407" lon="13.5919571"><ele>458.0</ele><time>2026-05-02T07:27:14.163Z</time></trkpt><trkpt lat="46.1485865" lon="13.5920241"><ele>457.79999999999995</ele><time>2026-05-02T07:27:15.148Z</time></trkpt><trkpt lat="46.1486649" lon="13.5921548"><ele>457.59999999999997</ele><time>2026-05-02T07:27:17.151Z</time></trkpt><trkpt lat="46.1487156" lon="13.5922745"><ele>457.40000000000003</ele><time>2026-05-02T07:27:19.153Z</time></trkpt><trkpt lat="46.1487217" lon="13.5923777"><ele>457.20000000000005</ele><time>2026-05-02T07:27:21.157Z</time></trkpt><trkpt lat="46.1486739" lon="13.5925025"><ele>457.0</ele><time>2026-05-02T07:27:23.149Z</time></trkpt><trkpt lat="46.1485986" lon="13.5926381"><ele>457.0</ele><time>2026-05-02T07:27:25.147Z</time></trkpt><trkpt lat="46.1485152" lon="13.5927628"><ele>457.00000000000006</ele><time>2026-05-02T07:27:27.163Z</time></trkpt><trkpt lat="46.1484945" lon="13.5928954"><ele>457.00000000000006</ele><time>2026-05-02T07:27:29.144Z</time></trkpt><trkpt lat="46.1485217" lon="13.5930144"><ele>457.0</ele><time>2026-05-02T07:27:31.144Z</time></trkpt><trkpt lat="46.1486007" lon="13.5931284"><ele>457.0</ele><time>2026-05-02T07:27:33.143Z</time></trkpt><trkpt lat="46.1487074" lon="13.5931731"><ele>457.40000000000003</ele><time>2026-05-02T07:27:35.143Z</time></trkpt><trkpt lat="46.1488319" lon="13.5931436"><ele>457.80000000000007</ele><time>2026-05-02T07:27:37.134Z</time></trkpt><trkpt lat="46.1489129" lon="13.5931265"><ele>458.2</ele><time>2026-05-02T07:27:38.139Z</time></trkpt><trkpt lat="46.1490187" lon="13.5931062"><ele>458.6</ele><time>2026-05-02T07:27:39.154Z</time></trkpt><trkpt lat="46.1491223" lon="13.5931066"><ele>459.0</ele><time>2026-05-02T07:27:40.16Z</time></trkpt><trkpt lat="46.149217" lon="13.593106"><ele>459.0</ele><time>2026-05-02T07:27:41.145Z</time></trkpt><trkpt lat="46.1493025" lon="13.5930882"><ele>459.0</ele><time>2026-05-02T07:27:42.155Z</time></trkpt><trkpt lat="46.149377" lon="13.5930652"><ele>459.0</ele><time>2026-05-02T07:27:43.147Z</time></trkpt><trkpt lat="46.1494388" lon="13.5930408"><ele>459.0</ele><time>2026-05-02T07:27:44.138Z</time></trkpt><trkpt lat="46.1495059" lon="13.5930214"><ele>459.0</ele><time>2026-05-02T07:27:45.145Z</time></trkpt><trkpt lat="46.1495793" lon="13.5930077"><ele>459.0</ele><time>2026-05-02T07:27:46.148Z</time></trkpt><trkpt lat="46.1496585" lon="13.593002"><ele>459.0</ele><time>2026-05-02T07:27:47.14Z</time></trkpt><trkpt lat="46.1497618" lon="13.5930116"><ele>459.0</ele><time>2026-05-02T07:27:48.156Z</time></trkpt><trkpt lat="46.149869" lon="13.5930241"><ele>459.0</ele><time>2026-05-02T07:27:49.143Z</time></trkpt><trkpt lat="46.1499721" lon="13.5930396"><ele>459.0</ele><time>2026-05-02T07:27:50.134Z</time></trkpt><trkpt lat="46.1500728" lon="13.5930652"><ele>459.0</ele><time>2026-05-02T07:27:51.152Z</time></trkpt><trkpt lat="46.1501664" lon="13.5930943"><ele>459.0</ele><time>2026-05-02T07:27:52.142Z</time></trkpt><trkpt lat="46.1502531" lon="13.593122"><ele>458.1666666666667</ele><time>2026-05-02T07:27:53.148Z</time></trkpt><trkpt lat="46.1503427" lon="13.5931401"><ele>457.33333333333337</ele><time>2026-05-02T07:27:54.159Z</time></trkpt><trkpt lat="46.1504306" lon="13.5931515"><ele>456.5</ele><time>2026-05-02T07:27:55.163Z</time></trkpt><trkpt lat="46.1505163" lon="13.5931496"><ele>455.6666666666667</ele><time>2026-05-02T07:27:56.148Z</time></trkpt><trkpt lat="46.1505956" lon="13.593132"><ele>454.83333333333337</ele><time>2026-05-02T07:27:57.147Z</time></trkpt><trkpt lat="46.1506719" lon="13.5931262"><ele>454.0</ele><time>2026-05-02T07:27:58.145Z</time></trkpt><trkpt lat="46.1507495" lon="13.5931284"><ele>452.00000000000006</ele><time>2026-05-02T07:27:59.136Z</time></trkpt><trkpt lat="46.150832" lon="13.593135"><ele>450.0</ele><time>2026-05-02T07:28:00.159Z</time></trkpt><trkpt lat="46.1509123" lon="13.5931534"><ele>448.0</ele><time>2026-05-02T07:28:01.14Z</time></trkpt><trkpt lat="46.1509917" lon="13.5931817"><ele>446.0</ele><time>2026-05-02T07:28:02.17Z</time></trkpt><trkpt lat="46.1510727" lon="13.5932138"><ele>444.00000000000006</ele><time>2026-05-02T07:28:03.144Z</time></trkpt><trkpt lat="46.1511492" lon="13.5932367"><ele>442.0</ele><time>2026-05-02T07:28:04.165Z</time></trkpt><trkpt lat="46.1512169" lon="13.5932642"><ele>442.0</ele><time>2026-05-02T07:28:05.154Z</time></trkpt><trkpt lat="46.1513086" lon="13.5933425"><ele>442.0</ele><time>2026-05-02T07:28:07.167Z</time></trkpt><trkpt lat="46.1513479" lon="13.593483"><ele>442.0</ele><time>2026-05-02T07:28:09.153Z</time></trkpt><trkpt lat="46.1513432" lon="13.5936503"><ele>442.0</ele><time>2026-05-02T07:28:11.159Z</time></trkpt><trkpt lat="46.1513171" lon="13.5938269"><ele>443.7142857142858</ele><time>2026-05-02T07:28:13.156Z</time></trkpt><trkpt lat="46.151299" lon="13.5939207"><ele>445.42857142857144</ele><time>2026-05-02T07:28:14.178Z</time></trkpt><trkpt lat="46.1512855" lon="13.5940154"><ele>447.14285714285717</ele><time>2026-05-02T07:28:15.157Z</time></trkpt><trkpt lat="46.1512691" lon="13.5941122"><ele>448.8571428571429</ele><time>2026-05-02T07:28:16.167Z</time></trkpt><trkpt lat="46.1512462" lon="13.5942074"><ele>450.5714285714286</ele><time>2026-05-02T07:28:17.153Z</time></trkpt><trkpt lat="46.151224" lon="13.594296"><ele>452.28571428571433</ele><time>2026-05-02T07:28:18.156Z</time></trkpt><trkpt lat="46.1512091" lon="13.5943888"><ele>454.0</ele><time>2026-05-02T07:28:19.156Z</time></trkpt><trkpt lat="46.1511992" lon="13.5944971"><ele>452.50000000000006</ele><time>2026-05-02T07:28:20.17Z</time></trkpt><trkpt lat="46.151187" lon="13.5946079"><ele>451.0</ele><time>2026-05-02T07:28:21.155Z</time></trkpt><trkpt lat="46.1511806" lon="13.5947191"><ele>449.5</ele><time>2026-05-02T07:28:22.146Z</time></trkpt><trkpt lat="46.1511793" lon="13.5948448"><ele>448.0</ele><time>2026-05-02T07:28:23.157Z</time></trkpt><trkpt lat="46.1511761" lon="13.5949771"><ele>446.50000000000006</ele><time>2026-05-02T07:28:24.157Z</time></trkpt><trkpt lat="46.1511658" lon="13.5951107"><ele>445.0</ele><time>2026-05-02T07:28:25.165Z</time></trkpt><trkpt lat="46.1511525" lon="13.5952345"><ele>441.83333333333337</ele><time>2026-05-02T07:28:26.16Z</time></trkpt><trkpt lat="46.1511413" lon="13.5953438"><ele>438.6666666666667</ele><time>2026-05-02T07:28:27.159Z</time></trkpt><trkpt lat="46.1511368" lon="13.5954549"><ele>435.5</ele><time>2026-05-02T07:28:28.155Z</time></trkpt><trkpt lat="46.1511355" lon="13.5955475"><ele>432.33333333333337</ele><time>2026-05-02T07:28:29.158Z</time></trkpt><trkpt lat="46.1511272" lon="13.5957028"><ele>429.1666666666667</ele><time>2026-05-02T07:28:31.16Z</time></trkpt><trkpt lat="46.1510829" lon="13.5958035"><ele>426.0</ele><time>2026-05-02T07:28:33.155Z</time></trkpt><trkpt lat="46.150967" lon="13.5958791"><ele>426.0</ele><time>2026-05-02T07:28:35.151Z</time></trkpt><trkpt lat="46.1508895" lon="13.5959179"><ele>426.0</ele><time>2026-05-02T07:28:36.166Z</time></trkpt><trkpt lat="46.1508216" lon="13.5959562"><ele>426.0</ele><time>2026-05-02T07:28:37.149Z</time></trkpt><trkpt lat="46.1507605" lon="13.5959977"><ele>426.0</ele><time>2026-05-02T07:28:38.149Z</time></trkpt><trkpt lat="46.1506796" lon="13.5961413"><ele>426.0</ele><time>2026-05-02T07:28:40.147Z</time></trkpt><trkpt lat="46.1506543" lon="13.5962371"><ele>426.0</ele><time>2026-05-02T07:28:41.145Z</time></trkpt><trkpt lat="46.1506359" lon="13.5963292"><ele>426.6</ele><time>2026-05-02T07:28:42.168Z</time></trkpt><trkpt lat="46.1506154" lon="13.5964203"><ele>427.20000000000005</ele><time>2026-05-02T07:28:43.16Z</time></trkpt><trkpt lat="46.1505771" lon="13.5965887"><ele>427.79999999999995</ele><time>2026-05-02T07:28:45.16Z</time></trkpt><trkpt lat="46.1505583" lon="13.5966756"><ele>428.4</ele><time>2026-05-02T07:28:46.169Z</time></trkpt><trkpt lat="46.1505476" lon="13.596847"><ele>429.0</ele><time>2026-05-02T07:28:48.156Z</time></trkpt><trkpt lat="46.1505777" lon="13.5970147"><ele>424.0</ele><time>2026-05-02T07:28:50.161Z</time></trkpt><trkpt lat="46.1506112" lon="13.5971888"><ele>419.0</ele><time>2026-05-02T07:28:52.162Z</time></trkpt><trkpt lat="46.1505991" lon="13.5973126"><ele>414.0</ele><time>2026-05-02T07:28:54.161Z</time></trkpt><trkpt lat="46.1505289" lon="13.5973449"><ele>409.0</ele><time>2026-05-02T07:28:56.17Z</time></trkpt><trkpt lat="46.1504426" lon="13.5973443"><ele>404.0</ele><time>2026-05-02T07:28:58.161Z</time></trkpt><trkpt lat="46.1503336" lon="13.5973304"><ele>403.99999999999994</ele><time>2026-05-02T07:29:00.163Z</time></trkpt><trkpt lat="46.150268" lon="13.5973258"><ele>404.0</ele><time>2026-05-02T07:29:01.162Z</time></trkpt><trkpt lat="46.1501434" lon="13.5973252"><ele>404.0</ele><time>2026-05-02T07:29:03.166Z</time></trkpt><trkpt lat="46.1500802" lon="13.5973244"><ele>404.0</ele><time>2026-05-02T07:29:04.165Z</time></trkpt><trkpt lat="46.1500128" lon="13.5973358"><ele>403.99999999999994</ele><time>2026-05-02T07:29:05.159Z</time></trkpt><trkpt lat="46.1499466" lon="13.5973573"><ele>404.0</ele><time>2026-05-02T07:29:06.162Z</time></trkpt><trkpt lat="46.1498511" lon="13.5974736"><ele>408.66666666666663</ele><time>2026-05-02T07:29:08.161Z</time></trkpt><trkpt lat="46.1498125" lon="13.5975481"><ele>413.3333333333333</ele><time>2026-05-02T07:29:09.153Z</time></trkpt><trkpt lat="46.1497338" lon="13.597685"><ele>418.0</ele><time>2026-05-02T07:29:11.167Z</time></trkpt><trkpt lat="46.1496806" lon="13.5977466"><ele>422.66666666666663</ele><time>2026-05-02T07:29:12.162Z</time></trkpt><trkpt lat="46.1496251" lon="13.5977914"><ele>427.3333333333333</ele><time>2026-05-02T07:29:13.152Z</time></trkpt><trkpt lat="46.1495625" lon="13.5978486"><ele>432.0</ele><time>2026-05-02T07:29:14.17Z</time></trkpt><trkpt lat="46.149498" lon="13.5979095"><ele>432.0</ele><time>2026-05-02T07:29:15.16Z</time></trkpt><trkpt lat="46.1494407" lon="13.5979621"><ele>432.00000000000006</ele><time>2026-05-02T07:29:16.174Z</time></trkpt><trkpt lat="46.1493598" lon="13.5980823"><ele>432.00000000000006</ele><time>2026-05-02T07:29:18.155Z</time></trkpt><trkpt lat="46.1493405" lon="13.598247"><ele>432.0</ele><time>2026-05-02T07:29:20.153Z</time></trkpt><trkpt lat="46.1493865" lon="13.5983856"><ele>432.0</ele><time>2026-05-02T07:29:22.17Z</time></trkpt><trkpt lat="46.1494442" lon="13.5984274"><ele>432.0</ele><time>2026-05-02T07:29:23.161Z</time></trkpt><trkpt lat="46.1495074" lon="13.598456"><ele>432.0</ele><time>2026-05-02T07:29:24.161Z</time></trkpt><trkpt lat="46.1495748" lon="13.5984825"><ele>432.0</ele><time>2026-05-02T07:29:25.153Z</time></trkpt><trkpt lat="46.1496488" lon="13.5985117"><ele>432.0</ele><time>2026-05-02T07:29:26.156Z</time></trkpt><trkpt lat="46.1497323" lon="13.5985511"><ele>432.0</ele><time>2026-05-02T07:29:27.158Z</time></trkpt><trkpt lat="46.1498164" lon="13.5985949"><ele>432.0</ele><time>2026-05-02T07:29:28.156Z</time></trkpt><trkpt lat="46.1499105" lon="13.5986663"><ele>428.0</ele><time>2026-05-02T07:29:29.166Z</time></trkpt><trkpt lat="46.1499998" lon="13.5987335"><ele>424.0</ele><time>2026-05-02T07:29:30.161Z</time></trkpt><trkpt lat="46.1500825" lon="13.5987891"><ele>420.0</ele><time>2026-05-02T07:29:31.163Z</time></trkpt><trkpt lat="46.1501511" lon="13.5988234"><ele>416.0</ele><time>2026-05-02T07:29:32.149Z</time></trkpt><trkpt lat="46.1502121" lon="13.5988564"><ele>412.0</ele><time>2026-05-02T07:29:33.15Z</time></trkpt><trkpt lat="46.1502741" lon="13.5989026"><ele>408.0</ele><time>2026-05-02T07:29:34.155Z</time></trkpt><trkpt lat="46.1503277" lon="13.5989732"><ele>408.0</ele><time>2026-05-02T07:29:35.157Z</time></trkpt><trkpt lat="46.1503745" lon="13.5990505"><ele>408.0</ele><time>2026-05-02T07:29:36.157Z</time></trkpt><trkpt lat="46.1504066" lon="13.5991445"><ele>408.0</ele><time>2026-05-02T07:29:37.159Z</time></trkpt><trkpt lat="46.1504265" lon="13.5992476"><ele>408.0</ele><time>2026-05-02T07:29:38.154Z</time></trkpt><trkpt lat="46.1504386" lon="13.5993487"><ele>408.0</ele><time>2026-05-02T07:29:39.151Z</time></trkpt><trkpt lat="46.1504409" lon="13.5994429"><ele>408.0</ele><time>2026-05-02T07:29:40.154Z</time></trkpt><trkpt lat="46.1504116" lon="13.5996099"><ele>407.0</ele><time>2026-05-02T07:29:42.145Z</time></trkpt><trkpt lat="46.1503382" lon="13.5997281"><ele>406.0</ele><time>2026-05-02T07:29:44.159Z</time></trkpt><trkpt lat="46.1502527" lon="13.5998594"><ele>405.0</ele><time>2026-05-02T07:29:46.17Z</time></trkpt><trkpt lat="46.1501824" lon="13.5999919"><ele>404.0</ele><time>2026-05-02T07:29:48.155Z</time></trkpt><trkpt lat="46.1501355" lon="13.6001569"><ele>404.0</ele><time>2026-05-02T07:29:50.165Z</time></trkpt><trkpt lat="46.1501067" lon="13.6002547"><ele>404.0</ele><time>2026-05-02T07:29:51.152Z</time></trkpt><trkpt lat="46.150079" lon="13.600383"><ele>404.0</ele><time>2026-05-02T07:29:52.154Z</time></trkpt><trkpt lat="46.1500588" lon="13.6005138"><ele>404.0</ele><time>2026-05-02T07:29:53.148Z</time></trkpt><trkpt lat="46.150037" lon="13.6006634"><ele>404.0</ele><time>2026-05-02T07:29:54.172Z</time></trkpt><trkpt lat="46.1500161" lon="13.6007939"><ele>402.6</ele><time>2026-05-02T07:29:55.158Z</time></trkpt><trkpt lat="46.1499995" lon="13.6009031"><ele>401.2</ele><time>2026-05-02T07:29:56.175Z</time></trkpt><trkpt lat="46.1499971" lon="13.6010307"><ele>399.8</ele><time>2026-05-02T07:29:58.166Z</time></trkpt><trkpt lat="46.150066" lon="13.6011063"><ele>398.40000000000003</ele><time>2026-05-02T07:30:00.157Z</time></trkpt><trkpt lat="46.150142" lon="13.6011968"><ele>397.0</ele><time>2026-05-02T07:30:02.154Z</time></trkpt><trkpt lat="46.1501368" lon="13.6013729"><ele>396.50000000000006</ele><time>2026-05-02T07:30:04.149Z</time></trkpt><trkpt lat="46.1501327" lon="13.6014678"><ele>396.0</ele><time>2026-05-02T07:30:05.148Z</time></trkpt><trkpt lat="46.1501288" lon="13.6015698"><ele>395.5</ele><time>2026-05-02T07:30:06.16Z</time></trkpt><trkpt lat="46.1501202" lon="13.6016643"><ele>395.0</ele><time>2026-05-02T07:30:07.153Z</time></trkpt><trkpt lat="46.1501011" lon="13.6017552"><ele>394.50000000000006</ele><time>2026-05-02T07:30:08.167Z</time></trkpt><trkpt lat="46.1500479" lon="13.6019106"><ele>394.0</ele><time>2026-05-02T07:30:10.166Z</time></trkpt><trkpt lat="46.1499876" lon="13.6019889"><ele>394.0</ele><time>2026-05-02T07:30:12.169Z</time></trkpt><trkpt lat="46.1499394" lon="13.6019276"><ele>394.0</ele><time>2026-05-02T07:30:14.141Z</time></trkpt><trkpt lat="46.1498988" lon="13.6017398"><ele>394.0</ele><time>2026-05-02T07:30:16.152Z</time></trkpt><trkpt lat="46.1498693" lon="13.6016176"><ele>394.0</ele><time>2026-05-02T07:30:17.151Z</time></trkpt><trkpt lat="46.1498389" lon="13.6015009"><ele>394.0</ele><time>2026-05-02T07:30:18.152Z</time></trkpt><trkpt lat="46.1498198" lon="13.6013976"><ele>397.83333333333337</ele><time>2026-05-02T07:30:19.166Z</time></trkpt><trkpt lat="46.14976" lon="13.6013164"><ele>401.6666666666667</ele><time>2026-05-02T07:30:22.169Z</time></trkpt><trkpt lat="46.1496912" lon="13.6012696"><ele>405.5</ele><time>2026-05-02T07:30:24.171Z</time></trkpt><trkpt lat="46.1496222" lon="13.6012072"><ele>409.33333333333337</ele><time>2026-05-02T07:30:26.177Z</time></trkpt><trkpt lat="46.1495401" lon="13.6010914"><ele>413.1666666666667</ele><time>2026-05-02T07:30:28.172Z</time></trkpt><trkpt lat="46.1494745" lon="13.601015"><ele>417.0</ele><time>2026-05-02T07:30:29.156Z</time></trkpt><trkpt lat="46.1494124" lon="13.6009378"><ele>418.0</ele><time>2026-05-02T07:30:30.16Z</time></trkpt><trkpt lat="46.1493481" lon="13.6008621"><ele>419.0</ele><time>2026-05-02T07:30:31.162Z</time></trkpt><trkpt lat="46.1492811" lon="13.6008051"><ele>420.0</ele><time>2026-05-02T07:30:32.163Z</time></trkpt><trkpt lat="46.149213" lon="13.6007362"><ele>421.0</ele><time>2026-05-02T07:30:33.144Z</time></trkpt><trkpt lat="46.1491445" lon="13.6006631"><ele>422.0</ele><time>2026-05-02T07:30:34.155Z</time></trkpt><trkpt lat="46.1490746" lon="13.6005878"><ele>423.0</ele><time>2026-05-02T07:30:35.147Z</time></trkpt><trkpt lat="46.1501368" lon="13.6013729"><ele>418.1666666666667</ele><time>2026-05-02T07:30:04.149Z</time></trkpt><trkpt lat="46.1501327" lon="13.6014678"><ele>413.33333333333337</ele><time>2026-05-02T07:30:05.148Z</time></trkpt><trkpt lat="46.1501288" lon="13.6015698"><ele>408.5</ele><time>2026-05-02T07:30:06.16Z</time></trkpt><trkpt lat="46.1501202" lon="13.6016643"><ele>403.6666666666667</ele><time>2026-05-02T07:30:07.153Z</time></trkpt><trkpt lat="46.1501011" lon="13.6017552"><ele>398.83333333333337</ele><time>2026-05-02T07:30:08.167Z</time></trkpt><trkpt lat="46.1500479" lon="13.6019106"><ele>394.0</ele><time>2026-05-02T07:30:10.166Z</time></trkpt><trkpt lat="46.1499876" lon="13.6019889"><ele>394.0</ele><time>2026-05-02T07:30:12.169Z</time></trkpt><trkpt lat="46.1499394" lon="13.6019276"><ele>394.0</ele><time>2026-05-02T07:30:14.141Z</time></trkpt><trkpt lat="46.1498988" lon="13.6017398"><ele>394.0</ele><time>2026-05-02T07:30:16.152Z</time></trkpt><trkpt lat="46.1498693" lon="13.6016176"><ele>394.0</ele><time>2026-05-02T07:30:17.151Z</time></trkpt><trkpt lat="46.1498389" lon="13.6015009"><ele>394.0</ele><time>2026-05-02T07:30:18.152Z</time></trkpt><trkpt lat="46.1498198" lon="13.6013976"><ele>397.83333333333337</ele><time>2026-05-02T07:30:19.166Z</time></trkpt><trkpt lat="46.14976" lon="13.6013164"><ele>401.6666666666667</ele><time>2026-05-02T07:30:22.169Z</time></trkpt><trkpt lat="46.1496912" lon="13.6012696"><ele>405.5</ele><time>2026-05-02T07:30:24.171Z</time></trkpt><trkpt lat="46.1496222" lon="13.6012072"><ele>409.33333333333337</ele><time>2026-05-02T07:30:26.177Z</time></trkpt><trkpt lat="46.1495401" lon="13.6010914"><ele>413.1666666666667</ele><time>2026-05-02T07:30:28.172Z</time></trkpt><trkpt lat="46.1494745" lon="13.601015"><ele>417.0</ele><time>2026-05-02T07:30:29.156Z</time></trkpt><trkpt lat="46.1494124" lon="13.6009378"><ele>418.0</ele><time>2026-05-02T07:30:30.16Z</time></trkpt><trkpt lat="46.1493481" lon="13.6008621"><ele>419.0</ele><time>2026-05-02T07:30:31.162Z</time></trkpt><trkpt lat="46.1492811" lon="13.6008051"><ele>420.0</ele><time>2026-05-02T07:30:32.163Z</time></trkpt><trkpt lat="46.149213" lon="13.6007362"><ele>421.0</ele><time>2026-05-02T07:30:33.144Z</time></trkpt><trkpt lat="46.1491445" lon="13.6006631"><ele>422.0</ele><time>2026-05-02T07:30:34.155Z</time></trkpt><trkpt lat="46.1490746" lon="13.6005878"><ele>423.0</ele><time>2026-05-02T07:30:35.147Z</time></trkpt><trkpt lat="46.1490043" lon="13.6005079"><ele>426.8333333333333</ele><time>2026-05-02T07:30:36.149Z</time></trkpt><trkpt lat="46.1489357" lon="13.6004478"><ele>430.66666666666663</ele><time>2026-05-02T07:30:37.162Z</time></trkpt><trkpt lat="46.1488661" lon="13.6004061"><ele>434.5</ele><time>2026-05-02T07:30:38.154Z</time></trkpt><trkpt lat="46.1487876" lon="13.6003669"><ele>438.3333333333333</ele><time>2026-05-02T07:30:39.159Z</time></trkpt><trkpt lat="46.1486986" lon="13.6003365"><ele>442.16666666666663</ele><time>2026-05-02T07:30:40.158Z</time></trkpt><trkpt lat="46.1486061" lon="13.6003007"><ele>446.0</ele><time>2026-05-02T07:30:41.161Z</time></trkpt><trkpt lat="46.1485237" lon="13.6002756"><ele>445.99999999999994</ele><time>2026-05-02T07:30:42.166Z</time></trkpt><trkpt lat="46.1484533" lon="13.6002561"><ele>446.0</ele><time>2026-05-02T07:30:43.153Z</time></trkpt><trkpt lat="46.1483657" lon="13.6002737"><ele>446.0</ele><time>2026-05-02T07:30:45.155Z</time></trkpt><trkpt lat="46.1483867" lon="13.6004496"><ele>446.0</ele><time>2026-05-02T07:30:48.154Z</time></trkpt><trkpt lat="46.1484224" lon="13.6005345"><ele>445.99999999999994</ele><time>2026-05-02T07:30:49.16Z</time></trkpt><trkpt lat="46.1484578" lon="13.6006295"><ele>446.0</ele><time>2026-05-02T07:30:50.161Z</time></trkpt><trkpt lat="46.1484964" lon="13.6007193"><ele>445.99999999999994</ele><time>2026-05-02T07:30:51.153Z</time></trkpt><trkpt lat="46.1485486" lon="13.6008081"><ele>446.0</ele><time>2026-05-02T07:30:52.156Z</time></trkpt><trkpt lat="46.1486022" lon="13.6009134"><ele>446.0</ele><time>2026-05-02T07:30:53.173Z</time></trkpt><trkpt lat="46.1486592" lon="13.6010119"><ele>446.0</ele><time>2026-05-02T07:30:54.158Z</time></trkpt><trkpt lat="46.1487118" lon="13.601112"><ele>445.99999999999994</ele><time>2026-05-02T07:30:55.157Z</time></trkpt><trkpt lat="46.1487612" lon="13.6012093"><ele>446.0</ele><time>2026-05-02T07:30:56.151Z</time></trkpt><trkpt lat="46.1487875" lon="13.6013176"><ele>445.16666666666663</ele><time>2026-05-02T07:30:57.162Z</time></trkpt><trkpt lat="46.1488039" lon="13.6014331"><ele>444.3333333333333</ele><time>2026-05-02T07:30:58.156Z</time></trkpt><trkpt lat="46.1488146" lon="13.601539"><ele>443.5</ele><time>2026-05-02T07:30:59.158Z</time></trkpt><trkpt lat="46.1488112" lon="13.6016339"><ele>442.66666666666663</ele><time>2026-05-02T07:31:00.156Z</time></trkpt><trkpt lat="46.1487621" lon="13.6017505"><ele>441.8333333333333</ele><time>2026-05-02T07:31:02.164Z</time></trkpt><trkpt lat="46.148642" lon="13.6018252"><ele>441.0</ele><time>2026-05-02T07:31:04.153Z</time></trkpt><trkpt lat="46.1485574" lon="13.601844"><ele>441.0</ele><time>2026-05-02T07:31:05.156Z</time></trkpt><trkpt lat="46.1484629" lon="13.6018483"><ele>441.0</ele><time>2026-05-02T07:31:06.144Z</time></trkpt><trkpt lat="46.1483582" lon="13.6018444"><ele>441.0</ele><time>2026-05-02T07:31:07.162Z</time></trkpt><trkpt lat="46.1482557" lon="13.6018357"><ele>441.0</ele><time>2026-05-02T07:31:08.164Z</time></trkpt><trkpt lat="46.1481591" lon="13.6018366"><ele>441.0</ele><time>2026-05-02T07:31:09.159Z</time></trkpt><trkpt lat="46.1480654" lon="13.6018358"><ele>443.7142857142857</ele><time>2026-05-02T07:31:10.165Z</time></trkpt><trkpt lat="46.1479806" lon="13.6018375"><ele>446.42857142857144</ele><time>2026-05-02T07:31:11.157Z</time></trkpt><trkpt lat="46.1479006" lon="13.6018312"><ele>449.1428571428571</ele><time>2026-05-02T07:31:12.158Z</time></trkpt><trkpt lat="46.1478236" lon="13.6018136"><ele>451.85714285714283</ele><time>2026-05-02T07:31:13.161Z</time></trkpt><trkpt lat="46.1477578" lon="13.6017884"><ele>454.57142857142856</ele><time>2026-05-02T07:31:14.157Z</time></trkpt><trkpt lat="46.1476946" lon="13.6017464"><ele>457.2857142857142</ele><time>2026-05-02T07:31:15.148Z</time></trkpt><trkpt lat="46.1476313" lon="13.6017163"><ele>459.99999999999994</ele><time>2026-05-02T07:31:16.173Z</time></trkpt><trkpt lat="46.1475139" lon="13.6016819"><ele>460.00000000000006</ele><time>2026-05-02T07:31:18.15Z</time></trkpt><trkpt lat="46.1474226" lon="13.601712"><ele>460.0</ele><time>2026-05-02T07:31:20.168Z</time></trkpt><trkpt lat="46.1473564" lon="13.6017403"><ele>460.0</ele><time>2026-05-02T07:31:23.143Z</time></trkpt><trkpt lat="46.1472512" lon="13.6017397"><ele>460.0</ele><time>2026-05-02T07:31:26.169Z</time></trkpt><trkpt lat="46.1471793" lon="13.6017431"><ele>460.00000000000006</ele><time>2026-05-02T07:31:27.151Z</time></trkpt><trkpt lat="46.1471106" lon="13.6017449"><ele>460.0</ele><time>2026-05-02T07:31:28.159Z</time></trkpt><trkpt lat="46.1470261" lon="13.6017625"><ele>459.33333333333337</ele><time>2026-05-02T07:31:29.161Z</time></trkpt><trkpt lat="46.1469455" lon="13.6017784"><ele>458.6666666666667</ele><time>2026-05-02T07:31:30.158Z</time></trkpt><trkpt lat="46.146872" lon="13.6018138"><ele>458.0</ele><time>2026-05-02T07:31:31.163Z</time></trkpt><trkpt lat="46.1467975" lon="13.6018765"><ele>457.33333333333337</ele><time>2026-05-02T07:31:32.166Z</time></trkpt><trkpt lat="46.1467304" lon="13.6019547"><ele>456.6666666666667</ele><time>2026-05-02T07:31:33.152Z</time></trkpt><trkpt lat="46.1466629" lon="13.6020391"><ele>456.0</ele><time>2026-05-02T07:31:34.173Z</time></trkpt><trkpt lat="46.146597" lon="13.6021123"><ele>461.3333333333333</ele><time>2026-05-02T07:31:35.146Z</time></trkpt><trkpt lat="46.1465347" lon="13.602179"><ele>466.66666666666663</ele><time>2026-05-02T07:31:36.15Z</time></trkpt><trkpt lat="46.1464733" lon="13.6022425"><ele>472.0</ele><time>2026-05-02T07:31:37.15Z</time></trkpt><trkpt lat="46.146418" lon="13.6022936"><ele>477.3333333333333</ele><time>2026-05-02T07:31:38.151Z</time></trkpt><trkpt lat="46.1462981" lon="13.602298"><ele>482.66666666666663</ele><time>2026-05-02T07:31:40.16Z</time></trkpt><trkpt lat="46.1462204" lon="13.6022754"><ele>488.0</ele><time>2026-05-02T07:31:41.161Z</time></trkpt><trkpt lat="46.1461434" lon="13.6022375"><ele>487.99999999999994</ele><time>2026-05-02T07:31:42.149Z</time></trkpt><trkpt lat="46.1460811" lon="13.6022109"><ele>488.0</ele><time>2026-05-02T07:31:43.156Z</time></trkpt><trkpt lat="46.1459899" lon="13.602252"><ele>488.0</ele><time>2026-05-02T07:31:45.159Z</time></trkpt><trkpt lat="46.145976" lon="13.6024207"><ele>488.0</ele><time>2026-05-02T07:31:47.166Z</time></trkpt><trkpt lat="46.1460001" lon="13.6025161"><ele>487.99999999999994</ele><time>2026-05-02T07:31:48.163Z</time></trkpt><trkpt lat="46.1460364" lon="13.6026205"><ele>488.0</ele><time>2026-05-02T07:31:49.146Z</time></trkpt><trkpt lat="46.1460776" lon="13.6027247"><ele>487.99999999999994</ele><time>2026-05-02T07:31:50.161Z</time></trkpt><trkpt lat="46.1461001" lon="13.6028259"><ele>488.0</ele><time>2026-05-02T07:31:51.153Z</time></trkpt><trkpt lat="46.146102" lon="13.6029301"><ele>488.0</ele><time>2026-05-02T07:31:52.151Z</time></trkpt><trkpt lat="46.1460715" lon="13.603028"><ele>488.0</ele><time>2026-05-02T07:31:53.15Z</time></trkpt><trkpt lat="46.1460277" lon="13.6031233"><ele>487.99999999999994</ele><time>2026-05-02T07:31:54.15Z</time></trkpt><trkpt lat="46.1459708" lon="13.6032134"><ele>488.0</ele><time>2026-05-02T07:31:55.153Z</time></trkpt><trkpt lat="46.1459005" lon="13.6033032"><ele>486.0</ele><time>2026-05-02T07:31:56.153Z</time></trkpt><trkpt lat="46.1458313" lon="13.6033983"><ele>483.99999999999994</ele><time>2026-05-02T07:31:57.156Z</time></trkpt><trkpt lat="46.1457645" lon="13.6035015"><ele>481.99999999999994</ele><time>2026-05-02T07:31:58.171Z</time></trkpt><trkpt lat="46.1456911" lon="13.6036132"><ele>480.0</ele><time>2026-05-02T07:31:59.158Z</time></trkpt><trkpt lat="46.1456263" lon="13.6037133"><ele>478.0</ele><time>2026-05-02T07:32:00.149Z</time></trkpt><trkpt lat="46.1455802" lon="13.6038032"><ele>483.1666666666667</ele><time>2026-05-02T07:32:01.158Z</time></trkpt><trkpt lat="46.1455154" lon="13.6038144"><ele>488.33333333333337</ele><time>2026-05-02T07:32:04.154Z</time></trkpt><trkpt lat="46.1455111" lon="13.6036818"><ele>493.5</ele><time>2026-05-02T07:32:06.151Z</time></trkpt><trkpt lat="46.1455385" lon="13.6035868"><ele>498.66666666666663</ele><time>2026-05-02T07:32:07.161Z</time></trkpt><trkpt lat="46.1455715" lon="13.6034969"><ele>503.8333333333333</ele><time>2026-05-02T07:32:08.159Z</time></trkpt><trkpt lat="46.1456164" lon="13.6033862"><ele>509.0</ele><time>2026-05-02T07:32:09.151Z</time></trkpt><trkpt lat="46.1456395" lon="13.6032388"><ele>510.79999999999995</ele><time>2026-05-02T07:32:10.153Z</time></trkpt><trkpt lat="46.1456441" lon="13.6030768"><ele>512.5999999999999</ele><time>2026-05-02T07:32:11.156Z</time></trkpt><trkpt lat="46.1456535" lon="13.6029443"><ele>514.4</ele><time>2026-05-02T07:32:12.145Z</time></trkpt><trkpt lat="46.1456583" lon="13.6028455"><ele>516.1999999999999</ele><time>2026-05-02T07:32:13.17Z</time></trkpt><trkpt lat="46.1456388" lon="13.6026678"><ele>518.0</ele><time>2026-05-02T07:32:15.154Z</time></trkpt><trkpt lat="46.1456074" lon="13.6025561"><ele>518.0</ele><time>2026-05-02T07:32:17.153Z</time></trkpt><trkpt lat="46.1455532" lon="13.6026337"><ele>518.0</ele><time>2026-05-02T07:32:35.153Z</time></trkpt><trkpt lat="46.1455348" lon="13.6027262"><ele>518.0</ele><time>2026-05-02T07:32:37.154Z</time></trkpt><trkpt lat="46.1454915" lon="13.6028716"><ele>518.0</ele><time>2026-05-02T07:32:39.157Z</time></trkpt><trkpt lat="46.1454584" lon="13.602951"><ele>518.0</ele><time>2026-05-02T07:32:40.151Z</time></trkpt><trkpt lat="46.1454213" lon="13.6030309"><ele>518.0</ele><time>2026-05-02T07:32:41.16Z</time></trkpt><trkpt lat="46.1453408" lon="13.6031422"><ele>518.0</ele><time>2026-05-02T07:32:43.168Z</time></trkpt><trkpt lat="46.1452604" lon="13.6031899"><ele>518.0</ele><time>2026-05-02T07:32:45.157Z</time></trkpt><trkpt lat="46.1451842" lon="13.6032544"><ele>518.0</ele><time>2026-05-02T07:32:47.151Z</time></trkpt><trkpt lat="46.1451202" lon="13.6032475"><ele>518.0</ele><time>2026-05-02T07:33:05.162Z</time></trkpt><trkpt lat="46.1450288" lon="13.6033088"><ele>518.0</ele><time>2026-05-02T07:33:07.164Z</time></trkpt><trkpt lat="46.1449551" lon="13.6034108"><ele>518.0</ele><time>2026-05-02T07:33:09.158Z</time></trkpt><trkpt lat="46.1449216" lon="13.6035098"><ele>518.0</ele><time>2026-05-02T07:33:10.153Z</time></trkpt><trkpt lat="46.1448948" lon="13.603631"><ele>518.0</ele><time>2026-05-02T07:33:11.151Z</time></trkpt><trkpt lat="46.1448699" lon="13.6037522"><ele>518.0</ele><time>2026-05-02T07:33:12.148Z</time></trkpt><trkpt lat="46.1448392" lon="13.6038672"><ele>518.0</ele><time>2026-05-02T07:33:13.156Z</time></trkpt><trkpt lat="46.1448067" lon="13.6039739"><ele>518.0</ele><time>2026-05-02T07:33:14.163Z</time></trkpt><trkpt lat="46.1447683" lon="13.6040571"><ele>518.0</ele><time>2026-05-02T07:33:15.152Z</time></trkpt><trkpt lat="46.144713" lon="13.6041883"><ele>522.6666666666666</ele><time>2026-05-02T07:33:17.158Z</time></trkpt><trkpt lat="46.1447109" lon="13.6042933"><ele>527.3333333333333</ele><time>2026-05-02T07:33:18.166Z</time></trkpt><trkpt lat="46.144703" lon="13.6043954"><ele>532.0</ele><time>2026-05-02T07:33:19.153Z</time></trkpt><trkpt lat="46.1446877" lon="13.6044875"><ele>536.6666666666666</ele><time>2026-05-02T07:33:20.164Z</time></trkpt><trkpt lat="46.1446059" lon="13.6045769"><ele>541.3333333333334</ele><time>2026-05-02T07:33:22.167Z</time></trkpt><trkpt lat="46.1445357" lon="13.6045487"><ele>546.0</ele><time>2026-05-02T07:33:23.158Z</time></trkpt><trkpt lat="46.1444708" lon="13.6045019"><ele>547.4</ele><time>2026-05-02T07:33:24.164Z</time></trkpt><trkpt lat="46.1444119" lon="13.6043476"><ele>548.8</ele><time>2026-05-02T07:33:26.149Z</time></trkpt><trkpt lat="46.1444094" lon="13.6042298"><ele>550.1999999999999</ele><time>2026-05-02T07:33:27.154Z</time></trkpt><trkpt lat="46.1444118" lon="13.6040852"><ele>551.6</ele><time>2026-05-02T07:33:28.153Z</time></trkpt><trkpt lat="46.1444187" lon="13.603922"><ele>553.0</ele><time>2026-05-02T07:33:29.151Z</time></trkpt><trkpt lat="46.1444334" lon="13.6037475"><ele>555.5</ele><time>2026-05-02T07:33:30.17Z</time></trkpt><trkpt lat="46.1444422" lon="13.6035823"><ele>558.0</ele><time>2026-05-02T07:33:31.154Z</time></trkpt><trkpt lat="46.1444375" lon="13.6034109"><ele>560.5</ele><time>2026-05-02T07:33:32.16Z</time></trkpt><trkpt lat="46.1444313" lon="13.6032409"><ele>563.0</ele><time>2026-05-02T07:33:33.157Z</time></trkpt><trkpt lat="46.144433" lon="13.6030964"><ele>563.0</ele><time>2026-05-02T07:33:34.148Z</time></trkpt><trkpt lat="46.1444494" lon="13.6029755"><ele>563.0</ele><time>2026-05-02T07:33:35.169Z</time></trkpt><trkpt lat="46.1444804" lon="13.6028861"><ele>563.0</ele><time>2026-05-02T07:33:36.157Z</time></trkpt><trkpt lat="46.1445256" lon="13.6028075"><ele>563.0</ele><time>2026-05-02T07:33:37.17Z</time></trkpt><trkpt lat="46.1445704" lon="13.6027206"><ele>563.0</ele><time>2026-05-02T07:33:38.157Z</time></trkpt><trkpt lat="46.144619" lon="13.6026172"><ele>563.0</ele><time>2026-05-02T07:33:39.148Z</time></trkpt><trkpt lat="46.1446717" lon="13.6025057"><ele>565.0</ele><time>2026-05-02T07:33:40.162Z</time></trkpt><trkpt lat="46.1447179" lon="13.6024088"><ele>567.0</ele><time>2026-05-02T07:33:41.155Z</time></trkpt><trkpt lat="46.1447528" lon="13.6023285"><ele>569.0</ele><time>2026-05-02T07:33:42.161Z</time></trkpt><trkpt lat="46.1447708" lon="13.602166"><ele>571.0</ele><time>2026-05-02T07:33:44.162Z</time></trkpt><trkpt lat="46.1447858" lon="13.6020649"><ele>573.0</ele><time>2026-05-02T07:33:45.164Z</time></trkpt><trkpt lat="46.1447933" lon="13.6019391"><ele>575.0</ele><time>2026-05-02T07:33:46.159Z</time></trkpt><trkpt lat="46.144806" lon="13.6018008"><ele>578.75</ele><time>2026-05-02T07:33:47.162Z</time></trkpt><trkpt lat="46.1448323" lon="13.6016448"><ele>582.5</ele><time>2026-05-02T07:33:48.159Z</time></trkpt><trkpt lat="46.1448473" lon="13.6014756"><ele>586.25</ele><time>2026-05-02T07:33:49.161Z</time></trkpt><trkpt lat="46.1448765" lon="13.6013155"><ele>590.0</ele><time>2026-05-02T07:33:50.176Z</time></trkpt><trkpt lat="46.1448924" lon="13.6011649"><ele>583.8</ele><time>2026-05-02T07:33:51.152Z</time></trkpt><trkpt lat="46.1448921" lon="13.6010144"><ele>577.6</ele><time>2026-05-02T07:33:52.152Z</time></trkpt><trkpt lat="46.1448828" lon="13.6008778"><ele>571.4</ele><time>2026-05-02T07:33:53.146Z</time></trkpt><trkpt lat="46.1448956" lon="13.6007871"><ele>565.2</ele><time>2026-05-02T07:33:54.175Z</time></trkpt><trkpt lat="46.1449876" lon="13.6007195"><ele>559.0</ele><time>2026-05-02T07:33:56.154Z</time></trkpt><trkpt lat="46.1450718" lon="13.6007052"><ele>559.0</ele><time>2026-05-02T07:33:57.149Z</time></trkpt><trkpt lat="46.1451546" lon="13.6006645"><ele>559.0</ele><time>2026-05-02T07:33:58.15Z</time></trkpt><trkpt lat="46.1452377" lon="13.6005914"><ele>559.0</ele><time>2026-05-02T07:33:59.155Z</time></trkpt><trkpt lat="46.1453056" lon="13.6004993"><ele>559.0</ele><time>2026-05-02T07:34:00.16Z</time></trkpt><trkpt lat="46.1453597" lon="13.6003546"><ele>559.0</ele><time>2026-05-02T07:34:01.17Z</time></trkpt><trkpt lat="46.1454169" lon="13.6002085"><ele>563.25</ele><time>2026-05-02T07:34:02.155Z</time></trkpt><trkpt lat="46.1454953" lon="13.6000676"><ele>567.5</ele><time>2026-05-02T07:34:03.163Z</time></trkpt><trkpt lat="46.1455708" lon="13.5999234"><ele>571.75</ele><time>2026-05-02T07:34:04.173Z</time></trkpt><trkpt lat="46.1456457" lon="13.5997924"><ele>576.0</ele><time>2026-05-02T07:34:05.169Z</time></trkpt><trkpt lat="46.1456954" lon="13.5996642"><ele>577.6666666666666</ele><time>2026-05-02T07:34:06.162Z</time></trkpt><trkpt lat="46.1457296" lon="13.5995438"><ele>579.3333333333334</ele><time>2026-05-02T07:34:07.157Z</time></trkpt><trkpt lat="46.1457422" lon="13.5994292"><ele>581.0</ele><time>2026-05-02T07:34:08.161Z</time></trkpt><trkpt lat="46.1457379" lon="13.5993353"><ele>582.6666666666667</ele><time>2026-05-02T07:34:09.149Z</time></trkpt><trkpt lat="46.1456666" lon="13.5991848"><ele>584.3333333333334</ele><time>2026-05-02T07:34:11.148Z</time></trkpt><trkpt lat="46.1456005" lon="13.5991036"><ele>586.0</ele><time>2026-05-02T07:34:12.162Z</time></trkpt><trkpt lat="46.1455147" lon="13.5990092"><ele>586.0</ele><time>2026-05-02T07:34:13.149Z</time></trkpt><trkpt lat="46.145422" lon="13.5989124"><ele>586.0</ele><time>2026-05-02T07:34:14.153Z</time></trkpt><trkpt lat="46.1453421" lon="13.5988088"><ele>586.0</ele><time>2026-05-02T07:34:15.151Z</time></trkpt><trkpt lat="46.145276" lon="13.5987074"><ele>586.0</ele><time>2026-05-02T07:34:16.151Z</time></trkpt><trkpt lat="46.1452236" lon="13.5986134"><ele>586.0</ele><time>2026-05-02T07:34:17.157Z</time></trkpt><trkpt lat="46.1452118" lon="13.5984613"><ele>585.6666666666667</ele><time>2026-05-02T07:34:19.152Z</time></trkpt><trkpt lat="46.1452601" lon="13.5983838"><ele>585.3333333333334</ele><time>2026-05-02T07:34:20.157Z</time></trkpt><trkpt lat="46.1453185" lon="13.5983304"><ele>585.0</ele><time>2026-05-02T07:34:21.155Z</time></trkpt><trkpt lat="46.1453938" lon="13.598309"><ele>584.6666666666666</ele><time>2026-05-02T07:34:22.162Z</time></trkpt><trkpt lat="46.1454792" lon="13.5982846"><ele>584.3333333333333</ele><time>2026-05-02T07:34:23.155Z</time></trkpt><trkpt lat="46.1455384" lon="13.5982487"><ele>584.0</ele><time>2026-05-02T07:34:24.148Z</time></trkpt><trkpt lat="46.1456019" lon="13.5981036"><ele>584.0</ele><time>2026-05-02T07:34:26.164Z</time></trkpt><trkpt lat="46.145667" lon="13.597993"><ele>584.0</ele><time>2026-05-02T07:34:28.159Z</time></trkpt><trkpt lat="46.1457493" lon="13.5979849"><ele>584.0</ele><time>2026-05-02T07:34:30.159Z</time></trkpt><trkpt lat="46.1458207" lon="13.597978"><ele>584.0</ele><time>2026-05-02T07:34:44.166Z</time></trkpt><trkpt lat="46.1459368" lon="13.5979463"><ele>584.0</ele><time>2026-05-02T07:34:46.165Z</time></trkpt><trkpt lat="46.1460204" lon="13.5979069"><ele>581.8333333333333</ele><time>2026-05-02T07:34:47.152Z</time></trkpt><trkpt lat="46.1460986" lon="13.5978496"><ele>579.6666666666666</ele><time>2026-05-02T07:34:48.17Z</time></trkpt><trkpt lat="46.1461688" lon="13.5977717"><ele>577.5</ele><time>2026-05-02T07:34:49.152Z</time></trkpt><trkpt lat="46.1462302" lon="13.5976926"><ele>575.3333333333334</ele><time>2026-05-02T07:34:50.153Z</time></trkpt><trkpt lat="46.1462885" lon="13.5976055"><ele>573.1666666666667</ele><time>2026-05-02T07:34:51.159Z</time></trkpt><trkpt lat="46.1463391" lon="13.5975423"><ele>571.0</ele><time>2026-05-02T07:34:52.163Z</time></trkpt><trkpt lat="46.1463996" lon="13.5973998"><ele>571.0</ele><time>2026-05-02T07:34:54.158Z</time></trkpt><trkpt lat="46.1463505" lon="13.5972169"><ele>571.0</ele><time>2026-05-02T07:34:56.16Z</time></trkpt><trkpt lat="46.146306" lon="13.5971432"><ele>571.0</ele><time>2026-05-02T07:34:57.149Z</time></trkpt><trkpt lat="46.1462907" lon="13.5970013"><ele>571.0</ele><time>2026-05-02T07:34:59.158Z</time></trkpt><trkpt lat="46.1463819" lon="13.5968842"><ele>571.0</ele><time>2026-05-02T07:35:01.145Z</time></trkpt><trkpt lat="46.1464408" lon="13.5968102"><ele>574.0</ele><time>2026-05-02T07:35:02.149Z</time></trkpt><trkpt lat="46.1464954" lon="13.5967021"><ele>577.0</ele><time>2026-05-02T07:35:03.168Z</time></trkpt><trkpt lat="46.1465546" lon="13.5965732"><ele>580.0</ele><time>2026-05-02T07:35:04.168Z</time></trkpt><trkpt lat="46.1466179" lon="13.596432"><ele>583.0</ele><time>2026-05-02T07:35:05.161Z</time></trkpt><trkpt lat="46.1466741" lon="13.5963039"><ele>586.0</ele><time>2026-05-02T07:35:06.158Z</time></trkpt><trkpt lat="46.1467029" lon="13.5961886"><ele>585.8</ele><time>2026-05-02T07:35:07.165Z</time></trkpt><trkpt lat="46.1466929" lon="13.5960513"><ele>585.6</ele><time>2026-05-02T07:35:09.17Z</time></trkpt><trkpt lat="46.1465921" lon="13.5959527"><ele>585.4</ele><time>2026-05-02T07:35:11.164Z</time></trkpt><trkpt lat="46.1465045" lon="13.5959177"><ele>585.2</ele><time>2026-05-02T07:35:12.151Z</time></trkpt><trkpt lat="46.1464167" lon="13.5958903"><ele>585.0</ele><time>2026-05-02T07:35:13.154Z</time></trkpt><trkpt lat="46.1463375" lon="13.5958659"><ele>585.0</ele><time>2026-05-02T07:35:14.158Z</time></trkpt><trkpt lat="46.1462762" lon="13.5958278"><ele>585.0</ele><time>2026-05-02T07:35:15.165Z</time></trkpt><trkpt lat="46.1462412" lon="13.5956998"><ele>585.0</ele><time>2026-05-02T07:35:17.158Z</time></trkpt><trkpt lat="46.1462612" lon="13.5956102"><ele>585.0</ele><time>2026-05-02T07:35:18.157Z</time></trkpt><trkpt lat="46.1462973" lon="13.5955007"><ele>585.0</ele><time>2026-05-02T07:35:19.157Z</time></trkpt><trkpt lat="46.1463474" lon="13.5953661"><ele>585.0</ele><time>2026-05-02T07:35:20.155Z</time></trkpt><trkpt lat="46.1463964" lon="13.5952289"><ele>585.0</ele><time>2026-05-02T07:35:21.156Z</time></trkpt><trkpt lat="46.1464443" lon="13.5950883"><ele>585.0</ele><time>2026-05-02T07:35:22.16Z</time></trkpt><trkpt lat="46.1464969" lon="13.5949538"><ele>585.0</ele><time>2026-05-02T07:35:23.17Z</time></trkpt><trkpt lat="46.14654" lon="13.5948364"><ele>585.0</ele><time>2026-05-02T07:35:24.164Z</time></trkpt><trkpt lat="46.1465452" lon="13.5947056"><ele>585.0</ele><time>2026-05-02T07:35:26.161Z</time></trkpt><trkpt lat="46.1464552" lon="13.5946654"><ele>585.0</ele><time>2026-05-02T07:35:28.16Z</time></trkpt><trkpt lat="46.1463862" lon="13.5946777"><ele>585.0</ele><time>2026-05-02T07:35:29.159Z</time></trkpt><trkpt lat="46.1463018" lon="13.5947006"><ele>585.0</ele><time>2026-05-02T07:35:30.164Z</time></trkpt><trkpt lat="46.1462095" lon="13.5947135"><ele>585.0</ele><time>2026-05-02T07:35:31.162Z</time></trkpt><trkpt lat="46.1461147" lon="13.5947258"><ele>585.0</ele><time>2026-05-02T07:35:32.173Z</time></trkpt><trkpt lat="46.146029" lon="13.5947274"><ele>585.0</ele><time>2026-05-02T07:35:33.175Z</time></trkpt><trkpt lat="46.145957" lon="13.5947186"><ele>585.0</ele><time>2026-05-02T07:35:34.171Z</time></trkpt><trkpt lat="46.1458504" lon="13.5946419"><ele>585.0</ele><time>2026-05-02T07:35:36.162Z</time></trkpt><trkpt lat="46.1457537" lon="13.5945474"><ele>585.0</ele><time>2026-05-02T07:35:38.153Z</time></trkpt><trkpt lat="46.1456938" lon="13.5943954"><ele>585.0</ele><time>2026-05-02T07:35:40.165Z</time></trkpt><trkpt lat="46.1456916" lon="13.5942687"><ele>585.0</ele><time>2026-05-02T07:35:41.168Z</time></trkpt><trkpt lat="46.1456935" lon="13.5941103"><ele>589.8</ele><time>2026-05-02T07:35:42.155Z</time></trkpt><trkpt lat="46.145692" lon="13.5939456"><ele>594.6</ele><time>2026-05-02T07:35:43.156Z</time></trkpt><trkpt lat="46.1456807" lon="13.5937942"><ele>599.4</ele><time>2026-05-02T07:35:44.167Z</time></trkpt><trkpt lat="46.1456698" lon="13.593665"><ele>604.2</ele><time>2026-05-02T07:35:45.153Z</time></trkpt><trkpt lat="46.1456523" lon="13.5935621"><ele>609.0</ele><time>2026-05-02T07:35:46.154Z</time></trkpt><trkpt lat="46.1455643" lon="13.5934595"><ele>609.0</ele><time>2026-05-02T07:35:48.156Z</time></trkpt><trkpt lat="46.1454685" lon="13.593392"><ele>609.0</ele><time>2026-05-02T07:35:50.148Z</time></trkpt><trkpt lat="46.1454711" lon="13.5932195"><ele>609.0</ele><time>2026-05-02T07:35:52.16Z</time></trkpt><trkpt lat="46.1455081" lon="13.5930646"><ele>609.0</ele><time>2026-05-02T07:35:53.141Z</time></trkpt><trkpt lat="46.1455586" lon="13.5929233"><ele>608.2</ele><time>2026-05-02T07:35:54.16Z</time></trkpt><trkpt lat="46.1456189" lon="13.5927848"><ele>607.4</ele><time>2026-05-02T07:35:55.147Z</time></trkpt><trkpt lat="46.1456743" lon="13.5926668"><ele>606.6</ele><time>2026-05-02T07:35:56.149Z</time></trkpt><trkpt lat="46.1457129" lon="13.5925626"><ele>605.8</ele><time>2026-05-02T07:35:57.153Z</time></trkpt><trkpt lat="46.1457244" lon="13.5924526"><ele>605.0</ele><time>2026-05-02T07:35:58.152Z</time></trkpt><trkpt lat="46.1457263" lon="13.5923202"><ele>605.0</ele><time>2026-05-02T07:35:59.148Z</time></trkpt><trkpt lat="46.1457126" lon="13.5921941"><ele>605.0</ele><time>2026-05-02T07:36:00.148Z</time></trkpt><trkpt lat="46.1456735" lon="13.5920732"><ele>605.0</ele><time>2026-05-02T07:36:01.142Z</time></trkpt><trkpt lat="46.1456299" lon="13.591947"><ele>605.0</ele><time>2026-05-02T07:36:02.155Z</time></trkpt><trkpt lat="46.1455843" lon="13.5918177"><ele>605.0</ele><time>2026-05-02T07:36:03.16Z</time></trkpt><trkpt lat="46.1455471" lon="13.5916807"><ele>605.1666666666666</ele><time>2026-05-02T07:36:04.146Z</time></trkpt><trkpt lat="46.1455216" lon="13.5915536"><ele>605.3333333333333</ele><time>2026-05-02T07:36:05.155Z</time></trkpt><trkpt lat="46.145517" lon="13.5914554"><ele>605.5</ele><time>2026-05-02T07:36:06.154Z</time></trkpt><trkpt lat="46.1455356" lon="13.5913489"><ele>605.6666666666666</ele><time>2026-05-02T07:36:07.149Z</time></trkpt><trkpt lat="46.1455657" lon="13.5912211"><ele>605.8333333333334</ele><time>2026-05-02T07:36:08.143Z</time></trkpt><trkpt lat="46.1456016" lon="13.5910752"><ele>606.0</ele><time>2026-05-02T07:36:09.153Z</time></trkpt><trkpt lat="46.1456264" lon="13.5909342"><ele>585.0</ele><time>2026-05-02T07:36:10.158Z</time></trkpt><trkpt lat="46.1464167" lon="13.5958903"><ele>585.0</ele><time>2026-05-02T07:35:13.154Z</time></trkpt><trkpt lat="46.1463375" lon="13.5958659"><ele>585.0</ele><time>2026-05-02T07:35:14.158Z</time></trkpt><trkpt lat="46.1462762" lon="13.5958278"><ele>585.0</ele><time>2026-05-02T07:35:15.165Z</time></trkpt><trkpt lat="46.1462412" lon="13.5956998"><ele>585.0</ele><time>2026-05-02T07:35:17.158Z</time></trkpt><trkpt lat="46.1462612" lon="13.5956102"><ele>585.0</ele><time>2026-05-02T07:35:18.157Z</time></trkpt><trkpt lat="46.1462973" lon="13.5955007"><ele>585.0</ele><time>2026-05-02T07:35:19.157Z</time></trkpt><trkpt lat="46.1463474" lon="13.5953661"><ele>585.0</ele><time>2026-05-02T07:35:20.155Z</time></trkpt><trkpt lat="46.1463964" lon="13.5952289"><ele>585.0</ele><time>2026-05-02T07:35:21.156Z</time></trkpt><trkpt lat="46.1464443" lon="13.5950883"><ele>585.0</ele><time>2026-05-02T07:35:22.16Z</time></trkpt><trkpt lat="46.1464969" lon="13.5949538"><ele>585.0</ele><time>2026-05-02T07:35:23.17Z</time></trkpt><trkpt lat="46.14654" lon="13.5948364"><ele>585.0</ele><time>2026-05-02T07:35:24.164Z</time></trkpt><trkpt lat="46.1465452" lon="13.5947056"><ele>585.0</ele><time>2026-05-02T07:35:26.161Z</time></trkpt><trkpt lat="46.1464552" lon="13.5946654"><ele>585.0</ele><time>2026-05-02T07:35:28.16Z</time></trkpt><trkpt lat="46.1463862" lon="13.5946777"><ele>585.0</ele><time>2026-05-02T07:35:29.159Z</time></trkpt><trkpt lat="46.1463018" lon="13.5947006"><ele>585.0</ele><time>2026-05-02T07:35:30.164Z</time></trkpt><trkpt lat="46.1462095" lon="13.5947135"><ele>585.0</ele><time>2026-05-02T07:35:31.162Z</time></trkpt><trkpt lat="46.1461147" lon="13.5947258"><ele>585.0</ele><time>2026-05-02T07:35:32.173Z</time></trkpt><trkpt lat="46.146029" lon="13.5947274"><ele>585.0</ele><time>2026-05-02T07:35:33.175Z</time></trkpt><trkpt lat="46.145957" lon="13.5947186"><ele>585.0</ele><time>2026-05-02T07:35:34.171Z</time></trkpt><trkpt lat="46.1458504" lon="13.5946419"><ele>585.0</ele><time>2026-05-02T07:35:36.162Z</time></trkpt><trkpt lat="46.1457537" lon="13.5945474"><ele>585.0</ele><time>2026-05-02T07:35:38.153Z</time></trkpt><trkpt lat="46.1456938" lon="13.5943954"><ele>585.0</ele><time>2026-05-02T07:35:40.165Z</time></trkpt><trkpt lat="46.1456916" lon="13.5942687"><ele>589.8</ele><time>2026-05-02T07:35:41.168Z</time></trkpt><trkpt lat="46.1456935" lon="13.5941103"><ele>594.6</ele><time>2026-05-02T07:35:42.155Z</time></trkpt><trkpt lat="46.145692" lon="13.5939456"><ele>599.4</ele><time>2026-05-02T07:35:43.156Z</time></trkpt><trkpt lat="46.1456807" lon="13.5937942"><ele>604.2</ele><time>2026-05-02T07:35:44.167Z</time></trkpt><trkpt lat="46.1456698" lon="13.593665"><ele>609.0</ele><time>2026-05-02T07:35:45.153Z</time></trkpt><trkpt lat="46.1456523" lon="13.5935621"><ele>609.0</ele><time>2026-05-02T07:35:46.154Z</time></trkpt><trkpt lat="46.1455643" lon="13.5934595"><ele>609.0</ele><time>2026-05-02T07:35:48.156Z</time></trkpt><trkpt lat="46.1454685" lon="13.593392"><ele>609.0</ele><time>2026-05-02T07:35:50.148Z</time></trkpt><trkpt lat="46.1454711" lon="13.5932195"><ele>609.0</ele><time>2026-05-02T07:35:52.16Z</time></trkpt><trkpt lat="46.1455081" lon="13.5930646"><ele>609.0</ele><time>2026-05-02T07:35:53.141Z</time></trkpt><trkpt lat="46.1455586" lon="13.5929233"><ele>609.0</ele><time>2026-05-02T07:35:54.16Z</time></trkpt><trkpt lat="46.1456189" lon="13.5927848"><ele>609.0</ele><time>2026-05-02T07:35:55.147Z</time></trkpt><trkpt lat="46.1456743" lon="13.5926668"><ele>609.0</ele><time>2026-05-02T07:35:56.149Z</time></trkpt><trkpt lat="46.1457129" lon="13.5925626"><ele>609.0</ele><time>2026-05-02T07:35:57.153Z</time></trkpt><trkpt lat="46.1457244" lon="13.5924526"><ele>608.4</ele><time>2026-05-02T07:35:58.152Z</time></trkpt><trkpt lat="46.1457263" lon="13.5923202"><ele>607.8</ele><time>2026-05-02T07:35:59.148Z</time></trkpt><trkpt lat="46.1457126" lon="13.5921941"><ele>607.2</ele><time>2026-05-02T07:36:00.148Z</time></trkpt><trkpt lat="46.1456735" lon="13.5920732"><ele>606.6</ele><time>2026-05-02T07:36:01.142Z</time></trkpt><trkpt lat="46.1456299" lon="13.591947"><ele>606.0</ele><time>2026-05-02T07:36:02.155Z</time></trkpt><trkpt lat="46.1455843" lon="13.5918177"><ele>606.0</ele><time>2026-05-02T07:36:03.16Z</time></trkpt><trkpt lat="46.1455471" lon="13.5916807"><ele>606.0</ele><time>2026-05-02T07:36:04.146Z</time></trkpt><trkpt lat="46.1455216" lon="13.5915536"><ele>606.0</ele><time>2026-05-02T07:36:05.155Z</time></trkpt><trkpt lat="46.145517" lon="13.5914554"><ele>606.0</ele><time>2026-05-02T07:36:06.154Z</time></trkpt><trkpt lat="46.1455356" lon="13.5913489"><ele>606.0</ele><time>2026-05-02T07:36:07.149Z</time></trkpt><trkpt lat="46.1455657" lon="13.5912211"><ele>606.0</ele><time>2026-05-02T07:36:08.143Z</time></trkpt><trkpt lat="46.1456016" lon="13.5910752"><ele>607.0</ele><time>2026-05-02T07:36:09.153Z</time></trkpt><trkpt lat="46.1456264" lon="13.5909342"><ele>608.0</ele><time>2026-05-02T07:36:10.158Z</time></trkpt><trkpt lat="46.1456408" lon="13.5907939"><ele>609.0</ele><time>2026-05-02T07:36:11.156Z</time></trkpt><trkpt lat="46.1456568" lon="13.5906599"><ele>610.0</ele><time>2026-05-02T07:36:12.157Z</time></trkpt><trkpt lat="46.1456782" lon="13.5905279"><ele>611.0</ele><time>2026-05-02T07:36:13.151Z</time></trkpt><trkpt lat="46.1457169" lon="13.5904091"><ele>604.6666666666666</ele><time>2026-05-02T07:36:14.164Z</time></trkpt><trkpt lat="46.1457748" lon="13.5903024"><ele>598.3333333333333</ele><time>2026-05-02T07:36:15.155Z</time></trkpt><trkpt lat="46.1458316" lon="13.5902069"><ele>592.0</ele><time>2026-05-02T07:36:16.151Z</time></trkpt><trkpt lat="46.1458489" lon="13.590106"><ele>585.6666666666666</ele><time>2026-05-02T07:36:17.151Z</time></trkpt><trkpt lat="46.1458408" lon="13.5899892"><ele>579.3333333333334</ele><time>2026-05-02T07:36:18.154Z</time></trkpt><trkpt lat="46.1458254" lon="13.5898628"><ele>573.0</ele><time>2026-05-02T07:36:19.162Z</time></trkpt><trkpt lat="46.1458148" lon="13.5897346"><ele>573.0</ele><time>2026-05-02T07:36:20.159Z</time></trkpt><trkpt lat="46.1458157" lon="13.5895983"><ele>573.0</ele><time>2026-05-02T07:36:21.16Z</time></trkpt><trkpt lat="46.1458285" lon="13.5894561"><ele>573.0</ele><time>2026-05-02T07:36:22.164Z</time></trkpt><trkpt lat="46.1458391" lon="13.5893178"><ele>573.0</ele><time>2026-05-02T07:36:23.159Z</time></trkpt><trkpt lat="46.1458447" lon="13.5891839"><ele>573.0</ele><time>2026-05-02T07:36:24.148Z</time></trkpt><trkpt lat="46.1458516" lon="13.5890592"><ele>574.0</ele><time>2026-05-02T07:36:25.163Z</time></trkpt><trkpt lat="46.1458768" lon="13.5889411"><ele>575.0</ele><time>2026-05-02T07:36:26.153Z</time></trkpt><trkpt lat="46.1459178" lon="13.5888445"><ele>576.0</ele><time>2026-05-02T07:36:27.158Z</time></trkpt><trkpt lat="46.1459649" lon="13.5887709"><ele>577.0</ele><time>2026-05-02T07:36:28.146Z</time></trkpt><trkpt lat="46.1460288" lon="13.5887189"><ele>578.0</ele><time>2026-05-02T07:36:29.143Z</time></trkpt><trkpt lat="46.1461053" lon="13.5886612"><ele>579.0</ele><time>2026-05-02T07:36:30.155Z</time></trkpt><trkpt lat="46.1461927" lon="13.5885919"><ele>577.0</ele><time>2026-05-02T07:36:31.142Z</time></trkpt><trkpt lat="46.1462843" lon="13.5885232"><ele>575.0</ele><time>2026-05-02T07:36:32.167Z</time></trkpt><trkpt lat="46.1463744" lon="13.5884613"><ele>573.0</ele><time>2026-05-02T07:36:33.164Z</time></trkpt><trkpt lat="46.1464639" lon="13.5884066"><ele>571.0</ele><time>2026-05-02T07:36:34.154Z</time></trkpt><trkpt lat="46.1465534" lon="13.5883546"><ele>569.0</ele><time>2026-05-02T07:36:35.155Z</time></trkpt><trkpt lat="46.1466288" lon="13.5883108"><ele>569.0</ele><time>2026-05-02T07:36:36.179Z</time></trkpt><trkpt lat="46.1467267" lon="13.5882106"><ele>569.0</ele><time>2026-05-02T07:36:38.149Z</time></trkpt><trkpt lat="46.1466929" lon="13.5881267"><ele>569.0</ele><time>2026-05-02T07:36:41.161Z</time></trkpt><trkpt lat="46.1466259" lon="13.588172"><ele>569.0</ele><time>2026-05-02T07:36:53.15Z</time></trkpt><trkpt lat="46.1465368" lon="13.5882472"><ele>569.0</ele><time>2026-05-02T07:37:00.16Z</time></trkpt><trkpt lat="46.1464711" lon="13.5882838"><ele>569.0</ele><time>2026-05-02T07:37:01.15Z</time></trkpt><trkpt lat="46.1464023" lon="13.5883189"><ele>574.5</ele><time>2026-05-02T07:37:02.155Z</time></trkpt><trkpt lat="46.1463283" lon="13.5883541"><ele>580.0</ele><time>2026-05-02T07:37:03.165Z</time></trkpt><trkpt lat="46.1462479" lon="13.588396"><ele>585.5</ele><time>2026-05-02T07:37:04.166Z</time></trkpt><trkpt lat="46.1461639" lon="13.5884498"><ele>591.0</ele><time>2026-05-02T07:37:05.164Z</time></trkpt><trkpt lat="46.1460774" lon="13.588502"><ele>596.5</ele><time>2026-05-02T07:37:06.149Z</time></trkpt><trkpt lat="46.1460007" lon="13.5885568"><ele>602.0</ele><time>2026-05-02T07:37:07.162Z</time></trkpt><trkpt lat="46.1459334" lon="13.5886041"><ele>602.0</ele><time>2026-05-02T07:37:08.153Z</time></trkpt><trkpt lat="46.1458689" lon="13.58867"><ele>602.0</ele><time>2026-05-02T07:37:09.151Z</time></trkpt><trkpt lat="46.1458043" lon="13.5887451"><ele>602.0</ele><time>2026-05-02T07:37:10.152Z</time></trkpt><trkpt lat="46.1457497" lon="13.5888402"><ele>602.0</ele><time>2026-05-02T07:37:11.149Z</time></trkpt><trkpt lat="46.1457078" lon="13.588946"><ele>602.0</ele><time>2026-05-02T07:37:12.168Z</time></trkpt><trkpt lat="46.145664" lon="13.5890549"><ele>602.0</ele><time>2026-05-02T07:37:13.146Z</time></trkpt><trkpt lat="46.1456283" lon="13.5891776"><ele>605.4</ele><time>2026-05-02T07:37:14.158Z</time></trkpt><trkpt lat="46.1455981" lon="13.5892998"><ele>608.8000000000001</ele><time>2026-05-02T07:37:15.156Z</time></trkpt><trkpt lat="46.1455714" lon="13.5894379"><ele>612.2</ele><time>2026-05-02T07:37:16.157Z</time></trkpt><trkpt lat="46.1455441" lon="13.5895715"><ele>615.6</ele><time>2026-05-02T07:37:17.155Z</time></trkpt><trkpt lat="46.1455205" lon="13.5896934"><ele>619.0</ele><time>2026-05-02T07:37:18.163Z</time></trkpt><trkpt lat="46.1454885" lon="13.5898116"><ele>619.0</ele><time>2026-05-02T07:37:19.16Z</time></trkpt><trkpt lat="46.145449" lon="13.5899189"><ele>619.0</ele><time>2026-05-02T07:37:20.156Z</time></trkpt><trkpt lat="46.145406" lon="13.5900216"><ele>619.0</ele><time>2026-05-02T07:37:21.16Z</time></trkpt><trkpt lat="46.1453725" lon="13.5901239"><ele>619.0</ele><time>2026-05-02T07:37:22.161Z</time></trkpt><trkpt lat="46.1453502" lon="13.5902336"><ele>619.0</ele><time>2026-05-02T07:37:23.148Z</time></trkpt><trkpt lat="46.1453356" lon="13.5903403"><ele>619.0</ele><time>2026-05-02T07:37:24.17Z</time></trkpt><trkpt lat="46.1453198" lon="13.5904528"><ele>617.6666666666667</ele><time>2026-05-02T07:37:25.155Z</time></trkpt><trkpt lat="46.1453028" lon="13.5905673"><ele>616.3333333333334</ele><time>2026-05-02T07:37:26.166Z</time></trkpt><trkpt lat="46.1452873" lon="13.5906912"><ele>615.0</ele><time>2026-05-02T07:37:27.152Z</time></trkpt><trkpt lat="46.145258" lon="13.5908112"><ele>613.6666666666666</ele><time>2026-05-02T07:37:28.151Z</time></trkpt><trkpt lat="46.1452278" lon="13.5909305"><ele>612.3333333333333</ele><time>2026-05-02T07:37:29.152Z</time></trkpt><trkpt lat="46.1451861" lon="13.5910443"><ele>611.0</ele><time>2026-05-02T07:37:30.154Z</time></trkpt><trkpt lat="46.145136" lon="13.591149"><ele>610.1666666666666</ele><time>2026-05-02T07:37:31.147Z</time></trkpt><trkpt lat="46.1450875" lon="13.5912356"><ele>609.3333333333333</ele><time>2026-05-02T07:37:32.158Z</time></trkpt><trkpt lat="46.1450496" lon="13.5913126"><ele>608.5</ele><time>2026-05-02T07:37:33.16Z</time></trkpt><trkpt lat="46.1450152" lon="13.5913904"><ele>607.6666666666666</ele><time>2026-05-02T07:37:34.16Z</time></trkpt><trkpt lat="46.1449935" lon="13.5915706"><ele>606.8333333333334</ele><time>2026-05-02T07:37:36.165Z</time></trkpt><trkpt lat="46.1450001" lon="13.5916896"><ele>606.0</ele><time>2026-05-02T07:37:37.16Z</time></trkpt><trkpt lat="46.1450088" lon="13.5918271"><ele>606.0</ele><time>2026-05-02T07:37:38.172Z</time></trkpt><trkpt lat="46.1450045" lon="13.5919718"><ele>606.0</ele><time>2026-05-02T07:37:39.16Z</time></trkpt><trkpt lat="46.1449841" lon="13.5921036"><ele>606.0</ele><time>2026-05-02T07:37:40.177Z</time></trkpt><trkpt lat="46.144954" lon="13.5922187"><ele>606.0</ele><time>2026-05-02T07:37:41.159Z</time></trkpt><trkpt lat="46.144922" lon="13.5923387"><ele>606.0</ele><time>2026-05-02T07:37:42.162Z</time></trkpt><trkpt lat="46.1449018" lon="13.5924559"><ele>605.8333333333334</ele><time>2026-05-02T07:37:43.172Z</time></trkpt><trkpt lat="46.144903" lon="13.5925774"><ele>605.6666666666666</ele><time>2026-05-02T07:37:44.155Z</time></trkpt><trkpt lat="46.1449162" lon="13.5927113"><ele>605.5</ele><time>2026-05-02T07:37:45.172Z</time></trkpt><trkpt lat="46.1449334" lon="13.5928316"><ele>605.3333333333333</ele><time>2026-05-02T07:37:46.153Z</time></trkpt><trkpt lat="46.1449325" lon="13.5929411"><ele>605.1666666666666</ele><time>2026-05-02T07:37:47.18Z</time></trkpt><trkpt lat="46.1449175" lon="13.5930387"><ele>605.0</ele><time>2026-05-02T07:37:48.165Z</time></trkpt><trkpt lat="46.1448783" lon="13.5931201"><ele>605.6666666666666</ele><time>2026-05-02T07:37:49.157Z</time></trkpt><trkpt lat="46.1448432" lon="13.593212"><ele>606.3333333333333</ele><time>2026-05-02T07:37:50.162Z</time></trkpt><trkpt lat="46.1448117" lon="13.5932991"><ele>607.0</ele><time>2026-05-02T07:37:51.161Z</time></trkpt><trkpt lat="46.1447573" lon="13.5934063"><ele>607.6666666666666</ele><time>2026-05-02T07:37:53.174Z</time></trkpt><trkpt lat="46.1446946" lon="13.5933728"><ele>608.3333333333334</ele><time>2026-05-02T07:37:55.167Z</time></trkpt><trkpt lat="46.1446363" lon="13.5932812"><ele>609.0</ele><time>2026-05-02T07:37:57.162Z</time></trkpt><trkpt lat="46.1446425" lon="13.5931576"><ele>609.0</ele><time>2026-05-02T07:38:02.151Z</time></trkpt><trkpt lat="46.144638" lon="13.5930602"><ele>609.0</ele><time>2026-05-02T07:38:03.166Z</time></trkpt><trkpt lat="46.1446106" lon="13.5929549"><ele>609.0</ele><time>2026-05-02T07:38:04.159Z</time></trkpt><trkpt lat="46.144579" lon="13.5928351"><ele>609.0</ele><time>2026-05-02T07:38:05.153Z</time></trkpt><trkpt lat="46.1445407" lon="13.592715"><ele>609.0</ele><time>2026-05-02T07:38:06.17Z</time></trkpt><trkpt lat="46.1444976" lon="13.5925933"><ele>609.0</ele><time>2026-05-02T07:38:07.163Z</time></trkpt><trkpt lat="46.1444618" lon="13.5924698"><ele>608.8</ele><time>2026-05-02T07:38:08.166Z</time></trkpt><trkpt lat="46.1444234" lon="13.5923275"><ele>608.5999999999999</ele><time>2026-05-02T07:38:09.158Z</time></trkpt><trkpt lat="46.1443798" lon="13.5921968"><ele>608.4</ele><time>2026-05-02T07:38:10.164Z</time></trkpt><trkpt lat="46.1443401" lon="13.5920715"><ele>608.1999999999999</ele><time>2026-05-02T07:38:11.153Z</time></trkpt><trkpt lat="46.1443233" lon="13.5919516"><ele>608.0</ele><time>2026-05-02T07:38:12.168Z</time></trkpt><trkpt lat="46.1443269" lon="13.5918425"><ele>608.0</ele><time>2026-05-02T07:38:13.171Z</time></trkpt><trkpt lat="46.1443305" lon="13.5917483"><ele>608.0</ele><time>2026-05-02T07:38:14.154Z</time></trkpt><trkpt lat="46.1443034" lon="13.5915902"><ele>608.0</ele><time>2026-05-02T07:38:16.159Z</time></trkpt><trkpt lat="46.1442419" lon="13.5915459"><ele>608.0</ele><time>2026-05-02T07:38:17.156Z</time></trkpt><trkpt lat="46.1441659" lon="13.5915017"><ele>608.0</ele><time>2026-05-02T07:38:18.149Z</time></trkpt><trkpt lat="46.1440857" lon="13.5914569"><ele>608.0</ele><time>2026-05-02T07:38:19.149Z</time></trkpt><trkpt lat="46.1440155" lon="13.5914023"><ele>605.0</ele><time>2026-05-02T07:38:20.156Z</time></trkpt><trkpt lat="46.1439427" lon="13.5913346"><ele>602.0</ele><time>2026-05-02T07:38:21.157Z</time></trkpt><trkpt lat="46.1438775" lon="13.5912651"><ele>599.0</ele><time>2026-05-02T07:38:22.168Z</time></trkpt><trkpt lat="46.1438108" lon="13.5911873"><ele>596.0</ele><time>2026-05-02T07:38:23.149Z</time></trkpt><trkpt lat="46.143757" lon="13.591102"><ele>593.0</ele><time>2026-05-02T07:38:24.166Z</time></trkpt><trkpt lat="46.1437099" lon="13.5909972"><ele>590.0</ele><time>2026-05-02T07:38:25.148Z</time></trkpt><trkpt lat="46.143668" lon="13.5908866"><ele>589.8</ele><time>2026-05-02T07:38:26.179Z</time></trkpt><trkpt lat="46.1436252" lon="13.5907665"><ele>589.6</ele><time>2026-05-02T07:38:27.144Z</time></trkpt><trkpt lat="46.1435941" lon="13.5906395"><ele>589.4</ele><time>2026-05-02T07:38:28.145Z</time></trkpt><trkpt lat="46.1435576" lon="13.5904983"><ele>589.2</ele><time>2026-05-02T07:38:29.162Z</time></trkpt><trkpt lat="46.1435219" lon="13.5903497"><ele>589.0</ele><time>2026-05-02T07:38:30.161Z</time></trkpt><trkpt lat="46.1434848" lon="13.5902005"><ele>589.0</ele><time>2026-05-02T07:38:31.151Z</time></trkpt><trkpt lat="46.1434516" lon="13.5900518"><ele>589.0</ele><time>2026-05-02T07:38:32.156Z</time></trkpt><trkpt lat="46.1434163" lon="13.589904"><ele>589.0</ele><time>2026-05-02T07:38:33.163Z</time></trkpt><trkpt lat="46.1433777" lon="13.5897598"><ele>589.0</ele><time>2026-05-02T07:38:34.146Z</time></trkpt><trkpt lat="46.1433428" lon="13.5896141"><ele>589.0</ele><time>2026-05-02T07:38:35.16Z</time></trkpt><trkpt lat="46.14331" lon="13.5894734"><ele>591.2</ele><time>2026-05-02T07:38:36.176Z</time></trkpt><trkpt lat="46.1432828" lon="13.5893252"><ele>593.4</ele><time>2026-05-02T07:38:37.161Z</time></trkpt><trkpt lat="46.1432615" lon="13.5891838"><ele>595.6</ele><time>2026-05-02T07:38:38.168Z</time></trkpt><trkpt lat="46.1432417" lon="13.5890412"><ele>597.8</ele><time>2026-05-02T07:38:39.161Z</time></trkpt><trkpt lat="46.143233" lon="13.5888956"><ele>600.0</ele><time>2026-05-02T07:38:40.156Z</time></trkpt><trkpt lat="46.1432317" lon="13.5887722"><ele>598.5</ele><time>2026-05-02T07:38:41.171Z</time></trkpt><trkpt lat="46.1432472" lon="13.5886595"><ele>597.0</ele><time>2026-05-02T07:38:42.153Z</time></trkpt><trkpt lat="46.143286" lon="13.5885605"><ele>595.5</ele><time>2026-05-02T07:38:43.157Z</time></trkpt><trkpt lat="46.1433272" lon="13.5884514"><ele>594.0</ele><time>2026-05-02T07:38:44.142Z</time></trkpt><trkpt lat="46.1433607" lon="13.5883415"><ele>592.5</ele><time>2026-05-02T07:38:45.172Z</time></trkpt><trkpt lat="46.1433865" lon="13.5882263"><ele>591.0</ele><time>2026-05-02T07:38:46.145Z</time></trkpt><trkpt lat="46.1434021" lon="13.5881114"><ele>591.0</ele><time>2026-05-02T07:38:47.15Z</time></trkpt><trkpt lat="46.1434038" lon="13.5879931"><ele>591.0</ele><time>2026-05-02T07:38:48.149Z</time></trkpt><trkpt lat="46.1433904" lon="13.5878706"><ele>591.0</ele><time>2026-05-02T07:38:49.161Z</time></trkpt><trkpt lat="46.1433709" lon="13.5877273"><ele>591.0</ele><time>2026-05-02T07:38:50.164Z</time></trkpt><trkpt lat="46.1433452" lon="13.5875747"><ele>591.0</ele><time>2026-05-02T07:38:51.158Z</time></trkpt><trkpt lat="46.1433204" lon="13.5874245"><ele>590.0</ele><time>2026-05-02T07:38:52.156Z</time></trkpt><trkpt lat="46.1432964" lon="13.587287"><ele>589.0</ele><time>2026-05-02T07:38:53.145Z</time></trkpt><trkpt lat="46.143282" lon="13.5871528"><ele>588.0</ele><time>2026-05-02T07:38:54.161Z</time></trkpt><trkpt lat="46.1432783" lon="13.5870105"><ele>587.0</ele><time>2026-05-02T07:38:55.153Z</time></trkpt><trkpt lat="46.1432986" lon="13.586849"><ele>586.0</ele><time>2026-05-02T07:38:56.157Z</time></trkpt><trkpt lat="46.1433153" lon="13.5866882"><ele>586.0</ele><time>2026-05-02T07:38:57.132Z</time></trkpt><trkpt lat="46.1433105" lon="13.5865241"><ele>586.0</ele><time>2026-05-02T07:38:58.148Z</time></trkpt><trkpt lat="46.1432936" lon="13.5863595"><ele>586.0</ele><time>2026-05-02T07:38:59.139Z</time></trkpt><trkpt lat="46.1432779" lon="13.5862053"><ele>586.0</ele><time>2026-05-02T07:39:00.155Z</time></trkpt><trkpt lat="46.1432512" lon="13.5860419"><ele>585.8</ele><time>2026-05-02T07:39:01.15Z</time></trkpt><trkpt lat="46.1432334" lon="13.5858864"><ele>585.6</ele><time>2026-05-02T07:39:02.152Z</time></trkpt><trkpt lat="46.1432284" lon="13.5857185"><ele>585.4</ele><time>2026-05-02T07:39:03.167Z</time></trkpt><trkpt lat="46.1432206" lon="13.5855687"><ele>585.2</ele><time>2026-05-02T07:39:04.154Z</time></trkpt><trkpt lat="46.1432038" lon="13.5854262"><ele>585.0</ele><time>2026-05-02T07:39:05.154Z</time></trkpt><trkpt lat="46.1431716" lon="13.585285"><ele>577.4</ele><time>2026-05-02T07:39:06.143Z</time></trkpt><trkpt lat="46.1431124" lon="13.5851524"><ele>569.8</ele><time>2026-05-02T07:39:07.151Z</time></trkpt><trkpt lat="46.143037" lon="13.5850256"><ele>562.2</ele><time>2026-05-02T07:39:08.143Z</time></trkpt><trkpt lat="46.1429638" lon="13.584903"><ele>554.6</ele><time>2026-05-02T07:39:09.142Z</time></trkpt><trkpt lat="46.1428998" lon="13.5847849"><ele>547.0</ele><time>2026-05-02T07:39:10.145Z</time></trkpt><trkpt lat="46.1428605" lon="13.584669"><ele>547.0</ele><time>2026-05-02T07:39:11.161Z</time></trkpt><trkpt lat="46.1428146" lon="13.5845521"><ele>547.0</ele><time>2026-05-02T07:39:12.151Z</time></trkpt><trkpt lat="46.1427695" lon="13.5844194"><ele>547.0</ele><time>2026-05-02T07:39:13.142Z</time></trkpt><trkpt lat="46.1427182" lon="13.58428"><ele>547.0</ele><time>2026-05-02T07:39:14.144Z</time></trkpt><trkpt lat="46.1426673" lon="13.5841574"><ele>547.0</ele><time>2026-05-02T07:39:15.15Z</time></trkpt><trkpt lat="46.1426002" lon="13.5840672"><ele>546.4</ele><time>2026-05-02T07:39:16.153Z</time></trkpt><trkpt lat="46.1425028" lon="13.5840199"><ele>545.8000000000001</ele><time>2026-05-02T07:39:17.143Z</time></trkpt><trkpt lat="46.1423913" lon="13.5839944"><ele>545.2</ele><time>2026-05-02T07:39:18.165Z</time></trkpt><trkpt lat="46.142284" lon="13.5839983"><ele>544.6</ele><time>2026-05-02T07:39:19.147Z</time></trkpt><trkpt lat="46.1421795" lon="13.5839989"><ele>544.0</ele><time>2026-05-02T07:39:20.138Z</time></trkpt><trkpt lat="46.1420825" lon="13.5840071"><ele>544.0</ele><time>2026-05-02T07:39:21.156Z</time></trkpt><trkpt lat="46.1420016" lon="13.5840339"><ele>544.0</ele><time>2026-05-02T07:39:22.157Z</time></trkpt><trkpt lat="46.14193" lon="13.5840744"><ele>544.0</ele><time>2026-05-02T07:39:23.152Z</time></trkpt><trkpt lat="46.1418604" lon="13.5841203"><ele>544.0</ele><time>2026-05-02T07:39:24.161Z</time></trkpt><trkpt lat="46.141756" lon="13.5841055"><ele>544.0</ele><time>2026-05-02T07:39:26.155Z</time></trkpt><trkpt lat="46.1417229" lon="13.5839341"><ele>544.0</ele><time>2026-05-02T07:39:28.135Z</time></trkpt><trkpt lat="46.1417199" lon="13.5838197"><ele>544.0</ele><time>2026-05-02T07:39:29.147Z</time></trkpt><trkpt lat="46.1417035" lon="13.5837135"><ele>544.0</ele><time>2026-05-02T07:39:30.149Z</time></trkpt><trkpt lat="46.141677" lon="13.5836124"><ele>544.0</ele><time>2026-05-02T07:39:31.15Z</time></trkpt><trkpt lat="46.1416461" lon="13.5835073"><ele>544.0</ele><time>2026-05-02T07:39:32.15Z</time></trkpt><trkpt lat="46.1415998" lon="13.5834064"><ele>544.0</ele><time>2026-05-02T07:39:33.146Z</time></trkpt><trkpt lat="46.1415299" lon="13.5833196"><ele>540.2</ele><time>2026-05-02T07:39:34.163Z</time></trkpt><trkpt lat="46.1414566" lon="13.5832366"><ele>536.4</ele><time>2026-05-02T07:39:35.171Z</time></trkpt><trkpt lat="46.1413892" lon="13.5831383"><ele>532.6</ele><time>2026-05-02T07:39:36.162Z</time></trkpt><trkpt lat="46.1413407" lon="13.5830343"><ele>528.8</ele><time>2026-05-02T07:39:37.144Z</time></trkpt><trkpt lat="46.1412935" lon="13.582923"><ele>525.0</ele><time>2026-05-02T07:39:38.142Z</time></trkpt><trkpt lat="46.1412412" lon="13.5828178"><ele>525.0</ele><time>2026-05-02T07:39:39.157Z</time></trkpt><trkpt lat="46.1411795" lon="13.5827222"><ele>525.0</ele><time>2026-05-02T07:39:40.153Z</time></trkpt><trkpt lat="46.1411222" lon="13.5826296"><ele>525.0</ele><time>2026-05-02T07:39:41.18Z</time></trkpt><trkpt lat="46.1410844" lon="13.5825288"><ele>525.0</ele><time>2026-05-02T07:39:42.156Z</time></trkpt><trkpt lat="46.1410481" lon="13.5824257"><ele>525.0</ele><time>2026-05-02T07:39:43.161Z</time></trkpt><trkpt lat="46.1410175" lon="13.5823253"><ele>525.0</ele><time>2026-05-02T07:39:44.154Z</time></trkpt><trkpt lat="46.1409815" lon="13.5822366"><ele>525.0</ele><time>2026-05-02T07:39:45.146Z</time></trkpt><trkpt lat="46.1409539" lon="13.5821495"><ele>525.0</ele><time>2026-05-02T07:39:46.152Z</time></trkpt><trkpt lat="46.1409139" lon="13.5819963"><ele>525.0</ele><time>2026-05-02T07:39:48.16Z</time></trkpt><trkpt lat="46.1408659" lon="13.5818549"><ele>525.0</ele><time>2026-05-02T07:39:50.151Z</time></trkpt><trkpt lat="46.1408302" lon="13.5817418"><ele>525.0</ele><time>2026-05-02T07:39:52.152Z</time></trkpt><trkpt lat="46.1407862" lon="13.5816357"><ele>527.0</ele><time>2026-05-02T07:39:55.146Z</time></trkpt><trkpt lat="46.1407352" lon="13.5815254"><ele>529.0</ele><time>2026-05-02T07:39:58.188Z</time></trkpt><trkpt lat="46.1406403" lon="13.5813958"><ele>531.0</ele><time>2026-05-02T07:40:00.17Z</time></trkpt><trkpt lat="46.140575" lon="13.581314"><ele>533.0</ele><time>2026-05-02T07:40:01.145Z</time></trkpt><trkpt lat="46.1405123" lon="13.581227"><ele>535.0</ele><time>2026-05-02T07:40:02.144Z</time></trkpt><trkpt lat="46.1404468" lon="13.5811401"><ele>530.3333333333334</ele><time>2026-05-02T07:40:03.151Z</time></trkpt><trkpt lat="46.1403867" lon="13.5810422"><ele>525.6666666666667</ele><time>2026-05-02T07:40:04.147Z</time></trkpt><trkpt lat="46.1403454" lon="13.580936"><ele>521.0</ele><time>2026-05-02T07:40:05.159Z</time></trkpt><trkpt lat="46.1403116" lon="13.5808262"><ele>516.3333333333334</ele><time>2026-05-02T07:40:06.149Z</time></trkpt><trkpt lat="46.1402785" lon="13.5807126"><ele>511.6666666666667</ele><time>2026-05-02T07:40:07.149Z</time></trkpt><trkpt lat="46.1402477" lon="13.5805849"><ele>507.0</ele><time>2026-05-02T07:40:08.161Z</time></trkpt><trkpt lat="46.1402179" lon="13.5804641"><ele>507.3333333333333</ele><time>2026-05-02T07:40:09.163Z</time></trkpt><trkpt lat="46.1401935" lon="13.5803485"><ele>507.66666666666663</ele><time>2026-05-02T07:40:10.152Z</time></trkpt><trkpt lat="46.1401814" lon="13.5802379"><ele>508.0</ele><time>2026-05-02T07:40:11.161Z</time></trkpt><trkpt lat="46.140174" lon="13.5801311"><ele>508.3333333333333</ele><time>2026-05-02T07:40:12.159Z</time></trkpt><trkpt lat="46.1401709" lon="13.5800306"><ele>508.66666666666663</ele><time>2026-05-02T07:40:13.162Z</time></trkpt><trkpt lat="46.1401835" lon="13.5799221"><ele>509.0</ele><time>2026-05-02T07:40:14.172Z</time></trkpt><trkpt lat="46.1401952" lon="13.5798189"><ele>508.99999999999994</ele><time>2026-05-02T07:40:15.16Z</time></trkpt><trkpt lat="46.1402115" lon="13.5797158"><ele>509.0</ele><time>2026-05-02T07:40:16.155Z</time></trkpt><trkpt lat="46.1402151" lon="13.5796151"><ele>508.99999999999994</ele><time>2026-05-02T07:40:17.159Z</time></trkpt><trkpt lat="46.140206" lon="13.5795172"><ele>508.99999999999994</ele><time>2026-05-02T07:40:18.167Z</time></trkpt><trkpt lat="46.1401951" lon="13.5794174"><ele>509.0</ele><time>2026-05-02T07:40:19.158Z</time></trkpt><trkpt lat="46.1401903" lon="13.5793096"><ele>508.99999999999994</ele><time>2026-05-02T07:40:20.171Z</time></trkpt><trkpt lat="46.1402073" lon="13.5791941"><ele>508.99999999999994</ele><time>2026-05-02T07:40:21.162Z</time></trkpt><trkpt lat="46.1402335" lon="13.5790757"><ele>508.8333333333333</ele><time>2026-05-02T07:40:22.166Z</time></trkpt><trkpt lat="46.140258" lon="13.5789669"><ele>508.66666666666663</ele><time>2026-05-02T07:40:23.163Z</time></trkpt><trkpt lat="46.1402752" lon="13.5788676"><ele>508.5</ele><time>2026-05-02T07:40:24.157Z</time></trkpt><trkpt lat="46.1402833" lon="13.5787727"><ele>508.33333333333337</ele><time>2026-05-02T07:40:25.162Z</time></trkpt><trkpt lat="46.1402964" lon="13.5786738"><ele>508.1666666666667</ele><time>2026-05-02T07:40:26.161Z</time></trkpt><trkpt lat="46.1403092" lon="13.5785568"><ele>508.0</ele><time>2026-05-02T07:40:27.154Z</time></trkpt><trkpt lat="46.140311" lon="13.5784275"><ele>507.0</ele><time>2026-05-02T07:40:28.157Z</time></trkpt><trkpt lat="46.1403102" lon="13.5782956"><ele>505.99999999999994</ele><time>2026-05-02T07:40:29.161Z</time></trkpt><trkpt lat="46.1403072" lon="13.5781526"><ele>504.99999999999994</ele><time>2026-05-02T07:40:30.156Z</time></trkpt><trkpt lat="46.1403083" lon="13.5780081"><ele>504.0</ele><time>2026-05-02T07:40:31.144Z</time></trkpt><trkpt lat="46.1403066" lon="13.57786"><ele>503.0</ele><time>2026-05-02T07:40:32.156Z</time></trkpt><trkpt lat="46.1403001" lon="13.577714"><ele>503.0</ele><time>2026-05-02T07:40:33.159Z</time></trkpt><trkpt lat="46.1402894" lon="13.5775778"><ele>502.99999999999994</ele><time>2026-05-02T07:40:34.168Z</time></trkpt><trkpt lat="46.1402627" lon="13.5774515"><ele>502.99999999999994</ele><time>2026-05-02T07:40:35.159Z</time></trkpt><trkpt lat="46.140222" lon="13.5773371"><ele>503.0</ele><time>2026-05-02T07:40:36.157Z</time></trkpt><trkpt lat="46.1401677" lon="13.5772349"><ele>503.0</ele><time>2026-05-02T07:40:37.162Z</time></trkpt><trkpt lat="46.1400881" lon="13.5771581"><ele>503.0</ele><time>2026-05-02T07:40:38.162Z</time></trkpt><trkpt lat="46.139989" lon="13.5771048"><ele>502.99999999999994</ele><time>2026-05-02T07:40:39.155Z</time></trkpt><trkpt lat="46.1398794" lon="13.5770583"><ele>502.99999999999994</ele><time>2026-05-02T07:40:40.148Z</time></trkpt><trkpt lat="46.1397706" lon="13.5770121"><ele>503.0</ele><time>2026-05-02T07:40:41.158Z</time></trkpt><trkpt lat="46.139661" lon="13.5769777"><ele>503.0</ele><time>2026-05-02T07:40:42.147Z</time></trkpt><trkpt lat="46.1395469" lon="13.5769627"><ele>503.0</ele><time>2026-05-02T07:40:43.161Z</time></trkpt><trkpt lat="46.1394366" lon="13.5769527"><ele>502.99999999999994</ele><time>2026-05-02T07:40:44.147Z</time></trkpt><trkpt lat="46.1393359" lon="13.5769283"><ele>502.99999999999994</ele><time>2026-05-02T07:40:45.156Z</time></trkpt><trkpt lat="46.1392479" lon="13.5768706"><ele>503.0</ele><time>2026-05-02T07:40:46.165Z</time></trkpt><trkpt lat="46.1391707" lon="13.5767835"><ele>503.0</ele><time>2026-05-02T07:40:47.155Z</time></trkpt><trkpt lat="46.1390912" lon="13.5766922"><ele>500.0</ele><time>2026-05-02T07:40:48.174Z</time></trkpt><trkpt lat="46.1389961" lon="13.5766412"><ele>496.99999999999994</ele><time>2026-05-02T07:40:49.159Z</time></trkpt><trkpt lat="46.1388879" lon="13.5766237"><ele>493.99999999999994</ele><time>2026-05-02T07:40:50.166Z</time></trkpt><trkpt lat="46.1387755" lon="13.5766258"><ele>491.0</ele><time>2026-05-02T07:40:51.159Z</time></trkpt><trkpt lat="46.1386572" lon="13.5766332"><ele>488.0</ele><time>2026-05-02T07:40:52.159Z</time></trkpt><trkpt lat="46.1385376" lon="13.5766441"><ele>488.0</ele><time>2026-05-02T07:40:53.156Z</time></trkpt><trkpt lat="46.1384161" lon="13.5766557"><ele>488.0</ele><time>2026-05-02T07:40:54.15Z</time></trkpt><trkpt lat="46.1382983" lon="13.576667"><ele>488.0</ele><time>2026-05-02T07:40:55.169Z</time></trkpt><trkpt lat="46.1381798" lon="13.5766805"><ele>488.0</ele><time>2026-05-02T07:40:56.156Z</time></trkpt><trkpt lat="46.1380603" lon="13.5767059"><ele>484.5</ele><time>2026-05-02T07:40:57.15Z</time></trkpt><trkpt lat="46.1379432" lon="13.5767361"><ele>481.0</ele><time>2026-05-02T07:40:58.162Z</time></trkpt><trkpt lat="46.1378326" lon="13.5767839"><ele>477.5</ele><time>2026-05-02T07:40:59.179Z</time></trkpt><trkpt lat="46.1377226" lon="13.5768494"><ele>474.0</ele><time>2026-05-02T07:41:00.159Z</time></trkpt><trkpt lat="46.1376084" lon="13.5769213"><ele>474.0</ele><time>2026-05-02T07:41:01.17Z</time></trkpt><trkpt lat="46.1374938" lon="13.5769947"><ele>474.0</ele><time>2026-05-02T07:41:02.177Z</time></trkpt><trkpt lat="46.1373767" lon="13.5770589"><ele>474.0</ele><time>2026-05-02T07:41:03.163Z</time></trkpt><trkpt lat="46.1372619" lon="13.5771188"><ele>474.0</ele><time>2026-05-02T07:41:04.159Z</time></trkpt><trkpt lat="46.1371473" lon="13.5771751"><ele>471.5</ele><time>2026-05-02T07:41:05.153Z</time></trkpt><trkpt lat="46.1370342" lon="13.5772287"><ele>469.0</ele><time>2026-05-02T07:41:06.169Z</time></trkpt><trkpt lat="46.1369219" lon="13.5772728"><ele>466.5</ele><time>2026-05-02T07:41:07.161Z</time></trkpt><trkpt lat="46.1368105" lon="13.5773145"><ele>464.0</ele><time>2026-05-02T07:41:08.156Z</time></trkpt><trkpt lat="46.1367013" lon="13.5773575"><ele>464.0</ele><time>2026-05-02T07:41:09.155Z</time></trkpt><trkpt lat="46.1366034" lon="13.5773919"><ele>464.0</ele><time>2026-05-02T07:41:10.165Z</time></trkpt><trkpt lat="46.1365263" lon="13.5774098"><ele>464.0</ele><time>2026-05-02T07:41:11.171Z</time></trkpt><trkpt lat="46.1364512" lon="13.5772681"><ele>464.0</ele><time>2026-05-02T07:41:13.173Z</time></trkpt><trkpt lat="46.1364634" lon="13.5771523"><ele>464.0</ele><time>2026-05-02T07:41:14.157Z</time></trkpt><trkpt lat="46.1365111" lon="13.5770561"><ele>462.0</ele><time>2026-05-02T07:41:15.157Z</time></trkpt><trkpt lat="46.1365919" lon="13.5769666"><ele>460.0</ele><time>2026-05-02T07:41:16.175Z</time></trkpt><trkpt lat="46.1366793" lon="13.5768945"><ele>458.0</ele><time>2026-05-02T07:41:17.164Z</time></trkpt><trkpt lat="46.1367791" lon="13.5768163"><ele>456.0</ele><time>2026-05-02T07:41:18.165Z</time></trkpt><trkpt lat="46.1368877" lon="13.5767366"><ele>454.0</ele><time>2026-05-02T07:41:19.157Z</time></trkpt><trkpt lat="46.1370028" lon="13.5766384"><ele>454.0</ele><time>2026-05-02T07:41:20.163Z</time></trkpt><trkpt lat="46.1371216" lon="13.5765289"><ele>454.0</ele><time>2026-05-02T07:41:21.179Z</time></trkpt><trkpt lat="46.1372399" lon="13.5764106"><ele>454.0</ele><time>2026-05-02T07:41:22.163Z</time></trkpt><trkpt lat="46.1373549" lon="13.5762942"><ele>454.0</ele><time>2026-05-02T07:41:23.187Z</time></trkpt><trkpt lat="46.1374579" lon="13.5761875"><ele>455.0</ele><time>2026-05-02T07:41:24.156Z</time></trkpt><trkpt lat="46.1375462" lon="13.5760895"><ele>456.0</ele><time>2026-05-02T07:41:25.142Z</time></trkpt><trkpt lat="46.1376158" lon="13.5760042"><ele>457.0</ele><time>2026-05-02T07:41:26.152Z</time></trkpt><trkpt lat="46.1376715" lon="13.5759144"><ele>458.0</ele><time>2026-05-02T07:41:27.154Z</time></trkpt><trkpt lat="46.1377051" lon="13.575819"><ele>459.0</ele><time>2026-05-02T07:41:28.15Z</time></trkpt><trkpt lat="46.1376794" lon="13.575688"><ele>459.0</ele><time>2026-05-02T07:41:29.16Z</time></trkpt><trkpt lat="46.1376235" lon="13.5755696"><ele>459.0</ele><time>2026-05-02T07:41:30.138Z</time></trkpt><trkpt lat="46.1375432" lon="13.5754618"><ele>459.0</ele><time>2026-05-02T07:41:31.145Z</time></trkpt><trkpt lat="46.1374613" lon="13.5753496"><ele>459.0</ele><time>2026-05-02T07:41:32.14Z</time></trkpt><trkpt lat="46.1373741" lon="13.5752225"><ele>459.0</ele><time>2026-05-02T07:41:33.146Z</time></trkpt><trkpt lat="46.1372856" lon="13.5750824"><ele>448.5</ele><time>2026-05-02T07:41:34.146Z</time></trkpt><trkpt lat="46.1372077" lon="13.5749351"><ele>438.0</ele><time>2026-05-02T07:41:35.138Z</time></trkpt><trkpt lat="46.1371354" lon="13.5747803"><ele>427.5</ele><time>2026-05-02T07:41:36.174Z</time></trkpt><trkpt lat="46.1370754" lon="13.5746235"><ele>417.0</ele><time>2026-05-02T07:41:37.153Z</time></trkpt><trkpt lat="46.1370114" lon="13.574468"><ele>417.0</ele><time>2026-05-02T07:41:38.142Z</time></trkpt><trkpt lat="46.1369478" lon="13.5743163"><ele>417.0</ele><time>2026-05-02T07:41:39.151Z</time></trkpt><trkpt lat="46.1368837" lon="13.5741616"><ele>417.0</ele><time>2026-05-02T07:41:40.146Z</time></trkpt><trkpt lat="46.1368131" lon="13.5740077"><ele>417.0</ele><time>2026-05-02T07:41:41.151Z</time></trkpt><trkpt lat="46.1367394" lon="13.57386"><ele>417.0</ele><time>2026-05-02T07:41:42.153Z</time></trkpt><trkpt lat="46.1366666" lon="13.5737226"><ele>417.0</ele><time>2026-05-02T07:41:43.155Z</time></trkpt><trkpt lat="46.1366163" lon="13.5735698"><ele>417.0</ele><time>2026-05-02T07:41:44.154Z</time></trkpt><trkpt lat="46.1366013" lon="13.5733869"><ele>417.0</ele><time>2026-05-02T07:41:45.155Z</time></trkpt><trkpt lat="46.1366003" lon="13.5731897"><ele>416.0</ele><time>2026-05-02T07:41:46.147Z</time></trkpt><trkpt lat="46.136617" lon="13.5729826"><ele>415.0</ele><time>2026-05-02T07:41:47.146Z</time></trkpt><trkpt lat="46.1366463" lon="13.5727782"><ele>414.0</ele><time>2026-05-02T07:41:48.152Z</time></trkpt><trkpt lat="46.1367791" lon="13.5768163"><ele>424.0</ele><time>2026-05-02T07:41:18.165Z</time></trkpt><trkpt lat="46.1368877" lon="13.5767366"><ele>434.0</ele><time>2026-05-02T07:41:19.157Z</time></trkpt><trkpt lat="46.1370028" lon="13.5766384"><ele>444.0</ele><time>2026-05-02T07:41:20.163Z</time></trkpt><trkpt lat="46.1371216" lon="13.5765289"><ele>454.0</ele><time>2026-05-02T07:41:21.179Z</time></trkpt><trkpt lat="46.1372399" lon="13.5764106"><ele>454.0</ele><time>2026-05-02T07:41:22.163Z</time></trkpt><trkpt lat="46.1373549" lon="13.5762942"><ele>454.0</ele><time>2026-05-02T07:41:23.187Z</time></trkpt><trkpt lat="46.1374579" lon="13.5761875"><ele>454.0</ele><time>2026-05-02T07:41:24.156Z</time></trkpt><trkpt lat="46.1375462" lon="13.5760895"><ele>454.0</ele><time>2026-05-02T07:41:25.142Z</time></trkpt><trkpt lat="46.1376158" lon="13.5760042"><ele>455.0</ele><time>2026-05-02T07:41:26.152Z</time></trkpt><trkpt lat="46.1376715" lon="13.5759144"><ele>456.0</ele><time>2026-05-02T07:41:27.154Z</time></trkpt><trkpt lat="46.1377051" lon="13.575819"><ele>457.0</ele><time>2026-05-02T07:41:28.15Z</time></trkpt><trkpt lat="46.1376794" lon="13.575688"><ele>458.0</ele><time>2026-05-02T07:41:29.16Z</time></trkpt><trkpt lat="46.1376235" lon="13.5755696"><ele>459.0</ele><time>2026-05-02T07:41:30.138Z</time></trkpt><trkpt lat="46.1375432" lon="13.5754618"><ele>458.0</ele><time>2026-05-02T07:41:31.145Z</time></trkpt><trkpt lat="46.1374613" lon="13.5753496"><ele>457.0</ele><time>2026-05-02T07:41:32.14Z</time></trkpt><trkpt lat="46.1373741" lon="13.5752225"><ele>456.0</ele><time>2026-05-02T07:41:33.146Z</time></trkpt><trkpt lat="46.1372856" lon="13.5750824"><ele>455.0</ele><time>2026-05-02T07:41:34.146Z</time></trkpt><trkpt lat="46.1372077" lon="13.5749351"><ele>445.5</ele><time>2026-05-02T07:41:35.138Z</time></trkpt><trkpt lat="46.1371354" lon="13.5747803"><ele>436.0</ele><time>2026-05-02T07:41:36.174Z</time></trkpt><trkpt lat="46.1370754" lon="13.5746235"><ele>426.5</ele><time>2026-05-02T07:41:37.153Z</time></trkpt><trkpt lat="46.1370114" lon="13.574468"><ele>417.0</ele><time>2026-05-02T07:41:38.142Z</time></trkpt><trkpt lat="46.1369478" lon="13.5743163"><ele>417.0</ele><time>2026-05-02T07:41:39.151Z</time></trkpt><trkpt lat="46.1368837" lon="13.5741616"><ele>417.0</ele><time>2026-05-02T07:41:40.146Z</time></trkpt><trkpt lat="46.1368131" lon="13.5740077"><ele>417.0</ele><time>2026-05-02T07:41:41.151Z</time></trkpt><trkpt lat="46.1367394" lon="13.57386"><ele>417.0</ele><time>2026-05-02T07:41:42.153Z</time></trkpt><trkpt lat="46.1366666" lon="13.5737226"><ele>418.5</ele><time>2026-05-02T07:41:43.155Z</time></trkpt><trkpt lat="46.1366163" lon="13.5735698"><ele>420.0</ele><time>2026-05-02T07:41:44.154Z</time></trkpt><trkpt lat="46.1366013" lon="13.5733869"><ele>421.5</ele><time>2026-05-02T07:41:45.155Z</time></trkpt><trkpt lat="46.1366003" lon="13.5731897"><ele>423.0</ele><time>2026-05-02T07:41:46.147Z</time></trkpt><trkpt lat="46.136617" lon="13.5729826"><ele>420.75</ele><time>2026-05-02T07:41:47.146Z</time></trkpt><trkpt lat="46.1366463" lon="13.5727782"><ele>418.5</ele><time>2026-05-02T07:41:48.152Z</time></trkpt><trkpt lat="46.1366841" lon="13.5725861"><ele>416.25</ele><time>2026-05-02T07:41:49.148Z</time></trkpt><trkpt lat="46.1367392" lon="13.5724183"><ele>414.0</ele><time>2026-05-02T07:41:50.156Z</time></trkpt><trkpt lat="46.1367952" lon="13.5722794"><ele>414.0</ele><time>2026-05-02T07:41:51.145Z</time></trkpt><trkpt lat="46.1368303" lon="13.5721479"><ele>414.0</ele><time>2026-05-02T07:41:52.153Z</time></trkpt><trkpt lat="46.13683" lon="13.572018"><ele>414.0</ele><time>2026-05-02T07:41:53.148Z</time></trkpt><trkpt lat="46.136801" lon="13.5718874"><ele>414.0</ele><time>2026-05-02T07:41:54.148Z</time></trkpt><trkpt lat="46.1367495" lon="13.5717728"><ele>414.0</ele><time>2026-05-02T07:41:55.148Z</time></trkpt><trkpt lat="46.1366704" lon="13.5717019"><ele>415.75</ele><time>2026-05-02T07:41:56.162Z</time></trkpt><trkpt lat="46.13657" lon="13.5716813"><ele>417.5</ele><time>2026-05-02T07:41:57.135Z</time></trkpt><trkpt lat="46.1364528" lon="13.571683"><ele>419.25</ele><time>2026-05-02T07:41:58.163Z</time></trkpt><trkpt lat="46.1363332" lon="13.5717012"><ele>421.0</ele><time>2026-05-02T07:41:59.158Z</time></trkpt><trkpt lat="46.1361955" lon="13.5717122"><ele>421.0</ele><time>2026-05-02T07:42:00.146Z</time></trkpt><trkpt lat="46.136054" lon="13.5717163"><ele>421.0</ele><time>2026-05-02T07:42:01.147Z</time></trkpt><trkpt lat="46.1359133" lon="13.5717284"><ele>421.0</ele><time>2026-05-02T07:42:02.152Z</time></trkpt><trkpt lat="46.1357794" lon="13.5717502"><ele>421.0</ele><time>2026-05-02T07:42:03.163Z</time></trkpt><trkpt lat="46.1356518" lon="13.5717932"><ele>422.25</ele><time>2026-05-02T07:42:04.153Z</time></trkpt><trkpt lat="46.135522" lon="13.5718555"><ele>423.5</ele><time>2026-05-02T07:42:05.161Z</time></trkpt><trkpt lat="46.1353895" lon="13.5719324"><ele>424.75</ele><time>2026-05-02T07:42:06.158Z</time></trkpt><trkpt lat="46.1352557" lon="13.5720169"><ele>426.0</ele><time>2026-05-02T07:42:07.14Z</time></trkpt><trkpt lat="46.1351226" lon="13.5721031"><ele>418.0</ele><time>2026-05-02T07:42:08.148Z</time></trkpt><trkpt lat="46.1349829" lon="13.5721995"><ele>410.0</ele><time>2026-05-02T07:42:09.163Z</time></trkpt><trkpt lat="46.1348483" lon="13.5722908"><ele>402.0</ele><time>2026-05-02T07:42:10.151Z</time></trkpt><trkpt lat="46.1347126" lon="13.572375"><ele>402.0</ele><time>2026-05-02T07:42:11.154Z</time></trkpt><trkpt lat="46.1345753" lon="13.572454"><ele>402.0</ele><time>2026-05-02T07:42:12.161Z</time></trkpt><trkpt lat="46.1344455" lon="13.5725213"><ele>402.0</ele><time>2026-05-02T07:42:13.151Z</time></trkpt><trkpt lat="46.1343035" lon="13.5725721"><ele>402.0</ele><time>2026-05-02T07:42:14.144Z</time></trkpt><trkpt lat="46.1341609" lon="13.5726191"><ele>398.25</ele><time>2026-05-02T07:42:15.149Z</time></trkpt><trkpt lat="46.1340122" lon="13.5726649"><ele>394.5</ele><time>2026-05-02T07:42:16.163Z</time></trkpt><trkpt lat="46.1338671" lon="13.5727121"><ele>390.75</ele><time>2026-05-02T07:42:17.147Z</time></trkpt><trkpt lat="46.1337274" lon="13.5727806"><ele>387.0</ele><time>2026-05-02T07:42:18.16Z</time></trkpt><trkpt lat="46.1336055" lon="13.5728487"><ele>384.6</ele><time>2026-05-02T07:42:19.145Z</time></trkpt><trkpt lat="46.1334925" lon="13.5729193"><ele>382.20000000000005</ele><time>2026-05-02T07:42:20.144Z</time></trkpt><trkpt lat="46.1333885" lon="13.5729699"><ele>379.8</ele><time>2026-05-02T07:42:21.146Z</time></trkpt><trkpt lat="46.1333002" lon="13.5729605"><ele>377.4</ele><time>2026-05-02T07:42:22.171Z</time></trkpt><trkpt lat="46.1332278" lon="13.5728718"><ele>375.0</ele><time>2026-05-02T07:42:23.149Z</time></trkpt><trkpt lat="46.1331825" lon="13.5727358"><ele>377.4</ele><time>2026-05-02T07:42:24.157Z</time></trkpt><trkpt lat="46.1331742" lon="13.5725993"><ele>379.8</ele><time>2026-05-02T07:42:25.165Z</time></trkpt><trkpt lat="46.133208" lon="13.5724714"><ele>382.20000000000005</ele><time>2026-05-02T07:42:26.148Z</time></trkpt><trkpt lat="46.1332854" lon="13.5723333"><ele>384.6</ele><time>2026-05-02T07:42:27.159Z</time></trkpt><trkpt lat="46.1333679" lon="13.5721909"><ele>387.0</ele><time>2026-05-02T07:42:28.157Z</time></trkpt><trkpt lat="46.1334431" lon="13.5720316"><ele>384.0</ele><time>2026-05-02T07:42:29.159Z</time></trkpt><trkpt lat="46.1335077" lon="13.5718659"><ele>381.0</ele><time>2026-05-02T07:42:30.152Z</time></trkpt><trkpt lat="46.1335654" lon="13.5717095"><ele>378.0</ele><time>2026-05-02T07:42:31.146Z</time></trkpt><trkpt lat="46.1336223" lon="13.5715491"><ele>375.0</ele><time>2026-05-02T07:42:32.15Z</time></trkpt><trkpt lat="46.1336779" lon="13.5713892"><ele>375.0</ele><time>2026-05-02T07:42:33.149Z</time></trkpt><trkpt lat="46.1337464" lon="13.5712505"><ele>375.0</ele><time>2026-05-02T07:42:34.169Z</time></trkpt><trkpt lat="46.1338197" lon="13.5711094"><ele>375.0</ele><time>2026-05-02T07:42:35.152Z</time></trkpt><trkpt lat="46.1338997" lon="13.5709698"><ele>375.0</ele><time>2026-05-02T07:42:36.176Z</time></trkpt><trkpt lat="46.1339791" lon="13.5708244"><ele>375.6</ele><time>2026-05-02T07:42:37.147Z</time></trkpt><trkpt lat="46.1340505" lon="13.5706844"><ele>376.2</ele><time>2026-05-02T07:42:38.159Z</time></trkpt><trkpt lat="46.1341239" lon="13.5705437"><ele>376.79999999999995</ele><time>2026-05-02T07:42:39.151Z</time></trkpt><trkpt lat="46.134184" lon="13.5704172"><ele>377.4</ele><time>2026-05-02T07:42:40.146Z</time></trkpt><trkpt lat="46.1342318" lon="13.5703065"><ele>378.0</ele><time>2026-05-02T07:42:41.143Z</time></trkpt><trkpt lat="46.1342512" lon="13.5702121"><ele>378.0</ele><time>2026-05-02T07:42:42.139Z</time></trkpt><trkpt lat="46.1342264" lon="13.5701178"><ele>378.0</ele><time>2026-05-02T07:42:43.151Z</time></trkpt><trkpt lat="46.1341608" lon="13.570031"><ele>378.0</ele><time>2026-05-02T07:42:44.143Z</time></trkpt><trkpt lat="46.1340754" lon="13.569975"><ele>378.0</ele><time>2026-05-02T07:42:45.138Z</time></trkpt><trkpt lat="46.1339682" lon="13.5699292"><ele>378.0</ele><time>2026-05-02T07:42:46.143Z</time></trkpt><trkpt lat="46.1338576" lon="13.5698655"><ele>372.5</ele><time>2026-05-02T07:42:47.14Z</time></trkpt><trkpt lat="46.1337444" lon="13.5697951"><ele>367.0</ele><time>2026-05-02T07:42:48.153Z</time></trkpt><trkpt lat="46.1336295" lon="13.5697456"><ele>361.5</ele><time>2026-05-02T07:42:49.144Z</time></trkpt><trkpt lat="46.1335101" lon="13.5697093"><ele>356.0</ele><time>2026-05-02T07:42:50.147Z</time></trkpt><trkpt lat="46.1333937" lon="13.5696704"><ele>356.0</ele><time>2026-05-02T07:42:51.157Z</time></trkpt><trkpt lat="46.1332829" lon="13.569625"><ele>356.0</ele><time>2026-05-02T07:42:52.149Z</time></trkpt><trkpt lat="46.1331712" lon="13.5695816"><ele>356.0</ele><time>2026-05-02T07:42:53.15Z</time></trkpt><trkpt lat="46.1330635" lon="13.5695349"><ele>356.0</ele><time>2026-05-02T07:42:54.146Z</time></trkpt><trkpt lat="46.1329591" lon="13.5694792"><ele>356.4</ele><time>2026-05-02T07:42:55.164Z</time></trkpt><trkpt lat="46.1328546" lon="13.5694232"><ele>356.8</ele><time>2026-05-02T07:42:56.15Z</time></trkpt><trkpt lat="46.1327533" lon="13.5693676"><ele>357.2</ele><time>2026-05-02T07:42:57.147Z</time></trkpt><trkpt lat="46.1326705" lon="13.5692994"><ele>357.59999999999997</ele><time>2026-05-02T07:42:58.153Z</time></trkpt><trkpt lat="46.132595" lon="13.5692256"><ele>358.0</ele><time>2026-05-02T07:42:59.142Z</time></trkpt><trkpt lat="46.1325199" lon="13.5691456"><ele>358.0</ele><time>2026-05-02T07:43:00.155Z</time></trkpt><trkpt lat="46.1324421" lon="13.5690647"><ele>358.0</ele><time>2026-05-02T07:43:01.161Z</time></trkpt><trkpt lat="46.1323709" lon="13.5689987"><ele>358.0</ele><time>2026-05-02T07:43:02.159Z</time></trkpt><trkpt lat="46.1322771" lon="13.5689413"><ele>358.0</ele><time>2026-05-02T07:43:04.161Z</time></trkpt><trkpt lat="46.1322158" lon="13.5688983"><ele>358.0</ele><time>2026-05-02T07:43:06.15Z</time></trkpt><trkpt lat="46.1322862" lon="13.5687782"><ele>358.3333333333333</ele><time>2026-05-02T07:43:15.152Z</time></trkpt><trkpt lat="46.1323644" lon="13.5686941"><ele>358.66666666666663</ele><time>2026-05-02T07:43:17.154Z</time></trkpt><trkpt lat="46.1323994" lon="13.5686076"><ele>359.0</ele><time>2026-05-02T07:43:19.155Z</time></trkpt><trkpt lat="46.1323488" lon="13.5685135"><ele>359.3333333333333</ele><time>2026-05-02T07:43:26.148Z</time></trkpt><trkpt lat="46.1323054" lon="13.568414"><ele>359.6666666666667</ele><time>2026-05-02T07:43:36.146Z</time></trkpt><trkpt lat="46.1323347" lon="13.5683132"><ele>360.0</ele><time>2026-05-02T07:43:38.156Z</time></trkpt><trkpt lat="46.1323644" lon="13.5681794"><ele>357.6666666666667</ele><time>2026-05-02T07:43:40.151Z</time></trkpt><trkpt lat="46.1323371" lon="13.5680873"><ele>355.3333333333333</ele><time>2026-05-02T07:43:43.15Z</time></trkpt><trkpt lat="46.1322863" lon="13.5680223"><ele>353.0</ele><time>2026-05-02T07:43:45.146Z</time></trkpt><trkpt lat="46.1322033" lon="13.5678814"><ele>350.66666666666663</ele><time>2026-05-02T07:43:47.145Z</time></trkpt><trkpt lat="46.132151" lon="13.5678135"><ele>348.3333333333333</ele><time>2026-05-02T07:43:48.153Z</time></trkpt><trkpt lat="46.1320857" lon="13.5677723"><ele>346.0</ele><time>2026-05-02T07:43:49.157Z</time></trkpt><trkpt lat="46.1320133" lon="13.5677619"><ele>345.0</ele><time>2026-05-02T07:43:50.158Z</time></trkpt><trkpt lat="46.1319268" lon="13.5677626"><ele>344.0</ele><time>2026-05-02T07:43:51.148Z</time></trkpt><trkpt lat="46.1318377" lon="13.5677544"><ele>343.0</ele><time>2026-05-02T07:43:52.148Z</time></trkpt><trkpt lat="46.1317491" lon="13.5677344"><ele>342.0</ele><time>2026-05-02T07:43:53.155Z</time></trkpt><trkpt lat="46.1316601" lon="13.5677097"><ele>341.0</ele><time>2026-05-02T07:43:54.165Z</time></trkpt><trkpt lat="46.1315591" lon="13.5676751"><ele>338.4</ele><time>2026-05-02T07:43:55.151Z</time></trkpt><trkpt lat="46.1314563" lon="13.5676299"><ele>335.8</ele><time>2026-05-02T07:43:56.15Z</time></trkpt><trkpt lat="46.1313649" lon="13.567568"><ele>333.2</ele><time>2026-05-02T07:43:57.155Z</time></trkpt><trkpt lat="46.131292" lon="13.5674889"><ele>330.59999999999997</ele><time>2026-05-02T07:43:58.16Z</time></trkpt><trkpt lat="46.1312519" lon="13.5673719"><ele>328.0</ele><time>2026-05-02T07:43:59.155Z</time></trkpt><trkpt lat="46.1312617" lon="13.5672071"><ele>328.0</ele><time>2026-05-02T07:44:00.154Z</time></trkpt><trkpt lat="46.1312819" lon="13.5670315"><ele>328.0</ele><time>2026-05-02T07:44:01.162Z</time></trkpt><trkpt lat="46.1313013" lon="13.5668595"><ele>328.0</ele><time>2026-05-02T07:44:02.165Z</time></trkpt><trkpt lat="46.1313128" lon="13.5666901"><ele>328.0</ele><time>2026-05-02T07:44:03.165Z</time></trkpt><trkpt lat="46.1313226" lon="13.5665257"><ele>327.59999999999997</ele><time>2026-05-02T07:44:04.173Z</time></trkpt><trkpt lat="46.131349" lon="13.5663731"><ele>327.2</ele><time>2026-05-02T07:44:05.176Z</time></trkpt><trkpt lat="46.1314127" lon="13.5662555"><ele>326.8</ele><time>2026-05-02T07:44:06.162Z</time></trkpt><trkpt lat="46.1315071" lon="13.566176"><ele>326.4</ele><time>2026-05-02T07:44:07.17Z</time></trkpt><trkpt lat="46.1316086" lon="13.5661201"><ele>326.0</ele><time>2026-05-02T07:44:08.174Z</time></trkpt><trkpt lat="46.1317074" lon="13.5660481"><ele>326.0</ele><time>2026-05-02T07:44:09.171Z</time></trkpt><trkpt lat="46.1317953" lon="13.5659693"><ele>326.0</ele><time>2026-05-02T07:44:10.164Z</time></trkpt><trkpt lat="46.1318787" lon="13.5658933"><ele>326.0</ele><time>2026-05-02T07:44:11.16Z</time></trkpt><trkpt lat="46.1319612" lon="13.5658214"><ele>326.0</ele><time>2026-05-02T07:44:12.16Z</time></trkpt><trkpt lat="46.1320388" lon="13.5657599"><ele>326.0</ele><time>2026-05-02T07:44:13.165Z</time></trkpt><trkpt lat="46.1320842" lon="13.5656774"><ele>326.0</ele><time>2026-05-02T07:44:14.149Z</time></trkpt><trkpt lat="46.1320434" lon="13.5655064"><ele>326.0</ele><time>2026-05-02T07:44:16.164Z</time></trkpt><trkpt lat="46.1319562" lon="13.5654461"><ele>326.0</ele><time>2026-05-02T07:44:17.141Z</time></trkpt><trkpt lat="46.1318423" lon="13.5653953"><ele>326.0</ele><time>2026-05-02T07:44:18.161Z</time></trkpt><trkpt lat="46.1317189" lon="13.5653536"><ele>328.75</ele><time>2026-05-02T07:44:19.142Z</time></trkpt><trkpt lat="46.1315962" lon="13.5653231"><ele>331.5</ele><time>2026-05-02T07:44:20.168Z</time></trkpt><trkpt lat="46.131484" lon="13.5653096"><ele>334.25</ele><time>2026-05-02T07:44:21.167Z</time></trkpt><trkpt lat="46.13137" lon="13.5653101"><ele>337.0</ele><time>2026-05-02T07:44:22.153Z</time></trkpt><trkpt lat="46.1312525" lon="13.565307"><ele>331.0</ele><time>2026-05-02T07:44:23.164Z</time></trkpt><trkpt lat="46.1311336" lon="13.5652722"><ele>325.0</ele><time>2026-05-02T07:44:24.148Z</time></trkpt><trkpt lat="46.1310139" lon="13.5652112"><ele>319.0</ele><time>2026-05-02T07:44:25.155Z</time></trkpt><trkpt lat="46.1308987" lon="13.5651418"><ele>313.0</ele><time>2026-05-02T07:44:26.149Z</time></trkpt><trkpt lat="46.1307831" lon="13.5650691"><ele>309.0</ele><time>2026-05-02T07:44:27.164Z</time></trkpt><trkpt lat="46.1306621" lon="13.5650276"><ele>305.0</ele><time>2026-05-02T07:44:28.172Z</time></trkpt><trkpt lat="46.1305287" lon="13.5650057"><ele>301.0</ele><time>2026-05-02T07:44:29.154Z</time></trkpt><trkpt lat="46.1303944" lon="13.5649954"><ele>297.0</ele><time>2026-05-02T07:44:30.172Z</time></trkpt><trkpt lat="46.1302664" lon="13.5650047"><ele>297.0</ele><time>2026-05-02T07:44:31.166Z</time></trkpt><trkpt lat="46.1301382" lon="13.5650142"><ele>297.0</ele><time>2026-05-02T07:44:32.162Z</time></trkpt><trkpt lat="46.1300043" lon="13.5650186"><ele>297.0</ele><time>2026-05-02T07:44:33.157Z</time></trkpt><trkpt lat="46.1298735" lon="13.5650067"><ele>297.0</ele><time>2026-05-02T07:44:34.149Z</time></trkpt><trkpt lat="46.1297544" lon="13.5649735"><ele>291.75</ele><time>2026-05-02T07:44:35.144Z</time></trkpt><trkpt lat="46.129634" lon="13.5649272"><ele>286.5</ele><time>2026-05-02T07:44:36.149Z</time></trkpt><trkpt lat="46.12952" lon="13.5648638"><ele>281.25</ele><time>2026-05-02T07:44:37.169Z</time></trkpt><trkpt lat="46.1294133" lon="13.5647836"><ele>276.0</ele><time>2026-05-02T07:44:38.146Z</time></trkpt><trkpt lat="46.1293126" lon="13.5646962"><ele>276.0</ele><time>2026-05-02T07:44:39.138Z</time></trkpt><trkpt lat="46.1291994" lon="13.5646612"><ele>276.0</ele><time>2026-05-02T07:44:40.152Z</time></trkpt><trkpt lat="46.1290801" lon="13.564674"><ele>276.0</ele><time>2026-05-02T07:44:41.146Z</time></trkpt><trkpt lat="46.1289543" lon="13.5646917"><ele>276.0</ele><time>2026-05-02T07:44:42.155Z</time></trkpt><trkpt lat="46.1288412" lon="13.5646973"><ele>274.6</ele><time>2026-05-02T07:44:43.172Z</time></trkpt><trkpt lat="46.1287422" lon="13.5646608"><ele>273.20000000000005</ele><time>2026-05-02T07:44:44.159Z</time></trkpt><trkpt lat="46.1286756" lon="13.5645583"><ele>271.79999999999995</ele><time>2026-05-02T07:44:45.153Z</time></trkpt><trkpt lat="46.1286238" lon="13.5644153"><ele>270.4</ele><time>2026-05-02T07:44:46.17Z</time></trkpt><trkpt lat="46.1285648" lon="13.5642612"><ele>269.0</ele><time>2026-05-02T07:44:47.167Z</time></trkpt><trkpt lat="46.1284921" lon="13.5641091"><ele>269.0</ele><time>2026-05-02T07:44:48.151Z</time></trkpt><trkpt lat="46.1284223" lon="13.5639743"><ele>269.0</ele><time>2026-05-02T07:44:49.156Z</time></trkpt><trkpt lat="46.1283556" lon="13.563846"><ele>269.0</ele><time>2026-05-02T07:44:50.169Z</time></trkpt><trkpt lat="46.1283289" lon="13.5637053"><ele>269.0</ele><time>2026-05-02T07:44:51.163Z</time></trkpt><trkpt lat="46.1283254" lon="13.5635888"><ele>269.0</ele><time>2026-05-02T07:44:52.158Z</time></trkpt><trkpt lat="46.1282706" lon="13.5634643"><ele>265.0</ele><time>2026-05-02T07:44:54.166Z</time></trkpt><trkpt lat="46.1281891" lon="13.5635938"><ele>261.0</ele><time>2026-05-02T07:44:56.156Z</time></trkpt><trkpt lat="46.1281892" lon="13.563749"><ele>257.0</ele><time>2026-05-02T07:44:57.161Z</time></trkpt><trkpt lat="46.1282034" lon="13.5639089"><ele>253.0</ele><time>2026-05-02T07:44:58.146Z</time></trkpt><trkpt lat="46.1282188" lon="13.5640672"><ele>249.75</ele><time>2026-05-02T07:44:59.161Z</time></trkpt><trkpt lat="46.1282258" lon="13.564224"><ele>246.5</ele><time>2026-05-02T07:45:00.154Z</time></trkpt><trkpt lat="46.1281969" lon="13.5643808"><ele>243.25</ele><time>2026-05-02T07:45:01.165Z</time></trkpt><trkpt lat="46.1281388" lon="13.5645341"><ele>240.0</ele><time>2026-05-02T07:45:02.166Z</time></trkpt><trkpt lat="46.1280654" lon="13.5646817"><ele>239.4</ele><time>2026-05-02T07:45:03.149Z</time></trkpt><trkpt lat="46.1279965" lon="13.5648134"><ele>238.8</ele><time>2026-05-02T07:45:04.158Z</time></trkpt><trkpt lat="46.1279616" lon="13.5649368"><ele>238.2</ele><time>2026-05-02T07:45:05.155Z</time></trkpt><trkpt lat="46.1279616" lon="13.5650457"><ele>237.6</ele><time>2026-05-02T07:45:06.153Z</time></trkpt><trkpt lat="46.1279513" lon="13.5651988"><ele>237.0</ele><time>2026-05-02T07:45:08.157Z</time></trkpt><trkpt lat="46.1278845" lon="13.5651832"><ele>237.0</ele><time>2026-05-02T07:45:09.16Z</time></trkpt><trkpt lat="46.1278212" lon="13.5650804"><ele>237.0</ele><time>2026-05-02T07:45:10.151Z</time></trkpt><trkpt lat="46.1277865" lon="13.5649428"><ele>237.0</ele><time>2026-05-02T07:45:11.147Z</time></trkpt><trkpt lat="46.1277709" lon="13.5647938"><ele>237.0</ele><time>2026-05-02T07:45:12.142Z</time></trkpt><trkpt lat="46.1277739" lon="13.5646316"><ele>237.0</ele><time>2026-05-02T07:45:13.155Z</time></trkpt><trkpt lat="46.1277748" lon="13.5644818"><ele>237.6</ele><time>2026-05-02T07:45:14.16Z</time></trkpt><trkpt lat="46.1277659" lon="13.5643442"><ele>238.2</ele><time>2026-05-02T07:45:15.153Z</time></trkpt><trkpt lat="46.1277277" lon="13.5642321"><ele>238.8</ele><time>2026-05-02T07:45:16.156Z</time></trkpt><trkpt lat="46.1276492" lon="13.5641606"><ele>239.4</ele><time>2026-05-02T07:45:17.156Z</time></trkpt><trkpt lat="46.1275561" lon="13.5640974"><ele>240.0</ele><time>2026-05-02T07:45:18.157Z</time></trkpt><trkpt lat="46.1274906" lon="13.5640171"><ele>240.0</ele><time>2026-05-02T07:45:19.155Z</time></trkpt><trkpt lat="46.1274746" lon="13.5639063"><ele>240.0</ele><time>2026-05-02T07:45:20.148Z</time></trkpt><trkpt lat="46.127494" lon="13.563792"><ele>240.0</ele><time>2026-05-02T07:45:21.148Z</time></trkpt><trkpt lat="46.12751" lon="13.5636934"><ele>240.0</ele><time>2026-05-02T07:45:22.141Z</time></trkpt><trkpt lat="46.1274352" lon="13.5636316"><ele>240.0</ele><time>2026-05-02T07:45:24.158Z</time></trkpt><trkpt lat="46.1273843" lon="13.5637004"><ele>240.0</ele><time>2026-05-02T07:45:25.148Z</time></trkpt><trkpt lat="46.1273714" lon="13.5638297"><ele>240.0</ele><time>2026-05-02T07:45:26.167Z</time></trkpt><trkpt lat="46.1273725" lon="13.5639931"><ele>240.0</ele><time>2026-05-02T07:45:27.145Z</time></trkpt><trkpt lat="46.1273745" lon="13.5641735"><ele>240.0</ele><time>2026-05-02T07:45:28.154Z</time></trkpt><trkpt lat="46.1273809" lon="13.5643416"><ele>240.0</ele><time>2026-05-02T07:45:29.142Z</time></trkpt><trkpt lat="46.1273957" lon="13.5645038"><ele>234.25</ele><time>2026-05-02T07:45:30.149Z</time></trkpt><trkpt lat="46.1273714" lon="13.5646565"><ele>228.5</ele><time>2026-05-02T07:45:31.136Z</time></trkpt><trkpt lat="46.1273201" lon="13.5648093"><ele>222.75</ele><time>2026-05-02T07:45:32.145Z</time></trkpt><trkpt lat="46.127278" lon="13.5649657"><ele>217.0</ele><time>2026-05-02T07:45:33.154Z</time></trkpt><trkpt lat="46.1272592" lon="13.5651373"><ele>217.0</ele><time>2026-05-02T07:45:34.153Z</time></trkpt><trkpt lat="46.1272589" lon="13.5653044"><ele>217.0</ele><time>2026-05-02T07:45:35.141Z</time></trkpt><trkpt lat="46.1272821" lon="13.5654612"><ele>217.0</ele><time>2026-05-02T07:45:36.151Z</time></trkpt><trkpt lat="46.1273213" lon="13.5655914"><ele>217.0</ele><time>2026-05-02T07:45:37.152Z</time></trkpt><trkpt lat="46.127351" lon="13.5656721"><ele>217.0</ele><time>2026-05-02T07:45:38.161Z</time></trkpt><trkpt lat="46.1274099" lon="13.5658043"><ele>220.0</ele><time>2026-05-02T07:45:57.149Z</time></trkpt><trkpt lat="46.1274766" lon="13.5658606"><ele>223.0</ele><time>2026-05-02T07:45:58.155Z</time></trkpt><trkpt lat="46.1275555" lon="13.5659146"><ele>226.0</ele><time>2026-05-02T07:45:59.152Z</time></trkpt><trkpt lat="46.1276418" lon="13.5659742"><ele>229.0</ele><time>2026-05-02T07:46:00.157Z</time></trkpt><trkpt lat="46.1277355" lon="13.5660676"><ele>232.0</ele><time>2026-05-02T07:46:01.142Z</time></trkpt><trkpt lat="46.1278238" lon="13.5661856"><ele>230.2</ele><time>2026-05-02T07:46:02.156Z</time></trkpt><trkpt lat="46.1279109" lon="13.5662942"><ele>228.39999999999998</ele><time>2026-05-02T07:46:03.136Z</time></trkpt><trkpt lat="46.1279936" lon="13.5664022"><ele>226.60000000000002</ele><time>2026-05-02T07:46:04.154Z</time></trkpt><trkpt lat="46.1280515" lon="13.5665233"><ele>224.8</ele><time>2026-05-02T07:46:05.151Z</time></trkpt><trkpt lat="46.1280773" lon="13.5666748"><ele>223.0</ele><time>2026-05-02T07:46:06.16Z</time></trkpt><trkpt lat="46.1280813" lon="13.5668416"><ele>223.0</ele><time>2026-05-02T07:46:07.151Z</time></trkpt><trkpt lat="46.1281094" lon="13.5670142"><ele>223.0</ele><time>2026-05-02T07:46:08.159Z</time></trkpt><trkpt lat="46.1281848" lon="13.5671721"><ele>223.0</ele><time>2026-05-02T07:46:09.166Z</time></trkpt><trkpt lat="46.1282644" lon="13.5673301"><ele>223.0</ele><time>2026-05-02T07:46:10.147Z</time></trkpt><trkpt lat="46.1283105" lon="13.5675204"><ele>228.66666666666666</ele><time>2026-05-02T07:46:11.147Z</time></trkpt><trkpt lat="46.1283338" lon="13.5677392"><ele>234.33333333333331</ele><time>2026-05-02T07:46:12.154Z</time></trkpt><trkpt lat="46.1283603" lon="13.567967"><ele>240.0</ele><time>2026-05-02T07:46:13.138Z</time></trkpt><trkpt lat="46.1283874" lon="13.5682015"><ele>240.0</ele><time>2026-05-02T07:46:14.161Z</time></trkpt><trkpt lat="46.128412" lon="13.5684369"><ele>240.0</ele><time>2026-05-02T07:46:15.145Z</time></trkpt><trkpt lat="46.1284235" lon="13.5686671"><ele>240.0</ele><time>2026-05-02T07:46:16.154Z</time></trkpt><trkpt lat="46.1284226" lon="13.5688878"><ele>240.25</ele><time>2026-05-02T07:46:17.15Z</time></trkpt><trkpt lat="46.1284079" lon="13.5690918"><ele>240.5</ele><time>2026-05-02T07:46:18.158Z</time></trkpt><trkpt lat="46.1283879" lon="13.5692871"><ele>240.75</ele><time>2026-05-02T07:46:19.156Z</time></trkpt><trkpt lat="46.1283765" lon="13.5694708"><ele>241.0</ele><time>2026-05-02T07:46:20.128Z</time></trkpt><trkpt lat="46.1283849" lon="13.5696373"><ele>243.5</ele><time>2026-05-02T07:46:21.14Z</time></trkpt><trkpt lat="46.128438" lon="13.5697938"><ele>246.0</ele><time>2026-05-02T07:46:22.152Z</time></trkpt><trkpt lat="46.1285308" lon="13.5699217"><ele>248.5</ele><time>2026-05-02T07:46:23.147Z</time></trkpt><trkpt lat="46.1286427" lon="13.5700401"><ele>251.0</ele><time>2026-05-02T07:46:24.145Z</time></trkpt><trkpt lat="46.128759" lon="13.5701603"><ele>251.0</ele><time>2026-05-02T07:46:25.143Z</time></trkpt><trkpt lat="46.1288739" lon="13.5702968"><ele>251.0</ele><time>2026-05-02T07:46:26.151Z</time></trkpt><trkpt lat="46.1289876" lon="13.5704508"><ele>251.0</ele><time>2026-05-02T07:46:27.154Z</time></trkpt><trkpt lat="46.1290997" lon="13.570624"><ele>249.33333333333334</ele><time>2026-05-02T07:46:28.146Z</time></trkpt><trkpt lat="46.129207" lon="13.570817"><ele>247.66666666666669</ele><time>2026-05-02T07:46:29.149Z</time></trkpt><trkpt lat="46.1293119" lon="13.5710167"><ele>246.0</ele><time>2026-05-02T07:46:30.139Z</time></trkpt><trkpt lat="46.1294221" lon="13.5712154"><ele>251.66666666666669</ele><time>2026-05-02T07:46:31.14Z</time></trkpt><trkpt lat="46.1295363" lon="13.5714066"><ele>257.33333333333337</ele><time>2026-05-02T07:46:32.148Z</time></trkpt><trkpt lat="46.1296538" lon="13.5715971"><ele>263.0</ele><time>2026-05-02T07:46:33.144Z</time></trkpt><trkpt lat="46.1297699" lon="13.571777"><ele>263.0</ele><time>2026-05-02T07:46:34.152Z</time></trkpt><trkpt lat="46.1298679" lon="13.5719492"><ele>263.0</ele><time>2026-05-02T07:46:35.153Z</time></trkpt><trkpt lat="46.1299442" lon="13.5721397"><ele>263.0</ele><time>2026-05-02T07:46:36.141Z</time></trkpt><trkpt lat="46.1299912" lon="13.5723488"><ele>262.0</ele><time>2026-05-02T07:46:37.172Z</time></trkpt><trkpt lat="46.1300285" lon="13.5725748"><ele>261.0</ele><time>2026-05-02T07:46:38.143Z</time></trkpt><trkpt lat="46.130066" lon="13.5728021"><ele>260.0</ele><time>2026-05-02T07:46:39.156Z</time></trkpt><trkpt lat="46.1301281" lon="13.5730323"><ele>263.0</ele><time>2026-05-02T07:46:40.149Z</time></trkpt><trkpt lat="46.1302182" lon="13.5732421"><ele>266.0</ele><time>2026-05-02T07:46:41.143Z</time></trkpt><trkpt lat="46.1303004" lon="13.5734573"><ele>269.0</ele><time>2026-05-02T07:46:42.165Z</time></trkpt><trkpt lat="46.1303845" lon="13.5736709"><ele>272.0</ele><time>2026-05-02T07:46:43.149Z</time></trkpt><trkpt lat="46.130461" lon="13.5738819"><ele>275.0</ele><time>2026-05-02T07:46:44.154Z</time></trkpt><trkpt lat="46.1305221" lon="13.5740753"><ele>278.0</ele><time>2026-05-02T07:46:45.148Z</time></trkpt><trkpt lat="46.1305602" lon="13.5742753"><ele>278.0</ele><time>2026-05-02T07:46:46.153Z</time></trkpt><trkpt lat="46.130569" lon="13.5744837"><ele>278.0</ele><time>2026-05-02T07:46:47.143Z</time></trkpt><trkpt lat="46.130569" lon="13.5746985"><ele>278.0</ele><time>2026-05-02T07:46:48.152Z</time></trkpt><trkpt lat="46.1305781" lon="13.5749188"><ele>278.0</ele><time>2026-05-02T07:46:49.154Z</time></trkpt><trkpt lat="46.1306175" lon="13.5751275"><ele>280.75</ele><time>2026-05-02T07:46:50.148Z</time></trkpt><trkpt lat="46.1306545" lon="13.5753268"><ele>283.5</ele><time>2026-05-02T07:46:51.16Z</time></trkpt><trkpt lat="46.1306762" lon="13.5755108"><ele>286.25</ele><time>2026-05-02T07:46:52.155Z</time></trkpt><trkpt lat="46.1306733" lon="13.5756904"><ele>289.0</ele><time>2026-05-02T07:46:53.147Z</time></trkpt><trkpt lat="46.1306756" lon="13.5758607"><ele>287.0</ele><time>2026-05-02T07:46:54.144Z</time></trkpt><trkpt lat="46.1307103" lon="13.5760224"><ele>285.0</ele><time>2026-05-02T07:46:55.146Z</time></trkpt><trkpt lat="46.1307913" lon="13.5761598"><ele>283.0</ele><time>2026-05-02T07:46:56.153Z</time></trkpt><trkpt lat="46.1309038" lon="13.5763038"><ele>281.0</ele><time>2026-05-02T07:46:57.138Z</time></trkpt><trkpt lat="46.1310215" lon="13.5764437"><ele>281.0</ele><time>2026-05-02T07:46:58.151Z</time></trkpt><trkpt lat="46.1311272" lon="13.5766004"><ele>281.0</ele><time>2026-05-02T07:46:59.14Z</time></trkpt><trkpt lat="46.1312274" lon="13.5767454"><ele>281.0</ele><time>2026-05-02T07:47:00.146Z</time></trkpt><trkpt lat="46.1313059" lon="13.5768891"><ele>281.0</ele><time>2026-05-02T07:47:01.146Z</time></trkpt><trkpt lat="46.1313631" lon="13.5770411"><ele>283.75</ele><time>2026-05-02T07:47:02.154Z</time></trkpt><trkpt lat="46.1313997" lon="13.5772128"><ele>286.5</ele><time>2026-05-02T07:47:03.146Z</time></trkpt><trkpt lat="46.131433" lon="13.5773835"><ele>289.25</ele><time>2026-05-02T07:47:04.154Z</time></trkpt><trkpt lat="46.1314758" lon="13.5775269"><ele>292.0</ele><time>2026-05-02T07:47:05.138Z</time></trkpt><trkpt lat="46.1315254" lon="13.5776507"><ele>292.0</ele><time>2026-05-02T07:47:06.145Z</time></trkpt><trkpt lat="46.1315695" lon="13.5777491"><ele>292.0</ele><time>2026-05-02T07:47:07.153Z</time></trkpt><trkpt lat="46.1315704" lon="13.5778927"><ele>292.0</ele><time>2026-05-02T07:47:09.166Z</time></trkpt><trkpt lat="46.1314703" lon="13.5779011"><ele>292.0</ele><time>2026-05-02T07:47:11.162Z</time></trkpt><trkpt lat="46.1314304" lon="13.5777978"><ele>292.0</ele><time>2026-05-02T07:47:12.16Z</time></trkpt><trkpt lat="46.131393" lon="13.5776531"><ele>292.0</ele><time>2026-05-02T07:47:13.133Z</time></trkpt><trkpt lat="46.1313543" lon="13.577503"><ele>292.0</ele><time>2026-05-02T07:47:14.158Z</time></trkpt><trkpt lat="46.1312866" lon="13.5773487"><ele>292.0</ele><time>2026-05-02T07:47:15.166Z</time></trkpt><trkpt lat="46.13119" lon="13.5772098"><ele>292.0</ele><time>2026-05-02T07:47:16.146Z</time></trkpt><trkpt lat="46.1310837" lon="13.5770783"><ele>289.25</ele><time>2026-05-02T07:47:17.15Z</time></trkpt><trkpt lat="46.1309907" lon="13.5769365"><ele>286.5</ele><time>2026-05-02T07:47:18.153Z</time></trkpt><trkpt lat="46.1309154" lon="13.5767783"><ele>283.75</ele><time>2026-05-02T07:47:19.149Z</time></trkpt><trkpt lat="46.1308334" lon="13.5766176"><ele>281.0</ele><time>2026-05-02T07:47:20.148Z</time></trkpt><trkpt lat="46.1307266" lon="13.5764543"><ele>290.0</ele><time>2026-05-02T07:47:21.157Z</time></trkpt><trkpt lat="46.1306011" lon="13.5762989"><ele>299.0</ele><time>2026-05-02T07:47:22.146Z</time></trkpt><trkpt lat="46.1304741" lon="13.5761377"><ele>308.0</ele><time>2026-05-02T07:47:23.162Z</time></trkpt><trkpt lat="46.1303526" lon="13.5759739"><ele>308.0</ele><time>2026-05-02T07:47:24.155Z</time></trkpt><trkpt lat="46.1302292" lon="13.575792"><ele>308.0</ele><time>2026-05-02T07:47:25.135Z</time></trkpt><trkpt lat="46.1301113" lon="13.5756"><ele>308.0</ele><time>2026-05-02T07:47:26.159Z</time></trkpt><trkpt lat="46.1300091" lon="13.5753804"><ele>301.6666666666667</ele><time>2026-05-02T07:47:27.158Z</time></trkpt><trkpt lat="46.129923" lon="13.5751419"><ele>295.3333333333333</ele><time>2026-05-02T07:47:28.152Z</time></trkpt><trkpt lat="46.1298331" lon="13.5748886"><ele>289.0</ele><time>2026-05-02T07:47:29.168Z</time></trkpt><trkpt lat="46.1297429" lon="13.5746353"><ele>307.0</ele><time>2026-05-02T07:47:30.168Z</time></trkpt><trkpt lat="46.1296713" lon="13.5743758"><ele>325.0</ele><time>2026-05-02T07:47:31.155Z</time></trkpt><trkpt lat="46.1296358" lon="13.5740945"><ele>343.0</ele><time>2026-05-02T07:47:32.152Z</time></trkpt><trkpt lat="46.1296106" lon="13.5738319"><ele>337.0</ele><time>2026-05-02T07:47:33.146Z</time></trkpt><trkpt lat="46.1295893" lon="13.5736184"><ele>331.0</ele><time>2026-05-02T07:47:34.142Z</time></trkpt><trkpt lat="46.1295469" lon="13.5734153"><ele>325.0</ele><time>2026-05-02T07:47:35.141Z</time></trkpt><trkpt lat="46.1294677" lon="13.5732194"><ele>325.0</ele><time>2026-05-02T07:47:36.172Z</time></trkpt><trkpt lat="46.1293667" lon="13.5730283"><ele>325.0</ele><time>2026-05-02T07:47:37.149Z</time></trkpt><trkpt lat="46.1292766" lon="13.5728629"><ele>325.0</ele><time>2026-05-02T07:47:38.155Z</time></trkpt><trkpt lat="46.12921" lon="13.5727166"><ele>325.0</ele><time>2026-05-02T07:47:39.152Z</time></trkpt><trkpt lat="46.1291304" lon="13.5726013"><ele>328.5</ele><time>2026-05-02T07:47:40.154Z</time></trkpt><trkpt lat="46.1289999" lon="13.5725586"><ele>332.0</ele><time>2026-05-02T07:47:41.158Z</time></trkpt><trkpt lat="46.128858" lon="13.5725312"><ele>335.5</ele><time>2026-05-02T07:47:42.155Z</time></trkpt><trkpt lat="46.1287254" lon="13.5724734"><ele>339.0</ele><time>2026-05-02T07:47:43.155Z</time></trkpt><trkpt lat="46.1286041" lon="13.5723953"><ele>339.0</ele><time>2026-05-02T07:47:44.159Z</time></trkpt><trkpt lat="46.1284945" lon="13.5723018"><ele>339.0</ele><time>2026-05-02T07:47:45.154Z</time></trkpt><trkpt lat="46.1284112" lon="13.5721724"><ele>339.0</ele><time>2026-05-02T07:47:46.158Z</time></trkpt><trkpt lat="46.1283384" lon="13.5720221"><ele>339.0</ele><time>2026-05-02T07:47:47.166Z</time></trkpt><trkpt lat="46.1282825" lon="13.5718573"><ele>339.0</ele><time>2026-05-02T07:47:48.152Z</time></trkpt><trkpt lat="46.1281962" lon="13.5716843"><ele>339.0</ele><time>2026-05-02T07:47:49.155Z</time></trkpt><trkpt lat="46.1280869" lon="13.5715436"><ele>339.0</ele><time>2026-05-02T07:47:50.17Z</time></trkpt><trkpt lat="46.127974" lon="13.571393"><ele>339.0</ele><time>2026-05-02T07:47:51.16Z</time></trkpt><trkpt lat="46.127875" lon="13.5712498"><ele>333.5</ele><time>2026-05-02T07:47:52.159Z</time></trkpt><trkpt lat="46.1277733" lon="13.5711595"><ele>328.0</ele><time>2026-05-02T07:47:53.16Z</time></trkpt><trkpt lat="46.1276547" lon="13.5711133"><ele>322.5</ele><time>2026-05-02T07:47:54.15Z</time></trkpt><trkpt lat="46.127535" lon="13.5710884"><ele>317.0</ele><time>2026-05-02T07:47:55.164Z</time></trkpt><trkpt lat="46.1274312" lon="13.5710321"><ele>317.75</ele><time>2026-05-02T07:47:56.154Z</time></trkpt><trkpt lat="46.1273669" lon="13.5709079"><ele>318.5</ele><time>2026-05-02T07:47:57.156Z</time></trkpt><trkpt lat="46.1273269" lon="13.5707343"><ele>319.25</ele><time>2026-05-02T07:47:58.146Z</time></trkpt><trkpt lat="46.1273021" lon="13.5705478"><ele>320.0</ele><time>2026-05-02T07:47:59.153Z</time></trkpt><trkpt lat="46.1272618" lon="13.5704006"><ele>320.0</ele><time>2026-05-02T07:48:00.146Z</time></trkpt><trkpt lat="46.1271801" lon="13.570315"><ele>320.0</ele><time>2026-05-02T07:48:01.158Z</time></trkpt><trkpt lat="46.1270748" lon="13.5703034"><ele>320.0</ele><time>2026-05-02T07:48:02.146Z</time></trkpt><trkpt lat="46.1269688" lon="13.5703498"><ele>320.0</ele><time>2026-05-02T07:48:03.164Z</time></trkpt><trkpt lat="46.1268639" lon="13.5704407"><ele>320.0</ele><time>2026-05-02T07:48:04.16Z</time></trkpt><trkpt lat="46.1267564" lon="13.5705355"><ele>320.0</ele><time>2026-05-02T07:48:05.162Z</time></trkpt><trkpt lat="46.1266689" lon="13.5706263"><ele>320.0</ele><time>2026-05-02T07:48:06.17Z</time></trkpt><trkpt lat="46.1266512" lon="13.5707779"><ele>320.0</ele><time>2026-05-02T07:48:08.154Z</time></trkpt><trkpt lat="46.1266974" lon="13.5708398"><ele>320.0</ele><time>2026-05-02T07:48:09.178Z</time></trkpt><trkpt lat="46.1267725" lon="13.570852"><ele>320.0</ele><time>2026-05-02T07:48:10.165Z</time></trkpt><trkpt lat="46.1268617" lon="13.5708"><ele>320.0</ele><time>2026-05-02T07:48:11.152Z</time></trkpt><trkpt lat="46.1269404" lon="13.5707192"><ele>320.0</ele><time>2026-05-02T07:48:12.161Z</time></trkpt><trkpt lat="46.1270267" lon="13.570667"><ele>320.0</ele><time>2026-05-02T07:48:13.153Z</time></trkpt><trkpt lat="46.1271004" lon="13.570683"><ele>320.0</ele><time>2026-05-02T07:48:14.16Z</time></trkpt><trkpt lat="46.1271514" lon="13.5707679"><ele>320.0</ele><time>2026-05-02T07:48:15.154Z</time></trkpt><trkpt lat="46.1271598" lon="13.5708942"><ele>320.0</ele><time>2026-05-02T07:48:16.149Z</time></trkpt><trkpt lat="46.1271149" lon="13.5710009"><ele>320.0</ele><time>2026-05-02T07:48:17.157Z</time></trkpt><trkpt lat="46.1270187" lon="13.5710533"><ele>320.0</ele><time>2026-05-02T07:48:18.16Z</time></trkpt><trkpt lat="46.1269114" lon="13.5710942"><ele>320.0</ele><time>2026-05-02T07:48:19.178Z</time></trkpt><trkpt lat="46.1268097" lon="13.5711786"><ele>320.0</ele><time>2026-05-02T07:48:20.151Z</time></trkpt><trkpt lat="46.1267099" lon="13.571317"><ele>320.0</ele><time>2026-05-02T07:48:21.155Z</time></trkpt><trkpt lat="46.1266002" lon="13.5714598"><ele>317.6</ele><time>2026-05-02T07:48:22.164Z</time></trkpt><trkpt lat="46.1264876" lon="13.5715832"><ele>315.2</ele><time>2026-05-02T07:48:23.154Z</time></trkpt><trkpt lat="46.1263964" lon="13.5716854"><ele>312.8</ele><time>2026-05-02T07:48:24.154Z</time></trkpt><trkpt lat="46.1263321" lon="13.5717634"><ele>310.4</ele><time>2026-05-02T07:48:25.158Z</time></trkpt><trkpt lat="46.1262953" lon="13.5718485"><ele>308.0</ele><time>2026-05-02T07:48:26.161Z</time></trkpt><trkpt lat="46.1263586" lon="13.5719836"><ele>308.0</ele><time>2026-05-02T07:48:28.151Z</time></trkpt><trkpt lat="46.1264522" lon="13.5719672"><ele>308.0</ele><time>2026-05-02T07:48:29.159Z</time></trkpt><trkpt lat="46.1265347" lon="13.5718744"><ele>308.0</ele><time>2026-05-02T07:48:30.157Z</time></trkpt><trkpt lat="46.1266208" lon="13.5717642"><ele>308.0</ele><time>2026-05-02T07:48:31.155Z</time></trkpt><trkpt lat="46.1267326" lon="13.5716651"><ele>308.0</ele><time>2026-05-02T07:48:32.149Z</time></trkpt><trkpt lat="46.1268464" lon="13.5715638"><ele>314.5</ele><time>2026-05-02T07:48:33.169Z</time></trkpt><trkpt lat="46.126947" lon="13.5714931"><ele>321.0</ele><time>2026-05-02T07:48:34.174Z</time></trkpt><trkpt lat="46.1270415" lon="13.5714817"><ele>327.5</ele><time>2026-05-02T07:48:35.16Z</time></trkpt><trkpt lat="46.1271486" lon="13.5715373"><ele>334.0</ele><time>2026-05-02T07:48:36.17Z</time></trkpt><trkpt lat="46.1272542" lon="13.5716483"><ele>334.0</ele><time>2026-05-02T07:48:37.156Z</time></trkpt><trkpt lat="46.1273568" lon="13.5717999"><ele>334.0</ele><time>2026-05-02T07:48:38.155Z</time></trkpt><trkpt lat="46.1274615" lon="13.5719716"><ele>334.0</ele><time>2026-05-02T07:48:39.153Z</time></trkpt><trkpt lat="46.1275751" lon="13.5721253"><ele>341.0</ele><time>2026-05-02T07:48:40.151Z</time></trkpt><trkpt lat="46.1276956" lon="13.5722721"><ele>348.0</ele><time>2026-05-02T07:48:41.164Z</time></trkpt><trkpt lat="46.1278023" lon="13.5724429"><ele>355.0</ele><time>2026-05-02T07:48:42.161Z</time></trkpt><trkpt lat="46.1278924" lon="13.5726532"><ele>360.0</ele><time>2026-05-02T07:48:43.162Z</time></trkpt><trkpt lat="46.1279701" lon="13.57288"><ele>365.0</ele><time>2026-05-02T07:48:44.153Z</time></trkpt><trkpt lat="46.1280483" lon="13.5730828"><ele>370.0</ele><time>2026-05-02T07:48:45.15Z</time></trkpt><trkpt lat="46.1281206" lon="13.5732465"><ele>370.0</ele><time>2026-05-02T07:48:46.152Z</time></trkpt><trkpt lat="46.1281715" lon="13.5733882"><ele>370.0</ele><time>2026-05-02T07:48:47.152Z</time></trkpt><trkpt lat="46.1281889" lon="13.573495"><ele>370.0</ele><time>2026-05-02T07:48:48.16Z</time></trkpt><trkpt lat="46.1281755" lon="13.5735892"><ele>370.0</ele><time>2026-05-02T07:48:49.178Z</time></trkpt><trkpt lat="46.1280737" lon="13.5735835"><ele>370.0</ele><time>2026-05-02T07:48:51.165Z</time></trkpt><trkpt lat="46.1280064" lon="13.5734788"><ele>370.0</ele><time>2026-05-02T07:48:52.165Z</time></trkpt><trkpt lat="46.1279353" lon="13.5733393"><ele>370.0</ele><time>2026-05-02T07:48:53.159Z</time></trkpt><trkpt lat="46.127839" lon="13.5732108"><ele>370.0</ele><time>2026-05-02T07:48:54.152Z</time></trkpt><trkpt lat="46.1277031" lon="13.5731156"><ele>370.0</ele><time>2026-05-02T07:48:55.152Z</time></trkpt><trkpt lat="46.1275607" lon="13.573033"><ele>370.0</ele><time>2026-05-02T07:48:56.168Z</time></trkpt><trkpt lat="46.127447" lon="13.5729847"><ele>370.0</ele><time>2026-05-02T07:48:57.171Z</time></trkpt><trkpt lat="46.1273503" lon="13.5729837"><ele>370.0</ele><time>2026-05-02T07:48:58.174Z</time></trkpt><trkpt lat="46.1272479" lon="13.5730344"><ele>370.0</ele><time>2026-05-02T07:48:59.169Z</time></trkpt><trkpt lat="46.1271645" lon="13.5731361"><ele>370.0</ele><time>2026-05-02T07:49:00.172Z</time></trkpt><trkpt lat="46.1271055" lon="13.5732745"><ele>366.25</ele><time>2026-05-02T07:49:01.158Z</time></trkpt><trkpt lat="46.1270795" lon="13.5734196"><ele>362.5</ele><time>2026-05-02T07:49:02.155Z</time></trkpt><trkpt lat="46.1270919" lon="13.5735816"><ele>358.75</ele><time>2026-05-02T07:49:03.173Z</time></trkpt><trkpt lat="46.127126" lon="13.5737688"><ele>355.0</ele><time>2026-05-02T07:49:04.155Z</time></trkpt><trkpt lat="46.1271689" lon="13.5739692"><ele>355.0</ele><time>2026-05-02T07:49:05.151Z</time></trkpt><trkpt lat="46.1272144" lon="13.574182"><ele>355.0</ele><time>2026-05-02T07:49:06.164Z</time></trkpt><trkpt lat="46.1272607" lon="13.5743972"><ele>355.0</ele><time>2026-05-02T07:49:07.148Z</time></trkpt><trkpt lat="46.12731" lon="13.5746188"><ele>356.75</ele><time>2026-05-02T07:49:08.159Z</time></trkpt><trkpt lat="46.1273471" lon="13.5748328"><ele>358.5</ele><time>2026-05-02T07:49:09.158Z</time></trkpt><trkpt lat="46.1273518" lon="13.5750232"><ele>360.25</ele><time>2026-05-02T07:49:10.162Z</time></trkpt><trkpt lat="46.1273348" lon="13.5752069"><ele>362.0</ele><time>2026-05-02T07:49:11.155Z</time></trkpt><trkpt lat="46.1272992" lon="13.5753766"><ele>364.8</ele><time>2026-05-02T07:49:12.165Z</time></trkpt><trkpt lat="46.1272625" lon="13.5755347"><ele>367.6</ele><time>2026-05-02T07:49:13.159Z</time></trkpt><trkpt lat="46.1272382" lon="13.5756952"><ele>370.40000000000003</ele><time>2026-05-02T07:49:14.152Z</time></trkpt><trkpt lat="46.1272302" lon="13.5758524"><ele>373.20000000000005</ele><time>2026-05-02T07:49:15.152Z</time></trkpt><trkpt lat="46.1272398" lon="13.576007"><ele>376.0</ele><time>2026-05-02T07:49:16.167Z</time></trkpt><trkpt lat="46.1272447" lon="13.5761547"><ele>378.8</ele><time>2026-05-02T07:49:17.155Z</time></trkpt><trkpt lat="46.1272446" lon="13.5762951"><ele>381.6</ele><time>2026-05-02T07:49:18.164Z</time></trkpt><trkpt lat="46.1272224" lon="13.5764324"><ele>384.4</ele><time>2026-05-02T07:49:19.158Z</time></trkpt><trkpt lat="46.12718" lon="13.57656"><ele>387.2</ele><time>2026-05-02T07:49:20.173Z</time></trkpt><trkpt lat="46.1271239" lon="13.5766807"><ele>390.0</ele><time>2026-05-02T07:49:21.155Z</time></trkpt><trkpt lat="46.1270768" lon="13.5768234"><ele>390.0</ele><time>2026-05-02T07:49:22.174Z</time></trkpt><trkpt lat="46.1270528" lon="13.5769672"><ele>390.0</ele><time>2026-05-02T07:49:23.172Z</time></trkpt><trkpt lat="46.1270257" lon="13.5770949"><ele>390.0</ele><time>2026-05-02T07:49:24.16Z</time></trkpt><trkpt lat="46.1269985" lon="13.5772159"><ele>390.0</ele><time>2026-05-02T07:49:25.173Z</time></trkpt><trkpt lat="46.1269736" lon="13.5773215"><ele>390.0</ele><time>2026-05-02T07:49:26.168Z</time></trkpt><trkpt lat="46.1269501" lon="13.5774067"><ele>390.0</ele><time>2026-05-02T07:49:27.153Z</time></trkpt><trkpt lat="46.1269049" lon="13.5775118"><ele>391.0</ele><time>2026-05-02T07:49:29.156Z</time></trkpt><trkpt lat="46.1269118" lon="13.5776143"><ele>392.0</ele><time>2026-05-02T07:56:13.169Z</time></trkpt><trkpt lat="46.1269174" lon="13.5777294"><ele>393.0</ele><time>2026-05-02T07:56:15.16Z</time></trkpt><trkpt lat="46.1268441" lon="13.5779448"><ele>394.0</ele><time>2026-05-02T07:56:17.148Z</time></trkpt><trkpt lat="46.126809" lon="13.5780632"><ele>395.0</ele><time>2026-05-02T07:56:18.155Z</time></trkpt><trkpt lat="46.1267761" lon="13.578192"><ele>397.0</ele><time>2026-05-02T07:56:19.168Z</time></trkpt><trkpt lat="46.1267375" lon="13.5783344"><ele>399.0</ele><time>2026-05-02T07:56:20.162Z</time></trkpt><trkpt lat="46.1266822" lon="13.5784885"><ele>401.0</ele><time>2026-05-02T07:56:21.168Z</time></trkpt><trkpt lat="46.1266377" lon="13.5786647"><ele>403.0</ele><time>2026-05-02T07:56:22.165Z</time></trkpt><trkpt lat="46.1265894" lon="13.5788773"><ele>401.33333333333337</ele><time>2026-05-02T07:56:23.168Z</time></trkpt><trkpt lat="46.1265426" lon="13.5790913"><ele>399.66666666666663</ele><time>2026-05-02T07:56:24.166Z</time></trkpt><trkpt lat="46.1264943" lon="13.5793037"><ele>398.0</ele><time>2026-05-02T07:56:25.155Z</time></trkpt><trkpt lat="46.1264473" lon="13.5795217"><ele>401.25</ele><time>2026-05-02T07:56:26.156Z</time></trkpt><trkpt lat="46.1263999" lon="13.5797324"><ele>404.5</ele><time>2026-05-02T07:56:27.161Z</time></trkpt><trkpt lat="46.1263556" lon="13.5799295"><ele>407.75</ele><time>2026-05-02T07:56:28.158Z</time></trkpt><trkpt lat="46.1263123" lon="13.5801118"><ele>411.0</ele><time>2026-05-02T07:56:29.153Z</time></trkpt><trkpt lat="46.1262721" lon="13.5802909"><ele>412.75</ele><time>2026-05-02T07:56:30.167Z</time></trkpt><trkpt lat="46.1262351" lon="13.5804752"><ele>414.5</ele><time>2026-05-02T07:56:31.165Z</time></trkpt><trkpt lat="46.1262042" lon="13.5806651"><ele>416.25</ele><time>2026-05-02T07:56:32.181Z</time></trkpt><trkpt lat="46.1261761" lon="13.5808714"><ele>418.0</ele><time>2026-05-02T07:56:33.157Z</time></trkpt><trkpt lat="46.1261604" lon="13.5810948"><ele>420.0</ele><time>2026-05-02T07:56:34.16Z</time></trkpt><trkpt lat="46.1261475" lon="13.581323"><ele>422.0</ele><time>2026-05-02T07:56:35.156Z</time></trkpt><trkpt lat="46.1261349" lon="13.5815534"><ele>424.0</ele><time>2026-05-02T07:56:36.156Z</time></trkpt><trkpt lat="46.1261185" lon="13.5817839"><ele>424.0</ele><time>2026-05-02T07:56:37.163Z</time></trkpt><trkpt lat="46.1260972" lon="13.5820093"><ele>424.0</ele><time>2026-05-02T07:56:38.155Z</time></trkpt><trkpt lat="46.1260786" lon="13.5822311"><ele>424.0</ele><time>2026-05-02T07:56:39.172Z</time></trkpt><trkpt lat="46.1260541" lon="13.5824381"><ele>425.25</ele><time>2026-05-02T07:56:40.17Z</time></trkpt><trkpt lat="46.1260471" lon="13.5826412"><ele>426.5</ele><time>2026-05-02T07:56:41.156Z</time></trkpt><trkpt lat="46.1260651" lon="13.5828599"><ele>427.75</ele><time>2026-05-02T07:56:42.161Z</time></trkpt><trkpt lat="46.1260975" lon="13.5830789"><ele>429.0</ele><time>2026-05-02T07:56:43.159Z</time></trkpt><trkpt lat="46.1261439" lon="13.5833005"><ele>430.33333333333337</ele><time>2026-05-02T07:56:44.151Z</time></trkpt><trkpt lat="46.1262017" lon="13.583513"><ele>431.6666666666667</ele><time>2026-05-02T07:56:45.168Z</time></trkpt><trkpt lat="46.1262522" lon="13.5837266"><ele>433.0</ele><time>2026-05-02T07:56:46.154Z</time></trkpt><trkpt lat="46.1262855" lon="13.5839479"><ele>434.0</ele><time>2026-05-02T07:56:47.151Z</time></trkpt><trkpt lat="46.1262946" lon="13.5841784"><ele>435.0</ele><time>2026-05-02T07:56:48.161Z</time></trkpt><trkpt lat="46.126282" lon="13.5844222"><ele>436.0</ele><time>2026-05-02T07:56:49.147Z</time></trkpt><trkpt lat="46.1262602" lon="13.5846752"><ele>437.6666666666667</ele><time>2026-05-02T07:56:50.149Z</time></trkpt><trkpt lat="46.1262409" lon="13.5849399"><ele>439.33333333333337</ele><time>2026-05-02T07:56:51.157Z</time></trkpt><trkpt lat="46.1262201" lon="13.5852071"><ele>441.0</ele><time>2026-05-02T07:56:52.144Z</time></trkpt><trkpt lat="46.1262" lon="13.5854558"><ele>442.25</ele><time>2026-05-02T07:56:53.15Z</time></trkpt><trkpt lat="46.1261851" lon="13.5856815"><ele>443.5</ele><time>2026-05-02T07:56:54.173Z</time></trkpt><trkpt lat="46.1261664" lon="13.5858715"><ele>444.75</ele><time>2026-05-02T07:56:55.154Z</time></trkpt><trkpt lat="46.1261524" lon="13.586031"><ele>446.0</ele><time>2026-05-02T07:56:56.16Z</time></trkpt><trkpt lat="46.1261334" lon="13.5861982"><ele>446.75</ele><time>2026-05-02T07:56:57.159Z</time></trkpt><trkpt lat="46.1261142" lon="13.5863833"><ele>447.5</ele><time>2026-05-02T07:56:58.149Z</time></trkpt><trkpt lat="46.1261006" lon="13.5865615"><ele>448.25</ele><time>2026-05-02T07:56:59.159Z</time></trkpt><trkpt lat="46.1260745" lon="13.5867402"><ele>449.0</ele><time>2026-05-02T07:57:00.159Z</time></trkpt><trkpt lat="46.1260429" lon="13.5869307"><ele>450.0</ele><time>2026-05-02T07:57:01.177Z</time></trkpt><trkpt lat="46.1259958" lon="13.5871299"><ele>451.0</ele><time>2026-05-02T07:57:02.157Z</time></trkpt><trkpt lat="46.1259449" lon="13.5873279"><ele>452.0</ele><time>2026-05-02T07:57:03.151Z</time></trkpt><trkpt lat="46.1258966" lon="13.587515"><ele>453.0</ele><time>2026-05-02T07:57:04.155Z</time></trkpt><trkpt lat="46.1258445" lon="13.5876934"><ele>455.0</ele><time>2026-05-02T07:57:05.163Z</time></trkpt><trkpt lat="46.1257901" lon="13.587864"><ele>457.0</ele><time>2026-05-02T07:57:06.151Z</time></trkpt><trkpt lat="46.1257339" lon="13.5880314"><ele>459.0</ele><time>2026-05-02T07:57:07.16Z</time></trkpt><trkpt lat="46.1256861" lon="13.588194"><ele>461.0</ele><time>2026-05-02T07:57:08.161Z</time></trkpt><trkpt lat="46.1256521" lon="13.5883632"><ele>464.0</ele><time>2026-05-02T07:57:09.165Z</time></trkpt><trkpt lat="46.1256257" lon="13.5885425"><ele>467.0</ele><time>2026-05-02T07:57:10.153Z</time></trkpt><trkpt lat="46.1256017" lon="13.5887283"><ele>470.0</ele><time>2026-05-02T07:57:11.158Z</time></trkpt><trkpt lat="46.1255764" lon="13.5889041"><ele>473.0</ele><time>2026-05-02T07:57:12.156Z</time></trkpt><trkpt lat="46.1255466" lon="13.589062"><ele>473.79999999999995</ele><time>2026-05-02T07:57:13.172Z</time></trkpt><trkpt lat="46.1255062" lon="13.5891878"><ele>474.59999999999997</ele><time>2026-05-02T07:57:14.154Z</time></trkpt><trkpt lat="46.1254493" lon="13.5892712"><ele>475.40000000000003</ele><time>2026-05-02T07:57:15.155Z</time></trkpt><trkpt lat="46.1253593" lon="13.5892878"><ele>476.20000000000005</ele><time>2026-05-02T07:57:16.149Z</time></trkpt><trkpt lat="46.1252638" lon="13.5892225"><ele>477.0</ele><time>2026-05-02T07:57:17.152Z</time></trkpt><trkpt lat="46.125202" lon="13.5890839"><ele>477.0</ele><time>2026-05-02T07:57:18.142Z</time></trkpt><trkpt lat="46.1251723" lon="13.5889201"><ele>477.0</ele><time>2026-05-02T07:57:19.161Z</time></trkpt><trkpt lat="46.1251498" lon="13.5887465"><ele>477.0</ele><time>2026-05-02T07:57:20.157Z</time></trkpt><trkpt lat="46.1251082" lon="13.5885553"><ele>477.0</ele><time>2026-05-02T07:57:21.145Z</time></trkpt><trkpt lat="46.1250426" lon="13.5883553"><ele>476.20000000000005</ele><time>2026-05-02T07:57:22.172Z</time></trkpt><trkpt lat="46.1249945" lon="13.5881726"><ele>475.40000000000003</ele><time>2026-05-02T07:57:23.142Z</time></trkpt><trkpt lat="46.124952" lon="13.5880235"><ele>474.59999999999997</ele><time>2026-05-02T07:57:24.158Z</time></trkpt><trkpt lat="46.1248825" lon="13.587945"><ele>473.79999999999995</ele><time>2026-05-02T07:57:25.15Z</time></trkpt><trkpt lat="46.1247997" lon="13.5878792"><ele>473.0</ele><time>2026-05-02T07:57:26.146Z</time></trkpt><trkpt lat="46.1246811" lon="13.5878296"><ele>477.75</ele><time>2026-05-02T07:57:27.165Z</time></trkpt><trkpt lat="46.1245432" lon="13.5877969"><ele>482.5</ele><time>2026-05-02T07:57:28.143Z</time></trkpt><trkpt lat="46.1244101" lon="13.5877559"><ele>487.25</ele><time>2026-05-02T07:57:29.154Z</time></trkpt><trkpt lat="46.1242695" lon="13.5877166"><ele>492.0</ele><time>2026-05-02T07:57:30.152Z</time></trkpt><trkpt lat="46.1241326" lon="13.5877046"><ele>495.6</ele><time>2026-05-02T07:57:31.145Z</time></trkpt><trkpt lat="46.1240044" lon="13.5876907"><ele>499.20000000000005</ele><time>2026-05-02T07:57:32.146Z</time></trkpt><trkpt lat="46.1238958" lon="13.5876892"><ele>502.8</ele><time>2026-05-02T07:57:33.156Z</time></trkpt><trkpt lat="46.1238381" lon="13.5875716"><ele>506.4</ele><time>2026-05-02T07:57:35.152Z</time></trkpt><trkpt lat="46.1238567" lon="13.5874748"><ele>510.0</ele><time>2026-05-02T07:57:36.144Z</time></trkpt><trkpt lat="46.1239019" lon="13.5873929"><ele>510.0</ele><time>2026-05-02T07:57:37.141Z</time></trkpt><trkpt lat="46.123974" lon="13.5873064"><ele>510.0</ele><time>2026-05-02T07:57:38.158Z</time></trkpt><trkpt lat="46.1240625" lon="13.587204"><ele>510.0</ele><time>2026-05-02T07:57:39.168Z</time></trkpt><trkpt lat="46.1241883" lon="13.5870412"><ele>510.0</ele><time>2026-05-02T07:57:40.147Z</time></trkpt><trkpt lat="46.1243276" lon="13.5868744"><ele>507.5</ele><time>2026-05-02T07:57:41.162Z</time></trkpt><trkpt lat="46.1244496" lon="13.5867249"><ele>505.0</ele><time>2026-05-02T07:57:42.162Z</time></trkpt><trkpt lat="46.1245491" lon="13.5865716"><ele>502.5</ele><time>2026-05-02T07:57:43.139Z</time></trkpt><trkpt lat="46.1246123" lon="13.586463"><ele>500.0</ele><time>2026-05-02T07:57:44.156Z</time></trkpt><trkpt lat="46.1246411" lon="13.5863315"><ele>502.5</ele><time>2026-05-02T07:57:45.141Z</time></trkpt><trkpt lat="46.1246352" lon="13.5861664"><ele>505.0</ele><time>2026-05-02T07:57:46.144Z</time></trkpt><trkpt lat="46.1246052" lon="13.5859703"><ele>507.5</ele><time>2026-05-02T07:57:47.148Z</time></trkpt><trkpt lat="46.1245414" lon="13.585748"><ele>510.0</ele><time>2026-05-02T07:57:48.153Z</time></trkpt><trkpt lat="46.1244714" lon="13.585532"><ele>508.0</ele><time>2026-05-02T07:57:49.159Z</time></trkpt><trkpt lat="46.1243723" lon="13.5853361"><ele>506.0</ele><time>2026-05-02T07:57:50.152Z</time></trkpt><trkpt lat="46.1242774" lon="13.5851424"><ele>504.0</ele><time>2026-05-02T07:57:51.154Z</time></trkpt><trkpt lat="46.1242044" lon="13.5849623"><ele>504.0</ele><time>2026-05-02T07:57:52.174Z</time></trkpt><trkpt lat="46.124149" lon="13.584794"><ele>504.0</ele><time>2026-05-02T07:57:53.157Z</time></trkpt><trkpt lat="46.1241113" lon="13.5846439"><ele>504.0</ele><time>2026-05-02T07:57:54.146Z</time></trkpt><trkpt lat="46.1240675" lon="13.5845191"><ele>504.0</ele><time>2026-05-02T07:57:55.15Z</time></trkpt><trkpt lat="46.1239897" lon="13.584429"><ele>504.0</ele><time>2026-05-02T07:57:56.167Z</time></trkpt><trkpt lat="46.1238857" lon="13.5843682"><ele>507.2</ele><time>2026-05-02T07:57:57.158Z</time></trkpt><trkpt lat="46.1237794" lon="13.5843105"><ele>510.4</ele><time>2026-05-02T07:57:58.153Z</time></trkpt><trkpt lat="46.1236935" lon="13.5842076"><ele>513.6</ele><time>2026-05-02T07:57:59.146Z</time></trkpt><trkpt lat="46.1236304" lon="13.5840753"><ele>516.8</ele><time>2026-05-02T07:58:00.158Z</time></trkpt><trkpt lat="46.1235828" lon="13.5839515"><ele>520.0</ele><time>2026-05-02T07:58:01.149Z</time></trkpt><trkpt lat="46.1235348" lon="13.5838616"><ele>520.0</ele><time>2026-05-02T07:58:02.159Z</time></trkpt><trkpt lat="46.1234525" lon="13.5839077"><ele>520.0</ele><time>2026-05-02T07:58:04.161Z</time></trkpt><trkpt lat="46.1234455" lon="13.5840535"><ele>520.0</ele><time>2026-05-02T07:58:05.154Z</time></trkpt><trkpt lat="46.1234941" lon="13.5842023"><ele>520.0</ele><time>2026-05-02T07:58:06.15Z</time></trkpt><trkpt lat="46.1235734" lon="13.5843133"><ele>520.0</ele><time>2026-05-02T07:58:07.152Z</time></trkpt><trkpt lat="46.1236538" lon="13.5844514"><ele>522.75</ele><time>2026-05-02T07:58:08.155Z</time></trkpt><trkpt lat="46.1237412" lon="13.5846054"><ele>525.5</ele><time>2026-05-02T07:58:09.168Z</time></trkpt><trkpt lat="46.1238188" lon="13.5847878"><ele>528.25</ele><time>2026-05-02T07:58:10.153Z</time></trkpt><trkpt lat="46.1238776" lon="13.5849873"><ele>531.0</ele><time>2026-05-02T07:58:11.172Z</time></trkpt><trkpt lat="46.1239091" lon="13.5851963"><ele>531.25</ele><time>2026-05-02T07:58:12.154Z</time></trkpt><trkpt lat="46.1239212" lon="13.5853995"><ele>531.5</ele><time>2026-05-02T07:58:13.152Z</time></trkpt><trkpt lat="46.1239316" lon="13.5855747"><ele>531.75</ele><time>2026-05-02T07:58:14.152Z</time></trkpt><trkpt lat="46.1239359" lon="13.5856891"><ele>532.0</ele><time>2026-05-02T07:58:15.158Z</time></trkpt><trkpt lat="46.1239274" lon="13.5858598"><ele>532.0</ele><time>2026-05-02T07:58:17.161Z</time></trkpt><trkpt lat="46.1238468" lon="13.5858972"><ele>532.0</ele><time>2026-05-02T07:58:18.146Z</time></trkpt><trkpt lat="46.1237698" lon="13.5858456"><ele>532.0</ele><time>2026-05-02T07:58:19.167Z</time></trkpt><trkpt lat="46.1237252" lon="13.5857115"><ele>532.0</ele><time>2026-05-02T07:58:20.151Z</time></trkpt><trkpt lat="46.1236824" lon="13.5855528"><ele>532.0</ele><time>2026-05-02T07:58:21.143Z</time></trkpt><trkpt lat="46.1236076" lon="13.5853813"><ele>531.6666666666667</ele><time>2026-05-02T07:58:22.15Z</time></trkpt><trkpt lat="46.1235089" lon="13.5852184"><ele>531.3333333333334</ele><time>2026-05-02T07:58:23.164Z</time></trkpt><trkpt lat="46.1233978" lon="13.5850692"><ele>531.0</ele><time>2026-05-02T07:58:24.153Z</time></trkpt><trkpt lat="46.1232687" lon="13.5849333"><ele>536.0</ele><time>2026-05-02T07:58:25.151Z</time></trkpt><trkpt lat="46.1231164" lon="13.5848142"><ele>541.0</ele><time>2026-05-02T07:58:26.17Z</time></trkpt><trkpt lat="46.122955" lon="13.5847023"><ele>546.0</ele><time>2026-05-02T07:58:27.153Z</time></trkpt><trkpt lat="46.1227949" lon="13.5845765"><ele>544.5</ele><time>2026-05-02T07:58:28.162Z</time></trkpt><trkpt lat="46.1226504" lon="13.5844761"><ele>543.0</ele><time>2026-05-02T07:58:29.151Z</time></trkpt><trkpt lat="46.1225273" lon="13.5844032"><ele>541.5</ele><time>2026-05-02T07:58:30.171Z</time></trkpt><trkpt lat="46.1224032" lon="13.5843415"><ele>540.0</ele><time>2026-05-02T07:58:31.153Z</time></trkpt><trkpt lat="46.1222666" lon="13.5843218"><ele>544.25</ele><time>2026-05-02T07:58:32.143Z</time></trkpt><trkpt lat="46.1221311" lon="13.584313"><ele>548.5</ele><time>2026-05-02T07:58:33.166Z</time></trkpt><trkpt lat="46.1220087" lon="13.5842859"><ele>552.75</ele><time>2026-05-02T07:58:34.167Z</time></trkpt><trkpt lat="46.1219018" lon="13.5842394"><ele>557.0</ele><time>2026-05-02T07:58:35.167Z</time></trkpt><trkpt lat="46.1218133" lon="13.5841476"><ele>557.0</ele><time>2026-05-02T07:58:36.168Z</time></trkpt><trkpt lat="46.1217414" lon="13.5839873"><ele>557.0</ele><time>2026-05-02T07:58:37.156Z</time></trkpt><trkpt lat="46.1216808" lon="13.5837722"><ele>557.0</ele><time>2026-05-02T07:58:38.157Z</time></trkpt><trkpt lat="46.12162" lon="13.5835345"><ele>565.0</ele><time>2026-05-02T07:58:39.167Z</time></trkpt><trkpt lat="46.1215579" lon="13.5833046"><ele>573.0</ele><time>2026-05-02T07:58:40.155Z</time></trkpt><trkpt lat="46.1215" lon="13.5830823"><ele>581.0</ele><time>2026-05-02T07:58:41.161Z</time></trkpt><trkpt lat="46.1214529" lon="13.5828629"><ele>579.0</ele><time>2026-05-02T07:58:42.159Z</time></trkpt><trkpt lat="46.121418" lon="13.5826354"><ele>577.0</ele><time>2026-05-02T07:58:43.162Z</time></trkpt><trkpt lat="46.1213717" lon="13.5824273"><ele>575.0</ele><time>2026-05-02T07:58:44.163Z</time></trkpt><trkpt lat="46.1213214" lon="13.5822543"><ele>573.0</ele><time>2026-05-02T07:58:45.156Z</time></trkpt><trkpt lat="46.121276" lon="13.5821197"><ele>573.0</ele><time>2026-05-02T07:58:46.16Z</time></trkpt><trkpt lat="46.1212281" lon="13.5820279"><ele>573.0</ele><time>2026-05-02T07:58:47.162Z</time></trkpt><trkpt lat="46.1211781" lon="13.5819717"><ele>573.0</ele><time>2026-05-02T07:58:48.162Z</time></trkpt><trkpt lat="46.1211145" lon="13.5819725"><ele>573.0</ele><time>2026-05-02T07:58:49.179Z</time></trkpt><trkpt lat="46.121058" lon="13.5820292"><ele>573.0</ele><time>2026-05-02T07:58:50.15Z</time></trkpt><trkpt lat="46.12102" lon="13.5821271"><ele>573.0</ele><time>2026-05-02T07:58:51.149Z</time></trkpt><trkpt lat="46.1209806" lon="13.5822369"><ele>573.0</ele><time>2026-05-02T07:58:52.143Z</time></trkpt><trkpt lat="46.1209461" lon="13.5823504"><ele>573.0</ele><time>2026-05-02T07:58:53.163Z</time></trkpt><trkpt lat="46.1209242" lon="13.582482"><ele>573.0</ele><time>2026-05-02T07:58:54.164Z</time></trkpt><trkpt lat="46.1209174" lon="13.5826279"><ele>573.0</ele><time>2026-05-02T07:58:55.146Z</time></trkpt><trkpt lat="46.1209148" lon="13.5827939"><ele>573.0</ele><time>2026-05-02T07:58:56.153Z</time></trkpt><trkpt lat="46.1209054" lon="13.5829684"><ele>573.0</ele><time>2026-05-02T07:58:57.193Z</time></trkpt><trkpt lat="46.1208953" lon="13.5831213"><ele>574.3333333333334</ele><time>2026-05-02T07:58:58.159Z</time></trkpt><trkpt lat="46.1208862" lon="13.5832534"><ele>575.6666666666666</ele><time>2026-05-02T07:58:59.158Z</time></trkpt><trkpt lat="46.1208754" lon="13.5833631"><ele>577.0</ele><time>2026-05-02T07:59:00.183Z</time></trkpt><trkpt lat="46.1208637" lon="13.5834653"><ele>578.3333333333333</ele><time>2026-05-02T07:59:01.165Z</time></trkpt><trkpt lat="46.1208459" lon="13.5835732"><ele>579.6666666666666</ele><time>2026-05-02T07:59:02.171Z</time></trkpt><trkpt lat="46.1208213" lon="13.5836791"><ele>581.0</ele><time>2026-05-02T07:59:03.162Z</time></trkpt><trkpt lat="46.1207816" lon="13.5837707"><ele>583.6</ele><time>2026-05-02T07:59:04.16Z</time></trkpt><trkpt lat="46.1207145" lon="13.5838375"><ele>586.2</ele><time>2026-05-02T07:59:05.145Z</time></trkpt><trkpt lat="46.1206232" lon="13.5838682"><ele>588.8</ele><time>2026-05-02T07:59:06.16Z</time></trkpt><trkpt lat="46.1205248" lon="13.5838826"><ele>591.4</ele><time>2026-05-02T07:59:07.151Z</time></trkpt><trkpt lat="46.1204263" lon="13.5839099"><ele>594.0</ele><time>2026-05-02T07:59:08.155Z</time></trkpt><trkpt lat="46.1203337" lon="13.5839463"><ele>594.0</ele><time>2026-05-02T07:59:09.159Z</time></trkpt><trkpt lat="46.1202539" lon="13.5839803"><ele>594.0</ele><time>2026-05-02T07:59:10.157Z</time></trkpt><trkpt lat="46.1201888" lon="13.5840327"><ele>594.0</ele><time>2026-05-02T07:59:11.164Z</time></trkpt><trkpt lat="46.1201761" lon="13.5841291"><ele>594.0</ele><time>2026-05-02T07:59:12.161Z</time></trkpt><trkpt lat="46.1201891" lon="13.5842408"><ele>594.0</ele><time>2026-05-02T07:59:13.161Z</time></trkpt><trkpt lat="46.1202048" lon="13.584344"><ele>594.0</ele><time>2026-05-02T07:59:14.16Z</time></trkpt><trkpt lat="46.1202122" lon="13.5844439"><ele>594.0</ele><time>2026-05-02T07:59:15.167Z</time></trkpt><trkpt lat="46.1202019" lon="13.5845355"><ele>595.0</ele><time>2026-05-02T07:59:16.169Z</time></trkpt><trkpt lat="46.1201803" lon="13.5846309"><ele>596.0</ele><time>2026-05-02T07:59:17.146Z</time></trkpt><trkpt lat="46.1201571" lon="13.5847409"><ele>597.0</ele><time>2026-05-02T07:59:18.155Z</time></trkpt><trkpt lat="46.1201231" lon="13.5848467"><ele>598.0</ele><time>2026-05-02T07:59:19.157Z</time></trkpt><trkpt lat="46.1200881" lon="13.5849256"><ele>599.0</ele><time>2026-05-02T07:59:20.166Z</time></trkpt><trkpt lat="46.1199832" lon="13.5849702"><ele>600.0</ele><time>2026-05-02T07:59:22.162Z</time></trkpt><trkpt lat="46.119933" lon="13.5849067"><ele>600.0</ele><time>2026-05-02T07:59:24.173Z</time></trkpt><trkpt lat="46.1199076" lon="13.5847997"><ele>600.0</ele><time>2026-05-02T07:59:26.165Z</time></trkpt><trkpt lat="46.1198449" lon="13.584661"><ele>600.0</ele><time>2026-05-02T07:59:28.178Z</time></trkpt><trkpt lat="46.1197443" lon="13.5845704"><ele>600.0</ele><time>2026-05-02T07:59:30.147Z</time></trkpt><trkpt lat="46.1196586" lon="13.5845826"><ele>600.0</ele><time>2026-05-02T07:59:32.158Z</time></trkpt><trkpt lat="46.1195864" lon="13.5846129"><ele>603.0</ele><time>2026-05-02T07:59:34.163Z</time></trkpt><trkpt lat="46.1195041" lon="13.5846408"><ele>606.0</ele><time>2026-05-02T07:59:36.179Z</time></trkpt><trkpt lat="46.1194271" lon="13.5846642"><ele>609.0</ele><time>2026-05-02T07:59:38.165Z</time></trkpt><trkpt lat="46.1193476" lon="13.5846883"><ele>612.0</ele><time>2026-05-02T07:59:40.166Z</time></trkpt><trkpt lat="46.1192615" lon="13.5847147"><ele>615.0</ele><time>2026-05-02T07:59:42.173Z</time></trkpt><trkpt lat="46.1191655" lon="13.5847495"><ele>618.0</ele><time>2026-05-02T07:59:44.163Z</time></trkpt><trkpt lat="46.119072" lon="13.5847699"><ele>618.0</ele><time>2026-05-02T07:59:46.178Z</time></trkpt><trkpt lat="46.118977" lon="13.5847586"><ele>618.0</ele><time>2026-05-02T07:59:48.155Z</time></trkpt><trkpt lat="46.1188794" lon="13.5847119"><ele>618.0</ele><time>2026-05-02T07:59:50.15Z</time></trkpt><trkpt lat="46.1187976" lon="13.5846303"><ele>618.0</ele><time>2026-05-02T07:59:52.151Z</time></trkpt><trkpt lat="46.1187265" lon="13.5845589"><ele>618.0</ele><time>2026-05-02T07:59:54.159Z</time></trkpt><trkpt lat="46.1186573" lon="13.5845248"><ele>618.0</ele><time>2026-05-02T07:59:56.162Z</time></trkpt><trkpt lat="46.1187667" lon="13.5845543"><ele>618.0</ele><time>2026-05-02T08:01:09.178Z</time></trkpt><trkpt lat="46.1188392" lon="13.5845914"><ele>618.0</ele><time>2026-05-02T08:01:10.165Z</time></trkpt><trkpt lat="46.118915" lon="13.5846656"><ele>618.0</ele><time>2026-05-02T08:01:11.148Z</time></trkpt><trkpt lat="46.1190018" lon="13.5847328"><ele>618.0</ele><time>2026-05-02T08:01:12.179Z</time></trkpt><trkpt lat="46.1190946" lon="13.5847847"><ele>618.0</ele><time>2026-05-02T08:01:13.173Z</time></trkpt><trkpt lat="46.1191907" lon="13.5848026"><ele>618.0</ele><time>2026-05-02T08:01:14.171Z</time></trkpt><trkpt lat="46.1192858" lon="13.5847803"><ele>618.0</ele><time>2026-05-02T08:01:15.161Z</time></trkpt><trkpt lat="46.1193781" lon="13.5847381"><ele>618.0</ele><time>2026-05-02T08:01:16.161Z</time></trkpt><trkpt lat="46.1194667" lon="13.5847029"><ele>618.0</ele><time>2026-05-02T08:01:17.181Z</time></trkpt><trkpt lat="46.1195527" lon="13.5846715"><ele>618.0</ele><time>2026-05-02T08:01:18.169Z</time></trkpt><trkpt lat="46.1196359" lon="13.5846413"><ele>618.0</ele><time>2026-05-02T08:01:19.163Z</time></trkpt><trkpt lat="46.1197121" lon="13.5846205"><ele>618.0</ele><time>2026-05-02T08:01:20.161Z</time></trkpt><trkpt lat="46.1197748" lon="13.5846065"><ele>618.0</ele><time>2026-05-02T08:01:21.159Z</time></trkpt><trkpt lat="46.1198383" lon="13.5846188"><ele>618.0</ele><time>2026-05-02T08:01:23.151Z</time></trkpt><trkpt lat="46.1197768" lon="13.5845642"><ele>618.0</ele><time>2026-05-02T08:01:32.164Z</time></trkpt><trkpt lat="46.1196531" lon="13.5845939"><ele>618.0</ele><time>2026-05-02T08:01:34.173Z</time></trkpt><trkpt lat="46.1195713" lon="13.5846214"><ele>618.0</ele><time>2026-05-02T08:01:35.177Z</time></trkpt><trkpt lat="46.1194757" lon="13.5846595"><ele>618.0</ele><time>2026-05-02T08:01:36.17Z</time></trkpt><trkpt lat="46.1193649" lon="13.5847029"><ele>618.0</ele><time>2026-05-02T08:01:37.159Z</time></trkpt><trkpt lat="46.11924" lon="13.5847497"><ele>618.0</ele><time>2026-05-02T08:01:38.17Z</time></trkpt><trkpt lat="46.1191136" lon="13.5847723"><ele>618.0</ele><time>2026-05-02T08:01:39.167Z</time></trkpt><trkpt lat="46.1189876" lon="13.5847532"><ele>618.0</ele><time>2026-05-02T08:01:40.168Z</time></trkpt><trkpt lat="46.118866" lon="13.5846823"><ele>618.0</ele><time>2026-05-02T08:01:41.165Z</time></trkpt><trkpt lat="46.1187642" lon="13.5845931"><ele>618.0</ele><time>2026-05-02T08:01:42.158Z</time></trkpt><trkpt lat="46.1186755" lon="13.5845492"><ele>618.0</ele><time>2026-05-02T08:01:43.16Z</time></trkpt><trkpt lat="46.1185915" lon="13.5845858"><ele>618.0</ele><time>2026-05-02T08:01:44.166Z</time></trkpt><trkpt lat="46.1185261" lon="13.5846885"><ele>618.0</ele><time>2026-05-02T08:01:45.178Z</time></trkpt><trkpt lat="46.1184755" lon="13.5848324"><ele>618.0</ele><time>2026-05-02T08:01:46.149Z</time></trkpt><trkpt lat="46.1184312" lon="13.5850069"><ele>618.0</ele><time>2026-05-02T08:01:47.153Z</time></trkpt><trkpt lat="46.1183828" lon="13.5851777"><ele>618.0</ele><time>2026-05-02T08:01:48.157Z</time></trkpt><trkpt lat="46.118317" lon="13.5853287"><ele>618.0</ele><time>2026-05-02T08:01:49.153Z</time></trkpt><trkpt lat="46.1182108" lon="13.5854471"><ele>618.0</ele><time>2026-05-02T08:01:50.163Z</time></trkpt><trkpt lat="46.1180871" lon="13.5855435"><ele>618.0</ele><time>2026-05-02T08:01:51.164Z</time></trkpt><trkpt lat="46.117944" lon="13.5856265"><ele>618.25</ele><time>2026-05-02T08:01:52.165Z</time></trkpt><trkpt lat="46.1178102" lon="13.5857059"><ele>618.5</ele><time>2026-05-02T08:01:53.176Z</time></trkpt><trkpt lat="46.1176872" lon="13.5858187"><ele>618.75</ele><time>2026-05-02T08:01:54.161Z</time></trkpt><trkpt lat="46.1175821" lon="13.5859814"><ele>619.0</ele><time>2026-05-02T08:01:55.169Z</time></trkpt><trkpt lat="46.1174926" lon="13.5861683"><ele>621.3333333333334</ele><time>2026-05-02T08:01:56.174Z</time></trkpt><trkpt lat="46.1173942" lon="13.5863409"><ele>623.6666666666666</ele><time>2026-05-02T08:01:57.156Z</time></trkpt><trkpt lat="46.1172867" lon="13.5865153"><ele>626.0</ele><time>2026-05-02T08:01:58.167Z</time></trkpt><trkpt lat="46.1171718" lon="13.5866668"><ele>626.0</ele><time>2026-05-02T08:01:59.185Z</time></trkpt><trkpt lat="46.1170396" lon="13.5867897"><ele>626.0</ele><time>2026-05-02T08:02:00.153Z</time></trkpt><trkpt lat="46.1169147" lon="13.5868982"><ele>626.0</ele><time>2026-05-02T08:02:01.172Z</time></trkpt><trkpt lat="46.1167975" lon="13.5869927"><ele>626.0</ele><time>2026-05-02T08:02:02.17Z</time></trkpt><trkpt lat="46.1166833" lon="13.5870688"><ele>627.25</ele><time>2026-05-02T08:02:03.161Z</time></trkpt><trkpt lat="46.116554" lon="13.5871128"><ele>628.5</ele><time>2026-05-02T08:02:04.159Z</time></trkpt><trkpt lat="46.1164114" lon="13.5871"><ele>629.75</ele><time>2026-05-02T08:02:05.161Z</time></trkpt><trkpt lat="46.1162763" lon="13.5870365"><ele>631.0</ele><time>2026-05-02T08:02:06.161Z</time></trkpt><trkpt lat="46.1161382" lon="13.5869595"><ele>631.0</ele><time>2026-05-02T08:02:07.15Z</time></trkpt><trkpt lat="46.1159725" lon="13.5868897"><ele>631.0</ele><time>2026-05-02T08:02:08.159Z</time></trkpt><trkpt lat="46.1157932" lon="13.5868456"><ele>631.0</ele><time>2026-05-02T08:02:09.161Z</time></trkpt><trkpt lat="46.1156036" lon="13.5868193"><ele>634.6666666666667</ele><time>2026-05-02T08:02:10.17Z</time></trkpt><trkpt lat="46.1154198" lon="13.5868046"><ele>638.3333333333334</ele><time>2026-05-02T08:02:11.163Z</time></trkpt><trkpt lat="46.1152522" lon="13.5867551"><ele>642.0</ele><time>2026-05-02T08:02:12.154Z</time></trkpt><trkpt lat="46.1151086" lon="13.5867019"><ele>642.0</ele><time>2026-05-02T08:02:13.165Z</time></trkpt><trkpt lat="46.1149867" lon="13.5866857"><ele>642.0</ele><time>2026-05-02T08:02:14.151Z</time></trkpt><trkpt lat="46.1148676" lon="13.5867226"><ele>642.0</ele><time>2026-05-02T08:02:15.153Z</time></trkpt><trkpt lat="46.1147613" lon="13.5867954"><ele>642.0</ele><time>2026-05-02T08:02:16.156Z</time></trkpt><trkpt lat="46.1146634" lon="13.5868519"><ele>643.6</ele><time>2026-05-02T08:02:17.149Z</time></trkpt><trkpt lat="46.1145772" lon="13.586834"><ele>645.2</ele><time>2026-05-02T08:02:18.152Z</time></trkpt><trkpt lat="46.1145217" lon="13.5867553"><ele>646.8</ele><time>2026-05-02T08:02:19.137Z</time></trkpt><trkpt lat="46.1145067" lon="13.5866475"><ele>648.4</ele><time>2026-05-02T08:02:20.156Z</time></trkpt><trkpt lat="46.1145171" lon="13.5864995"><ele>650.0</ele><time>2026-05-02T08:02:21.142Z</time></trkpt><trkpt lat="46.1145361" lon="13.5863351"><ele>646.25</ele><time>2026-05-02T08:02:22.151Z</time></trkpt><trkpt lat="46.1145498" lon="13.5861596"><ele>642.5</ele><time>2026-05-02T08:02:23.141Z</time></trkpt><trkpt lat="46.1145091" lon="13.5860126"><ele>638.75</ele><time>2026-05-02T08:02:24.156Z</time></trkpt><trkpt lat="46.1143842" lon="13.585937"><ele>635.0</ele><time>2026-05-02T08:02:25.153Z</time></trkpt><trkpt lat="46.1142523" lon="13.5859031"><ele>635.0</ele><time>2026-05-02T08:02:26.161Z</time></trkpt><trkpt lat="46.1141209" lon="13.5859124"><ele>635.0</ele><time>2026-05-02T08:02:27.156Z</time></trkpt><trkpt lat="46.113979" lon="13.5859309"><ele>635.0</ele><time>2026-05-02T08:02:28.155Z</time></trkpt><trkpt lat="46.1138227" lon="13.5859405"><ele>635.0</ele><time>2026-05-02T08:02:29.164Z</time></trkpt><trkpt lat="46.1136738" lon="13.5859437"><ele>636.6666666666666</ele><time>2026-05-02T08:02:30.157Z</time></trkpt><trkpt lat="46.1135303" lon="13.5859585"><ele>638.3333333333334</ele><time>2026-05-02T08:02:31.178Z</time></trkpt><trkpt lat="46.1133933" lon="13.5860247"><ele>640.0</ele><time>2026-05-02T08:02:32.166Z</time></trkpt><trkpt lat="46.1132506" lon="13.5861384"><ele>643.5</ele><time>2026-05-02T08:02:33.161Z</time></trkpt><trkpt lat="46.1131111" lon="13.5862444"><ele>647.0</ele><time>2026-05-02T08:02:34.163Z</time></trkpt><trkpt lat="46.1129843" lon="13.5863423"><ele>650.5</ele><time>2026-05-02T08:02:35.163Z</time></trkpt><trkpt lat="46.1128804" lon="13.5864467"><ele>654.0</ele><time>2026-05-02T08:02:36.169Z</time></trkpt><trkpt lat="46.1127802" lon="13.5865338"><ele>654.0</ele><time>2026-05-02T08:02:37.159Z</time></trkpt><trkpt lat="46.1126491" lon="13.5865745"><ele>654.0</ele><time>2026-05-02T08:02:38.158Z</time></trkpt><trkpt lat="46.1124736" lon="13.5865703"><ele>654.0</ele><time>2026-05-02T08:02:39.165Z</time></trkpt><trkpt lat="46.1122964" lon="13.5865584"><ele>656.3333333333334</ele><time>2026-05-02T08:02:40.16Z</time></trkpt><trkpt lat="46.1121294" lon="13.5865308"><ele>658.6666666666667</ele><time>2026-05-02T08:02:41.152Z</time></trkpt><trkpt lat="46.1119773" lon="13.586482"><ele>661.0</ele><time>2026-05-02T08:02:42.159Z</time></trkpt><trkpt lat="46.1118398" lon="13.5864"><ele>661.0</ele><time>2026-05-02T08:02:43.162Z</time></trkpt><trkpt lat="46.1117167" lon="13.5862769"><ele>661.0</ele><time>2026-05-02T08:02:44.159Z</time></trkpt><trkpt lat="46.1115932" lon="13.5861367"><ele>661.0</ele><time>2026-05-02T08:02:45.148Z</time></trkpt><trkpt lat="46.1114684" lon="13.5859964"><ele>659.3333333333334</ele><time>2026-05-02T08:02:46.15Z</time></trkpt><trkpt lat="46.111341" lon="13.5858679"><ele>657.6666666666666</ele><time>2026-05-02T08:02:47.157Z</time></trkpt><trkpt lat="46.1112194" lon="13.5857353"><ele>656.0</ele><time>2026-05-02T08:02:48.162Z</time></trkpt><trkpt lat="46.1111014" lon="13.5856109"><ele>656.0</ele><time>2026-05-02T08:02:49.167Z</time></trkpt><trkpt lat="46.1110002" lon="13.5854538"><ele>656.0</ele><time>2026-05-02T08:02:50.161Z</time></trkpt><trkpt lat="46.1109135" lon="13.5852638"><ele>656.0</ele><time>2026-05-02T08:02:51.153Z</time></trkpt><trkpt lat="46.1108289" lon="13.5850479"><ele>654.6666666666666</ele><time>2026-05-02T08:02:52.179Z</time></trkpt><trkpt lat="46.1107546" lon="13.5848165"><ele>653.3333333333334</ele><time>2026-05-02T08:02:53.155Z</time></trkpt><trkpt lat="46.1107053" lon="13.5845923"><ele>652.0</ele><time>2026-05-02T08:02:54.149Z</time></trkpt><trkpt lat="46.1107046" lon="13.5843744"><ele>653.0</ele><time>2026-05-02T08:02:55.159Z</time></trkpt><trkpt lat="46.1107376" lon="13.58416"><ele>654.0</ele><time>2026-05-02T08:02:56.156Z</time></trkpt><trkpt lat="46.1107981" lon="13.5839623"><ele>655.0</ele><time>2026-05-02T08:02:57.148Z</time></trkpt><trkpt lat="46.1108659" lon="13.5837734"><ele>656.0</ele><time>2026-05-02T08:02:58.161Z</time></trkpt><trkpt lat="46.1109249" lon="13.5835985"><ele>657.0</ele><time>2026-05-02T08:02:59.169Z</time></trkpt><trkpt lat="46.1109622" lon="13.5834265"><ele>658.0</ele><time>2026-05-02T08:03:00.164Z</time></trkpt><trkpt lat="46.1109597" lon="13.583262"><ele>659.0</ele><time>2026-05-02T08:03:01.19Z</time></trkpt><trkpt lat="46.1109378" lon="13.5831155"><ele>659.0</ele><time>2026-05-02T08:03:02.17Z</time></trkpt><trkpt lat="46.1108613" lon="13.5830068"><ele>659.0</ele><time>2026-05-02T08:03:03.165Z</time></trkpt><trkpt lat="46.1107353" lon="13.5829584"><ele>659.0</ele><time>2026-05-02T08:03:04.17Z</time></trkpt><trkpt lat="46.1106049" lon="13.5829468"><ele>659.0</ele><time>2026-05-02T08:03:05.147Z</time></trkpt><trkpt lat="46.1104773" lon="13.5829284"><ele>656.4000000000001</ele><time>2026-05-02T08:03:06.161Z</time></trkpt><trkpt lat="46.1103644" lon="13.5828928"><ele>653.8</ele><time>2026-05-02T08:03:07.151Z</time></trkpt><trkpt lat="46.1102578" lon="13.5828288"><ele>651.2</ele><time>2026-05-02T08:03:08.156Z</time></trkpt><trkpt lat="46.1101648" lon="13.5827568"><ele>648.5999999999999</ele><time>2026-05-02T08:03:09.156Z</time></trkpt><trkpt lat="46.1100871" lon="13.5826888"><ele>646.0</ele><time>2026-05-02T08:03:10.163Z</time></trkpt><trkpt lat="46.1100325" lon="13.5826365"><ele>646.0</ele><time>2026-05-02T08:03:11.165Z</time></trkpt><trkpt lat="46.1099546" lon="13.5826208"><ele>646.0</ele><time>2026-05-02T08:03:13.169Z</time></trkpt><trkpt lat="46.1098893" lon="13.5826989"><ele>646.0</ele><time>2026-05-02T08:03:16.156Z</time></trkpt><trkpt lat="46.1098876" lon="13.5828274"><ele>646.0</ele><time>2026-05-02T08:03:18.174Z</time></trkpt><trkpt lat="46.109906" lon="13.5829246"><ele>646.0</ele><time>2026-05-02T08:03:19.153Z</time></trkpt><trkpt lat="46.1099301" lon="13.5830273"><ele>646.0</ele><time>2026-05-02T08:03:20.169Z</time></trkpt><trkpt lat="46.1099562" lon="13.5831686"><ele>645.5</ele><time>2026-05-02T08:03:21.151Z</time></trkpt><trkpt lat="46.1099777" lon="13.5833326"><ele>645.0</ele><time>2026-05-02T08:03:22.158Z</time></trkpt><trkpt lat="46.1100026" lon="13.5835071"><ele>644.5</ele><time>2026-05-02T08:03:23.157Z</time></trkpt><trkpt lat="46.1100229" lon="13.5836708"><ele>644.0</ele><time>2026-05-02T08:03:24.163Z</time></trkpt><trkpt lat="46.1100512" lon="13.5838197"><ele>642.6</ele><time>2026-05-02T08:03:25.156Z</time></trkpt><trkpt lat="46.1100852" lon="13.5839707"><ele>641.2</ele><time>2026-05-02T08:03:26.163Z</time></trkpt><trkpt lat="46.1101199" lon="13.5841218"><ele>639.8000000000001</ele><time>2026-05-02T08:03:27.153Z</time></trkpt><trkpt lat="46.1101498" lon="13.5842688"><ele>638.4000000000001</ele><time>2026-05-02T08:03:28.161Z</time></trkpt><trkpt lat="46.1101644" lon="13.5844099"><ele>637.0</ele><time>2026-05-02T08:03:29.148Z</time></trkpt><trkpt lat="46.1101574" lon="13.5845765"><ele>635.25</ele><time>2026-05-02T08:03:30.154Z</time></trkpt><trkpt lat="46.1101433" lon="13.5847339"><ele>633.5</ele><time>2026-05-02T08:03:31.168Z</time></trkpt><trkpt lat="46.1101241" lon="13.5848997"><ele>631.75</ele><time>2026-05-02T08:03:32.154Z</time></trkpt><trkpt lat="46.110108" lon="13.5850715"><ele>630.0</ele><time>2026-05-02T08:03:33.158Z</time></trkpt><trkpt lat="46.1100903" lon="13.5852473"><ele>629.6</ele><time>2026-05-02T08:03:34.158Z</time></trkpt><trkpt lat="46.1100637" lon="13.5854155"><ele>629.2</ele><time>2026-05-02T08:03:35.159Z</time></trkpt><trkpt lat="46.1100348" lon="13.585559"><ele>628.8</ele><time>2026-05-02T08:03:36.154Z</time></trkpt><trkpt lat="46.1100022" lon="13.585699"><ele>628.4</ele><time>2026-05-02T08:03:37.152Z</time></trkpt><trkpt lat="46.1099563" lon="13.5858313"><ele>628.0</ele><time>2026-05-02T08:03:38.168Z</time></trkpt><trkpt lat="46.1099009" lon="13.5859672"><ele>620.4</ele><time>2026-05-02T08:03:39.15Z</time></trkpt><trkpt lat="46.1098525" lon="13.5861045"><ele>612.8</ele><time>2026-05-02T08:03:40.166Z</time></trkpt><trkpt lat="46.1098064" lon="13.5862497"><ele>605.2</ele><time>2026-05-02T08:03:41.158Z</time></trkpt><trkpt lat="46.1097641" lon="13.586406"><ele>597.6</ele><time>2026-05-02T08:03:42.164Z</time></trkpt><trkpt lat="46.1097364" lon="13.5865637"><ele>590.0</ele><time>2026-05-02T08:03:43.167Z</time></trkpt><trkpt lat="46.1097187" lon="13.5867296"><ele>590.0</ele><time>2026-05-02T08:03:44.161Z</time></trkpt><trkpt lat="46.1096913" lon="13.586901"><ele>590.0</ele><time>2026-05-02T08:03:45.155Z</time></trkpt><trkpt lat="46.109661" lon="13.5870527"><ele>590.0</ele><time>2026-05-02T08:03:46.157Z</time></trkpt><trkpt lat="46.1096334" lon="13.5871948"><ele>590.0</ele><time>2026-05-02T08:03:47.149Z</time></trkpt><trkpt lat="46.1096041" lon="13.5873335"><ele>590.0</ele><time>2026-05-02T08:03:48.145Z</time></trkpt><trkpt lat="46.1095771" lon="13.5874733"><ele>590.8</ele><time>2026-05-02T08:03:49.155Z</time></trkpt><trkpt lat="46.1095619" lon="13.5876198"><ele>591.6</ele><time>2026-05-02T08:03:50.157Z</time></trkpt><trkpt lat="46.1095611" lon="13.5877674"><ele>592.4</ele><time>2026-05-02T08:03:51.145Z</time></trkpt><trkpt lat="46.1095714" lon="13.587905"><ele>593.2</ele><time>2026-05-02T08:03:52.156Z</time></trkpt><trkpt lat="46.1095875" lon="13.5880196"><ele>594.0</ele><time>2026-05-02T08:03:53.154Z</time></trkpt><trkpt lat="46.1096458" lon="13.5881513"><ele>594.0</ele><time>2026-05-02T08:03:55.152Z</time></trkpt><trkpt lat="46.1096964" lon="13.5882303"><ele>594.0</ele><time>2026-05-02T08:03:57.146Z</time></trkpt><trkpt lat="46.1096256" lon="13.5882639"><ele>594.0</ele><time>2026-05-02T08:03:59.147Z</time></trkpt><trkpt lat="46.1095595" lon="13.5882378"><ele>594.0</ele><time>2026-05-02T08:04:00.152Z</time></trkpt><trkpt lat="46.1094945" lon="13.588192"><ele>594.0</ele><time>2026-05-02T08:04:01.161Z</time></trkpt><trkpt lat="46.1094291" lon="13.5881366"><ele>594.0</ele><time>2026-05-02T08:04:02.171Z</time></trkpt><trkpt lat="46.1093795" lon="13.5880632"><ele>594.0</ele><time>2026-05-02T08:04:03.167Z</time></trkpt><trkpt lat="46.1093588" lon="13.587966"><ele>594.0</ele><time>2026-05-02T08:04:04.158Z</time></trkpt><trkpt lat="46.1093518" lon="13.5878469"><ele>594.0</ele><time>2026-05-02T08:04:05.156Z</time></trkpt><trkpt lat="46.109352" lon="13.5877125"><ele>594.0</ele><time>2026-05-02T08:04:06.148Z</time></trkpt><trkpt lat="46.1093453" lon="13.5875612"><ele>594.0</ele><time>2026-05-02T08:04:07.156Z</time></trkpt><trkpt lat="46.1093373" lon="13.5873812"><ele>594.0</ele><time>2026-05-02T08:04:08.15Z</time></trkpt><trkpt lat="46.1093252" lon="13.5871991"><ele>594.0</ele><time>2026-05-02T08:04:09.163Z</time></trkpt><trkpt lat="46.1093099" lon="13.5870259"><ele>594.0</ele><time>2026-05-02T08:04:10.16Z</time></trkpt><trkpt lat="46.1093047" lon="13.586856"><ele>594.0</ele><time>2026-05-02T08:04:11.165Z</time></trkpt><trkpt lat="46.1092994" lon="13.5866974"><ele>594.0</ele><time>2026-05-02T08:04:12.152Z</time></trkpt><trkpt lat="46.1092926" lon="13.5865526"><ele>593.2</ele><time>2026-05-02T08:04:13.153Z</time></trkpt><trkpt lat="46.1092922" lon="13.5864292"><ele>592.4</ele><time>2026-05-02T08:04:14.159Z</time></trkpt><trkpt lat="46.1092971" lon="13.5863023"><ele>591.6</ele><time>2026-05-02T08:04:15.165Z</time></trkpt><trkpt lat="46.1093101" lon="13.5861596"><ele>590.8</ele><time>2026-05-02T08:04:16.146Z</time></trkpt><trkpt lat="46.1093158" lon="13.5860009"><ele>590.0</ele><time>2026-05-02T08:04:17.156Z</time></trkpt><trkpt lat="46.1093223" lon="13.5858407"><ele>589.2</ele><time>2026-05-02T08:04:18.137Z</time></trkpt><trkpt lat="46.1093167" lon="13.5856938"><ele>588.4</ele><time>2026-05-02T08:04:19.156Z</time></trkpt><trkpt lat="46.109298" lon="13.585558"><ele>587.6</ele><time>2026-05-02T08:04:20.167Z</time></trkpt><trkpt lat="46.1092631" lon="13.5854336"><ele>586.8</ele><time>2026-05-02T08:04:21.152Z</time></trkpt><trkpt lat="46.1092285" lon="13.5853038"><ele>586.0</ele><time>2026-05-02T08:04:22.158Z</time></trkpt><trkpt lat="46.109192" lon="13.585159"><ele>586.0</ele><time>2026-05-02T08:04:23.162Z</time></trkpt><trkpt lat="46.1091651" lon="13.585002"><ele>586.0</ele><time>2026-05-02T08:04:24.154Z</time></trkpt><trkpt lat="46.1091322" lon="13.5848518"><ele>586.0</ele><time>2026-05-02T08:04:25.157Z</time></trkpt><trkpt lat="46.1090906" lon="13.584708"><ele>586.0</ele><time>2026-05-02T08:04:26.188Z</time></trkpt><trkpt lat="46.1090442" lon="13.5845721"><ele>586.0</ele><time>2026-05-02T08:04:27.149Z</time></trkpt><trkpt lat="46.1089806" lon="13.5844309"><ele>578.25</ele><time>2026-05-02T08:04:28.135Z</time></trkpt><trkpt lat="46.1089164" lon="13.5843006"><ele>570.5</ele><time>2026-05-02T08:04:29.139Z</time></trkpt><trkpt lat="46.1088444" lon="13.584169"><ele>562.75</ele><time>2026-05-02T08:04:30.137Z</time></trkpt><trkpt lat="46.1087731" lon="13.5840419"><ele>555.0</ele><time>2026-05-02T08:04:31.148Z</time></trkpt><trkpt lat="46.1086983" lon="13.583917"><ele>555.0</ele><time>2026-05-02T08:04:32.152Z</time></trkpt><trkpt lat="46.1086219" lon="13.5838046"><ele>555.0</ele><time>2026-05-02T08:04:33.148Z</time></trkpt><trkpt lat="46.1085543" lon="13.5837174"><ele>555.0</ele><time>2026-05-02T08:04:34.157Z</time></trkpt><trkpt lat="46.1084978" lon="13.5836537"><ele>555.0</ele><time>2026-05-02T08:04:35.153Z</time></trkpt><trkpt lat="46.1084363" lon="13.5836086"><ele>555.0</ele><time>2026-05-02T08:04:36.152Z</time></trkpt><trkpt lat="46.1083104" lon="13.5836114"><ele>553.4</ele><time>2026-05-02T08:04:38.141Z</time></trkpt><trkpt lat="46.1082277" lon="13.5836305"><ele>551.8</ele><time>2026-05-02T08:04:39.157Z</time></trkpt><trkpt lat="46.108141" lon="13.5836472"><ele>550.2</ele><time>2026-05-02T08:04:40.154Z</time></trkpt><trkpt lat="46.1080356" lon="13.5836482"><ele>548.6</ele><time>2026-05-02T08:04:41.149Z</time></trkpt><trkpt lat="46.1079296" lon="13.5836205"><ele>547.0</ele><time>2026-05-02T08:04:42.151Z</time></trkpt><trkpt lat="46.1078266" lon="13.5835769"><ele>547.0</ele><time>2026-05-02T08:04:43.153Z</time></trkpt><trkpt lat="46.1077233" lon="13.5835247"><ele>547.0</ele><time>2026-05-02T08:04:44.147Z</time></trkpt><trkpt lat="46.1076318" lon="13.5834702"><ele>547.0</ele><time>2026-05-02T08:04:45.164Z</time></trkpt><trkpt lat="46.107557" lon="13.58341"><ele>547.0</ele><time>2026-05-02T08:04:46.164Z</time></trkpt><trkpt lat="46.1075016" lon="13.5833275"><ele>547.0</ele><time>2026-05-02T08:04:47.161Z</time></trkpt><trkpt lat="46.1074626" lon="13.5832551"><ele>547.0</ele><time>2026-05-02T08:04:48.159Z</time></trkpt><trkpt lat="46.1073888" lon="13.5832314"><ele>547.0</ele><time>2026-05-02T08:04:51.158Z</time></trkpt><trkpt lat="46.1074277" lon="13.5833738"><ele>547.0</ele><time>2026-05-02T08:04:53.167Z</time></trkpt><trkpt lat="46.1074815" lon="13.583474"><ele>547.0</ele><time>2026-05-02T08:04:54.153Z</time></trkpt><trkpt lat="46.1075379" lon="13.5835765"><ele>547.0</ele><time>2026-05-02T08:04:55.157Z</time></trkpt><trkpt lat="46.1076001" lon="13.5836777"><ele>547.0</ele><time>2026-05-02T08:04:56.171Z</time></trkpt><trkpt lat="46.1076753" lon="13.583793"><ele>545.6</ele><time>2026-05-02T08:04:57.172Z</time></trkpt><trkpt lat="46.1077477" lon="13.5839083"><ele>544.2</ele><time>2026-05-02T08:04:58.156Z</time></trkpt><trkpt lat="46.1078216" lon="13.5840134"><ele>542.8</ele><time>2026-05-02T08:04:59.17Z</time></trkpt><trkpt lat="46.1078905" lon="13.5841092"><ele>541.4</ele><time>2026-05-02T08:05:00.153Z</time></trkpt><trkpt lat="46.1079538" lon="13.5841595"><ele>540.0</ele><time>2026-05-02T08:05:01.161Z</time></trkpt><trkpt lat="46.1080656" lon="13.584154"><ele>540.0</ele><time>2026-05-02T08:05:03.149Z</time></trkpt><trkpt lat="46.1081244" lon="13.5841206"><ele>540.0</ele><time>2026-05-02T08:05:04.158Z</time></trkpt><trkpt lat="46.1082281" lon="13.584117"><ele>540.0</ele><time>2026-05-02T08:05:06.155Z</time></trkpt><trkpt lat="46.108277" lon="13.5842434"><ele>540.0</ele><time>2026-05-02T08:05:08.149Z</time></trkpt><trkpt lat="46.1082778" lon="13.5843568"><ele>540.0</ele><time>2026-05-02T08:05:09.151Z</time></trkpt><trkpt lat="46.1082675" lon="13.5845083"><ele>540.25</ele><time>2026-05-02T08:05:10.141Z</time></trkpt><trkpt lat="46.1082604" lon="13.5846819"><ele>540.5</ele><time>2026-05-02T08:05:11.153Z</time></trkpt><trkpt lat="46.1082575" lon="13.5848576"><ele>540.75</ele><time>2026-05-02T08:05:12.154Z</time></trkpt><trkpt lat="46.1082524" lon="13.5850223"><ele>541.0</ele><time>2026-05-02T08:05:13.161Z</time></trkpt><trkpt lat="46.1082427" lon="13.5851755"><ele>536.0</ele><time>2026-05-02T08:05:14.161Z</time></trkpt><trkpt lat="46.1082397" lon="13.5853024"><ele>531.0</ele><time>2026-05-02T08:05:15.165Z</time></trkpt><trkpt lat="46.1082345" lon="13.5854105"><ele>526.0</ele><time>2026-05-02T08:05:16.162Z</time></trkpt><trkpt lat="46.1082203" lon="13.5855798"><ele>521.0</ele><time>2026-05-02T08:05:18.147Z</time></trkpt><trkpt lat="46.1081808" lon="13.5856603"><ele>516.0</ele><time>2026-05-02T08:05:19.161Z</time></trkpt><trkpt lat="46.1081204" lon="13.5857472"><ele>511.0</ele><time>2026-05-02T08:05:20.148Z</time></trkpt><trkpt lat="46.1080503" lon="13.5858565"><ele>509.00000000000006</ele><time>2026-05-02T08:05:21.149Z</time></trkpt><trkpt lat="46.1079921" lon="13.5859642"><ele>507.0</ele><time>2026-05-02T08:05:22.172Z</time></trkpt><trkpt lat="46.1079445" lon="13.5860647"><ele>505.0</ele><time>2026-05-02T08:05:23.154Z</time></trkpt><trkpt lat="46.1079189" lon="13.5861731"><ele>503.0</ele><time>2026-05-02T08:05:24.165Z</time></trkpt><trkpt lat="46.1078979" lon="13.5862906"><ele>501.00000000000006</ele><time>2026-05-02T08:05:25.164Z</time></trkpt><trkpt lat="46.1078773" lon="13.5864073"><ele>499.0</ele><time>2026-05-02T08:05:26.157Z</time></trkpt><trkpt lat="46.107847" lon="13.5865283"><ele>498.6</ele><time>2026-05-02T08:05:27.155Z</time></trkpt><trkpt lat="46.107798" lon="13.586682"><ele>498.2</ele><time>2026-05-02T08:05:28.17Z</time></trkpt><trkpt lat="46.1077453" lon="13.5868343"><ele>497.80000000000007</ele><time>2026-05-02T08:05:29.139Z</time></trkpt><trkpt lat="46.1076916" lon="13.586972"><ele>497.40000000000003</ele><time>2026-05-02T08:05:30.169Z</time></trkpt><trkpt lat="46.1076422" lon="13.5871004"><ele>497.0</ele><time>2026-05-02T08:05:31.149Z</time></trkpt><trkpt lat="46.1076063" lon="13.5872139"><ele>497.8571428571429</ele><time>2026-05-02T08:05:32.156Z</time></trkpt><trkpt lat="46.1075792" lon="13.5873097"><ele>498.7142857142857</ele><time>2026-05-02T08:05:33.156Z</time></trkpt><trkpt lat="46.1075363" lon="13.5873865"><ele>499.57142857142856</ele><time>2026-05-02T08:05:34.161Z</time></trkpt><trkpt lat="46.1074868" lon="13.587468"><ele>500.42857142857144</ele><time>2026-05-02T08:05:35.164Z</time></trkpt><trkpt lat="46.1074424" lon="13.5875548"><ele>501.28571428571433</ele><time>2026-05-02T08:05:36.142Z</time></trkpt><trkpt lat="46.1074178" lon="13.5876504"><ele>502.14285714285717</ele><time>2026-05-02T08:05:37.15Z</time></trkpt><trkpt lat="46.1074023" lon="13.5877534"><ele>503.0</ele><time>2026-05-02T08:05:38.144Z</time></trkpt><trkpt lat="46.1073843" lon="13.5878628"><ele>492.99999999999994</ele><time>2026-05-02T08:05:39.149Z</time></trkpt><trkpt lat="46.1073606" lon="13.587973"><ele>483.0</ele><time>2026-05-02T08:05:40.149Z</time></trkpt><trkpt lat="46.1073338" lon="13.5880941"><ele>473.0</ele><time>2026-05-02T08:05:41.142Z</time></trkpt><trkpt lat="46.1073159" lon="13.5882248"><ele>463.0</ele><time>2026-05-02T08:05:42.139Z</time></trkpt><trkpt lat="46.1073104" lon="13.5883533"><ele>452.99999999999994</ele><time>2026-05-02T08:05:43.144Z</time></trkpt><trkpt lat="46.1073129" lon="13.5884772"><ele>443.0</ele><time>2026-05-02T08:05:44.143Z</time></trkpt><trkpt lat="46.1073241" lon="13.5885874"><ele>442.99999999999994</ele><time>2026-05-02T08:05:45.146Z</time></trkpt><trkpt lat="46.1073441" lon="13.5886841"><ele>443.0</ele><time>2026-05-02T08:05:46.155Z</time></trkpt><trkpt lat="46.1073784" lon="13.5887843"><ele>443.0</ele><time>2026-05-02T08:05:47.159Z</time></trkpt><trkpt lat="46.1074207" lon="13.5888832"><ele>443.0</ele><time>2026-05-02T08:05:48.168Z</time></trkpt><trkpt lat="46.1074813" lon="13.5889697"><ele>442.99999999999994</ele><time>2026-05-02T08:05:49.153Z</time></trkpt><trkpt lat="46.1075474" lon="13.5890487"><ele>443.0</ele><time>2026-05-02T08:05:50.154Z</time></trkpt><trkpt lat="46.1076304" lon="13.5891085"><ele>447.4</ele><time>2026-05-02T08:05:51.159Z</time></trkpt><trkpt lat="46.1077148" lon="13.5891625"><ele>451.79999999999995</ele><time>2026-05-02T08:05:52.159Z</time></trkpt><trkpt lat="46.1078104" lon="13.5892163"><ele>456.2</ele><time>2026-05-02T08:05:53.158Z</time></trkpt><trkpt lat="46.1079047" lon="13.5892786"><ele>460.6</ele><time>2026-05-02T08:05:54.182Z</time></trkpt><trkpt lat="46.107999" lon="13.5893429"><ele>465.0</ele><time>2026-05-02T08:05:55.153Z</time></trkpt><trkpt lat="46.1080978" lon="13.5894154"><ele>465.0</ele><time>2026-05-02T08:05:56.166Z</time></trkpt><trkpt lat="46.1082054" lon="13.5894852"><ele>465.0</ele><time>2026-05-02T08:05:57.156Z</time></trkpt><trkpt lat="46.1083036" lon="13.5895544"><ele>465.0</ele><time>2026-05-02T08:05:58.151Z</time></trkpt><trkpt lat="46.1083984" lon="13.5896131"><ele>465.0</ele><time>2026-05-02T08:05:59.152Z</time></trkpt><trkpt lat="46.1084891" lon="13.5896654"><ele>465.0</ele><time>2026-05-02T08:06:00.146Z</time></trkpt><trkpt lat="46.1085776" lon="13.5897125"><ele>465.0</ele><time>2026-05-02T08:06:01.146Z</time></trkpt><trkpt lat="46.1086728" lon="13.5897494"><ele>465.0</ele><time>2026-05-02T08:06:02.149Z</time></trkpt><trkpt lat="46.1087818" lon="13.5897722"><ele>465.0</ele><time>2026-05-02T08:06:03.148Z</time></trkpt><trkpt lat="46.1088955" lon="13.5897869"><ele>465.0</ele><time>2026-05-02T08:06:04.161Z</time></trkpt><trkpt lat="46.1090097" lon="13.5898096"><ele>465.0</ele><time>2026-05-02T08:06:05.165Z</time></trkpt><trkpt lat="46.1091257" lon="13.5898299"><ele>465.0</ele><time>2026-05-02T08:06:06.162Z</time></trkpt><trkpt lat="46.1092519" lon="13.5898621"><ele>465.0</ele><time>2026-05-02T08:06:07.168Z</time></trkpt><trkpt lat="46.1093753" lon="13.5898918"><ele>465.0</ele><time>2026-05-02T08:06:08.153Z</time></trkpt><trkpt lat="46.1094924" lon="13.5899197"><ele>465.0</ele><time>2026-05-02T08:06:09.165Z</time></trkpt><trkpt lat="46.1095991" lon="13.5899431"><ele>465.0</ele><time>2026-05-02T08:06:10.147Z</time></trkpt><trkpt lat="46.109686" lon="13.589974"><ele>465.0</ele><time>2026-05-02T08:06:11.155Z</time></trkpt><trkpt lat="46.1097569" lon="13.5900171"><ele>465.0</ele><time>2026-05-02T08:06:12.142Z</time></trkpt><trkpt lat="46.1098196" lon="13.5900835"><ele>465.0</ele><time>2026-05-02T08:06:13.149Z</time></trkpt><trkpt lat="46.1098767" lon="13.5901654"><ele>465.0</ele><time>2026-05-02T08:06:14.145Z</time></trkpt><trkpt lat="46.1099263" lon="13.5902544"><ele>465.0</ele><time>2026-05-02T08:06:15.146Z</time></trkpt><trkpt lat="46.1099677" lon="13.5903484"><ele>465.0</ele><time>2026-05-02T08:06:16.152Z</time></trkpt><trkpt lat="46.1099956" lon="13.5904595"><ele>465.0</ele><time>2026-05-02T08:06:17.151Z</time></trkpt><trkpt lat="46.1099975" lon="13.5905933"><ele>465.0</ele><time>2026-05-02T08:06:18.147Z</time></trkpt><trkpt lat="46.1099917" lon="13.5907253"><ele>465.0</ele><time>2026-05-02T08:06:19.143Z</time></trkpt><trkpt lat="46.1099777" lon="13.5908713"><ele>465.0</ele><time>2026-05-02T08:06:20.146Z</time></trkpt><trkpt lat="46.1099651" lon="13.591035"><ele>465.0</ele><time>2026-05-02T08:06:21.147Z</time></trkpt><trkpt lat="46.1099525" lon="13.5912077"><ele>465.0</ele><time>2026-05-02T08:06:22.174Z</time></trkpt><trkpt lat="46.1099462" lon="13.5913722"><ele>465.0</ele><time>2026-05-02T08:06:23.154Z</time></trkpt><trkpt lat="46.1099432" lon="13.5915269"><ele>465.0</ele><time>2026-05-02T08:06:24.147Z</time></trkpt><trkpt lat="46.109953" lon="13.5916704"><ele>465.0</ele><time>2026-05-02T08:06:25.162Z</time></trkpt><trkpt lat="46.1099646" lon="13.5918125"><ele>460.6</ele><time>2026-05-02T08:06:26.147Z</time></trkpt><trkpt lat="46.1099859" lon="13.5919401"><ele>456.2</ele><time>2026-05-02T08:06:27.168Z</time></trkpt><trkpt lat="46.1100243" lon="13.5920382"><ele>451.79999999999995</ele><time>2026-05-02T08:06:28.153Z</time></trkpt><trkpt lat="46.1101415" lon="13.5921477"><ele>447.4</ele><time>2026-05-02T08:06:30.141Z</time></trkpt><trkpt lat="46.1102295" lon="13.5921883"><ele>443.0</ele><time>2026-05-02T08:06:31.149Z</time></trkpt><trkpt lat="46.1103255" lon="13.5922243"><ele>443.0</ele><time>2026-05-02T08:06:32.151Z</time></trkpt><trkpt lat="46.1104137" lon="13.5922673"><ele>442.99999999999994</ele><time>2026-05-02T08:06:33.15Z</time></trkpt><trkpt lat="46.1105048" lon="13.5923088"><ele>442.99999999999994</ele><time>2026-05-02T08:06:34.164Z</time></trkpt><trkpt lat="46.1105832" lon="13.5923692"><ele>443.0</ele><time>2026-05-02T08:06:35.145Z</time></trkpt><trkpt lat="46.1106544" lon="13.5924593"><ele>443.0</ele><time>2026-05-02T08:06:36.16Z</time></trkpt><trkpt lat="46.1107077" lon="13.5925663"><ele>444.16666666666663</ele><time>2026-05-02T08:06:37.161Z</time></trkpt><trkpt lat="46.1107647" lon="13.5926699"><ele>445.3333333333333</ele><time>2026-05-02T08:06:38.147Z</time></trkpt><trkpt lat="46.1108146" lon="13.5927811"><ele>446.5</ele><time>2026-05-02T08:06:39.168Z</time></trkpt><trkpt lat="46.1108532" lon="13.5928946"><ele>447.66666666666663</ele><time>2026-05-02T08:06:40.143Z</time></trkpt><trkpt lat="46.1108705" lon="13.5930056"><ele>448.8333333333333</ele><time>2026-05-02T08:06:41.144Z</time></trkpt><trkpt lat="46.1108706" lon="13.5931384"><ele>450.0</ele><time>2026-05-02T08:06:42.16Z</time></trkpt><trkpt lat="46.1108456" lon="13.5932816"><ele>450.0</ele><time>2026-05-02T08:06:43.145Z</time></trkpt><trkpt lat="46.1108133" lon="13.5934147"><ele>450.0</ele><time>2026-05-02T08:06:44.148Z</time></trkpt><trkpt lat="46.1107963" lon="13.5935213"><ele>450.0</ele><time>2026-05-02T08:06:45.159Z</time></trkpt><trkpt lat="46.1107779" lon="13.5936499"><ele>450.0</ele><time>2026-05-02T08:06:47.161Z</time></trkpt><trkpt lat="46.1107675" lon="13.5937532"><ele>450.0</ele><time>2026-05-02T08:06:49.153Z</time></trkpt><trkpt lat="46.1107164" lon="13.5938076"><ele>450.0</ele><time>2026-05-02T08:07:56.169Z</time></trkpt><trkpt lat="46.1106746" lon="13.5937364"><ele>444.1666666666667</ele><time>2026-05-02T08:08:00.159Z</time></trkpt><trkpt lat="46.1106931" lon="13.593624"><ele>438.33333333333337</ele><time>2026-05-02T08:08:04.165Z</time></trkpt><trkpt lat="46.1106921" lon="13.5934583"><ele>432.5</ele><time>2026-05-02T08:08:06.161Z</time></trkpt><trkpt lat="46.1107035" lon="13.5933587"><ele>426.6666666666667</ele><time>2026-05-02T08:08:07.164Z</time></trkpt><trkpt lat="46.1107059" lon="13.5932583"><ele>420.83333333333337</ele><time>2026-05-02T08:08:08.153Z</time></trkpt><trkpt lat="46.1107123" lon="13.5931667"><ele>415.0</ele><time>2026-05-02T08:08:09.178Z</time></trkpt><trkpt lat="46.1106913" lon="13.5930008"><ele>415.00000000000006</ele><time>2026-05-02T08:08:11.157Z</time></trkpt><trkpt lat="46.1105941" lon="13.5928625"><ele>415.0</ele><time>2026-05-02T08:08:13.152Z</time></trkpt><trkpt lat="46.11053" lon="13.592796"><ele>415.0</ele><time>2026-05-02T08:08:14.151Z</time></trkpt><trkpt lat="46.1104578" lon="13.5927445"><ele>415.0</ele><time>2026-05-02T08:08:15.161Z</time></trkpt><trkpt lat="46.1103844" lon="13.5927065"><ele>415.00000000000006</ele><time>2026-05-02T08:08:16.16Z</time></trkpt><trkpt lat="46.1103212" lon="13.5926771"><ele>415.0</ele><time>2026-05-02T08:08:17.156Z</time></trkpt><trkpt lat="46.1102502" lon="13.5926576"><ele>415.4</ele><time>2026-05-02T08:08:18.148Z</time></trkpt><trkpt lat="46.1101558" lon="13.5926616"><ele>415.8</ele><time>2026-05-02T08:08:19.143Z</time></trkpt><trkpt lat="46.1100511" lon="13.5926846"><ele>416.20000000000005</ele><time>2026-05-02T08:08:20.147Z</time></trkpt><trkpt lat="46.1099424" lon="13.5927132"><ele>416.6</ele><time>2026-05-02T08:08:21.155Z</time></trkpt><trkpt lat="46.1098418" lon="13.5927324"><ele>417.0</ele><time>2026-05-02T08:08:22.143Z</time></trkpt><trkpt lat="46.1097429" lon="13.5927456"><ele>417.0</ele><time>2026-05-02T08:08:23.148Z</time></trkpt><trkpt lat="46.1096362" lon="13.5927548"><ele>417.0</ele><time>2026-05-02T08:08:24.153Z</time></trkpt><trkpt lat="46.1095388" lon="13.5927679"><ele>417.0</ele><time>2026-05-02T08:08:25.147Z</time></trkpt><trkpt lat="46.1094466" lon="13.5927968"><ele>417.0</ele><time>2026-05-02T08:08:26.154Z</time></trkpt><trkpt lat="46.1093606" lon="13.5928242"><ele>417.0</ele><time>2026-05-02T08:08:27.148Z</time></trkpt><trkpt lat="46.10928" lon="13.5928394"><ele>417.0</ele><time>2026-05-02T08:08:28.153Z</time></trkpt><trkpt lat="46.1092172" lon="13.5928284"><ele>417.0</ele><time>2026-05-02T08:08:29.152Z</time></trkpt><trkpt lat="46.1091371" lon="13.5927502"><ele>417.0</ele><time>2026-05-02T08:08:31.162Z</time></trkpt><trkpt lat="46.1091053" lon="13.5926043"><ele>417.0</ele><time>2026-05-02T08:08:33.147Z</time></trkpt><trkpt lat="46.1091122" lon="13.5925087"><ele>417.0</ele><time>2026-05-02T08:08:34.148Z</time></trkpt><trkpt lat="46.1091437" lon="13.5923755"><ele>417.0</ele><time>2026-05-02T08:08:35.151Z</time></trkpt><trkpt lat="46.1091723" lon="13.592253"><ele>417.0</ele><time>2026-05-02T08:08:36.149Z</time></trkpt><trkpt lat="46.1091935" lon="13.5921048"><ele>417.0</ele><time>2026-05-02T08:08:37.151Z</time></trkpt><trkpt lat="46.1092069" lon="13.5919493"><ele>417.0</ele><time>2026-05-02T08:08:38.138Z</time></trkpt><trkpt lat="46.1092081" lon="13.5918042"><ele>417.0</ele><time>2026-05-02T08:08:39.147Z</time></trkpt><trkpt lat="46.1091941" lon="13.5916689"><ele>417.0</ele><time>2026-05-02T08:08:40.141Z</time></trkpt><trkpt lat="46.1091566" lon="13.5915367"><ele>417.0</ele><time>2026-05-02T08:08:41.143Z</time></trkpt><trkpt lat="46.1091062" lon="13.591434"><ele>417.0</ele><time>2026-05-02T08:08:42.154Z</time></trkpt><trkpt lat="46.1090413" lon="13.5913515"><ele>417.0</ele><time>2026-05-02T08:08:43.143Z</time></trkpt><trkpt lat="46.1089941" lon="13.5912913"><ele>417.0</ele><time>2026-05-02T08:08:44.142Z</time></trkpt><trkpt lat="46.1089218" lon="13.5912772"><ele>417.0</ele><time>2026-05-02T08:08:45.14Z</time></trkpt><trkpt lat="46.1088431" lon="13.591305"><ele>417.0</ele><time>2026-05-02T08:08:46.15Z</time></trkpt><trkpt lat="46.108751" lon="13.5913525"><ele>412.8</ele><time>2026-05-02T08:08:47.146Z</time></trkpt><trkpt lat="46.108645" lon="13.5913872"><ele>408.6</ele><time>2026-05-02T08:08:48.147Z</time></trkpt><trkpt lat="46.1085382" lon="13.5914131"><ele>404.40000000000003</ele><time>2026-05-02T08:08:49.16Z</time></trkpt><trkpt lat="46.1084297" lon="13.5914386"><ele>400.20000000000005</ele><time>2026-05-02T08:08:50.163Z</time></trkpt><trkpt lat="46.108321" lon="13.5914678"><ele>396.0</ele><time>2026-05-02T08:08:51.156Z</time></trkpt><trkpt lat="46.1082161" lon="13.5914912"><ele>392.6</ele><time>2026-05-02T08:08:52.16Z</time></trkpt><trkpt lat="46.1081241" lon="13.5915014"><ele>389.20000000000005</ele><time>2026-05-02T08:08:53.149Z</time></trkpt><trkpt lat="46.108032" lon="13.5915038"><ele>385.79999999999995</ele><time>2026-05-02T08:08:54.154Z</time></trkpt><trkpt lat="46.1079321" lon="13.5915065"><ele>382.4</ele><time>2026-05-02T08:08:55.159Z</time></trkpt><trkpt lat="46.1078291" lon="13.5915095"><ele>379.0</ele><time>2026-05-02T08:08:56.141Z</time></trkpt><trkpt lat="46.1077309" lon="13.59151"><ele>379.0</ele><time>2026-05-02T08:08:57.16Z</time></trkpt><trkpt lat="46.1076274" lon="13.591498"><ele>379.0</ele><time>2026-05-02T08:08:58.153Z</time></trkpt><trkpt lat="46.1075199" lon="13.5914777"><ele>379.0</ele><time>2026-05-02T08:08:59.136Z</time></trkpt><trkpt lat="46.1074064" lon="13.5914504"><ele>379.0</ele><time>2026-05-02T08:09:00.161Z</time></trkpt><trkpt lat="46.1072941" lon="13.5914322"><ele>379.0</ele><time>2026-05-02T08:09:01.137Z</time></trkpt><trkpt lat="46.1071858" lon="13.5914194"><ele>377.79999999999995</ele><time>2026-05-02T08:09:02.136Z</time></trkpt><trkpt lat="46.1070741" lon="13.5914152"><ele>376.59999999999997</ele><time>2026-05-02T08:09:03.137Z</time></trkpt><trkpt lat="46.106963" lon="13.5914214"><ele>375.4</ele><time>2026-05-02T08:09:04.132Z</time></trkpt><trkpt lat="46.1068674" lon="13.5914386"><ele>374.2</ele><time>2026-05-02T08:09:05.132Z</time></trkpt><trkpt lat="46.1067722" lon="13.5914748"><ele>373.0</ele><time>2026-05-02T08:09:06.165Z</time></trkpt><trkpt lat="46.106685" lon="13.5915235"><ele>373.0</ele><time>2026-05-02T08:09:07.144Z</time></trkpt><trkpt lat="46.1066046" lon="13.5915739"><ele>373.0</ele><time>2026-05-02T08:09:08.165Z</time></trkpt><trkpt lat="46.1065348" lon="13.591625"><ele>373.0</ele><time>2026-05-02T08:09:09.15Z</time></trkpt><trkpt lat="46.1064739" lon="13.59167"><ele>373.0</ele><time>2026-05-02T08:09:10.16Z</time></trkpt><trkpt lat="46.106383" lon="13.5916916"><ele>373.0</ele><time>2026-05-02T08:09:12.153Z</time></trkpt><trkpt lat="46.1064434" lon="13.5917501"><ele>373.0</ele><time>2026-05-02T08:09:17.173Z</time></trkpt><trkpt lat="46.1065152" lon="13.5917343"><ele>373.0</ele><time>2026-05-02T08:09:18.194Z</time></trkpt><trkpt lat="46.1065944" lon="13.5917111"><ele>373.0</ele><time>2026-05-02T08:09:19.151Z</time></trkpt><trkpt lat="46.1066806" lon="13.5916903"><ele>373.0</ele><time>2026-05-02T08:09:20.14Z</time></trkpt><trkpt lat="46.106754" lon="13.5916758"><ele>373.0</ele><time>2026-05-02T08:09:21.131Z</time></trkpt><trkpt lat="46.1068229" lon="13.591664"><ele>373.0</ele><time>2026-05-02T08:09:22.147Z</time></trkpt><trkpt lat="46.1068993" lon="13.5916639"><ele>373.0</ele><time>2026-05-02T08:09:23.131Z</time></trkpt><trkpt lat="46.1069772" lon="13.5916705"><ele>373.0</ele><time>2026-05-02T08:09:24.149Z</time></trkpt><trkpt lat="46.1070659" lon="13.5916937"><ele>373.0</ele><time>2026-05-02T08:09:25.155Z</time></trkpt><trkpt lat="46.1071564" lon="13.5917433"><ele>373.0</ele><time>2026-05-02T08:09:26.156Z</time></trkpt><trkpt lat="46.1072472" lon="13.5918113"><ele>373.0</ele><time>2026-05-02T08:09:27.149Z</time></trkpt><trkpt lat="46.1073402" lon="13.5918816"><ele>373.0</ele><time>2026-05-02T08:09:28.151Z</time></trkpt><trkpt lat="46.1074302" lon="13.5919529"><ele>368.4</ele><time>2026-05-02T08:09:29.146Z</time></trkpt><trkpt lat="46.1075201" lon="13.5920218"><ele>363.79999999999995</ele><time>2026-05-02T08:09:30.161Z</time></trkpt><trkpt lat="46.1076022" lon="13.592091"><ele>359.2</ele><time>2026-05-02T08:09:31.154Z</time></trkpt><trkpt lat="46.1076703" lon="13.5921892"><ele>354.6</ele><time>2026-05-02T08:09:32.17Z</time></trkpt><trkpt lat="46.1077291" lon="13.5922953"><ele>350.0</ele><time>2026-05-02T08:09:33.169Z</time></trkpt><trkpt lat="46.1077856" lon="13.5923844"><ele>350.0</ele><time>2026-05-02T08:09:34.152Z</time></trkpt><trkpt lat="46.1078768" lon="13.5924647"><ele>350.0</ele><time>2026-05-02T08:09:36.16Z</time></trkpt><trkpt lat="46.1079781" lon="13.5924238"><ele>350.0</ele><time>2026-05-02T08:09:38.16Z</time></trkpt><trkpt lat="46.1079824" lon="13.5925404"><ele>350.0</ele><time>2026-05-02T08:09:44.162Z</time></trkpt><trkpt lat="46.107933" lon="13.5926029"><ele>350.0</ele><time>2026-05-02T08:09:45.15Z</time></trkpt><trkpt lat="46.1078755" lon="13.5926695"><ele>350.0</ele><time>2026-05-02T08:09:46.154Z</time></trkpt><trkpt lat="46.107774" lon="13.5927423"><ele>350.0</ele><time>2026-05-02T08:09:48.155Z</time></trkpt><trkpt lat="46.1076783" lon="13.5927445"><ele>350.0</ele><time>2026-05-02T08:09:50.157Z</time></trkpt><trkpt lat="46.1075724" lon="13.5926844"><ele>350.0</ele><time>2026-05-02T08:09:52.157Z</time></trkpt><trkpt lat="46.1075106" lon="13.5926315"><ele>350.0</ele><time>2026-05-02T08:09:53.158Z</time></trkpt><trkpt lat="46.1074353" lon="13.5925826"><ele>350.0</ele><time>2026-05-02T08:09:54.158Z</time></trkpt><trkpt lat="46.1073518" lon="13.5925378"><ele>348.33333333333337</ele><time>2026-05-02T08:09:55.17Z</time></trkpt><trkpt lat="46.1072637" lon="13.5925096"><ele>346.6666666666667</ele><time>2026-05-02T08:09:56.146Z</time></trkpt><trkpt lat="46.1071735" lon="13.5924834"><ele>345.0</ele><time>2026-05-02T08:09:57.148Z</time></trkpt><trkpt lat="46.1070871" lon="13.5924624"><ele>343.3333333333333</ele><time>2026-05-02T08:09:58.162Z</time></trkpt><trkpt lat="46.1070055" lon="13.5924555"><ele>341.66666666666663</ele><time>2026-05-02T08:09:59.166Z</time></trkpt><trkpt lat="46.1069336" lon="13.5924572"><ele>340.0</ele><time>2026-05-02T08:10:00.152Z</time></trkpt><trkpt lat="46.1068553" lon="13.5924733"><ele>340.0</ele><time>2026-05-02T08:10:01.151Z</time></trkpt><trkpt lat="46.1067716" lon="13.5925046"><ele>340.0</ele><time>2026-05-02T08:10:02.164Z</time></trkpt><trkpt lat="46.1066783" lon="13.5925347"><ele>340.0</ele><time>2026-05-02T08:10:03.152Z</time></trkpt><trkpt lat="46.106587" lon="13.5925775"><ele>340.0</ele><time>2026-05-02T08:10:04.143Z</time></trkpt><trkpt lat="46.1065" lon="13.5926119"><ele>340.0</ele><time>2026-05-02T08:10:05.152Z</time></trkpt><trkpt lat="46.1064177" lon="13.5926378"><ele>338.8</ele><time>2026-05-02T08:10:06.149Z</time></trkpt><trkpt lat="46.106343" lon="13.5926587"><ele>337.6</ele><time>2026-05-02T08:10:07.155Z</time></trkpt><trkpt lat="46.1062557" lon="13.5927094"><ele>336.4</ele><time>2026-05-02T08:10:09.151Z</time></trkpt><trkpt lat="46.1062986" lon="13.5927953"><ele>335.2</ele><time>2026-05-02T08:10:11.148Z</time></trkpt><trkpt lat="46.106438" lon="13.5928007"><ele>334.0</ele><time>2026-05-02T08:10:13.151Z</time></trkpt><trkpt lat="46.1065202" lon="13.5928049"><ele>335.0</ele><time>2026-05-02T08:10:14.163Z</time></trkpt><trkpt lat="46.1066137" lon="13.5928255"><ele>336.0</ele><time>2026-05-02T08:10:15.164Z</time></trkpt><trkpt lat="46.1066946" lon="13.5928606"><ele>337.0</ele><time>2026-05-02T08:10:16.149Z</time></trkpt><trkpt lat="46.1067678" lon="13.5929108"><ele>338.0</ele><time>2026-05-02T08:10:17.146Z</time></trkpt><trkpt lat="46.1068385" lon="13.592989"><ele>339.0</ele><time>2026-05-02T08:10:18.153Z</time></trkpt><trkpt lat="46.1068999" lon="13.5930946"><ele>340.0</ele><time>2026-05-02T08:10:19.152Z</time></trkpt><trkpt lat="46.1069594" lon="13.5932106"><ele>335.5</ele><time>2026-05-02T08:10:20.146Z</time></trkpt><trkpt lat="46.1070057" lon="13.5933345"><ele>331.0</ele><time>2026-05-02T08:10:21.156Z</time></trkpt><trkpt lat="46.1070589" lon="13.5934282"><ele>326.5</ele><time>2026-05-02T08:10:22.157Z</time></trkpt><trkpt lat="46.1071245" lon="13.5935008"><ele>322.0</ele><time>2026-05-02T08:10:23.155Z</time></trkpt><trkpt lat="46.1071933" lon="13.5935537"><ele>317.5</ele><time>2026-05-02T08:10:24.163Z</time></trkpt><trkpt lat="46.1072513" lon="13.5935976"><ele>313.0</ele><time>2026-05-02T08:10:25.164Z</time></trkpt><trkpt lat="46.1073333" lon="13.5936852"><ele>309.0</ele><time>2026-05-02T08:10:27.144Z</time></trkpt><trkpt lat="46.1072899" lon="13.5938952"><ele>305.0</ele><time>2026-05-02T08:10:29.142Z</time></trkpt><trkpt lat="46.1072564" lon="13.594028"><ele>301.0</ele><time>2026-05-02T08:10:30.135Z</time></trkpt><trkpt lat="46.1072331" lon="13.5941571"><ele>297.0</ele><time>2026-05-02T08:10:31.158Z</time></trkpt><trkpt lat="46.1072214" lon="13.5942787"><ele>293.0</ele><time>2026-05-02T08:10:32.165Z</time></trkpt><trkpt lat="46.1072216" lon="13.5943695"><ele>290.4</ele><time>2026-05-02T08:10:33.139Z</time></trkpt><trkpt lat="46.1072381" lon="13.5945126"><ele>287.8</ele><time>2026-05-02T08:10:35.155Z</time></trkpt><trkpt lat="46.1072063" lon="13.5946664"><ele>285.2</ele><time>2026-05-02T08:10:46.161Z</time></trkpt><trkpt lat="46.1072208" lon="13.5947612"><ele>282.6</ele><time>2026-05-02T08:10:47.159Z</time></trkpt><trkpt lat="46.1072775" lon="13.5948697"><ele>280.0</ele><time>2026-05-02T08:10:48.151Z</time></trkpt><trkpt lat="46.1073546" lon="13.5949925"><ele>279.6</ele><time>2026-05-02T08:10:49.151Z</time></trkpt><trkpt lat="46.1074216" lon="13.5951196"><ele>279.2</ele><time>2026-05-02T08:10:50.147Z</time></trkpt><trkpt lat="46.1074878" lon="13.5952407"><ele>278.8</ele><time>2026-05-02T08:10:51.149Z</time></trkpt><trkpt lat="46.107546" lon="13.595364"><ele>278.4</ele><time>2026-05-02T08:10:52.146Z</time></trkpt><trkpt lat="46.1075958" lon="13.5954875"><ele>278.0</ele><time>2026-05-02T08:10:53.146Z</time></trkpt><trkpt lat="46.1076393" lon="13.5956069"><ele>278.0</ele><time>2026-05-02T08:10:54.164Z</time></trkpt><trkpt lat="46.1076726" lon="13.5957075"><ele>278.0</ele><time>2026-05-02T08:10:55.159Z</time></trkpt><trkpt lat="46.107706" lon="13.5957901"><ele>278.0</ele><time>2026-05-02T08:10:56.146Z</time></trkpt><trkpt lat="46.1078108" lon="13.5958917"><ele>278.0</ele><time>2026-05-02T08:10:58.149Z</time></trkpt><trkpt lat="46.1078763" lon="13.5959186"><ele>278.0</ele><time>2026-05-02T08:10:59.149Z</time></trkpt><trkpt lat="46.1079509" lon="13.5959306"><ele>278.0</ele><time>2026-05-02T08:11:00.144Z</time></trkpt><trkpt lat="46.108062" lon="13.5959396"><ele>278.0</ele><time>2026-05-02T08:11:02.153Z</time></trkpt><trkpt lat="46.1081301" lon="13.5959997"><ele>278.0</ele><time>2026-05-02T08:11:04.15Z</time></trkpt><trkpt lat="46.1081339" lon="13.5961224"><ele>278.0</ele><time>2026-05-02T08:11:06.149Z</time></trkpt><trkpt lat="46.1081528" lon="13.5962156"><ele>278.0</ele><time>2026-05-02T08:16:37.138Z</time></trkpt><trkpt lat="46.1080787" lon="13.5961481"><ele>278.0</ele><time>2026-05-02T08:29:51.164Z</time></trkpt><trkpt lat="46.1080198" lon="13.5961006"><ele>278.0</ele><time>2026-05-02T08:29:53.157Z</time></trkpt><trkpt lat="46.1079254" lon="13.596074"><ele>278.0</ele><time>2026-05-02T08:29:55.156Z</time></trkpt><trkpt lat="46.1078124" lon="13.5960955"><ele>278.0</ele><time>2026-05-02T08:29:57.177Z</time></trkpt><trkpt lat="46.1077418" lon="13.5960975"><ele>278.0</ele><time>2026-05-02T08:29:58.169Z</time></trkpt><trkpt lat="46.107672" lon="13.5960718"><ele>278.0</ele><time>2026-05-02T08:29:59.172Z</time></trkpt><trkpt lat="46.1076115" lon="13.5960317"><ele>278.0</ele><time>2026-05-02T08:30:00.174Z</time></trkpt><trkpt lat="46.1075478" lon="13.5959598"><ele>278.0</ele><time>2026-05-02T08:30:01.163Z</time></trkpt><trkpt lat="46.1074685" lon="13.5958379"><ele>278.5</ele><time>2026-05-02T08:30:02.159Z</time></trkpt><trkpt lat="46.1073902" lon="13.5956888"><ele>279.0</ele><time>2026-05-02T08:30:03.17Z</time></trkpt><trkpt lat="46.1073134" lon="13.5955402"><ele>279.5</ele><time>2026-05-02T08:30:04.159Z</time></trkpt><trkpt lat="46.1072163" lon="13.5954118"><ele>280.0</ele><time>2026-05-02T08:30:05.177Z</time></trkpt><trkpt lat="46.1071128" lon="13.595296"><ele>280.0</ele><time>2026-05-02T08:30:06.164Z</time></trkpt><trkpt lat="46.1070113" lon="13.5951803"><ele>280.0</ele><time>2026-05-02T08:30:07.15Z</time></trkpt><trkpt lat="46.1069304" lon="13.5950725"><ele>280.0</ele><time>2026-05-02T08:30:08.166Z</time></trkpt><trkpt lat="46.1068661" lon="13.5950051"><ele>280.0</ele><time>2026-05-02T08:30:09.162Z</time></trkpt><trkpt lat="46.1068105" lon="13.5949489"><ele>280.0</ele><time>2026-05-02T08:30:10.16Z</time></trkpt><trkpt lat="46.1067519" lon="13.5949062"><ele>280.0</ele><time>2026-05-02T08:30:11.177Z</time></trkpt><trkpt lat="46.1066682" lon="13.5947646"><ele>280.0</ele><time>2026-05-02T08:30:13.189Z</time></trkpt><trkpt lat="46.1066351" lon="13.5946791"><ele>280.0</ele><time>2026-05-02T08:30:14.15Z</time></trkpt><trkpt lat="46.106616" lon="13.5945846"><ele>280.0</ele><time>2026-05-02T08:30:16.155Z</time></trkpt><trkpt lat="46.1066167" lon="13.5944841"><ele>280.0</ele><time>2026-05-02T08:30:33.164Z</time></trkpt><trkpt lat="46.1065523" lon="13.5943205"><ele>278.66666666666663</ele><time>2026-05-02T08:30:36.155Z</time></trkpt><trkpt lat="46.1064745" lon="13.5942547"><ele>277.3333333333333</ele><time>2026-05-02T08:30:38.151Z</time></trkpt><trkpt lat="46.106404" lon="13.5941936"><ele>276.0</ele><time>2026-05-02T08:47:56.172Z</time></trkpt><trkpt lat="46.106376" lon="13.5941049"><ele>274.6666666666667</ele><time>2026-05-02T08:47:59.163Z</time></trkpt><trkpt lat="46.1063264" lon="13.594042"><ele>273.33333333333337</ele><time>2026-05-02T08:49:02.168Z</time></trkpt><trkpt lat="46.1062537" lon="13.5939447"><ele>272.0</ele><time>2026-05-02T08:50:31.16Z</time></trkpt><trkpt lat="46.1062021" lon="13.5938773"><ele>272.0</ele><time>2026-05-02T08:50:32.167Z</time></trkpt><trkpt lat="46.1061337" lon="13.5938175"><ele>272.0</ele><time>2026-05-02T08:50:33.168Z</time></trkpt><trkpt lat="46.1060452" lon="13.5937826"><ele>272.0</ele><time>2026-05-02T08:50:34.171Z</time></trkpt><trkpt lat="46.1059482" lon="13.5937496"><ele>272.0</ele><time>2026-05-02T08:50:35.155Z</time></trkpt><trkpt lat="46.1058472" lon="13.5937063"><ele>272.0</ele><time>2026-05-02T08:50:36.179Z</time></trkpt><trkpt lat="46.1057494" lon="13.5936448"><ele>271.5</ele><time>2026-05-02T08:50:37.164Z</time></trkpt><trkpt lat="46.1056501" lon="13.5935696"><ele>271.0</ele><time>2026-05-02T08:50:38.169Z</time></trkpt><trkpt lat="46.1055409" lon="13.5934939"><ele>270.5</ele><time>2026-05-02T08:50:39.159Z</time></trkpt><trkpt lat="46.1054255" lon="13.5934006"><ele>270.0</ele><time>2026-05-02T08:50:40.156Z</time></trkpt><trkpt lat="46.1053111" lon="13.5933086"><ele>270.0</ele><time>2026-05-02T08:50:41.165Z</time></trkpt><trkpt lat="46.1051974" lon="13.5932115"><ele>270.0</ele><time>2026-05-02T08:50:42.171Z</time></trkpt><trkpt lat="46.1050884" lon="13.5931089"><ele>270.0</ele><time>2026-05-02T08:50:43.162Z</time></trkpt><trkpt lat="46.1049855" lon="13.5929907"><ele>270.0</ele><time>2026-05-02T08:50:44.167Z</time></trkpt><trkpt lat="46.104888" lon="13.5928683"><ele>267.5</ele><time>2026-05-02T08:50:45.18Z</time></trkpt><trkpt lat="46.1047956" lon="13.5927351"><ele>265.0</ele><time>2026-05-02T08:50:46.173Z</time></trkpt><trkpt lat="46.1047003" lon="13.5925822"><ele>262.5</ele><time>2026-05-02T08:50:47.177Z</time></trkpt><trkpt lat="46.1046032" lon="13.5924315"><ele>260.0</ele><time>2026-05-02T08:50:48.171Z</time></trkpt><trkpt lat="46.1045058" lon="13.5922836"><ele>260.0</ele><time>2026-05-02T08:50:49.171Z</time></trkpt><trkpt lat="46.1044124" lon="13.5921255"><ele>260.0</ele><time>2026-05-02T08:50:50.179Z</time></trkpt><trkpt lat="46.1043219" lon="13.5919536"><ele>260.0</ele><time>2026-05-02T08:50:51.169Z</time></trkpt><trkpt lat="46.1042409" lon="13.5917732"><ele>260.0</ele><time>2026-05-02T08:50:52.175Z</time></trkpt><trkpt lat="46.1041681" lon="13.5915853"><ele>257.75</ele><time>2026-05-02T08:50:53.16Z</time></trkpt><trkpt lat="46.1040999" lon="13.5913952"><ele>255.5</ele><time>2026-05-02T08:50:54.177Z</time></trkpt><trkpt lat="46.1040371" lon="13.5912117"><ele>253.25</ele><time>2026-05-02T08:50:55.164Z</time></trkpt><trkpt lat="46.103979" lon="13.5910238"><ele>251.0</ele><time>2026-05-02T08:50:56.199Z</time></trkpt><trkpt lat="46.10393" lon="13.5908399"><ele>251.0</ele><time>2026-05-02T08:50:57.161Z</time></trkpt><trkpt lat="46.1038809" lon="13.5906574"><ele>251.0</ele><time>2026-05-02T08:50:58.154Z</time></trkpt><trkpt lat="46.1038239" lon="13.5904799"><ele>251.0</ele><time>2026-05-02T08:50:59.165Z</time></trkpt><trkpt lat="46.1037601" lon="13.5903116"><ele>251.0</ele><time>2026-05-02T08:51:00.172Z</time></trkpt><trkpt lat="46.1036969" lon="13.590157"><ele>253.66666666666669</ele><time>2026-05-02T08:51:01.158Z</time></trkpt><trkpt lat="46.1036363" lon="13.5900643"><ele>256.33333333333337</ele><time>2026-05-02T08:51:02.176Z</time></trkpt><trkpt lat="46.1035678" lon="13.5900278"><ele>259.0</ele><time>2026-05-02T08:51:03.164Z</time></trkpt><trkpt lat="46.1035021" lon="13.5899951"><ele>261.6666666666667</ele><time>2026-05-02T08:51:04.167Z</time></trkpt><trkpt lat="46.1034469" lon="13.5899263"><ele>264.3333333333333</ele><time>2026-05-02T08:51:05.168Z</time></trkpt><trkpt lat="46.1033902" lon="13.5898172"><ele>267.0</ele><time>2026-05-02T08:51:06.16Z</time></trkpt><trkpt lat="46.103317" lon="13.5896902"><ele>264.75</ele><time>2026-05-02T08:51:07.169Z</time></trkpt><trkpt lat="46.1032368" lon="13.5895744"><ele>262.5</ele><time>2026-05-02T08:51:08.193Z</time></trkpt><trkpt lat="46.103146" lon="13.5894658"><ele>260.25</ele><time>2026-05-02T08:51:09.173Z</time></trkpt><trkpt lat="46.1030495" lon="13.5893689"><ele>258.0</ele><time>2026-05-02T08:51:10.169Z</time></trkpt><trkpt lat="46.1029487" lon="13.5892841"><ele>258.0</ele><time>2026-05-02T08:51:11.158Z</time></trkpt><trkpt lat="46.102838" lon="13.5891966"><ele>258.0</ele><time>2026-05-02T08:51:12.188Z</time></trkpt><trkpt lat="46.1027185" lon="13.5891137"><ele>258.0</ele><time>2026-05-02T08:51:13.178Z</time></trkpt><trkpt lat="46.1026059" lon="13.5890245"><ele>258.0</ele><time>2026-05-02T08:51:14.169Z</time></trkpt><trkpt lat="46.1024907" lon="13.5889341"><ele>253.0</ele><time>2026-05-02T08:51:15.166Z</time></trkpt><trkpt lat="46.1023794" lon="13.5888268"><ele>248.0</ele><time>2026-05-02T08:51:16.177Z</time></trkpt><trkpt lat="46.1022802" lon="13.5887157"><ele>243.0</ele><time>2026-05-02T08:51:17.181Z</time></trkpt><trkpt lat="46.1021933" lon="13.5886014"><ele>238.0</ele><time>2026-05-02T08:51:18.155Z</time></trkpt><trkpt lat="46.1021297" lon="13.5884876"><ele>238.0</ele><time>2026-05-02T08:51:19.159Z</time></trkpt><trkpt lat="46.1020951" lon="13.5883836"><ele>238.0</ele><time>2026-05-02T08:51:20.16Z</time></trkpt><trkpt lat="46.1020944" lon="13.5882669"><ele>238.0</ele><time>2026-05-02T08:51:21.149Z</time></trkpt><trkpt lat="46.1021242" lon="13.5881425"><ele>238.0</ele><time>2026-05-02T08:51:22.18Z</time></trkpt><trkpt lat="46.1021802" lon="13.5880144"><ele>238.0</ele><time>2026-05-02T08:51:23.171Z</time></trkpt><trkpt lat="46.1022636" lon="13.5878841"><ele>238.4</ele><time>2026-05-02T08:51:24.159Z</time></trkpt><trkpt lat="46.1023607" lon="13.5877577"><ele>238.8</ele><time>2026-05-02T08:51:25.167Z</time></trkpt><trkpt lat="46.1024389" lon="13.587644"><ele>239.2</ele><time>2026-05-02T08:51:26.165Z</time></trkpt><trkpt lat="46.1024936" lon="13.5875133"><ele>239.6</ele><time>2026-05-02T08:51:27.141Z</time></trkpt><trkpt lat="46.1025063" lon="13.5873747"><ele>240.0</ele><time>2026-05-02T08:51:28.167Z</time></trkpt><trkpt lat="46.1024789" lon="13.5872472"><ele>240.0</ele><time>2026-05-02T08:51:29.157Z</time></trkpt><trkpt lat="46.1024182" lon="13.5871457"><ele>240.0</ele><time>2026-05-02T08:51:30.159Z</time></trkpt><trkpt lat="46.1023292" lon="13.5870887"><ele>240.0</ele><time>2026-05-02T08:51:31.167Z</time></trkpt><trkpt lat="46.1022282" lon="13.5870965"><ele>240.0</ele><time>2026-05-02T08:51:32.139Z</time></trkpt><trkpt lat="46.1021268" lon="13.5871486"><ele>240.0</ele><time>2026-05-02T08:51:33.151Z</time></trkpt><trkpt lat="46.1020599" lon="13.5872842"><ele>240.0</ele><time>2026-05-02T08:51:34.169Z</time></trkpt><trkpt lat="46.1019968" lon="13.5874472"><ele>240.0</ele><time>2026-05-02T08:51:35.149Z</time></trkpt><trkpt lat="46.1019243" lon="13.5876007"><ele>240.0</ele><time>2026-05-02T08:51:36.176Z</time></trkpt><trkpt lat="46.1018576" lon="13.5877454"><ele>240.0</ele><time>2026-05-02T08:51:37.154Z</time></trkpt><trkpt lat="46.1018023" lon="13.5878932"><ele>239.6</ele><time>2026-05-02T08:51:38.172Z</time></trkpt><trkpt lat="46.1017582" lon="13.5880477"><ele>239.2</ele><time>2026-05-02T08:51:39.168Z</time></trkpt><trkpt lat="46.1017339" lon="13.5881987"><ele>238.8</ele><time>2026-05-02T08:51:40.163Z</time></trkpt><trkpt lat="46.1017206" lon="13.5883345"><ele>238.4</ele><time>2026-05-02T08:51:41.184Z</time></trkpt><trkpt lat="46.1017213" lon="13.5884374"><ele>238.0</ele><time>2026-05-02T08:51:42.174Z</time></trkpt><trkpt lat="46.1017103" lon="13.5885372"><ele>237.99999999999997</ele><time>2026-05-02T08:51:44.175Z</time></trkpt><trkpt lat="46.1017094" lon="13.5886342"><ele>238.0</ele><time>2026-05-02T08:51:46.182Z</time></trkpt><trkpt lat="46.1017631" lon="13.5887941"><ele>238.0</ele><time>2026-05-02T08:51:48.175Z</time></trkpt><trkpt lat="46.1018221" lon="13.58886"><ele>238.0</ele><time>2026-05-02T08:51:49.158Z</time></trkpt><trkpt lat="46.1018873" lon="13.5889284"><ele>237.99999999999997</ele><time>2026-05-02T08:51:50.156Z</time></trkpt><trkpt lat="46.101969" lon="13.5889868"><ele>238.0</ele><time>2026-05-02T08:51:51.183Z</time></trkpt><trkpt lat="46.1020686" lon="13.5890646"><ele>237.0</ele><time>2026-05-02T08:51:52.176Z</time></trkpt><trkpt lat="46.1021802" lon="13.5891501"><ele>236.0</ele><time>2026-05-02T08:51:53.176Z</time></trkpt><trkpt lat="46.1022904" lon="13.589247"><ele>235.0</ele><time>2026-05-02T08:51:54.162Z</time></trkpt><trkpt lat="46.1024091" lon="13.589357"><ele>234.0</ele><time>2026-05-02T08:51:55.162Z</time></trkpt><trkpt lat="46.1025324" lon="13.5894771"><ele>235.25</ele><time>2026-05-02T08:51:56.156Z</time></trkpt><trkpt lat="46.1026526" lon="13.5895991"><ele>236.5</ele><time>2026-05-02T08:51:57.156Z</time></trkpt><trkpt lat="46.1027775" lon="13.589722"><ele>237.75</ele><time>2026-05-02T08:51:58.151Z</time></trkpt><trkpt lat="46.1028949" lon="13.589854"><ele>239.0</ele><time>2026-05-02T08:51:59.165Z</time></trkpt><trkpt lat="46.1029993" lon="13.5900028"><ele>239.0</ele><time>2026-05-02T08:52:00.164Z</time></trkpt><trkpt lat="46.1031038" lon="13.5901575"><ele>239.0</ele><time>2026-05-02T08:52:01.164Z</time></trkpt><trkpt lat="46.1032055" lon="13.5903162"><ele>239.0</ele><time>2026-05-02T08:52:02.153Z</time></trkpt><trkpt lat="46.1033009" lon="13.5904826"><ele>239.0</ele><time>2026-05-02T08:52:03.163Z</time></trkpt><trkpt lat="46.1033825" lon="13.5906578"><ele>240.0</ele><time>2026-05-02T08:52:04.165Z</time></trkpt><trkpt lat="46.1034586" lon="13.5908379"><ele>241.0</ele><time>2026-05-02T08:52:05.168Z</time></trkpt><trkpt lat="46.1035199" lon="13.5910175"><ele>242.0</ele><time>2026-05-02T08:52:06.154Z</time></trkpt><trkpt lat="46.1035746" lon="13.5912023"><ele>243.0</ele><time>2026-05-02T08:52:07.158Z</time></trkpt><trkpt lat="46.1036275" lon="13.5913932"><ele>243.0</ele><time>2026-05-02T08:52:08.168Z</time></trkpt><trkpt lat="46.1036852" lon="13.5915957"><ele>243.0</ele><time>2026-05-02T08:52:09.157Z</time></trkpt><trkpt lat="46.1037487" lon="13.5917987"><ele>243.0</ele><time>2026-05-02T08:52:10.151Z</time></trkpt><trkpt lat="46.1038197" lon="13.591993"><ele>242.75</ele><time>2026-05-02T08:52:11.187Z</time></trkpt><trkpt lat="46.1038842" lon="13.5921679"><ele>242.5</ele><time>2026-05-02T08:52:12.157Z</time></trkpt><trkpt lat="46.1039731" lon="13.5923295"><ele>242.25</ele><time>2026-05-02T08:52:13.172Z</time></trkpt><trkpt lat="46.104088" lon="13.5924845"><ele>242.0</ele><time>2026-05-02T08:52:14.169Z</time></trkpt><trkpt lat="46.1042127" lon="13.592641"><ele>242.0</ele><time>2026-05-02T08:52:15.165Z</time></trkpt><trkpt lat="46.1043238" lon="13.5928063"><ele>242.0</ele><time>2026-05-02T08:52:16.167Z</time></trkpt><trkpt lat="46.1044278" lon="13.5929915"><ele>242.0</ele><time>2026-05-02T08:52:17.16Z</time></trkpt><trkpt lat="46.1045244" lon="13.5931834"><ele>242.0</ele><time>2026-05-02T08:52:18.159Z</time></trkpt><trkpt lat="46.104619" lon="13.5933697"><ele>242.0</ele><time>2026-05-02T08:52:19.16Z</time></trkpt><trkpt lat="46.1047118" lon="13.593558"><ele>242.0</ele><time>2026-05-02T08:52:20.154Z</time></trkpt><trkpt lat="46.1048158" lon="13.5937349"><ele>244.0</ele><time>2026-05-02T08:52:21.169Z</time></trkpt><trkpt lat="46.1049272" lon="13.5939032"><ele>246.0</ele><time>2026-05-02T08:52:22.164Z</time></trkpt><trkpt lat="46.1050472" lon="13.5940549"><ele>248.0</ele><time>2026-05-02T08:52:23.165Z</time></trkpt><trkpt lat="46.1051525" lon="13.5942036"><ele>248.0</ele><time>2026-05-02T08:52:24.149Z</time></trkpt><trkpt lat="46.1052401" lon="13.5943596"><ele>248.0</ele><time>2026-05-02T08:52:25.162Z</time></trkpt><trkpt lat="46.1053146" lon="13.5945203"><ele>248.0</ele><time>2026-05-02T08:52:26.15Z</time></trkpt><trkpt lat="46.1053829" lon="13.5946979"><ele>248.0</ele><time>2026-05-02T08:52:27.157Z</time></trkpt><trkpt lat="46.1054464" lon="13.5948807"><ele>246.0</ele><time>2026-05-02T08:52:28.171Z</time></trkpt><trkpt lat="46.1055076" lon="13.5950658"><ele>244.0</ele><time>2026-05-02T08:52:29.186Z</time></trkpt><trkpt lat="46.1055577" lon="13.5952533"><ele>242.0</ele><time>2026-05-02T08:52:30.15Z</time></trkpt><trkpt lat="46.1056027" lon="13.5954352"><ele>240.0</ele><time>2026-05-02T08:52:31.157Z</time></trkpt><trkpt lat="46.1056543" lon="13.5956032"><ele>239.5</ele><time>2026-05-02T08:52:32.153Z</time></trkpt><trkpt lat="46.1057254" lon="13.5957496"><ele>239.0</ele><time>2026-05-02T08:52:33.179Z</time></trkpt><trkpt lat="46.1058094" lon="13.595879"><ele>238.5</ele><time>2026-05-02T08:52:34.169Z</time></trkpt><trkpt lat="46.1059125" lon="13.5959808"><ele>238.0</ele><time>2026-05-02T08:52:35.168Z</time></trkpt><trkpt lat="46.1060317" lon="13.596047"><ele>240.75</ele><time>2026-05-02T08:52:36.162Z</time></trkpt><trkpt lat="46.1061624" lon="13.5960574"><ele>243.5</ele><time>2026-05-02T08:52:37.148Z</time></trkpt><trkpt lat="46.1062906" lon="13.5960562"><ele>246.25</ele><time>2026-05-02T08:52:38.167Z</time></trkpt><trkpt lat="46.1064051" lon="13.5960747"><ele>249.0</ele><time>2026-05-02T08:52:39.175Z</time></trkpt><trkpt lat="46.1065083" lon="13.5961181"><ele>251.2</ele><time>2026-05-02T08:52:40.159Z</time></trkpt><trkpt lat="46.1066073" lon="13.5961538"><ele>253.39999999999998</ele><time>2026-05-02T08:52:41.166Z</time></trkpt><trkpt lat="46.1067172" lon="13.5961283"><ele>255.6</ele><time>2026-05-02T08:52:42.162Z</time></trkpt><trkpt lat="46.1068186" lon="13.5960707"><ele>257.8</ele><time>2026-05-02T08:52:43.162Z</time></trkpt><trkpt lat="46.1069202" lon="13.5960298"><ele>260.0</ele><time>2026-05-02T08:52:44.168Z</time></trkpt><trkpt lat="46.1070154" lon="13.596015"><ele>260.0</ele><time>2026-05-02T08:52:45.156Z</time></trkpt><trkpt lat="46.1071075" lon="13.5960381"><ele>260.0</ele><time>2026-05-02T08:52:46.149Z</time></trkpt><trkpt lat="46.1071997" lon="13.5960901"><ele>260.0</ele><time>2026-05-02T08:52:47.159Z</time></trkpt><trkpt lat="46.1072932" lon="13.596173"><ele>260.0</ele><time>2026-05-02T08:52:48.186Z</time></trkpt><trkpt lat="46.1074005" lon="13.5962453"><ele>260.0</ele><time>2026-05-02T08:52:49.157Z</time></trkpt><trkpt lat="46.1075247" lon="13.5963529"><ele>259.0</ele><time>2026-05-02T08:52:50.172Z</time></trkpt><trkpt lat="46.1076625" lon="13.5965213"><ele>258.0</ele><time>2026-05-02T08:52:51.165Z</time></trkpt><trkpt lat="46.1077906" lon="13.5967389"><ele>257.0</ele><time>2026-05-02T08:52:52.163Z</time></trkpt><trkpt lat="46.1079211" lon="13.5969699"><ele>259.6666666666667</ele><time>2026-05-02T08:52:53.146Z</time></trkpt><trkpt lat="46.1080482" lon="13.597117"><ele>262.3333333333333</ele><time>2026-05-02T08:52:54.145Z</time></trkpt><trkpt lat="46.1081894" lon="13.5972265"><ele>265.0</ele><time>2026-05-02T08:52:55.163Z</time></trkpt><trkpt lat="46.1083263" lon="13.5973356"><ele>265.0</ele><time>2026-05-02T08:52:56.163Z</time></trkpt><trkpt lat="46.1084487" lon="13.5974485"><ele>265.0</ele><time>2026-05-02T08:52:57.166Z</time></trkpt><trkpt lat="46.1085543" lon="13.5975716"><ele>265.0</ele><time>2026-05-02T08:52:58.155Z</time></trkpt><trkpt lat="46.1086344" lon="13.5977192"><ele>265.0</ele><time>2026-05-02T08:52:59.173Z</time></trkpt><trkpt lat="46.1086784" lon="13.5979134"><ele>259.0</ele><time>2026-05-02T08:53:00.156Z</time></trkpt><trkpt lat="46.1087137" lon="13.598123"><ele>253.0</ele><time>2026-05-02T08:53:01.154Z</time></trkpt><trkpt lat="46.1087623" lon="13.598334"><ele>247.0</ele><time>2026-05-02T08:53:02.171Z</time></trkpt><trkpt lat="46.1088365" lon="13.5985251"><ele>245.0</ele><time>2026-05-02T08:53:03.168Z</time></trkpt><trkpt lat="46.108931" lon="13.598707"><ele>243.0</ele><time>2026-05-02T08:53:04.18Z</time></trkpt><trkpt lat="46.1090348" lon="13.5988808"><ele>241.0</ele><time>2026-05-02T08:53:05.156Z</time></trkpt><trkpt lat="46.1091397" lon="13.5990511"><ele>245.25</ele><time>2026-05-02T08:53:06.165Z</time></trkpt><trkpt lat="46.1092333" lon="13.5991999"><ele>249.5</ele><time>2026-05-02T08:53:07.176Z</time></trkpt><trkpt lat="46.1093267" lon="13.5993081"><ele>253.75</ele><time>2026-05-02T08:53:08.179Z</time></trkpt><trkpt lat="46.1094225" lon="13.5993641"><ele>258.0</ele><time>2026-05-02T08:53:09.167Z</time></trkpt><trkpt lat="46.1095328" lon="13.5993862"><ele>258.0</ele><time>2026-05-02T08:53:10.169Z</time></trkpt><trkpt lat="46.1096554" lon="13.5993865"><ele>258.0</ele><time>2026-05-02T08:53:11.147Z</time></trkpt><trkpt lat="46.1097913" lon="13.5993808"><ele>258.0</ele><time>2026-05-02T08:53:12.176Z</time></trkpt><trkpt lat="46.1099231" lon="13.5993734"><ele>258.0</ele><time>2026-05-02T08:53:13.162Z</time></trkpt><trkpt lat="46.1100454" lon="13.5993513"><ele>259.8</ele><time>2026-05-02T08:53:14.163Z</time></trkpt><trkpt lat="46.110154" lon="13.5992991"><ele>261.6</ele><time>2026-05-02T08:53:15.162Z</time></trkpt><trkpt lat="46.1102482" lon="13.5992546"><ele>263.4</ele><time>2026-05-02T08:53:16.165Z</time></trkpt><trkpt lat="46.1103513" lon="13.5992155"><ele>265.2</ele><time>2026-05-02T08:53:17.182Z</time></trkpt><trkpt lat="46.1104705" lon="13.5991878"><ele>267.0</ele><time>2026-05-02T08:53:18.173Z</time></trkpt><trkpt lat="46.110594" lon="13.5991644"><ele>267.0</ele><time>2026-05-02T08:53:19.167Z</time></trkpt><trkpt lat="46.1107329" lon="13.5991614"><ele>267.0</ele><time>2026-05-02T08:53:20.159Z</time></trkpt><trkpt lat="46.1108854" lon="13.5992097"><ele>267.0</ele><time>2026-05-02T08:53:21.149Z</time></trkpt><trkpt lat="46.1110374" lon="13.5993"><ele>264.3333333333333</ele><time>2026-05-02T08:53:22.154Z</time></trkpt><trkpt lat="46.1111911" lon="13.5994081"><ele>261.66666666666663</ele><time>2026-05-02T08:53:23.157Z</time></trkpt><trkpt lat="46.1113309" lon="13.5995211"><ele>259.0</ele><time>2026-05-02T08:53:24.156Z</time></trkpt><trkpt lat="46.1114696" lon="13.5996415"><ele>262.25</ele><time>2026-05-02T08:53:25.145Z</time></trkpt><trkpt lat="46.1115981" lon="13.5997606"><ele>265.5</ele><time>2026-05-02T08:53:26.17Z</time></trkpt><trkpt lat="46.1117254" lon="13.5998779"><ele>268.75</ele><time>2026-05-02T08:53:27.146Z</time></trkpt><trkpt lat="46.1118481" lon="13.5999896"><ele>272.0</ele><time>2026-05-02T08:53:28.163Z</time></trkpt><trkpt lat="46.1119692" lon="13.6000932"><ele>272.0</ele><time>2026-05-02T08:53:29.157Z</time></trkpt><trkpt lat="46.1120943" lon="13.600185"><ele>272.0</ele><time>2026-05-02T08:53:30.17Z</time></trkpt><trkpt lat="46.1122199" lon="13.6002527"><ele>272.0</ele><time>2026-05-02T08:53:31.166Z</time></trkpt><trkpt lat="46.1123573" lon="13.6002893"><ele>272.0</ele><time>2026-05-02T08:53:32.169Z</time></trkpt><trkpt lat="46.1124731" lon="13.6003185"><ele>271.0</ele><time>2026-05-02T08:53:33.162Z</time></trkpt><trkpt lat="46.112571" lon="13.6003608"><ele>270.0</ele><time>2026-05-02T08:53:34.188Z</time></trkpt><trkpt lat="46.112641" lon="13.6004459"><ele>269.0</ele><time>2026-05-02T08:53:35.148Z</time></trkpt><trkpt lat="46.1126666" lon="13.6005691"><ele>268.0</ele><time>2026-05-02T08:53:36.165Z</time></trkpt><trkpt lat="46.1126941" lon="13.6007089"><ele>267.0</ele><time>2026-05-02T08:53:37.158Z</time></trkpt><trkpt lat="46.1127511" lon="13.6008404"><ele>267.0</ele><time>2026-05-02T08:53:38.163Z</time></trkpt><trkpt lat="46.1128468" lon="13.6009694"><ele>267.0</ele><time>2026-05-02T08:53:39.16Z</time></trkpt><trkpt lat="46.1129568" lon="13.6010801"><ele>267.0</ele><time>2026-05-02T08:53:40.175Z</time></trkpt><trkpt lat="46.113064" lon="13.6011937"><ele>267.0</ele><time>2026-05-02T08:53:41.161Z</time></trkpt><trkpt lat="46.1131428" lon="13.6013088"><ele>267.6</ele><time>2026-05-02T08:53:42.162Z</time></trkpt><trkpt lat="46.1132062" lon="13.6014372"><ele>268.2</ele><time>2026-05-02T08:53:43.147Z</time></trkpt><trkpt lat="46.1132667" lon="13.6015266"><ele>268.8</ele><time>2026-05-02T08:53:44.151Z</time></trkpt><trkpt lat="46.1133542" lon="13.6015811"><ele>269.4</ele><time>2026-05-02T08:53:45.157Z</time></trkpt><trkpt lat="46.1134467" lon="13.6016205"><ele>270.0</ele><time>2026-05-02T08:53:46.166Z</time></trkpt><trkpt lat="46.1135244" lon="13.6016692"><ele>270.0</ele><time>2026-05-02T08:53:47.158Z</time></trkpt><trkpt lat="46.1135938" lon="13.6017377"><ele>270.0</ele><time>2026-05-02T08:53:48.161Z</time></trkpt><trkpt lat="46.1136616" lon="13.6018602"><ele>270.0</ele><time>2026-05-02T08:53:49.159Z</time></trkpt><trkpt lat="46.113723" lon="13.6020159"><ele>270.0</ele><time>2026-05-02T08:53:50.156Z</time></trkpt><trkpt lat="46.1137903" lon="13.6021857"><ele>268.5</ele><time>2026-05-02T08:53:51.172Z</time></trkpt><trkpt lat="46.1138562" lon="13.6023502"><ele>267.0</ele><time>2026-05-02T08:53:52.163Z</time></trkpt><trkpt lat="46.1139225" lon="13.6025156"><ele>265.5</ele><time>2026-05-02T08:53:53.166Z</time></trkpt><trkpt lat="46.1139781" lon="13.6026607"><ele>264.0</ele><time>2026-05-02T08:53:54.158Z</time></trkpt><trkpt lat="46.1140244" lon="13.6028058"><ele>264.8</ele><time>2026-05-02T08:53:55.155Z</time></trkpt><trkpt lat="46.1140688" lon="13.6029576"><ele>265.59999999999997</ele><time>2026-05-02T08:53:56.153Z</time></trkpt><trkpt lat="46.114097" lon="13.6031045"><ele>266.4</ele><time>2026-05-02T08:53:57.144Z</time></trkpt><trkpt lat="46.114117" lon="13.6032369"><ele>267.2</ele><time>2026-05-02T08:53:58.151Z</time></trkpt><trkpt lat="46.1141356" lon="13.6033572"><ele>268.0</ele><time>2026-05-02T08:53:59.156Z</time></trkpt><trkpt lat="46.114151" lon="13.6034704"><ele>268.0</ele><time>2026-05-02T08:54:00.157Z</time></trkpt><trkpt lat="46.1141714" lon="13.6035729"><ele>268.0</ele><time>2026-05-02T08:54:01.155Z</time></trkpt><trkpt lat="46.1141958" lon="13.6036769"><ele>268.0</ele><time>2026-05-02T08:54:02.148Z</time></trkpt><trkpt lat="46.1142321" lon="13.6037757"><ele>268.0</ele><time>2026-05-02T08:54:03.173Z</time></trkpt><trkpt lat="46.1142835" lon="13.603861"><ele>268.0</ele><time>2026-05-02T08:54:04.16Z</time></trkpt><trkpt lat="46.1143353" lon="13.6039559"><ele>268.0</ele><time>2026-05-02T08:54:05.153Z</time></trkpt><trkpt lat="46.1143856" lon="13.604046"><ele>268.0</ele><time>2026-05-02T08:54:06.166Z</time></trkpt><trkpt lat="46.114422" lon="13.604125"><ele>268.0</ele><time>2026-05-02T08:54:07.153Z</time></trkpt><trkpt lat="46.1144924" lon="13.6042543"><ele>268.0</ele><time>2026-05-02T08:54:09.149Z</time></trkpt><trkpt lat="46.1145963" lon="13.6043599"><ele>268.0</ele><time>2026-05-02T08:54:11.164Z</time></trkpt><trkpt lat="46.1146566" lon="13.6043932"><ele>268.0</ele><time>2026-05-02T08:54:12.158Z</time></trkpt><trkpt lat="46.1147787" lon="13.6044299"><ele>268.0</ele><time>2026-05-02T08:54:14.153Z</time></trkpt><trkpt lat="46.1148762" lon="13.6044217"><ele>268.0</ele><time>2026-05-02T08:54:16.157Z</time></trkpt><trkpt lat="46.1148994" lon="13.6042847"><ele>268.0</ele><time>2026-05-02T08:54:18.147Z</time></trkpt><trkpt lat="46.1148751" lon="13.6041997"><ele>268.0</ele><time>2026-05-02T08:54:19.151Z</time></trkpt><trkpt lat="46.1148382" lon="13.6040158"><ele>268.0</ele><time>2026-05-02T08:54:21.152Z</time></trkpt><trkpt lat="46.1148335" lon="13.6039163"><ele>268.0</ele><time>2026-05-02T08:54:22.156Z</time></trkpt><trkpt lat="46.114835" lon="13.6037396"><ele>268.0</ele><time>2026-05-02T08:54:24.164Z</time></trkpt><trkpt lat="46.114831" lon="13.6035636"><ele>268.0</ele><time>2026-05-02T08:54:26.148Z</time></trkpt><trkpt lat="46.1148214" lon="13.6033887"><ele>268.0</ele><time>2026-05-02T08:54:28.149Z</time></trkpt><trkpt lat="46.114882" lon="13.6033295"><ele>268.0</ele><time>2026-05-02T08:54:30.155Z</time></trkpt><trkpt lat="46.1149737" lon="13.6033522"><ele>271.6</ele><time>2026-05-02T08:54:32.147Z</time></trkpt><trkpt lat="46.1150178" lon="13.6035217"><ele>275.20000000000005</ele><time>2026-05-02T08:54:34.149Z</time></trkpt><trkpt lat="46.1150525" lon="13.6036416"><ele>278.8</ele><time>2026-05-02T08:54:35.14Z</time></trkpt><trkpt lat="46.1150874" lon="13.6037803"><ele>282.40000000000003</ele><time>2026-05-02T08:54:36.169Z</time></trkpt><trkpt lat="46.1151295" lon="13.6039159"><ele>286.0</ele><time>2026-05-02T08:54:37.146Z</time></trkpt><trkpt lat="46.1151733" lon="13.6040481"><ele>286.0</ele><time>2026-05-02T08:54:38.149Z</time></trkpt><trkpt lat="46.1152328" lon="13.6041559"><ele>286.0</ele><time>2026-05-02T08:54:39.145Z</time></trkpt><trkpt lat="46.1152973" lon="13.6042695"><ele>286.0</ele><time>2026-05-02T08:54:40.15Z</time></trkpt><trkpt lat="46.1153789" lon="13.6043701"><ele>286.0</ele><time>2026-05-02T08:54:41.17Z</time></trkpt><trkpt lat="46.1154555" lon="13.6044771"><ele>286.0</ele><time>2026-05-02T08:54:42.179Z</time></trkpt><trkpt lat="46.1155285" lon="13.6045941"><ele>284.40000000000003</ele><time>2026-05-02T08:54:43.171Z</time></trkpt><trkpt lat="46.1156004" lon="13.6047108"><ele>282.8</ele><time>2026-05-02T08:54:44.163Z</time></trkpt><trkpt lat="46.1156638" lon="13.6048113"><ele>281.20000000000005</ele><time>2026-05-02T08:54:45.157Z</time></trkpt><trkpt lat="46.1157157" lon="13.6048959"><ele>279.6</ele><time>2026-05-02T08:54:46.162Z</time></trkpt><trkpt lat="46.1157708" lon="13.6049502"><ele>278.0</ele><time>2026-05-02T08:54:47.154Z</time></trkpt><trkpt lat="46.1158847" lon="13.6049775"><ele>283.6666666666667</ele><time>2026-05-02T08:54:49.155Z</time></trkpt><trkpt lat="46.1159864" lon="13.6048819"><ele>289.33333333333337</ele><time>2026-05-02T08:54:51.149Z</time></trkpt><trkpt lat="46.1160515" lon="13.6048201"><ele>295.0</ele><time>2026-05-02T08:54:52.147Z</time></trkpt><trkpt lat="46.1161104" lon="13.6047645"><ele>300.6666666666667</ele><time>2026-05-02T08:54:53.154Z</time></trkpt><trkpt lat="46.1161851" lon="13.6047328"><ele>306.3333333333333</ele><time>2026-05-02T08:54:54.16Z</time></trkpt><trkpt lat="46.1162691" lon="13.6047071"><ele>312.0</ele><time>2026-05-02T08:54:55.145Z</time></trkpt><trkpt lat="46.1163524" lon="13.6046764"><ele>312.0</ele><time>2026-05-02T08:54:56.154Z</time></trkpt><trkpt lat="46.1164439" lon="13.6046401"><ele>312.0</ele><time>2026-05-02T08:54:57.155Z</time></trkpt><trkpt lat="46.1165352" lon="13.6046167"><ele>312.0</ele><time>2026-05-02T08:54:58.15Z</time></trkpt><trkpt lat="46.1166211" lon="13.6046005"><ele>312.0</ele><time>2026-05-02T08:54:59.162Z</time></trkpt><trkpt lat="46.1166926" lon="13.6046039"><ele>312.0</ele><time>2026-05-02T08:55:00.166Z</time></trkpt><trkpt lat="46.1167935" lon="13.6046782"><ele>315.4</ele><time>2026-05-02T08:55:02.149Z</time></trkpt><trkpt lat="46.1168396" lon="13.604839"><ele>318.79999999999995</ele><time>2026-05-02T08:55:04.147Z</time></trkpt><trkpt lat="46.116821" lon="13.604946"><ele>322.2</ele><time>2026-05-02T08:55:05.154Z</time></trkpt><trkpt lat="46.1167926" lon="13.6050743"><ele>325.59999999999997</ele><time>2026-05-02T08:55:06.139Z</time></trkpt><trkpt lat="46.1167709" lon="13.6051834"><ele>329.0</ele><time>2026-05-02T08:55:07.139Z</time></trkpt><trkpt lat="46.1167644" lon="13.6053021"><ele>328.6666666666667</ele><time>2026-05-02T08:55:08.146Z</time></trkpt><trkpt lat="46.116767" lon="13.6054052"><ele>328.33333333333337</ele><time>2026-05-02T08:55:09.138Z</time></trkpt><trkpt lat="46.1167641" lon="13.6055143"><ele>328.0</ele><time>2026-05-02T08:55:10.144Z</time></trkpt><trkpt lat="46.116768" lon="13.6056309"><ele>327.6666666666667</ele><time>2026-05-02T08:55:11.145Z</time></trkpt><trkpt lat="46.1167883" lon="13.6057409"><ele>327.3333333333333</ele><time>2026-05-02T08:55:12.154Z</time></trkpt><trkpt lat="46.1168257" lon="13.6058328"><ele>327.0</ele><time>2026-05-02T08:55:13.146Z</time></trkpt><trkpt lat="46.1168828" lon="13.6059214"><ele>327.0</ele><time>2026-05-02T08:55:14.157Z</time></trkpt><trkpt lat="46.1169462" lon="13.6060128"><ele>327.0</ele><time>2026-05-02T08:55:15.158Z</time></trkpt><trkpt lat="46.117007" lon="13.6061254"><ele>327.0</ele><time>2026-05-02T08:55:16.154Z</time></trkpt><trkpt lat="46.1170745" lon="13.6062283"><ele>327.0</ele><time>2026-05-02T08:55:17.155Z</time></trkpt><trkpt lat="46.1171179" lon="13.6063506"><ele>327.0</ele><time>2026-05-02T08:55:18.162Z</time></trkpt><trkpt lat="46.1171507" lon="13.6064672"><ele>324.20000000000005</ele><time>2026-05-02T08:55:19.151Z</time></trkpt><trkpt lat="46.1171693" lon="13.6065893"><ele>321.40000000000003</ele><time>2026-05-02T08:55:20.16Z</time></trkpt><trkpt lat="46.1171911" lon="13.6066948"><ele>318.6</ele><time>2026-05-02T08:55:21.159Z</time></trkpt><trkpt lat="46.1172525" lon="13.6068752"><ele>315.8</ele><time>2026-05-02T08:55:23.155Z</time></trkpt><trkpt lat="46.1173081" lon="13.6069923"><ele>313.0</ele><time>2026-05-02T08:55:24.151Z</time></trkpt><trkpt lat="46.1173634" lon="13.607107"><ele>315.5</ele><time>2026-05-02T08:55:25.162Z</time></trkpt><trkpt lat="46.117419" lon="13.6072146"><ele>318.0</ele><time>2026-05-02T08:55:26.152Z</time></trkpt><trkpt lat="46.1174686" lon="13.6073171"><ele>320.5</ele><time>2026-05-02T08:55:27.164Z</time></trkpt><trkpt lat="46.1175237" lon="13.6074089"><ele>323.0</ele><time>2026-05-02T08:55:28.149Z</time></trkpt><trkpt lat="46.1175799" lon="13.6075024"><ele>325.5</ele><time>2026-05-02T08:55:29.144Z</time></trkpt><trkpt lat="46.1176249" lon="13.6076145"><ele>328.0</ele><time>2026-05-02T08:55:30.155Z</time></trkpt><trkpt lat="46.117672" lon="13.6077107"><ele>328.0</ele><time>2026-05-02T08:55:31.145Z</time></trkpt><trkpt lat="46.1177225" lon="13.6078182"><ele>328.0</ele><time>2026-05-02T08:55:32.166Z</time></trkpt><trkpt lat="46.1177769" lon="13.6079225"><ele>328.0</ele><time>2026-05-02T08:55:33.148Z</time></trkpt><trkpt lat="46.1178252" lon="13.6080201"><ele>328.0</ele><time>2026-05-02T08:55:34.15Z</time></trkpt><trkpt lat="46.1178666" lon="13.6081336"><ele>328.0</ele><time>2026-05-02T08:55:35.167Z</time></trkpt><trkpt lat="46.1179057" lon="13.6082591"><ele>328.0</ele><time>2026-05-02T08:55:36.169Z</time></trkpt><trkpt lat="46.1179308" lon="13.6084071"><ele>329.59999999999997</ele><time>2026-05-02T08:55:37.152Z</time></trkpt><trkpt lat="46.1179624" lon="13.6085469"><ele>331.2</ele><time>2026-05-02T08:55:38.146Z</time></trkpt><trkpt lat="46.1179914" lon="13.6087056"><ele>332.8</ele><time>2026-05-02T08:55:39.153Z</time></trkpt><trkpt lat="46.118029" lon="13.6088615"><ele>334.4</ele><time>2026-05-02T08:55:40.152Z</time></trkpt><trkpt lat="46.1180759" lon="13.6090151"><ele>336.0</ele><time>2026-05-02T08:55:41.164Z</time></trkpt><trkpt lat="46.1181158" lon="13.6091731"><ele>336.0</ele><time>2026-05-02T08:55:42.167Z</time></trkpt><trkpt lat="46.1181515" lon="13.6093302"><ele>336.0</ele><time>2026-05-02T08:55:43.152Z</time></trkpt><trkpt lat="46.1181804" lon="13.6094787"><ele>336.0</ele><time>2026-05-02T08:55:44.142Z</time></trkpt><trkpt lat="46.1182067" lon="13.6096062"><ele>336.0</ele><time>2026-05-02T08:55:45.149Z</time></trkpt><trkpt lat="46.1182382" lon="13.6097108"><ele>336.0</ele><time>2026-05-02T08:55:46.158Z</time></trkpt><trkpt lat="46.118298" lon="13.609826"><ele>338.3333333333333</ele><time>2026-05-02T08:55:48.153Z</time></trkpt><trkpt lat="46.1183802" lon="13.6098304"><ele>340.6666666666667</ele><time>2026-05-02T08:55:50.159Z</time></trkpt><trkpt lat="46.1184851" lon="13.6098103"><ele>343.0</ele><time>2026-05-02T08:55:52.167Z</time></trkpt><trkpt lat="46.1185566" lon="13.6097907"><ele>345.33333333333337</ele><time>2026-05-02T08:55:53.156Z</time></trkpt><trkpt lat="46.1186261" lon="13.6097653"><ele>347.6666666666667</ele><time>2026-05-02T08:55:54.164Z</time></trkpt><trkpt lat="46.1187024" lon="13.6097133"><ele>350.0</ele><time>2026-05-02T08:55:55.158Z</time></trkpt><trkpt lat="46.1187844" lon="13.6096317"><ele>350.0</ele><time>2026-05-02T08:55:56.14Z</time></trkpt><trkpt lat="46.1188733" lon="13.6095442"><ele>350.0</ele><time>2026-05-02T08:55:57.147Z</time></trkpt><trkpt lat="46.1189726" lon="13.6094627"><ele>350.0</ele><time>2026-05-02T08:55:58.158Z</time></trkpt><trkpt lat="46.1190645" lon="13.609395"><ele>350.0</ele><time>2026-05-02T08:55:59.153Z</time></trkpt><trkpt lat="46.1191514" lon="13.6093458"><ele>350.0</ele><time>2026-05-02T08:56:00.173Z</time></trkpt><trkpt lat="46.1192295" lon="13.6093088"><ele>351.0</ele><time>2026-05-02T08:56:01.148Z</time></trkpt><trkpt lat="46.1193364" lon="13.6092712"><ele>352.0</ele><time>2026-05-02T08:56:03.134Z</time></trkpt><trkpt lat="46.1194097" lon="13.6093373"><ele>353.0</ele><time>2026-05-02T08:56:06.159Z</time></trkpt><trkpt lat="46.1194156" lon="13.609441"><ele>354.0</ele><time>2026-05-02T08:56:07.143Z</time></trkpt><trkpt lat="46.1194221" lon="13.6095713"><ele>355.0</ele><time>2026-05-02T08:56:08.148Z</time></trkpt><trkpt lat="46.1194365" lon="13.6097015"><ele>355.0</ele><time>2026-05-02T08:56:09.14Z</time></trkpt><trkpt lat="46.1194643" lon="13.6098377"><ele>355.0</ele><time>2026-05-02T08:56:10.154Z</time></trkpt><trkpt lat="46.1194927" lon="13.6099864"><ele>355.0</ele><time>2026-05-02T08:56:11.142Z</time></trkpt><trkpt lat="46.1195156" lon="13.6101319"><ele>355.0</ele><time>2026-05-02T08:56:12.166Z</time></trkpt><trkpt lat="46.1195427" lon="13.6102765"><ele>355.0</ele><time>2026-05-02T08:56:13.146Z</time></trkpt><trkpt lat="46.1195689" lon="13.6104267"><ele>352.66666666666663</ele><time>2026-05-02T08:56:14.146Z</time></trkpt><trkpt lat="46.1196016" lon="13.6105709"><ele>350.3333333333333</ele><time>2026-05-02T08:56:15.158Z</time></trkpt><trkpt lat="46.1196267" lon="13.6107122"><ele>348.0</ele><time>2026-05-02T08:56:16.16Z</time></trkpt><trkpt lat="46.1196544" lon="13.6108313"><ele>345.6666666666667</ele><time>2026-05-02T08:56:17.157Z</time></trkpt><trkpt lat="46.1196906" lon="13.610928"><ele>343.33333333333337</ele><time>2026-05-02T08:56:18.153Z</time></trkpt><trkpt lat="46.1197437" lon="13.6110043"><ele>341.0</ele><time>2026-05-02T08:56:19.147Z</time></trkpt><trkpt lat="46.1198042" lon="13.611069"><ele>341.0</ele><time>2026-05-02T08:56:20.15Z</time></trkpt><trkpt lat="46.1198806" lon="13.6111365"><ele>341.0</ele><time>2026-05-02T08:56:21.159Z</time></trkpt><trkpt lat="46.1199595" lon="13.6112105"><ele>341.0</ele><time>2026-05-02T08:56:22.163Z</time></trkpt><trkpt lat="46.1200374" lon="13.6112876"><ele>341.0</ele><time>2026-05-02T08:56:23.15Z</time></trkpt><trkpt lat="46.1200982" lon="13.6113818"><ele>341.0</ele><time>2026-05-02T08:56:24.163Z</time></trkpt><trkpt lat="46.1201562" lon="13.6114856"><ele>345.1666666666667</ele><time>2026-05-02T08:56:25.154Z</time></trkpt><trkpt lat="46.1202115" lon="13.6115994"><ele>349.33333333333337</ele><time>2026-05-02T08:56:26.161Z</time></trkpt><trkpt lat="46.1202668" lon="13.6117046"><ele>353.5</ele><time>2026-05-02T08:56:27.158Z</time></trkpt><trkpt lat="46.1203242" lon="13.6117824"><ele>357.6666666666667</ele><time>2026-05-02T08:56:28.164Z</time></trkpt><trkpt lat="46.1203867" lon="13.6118326"><ele>361.8333333333333</ele><time>2026-05-02T08:56:29.16Z</time></trkpt><trkpt lat="46.1204474" lon="13.6118936"><ele>366.0</ele><time>2026-05-02T08:56:30.176Z</time></trkpt><trkpt lat="46.1205067" lon="13.611936"><ele>366.0</ele><time>2026-05-02T08:56:31.168Z</time></trkpt><trkpt lat="46.1205701" lon="13.6119489"><ele>366.0</ele><time>2026-05-02T08:56:32.177Z</time></trkpt><trkpt lat="46.1206374" lon="13.6119508"><ele>366.0</ele><time>2026-05-02T08:56:33.155Z</time></trkpt><trkpt lat="46.1207219" lon="13.6119191"><ele>366.0</ele><time>2026-05-02T08:56:34.152Z</time></trkpt><trkpt lat="46.1208141" lon="13.6118873"><ele>366.0</ele><time>2026-05-02T08:56:35.174Z</time></trkpt><trkpt lat="46.1208987" lon="13.6118485"><ele>366.0</ele><time>2026-05-02T08:56:36.168Z</time></trkpt><trkpt lat="46.120987" lon="13.6117979"><ele>372.20000000000005</ele><time>2026-05-02T08:56:37.159Z</time></trkpt><trkpt lat="46.1210742" lon="13.6117342"><ele>378.40000000000003</ele><time>2026-05-02T08:56:38.172Z</time></trkpt><trkpt lat="46.1211617" lon="13.6116571"><ele>384.6</ele><time>2026-05-02T08:56:39.167Z</time></trkpt><trkpt lat="46.1212451" lon="13.6115834"><ele>390.8</ele><time>2026-05-02T08:56:40.156Z</time></trkpt><trkpt lat="46.1213166" lon="13.6115074"><ele>397.0</ele><time>2026-05-02T08:56:41.153Z</time></trkpt><trkpt lat="46.1213762" lon="13.6114483"><ele>397.0</ele><time>2026-05-02T08:56:42.162Z</time></trkpt><trkpt lat="46.1214678" lon="13.6114098"><ele>397.0</ele><time>2026-05-02T08:56:44.155Z</time></trkpt><trkpt lat="46.1215182" lon="13.611566"><ele>397.0</ele><time>2026-05-02T08:56:46.145Z</time></trkpt><trkpt lat="46.1215383" lon="13.6116691"><ele>397.0</ele><time>2026-05-02T08:56:47.148Z</time></trkpt><trkpt lat="46.121573" lon="13.6117879"><ele>397.0</ele><time>2026-05-02T08:56:48.156Z</time></trkpt><trkpt lat="46.1216116" lon="13.6119352"><ele>396.5</ele><time>2026-05-02T08:56:49.149Z</time></trkpt><trkpt lat="46.1216507" lon="13.6120983"><ele>396.0</ele><time>2026-05-02T08:56:50.145Z</time></trkpt><trkpt lat="46.1216798" lon="13.6122623"><ele>395.5</ele><time>2026-05-02T08:56:51.144Z</time></trkpt><trkpt lat="46.1217024" lon="13.6124267"><ele>395.0</ele><time>2026-05-02T08:56:52.136Z</time></trkpt><trkpt lat="46.1217201" lon="13.6125943"><ele>395.0</ele><time>2026-05-02T08:56:53.146Z</time></trkpt><trkpt lat="46.1217393" lon="13.6127431"><ele>395.0</ele><time>2026-05-02T08:56:54.151Z</time></trkpt><trkpt lat="46.1217581" lon="13.6128526"><ele>395.0</ele><time>2026-05-02T08:56:55.163Z</time></trkpt><trkpt lat="46.1217846" lon="13.6129582"><ele>395.0</ele><time>2026-05-02T08:56:57.161Z</time></trkpt><trkpt lat="46.1217819" lon="13.6128251"><ele>395.0</ele><time>2026-05-02T08:57:01.149Z</time></trkpt><trkpt lat="46.121755" lon="13.6126523"><ele>395.0</ele><time>2026-05-02T08:57:03.14Z</time></trkpt><trkpt lat="46.1217616" lon="13.6125247"><ele>395.0</ele><time>2026-05-02T08:57:04.156Z</time></trkpt><trkpt lat="46.1217733" lon="13.6123838"><ele>395.0</ele><time>2026-05-02T08:57:05.149Z</time></trkpt><trkpt lat="46.1217795" lon="13.6122363"><ele>395.0</ele><time>2026-05-02T08:57:06.157Z</time></trkpt><trkpt lat="46.1217914" lon="13.6120958"><ele>395.0</ele><time>2026-05-02T08:57:07.151Z</time></trkpt><trkpt lat="46.1218086" lon="13.6119615"><ele>397.2</ele><time>2026-05-02T08:57:08.161Z</time></trkpt><trkpt lat="46.121825" lon="13.6118203"><ele>399.4</ele><time>2026-05-02T08:57:09.156Z</time></trkpt><trkpt lat="46.1218375" lon="13.611674"><ele>401.6</ele><time>2026-05-02T08:57:10.148Z</time></trkpt><trkpt lat="46.1218455" lon="13.6115281"><ele>403.8</ele><time>2026-05-02T08:57:11.152Z</time></trkpt><trkpt lat="46.1218402" lon="13.6113799"><ele>406.0</ele><time>2026-05-02T08:57:12.162Z</time></trkpt><trkpt lat="46.1218326" lon="13.6112258"><ele>410.0</ele><time>2026-05-02T08:57:13.163Z</time></trkpt><trkpt lat="46.1218178" lon="13.6110794"><ele>414.0</ele><time>2026-05-02T08:57:14.159Z</time></trkpt><trkpt lat="46.1218007" lon="13.6109551"><ele>418.0</ele><time>2026-05-02T08:57:15.14Z</time></trkpt><trkpt lat="46.1217591" lon="13.610846"><ele>422.0</ele><time>2026-05-02T08:57:16.145Z</time></trkpt><trkpt lat="46.121681" lon="13.6107598"><ele>426.0</ele><time>2026-05-02T08:57:18.157Z</time></trkpt><trkpt lat="46.1215579" lon="13.6107677"><ele>426.0</ele><time>2026-05-02T08:57:20.154Z</time></trkpt><trkpt lat="46.1214835" lon="13.6108092"><ele>426.0</ele><time>2026-05-02T08:57:21.165Z</time></trkpt><trkpt lat="46.1213979" lon="13.6108518"><ele>426.0</ele><time>2026-05-02T08:57:22.149Z</time></trkpt><trkpt lat="46.1212996" lon="13.6108994"><ele>426.0</ele><time>2026-05-02T08:57:23.139Z</time></trkpt><trkpt lat="46.1211962" lon="13.6109454"><ele>426.0</ele><time>2026-05-02T08:57:24.151Z</time></trkpt><trkpt lat="46.1210912" lon="13.6109956"><ele>426.0</ele><time>2026-05-02T08:57:25.152Z</time></trkpt><trkpt lat="46.1209955" lon="13.6110476"><ele>426.0</ele><time>2026-05-02T08:57:26.148Z</time></trkpt><trkpt lat="46.1209204" lon="13.611079"><ele>426.0</ele><time>2026-05-02T08:57:27.149Z</time></trkpt><trkpt lat="46.120847" lon="13.6110906"><ele>426.0</ele><time>2026-05-02T08:57:28.141Z</time></trkpt><trkpt lat="46.1207506" lon="13.611001"><ele>426.0</ele><time>2026-05-02T08:57:30.154Z</time></trkpt><trkpt lat="46.1207097" lon="13.6109219"><ele>426.0</ele><time>2026-05-02T08:57:31.152Z</time></trkpt><trkpt lat="46.1206796" lon="13.6108241"><ele>419.6</ele><time>2026-05-02T08:57:32.149Z</time></trkpt><trkpt lat="46.1206453" lon="13.6107129"><ele>413.20000000000005</ele><time>2026-05-02T08:57:33.154Z</time></trkpt><trkpt lat="46.1206068" lon="13.6105836"><ele>406.79999999999995</ele><time>2026-05-02T08:57:34.178Z</time></trkpt><trkpt lat="46.1205651" lon="13.6104442"><ele>400.4</ele><time>2026-05-02T08:57:35.161Z</time></trkpt><trkpt lat="46.1205385" lon="13.6103029"><ele>394.0</ele><time>2026-05-02T08:57:36.176Z</time></trkpt><trkpt lat="46.1205238" lon="13.6101772"><ele>394.0</ele><time>2026-05-02T08:57:37.165Z</time></trkpt><trkpt lat="46.1205224" lon="13.6100586"><ele>394.0</ele><time>2026-05-02T08:57:38.151Z</time></trkpt><trkpt lat="46.1205324" lon="13.6099581"><ele>394.0</ele><time>2026-05-02T08:57:39.16Z</time></trkpt><trkpt lat="46.1205502" lon="13.6098597"><ele>394.0</ele><time>2026-05-02T08:57:40.167Z</time></trkpt><trkpt lat="46.1205676" lon="13.6097695"><ele>394.0</ele><time>2026-05-02T08:57:41.162Z</time></trkpt><trkpt lat="46.1205758" lon="13.6096596"><ele>394.0</ele><time>2026-05-02T08:57:42.154Z</time></trkpt><trkpt lat="46.1205781" lon="13.6095513"><ele>394.0</ele><time>2026-05-02T08:57:43.152Z</time></trkpt><trkpt lat="46.1205843" lon="13.6094472"><ele>396.0</ele><time>2026-05-02T08:57:44.16Z</time></trkpt><trkpt lat="46.1206053" lon="13.6093246"><ele>398.0</ele><time>2026-05-02T08:57:45.158Z</time></trkpt><trkpt lat="46.1206382" lon="13.6091981"><ele>400.0</ele><time>2026-05-02T08:57:46.168Z</time></trkpt><trkpt lat="46.1206749" lon="13.609057"><ele>402.0</ele><time>2026-05-02T08:57:47.158Z</time></trkpt><trkpt lat="46.1206994" lon="13.6089137"><ele>404.0</ele><time>2026-05-02T08:57:48.161Z</time></trkpt><trkpt lat="46.1207123" lon="13.6087686"><ele>406.0</ele><time>2026-05-02T08:57:49.162Z</time></trkpt><trkpt lat="46.1207115" lon="13.6086121"><ele>408.0</ele><time>2026-05-02T08:57:50.159Z</time></trkpt><trkpt lat="46.1207103" lon="13.6084833"><ele>410.0</ele><time>2026-05-02T08:57:51.152Z</time></trkpt><trkpt lat="46.1207207" lon="13.6083716"><ele>412.0</ele><time>2026-05-02T08:57:52.158Z</time></trkpt><trkpt lat="46.1207556" lon="13.6082677"><ele>414.0</ele><time>2026-05-02T08:57:53.155Z</time></trkpt><trkpt lat="46.1208062" lon="13.6081464"><ele>421.0</ele><time>2026-05-02T08:57:54.151Z</time></trkpt><trkpt lat="46.1208633" lon="13.60801"><ele>428.0</ele><time>2026-05-02T08:57:55.159Z</time></trkpt><trkpt lat="46.1209244" lon="13.6078826"><ele>435.0</ele><time>2026-05-02T08:57:56.171Z</time></trkpt><trkpt lat="46.1209713" lon="13.6077601"><ele>442.0</ele><time>2026-05-02T08:57:57.145Z</time></trkpt><trkpt lat="46.1210183" lon="13.6076601"><ele>449.0</ele><time>2026-05-02T08:57:58.165Z</time></trkpt><trkpt lat="46.1210767" lon="13.6075601"><ele>449.0</ele><time>2026-05-02T08:57:59.148Z</time></trkpt><trkpt lat="46.1211623" lon="13.6074552"><ele>449.0</ele><time>2026-05-02T08:58:00.161Z</time></trkpt><trkpt lat="46.1212422" lon="13.6073495"><ele>449.0</ele><time>2026-05-02T08:58:01.152Z</time></trkpt><trkpt lat="46.1213194" lon="13.607252"><ele>449.0</ele><time>2026-05-02T08:58:02.155Z</time></trkpt><trkpt lat="46.1213879" lon="13.6071667"><ele>449.0</ele><time>2026-05-02T08:58:03.137Z</time></trkpt><trkpt lat="46.1214435" lon="13.6070754"><ele>453.6</ele><time>2026-05-02T08:58:04.151Z</time></trkpt><trkpt lat="46.1214786" lon="13.606954"><ele>458.2</ele><time>2026-05-02T08:58:06.149Z</time></trkpt><trkpt lat="46.1214079" lon="13.6069208"><ele>462.80000000000007</ele><time>2026-05-02T08:58:08.15Z</time></trkpt><trkpt lat="46.1212905" lon="13.6068883"><ele>467.40000000000003</ele><time>2026-05-02T08:58:10.147Z</time></trkpt><trkpt lat="46.1212086" lon="13.6068494"><ele>472.0</ele><time>2026-05-02T08:58:11.147Z</time></trkpt><trkpt lat="46.1211158" lon="13.6068032"><ele>472.00000000000006</ele><time>2026-05-02T08:58:12.159Z</time></trkpt><trkpt lat="46.1210221" lon="13.6067619"><ele>472.0</ele><time>2026-05-02T08:58:13.152Z</time></trkpt><trkpt lat="46.1209248" lon="13.6067093"><ele>472.0</ele><time>2026-05-02T08:58:14.147Z</time></trkpt><trkpt lat="46.1208376" lon="13.60667"><ele>472.0</ele><time>2026-05-02T08:58:15.141Z</time></trkpt><trkpt lat="46.1207586" lon="13.6066277"><ele>472.00000000000006</ele><time>2026-05-02T08:58:16.143Z</time></trkpt><trkpt lat="46.1206962" lon="13.60658"><ele>472.0</ele><time>2026-05-02T08:58:17.158Z</time></trkpt><trkpt lat="46.1206339" lon="13.6065285"><ele>473.1666666666667</ele><time>2026-05-02T08:58:18.153Z</time></trkpt><trkpt lat="46.1205836" lon="13.6064545"><ele>474.33333333333337</ele><time>2026-05-02T08:58:19.169Z</time></trkpt><trkpt lat="46.1205471" lon="13.6063685"><ele>475.5</ele><time>2026-05-02T08:58:20.17Z</time></trkpt><trkpt lat="46.1205071" lon="13.6062946"><ele>476.66666666666663</ele><time>2026-05-02T08:58:21.162Z</time></trkpt><trkpt lat="46.1204165" lon="13.6061941"><ele>477.8333333333333</ele><time>2026-05-02T08:58:23.151Z</time></trkpt><trkpt lat="46.1203043" lon="13.6061978"><ele>479.0</ele><time>2026-05-02T08:58:25.149Z</time></trkpt><trkpt lat="46.1202391" lon="13.6062114"><ele>479.0</ele><time>2026-05-02T08:58:26.155Z</time></trkpt><trkpt lat="46.1201504" lon="13.6062406"><ele>479.0</ele><time>2026-05-02T08:58:27.151Z</time></trkpt><trkpt lat="46.1200508" lon="13.6062764"><ele>479.0</ele><time>2026-05-02T08:58:28.158Z</time></trkpt><trkpt lat="46.1199416" lon="13.6063127"><ele>479.0</ele><time>2026-05-02T08:58:29.142Z</time></trkpt><trkpt lat="46.1198311" lon="13.6063585"><ele>479.0</ele><time>2026-05-02T08:58:30.159Z</time></trkpt><trkpt lat="46.1197342" lon="13.6063982"><ele>476.79999999999995</ele><time>2026-05-02T08:58:31.162Z</time></trkpt><trkpt lat="46.1196548" lon="13.6064416"><ele>474.59999999999997</ele><time>2026-05-02T08:58:32.16Z</time></trkpt><trkpt lat="46.1195422" lon="13.6064818"><ele>472.4</ele><time>2026-05-02T08:58:34.177Z</time></trkpt><trkpt lat="46.1194597" lon="13.6064456"><ele>470.2</ele><time>2026-05-02T08:58:36.171Z</time></trkpt><trkpt lat="46.1194848" lon="13.6062982"><ele>468.0</ele><time>2026-05-02T08:58:38.151Z</time></trkpt><trkpt lat="46.1195094" lon="13.606202"><ele>468.5</ele><time>2026-05-02T08:58:39.149Z</time></trkpt><trkpt lat="46.1195319" lon="13.6060965"><ele>469.0</ele><time>2026-05-02T08:58:40.178Z</time></trkpt><trkpt lat="46.1195537" lon="13.6059839"><ele>469.5</ele><time>2026-05-02T08:58:41.191Z</time></trkpt><trkpt lat="46.1195742" lon="13.6058708"><ele>470.0</ele><time>2026-05-02T08:58:42.195Z</time></trkpt><trkpt lat="46.1196002" lon="13.605753"><ele>470.5</ele><time>2026-05-02T08:58:43.166Z</time></trkpt><trkpt lat="46.1196386" lon="13.6056288"><ele>471.0</ele><time>2026-05-02T08:58:44.17Z</time></trkpt><trkpt lat="46.1196846" lon="13.6055068"><ele>471.0</ele><time>2026-05-02T08:58:45.168Z</time></trkpt><trkpt lat="46.1197375" lon="13.6053979"><ele>471.0</ele><time>2026-05-02T08:58:46.177Z</time></trkpt><trkpt lat="46.1197944" lon="13.6053123"><ele>471.0</ele><time>2026-05-02T08:58:47.179Z</time></trkpt><trkpt lat="46.1198528" lon="13.6052421"><ele>471.0</ele><time>2026-05-02T08:58:48.169Z</time></trkpt><trkpt lat="46.1199248" lon="13.6051819"><ele>471.0</ele><time>2026-05-02T08:58:49.161Z</time></trkpt><trkpt lat="46.12" lon="13.605124"><ele>471.0</ele><time>2026-05-02T08:58:50.166Z</time></trkpt><trkpt lat="46.1200711" lon="13.6050589"><ele>475.6666666666667</ele><time>2026-05-02T08:58:51.172Z</time></trkpt><trkpt lat="46.1201432" lon="13.6050001"><ele>480.33333333333337</ele><time>2026-05-02T08:58:52.185Z</time></trkpt><trkpt lat="46.1202114" lon="13.6049427"><ele>485.0</ele><time>2026-05-02T08:58:53.174Z</time></trkpt><trkpt lat="46.1202807" lon="13.6048827"><ele>489.6666666666667</ele><time>2026-05-02T08:58:54.18Z</time></trkpt><trkpt lat="46.1203428" lon="13.6048277"><ele>494.33333333333337</ele><time>2026-05-02T08:58:55.169Z</time></trkpt><trkpt lat="46.1204083" lon="13.604798"><ele>499.0</ele><time>2026-05-02T08:58:56.167Z</time></trkpt><trkpt lat="46.1204757" lon="13.604795"><ele>499.0</ele><time>2026-05-02T08:58:57.167Z</time></trkpt><trkpt lat="46.120539" lon="13.6047842"><ele>499.0</ele><time>2026-05-02T08:58:58.166Z</time></trkpt><trkpt lat="46.1206545" lon="13.6047645"><ele>499.0</ele><time>2026-05-02T08:59:00.161Z</time></trkpt><trkpt lat="46.1207649" lon="13.6047079"><ele>499.0</ele><time>2026-05-02T08:59:02.175Z</time></trkpt><trkpt lat="46.1208471" lon="13.6046343"><ele>499.0</ele><time>2026-05-02T08:59:04.165Z</time></trkpt><trkpt lat="46.1209353" lon="13.6045943"><ele>498.79999999999995</ele><time>2026-05-02T08:59:06.153Z</time></trkpt><trkpt lat="46.1210083" lon="13.6045545"><ele>498.59999999999997</ele><time>2026-05-02T08:59:08.164Z</time></trkpt><trkpt lat="46.1209648" lon="13.6044513"><ele>498.4</ele><time>2026-05-02T08:59:11.155Z</time></trkpt><trkpt lat="46.1208981" lon="13.6044054"><ele>498.2</ele><time>2026-05-02T08:59:13.157Z</time></trkpt><trkpt lat="46.1208004" lon="13.604384"><ele>498.0</ele><time>2026-05-02T08:59:15.167Z</time></trkpt><trkpt lat="46.1207003" lon="13.6043001"><ele>498.0</ele><time>2026-05-02T08:59:17.16Z</time></trkpt><trkpt lat="46.1206441" lon="13.6042333"><ele>498.0</ele><time>2026-05-02T08:59:18.159Z</time></trkpt><trkpt lat="46.1205999" lon="13.6041302"><ele>498.0</ele><time>2026-05-02T08:59:19.162Z</time></trkpt><trkpt lat="46.1205726" lon="13.6040014"><ele>498.0</ele><time>2026-05-02T08:59:20.167Z</time></trkpt><trkpt lat="46.1205469" lon="13.6038927"><ele>498.0</ele><time>2026-05-02T08:59:21.15Z</time></trkpt><trkpt lat="46.1205275" lon="13.6037846"><ele>498.0</ele><time>2026-05-02T08:59:22.166Z</time></trkpt><trkpt lat="46.1205162" lon="13.6036833"><ele>499.6666666666667</ele><time>2026-05-02T08:59:23.154Z</time></trkpt><trkpt lat="46.120519" lon="13.6035896"><ele>501.33333333333337</ele><time>2026-05-02T08:59:24.154Z</time></trkpt><trkpt lat="46.1205322" lon="13.6034335"><ele>503.0</ele><time>2026-05-02T08:59:26.159Z</time></trkpt><trkpt lat="46.1205626" lon="13.6032683"><ele>504.6666666666667</ele><time>2026-05-02T08:59:28.159Z</time></trkpt><trkpt lat="46.120582" lon="13.6031737"><ele>506.33333333333337</ele><time>2026-05-02T08:59:29.159Z</time></trkpt><trkpt lat="46.1205976" lon="13.6030753"><ele>508.0</ele><time>2026-05-02T08:59:30.165Z</time></trkpt><trkpt lat="46.1206197" lon="13.6029684"><ele>508.00000000000006</ele><time>2026-05-02T08:59:31.156Z</time></trkpt><trkpt lat="46.1206476" lon="13.6028661"><ele>508.0</ele><time>2026-05-02T08:59:32.158Z</time></trkpt><trkpt lat="46.1206881" lon="13.602769"><ele>508.0</ele><time>2026-05-02T08:59:33.147Z</time></trkpt><trkpt lat="46.1207332" lon="13.6026788"><ele>508.0</ele><time>2026-05-02T08:59:34.156Z</time></trkpt><trkpt lat="46.1207775" lon="13.6025903"><ele>508.00000000000006</ele><time>2026-05-02T08:59:35.149Z</time></trkpt><trkpt lat="46.1208162" lon="13.6025042"><ele>508.0</ele><time>2026-05-02T08:59:36.147Z</time></trkpt><trkpt lat="46.1208524" lon="13.6023364"><ele>517.3333333333334</ele><time>2026-05-02T08:59:38.155Z</time></trkpt><trkpt lat="46.1208576" lon="13.6022311"><ele>526.6666666666667</ele><time>2026-05-02T08:59:39.158Z</time></trkpt><trkpt lat="46.1208546" lon="13.6021194"><ele>536.0</ele><time>2026-05-02T08:59:40.162Z</time></trkpt><trkpt lat="46.1208515" lon="13.6019993"><ele>545.3333333333334</ele><time>2026-05-02T08:59:41.153Z</time></trkpt><trkpt lat="46.1208488" lon="13.6018582"><ele>554.6666666666666</ele><time>2026-05-02T08:59:42.166Z</time></trkpt><trkpt lat="46.1208499" lon="13.6017207"><ele>564.0</ele><time>2026-05-02T08:59:43.155Z</time></trkpt><trkpt lat="46.1208633" lon="13.6015961"><ele>564.4</ele><time>2026-05-02T08:59:44.147Z</time></trkpt><trkpt lat="46.1208896" lon="13.6014597"><ele>564.8</ele><time>2026-05-02T08:59:45.161Z</time></trkpt><trkpt lat="46.1209169" lon="13.6013113"><ele>565.2</ele><time>2026-05-02T08:59:46.152Z</time></trkpt><trkpt lat="46.1209383" lon="13.6011611"><ele>565.6</ele><time>2026-05-02T08:59:47.158Z</time></trkpt><trkpt lat="46.1209572" lon="13.601023"><ele>566.0</ele><time>2026-05-02T08:59:48.165Z</time></trkpt><trkpt lat="46.1209718" lon="13.6008859"><ele>566.0</ele><time>2026-05-02T08:59:49.157Z</time></trkpt><trkpt lat="46.1209924" lon="13.6007435"><ele>566.0</ele><time>2026-05-02T08:59:50.174Z</time></trkpt><trkpt lat="46.1210034" lon="13.6005794"><ele>566.0</ele><time>2026-05-02T08:59:51.155Z</time></trkpt><trkpt lat="46.1210219" lon="13.600403"><ele>566.0</ele><time>2026-05-02T08:59:52.148Z</time></trkpt><trkpt lat="46.1210338" lon="13.6002407"><ele>566.0</ele><time>2026-05-02T08:59:53.153Z</time></trkpt><trkpt lat="46.1210382" lon="13.6001033"><ele>566.0</ele><time>2026-05-02T08:59:54.145Z</time></trkpt><trkpt lat="46.1210418" lon="13.5999982"><ele>566.0</ele><time>2026-05-02T08:59:55.156Z</time></trkpt><trkpt lat="46.1210582" lon="13.5999018"><ele>566.0</ele><time>2026-05-02T08:59:56.154Z</time></trkpt><trkpt lat="46.1211304" lon="13.5997671"><ele>566.0</ele><time>2026-05-02T08:59:58.166Z</time></trkpt><trkpt lat="46.1212318" lon="13.5997298"><ele>566.0</ele><time>2026-05-02T09:00:00.161Z</time></trkpt><trkpt lat="46.1213095" lon="13.5997678"><ele>566.0</ele><time>2026-05-02T09:00:02.157Z</time></trkpt><trkpt lat="46.1214269" lon="13.5998624"><ele>566.0</ele><time>2026-05-02T09:00:04.166Z</time></trkpt><trkpt lat="46.1215103" lon="13.5999264"><ele>566.0</ele><time>2026-05-02T09:00:05.148Z</time></trkpt><trkpt lat="46.1215844" lon="13.5999764"><ele>566.0</ele><time>2026-05-02T09:00:06.175Z</time></trkpt><trkpt lat="46.1216395" lon="13.6000308"><ele>569.4</ele><time>2026-05-02T09:00:07.153Z</time></trkpt><trkpt lat="46.1217086" lon="13.6001681"><ele>572.8</ele><time>2026-05-02T09:00:09.16Z</time></trkpt><trkpt lat="46.1217146" lon="13.6002759"><ele>576.1999999999999</ele><time>2026-05-02T09:00:10.165Z</time></trkpt><trkpt lat="46.1216981" lon="13.6004075"><ele>579.6</ele><time>2026-05-02T09:00:11.151Z</time></trkpt><trkpt lat="46.1216801" lon="13.6005364"><ele>583.0</ele><time>2026-05-02T09:00:12.152Z</time></trkpt><trkpt lat="46.1216538" lon="13.600669"><ele>583.6666666666667</ele><time>2026-05-02T09:00:13.152Z</time></trkpt><trkpt lat="46.1216246" lon="13.6008108"><ele>584.3333333333334</ele><time>2026-05-02T09:00:14.162Z</time></trkpt><trkpt lat="46.1216011" lon="13.6009394"><ele>585.0</ele><time>2026-05-02T09:00:15.152Z</time></trkpt><trkpt lat="46.1215825" lon="13.6010594"><ele>585.6666666666666</ele><time>2026-05-02T09:00:16.168Z</time></trkpt><trkpt lat="46.1215722" lon="13.6011597"><ele>586.3333333333333</ele><time>2026-05-02T09:00:17.159Z</time></trkpt><trkpt lat="46.1215682" lon="13.6012681"><ele>587.0</ele><time>2026-05-02T09:00:18.153Z</time></trkpt><trkpt lat="46.1215776" lon="13.6013659"><ele>587.0</ele><time>2026-05-02T09:00:19.16Z</time></trkpt><trkpt lat="46.1216401" lon="13.6015442"><ele>587.0</ele><time>2026-05-02T09:00:21.158Z</time></trkpt><trkpt lat="46.1216918" lon="13.6016459"><ele>587.0</ele><time>2026-05-02T09:00:22.157Z</time></trkpt><trkpt lat="46.1217457" lon="13.6017651"><ele>587.0</ele><time>2026-05-02T09:00:23.161Z</time></trkpt><trkpt lat="46.1218113" lon="13.6018952"><ele>587.0</ele><time>2026-05-02T09:00:24.165Z</time></trkpt><trkpt lat="46.1218941" lon="13.6020124"><ele>588.5</ele><time>2026-05-02T09:00:25.139Z</time></trkpt><trkpt lat="46.1220137" lon="13.6021039"><ele>590.0</ele><time>2026-05-02T09:00:26.155Z</time></trkpt><trkpt lat="46.1221419" lon="13.6021375"><ele>591.5</ele><time>2026-05-02T09:00:27.142Z</time></trkpt><trkpt lat="46.1222679" lon="13.6021317"><ele>593.0</ele><time>2026-05-02T09:00:28.158Z</time></trkpt><trkpt lat="46.1223942" lon="13.602091"><ele>594.0</ele><time>2026-05-02T09:00:29.15Z</time></trkpt><trkpt lat="46.1225136" lon="13.6020808"><ele>595.0</ele><time>2026-05-02T09:00:30.156Z</time></trkpt><trkpt lat="46.1226198" lon="13.6021412"><ele>596.0</ele><time>2026-05-02T09:00:31.155Z</time></trkpt><trkpt lat="46.1227339" lon="13.6022579"><ele>597.0</ele><time>2026-05-02T09:00:32.15Z</time></trkpt><trkpt lat="46.1228529" lon="13.602377"><ele>597.0</ele><time>2026-05-02T09:00:33.139Z</time></trkpt><trkpt lat="46.1229546" lon="13.6025051"><ele>597.0</ele><time>2026-05-02T09:00:34.147Z</time></trkpt><trkpt lat="46.1230397" lon="13.602615"><ele>597.0</ele><time>2026-05-02T09:00:35.149Z</time></trkpt><trkpt lat="46.1231243" lon="13.602719"><ele>597.0</ele><time>2026-05-02T09:00:36.147Z</time></trkpt><trkpt lat="46.12322" lon="13.6028016"><ele>594.75</ele><time>2026-05-02T09:00:37.146Z</time></trkpt><trkpt lat="46.1233395" lon="13.6028217"><ele>592.5</ele><time>2026-05-02T09:00:38.142Z</time></trkpt><trkpt lat="46.1234649" lon="13.6028161"><ele>590.25</ele><time>2026-05-02T09:00:39.152Z</time></trkpt><trkpt lat="46.1235803" lon="13.6027776"><ele>588.0</ele><time>2026-05-02T09:00:40.156Z</time></trkpt><trkpt lat="46.1236891" lon="13.6027079"><ele>588.0</ele><time>2026-05-02T09:00:41.143Z</time></trkpt><trkpt lat="46.1237979" lon="13.6026545"><ele>588.0</ele><time>2026-05-02T09:00:42.174Z</time></trkpt><trkpt lat="46.1239133" lon="13.6026403"><ele>588.0</ele><time>2026-05-02T09:00:43.158Z</time></trkpt><trkpt lat="46.1240241" lon="13.6026511"><ele>588.0</ele><time>2026-05-02T09:00:44.15Z</time></trkpt><trkpt lat="46.1241308" lon="13.6026573"><ele>588.0</ele><time>2026-05-02T09:00:45.158Z</time></trkpt><trkpt lat="46.1242255" lon="13.6026024"><ele>588.75</ele><time>2026-05-02T09:00:46.161Z</time></trkpt><trkpt lat="46.1243097" lon="13.6024902"><ele>589.5</ele><time>2026-05-02T09:00:47.154Z</time></trkpt><trkpt lat="46.1243764" lon="13.6023245"><ele>590.25</ele><time>2026-05-02T09:00:48.173Z</time></trkpt><trkpt lat="46.1244214" lon="13.6021465"><ele>591.0</ele><time>2026-05-02T09:00:49.146Z</time></trkpt><trkpt lat="46.1244699" lon="13.6019795"><ele>591.0</ele><time>2026-05-02T09:00:50.158Z</time></trkpt><trkpt lat="46.124533" lon="13.6018423"><ele>591.0</ele><time>2026-05-02T09:00:51.16Z</time></trkpt><trkpt lat="46.1246181" lon="13.6017597"><ele>591.0</ele><time>2026-05-02T09:00:52.174Z</time></trkpt><trkpt lat="46.1246962" lon="13.6017696"><ele>591.0</ele><time>2026-05-02T09:00:53.159Z</time></trkpt><trkpt lat="46.1247888" lon="13.6018684"><ele>591.0</ele><time>2026-05-02T09:00:54.16Z</time></trkpt><trkpt lat="46.1248746" lon="13.6020008"><ele>590.0</ele><time>2026-05-02T09:00:55.16Z</time></trkpt><trkpt lat="46.1249703" lon="13.6021426"><ele>589.0</ele><time>2026-05-02T09:00:56.161Z</time></trkpt><trkpt lat="46.1250617" lon="13.6022722"><ele>588.0</ele><time>2026-05-02T09:00:57.154Z</time></trkpt><trkpt lat="46.1251301" lon="13.6024012"><ele>587.0</ele><time>2026-05-02T09:00:58.154Z</time></trkpt><trkpt lat="46.1251538" lon="13.6025336"><ele>587.0</ele><time>2026-05-02T09:00:59.174Z</time></trkpt><trkpt lat="46.1251459" lon="13.602689"><ele>587.0</ele><time>2026-05-02T09:01:00.164Z</time></trkpt><trkpt lat="46.1250972" lon="13.6028517"><ele>587.0</ele><time>2026-05-02T09:01:01.148Z</time></trkpt><trkpt lat="46.1250436" lon="13.6030093"><ele>587.0</ele><time>2026-05-02T09:01:02.185Z</time></trkpt><trkpt lat="46.1250024" lon="13.603183"><ele>586.75</ele><time>2026-05-02T09:01:03.166Z</time></trkpt><trkpt lat="46.1249737" lon="13.6033757"><ele>586.5</ele><time>2026-05-02T09:01:04.172Z</time></trkpt><trkpt lat="46.124966" lon="13.6035675"><ele>586.25</ele><time>2026-05-02T09:01:05.173Z</time></trkpt><trkpt lat="46.1249804" lon="13.6037288"><ele>586.0</ele><time>2026-05-02T09:01:06.153Z</time></trkpt><trkpt lat="46.1250322" lon="13.6038708"><ele>587.6</ele><time>2026-05-02T09:01:07.153Z</time></trkpt><trkpt lat="46.125125" lon="13.6039762"><ele>589.2</ele><time>2026-05-02T09:01:08.155Z</time></trkpt><trkpt lat="46.1252337" lon="13.6040796"><ele>590.8</ele><time>2026-05-02T09:01:09.137Z</time></trkpt><trkpt lat="46.1253063" lon="13.6041845"><ele>592.4</ele><time>2026-05-02T09:01:10.165Z</time></trkpt><trkpt lat="46.1253575" lon="13.6043057"><ele>594.0</ele><time>2026-05-02T09:01:11.15Z</time></trkpt><trkpt lat="46.125439" lon="13.6043793"><ele>594.0</ele><time>2026-05-02T09:01:12.16Z</time></trkpt><trkpt lat="46.1255316" lon="13.6044279"><ele>594.0</ele><time>2026-05-02T09:01:13.157Z</time></trkpt><trkpt lat="46.1256206" lon="13.604462"><ele>594.0</ele><time>2026-05-02T09:01:14.165Z</time></trkpt><trkpt lat="46.1256977" lon="13.604472"><ele>594.0</ele><time>2026-05-02T09:01:15.167Z</time></trkpt><trkpt lat="46.1257745" lon="13.6044217"><ele>594.0</ele><time>2026-05-02T09:01:17.147Z</time></trkpt><trkpt lat="46.1257168" lon="13.6043201"><ele>594.0</ele><time>2026-05-02T09:01:19.155Z</time></trkpt><trkpt lat="46.1256545" lon="13.6042816"><ele>594.0</ele><time>2026-05-02T09:01:20.142Z</time></trkpt><trkpt lat="46.1255798" lon="13.6042327"><ele>594.0</ele><time>2026-05-02T09:01:21.15Z</time></trkpt><trkpt lat="46.1255023" lon="13.604185"><ele>594.0</ele><time>2026-05-02T09:01:22.153Z</time></trkpt><trkpt lat="46.1254265" lon="13.604119"><ele>594.0</ele><time>2026-05-02T09:01:23.158Z</time></trkpt><trkpt lat="46.1253621" lon="13.6040325"><ele>594.0</ele><time>2026-05-02T09:01:24.156Z</time></trkpt><trkpt lat="46.1253125" lon="13.6039273"><ele>594.0</ele><time>2026-05-02T09:01:25.148Z</time></trkpt><trkpt lat="46.125278" lon="13.6038208"><ele>594.0</ele><time>2026-05-02T09:01:26.149Z</time></trkpt><trkpt lat="46.125249" lon="13.6037113"><ele>594.0</ele><time>2026-05-02T09:01:27.151Z</time></trkpt><trkpt lat="46.1252286" lon="13.6035902"><ele>594.0</ele><time>2026-05-02T09:01:28.155Z</time></trkpt><trkpt lat="46.1252256" lon="13.603472"><ele>594.0</ele><time>2026-05-02T09:01:29.162Z</time></trkpt><trkpt lat="46.125247" lon="13.6033596"><ele>594.0</ele><time>2026-05-02T09:01:30.159Z</time></trkpt><trkpt lat="46.125295" lon="13.6032573"><ele>594.0</ele><time>2026-05-02T09:01:31.15Z</time></trkpt><trkpt lat="46.1253454" lon="13.6031807"><ele>592.8333333333334</ele><time>2026-05-02T09:01:32.163Z</time></trkpt><trkpt lat="46.1254026" lon="13.6031115"><ele>591.6666666666666</ele><time>2026-05-02T09:01:33.149Z</time></trkpt><trkpt lat="46.1254553" lon="13.6030367"><ele>590.5</ele><time>2026-05-02T09:01:34.149Z</time></trkpt><trkpt lat="46.1255127" lon="13.6029425"><ele>589.3333333333333</ele><time>2026-05-02T09:01:35.155Z</time></trkpt><trkpt lat="46.1255631" lon="13.602817"><ele>588.1666666666666</ele><time>2026-05-02T09:01:36.161Z</time></trkpt><trkpt lat="46.1255904" lon="13.6026674"><ele>587.0</ele><time>2026-05-02T09:01:37.148Z</time></trkpt><trkpt lat="46.1255998" lon="13.6025196"><ele>587.0</ele><time>2026-05-02T09:01:38.152Z</time></trkpt><trkpt lat="46.1256266" lon="13.6023706"><ele>587.0</ele><time>2026-05-02T09:01:39.169Z</time></trkpt><trkpt lat="46.1256638" lon="13.6022374"><ele>587.0</ele><time>2026-05-02T09:01:40.169Z</time></trkpt><trkpt lat="46.1257028" lon="13.6020978"><ele>587.0</ele><time>2026-05-02T09:01:41.162Z</time></trkpt><trkpt lat="46.1257343" lon="13.6019725"><ele>587.0</ele><time>2026-05-02T09:01:42.142Z</time></trkpt><trkpt lat="46.1257567" lon="13.6018577"><ele>585.6</ele><time>2026-05-02T09:01:43.151Z</time></trkpt><trkpt lat="46.1257428" lon="13.6017533"><ele>584.2</ele><time>2026-05-02T09:01:44.16Z</time></trkpt><trkpt lat="46.1256761" lon="13.6016589"><ele>582.8</ele><time>2026-05-02T09:01:45.15Z</time></trkpt><trkpt lat="46.1255939" lon="13.6015769"><ele>581.4</ele><time>2026-05-02T09:01:46.163Z</time></trkpt><trkpt lat="46.125516" lon="13.6014993"><ele>580.0</ele><time>2026-05-02T09:01:47.152Z</time></trkpt><trkpt lat="46.1254435" lon="13.6014003"><ele>580.0</ele><time>2026-05-02T09:01:48.162Z</time></trkpt><trkpt lat="46.1254129" lon="13.601259"><ele>580.0</ele><time>2026-05-02T09:01:49.15Z</time></trkpt><trkpt lat="46.1254268" lon="13.6011072"><ele>580.0</ele><time>2026-05-02T09:01:50.157Z</time></trkpt><trkpt lat="46.1254708" lon="13.6009434"><ele>580.0</ele><time>2026-05-02T09:01:51.144Z</time></trkpt><trkpt lat="46.1255419" lon="13.6007845"><ele>575.5</ele><time>2026-05-02T09:01:52.147Z</time></trkpt><trkpt lat="46.1256309" lon="13.6006172"><ele>571.0</ele><time>2026-05-02T09:01:53.153Z</time></trkpt><trkpt lat="46.1257188" lon="13.6004507"><ele>566.5</ele><time>2026-05-02T09:01:54.156Z</time></trkpt><trkpt lat="46.1257998" lon="13.6002808"><ele>562.0</ele><time>2026-05-02T09:01:55.147Z</time></trkpt><trkpt lat="46.1258535" lon="13.6001074"><ele>559.4</ele><time>2026-05-02T09:01:56.16Z</time></trkpt><trkpt lat="46.1258706" lon="13.5999611"><ele>556.8000000000001</ele><time>2026-05-02T09:01:57.154Z</time></trkpt><trkpt lat="46.1258557" lon="13.599828"><ele>554.2</ele><time>2026-05-02T09:01:58.165Z</time></trkpt><trkpt lat="46.1257914" lon="13.5997109"><ele>551.6</ele><time>2026-05-02T09:01:59.153Z</time></trkpt><trkpt lat="46.1257015" lon="13.5996292"><ele>549.0</ele><time>2026-05-02T09:02:00.153Z</time></trkpt><trkpt lat="46.1256134" lon="13.5995369"><ele>546.25</ele><time>2026-05-02T09:02:01.158Z</time></trkpt><trkpt lat="46.1255718" lon="13.5993883"><ele>543.5</ele><time>2026-05-02T09:02:02.144Z</time></trkpt><trkpt lat="46.1255835" lon="13.5991945"><ele>540.75</ele><time>2026-05-02T09:02:03.147Z</time></trkpt><trkpt lat="46.125607" lon="13.5989916"><ele>538.0</ele><time>2026-05-02T09:02:04.143Z</time></trkpt><trkpt lat="46.125637" lon="13.5987909"><ele>535.3333333333334</ele><time>2026-05-02T09:02:05.151Z</time></trkpt><trkpt lat="46.1256605" lon="13.5985674"><ele>532.6666666666666</ele><time>2026-05-02T09:02:06.159Z</time></trkpt><trkpt lat="46.1256787" lon="13.598321"><ele>530.0</ele><time>2026-05-02T09:02:07.153Z</time></trkpt><trkpt lat="46.1256925" lon="13.5980717"><ele>527.0</ele><time>2026-05-02T09:02:08.147Z</time></trkpt><trkpt lat="46.1257067" lon="13.5978228"><ele>524.0</ele><time>2026-05-02T09:02:09.137Z</time></trkpt><trkpt lat="46.1257173" lon="13.5975637"><ele>521.0</ele><time>2026-05-02T09:02:10.149Z</time></trkpt><trkpt lat="46.1257367" lon="13.5973074"><ele>521.0</ele><time>2026-05-02T09:02:11.149Z</time></trkpt><trkpt lat="46.1257629" lon="13.5970445"><ele>521.0</ele><time>2026-05-02T09:02:12.162Z</time></trkpt><trkpt lat="46.1257952" lon="13.5968059"><ele>521.0</ele><time>2026-05-02T09:02:13.164Z</time></trkpt><trkpt lat="46.1258318" lon="13.5965813"><ele>521.0</ele><time>2026-05-02T09:02:14.157Z</time></trkpt><trkpt lat="46.1258702" lon="13.596371"><ele>521.0</ele><time>2026-05-02T09:02:15.144Z</time></trkpt><trkpt lat="46.1259157" lon="13.596176"><ele>521.0</ele><time>2026-05-02T09:02:16.163Z</time></trkpt><trkpt lat="46.1259646" lon="13.5959978"><ele>521.0</ele><time>2026-05-02T09:02:17.171Z</time></trkpt><trkpt lat="46.1260224" lon="13.595829"><ele>521.2</ele><time>2026-05-02T09:02:18.204Z</time></trkpt><trkpt lat="46.1260759" lon="13.5956662"><ele>521.4000000000001</ele><time>2026-05-02T09:02:19.171Z</time></trkpt><trkpt lat="46.1261192" lon="13.595524"><ele>521.6</ele><time>2026-05-02T09:02:20.162Z</time></trkpt><trkpt lat="46.1261506" lon="13.5954127"><ele>521.8000000000001</ele><time>2026-05-02T09:02:21.167Z</time></trkpt><trkpt lat="46.126172" lon="13.5953191"><ele>522.0</ele><time>2026-05-02T09:02:22.156Z</time></trkpt><trkpt lat="46.1262124" lon="13.5952361"><ele>522.0</ele><time>2026-05-02T09:02:24.163Z</time></trkpt><trkpt lat="46.1262624" lon="13.5953149"><ele>522.0</ele><time>2026-05-02T09:02:27.162Z</time></trkpt><trkpt lat="46.1262289" lon="13.5954954"><ele>522.0</ele><time>2026-05-02T09:02:29.17Z</time></trkpt><trkpt lat="46.1262082" lon="13.5956075"><ele>522.0</ele><time>2026-05-02T09:02:30.167Z</time></trkpt><trkpt lat="46.1262099" lon="13.5957379"><ele>522.0</ele><time>2026-05-02T09:02:31.174Z</time></trkpt><trkpt lat="46.1262314" lon="13.595882"><ele>522.0</ele><time>2026-05-02T09:02:32.18Z</time></trkpt><trkpt lat="46.1262465" lon="13.596031"><ele>522.0</ele><time>2026-05-02T09:02:33.157Z</time></trkpt><trkpt lat="46.1262581" lon="13.5961863"><ele>522.0</ele><time>2026-05-02T09:02:34.163Z</time></trkpt><trkpt lat="46.1262724" lon="13.5963439"><ele>522.0</ele><time>2026-05-02T09:02:35.16Z</time></trkpt><trkpt lat="46.1262828" lon="13.5965068"><ele>522.0</ele><time>2026-05-02T09:02:36.188Z</time></trkpt><trkpt lat="46.1262906" lon="13.5966623"><ele>521.8000000000001</ele><time>2026-05-02T09:02:37.158Z</time></trkpt><trkpt lat="46.126299" lon="13.5968104"><ele>521.6</ele><time>2026-05-02T09:02:38.167Z</time></trkpt><trkpt lat="46.1263184" lon="13.5969416"><ele>521.4000000000001</ele><time>2026-05-02T09:02:39.171Z</time></trkpt><trkpt lat="46.126326" lon="13.5970727"><ele>521.2</ele><time>2026-05-02T09:02:40.159Z</time></trkpt><trkpt lat="46.1263197" lon="13.5972108"><ele>521.0</ele><time>2026-05-02T09:02:41.17Z</time></trkpt><trkpt lat="46.1262959" lon="13.5973796"><ele>521.0</ele><time>2026-05-02T09:02:42.165Z</time></trkpt><trkpt lat="46.1262674" lon="13.5975552"><ele>521.0</ele><time>2026-05-02T09:02:43.158Z</time></trkpt><trkpt lat="46.1262462" lon="13.5977041"><ele>521.0</ele><time>2026-05-02T09:02:44.159Z</time></trkpt><trkpt lat="46.1262349" lon="13.5978397"><ele>521.0</ele><time>2026-05-02T09:02:45.158Z</time></trkpt><trkpt lat="46.1262257" lon="13.5979785"><ele>521.0</ele><time>2026-05-02T09:02:46.159Z</time></trkpt><trkpt lat="46.12623" lon="13.5981061"><ele>522.0</ele><time>2026-05-02T09:02:47.168Z</time></trkpt><trkpt lat="46.1262535" lon="13.5982349"><ele>523.0</ele><time>2026-05-02T09:02:48.163Z</time></trkpt><trkpt lat="46.1262992" lon="13.5983775"><ele>524.0</ele><time>2026-05-02T09:02:49.159Z</time></trkpt><trkpt lat="46.1263481" lon="13.5985222"><ele>525.0</ele><time>2026-05-02T09:02:50.154Z</time></trkpt><trkpt lat="46.126384" lon="13.5986288"><ele>526.0</ele><time>2026-05-02T09:02:51.137Z</time></trkpt><trkpt lat="46.1264148" lon="13.5987129"><ele>528.0</ele><time>2026-05-02T09:02:52.155Z</time></trkpt><trkpt lat="46.126542" lon="13.5988232"><ele>530.0</ele><time>2026-05-02T09:02:54.151Z</time></trkpt><trkpt lat="46.1266329" lon="13.5988865"><ele>532.0</ele><time>2026-05-02T09:02:55.172Z</time></trkpt><trkpt lat="46.1267114" lon="13.598927"><ele>534.0</ele><time>2026-05-02T09:02:56.169Z</time></trkpt><trkpt lat="46.1267869" lon="13.5989472"><ele>536.0</ele><time>2026-05-02T09:02:57.152Z</time></trkpt><trkpt lat="46.1268671" lon="13.598948"><ele>532.0</ele><time>2026-05-02T09:02:58.155Z</time></trkpt><trkpt lat="46.1269472" lon="13.5989555"><ele>528.0</ele><time>2026-05-02T09:02:59.146Z</time></trkpt><trkpt lat="46.1270152" lon="13.599"><ele>524.0</ele><time>2026-05-02T09:03:00.162Z</time></trkpt><trkpt lat="46.127081" lon="13.599055"><ele>520.0</ele><time>2026-05-02T09:03:01.156Z</time></trkpt><trkpt lat="46.1271271" lon="13.599136"><ele>516.0</ele><time>2026-05-02T09:03:02.156Z</time></trkpt><trkpt lat="46.1271605" lon="13.5992407"><ele>512.0</ele><time>2026-05-02T09:03:03.154Z</time></trkpt><trkpt lat="46.1271628" lon="13.5993697"><ele>513.5</ele><time>2026-05-02T09:03:04.166Z</time></trkpt><trkpt lat="46.1271417" lon="13.5995313"><ele>515.0</ele><time>2026-05-02T09:03:05.15Z</time></trkpt><trkpt lat="46.1270943" lon="13.5997015"><ele>516.5</ele><time>2026-05-02T09:03:06.149Z</time></trkpt><trkpt lat="46.1270449" lon="13.5998689"><ele>518.0</ele><time>2026-05-02T09:03:07.16Z</time></trkpt><trkpt lat="46.1269927" lon="13.6000128"><ele>518.0</ele><time>2026-05-02T09:03:08.152Z</time></trkpt><trkpt lat="46.1269574" lon="13.6001339"><ele>518.0</ele><time>2026-05-02T09:03:09.144Z</time></trkpt><trkpt lat="46.1269294" lon="13.6002238"><ele>518.0</ele><time>2026-05-02T09:03:10.155Z</time></trkpt><trkpt lat="46.1269591" lon="13.6003338"><ele>518.0</ele><time>2026-05-02T09:03:12.16Z</time></trkpt><trkpt lat="46.1270714" lon="13.60034"><ele>518.0</ele><time>2026-05-02T09:03:14.15Z</time></trkpt><trkpt lat="46.1271571" lon="13.6002879"><ele>518.0</ele><time>2026-05-02T09:03:15.136Z</time></trkpt><trkpt lat="46.1272672" lon="13.6001913"><ele>518.0</ele><time>2026-05-02T09:03:16.144Z</time></trkpt><trkpt lat="46.1273818" lon="13.6001146"><ele>518.0</ele><time>2026-05-02T09:03:17.144Z</time></trkpt><trkpt lat="46.1275097" lon="13.6000525"><ele>518.0</ele><time>2026-05-02T09:03:18.142Z</time></trkpt><trkpt lat="46.1276528" lon="13.6000073"><ele>518.0</ele><time>2026-05-02T09:03:19.137Z</time></trkpt><trkpt lat="46.12778" lon="13.5999607"><ele>513.8333333333333</ele><time>2026-05-02T09:03:20.162Z</time></trkpt><trkpt lat="46.1278876" lon="13.5999203"><ele>509.66666666666663</ele><time>2026-05-02T09:03:21.155Z</time></trkpt><trkpt lat="46.1279561" lon="13.5999315"><ele>505.5</ele><time>2026-05-02T09:03:22.169Z</time></trkpt><trkpt lat="46.1280118" lon="13.5999751"><ele>501.33333333333337</ele><time>2026-05-02T09:03:23.164Z</time></trkpt><trkpt lat="46.1280496" lon="13.6000667"><ele>497.1666666666667</ele><time>2026-05-02T09:03:24.164Z</time></trkpt><trkpt lat="46.1280613" lon="13.6001665"><ele>493.0</ele><time>2026-05-02T09:03:25.158Z</time></trkpt><trkpt lat="46.1280665" lon="13.6002689"><ele>495.4</ele><time>2026-05-02T09:03:26.154Z</time></trkpt><trkpt lat="46.1280466" lon="13.6003996"><ele>497.79999999999995</ele><time>2026-05-02T09:03:27.151Z</time></trkpt><trkpt lat="46.1280115" lon="13.6005284"><ele>500.2</ele><time>2026-05-02T09:03:28.15Z</time></trkpt><trkpt lat="46.1279687" lon="13.6006604"><ele>502.6</ele><time>2026-05-02T09:03:29.151Z</time></trkpt><trkpt lat="46.1279216" lon="13.6007897"><ele>505.0</ele><time>2026-05-02T09:03:30.157Z</time></trkpt><trkpt lat="46.1278653" lon="13.6009301"><ele>505.0</ele><time>2026-05-02T09:03:31.154Z</time></trkpt><trkpt lat="46.1278144" lon="13.6010802"><ele>505.0</ele><time>2026-05-02T09:03:32.165Z</time></trkpt><trkpt lat="46.1277604" lon="13.6012351"><ele>505.0</ele><time>2026-05-02T09:03:33.154Z</time></trkpt><trkpt lat="46.1277151" lon="13.6013947"><ele>505.0</ele><time>2026-05-02T09:03:34.164Z</time></trkpt><trkpt lat="46.1276719" lon="13.6015526"><ele>504.83333333333337</ele><time>2026-05-02T09:03:35.161Z</time></trkpt><trkpt lat="46.1276558" lon="13.6017082"><ele>504.6666666666667</ele><time>2026-05-02T09:03:36.158Z</time></trkpt><trkpt lat="46.1276567" lon="13.6018469"><ele>504.5</ele><time>2026-05-02T09:03:37.157Z</time></trkpt><trkpt lat="46.1276604" lon="13.6019589"><ele>504.33333333333337</ele><time>2026-05-02T09:03:38.139Z</time></trkpt><trkpt lat="46.1276452" lon="13.6020629"><ele>504.1666666666667</ele><time>2026-05-02T09:03:39.173Z</time></trkpt><trkpt lat="46.1276145" lon="13.6021575"><ele>504.0</ele><time>2026-05-02T09:03:40.156Z</time></trkpt><trkpt lat="46.1275838" lon="13.6023008"><ele>504.0</ele><time>2026-05-02T09:03:42.147Z</time></trkpt><trkpt lat="46.1276427" lon="13.6023529"><ele>504.0</ele><time>2026-05-02T09:03:44.138Z</time></trkpt><trkpt lat="46.1277685" lon="13.6023732"><ele>504.0</ele><time>2026-05-02T09:03:46.146Z</time></trkpt><trkpt lat="46.1278562" lon="13.6023947"><ele>504.0</ele><time>2026-05-02T09:03:47.14Z</time></trkpt><trkpt lat="46.1279548" lon="13.6024272"><ele>504.0</ele><time>2026-05-02T09:03:48.165Z</time></trkpt><trkpt lat="46.1280414" lon="13.6024744"><ele>504.0</ele><time>2026-05-02T09:03:49.142Z</time></trkpt><trkpt lat="46.1281277" lon="13.6025302"><ele>504.0</ele><time>2026-05-02T09:03:50.158Z</time></trkpt><trkpt lat="46.1282045" lon="13.6025851"><ele>504.0</ele><time>2026-05-02T09:03:51.146Z</time></trkpt><trkpt lat="46.1282931" lon="13.6026249"><ele>504.0</ele><time>2026-05-02T09:03:52.147Z</time></trkpt><trkpt lat="46.1283987" lon="13.6026584"><ele>504.0</ele><time>2026-05-02T09:03:53.146Z</time></trkpt><trkpt lat="46.1285" lon="13.6026776"><ele>500.2</ele><time>2026-05-02T09:03:54.147Z</time></trkpt><trkpt lat="46.1286003" lon="13.6026794"><ele>496.4</ele><time>2026-05-02T09:03:55.165Z</time></trkpt><trkpt lat="46.1287019" lon="13.6026817"><ele>492.6</ele><time>2026-05-02T09:03:56.149Z</time></trkpt><trkpt lat="46.1288026" lon="13.6026641"><ele>488.8</ele><time>2026-05-02T09:03:57.14Z</time></trkpt><trkpt lat="46.1288992" lon="13.6026523"><ele>485.0</ele><time>2026-05-02T09:03:58.135Z</time></trkpt><trkpt lat="46.1289856" lon="13.6026522"><ele>483.66666666666663</ele><time>2026-05-02T09:03:59.15Z</time></trkpt><trkpt lat="46.1290649" lon="13.6026706"><ele>482.3333333333333</ele><time>2026-05-02T09:04:00.145Z</time></trkpt><trkpt lat="46.1291559" lon="13.6027874"><ele>481.0</ele><time>2026-05-02T09:04:02.163Z</time></trkpt><trkpt lat="46.1292128" lon="13.6028714"><ele>479.66666666666663</ele><time>2026-05-02T09:04:03.137Z</time></trkpt><trkpt lat="46.1292578" lon="13.602956"><ele>478.3333333333333</ele><time>2026-05-02T09:04:04.145Z</time></trkpt><trkpt lat="46.1293346" lon="13.603003"><ele>477.0</ele><time>2026-05-02T09:04:05.153Z</time></trkpt><trkpt lat="46.1294093" lon="13.6030339"><ele>478.40000000000003</ele><time>2026-05-02T09:04:06.148Z</time></trkpt><trkpt lat="46.1294911" lon="13.6030745"><ele>479.80000000000007</ele><time>2026-05-02T09:04:07.16Z</time></trkpt><trkpt lat="46.1295883" lon="13.6031187"><ele>481.2</ele><time>2026-05-02T09:04:08.144Z</time></trkpt><trkpt lat="46.1297066" lon="13.6031559"><ele>482.6</ele><time>2026-05-02T09:04:09.15Z</time></trkpt><trkpt lat="46.129819" lon="13.6031905"><ele>484.0</ele><time>2026-05-02T09:04:10.155Z</time></trkpt><trkpt lat="46.1299114" lon="13.6032222"><ele>484.0</ele><time>2026-05-02T09:04:11.144Z</time></trkpt><trkpt lat="46.1299924" lon="13.6032741"><ele>484.0</ele><time>2026-05-02T09:04:12.162Z</time></trkpt><trkpt lat="46.1300634" lon="13.6033352"><ele>484.0</ele><time>2026-05-02T09:04:13.153Z</time></trkpt><trkpt lat="46.1301401" lon="13.6034575"><ele>484.0</ele><time>2026-05-02T09:04:15.152Z</time></trkpt><trkpt lat="46.1301616" lon="13.6036386"><ele>484.0</ele><time>2026-05-02T09:04:17.146Z</time></trkpt><trkpt lat="46.1301496" lon="13.6037541"><ele>484.0</ele><time>2026-05-02T09:04:18.152Z</time></trkpt><trkpt lat="46.1301195" lon="13.6038857"><ele>484.0</ele><time>2026-05-02T09:04:19.147Z</time></trkpt><trkpt lat="46.1300726" lon="13.6040231"><ele>484.0</ele><time>2026-05-02T09:04:20.144Z</time></trkpt><trkpt lat="46.1300293" lon="13.604144"><ele>484.0</ele><time>2026-05-02T09:04:21.159Z</time></trkpt><trkpt lat="46.1299886" lon="13.6042836"><ele>484.0</ele><time>2026-05-02T09:04:22.157Z</time></trkpt><trkpt lat="46.1299426" lon="13.6044404"><ele>480.25</ele><time>2026-05-02T09:04:23.162Z</time></trkpt><trkpt lat="46.1299046" lon="13.6046105"><ele>476.5</ele><time>2026-05-02T09:04:24.16Z</time></trkpt><trkpt lat="46.1298598" lon="13.6047856"><ele>472.75</ele><time>2026-05-02T09:04:25.159Z</time></trkpt><trkpt lat="46.1298172" lon="13.6049504"><ele>469.0</ele><time>2026-05-02T09:04:26.163Z</time></trkpt><trkpt lat="46.1297782" lon="13.6050819"><ele>476.4</ele><time>2026-05-02T09:04:27.147Z</time></trkpt><trkpt lat="46.1297296" lon="13.6051938"><ele>483.79999999999995</ele><time>2026-05-02T09:04:28.156Z</time></trkpt><trkpt lat="46.1296812" lon="13.6053022"><ele>491.20000000000005</ele><time>2026-05-02T09:04:29.147Z</time></trkpt><trkpt lat="46.1296234" lon="13.6054217"><ele>498.6</ele><time>2026-05-02T09:04:30.148Z</time></trkpt><trkpt lat="46.1295563" lon="13.6055479"><ele>506.0</ele><time>2026-05-02T09:04:31.14Z</time></trkpt><trkpt lat="46.1294915" lon="13.6056831"><ele>505.99999999999994</ele><time>2026-05-02T09:04:32.149Z</time></trkpt><trkpt lat="46.1294331" lon="13.6058066"><ele>506.0</ele><time>2026-05-02T09:04:33.142Z</time></trkpt><trkpt lat="46.1293833" lon="13.6059134"><ele>506.0</ele><time>2026-05-02T09:04:34.155Z</time></trkpt><trkpt lat="46.1293402" lon="13.6060142"><ele>506.0</ele><time>2026-05-02T09:04:35.151Z</time></trkpt><trkpt lat="46.1293161" lon="13.6061214"><ele>505.99999999999994</ele><time>2026-05-02T09:04:36.155Z</time></trkpt><trkpt lat="46.1293022" lon="13.6062397"><ele>506.0</ele><time>2026-05-02T09:04:37.157Z</time></trkpt><trkpt lat="46.1292974" lon="13.6063587"><ele>503.3333333333333</ele><time>2026-05-02T09:04:38.155Z</time></trkpt><trkpt lat="46.1292951" lon="13.6064727"><ele>500.66666666666663</ele><time>2026-05-02T09:04:39.139Z</time></trkpt><trkpt lat="46.1293066" lon="13.6065839"><ele>498.0</ele><time>2026-05-02T09:04:40.142Z</time></trkpt><trkpt lat="46.1293179" lon="13.6066926"><ele>495.33333333333337</ele><time>2026-05-02T09:04:41.136Z</time></trkpt><trkpt lat="46.1293193" lon="13.6068009"><ele>492.6666666666667</ele><time>2026-05-02T09:04:42.156Z</time></trkpt><trkpt lat="46.1293062" lon="13.6069051"><ele>490.0</ele><time>2026-05-02T09:04:43.14Z</time></trkpt><trkpt lat="46.1292809" lon="13.6070063"><ele>490.00000000000006</ele><time>2026-05-02T09:04:44.152Z</time></trkpt><trkpt lat="46.1292478" lon="13.607096"><ele>490.0</ele><time>2026-05-02T09:04:45.144Z</time></trkpt><trkpt lat="46.1292106" lon="13.607193"><ele>490.0</ele><time>2026-05-02T09:04:46.15Z</time></trkpt><trkpt lat="46.1291845" lon="13.6073074"><ele>490.0</ele><time>2026-05-02T09:04:47.145Z</time></trkpt><trkpt lat="46.129158" lon="13.6074188"><ele>490.00000000000006</ele><time>2026-05-02T09:04:48.146Z</time></trkpt><trkpt lat="46.1291403" lon="13.6075154"><ele>490.0</ele><time>2026-05-02T09:04:49.157Z</time></trkpt><trkpt lat="46.1291749" lon="13.6076554"><ele>490.0</ele><time>2026-05-02T09:04:51.156Z</time></trkpt><trkpt lat="46.1292633" lon="13.6076561"><ele>490.0</ele><time>2026-05-02T09:04:53.143Z</time></trkpt><trkpt lat="46.1293511" lon="13.6076076"><ele>490.0</ele><time>2026-05-02T09:04:54.136Z</time></trkpt><trkpt lat="46.1294521" lon="13.6075829"><ele>490.0</ele><time>2026-05-02T09:04:55.133Z</time></trkpt><trkpt lat="46.1295599" lon="13.6075612"><ele>490.0</ele><time>2026-05-02T09:04:56.142Z</time></trkpt><trkpt lat="46.1296736" lon="13.607556"><ele>490.0</ele><time>2026-05-02T09:04:57.137Z</time></trkpt><trkpt lat="46.1297716" lon="13.607556"><ele>490.0</ele><time>2026-05-02T09:04:58.138Z</time></trkpt><trkpt lat="46.1298642" lon="13.6075697"><ele>490.0</ele><time>2026-05-02T09:04:59.137Z</time></trkpt><trkpt lat="46.1299593" lon="13.6076003"><ele>490.0</ele><time>2026-05-02T09:05:00.14Z</time></trkpt><trkpt lat="46.1300577" lon="13.6076271"><ele>490.0</ele><time>2026-05-02T09:05:01.131Z</time></trkpt><trkpt lat="46.1301533" lon="13.6076734"><ele>491.1666666666667</ele><time>2026-05-02T09:05:02.142Z</time></trkpt><trkpt lat="46.1302324" lon="13.6077178"><ele>492.33333333333337</ele><time>2026-05-02T09:05:03.138Z</time></trkpt><trkpt lat="46.1302838" lon="13.6077809"><ele>493.5</ele><time>2026-05-02T09:05:04.145Z</time></trkpt><trkpt lat="46.1303315" lon="13.60786"><ele>494.66666666666663</ele><time>2026-05-02T09:05:05.143Z</time></trkpt><trkpt lat="46.1303652" lon="13.6079577"><ele>495.8333333333333</ele><time>2026-05-02T09:05:06.158Z</time></trkpt><trkpt lat="46.1303935" lon="13.6080627"><ele>497.0</ele><time>2026-05-02T09:05:07.144Z</time></trkpt><trkpt lat="46.1304026" lon="13.6081901"><ele>497.0</ele><time>2026-05-02T09:05:08.152Z</time></trkpt><trkpt lat="46.1303945" lon="13.6083165"><ele>497.00000000000006</ele><time>2026-05-02T09:05:09.148Z</time></trkpt><trkpt lat="46.1303644" lon="13.6084562"><ele>497.00000000000006</ele><time>2026-05-02T09:05:10.143Z</time></trkpt><trkpt lat="46.1303151" lon="13.6085988"><ele>497.0</ele><time>2026-05-02T09:05:11.145Z</time></trkpt><trkpt lat="46.1302629" lon="13.6087512"><ele>497.0</ele><time>2026-05-02T09:05:12.147Z</time></trkpt><trkpt lat="46.1302152" lon="13.6088922"><ele>498.3333333333333</ele><time>2026-05-02T09:05:13.147Z</time></trkpt><trkpt lat="46.130178" lon="13.6090171"><ele>499.66666666666663</ele><time>2026-05-02T09:05:14.148Z</time></trkpt><trkpt lat="46.1301478" lon="13.6091336"><ele>501.0</ele><time>2026-05-02T09:05:15.139Z</time></trkpt><trkpt lat="46.1301263" lon="13.6092394"><ele>502.33333333333337</ele><time>2026-05-02T09:05:16.133Z</time></trkpt><trkpt lat="46.130123" lon="13.6093421"><ele>503.6666666666667</ele><time>2026-05-02T09:05:17.142Z</time></trkpt><trkpt lat="46.1301735" lon="13.6094584"><ele>505.0</ele><time>2026-05-02T09:05:19.138Z</time></trkpt><trkpt lat="46.1303032" lon="13.609408"><ele>505.00000000000006</ele><time>2026-05-02T09:05:21.127Z</time></trkpt><trkpt lat="46.130384" lon="13.609365"><ele>505.0</ele><time>2026-05-02T09:05:22.147Z</time></trkpt><trkpt lat="46.1304653" lon="13.6093274"><ele>505.0</ele><time>2026-05-02T09:05:23.131Z</time></trkpt><trkpt lat="46.1305423" lon="13.6092835"><ele>505.0</ele><time>2026-05-02T09:05:24.141Z</time></trkpt><trkpt lat="46.1306271" lon="13.609257"><ele>505.00000000000006</ele><time>2026-05-02T09:05:25.136Z</time></trkpt><trkpt lat="46.1307259" lon="13.6092855"><ele>505.0</ele><time>2026-05-02T09:05:26.139Z</time></trkpt><trkpt lat="46.1308098" lon="13.609323"><ele>507.1666666666667</ele><time>2026-05-02T09:05:27.139Z</time></trkpt><trkpt lat="46.1308749" lon="13.6093711"><ele>509.33333333333337</ele><time>2026-05-02T09:05:28.15Z</time></trkpt><trkpt lat="46.1309452" lon="13.6094472"><ele>511.5</ele><time>2026-05-02T09:05:29.142Z</time></trkpt><trkpt lat="46.1310189" lon="13.6095108"><ele>513.6666666666666</ele><time>2026-05-02T09:05:30.141Z</time></trkpt><trkpt lat="46.1310905" lon="13.6095495"><ele>515.8333333333333</ele><time>2026-05-02T09:05:31.145Z</time></trkpt><trkpt lat="46.1311541" lon="13.6095697"><ele>518.0</ele><time>2026-05-02T09:05:32.149Z</time></trkpt><trkpt lat="46.1312562" lon="13.6094628"><ele>509.25</ele><time>2026-05-02T09:05:34.136Z</time></trkpt><trkpt lat="46.1312844" lon="13.609336"><ele>500.5</ele><time>2026-05-02T09:05:35.151Z</time></trkpt><trkpt lat="46.1313025" lon="13.6091649"><ele>491.75</ele><time>2026-05-02T09:05:36.142Z</time></trkpt><trkpt lat="46.1313172" lon="13.6089825"><ele>483.0</ele><time>2026-05-02T09:05:37.139Z</time></trkpt><trkpt lat="46.1313392" lon="13.6088027"><ele>483.5</ele><time>2026-05-02T09:05:38.147Z</time></trkpt><trkpt lat="46.1313702" lon="13.6086233"><ele>484.0</ele><time>2026-05-02T09:05:39.137Z</time></trkpt><trkpt lat="46.1314338" lon="13.6084673"><ele>484.5</ele><time>2026-05-02T09:05:40.136Z</time></trkpt><trkpt lat="46.1315161" lon="13.608335"><ele>485.0</ele><time>2026-05-02T09:05:41.138Z</time></trkpt><trkpt lat="46.1316011" lon="13.6082148"><ele>485.0</ele><time>2026-05-02T09:05:42.156Z</time></trkpt><trkpt lat="46.1316837" lon="13.6080904"><ele>485.0</ele><time>2026-05-02T09:05:43.142Z</time></trkpt><trkpt lat="46.1317648" lon="13.6079725"><ele>485.0</ele><time>2026-05-02T09:05:44.149Z</time></trkpt><trkpt lat="46.1318402" lon="13.6078264"><ele>485.0</ele><time>2026-05-02T09:05:45.136Z</time></trkpt><trkpt lat="46.1319093" lon="13.6076819"><ele>480.0</ele><time>2026-05-02T09:05:46.145Z</time></trkpt><trkpt lat="46.1319627" lon="13.6075487"><ele>475.0</ele><time>2026-05-02T09:05:47.142Z</time></trkpt><trkpt lat="46.1320127" lon="13.6074257"><ele>470.0</ele><time>2026-05-02T09:05:48.156Z</time></trkpt><trkpt lat="46.1320618" lon="13.6073329"><ele>465.0</ele><time>2026-05-02T09:05:49.149Z</time></trkpt><trkpt lat="46.1321564" lon="13.6072812"><ele>460.0</ele><time>2026-05-02T09:05:51.146Z</time></trkpt><trkpt lat="46.1322205" lon="13.6073254"><ele>460.00000000000006</ele><time>2026-05-02T09:05:52.15Z</time></trkpt><trkpt lat="46.1322988" lon="13.6074026"><ele>460.0</ele><time>2026-05-02T09:05:53.152Z</time></trkpt><trkpt lat="46.1323869" lon="13.6074721"><ele>460.0</ele><time>2026-05-02T09:05:54.147Z</time></trkpt><trkpt lat="46.1324647" lon="13.6074969"><ele>460.0</ele><time>2026-05-02T09:05:55.164Z</time></trkpt><trkpt lat="46.1325395" lon="13.6074735"><ele>460.00000000000006</ele><time>2026-05-02T09:05:56.148Z</time></trkpt><trkpt lat="46.1325988" lon="13.6073954"><ele>460.0</ele><time>2026-05-02T09:05:57.134Z</time></trkpt><trkpt lat="46.1326549" lon="13.6072905"><ele>461.75</ele><time>2026-05-02T09:05:58.144Z</time></trkpt><trkpt lat="46.1327084" lon="13.6071543"><ele>463.5</ele><time>2026-05-02T09:05:59.153Z</time></trkpt><trkpt lat="46.1327674" lon="13.6070131"><ele>465.25</ele><time>2026-05-02T09:06:00.142Z</time></trkpt><trkpt lat="46.1328218" lon="13.606863"><ele>467.0</ele><time>2026-05-02T09:06:01.151Z</time></trkpt><trkpt lat="46.1328718" lon="13.6067189"><ele>466.99999999999994</ele><time>2026-05-02T09:06:02.142Z</time></trkpt><trkpt lat="46.1329213" lon="13.6065982"><ele>467.0</ele><time>2026-05-02T09:06:03.136Z</time></trkpt><trkpt lat="46.1329764" lon="13.6065155"><ele>467.0</ele><time>2026-05-02T09:06:04.149Z</time></trkpt><trkpt lat="46.1330601" lon="13.6065131"><ele>467.0</ele><time>2026-05-02T09:06:06.144Z</time></trkpt><trkpt lat="46.1331096" lon="13.6065913"><ele>466.99999999999994</ele><time>2026-05-02T09:06:07.139Z</time></trkpt><trkpt lat="46.1331892" lon="13.6066695"><ele>467.0</ele><time>2026-05-02T09:06:08.162Z</time></trkpt><trkpt lat="46.1332864" lon="13.6067495"><ele>471.25</ele><time>2026-05-02T09:06:09.15Z</time></trkpt><trkpt lat="46.1334092" lon="13.6068267"><ele>475.5</ele><time>2026-05-02T09:06:10.144Z</time></trkpt><trkpt lat="46.1335278" lon="13.6068975"><ele>479.75</ele><time>2026-05-02T09:06:11.139Z</time></trkpt><trkpt lat="46.1336254" lon="13.6069389"><ele>484.0</ele><time>2026-05-02T09:06:12.138Z</time></trkpt><trkpt lat="46.1337283" lon="13.6069725"><ele>492.25</ele><time>2026-05-02T09:06:13.146Z</time></trkpt><trkpt lat="46.1338532" lon="13.6070147"><ele>500.5</ele><time>2026-05-02T09:06:14.148Z</time></trkpt><trkpt lat="46.1339808" lon="13.6070478"><ele>508.75</ele><time>2026-05-02T09:06:15.136Z</time></trkpt><trkpt lat="46.1341077" lon="13.6070747"><ele>517.0</ele><time>2026-05-02T09:06:16.142Z</time></trkpt><trkpt lat="46.1342154" lon="13.6070798"><ele>517.0</ele><time>2026-05-02T09:06:17.123Z</time></trkpt><trkpt lat="46.1343573" lon="13.6070913"><ele>517.0</ele><time>2026-05-02T09:06:18.122Z</time></trkpt><trkpt lat="46.1344552" lon="13.6071233"><ele>517.0</ele><time>2026-05-02T09:06:19.138Z</time></trkpt><trkpt lat="46.1345551" lon="13.6071778"><ele>517.0</ele><time>2026-05-02T09:06:20.129Z</time></trkpt><trkpt lat="46.1346346" lon="13.6072393"><ele>517.0</ele><time>2026-05-02T09:06:21.124Z</time></trkpt><trkpt lat="46.1346972" lon="13.6073033"><ele>517.0</ele><time>2026-05-02T09:06:22.125Z</time></trkpt><trkpt lat="46.1347492" lon="13.6073688"><ele>517.0</ele><time>2026-05-02T09:06:23.15Z</time></trkpt><trkpt lat="46.1348001" lon="13.6074367"><ele>517.0</ele><time>2026-05-02T09:06:24.175Z</time></trkpt><trkpt lat="46.1348677" lon="13.6074877"><ele>517.0</ele><time>2026-05-02T09:06:25.149Z</time></trkpt><trkpt lat="46.1349349" lon="13.6075459"><ele>517.0</ele><time>2026-05-02T09:06:26.139Z</time></trkpt><trkpt lat="46.1350097" lon="13.6075963"><ele>517.0</ele><time>2026-05-02T09:06:27.139Z</time></trkpt><trkpt lat="46.1350754" lon="13.6076561"><ele>519.0</ele><time>2026-05-02T09:06:28.135Z</time></trkpt><trkpt lat="46.1351207" lon="13.6077636"><ele>521.0</ele><time>2026-05-02T09:06:29.133Z</time></trkpt><trkpt lat="46.1351697" lon="13.6078795"><ele>523.0</ele><time>2026-05-02T09:06:30.134Z</time></trkpt><trkpt lat="46.1352163" lon="13.6079918"><ele>525.0</ele><time>2026-05-02T09:06:31.146Z</time></trkpt><trkpt lat="46.135268" lon="13.6080975"><ele>527.0</ele><time>2026-05-02T09:06:32.138Z</time></trkpt><trkpt lat="46.1353306" lon="13.608182"><ele>529.0</ele><time>2026-05-02T09:06:33.167Z</time></trkpt><trkpt lat="46.1354098" lon="13.6082627"><ele>529.0</ele><time>2026-05-02T09:06:34.167Z</time></trkpt><trkpt lat="46.1354834" lon="13.6083355"><ele>529.0</ele><time>2026-05-02T09:06:35.162Z</time></trkpt><trkpt lat="46.1355622" lon="13.6083573"><ele>529.0</ele><time>2026-05-02T09:06:36.129Z</time></trkpt><trkpt lat="46.1356407" lon="13.6083607"><ele>529.0</ele><time>2026-05-02T09:06:37.123Z</time></trkpt><trkpt lat="46.1357074" lon="13.6083787"><ele>529.0</ele><time>2026-05-02T09:06:38.154Z</time></trkpt><trkpt lat="46.1358086" lon="13.6084821"><ele>529.0</ele><time>2026-05-02T09:06:40.145Z</time></trkpt><trkpt lat="46.1358506" lon="13.6086622"><ele>530.6</ele><time>2026-05-02T09:06:42.149Z</time></trkpt><trkpt lat="46.1358337" lon="13.6087767"><ele>532.2</ele><time>2026-05-02T09:06:43.143Z</time></trkpt><trkpt lat="46.1358016" lon="13.6088964"><ele>533.8000000000001</ele><time>2026-05-02T09:06:44.146Z</time></trkpt><trkpt lat="46.135762" lon="13.6090363"><ele>535.4</ele><time>2026-05-02T09:06:45.206Z</time></trkpt><trkpt lat="46.1357243" lon="13.6091711"><ele>537.0</ele><time>2026-05-02T09:06:46.132Z</time></trkpt><trkpt lat="46.1356663" lon="13.6093234"><ele>537.0</ele><time>2026-05-02T09:06:47.198Z</time></trkpt><trkpt lat="46.1356057" lon="13.609476"><ele>537.0</ele><time>2026-05-02T09:06:48.152Z</time></trkpt><trkpt lat="46.1355487" lon="13.6096248"><ele>537.0</ele><time>2026-05-02T09:06:49.155Z</time></trkpt><trkpt lat="46.1355061" lon="13.6097688"><ele>537.0</ele><time>2026-05-02T09:06:50.145Z</time></trkpt><trkpt lat="46.1354759" lon="13.6099075"><ele>537.0</ele><time>2026-05-02T09:06:51.136Z</time></trkpt><trkpt lat="46.1354502" lon="13.6100321"><ele>536.8333333333334</ele><time>2026-05-02T09:06:52.153Z</time></trkpt><trkpt lat="46.1354327" lon="13.6101281"><ele>536.6666666666666</ele><time>2026-05-02T09:06:53.138Z</time></trkpt><trkpt lat="46.13542" lon="13.6102377"><ele>536.5</ele><time>2026-05-02T09:06:54.153Z</time></trkpt><trkpt lat="46.1354505" lon="13.6103713"><ele>536.3333333333333</ele><time>2026-05-02T09:06:56.145Z</time></trkpt><trkpt lat="46.1355147" lon="13.6104218"><ele>536.1666666666666</ele><time>2026-05-02T09:06:57.154Z</time></trkpt><trkpt lat="46.1356022" lon="13.6104719"><ele>536.0</ele><time>2026-05-02T09:06:58.151Z</time></trkpt><trkpt lat="46.1356981" lon="13.6105029"><ele>531.6666666666666</ele><time>2026-05-02T09:06:59.144Z</time></trkpt><trkpt lat="46.1357681" lon="13.610563"><ele>527.3333333333333</ele><time>2026-05-02T09:07:00.138Z</time></trkpt><trkpt lat="46.1358457" lon="13.6106229"><ele>523.0</ele><time>2026-05-02T09:07:01.152Z</time></trkpt><trkpt lat="46.1359066" lon="13.6106969"><ele>518.6666666666666</ele><time>2026-05-02T09:07:02.141Z</time></trkpt><trkpt lat="46.1359395" lon="13.6107947"><ele>514.3333333333334</ele><time>2026-05-02T09:07:03.141Z</time></trkpt><trkpt lat="46.1359428" lon="13.6109083"><ele>510.0</ele><time>2026-05-02T09:07:04.134Z</time></trkpt><trkpt lat="46.1359312" lon="13.6110264"><ele>510.0</ele><time>2026-05-02T09:07:05.132Z</time></trkpt><trkpt lat="46.1359166" lon="13.6111348"><ele>510.00000000000006</ele><time>2026-05-02T09:07:06.133Z</time></trkpt><trkpt lat="46.1359074" lon="13.6112322"><ele>510.0</ele><time>2026-05-02T09:07:07.143Z</time></trkpt><trkpt lat="46.1359229" lon="13.6113208"><ele>510.0</ele><time>2026-05-02T09:07:08.15Z</time></trkpt><trkpt lat="46.1359584" lon="13.6114105"><ele>510.00000000000006</ele><time>2026-05-02T09:07:09.148Z</time></trkpt><trkpt lat="46.1360145" lon="13.6114939"><ele>510.0</ele><time>2026-05-02T09:07:10.131Z</time></trkpt><trkpt lat="46.1360575" lon="13.6115957"><ele>510.0</ele><time>2026-05-02T09:07:11.141Z</time></trkpt><trkpt lat="46.1360722" lon="13.6117007"><ele>511.2</ele><time>2026-05-02T09:07:12.162Z</time></trkpt><trkpt lat="46.1360489" lon="13.6118425"><ele>512.4</ele><time>2026-05-02T09:07:14.141Z</time></trkpt><trkpt lat="46.1359942" lon="13.6119231"><ele>513.6</ele><time>2026-05-02T09:07:15.166Z</time></trkpt><trkpt lat="46.1359076" lon="13.6120266"><ele>514.8</ele><time>2026-05-02T09:07:16.139Z</time></trkpt><trkpt lat="46.1358219" lon="13.6121302"><ele>516.0</ele><time>2026-05-02T09:07:17.122Z</time></trkpt><trkpt lat="46.1357518" lon="13.612242"><ele>517.0</ele><time>2026-05-02T09:07:18.154Z</time></trkpt><trkpt lat="46.1357017" lon="13.61234"><ele>518.0</ele><time>2026-05-02T09:07:19.146Z</time></trkpt><trkpt lat="46.1356998" lon="13.612456"><ele>519.0</ele><time>2026-05-02T09:07:21.152Z</time></trkpt><trkpt lat="46.1358247" lon="13.6124773"><ele>520.0</ele><time>2026-05-02T09:07:23.145Z</time></trkpt><trkpt lat="46.1359158" lon="13.6124741"><ele>521.0</ele><time>2026-05-02T09:07:24.142Z</time></trkpt><trkpt lat="46.1360109" lon="13.6125045"><ele>521.0</ele><time>2026-05-02T09:07:25.151Z</time></trkpt><trkpt lat="46.1361115" lon="13.6125557"><ele>521.0</ele><time>2026-05-02T09:07:26.127Z</time></trkpt><trkpt lat="46.1362029" lon="13.6126203"><ele>521.0</ele><time>2026-05-02T09:07:27.139Z</time></trkpt><trkpt lat="46.1362752" lon="13.6126935"><ele>521.0</ele><time>2026-05-02T09:07:28.149Z</time></trkpt><trkpt lat="46.1363307" lon="13.6127797"><ele>521.0</ele><time>2026-05-02T09:07:29.151Z</time></trkpt><trkpt lat="46.1363573" lon="13.6128974"><ele>524.8</ele><time>2026-05-02T09:07:30.151Z</time></trkpt><trkpt lat="46.136356" lon="13.613032"><ele>528.6</ele><time>2026-05-02T09:07:31.151Z</time></trkpt><trkpt lat="46.1363529" lon="13.613183"><ele>532.4</ele><time>2026-05-02T09:07:32.14Z</time></trkpt><trkpt lat="46.1363504" lon="13.6133323"><ele>536.2</ele><time>2026-05-02T09:07:33.144Z</time></trkpt><trkpt lat="46.1363654" lon="13.6134361"><ele>540.0</ele><time>2026-05-02T09:07:34.134Z</time></trkpt><trkpt lat="46.1364593" lon="13.6135248"><ele>535.6</ele><time>2026-05-02T09:07:36.153Z</time></trkpt><trkpt lat="46.1365612" lon="13.6135045"><ele>531.2</ele><time>2026-05-02T09:07:38.144Z</time></trkpt><trkpt lat="46.1366116" lon="13.6134264"><ele>526.8</ele><time>2026-05-02T09:07:39.136Z</time></trkpt><trkpt lat="46.1366706" lon="13.6133173"><ele>522.4</ele><time>2026-05-02T09:07:40.131Z</time></trkpt><trkpt lat="46.1367414" lon="13.61318"><ele>518.0</ele><time>2026-05-02T09:07:41.15Z</time></trkpt><trkpt lat="46.1368077" lon="13.613016"><ele>518.0</ele><time>2026-05-02T09:07:42.153Z</time></trkpt><trkpt lat="46.1368641" lon="13.6128621"><ele>518.0</ele><time>2026-05-02T09:07:43.139Z</time></trkpt><trkpt lat="46.1369063" lon="13.6127023"><ele>518.0</ele><time>2026-05-02T09:07:44.147Z</time></trkpt><trkpt lat="46.1369399" lon="13.6125523"><ele>518.0</ele><time>2026-05-02T09:07:45.181Z</time></trkpt><trkpt lat="46.136973" lon="13.6124321"><ele>518.0</ele><time>2026-05-02T09:07:46.126Z</time></trkpt><trkpt lat="46.1370141" lon="13.6123228"><ele>515.5</ele><time>2026-05-02T09:07:47.132Z</time></trkpt><trkpt lat="46.137062" lon="13.6122256"><ele>513.0</ele><time>2026-05-02T09:07:48.156Z</time></trkpt><trkpt lat="46.1371252" lon="13.6121337"><ele>510.5</ele><time>2026-05-02T09:07:49.16Z</time></trkpt><trkpt lat="46.137188" lon="13.6120624"><ele>508.0</ele><time>2026-05-02T09:07:50.136Z</time></trkpt><trkpt lat="46.1372536" lon="13.6120472"><ele>505.49999999999994</ele><time>2026-05-02T09:07:51.161Z</time></trkpt><trkpt lat="46.1373535" lon="13.6120137"><ele>503.0</ele><time>2026-05-02T09:07:53.142Z</time></trkpt><trkpt lat="46.1373856" lon="13.6118956"><ele>500.4</ele><time>2026-05-02T09:07:55.143Z</time></trkpt><trkpt lat="46.137379" lon="13.611772"><ele>497.79999999999995</ele><time>2026-05-02T09:07:56.138Z</time></trkpt><trkpt lat="46.1373499" lon="13.6116191"><ele>495.2</ele><time>2026-05-02T09:07:57.143Z</time></trkpt><trkpt lat="46.1373062" lon="13.61145"><ele>492.6</ele><time>2026-05-02T09:07:58.144Z</time></trkpt><trkpt lat="46.137266" lon="13.6112887"><ele>490.0</ele><time>2026-05-02T09:07:59.147Z</time></trkpt><trkpt lat="46.1372409" lon="13.6111319"><ele>486.0</ele><time>2026-05-02T09:08:00.145Z</time></trkpt><trkpt lat="46.1372324" lon="13.6109559"><ele>482.0</ele><time>2026-05-02T09:08:01.177Z</time></trkpt><trkpt lat="46.1372321" lon="13.6107764"><ele>478.0</ele><time>2026-05-02T09:08:02.143Z</time></trkpt><trkpt lat="46.1372274" lon="13.6106036"><ele>474.0</ele><time>2026-05-02T09:08:03.152Z</time></trkpt><trkpt lat="46.13725" lon="13.6104731"><ele>474.0</ele><time>2026-05-02T09:08:04.149Z</time></trkpt><trkpt lat="46.1372619" lon="13.6103513"><ele>474.0</ele><time>2026-05-02T09:08:05.156Z</time></trkpt><trkpt lat="46.1372886" lon="13.6102159"><ele>474.0</ele><time>2026-05-02T09:08:06.143Z</time></trkpt><trkpt lat="46.1373244" lon="13.6100817"><ele>474.0</ele><time>2026-05-02T09:08:07.158Z</time></trkpt><trkpt lat="46.137369" lon="13.6099485"><ele>474.0</ele><time>2026-05-02T09:08:08.149Z</time></trkpt><trkpt lat="46.1374314" lon="13.609812"><ele>476.5</ele><time>2026-05-02T09:08:09.143Z</time></trkpt><trkpt lat="46.1374976" lon="13.6096712"><ele>479.0</ele><time>2026-05-02T09:08:10.149Z</time></trkpt><trkpt lat="46.1375687" lon="13.6095293"><ele>481.5</ele><time>2026-05-02T09:08:11.144Z</time></trkpt><trkpt lat="46.1376485" lon="13.6093969"><ele>484.0</ele><time>2026-05-02T09:08:12.161Z</time></trkpt><trkpt lat="46.1377356" lon="13.6092731"><ele>480.0</ele><time>2026-05-02T09:08:13.149Z</time></trkpt><trkpt lat="46.1378188" lon="13.6091413"><ele>476.0</ele><time>2026-05-02T09:08:14.148Z</time></trkpt><trkpt lat="46.1378973" lon="13.6090138"><ele>472.0</ele><time>2026-05-02T09:08:15.138Z</time></trkpt><trkpt lat="46.1379638" lon="13.6089069"><ele>468.0</ele><time>2026-05-02T09:08:16.158Z</time></trkpt><trkpt lat="46.138008" lon="13.6088379"><ele>464.0</ele><time>2026-05-02T09:08:17.137Z</time></trkpt><trkpt lat="46.138109" lon="13.6088141"><ele>464.0</ele><time>2026-05-02T09:08:19.138Z</time></trkpt><trkpt lat="46.1381757" lon="13.6088468"><ele>464.0</ele><time>2026-05-02T09:08:20.146Z</time></trkpt><trkpt lat="46.1382392" lon="13.6088945"><ele>464.0</ele><time>2026-05-02T09:08:21.144Z</time></trkpt><trkpt lat="46.1383079" lon="13.6089807"><ele>464.0</ele><time>2026-05-02T09:08:22.137Z</time></trkpt><trkpt lat="46.1383884" lon="13.6090953"><ele>464.0</ele><time>2026-05-02T09:08:23.132Z</time></trkpt><trkpt lat="46.1384706" lon="13.6092069"><ele>472.0</ele><time>2026-05-02T09:08:24.14Z</time></trkpt><trkpt lat="46.1385687" lon="13.6093378"><ele>480.0</ele><time>2026-05-02T09:08:25.146Z</time></trkpt><trkpt lat="46.138681" lon="13.6094711"><ele>488.0</ele><time>2026-05-02T09:08:26.153Z</time></trkpt><trkpt lat="46.1387896" lon="13.6095951"><ele>496.0</ele><time>2026-05-02T09:08:27.134Z</time></trkpt><trkpt lat="46.1388941" lon="13.6097008"><ele>497.0</ele><time>2026-05-02T09:08:28.162Z</time></trkpt><trkpt lat="46.1389959" lon="13.6097994"><ele>498.0</ele><time>2026-05-02T09:08:29.15Z</time></trkpt><trkpt lat="46.1390812" lon="13.6098875"><ele>499.0</ele><time>2026-05-02T09:08:30.144Z</time></trkpt><trkpt lat="46.139134" lon="13.6099637"><ele>500.0</ele><time>2026-05-02T09:08:31.134Z</time></trkpt><trkpt lat="46.1391591" lon="13.6100924"><ele>501.0</ele><time>2026-05-02T09:08:33.148Z</time></trkpt><trkpt lat="46.1391394" lon="13.6102143"><ele>502.4</ele><time>2026-05-02T09:08:34.142Z</time></trkpt><trkpt lat="46.1391154" lon="13.6103436"><ele>503.8</ele><time>2026-05-02T09:08:35.135Z</time></trkpt><trkpt lat="46.1390943" lon="13.6104692"><ele>505.19999999999993</ele><time>2026-05-02T09:08:36.142Z</time></trkpt><trkpt lat="46.1390709" lon="13.6106227"><ele>506.59999999999997</ele><time>2026-05-02T09:08:37.135Z</time></trkpt><trkpt lat="46.139039" lon="13.6107628"><ele>508.0</ele><time>2026-05-02T09:08:38.149Z</time></trkpt><trkpt lat="46.1390111" lon="13.6109012"><ele>512.0</ele><time>2026-05-02T09:08:39.141Z</time></trkpt><trkpt lat="46.1389896" lon="13.6110298"><ele>516.0</ele><time>2026-05-02T09:08:40.153Z</time></trkpt><trkpt lat="46.1389694" lon="13.6111289"><ele>520.0</ele><time>2026-05-02T09:08:41.13Z</time></trkpt><trkpt lat="46.1389748" lon="13.6113013"><ele>524.0</ele><time>2026-05-02T09:08:43.137Z</time></trkpt><trkpt lat="46.1390262" lon="13.6114539"><ele>528.0</ele><time>2026-05-02T09:08:45.144Z</time></trkpt><trkpt lat="46.1390976" lon="13.6114869"><ele>528.0</ele><time>2026-05-02T09:08:46.136Z</time></trkpt><trkpt lat="46.1391961" lon="13.6115019"><ele>528.0</ele><time>2026-05-02T09:08:47.148Z</time></trkpt><trkpt lat="46.1393026" lon="13.6115232"><ele>528.0</ele><time>2026-05-02T09:08:48.163Z</time></trkpt><trkpt lat="46.1394076" lon="13.611531"><ele>528.0</ele><time>2026-05-02T09:08:49.151Z</time></trkpt><trkpt lat="46.1395076" lon="13.6115234"><ele>528.0</ele><time>2026-05-02T09:08:50.158Z</time></trkpt><trkpt lat="46.1396121" lon="13.6115216"><ele>528.0</ele><time>2026-05-02T09:08:51.146Z</time></trkpt><trkpt lat="46.139712" lon="13.6115227"><ele>528.0</ele><time>2026-05-02T09:08:52.162Z</time></trkpt><trkpt lat="46.1397961" lon="13.6115459"><ele>528.0</ele><time>2026-05-02T09:08:53.156Z</time></trkpt><trkpt lat="46.1398688" lon="13.611586"><ele>528.0</ele><time>2026-05-02T09:08:54.148Z</time></trkpt><trkpt lat="46.1399332" lon="13.6117206"><ele>528.0</ele><time>2026-05-02T09:08:56.148Z</time></trkpt><trkpt lat="46.1399538" lon="13.6118365"><ele>528.8333333333334</ele><time>2026-05-02T09:08:57.15Z</time></trkpt><trkpt lat="46.1399765" lon="13.6119631"><ele>529.6666666666666</ele><time>2026-05-02T09:08:58.149Z</time></trkpt><trkpt lat="46.1400079" lon="13.6120794"><ele>530.5</ele><time>2026-05-02T09:08:59.144Z</time></trkpt><trkpt lat="46.1400407" lon="13.6121861"><ele>531.3333333333333</ele><time>2026-05-02T09:09:00.158Z</time></trkpt><trkpt lat="46.1400825" lon="13.6122981"><ele>532.1666666666666</ele><time>2026-05-02T09:09:01.136Z</time></trkpt><trkpt lat="46.1401273" lon="13.6124319"><ele>533.0</ele><time>2026-05-02T09:09:02.155Z</time></trkpt><trkpt lat="46.1401656" lon="13.6125887"><ele>533.0</ele><time>2026-05-02T09:09:03.15Z</time></trkpt><trkpt lat="46.1402013" lon="13.6127445"><ele>533.0</ele><time>2026-05-02T09:09:04.147Z</time></trkpt><trkpt lat="46.1402254" lon="13.6128686"><ele>533.0</ele><time>2026-05-02T09:09:05.144Z</time></trkpt><trkpt lat="46.1402487" lon="13.6129767"><ele>533.0</ele><time>2026-05-02T09:09:06.164Z</time></trkpt><trkpt lat="46.1402875" lon="13.6131038"><ele>533.0</ele><time>2026-05-02T09:09:07.14Z</time></trkpt><trkpt lat="46.1403506" lon="13.6131955"><ele>535.5</ele><time>2026-05-02T09:09:08.181Z</time></trkpt><trkpt lat="46.1404061" lon="13.6132808"><ele>538.0</ele><time>2026-05-02T09:09:09.146Z</time></trkpt><trkpt lat="46.1404496" lon="13.6133777"><ele>540.5</ele><time>2026-05-02T09:09:10.151Z</time></trkpt><trkpt lat="46.1404838" lon="13.6134913"><ele>543.0</ele><time>2026-05-02T09:09:11.146Z</time></trkpt><trkpt lat="46.1405215" lon="13.6136324"><ele>545.5</ele><time>2026-05-02T09:09:12.142Z</time></trkpt><trkpt lat="46.140555" lon="13.6137619"><ele>548.0</ele><time>2026-05-02T09:09:13.148Z</time></trkpt><trkpt lat="46.1405544" lon="13.6138679"><ele>550.1666666666666</ele><time>2026-05-02T09:09:14.144Z</time></trkpt><trkpt lat="46.1404929" lon="13.613928"><ele>552.3333333333333</ele><time>2026-05-02T09:09:17.151Z</time></trkpt><trkpt lat="46.1404057" lon="13.6138087"><ele>554.5</ele><time>2026-05-02T09:09:19.147Z</time></trkpt><trkpt lat="46.1403621" lon="13.6137164"><ele>556.6666666666666</ele><time>2026-05-02T09:09:20.146Z</time></trkpt><trkpt lat="46.1402757" lon="13.6136653"><ele>558.8333333333334</ele><time>2026-05-02T09:09:22.152Z</time></trkpt><trkpt lat="46.1402428" lon="13.6137434"><ele>561.0</ele><time>2026-05-02T09:09:23.148Z</time></trkpt><trkpt lat="46.1402627" lon="13.6138841"><ele>561.0</ele><time>2026-05-02T09:09:25.143Z</time></trkpt><trkpt lat="46.1403141" lon="13.6139902"><ele>561.0</ele><time>2026-05-02T09:09:26.145Z</time></trkpt><trkpt lat="46.1403781" lon="13.6141175"><ele>561.0</ele><time>2026-05-02T09:09:27.152Z</time></trkpt><trkpt lat="46.1404418" lon="13.6142588"><ele>561.0</ele><time>2026-05-02T09:09:28.143Z</time></trkpt><trkpt lat="46.1404899" lon="13.6144002"><ele>561.0</ele><time>2026-05-02T09:09:29.138Z</time></trkpt><trkpt lat="46.1405179" lon="13.6145391"><ele>563.6</ele><time>2026-05-02T09:09:30.141Z</time></trkpt><trkpt lat="46.1405234" lon="13.6146573"><ele>566.2</ele><time>2026-05-02T09:09:31.147Z</time></trkpt><trkpt lat="46.1404641" lon="13.6147788"><ele>568.8</ele><time>2026-05-02T09:09:33.145Z</time></trkpt><trkpt lat="46.1403439" lon="13.6147367"><ele>571.4</ele><time>2026-05-02T09:09:35.142Z</time></trkpt><trkpt lat="46.1402831" lon="13.6146849"><ele>574.0</ele><time>2026-05-02T09:09:36.144Z</time></trkpt><trkpt lat="46.140219" lon="13.6146285"><ele>574.0</ele><time>2026-05-02T09:09:37.145Z</time></trkpt><trkpt lat="46.1401537" lon="13.6145705"><ele>574.0</ele><time>2026-05-02T09:09:38.177Z</time></trkpt><trkpt lat="46.1400774" lon="13.6144785"><ele>574.0</ele><time>2026-05-02T09:09:39.17Z</time></trkpt><trkpt lat="46.1399985" lon="13.6143736"><ele>574.0</ele><time>2026-05-02T09:09:40.155Z</time></trkpt><trkpt lat="46.13991" lon="13.6142553"><ele>574.0</ele><time>2026-05-02T09:09:41.142Z</time></trkpt><trkpt lat="46.1398225" lon="13.6141403"><ele>576.0</ele><time>2026-05-02T09:09:42.151Z</time></trkpt><trkpt lat="46.1397581" lon="13.6140175"><ele>578.0</ele><time>2026-05-02T09:09:43.147Z</time></trkpt><trkpt lat="46.1397121" lon="13.6139175"><ele>580.0</ele><time>2026-05-02T09:09:44.147Z</time></trkpt><trkpt lat="46.1396455" lon="13.6138486"><ele>582.0</ele><time>2026-05-02T09:09:45.15Z</time></trkpt><trkpt lat="46.1395598" lon="13.6137907"><ele>584.0</ele><time>2026-05-02T09:09:46.156Z</time></trkpt><trkpt lat="46.1394794" lon="13.6137514"><ele>584.0</ele><time>2026-05-02T09:09:47.141Z</time></trkpt><trkpt lat="46.1394127" lon="13.6137051"><ele>584.0</ele><time>2026-05-02T09:09:48.177Z</time></trkpt><trkpt lat="46.1393588" lon="13.6136273"><ele>584.0</ele><time>2026-05-02T09:09:49.143Z</time></trkpt><trkpt lat="46.1393" lon="13.6135343"><ele>584.0</ele><time>2026-05-02T09:09:50.159Z</time></trkpt><trkpt lat="46.1392542" lon="13.613455"><ele>584.0</ele><time>2026-05-02T09:09:51.148Z</time></trkpt><trkpt lat="46.1391979" lon="13.6133796"><ele>584.0</ele><time>2026-05-02T09:09:53.16Z</time></trkpt><trkpt lat="46.1391086" lon="13.6134701"><ele>581.6</ele><time>2026-05-02T09:10:30.157Z</time></trkpt><trkpt lat="46.1390438" lon="13.6135255"><ele>579.2</ele><time>2026-05-02T09:10:31.157Z</time></trkpt><trkpt lat="46.1389694" lon="13.6135935"><ele>576.8000000000001</ele><time>2026-05-02T09:10:32.155Z</time></trkpt><trkpt lat="46.1389039" lon="13.6136886"><ele>574.4</ele><time>2026-05-02T09:10:33.15Z</time></trkpt><trkpt lat="46.1388433" lon="13.6137918"><ele>572.0</ele><time>2026-05-02T09:10:34.156Z</time></trkpt><trkpt lat="46.138788" lon="13.6139289"><ele>572.0</ele><time>2026-05-02T09:10:35.158Z</time></trkpt><trkpt lat="46.1387256" lon="13.6140752"><ele>572.0</ele><time>2026-05-02T09:10:36.152Z</time></trkpt><trkpt lat="46.1386406" lon="13.6142078"><ele>572.0</ele><time>2026-05-02T09:10:37.155Z</time></trkpt><trkpt lat="46.138539" lon="13.6143088"><ele>572.0</ele><time>2026-05-02T09:10:38.156Z</time></trkpt><trkpt lat="46.1384398" lon="13.6143981"><ele>572.0</ele><time>2026-05-02T09:10:39.144Z</time></trkpt><trkpt lat="46.1383389" lon="13.6144673"><ele>572.0</ele><time>2026-05-02T09:10:40.147Z</time></trkpt><trkpt lat="46.1382296" lon="13.6144893"><ele>572.0</ele><time>2026-05-02T09:10:41.154Z</time></trkpt><trkpt lat="46.1381053" lon="13.6144926"><ele>572.0</ele><time>2026-05-02T09:10:42.155Z</time></trkpt><trkpt lat="46.1379871" lon="13.6144914"><ele>571.8000000000001</ele><time>2026-05-02T09:10:43.146Z</time></trkpt><trkpt lat="46.1378956" lon="13.6145111"><ele>571.6</ele><time>2026-05-02T09:10:44.161Z</time></trkpt><trkpt lat="46.1378219" lon="13.6145688"><ele>571.4000000000001</ele><time>2026-05-02T09:10:45.139Z</time></trkpt><trkpt lat="46.1377605" lon="13.6146712"><ele>571.2</ele><time>2026-05-02T09:10:46.14Z</time></trkpt><trkpt lat="46.1377015" lon="13.6148154"><ele>571.0</ele><time>2026-05-02T09:10:47.134Z</time></trkpt><trkpt lat="46.1376452" lon="13.6149842"><ele>571.0</ele><time>2026-05-02T09:10:48.151Z</time></trkpt><trkpt lat="46.1375988" lon="13.6151691"><ele>571.0</ele><time>2026-05-02T09:10:49.15Z</time></trkpt><trkpt lat="46.1375737" lon="13.6153625"><ele>571.0</ele><time>2026-05-02T09:10:50.141Z</time></trkpt><trkpt lat="46.1375603" lon="13.61555"><ele>571.0</ele><time>2026-05-02T09:10:51.147Z</time></trkpt><trkpt lat="46.1375372" lon="13.6157212"><ele>575.75</ele><time>2026-05-02T09:10:52.157Z</time></trkpt><trkpt lat="46.1374936" lon="13.6158775"><ele>580.5</ele><time>2026-05-02T09:10:53.153Z</time></trkpt><trkpt lat="46.1374183" lon="13.6160136"><ele>585.25</ele><time>2026-05-02T09:10:54.153Z</time></trkpt><trkpt lat="46.1372991" lon="13.6160798"><ele>590.0</ele><time>2026-05-02T09:10:55.141Z</time></trkpt><trkpt lat="46.1371809" lon="13.6161288"><ele>598.0</ele><time>2026-05-02T09:10:56.135Z</time></trkpt><trkpt lat="46.1370642" lon="13.6161789"><ele>606.0</ele><time>2026-05-02T09:10:57.158Z</time></trkpt><trkpt lat="46.1369469" lon="13.6162252"><ele>614.0</ele><time>2026-05-02T09:10:58.163Z</time></trkpt><trkpt lat="46.1368301" lon="13.6162673"><ele>622.0</ele><time>2026-05-02T09:10:59.154Z</time></trkpt><trkpt lat="46.1367015" lon="13.6162721"><ele>622.0</ele><time>2026-05-02T09:11:00.145Z</time></trkpt><trkpt lat="46.136567" lon="13.6162426"><ele>622.0</ele><time>2026-05-02T09:11:01.14Z</time></trkpt><trkpt lat="46.1364373" lon="13.6162005"><ele>622.0</ele><time>2026-05-02T09:11:02.16Z</time></trkpt><trkpt lat="46.1363153" lon="13.6161437"><ele>622.0</ele><time>2026-05-02T09:11:03.144Z</time></trkpt><trkpt lat="46.1362117" lon="13.61608"><ele>622.8333333333334</ele><time>2026-05-02T09:11:04.155Z</time></trkpt><trkpt lat="46.1361197" lon="13.6160259"><ele>623.6666666666667</ele><time>2026-05-02T09:11:05.154Z</time></trkpt><trkpt lat="46.136043" lon="13.6159837"><ele>624.5</ele><time>2026-05-02T09:11:06.154Z</time></trkpt><trkpt lat="46.1359554" lon="13.6159833"><ele>625.3333333333334</ele><time>2026-05-02T09:11:08.17Z</time></trkpt><trkpt lat="46.1360003" lon="13.6160918"><ele>626.1666666666666</ele><time>2026-05-02T09:11:10.163Z</time></trkpt><trkpt lat="46.1360657" lon="13.6161393"><ele>627.0</ele><time>2026-05-02T09:11:11.157Z</time></trkpt><trkpt lat="46.1361677" lon="13.6161861"><ele>627.0</ele><time>2026-05-02T09:11:12.144Z</time></trkpt><trkpt lat="46.1362986" lon="13.6162424"><ele>627.0</ele><time>2026-05-02T09:11:13.152Z</time></trkpt><trkpt lat="46.1364339" lon="13.6163098"><ele>627.0</ele><time>2026-05-02T09:11:14.16Z</time></trkpt><trkpt lat="46.1365762" lon="13.616373"><ele>627.0</ele><time>2026-05-02T09:11:15.138Z</time></trkpt><trkpt lat="46.1367318" lon="13.6164169"><ele>625.3333333333334</ele><time>2026-05-02T09:11:16.154Z</time></trkpt><trkpt lat="46.136893" lon="13.6164413"><ele>623.6666666666667</ele><time>2026-05-02T09:11:17.132Z</time></trkpt><trkpt lat="46.1370589" lon="13.6164294"><ele>622.0</ele><time>2026-05-02T09:11:18.163Z</time></trkpt><trkpt lat="46.137221" lon="13.6164011"><ele>622.0</ele><time>2026-05-02T09:11:19.139Z</time></trkpt><trkpt lat="46.1373694" lon="13.6163448"><ele>622.0</ele><time>2026-05-02T09:11:20.137Z</time></trkpt><trkpt lat="46.1375107" lon="13.6162761"><ele>622.0</ele><time>2026-05-02T09:11:21.143Z</time></trkpt><trkpt lat="46.1376463" lon="13.6161979"><ele>622.0</ele><time>2026-05-02T09:11:22.134Z</time></trkpt><trkpt lat="46.1377648" lon="13.616093"><ele>615.25</ele><time>2026-05-02T09:11:23.156Z</time></trkpt><trkpt lat="46.1378605" lon="13.6159499"><ele>608.5</ele><time>2026-05-02T09:11:24.146Z</time></trkpt><trkpt lat="46.1379437" lon="13.6157648"><ele>601.75</ele><time>2026-05-02T09:11:25.139Z</time></trkpt><trkpt lat="46.138017" lon="13.6155783"><ele>595.0</ele><time>2026-05-02T09:11:26.147Z</time></trkpt><trkpt lat="46.1380865" lon="13.6154054"><ele>596.5</ele><time>2026-05-02T09:11:27.137Z</time></trkpt><trkpt lat="46.1381521" lon="13.6152483"><ele>598.0</ele><time>2026-05-02T09:11:28.147Z</time></trkpt><trkpt lat="46.1382417" lon="13.6151498"><ele>599.5</ele><time>2026-05-02T09:11:29.154Z</time></trkpt><trkpt lat="46.1383563" lon="13.6150966"><ele>601.0</ele><time>2026-05-02T09:11:30.163Z</time></trkpt><trkpt lat="46.138496" lon="13.6150963"><ele>601.0</ele><time>2026-05-02T09:11:31.146Z</time></trkpt><trkpt lat="46.138638" lon="13.6151086"><ele>601.0</ele><time>2026-05-02T09:11:32.144Z</time></trkpt><trkpt lat="46.1387847" lon="13.6151023"><ele>601.0</ele><time>2026-05-02T09:11:33.156Z</time></trkpt><trkpt lat="46.1389241" lon="13.6150652"><ele>601.0</ele><time>2026-05-02T09:11:34.159Z</time></trkpt><trkpt lat="46.1390439" lon="13.6150113"><ele>601.0</ele><time>2026-05-02T09:11:35.15Z</time></trkpt><trkpt lat="46.139146" lon="13.6149789"><ele>601.0</ele><time>2026-05-02T09:11:36.158Z</time></trkpt><trkpt lat="46.1392394" lon="13.6150054"><ele>601.0</ele><time>2026-05-02T09:11:37.159Z</time></trkpt><trkpt lat="46.139316" lon="13.615104"><ele>601.0</ele><time>2026-05-02T09:11:38.153Z</time></trkpt><trkpt lat="46.1393481" lon="13.6152639"><ele>601.0</ele><time>2026-05-02T09:11:39.154Z</time></trkpt><trkpt lat="46.1393544" lon="13.6154517"><ele>603.6666666666667</ele><time>2026-05-02T09:11:40.148Z</time></trkpt><trkpt lat="46.1393416" lon="13.6156721"><ele>606.3333333333334</ele><time>2026-05-02T09:11:41.147Z</time></trkpt><trkpt lat="46.139327" lon="13.6159084"><ele>609.0</ele><time>2026-05-02T09:11:42.148Z</time></trkpt><trkpt lat="46.1393235" lon="13.6161321"><ele>610.8</ele><time>2026-05-02T09:11:43.166Z</time></trkpt><trkpt lat="46.1393461" lon="13.61633"><ele>612.5999999999999</ele><time>2026-05-02T09:11:44.154Z</time></trkpt><trkpt lat="46.139391" lon="13.6164903"><ele>614.4</ele><time>2026-05-02T09:11:45.163Z</time></trkpt><trkpt lat="46.1394355" lon="13.616603"><ele>616.1999999999999</ele><time>2026-05-02T09:11:46.163Z</time></trkpt><trkpt lat="46.1395096" lon="13.6166444"><ele>618.0</ele><time>2026-05-02T09:11:47.146Z</time></trkpt><trkpt lat="46.1395929" lon="13.6166399"><ele>618.0</ele><time>2026-05-02T09:11:48.169Z</time></trkpt><trkpt lat="46.1396971" lon="13.6166163"><ele>618.0</ele><time>2026-05-02T09:11:49.157Z</time></trkpt><trkpt lat="46.139811" lon="13.6165866"><ele>618.0</ele><time>2026-05-02T09:11:50.148Z</time></trkpt><trkpt lat="46.1399365" lon="13.616554"><ele>618.0</ele><time>2026-05-02T09:11:51.15Z</time></trkpt><trkpt lat="46.1400693" lon="13.6165531"><ele>615.0</ele><time>2026-05-02T09:11:52.149Z</time></trkpt><trkpt lat="46.1401945" lon="13.6165779"><ele>612.0</ele><time>2026-05-02T09:11:53.155Z</time></trkpt><trkpt lat="46.1403044" lon="13.6166473"><ele>609.0</ele><time>2026-05-02T09:11:54.148Z</time></trkpt><trkpt lat="46.140397" lon="13.6167575"><ele>606.0</ele><time>2026-05-02T09:11:55.145Z</time></trkpt><trkpt lat="46.1404744" lon="13.6168968"><ele>610.5</ele><time>2026-05-02T09:11:56.15Z</time></trkpt><trkpt lat="46.1405553" lon="13.6170655"><ele>615.0</ele><time>2026-05-02T09:11:57.148Z</time></trkpt><trkpt lat="46.1406143" lon="13.6172256"><ele>619.5</ele><time>2026-05-02T09:11:58.161Z</time></trkpt><trkpt lat="46.1406607" lon="13.6173782"><ele>624.0</ele><time>2026-05-02T09:11:59.181Z</time></trkpt><trkpt lat="46.1406966" lon="13.6174791"><ele>621.75</ele><time>2026-05-02T09:12:00.152Z</time></trkpt><trkpt lat="46.1407986" lon="13.6174918"><ele>619.5</ele><time>2026-05-02T09:12:02.153Z</time></trkpt><trkpt lat="46.140869" lon="13.6173588"><ele>617.25</ele><time>2026-05-02T09:12:03.142Z</time></trkpt><trkpt lat="46.1409245" lon="13.617222"><ele>615.0</ele><time>2026-05-02T09:12:04.153Z</time></trkpt><trkpt lat="46.1410085" lon="13.6170946"><ele>615.0</ele><time>2026-05-02T09:12:05.149Z</time></trkpt><trkpt lat="46.1411261" lon="13.6170231"><ele>615.0</ele><time>2026-05-02T09:12:06.142Z</time></trkpt><trkpt lat="46.1412607" lon="13.6170119"><ele>615.0</ele><time>2026-05-02T09:12:07.151Z</time></trkpt><trkpt lat="46.1413951" lon="13.6170454"><ele>615.0</ele><time>2026-05-02T09:12:08.144Z</time></trkpt><trkpt lat="46.1415178" lon="13.6170803"><ele>615.8</ele><time>2026-05-02T09:12:09.149Z</time></trkpt><trkpt lat="46.1416219" lon="13.6170623"><ele>616.6</ele><time>2026-05-02T09:12:10.157Z</time></trkpt><trkpt lat="46.1416849" lon="13.6169474"><ele>617.4</ele><time>2026-05-02T09:12:11.163Z</time></trkpt><trkpt lat="46.1417238" lon="13.6168044"><ele>618.2</ele><time>2026-05-02T09:12:12.158Z</time></trkpt><trkpt lat="46.1417649" lon="13.6166312"><ele>619.0</ele><time>2026-05-02T09:12:13.16Z</time></trkpt><trkpt lat="46.1418163" lon="13.6164517"><ele>615.5</ele><time>2026-05-02T09:12:14.145Z</time></trkpt><trkpt lat="46.1418742" lon="13.6162736"><ele>612.0</ele><time>2026-05-02T09:12:15.161Z</time></trkpt><trkpt lat="46.1419328" lon="13.6160958"><ele>608.5</ele><time>2026-05-02T09:12:16.153Z</time></trkpt><trkpt lat="46.142003" lon="13.6159426"><ele>605.0</ele><time>2026-05-02T09:12:17.171Z</time></trkpt><trkpt lat="46.1421081" lon="13.6158251"><ele>606.0</ele><time>2026-05-02T09:12:18.17Z</time></trkpt><trkpt lat="46.1422436" lon="13.6157293"><ele>607.0</ele><time>2026-05-02T09:12:19.148Z</time></trkpt><trkpt lat="46.1423858" lon="13.6156301"><ele>608.0</ele><time>2026-05-02T09:12:20.166Z</time></trkpt><trkpt lat="46.1425366" lon="13.6155233"><ele>608.0</ele><time>2026-05-02T09:12:21.146Z</time></trkpt><trkpt lat="46.1426754" lon="13.6154079"><ele>608.0</ele><time>2026-05-02T09:12:22.146Z</time></trkpt><trkpt lat="46.1427959" lon="13.6153069"><ele>608.0</ele><time>2026-05-02T09:12:23.159Z</time></trkpt><trkpt lat="46.1429086" lon="13.6152406"><ele>608.0</ele><time>2026-05-02T09:12:24.157Z</time></trkpt><trkpt lat="46.1430059" lon="13.6152423"><ele>608.0</ele><time>2026-05-02T09:12:25.174Z</time></trkpt><trkpt lat="46.1430848" lon="13.6152746"><ele>608.0</ele><time>2026-05-02T09:12:26.165Z</time></trkpt><trkpt lat="46.1431535" lon="13.6153302"><ele>608.0</ele><time>2026-05-02T09:12:27.173Z</time></trkpt><trkpt lat="46.1432114" lon="13.6154214"><ele>608.0</ele><time>2026-05-02T09:12:28.17Z</time></trkpt><trkpt lat="46.1432486" lon="13.6155607"><ele>608.0</ele><time>2026-05-02T09:12:29.167Z</time></trkpt><trkpt lat="46.143257" lon="13.615729"><ele>608.0</ele><time>2026-05-02T09:12:30.151Z</time></trkpt><trkpt lat="46.1432292" lon="13.6159118"><ele>608.0</ele><time>2026-05-02T09:12:31.152Z</time></trkpt><trkpt lat="46.1432045" lon="13.6160912"><ele>608.0</ele><time>2026-05-02T09:12:32.153Z</time></trkpt><trkpt lat="46.1432098" lon="13.616255"><ele>608.0</ele><time>2026-05-02T09:12:33.15Z</time></trkpt><trkpt lat="46.1432638" lon="13.616411"><ele>608.75</ele><time>2026-05-02T09:12:34.155Z</time></trkpt><trkpt lat="46.1433403" lon="13.6165631"><ele>609.5</ele><time>2026-05-02T09:12:35.164Z</time></trkpt><trkpt lat="46.1434141" lon="13.6167097"><ele>610.25</ele><time>2026-05-02T09:12:36.159Z</time></trkpt><trkpt lat="46.1434421" lon="13.616876"><ele>611.0</ele><time>2026-05-02T09:12:37.164Z</time></trkpt><trkpt lat="46.1434141" lon="13.6170616"><ele>611.5</ele><time>2026-05-02T09:12:38.154Z</time></trkpt><trkpt lat="46.1433533" lon="13.6172348"><ele>612.0</ele><time>2026-05-02T09:12:39.152Z</time></trkpt><trkpt lat="46.1432765" lon="13.6174183"><ele>612.5</ele><time>2026-05-02T09:12:40.152Z</time></trkpt><trkpt lat="46.1432079" lon="13.6176188"><ele>613.0</ele><time>2026-05-02T09:12:41.15Z</time></trkpt><trkpt lat="46.14314" lon="13.6178137"><ele>618.75</ele><time>2026-05-02T09:12:42.156Z</time></trkpt><trkpt lat="46.1430763" lon="13.6179983"><ele>624.5</ele><time>2026-05-02T09:12:43.152Z</time></trkpt><trkpt lat="46.143019" lon="13.6181782"><ele>630.25</ele><time>2026-05-02T09:12:44.161Z</time></trkpt><trkpt lat="46.1429787" lon="13.6183465"><ele>636.0</ele><time>2026-05-02T09:12:45.142Z</time></trkpt><trkpt lat="46.1429802" lon="13.6185194"><ele>637.5</ele><time>2026-05-02T09:12:46.159Z</time></trkpt><trkpt lat="46.1430241" lon="13.618691"><ele>639.0</ele><time>2026-05-02T09:12:47.151Z</time></trkpt><trkpt lat="46.1430908" lon="13.6188486"><ele>640.5</ele><time>2026-05-02T09:12:48.171Z</time></trkpt><trkpt lat="46.143136" lon="13.6190047"><ele>642.0</ele><time>2026-05-02T09:12:49.154Z</time></trkpt><trkpt lat="46.1431497" lon="13.6191945"><ele>642.0</ele><time>2026-05-02T09:12:50.159Z</time></trkpt><trkpt lat="46.1431382" lon="13.6194006"><ele>642.0</ele><time>2026-05-02T09:12:51.153Z</time></trkpt><trkpt lat="46.1431299" lon="13.6196187"><ele>642.0</ele><time>2026-05-02T09:12:52.147Z</time></trkpt><trkpt lat="46.1431069" lon="13.6198331"><ele>642.0</ele><time>2026-05-02T09:12:53.147Z</time></trkpt><trkpt lat="46.1430739" lon="13.6200354"><ele>639.3333333333334</ele><time>2026-05-02T09:12:54.15Z</time></trkpt><trkpt lat="46.1430284" lon="13.620234"><ele>636.6666666666667</ele><time>2026-05-02T09:12:55.152Z</time></trkpt><trkpt lat="46.1429714" lon="13.6204409"><ele>634.0</ele><time>2026-05-02T09:12:56.15Z</time></trkpt><trkpt lat="46.1429171" lon="13.6206441"><ele>631.5</ele><time>2026-05-02T09:12:57.142Z</time></trkpt><trkpt lat="46.1428713" lon="13.6208349"><ele>629.0</ele><time>2026-05-02T09:12:58.149Z</time></trkpt><trkpt lat="46.1428418" lon="13.6210116"><ele>626.5</ele><time>2026-05-02T09:12:59.153Z</time></trkpt><trkpt lat="46.142839" lon="13.6211968"><ele>624.0</ele><time>2026-05-02T09:13:00.143Z</time></trkpt><trkpt lat="46.142852" lon="13.6213647"><ele>620.0</ele><time>2026-05-02T09:13:01.151Z</time></trkpt><trkpt lat="46.1428916" lon="13.6215271"><ele>616.0</ele><time>2026-05-02T09:13:02.145Z</time></trkpt><trkpt lat="46.1429621" lon="13.6216584"><ele>612.0</ele><time>2026-05-02T09:13:03.151Z</time></trkpt><trkpt lat="46.1430621" lon="13.6217794"><ele>608.0</ele><time>2026-05-02T09:13:04.136Z</time></trkpt><trkpt lat="46.1431573" lon="13.6218969"><ele>606.1999999999999</ele><time>2026-05-02T09:13:05.13Z</time></trkpt><trkpt lat="46.1432387" lon="13.6220144"><ele>604.4</ele><time>2026-05-02T09:13:06.153Z</time></trkpt><trkpt lat="46.1432991" lon="13.6221389"><ele>602.5999999999999</ele><time>2026-05-02T09:13:07.149Z</time></trkpt><trkpt lat="46.1433164" lon="13.6222878"><ele>600.8</ele><time>2026-05-02T09:13:08.157Z</time></trkpt><trkpt lat="46.1432861" lon="13.6224539"><ele>599.0</ele><time>2026-05-02T09:13:09.15Z</time></trkpt><trkpt lat="46.1432531" lon="13.6226308"><ele>599.0</ele><time>2026-05-02T09:13:10.162Z</time></trkpt><trkpt lat="46.1432297" lon="13.6228012"><ele>599.0</ele><time>2026-05-02T09:13:11.152Z</time></trkpt><trkpt lat="46.1432354" lon="13.6229961"><ele>599.0</ele><time>2026-05-02T09:13:12.16Z</time></trkpt><trkpt lat="46.1432655" lon="13.6231668"><ele>599.0</ele><time>2026-05-02T09:13:13.149Z</time></trkpt><trkpt lat="46.1433047" lon="13.6233199"><ele>598.2</ele><time>2026-05-02T09:13:14.152Z</time></trkpt><trkpt lat="46.1433665" lon="13.6234222"><ele>597.4</ele><time>2026-05-02T09:13:15.166Z</time></trkpt><trkpt lat="46.1434428" lon="13.6235158"><ele>596.6</ele><time>2026-05-02T09:13:16.151Z</time></trkpt><trkpt lat="46.1435485" lon="13.6235651"><ele>595.8</ele><time>2026-05-02T09:13:17.153Z</time></trkpt><trkpt lat="46.1436517" lon="13.6236392"><ele>595.0</ele><time>2026-05-02T09:13:18.143Z</time></trkpt><trkpt lat="46.1437374" lon="13.6237488"><ele>593.75</ele><time>2026-05-02T09:13:19.153Z</time></trkpt><trkpt lat="46.1438085" lon="13.6238859"><ele>592.5</ele><time>2026-05-02T09:13:20.142Z</time></trkpt><trkpt lat="46.143874" lon="13.6240407"><ele>591.25</ele><time>2026-05-02T09:13:21.154Z</time></trkpt><trkpt lat="46.1439299" lon="13.6242035"><ele>590.0</ele><time>2026-05-02T09:13:22.163Z</time></trkpt><trkpt lat="46.1439801" lon="13.6243682"><ele>587.8</ele><time>2026-05-02T09:13:23.153Z</time></trkpt><trkpt lat="46.144014" lon="13.6245352"><ele>585.6</ele><time>2026-05-02T09:13:24.14Z</time></trkpt><trkpt lat="46.1440324" lon="13.6246698"><ele>583.4</ele><time>2026-05-02T09:13:25.145Z</time></trkpt><trkpt lat="46.144059" lon="13.6247695"><ele>581.2</ele><time>2026-05-02T09:13:26.15Z</time></trkpt><trkpt lat="46.1441142" lon="13.6249064"><ele>579.0</ele><time>2026-05-02T09:13:28.158Z</time></trkpt><trkpt lat="46.1441009" lon="13.6247961"><ele>579.0</ele><time>2026-05-02T09:13:33.14Z</time></trkpt><trkpt lat="46.1440482" lon="13.624729"><ele>579.0</ele><time>2026-05-02T09:13:34.147Z</time></trkpt><trkpt lat="46.1439642" lon="13.6246264"><ele>579.0</ele><time>2026-05-02T09:13:36.162Z</time></trkpt><trkpt lat="46.143861" lon="13.624545"><ele>579.0</ele><time>2026-05-02T09:13:38.17Z</time></trkpt><trkpt lat="46.1437901" lon="13.6245193"><ele>579.0</ele><time>2026-05-02T09:13:40.166Z</time></trkpt><trkpt lat="46.1438055" lon="13.6246208"><ele>579.0</ele><time>2026-05-02T09:13:44.158Z</time></trkpt><trkpt lat="46.1438867" lon="13.6247742"><ele>579.0</ele><time>2026-05-02T09:13:46.144Z</time></trkpt><trkpt lat="46.1439448" lon="13.624877"><ele>579.0</ele><time>2026-05-02T09:13:47.155Z</time></trkpt><trkpt lat="46.1440058" lon="13.6250028"><ele>579.0</ele><time>2026-05-02T09:13:48.168Z</time></trkpt><trkpt lat="46.1440613" lon="13.6251258"><ele>579.0</ele><time>2026-05-02T09:13:49.159Z</time></trkpt><trkpt lat="46.1441153" lon="13.6252434"><ele>579.0</ele><time>2026-05-02T09:13:50.16Z</time></trkpt><trkpt lat="46.1441656" lon="13.6253617"><ele>584.2</ele><time>2026-05-02T09:13:51.153Z</time></trkpt><trkpt lat="46.1441982" lon="13.6254964"><ele>589.4</ele><time>2026-05-02T09:13:52.164Z</time></trkpt><trkpt lat="46.1442232" lon="13.6256446"><ele>594.6</ele><time>2026-05-02T09:13:53.151Z</time></trkpt><trkpt lat="46.1442502" lon="13.6258014"><ele>599.8</ele><time>2026-05-02T09:13:54.152Z</time></trkpt><trkpt lat="46.1442786" lon="13.6259664"><ele>605.0</ele><time>2026-05-02T09:13:55.169Z</time></trkpt><trkpt lat="46.1443012" lon="13.6261436"><ele>605.0</ele><time>2026-05-02T09:13:56.169Z</time></trkpt><trkpt lat="46.1443169" lon="13.6263346"><ele>605.0</ele><time>2026-05-02T09:13:57.17Z</time></trkpt><trkpt lat="46.1443325" lon="13.6265234"><ele>605.0</ele><time>2026-05-02T09:13:58.159Z</time></trkpt><trkpt lat="46.1443478" lon="13.6267063"><ele>605.0</ele><time>2026-05-02T09:13:59.15Z</time></trkpt><trkpt lat="46.1443675" lon="13.6268716"><ele>604.2</ele><time>2026-05-02T09:14:00.16Z</time></trkpt><trkpt lat="46.1443802" lon="13.627022"><ele>603.4</ele><time>2026-05-02T09:14:01.158Z</time></trkpt><trkpt lat="46.1444018" lon="13.627156"><ele>602.6</ele><time>2026-05-02T09:14:02.154Z</time></trkpt><trkpt lat="46.1444302" lon="13.6272681"><ele>601.8</ele><time>2026-05-02T09:14:03.155Z</time></trkpt><trkpt lat="46.1444765" lon="13.6273603"><ele>601.0</ele><time>2026-05-02T09:14:04.156Z</time></trkpt><trkpt lat="46.1445454" lon="13.6274584"><ele>601.0</ele><time>2026-05-02T09:14:05.143Z</time></trkpt><trkpt lat="46.1446247" lon="13.6275609"><ele>601.0</ele><time>2026-05-02T09:14:06.164Z</time></trkpt><trkpt lat="46.1447002" lon="13.6276552"><ele>601.0</ele><time>2026-05-02T09:14:07.168Z</time></trkpt><trkpt lat="46.144764" lon="13.6277485"><ele>601.0</ele><time>2026-05-02T09:14:08.169Z</time></trkpt><trkpt lat="46.14484" lon="13.6278211"><ele>601.0</ele><time>2026-05-02T09:14:09.167Z</time></trkpt><trkpt lat="46.1449422" lon="13.6278778"><ele>601.8</ele><time>2026-05-02T09:14:10.158Z</time></trkpt><trkpt lat="46.1450481" lon="13.6279301"><ele>602.6</ele><time>2026-05-02T09:14:11.153Z</time></trkpt><trkpt lat="46.1451345" lon="13.6279858"><ele>603.4</ele><time>2026-05-02T09:14:12.173Z</time></trkpt><trkpt lat="46.1451916" lon="13.6280651"><ele>604.2</ele><time>2026-05-02T09:14:13.151Z</time></trkpt><trkpt lat="46.1452432" lon="13.6281775"><ele>605.0</ele><time>2026-05-02T09:14:14.151Z</time></trkpt><trkpt lat="46.145292" lon="13.6283172"><ele>605.0</ele><time>2026-05-02T09:14:15.138Z</time></trkpt><trkpt lat="46.1453538" lon="13.6284374"><ele>605.0</ele><time>2026-05-02T09:14:16.158Z</time></trkpt><trkpt lat="46.1454279" lon="13.628541"><ele>605.0</ele><time>2026-05-02T09:14:17.147Z</time></trkpt><trkpt lat="46.1455182" lon="13.628643"><ele>605.0</ele><time>2026-05-02T09:14:18.159Z</time></trkpt><trkpt lat="46.145617" lon="13.6287417"><ele>605.0</ele><time>2026-05-02T09:14:19.146Z</time></trkpt><trkpt lat="46.1457034" lon="13.628823"><ele>610.8</ele><time>2026-05-02T09:14:20.153Z</time></trkpt><trkpt lat="46.1457729" lon="13.6288815"><ele>616.6</ele><time>2026-05-02T09:14:21.145Z</time></trkpt><trkpt lat="46.1458412" lon="13.6289962"><ele>622.4</ele><time>2026-05-02T09:14:23.159Z</time></trkpt><trkpt lat="46.1458539" lon="13.6290877"><ele>628.2</ele><time>2026-05-02T09:14:24.141Z</time></trkpt><trkpt lat="46.1458294" lon="13.6292265"><ele>634.0</ele><time>2026-05-02T09:14:25.135Z</time></trkpt><trkpt lat="46.1457617" lon="13.6294304"><ele>622.5</ele><time>2026-05-02T09:14:26.148Z</time></trkpt><trkpt lat="46.1456891" lon="13.6296336"><ele>611.0</ele><time>2026-05-02T09:14:27.145Z</time></trkpt><trkpt lat="46.1456391" lon="13.6298422"><ele>599.5</ele><time>2026-05-02T09:14:28.146Z</time></trkpt><trkpt lat="46.1455968" lon="13.630028"><ele>588.0</ele><time>2026-05-02T09:14:29.15Z</time></trkpt><trkpt lat="46.1455483" lon="13.6301945"><ele>591.0</ele><time>2026-05-02T09:14:30.145Z</time></trkpt><trkpt lat="46.1454773" lon="13.6303408"><ele>594.0</ele><time>2026-05-02T09:14:31.147Z</time></trkpt><trkpt lat="46.1453857" lon="13.6304641"><ele>597.0</ele><time>2026-05-02T09:14:32.127Z</time></trkpt><trkpt lat="46.1453079" lon="13.6305657"><ele>600.0</ele><time>2026-05-02T09:14:33.151Z</time></trkpt><trkpt lat="46.1452572" lon="13.6306576"><ele>603.0</ele><time>2026-05-02T09:14:34.154Z</time></trkpt><trkpt lat="46.1452251" lon="13.6307449"><ele>603.0</ele><time>2026-05-02T09:14:35.153Z</time></trkpt><trkpt lat="46.1452112" lon="13.6308809"><ele>603.0</ele><time>2026-05-02T09:14:37.151Z</time></trkpt><trkpt lat="46.1452419" lon="13.6309736"><ele>603.0</ele><time>2026-05-02T09:14:38.168Z</time></trkpt><trkpt lat="46.1452918" lon="13.6310821"><ele>603.0</ele><time>2026-05-02T09:14:39.144Z</time></trkpt><trkpt lat="46.1453423" lon="13.6311742"><ele>603.0</ele><time>2026-05-02T09:14:40.151Z</time></trkpt><trkpt lat="46.1453985" lon="13.6312517"><ele>603.0</ele><time>2026-05-02T09:14:41.148Z</time></trkpt><trkpt lat="46.1454809" lon="13.6313429"><ele>599.6</ele><time>2026-05-02T09:14:42.16Z</time></trkpt><trkpt lat="46.1455607" lon="13.6314351"><ele>596.1999999999999</ele><time>2026-05-02T09:14:43.147Z</time></trkpt><trkpt lat="46.1456446" lon="13.631511"><ele>592.8</ele><time>2026-05-02T09:14:44.156Z</time></trkpt><trkpt lat="46.1457232" lon="13.6315731"><ele>589.4</ele><time>2026-05-02T09:14:45.146Z</time></trkpt><trkpt lat="46.1458232" lon="13.6316268"><ele>586.0</ele><time>2026-05-02T09:14:46.156Z</time></trkpt><trkpt lat="46.1459313" lon="13.6316783"><ele>591.4</ele><time>2026-05-02T09:14:47.162Z</time></trkpt><trkpt lat="46.1460272" lon="13.6317298"><ele>596.8</ele><time>2026-05-02T09:14:48.166Z</time></trkpt><trkpt lat="46.1461078" lon="13.6317626"><ele>602.1999999999999</ele><time>2026-05-02T09:14:49.174Z</time></trkpt><trkpt lat="46.1461747" lon="13.6317886"><ele>607.6</ele><time>2026-05-02T09:14:50.143Z</time></trkpt><trkpt lat="46.1462581" lon="13.6318501"><ele>613.0</ele><time>2026-05-02T09:14:52.148Z</time></trkpt><trkpt lat="46.1462272" lon="13.6320112"><ele>613.0</ele><time>2026-05-02T09:14:54.144Z</time></trkpt><trkpt lat="46.1461712" lon="13.6321467"><ele>613.0</ele><time>2026-05-02T09:14:55.155Z</time></trkpt><trkpt lat="46.1461083" lon="13.6322844"><ele>613.0</ele><time>2026-05-02T09:14:56.136Z</time></trkpt><trkpt lat="46.1460386" lon="13.6324267"><ele>613.0</ele><time>2026-05-02T09:14:57.15Z</time></trkpt><trkpt lat="46.145978" lon="13.632587"><ele>613.0</ele><time>2026-05-02T09:14:58.155Z</time></trkpt><trkpt lat="46.1459241" lon="13.6327463"><ele>613.0</ele><time>2026-05-02T09:14:59.145Z</time></trkpt><trkpt lat="46.1458762" lon="13.6328929"><ele>613.0</ele><time>2026-05-02T09:15:00.15Z</time></trkpt><trkpt lat="46.1458294" lon="13.6330333"><ele>613.0</ele><time>2026-05-02T09:15:01.141Z</time></trkpt><trkpt lat="46.1457808" lon="13.6331684"><ele>613.0</ele><time>2026-05-02T09:15:02.144Z</time></trkpt><trkpt lat="46.1457145" lon="13.6333052"><ele>608.75</ele><time>2026-05-02T09:15:03.152Z</time></trkpt><trkpt lat="46.1456394" lon="13.6334455"><ele>604.5</ele><time>2026-05-02T09:15:04.153Z</time></trkpt><trkpt lat="46.1455672" lon="13.6335957"><ele>600.25</ele><time>2026-05-02T09:15:05.149Z</time></trkpt><trkpt lat="46.1455078" lon="13.6337454"><ele>596.0</ele><time>2026-05-02T09:15:06.154Z</time></trkpt><trkpt lat="46.1454559" lon="13.6338907"><ele>596.0</ele><time>2026-05-02T09:15:07.158Z</time></trkpt><trkpt lat="46.1453965" lon="13.6340121"><ele>596.0</ele><time>2026-05-02T09:15:08.162Z</time></trkpt><trkpt lat="46.1453291" lon="13.6341129"><ele>596.0</ele><time>2026-05-02T09:15:09.144Z</time></trkpt><trkpt lat="46.1452416" lon="13.6342097"><ele>596.0</ele><time>2026-05-02T09:15:10.15Z</time></trkpt><trkpt lat="46.1451607" lon="13.6343137"><ele>596.0</ele><time>2026-05-02T09:15:11.15Z</time></trkpt><trkpt lat="46.1451034" lon="13.6344073"><ele>595.1666666666666</ele><time>2026-05-02T09:15:12.14Z</time></trkpt><trkpt lat="46.145072" lon="13.6344892"><ele>594.3333333333333</ele><time>2026-05-02T09:15:13.146Z</time></trkpt><trkpt lat="46.1450789" lon="13.6346524"><ele>593.5</ele><time>2026-05-02T09:15:15.145Z</time></trkpt><trkpt lat="46.1451181" lon="13.6347509"><ele>592.6666666666666</ele><time>2026-05-02T09:15:16.164Z</time></trkpt><trkpt lat="46.1451673" lon="13.6348454"><ele>591.8333333333334</ele><time>2026-05-02T09:15:17.162Z</time></trkpt><trkpt lat="46.145239" lon="13.6349201"><ele>591.0</ele><time>2026-05-02T09:15:18.176Z</time></trkpt><trkpt lat="46.1453453" lon="13.6349784"><ele>591.0</ele><time>2026-05-02T09:15:19.174Z</time></trkpt><trkpt lat="46.1454661" lon="13.6350213"><ele>591.0</ele><time>2026-05-02T09:15:20.159Z</time></trkpt><trkpt lat="46.1455817" lon="13.6350648"><ele>591.0</ele><time>2026-05-02T09:15:21.152Z</time></trkpt><trkpt lat="46.1456823" lon="13.6351169"><ele>591.0</ele><time>2026-05-02T09:15:22.17Z</time></trkpt><trkpt lat="46.1457719" lon="13.6351658"><ele>591.0</ele><time>2026-05-02T09:15:23.164Z</time></trkpt><trkpt lat="46.1458518" lon="13.6352109"><ele>593.5</ele><time>2026-05-02T09:15:24.161Z</time></trkpt><trkpt lat="46.1459228" lon="13.6352704"><ele>596.0</ele><time>2026-05-02T09:15:25.158Z</time></trkpt><trkpt lat="46.1459917" lon="13.6353605"><ele>598.5</ele><time>2026-05-02T09:15:26.16Z</time></trkpt><trkpt lat="46.1460596" lon="13.6354571"><ele>601.0</ele><time>2026-05-02T09:15:27.146Z</time></trkpt><trkpt lat="46.146112" lon="13.6355545"><ele>603.5</ele><time>2026-05-02T09:15:28.15Z</time></trkpt><trkpt lat="46.1461398" lon="13.6356449"><ele>606.0</ele><time>2026-05-02T09:15:29.151Z</time></trkpt><trkpt lat="46.1461481" lon="13.6357486"><ele>606.0</ele><time>2026-05-02T09:15:30.123Z</time></trkpt><trkpt lat="46.1461398" lon="13.6358639"><ele>606.0</ele><time>2026-05-02T09:15:31.133Z</time></trkpt><trkpt lat="46.1461162" lon="13.6359799"><ele>606.0</ele><time>2026-05-02T09:15:32.137Z</time></trkpt><trkpt lat="46.1460681" lon="13.6360795"><ele>606.0</ele><time>2026-05-02T09:15:33.142Z</time></trkpt><trkpt lat="46.1460003" lon="13.6361734"><ele>606.0</ele><time>2026-05-02T09:15:34.134Z</time></trkpt><trkpt lat="46.1459315" lon="13.6362763"><ele>606.0</ele><time>2026-05-02T09:15:35.143Z</time></trkpt><trkpt lat="46.1458676" lon="13.63641"><ele>608.25</ele><time>2026-05-02T09:15:36.159Z</time></trkpt><trkpt lat="46.1458157" lon="13.6365576"><ele>610.5</ele><time>2026-05-02T09:15:37.156Z</time></trkpt><trkpt lat="46.145771" lon="13.6367062"><ele>612.75</ele><time>2026-05-02T09:15:38.144Z</time></trkpt><trkpt lat="46.1457176" lon="13.6368513"><ele>615.0</ele><time>2026-05-02T09:15:39.127Z</time></trkpt><trkpt lat="46.1456588" lon="13.6369837"><ele>609.2</ele><time>2026-05-02T09:15:40.125Z</time></trkpt><trkpt lat="46.1455911" lon="13.6371018"><ele>603.4</ele><time>2026-05-02T09:15:41.128Z</time></trkpt><trkpt lat="46.1455274" lon="13.6372187"><ele>597.6</ele><time>2026-05-02T09:15:42.15Z</time></trkpt><trkpt lat="46.1454719" lon="13.6373306"><ele>591.8</ele><time>2026-05-02T09:15:43.142Z</time></trkpt><trkpt lat="46.1454225" lon="13.637455"><ele>586.0</ele><time>2026-05-02T09:15:44.149Z</time></trkpt><trkpt lat="46.1453812" lon="13.6376059"><ele>586.0</ele><time>2026-05-02T09:15:45.137Z</time></trkpt><trkpt lat="46.1453405" lon="13.6377517"><ele>586.0</ele><time>2026-05-02T09:15:46.131Z</time></trkpt><trkpt lat="46.1453008" lon="13.6378892"><ele>586.0</ele><time>2026-05-02T09:15:47.14Z</time></trkpt><trkpt lat="46.1452647" lon="13.6380183"><ele>586.0</ele><time>2026-05-02T09:15:48.14Z</time></trkpt><trkpt lat="46.1452336" lon="13.6381355"><ele>586.0</ele><time>2026-05-02T09:15:49.14Z</time></trkpt><trkpt lat="46.1451979" lon="13.6382314"><ele>587.5</ele><time>2026-05-02T09:15:50.128Z</time></trkpt><trkpt lat="46.1451548" lon="13.6382997"><ele>589.0</ele><time>2026-05-02T09:15:51.145Z</time></trkpt><trkpt lat="46.145046" lon="13.6383531"><ele>590.5</ele><time>2026-05-02T09:15:53.173Z</time></trkpt><trkpt lat="46.1449765" lon="13.638356"><ele>592.0</ele><time>2026-05-02T09:15:54.139Z</time></trkpt><trkpt lat="46.1448957" lon="13.6383428"><ele>593.5</ele><time>2026-05-02T09:15:55.139Z</time></trkpt><trkpt lat="46.1447949" lon="13.6382999"><ele>595.0</ele><time>2026-05-02T09:15:56.141Z</time></trkpt><trkpt lat="46.1446866" lon="13.6382558"><ele>595.0</ele><time>2026-05-02T09:15:57.142Z</time></trkpt><trkpt lat="46.1445805" lon="13.6382057"><ele>595.0</ele><time>2026-05-02T09:15:58.168Z</time></trkpt><trkpt lat="46.1444554" lon="13.6381598"><ele>595.0</ele><time>2026-05-02T09:15:59.144Z</time></trkpt><trkpt lat="46.1443375" lon="13.6381134"><ele>595.0</ele><time>2026-05-02T09:16:00.147Z</time></trkpt><trkpt lat="46.1442346" lon="13.6381038"><ele>595.0</ele><time>2026-05-02T09:16:01.147Z</time></trkpt><trkpt lat="46.1441311" lon="13.638133"><ele>595.0</ele><time>2026-05-02T09:16:02.146Z</time></trkpt><trkpt lat="46.1440445" lon="13.6381913"><ele>595.0</ele><time>2026-05-02T09:16:03.147Z</time></trkpt><trkpt lat="46.1439645" lon="13.6382532"><ele>595.0</ele><time>2026-05-02T09:16:04.155Z</time></trkpt><trkpt lat="46.1438619" lon="13.6383271"><ele>595.0</ele><time>2026-05-02T09:16:05.147Z</time></trkpt><trkpt lat="46.1437552" lon="13.6383936"><ele>593.6</ele><time>2026-05-02T09:16:06.144Z</time></trkpt><trkpt lat="46.1436685" lon="13.6384552"><ele>592.2</ele><time>2026-05-02T09:16:07.153Z</time></trkpt><trkpt lat="46.1435861" lon="13.6385073"><ele>590.8</ele><time>2026-05-02T09:16:08.152Z</time></trkpt><trkpt lat="46.14351" lon="13.6385215"><ele>589.4</ele><time>2026-05-02T09:16:09.14Z</time></trkpt><trkpt lat="46.1434208" lon="13.6385063"><ele>588.0</ele><time>2026-05-02T09:16:10.142Z</time></trkpt><trkpt lat="46.1433127" lon="13.6384842"><ele>588.0</ele><time>2026-05-02T09:16:11.148Z</time></trkpt><trkpt lat="46.1431991" lon="13.6384719"><ele>588.0</ele><time>2026-05-02T09:16:12.134Z</time></trkpt><trkpt lat="46.1430785" lon="13.6384588"><ele>588.0</ele><time>2026-05-02T09:16:13.133Z</time></trkpt><trkpt lat="46.1429655" lon="13.6384466"><ele>588.0</ele><time>2026-05-02T09:16:14.149Z</time></trkpt><trkpt lat="46.1428528" lon="13.6384488"><ele>588.0</ele><time>2026-05-02T09:16:15.152Z</time></trkpt><trkpt lat="46.1427444" lon="13.6384522"><ele>588.0</ele><time>2026-05-02T09:16:16.141Z</time></trkpt><trkpt lat="46.1426544" lon="13.6384718"><ele>588.0</ele><time>2026-05-02T09:16:17.145Z</time></trkpt><trkpt lat="46.1425873" lon="13.6385163"><ele>588.0</ele><time>2026-05-02T09:16:18.128Z</time></trkpt><trkpt lat="46.1425294" lon="13.6385728"><ele>588.0</ele><time>2026-05-02T09:16:19.142Z</time></trkpt><trkpt lat="46.1424666" lon="13.6386435"><ele>588.0</ele><time>2026-05-02T09:16:20.158Z</time></trkpt><trkpt lat="46.142392" lon="13.6386943"><ele>586.6</ele><time>2026-05-02T09:16:21.138Z</time></trkpt><trkpt lat="46.1423085" lon="13.6387243"><ele>585.1999999999999</ele><time>2026-05-02T09:16:22.15Z</time></trkpt><trkpt lat="46.142218" lon="13.6387485"><ele>583.8</ele><time>2026-05-02T09:16:23.147Z</time></trkpt><trkpt lat="46.142113" lon="13.6387582"><ele>582.4</ele><time>2026-05-02T09:16:24.144Z</time></trkpt><trkpt lat="46.1419992" lon="13.6387661"><ele>581.0</ele><time>2026-05-02T09:16:25.147Z</time></trkpt><trkpt lat="46.1418884" lon="13.6387725"><ele>581.0</ele><time>2026-05-02T09:16:26.148Z</time></trkpt><trkpt lat="46.1417754" lon="13.6388228"><ele>581.0</ele><time>2026-05-02T09:16:27.149Z</time></trkpt><trkpt lat="46.1416639" lon="13.6388627"><ele>581.0</ele><time>2026-05-02T09:16:28.174Z</time></trkpt><trkpt lat="46.1415695" lon="13.6388966"><ele>581.0</ele><time>2026-05-02T09:16:29.145Z</time></trkpt><trkpt lat="46.1414915" lon="13.6389244"><ele>581.0</ele><time>2026-05-02T09:16:30.139Z</time></trkpt><trkpt lat="46.1414273" lon="13.6389556"><ele>575.2</ele><time>2026-05-02T09:16:31.147Z</time></trkpt><trkpt lat="46.1413925" lon="13.6391058"><ele>569.4000000000001</ele><time>2026-05-02T09:16:33.141Z</time></trkpt><trkpt lat="46.1414031" lon="13.6392006"><ele>563.6</ele><time>2026-05-02T09:16:34.139Z</time></trkpt><trkpt lat="46.1414371" lon="13.6393249"><ele>557.8000000000001</ele><time>2026-05-02T09:16:35.144Z</time></trkpt><trkpt lat="46.1414702" lon="13.639458"><ele>552.0</ele><time>2026-05-02T09:16:36.14Z</time></trkpt><trkpt lat="46.1415083" lon="13.6395943"><ele>554.6666666666666</ele><time>2026-05-02T09:16:37.143Z</time></trkpt><trkpt lat="46.1415341" lon="13.6397434"><ele>557.3333333333334</ele><time>2026-05-02T09:16:38.156Z</time></trkpt><trkpt lat="46.1415505" lon="13.6398745"><ele>560.0</ele><time>2026-05-02T09:16:39.147Z</time></trkpt><trkpt lat="46.1415809" lon="13.6399791"><ele>562.6666666666667</ele><time>2026-05-02T09:16:40.151Z</time></trkpt><trkpt lat="46.1416394" lon="13.6400648"><ele>565.3333333333334</ele><time>2026-05-02T09:16:41.145Z</time></trkpt><trkpt lat="46.1417067" lon="13.6401404"><ele>568.0</ele><time>2026-05-02T09:16:42.155Z</time></trkpt><trkpt lat="46.1417718" lon="13.6402284"><ele>568.0</ele><time>2026-05-02T09:16:43.155Z</time></trkpt><trkpt lat="46.1418249" lon="13.6403103"><ele>568.0</ele><time>2026-05-02T09:16:44.171Z</time></trkpt><trkpt lat="46.1418856" lon="13.640445"><ele>568.0</ele><time>2026-05-02T09:16:46.143Z</time></trkpt><trkpt lat="46.1418345" lon="13.6405143"><ele>568.0</ele><time>2026-05-02T09:16:50.153Z</time></trkpt><trkpt lat="46.1417839" lon="13.6404115"><ele>568.0</ele><time>2026-05-02T09:16:52.159Z</time></trkpt><trkpt lat="46.1417432" lon="13.6403411"><ele>568.0</ele><time>2026-05-02T09:16:53.162Z</time></trkpt><trkpt lat="46.1416899" lon="13.6402701"><ele>568.0</ele><time>2026-05-02T09:16:54.159Z</time></trkpt><trkpt lat="46.141619" lon="13.6402075"><ele>568.0</ele><time>2026-05-02T09:16:55.168Z</time></trkpt><trkpt lat="46.1415338" lon="13.6401631"><ele>568.0</ele><time>2026-05-02T09:16:56.159Z</time></trkpt><trkpt lat="46.1414598" lon="13.640115"><ele>568.0</ele><time>2026-05-02T09:16:57.152Z</time></trkpt><trkpt lat="46.1414032" lon="13.6400499"><ele>568.0</ele><time>2026-05-02T09:16:58.16Z</time></trkpt><trkpt lat="46.1413656" lon="13.6399761"><ele>568.0</ele><time>2026-05-02T09:16:59.162Z</time></trkpt><trkpt lat="46.1413348" lon="13.6398924"><ele>565.3333333333334</ele><time>2026-05-02T09:17:00.175Z</time></trkpt><trkpt lat="46.141302" lon="13.6398014"><ele>562.6666666666667</ele><time>2026-05-02T09:17:01.153Z</time></trkpt><trkpt lat="46.1412588" lon="13.6397283"><ele>560.0</ele><time>2026-05-02T09:17:02.158Z</time></trkpt><trkpt lat="46.1411968" lon="13.639657"><ele>557.3333333333334</ele><time>2026-05-02T09:17:03.157Z</time></trkpt><trkpt lat="46.141119" lon="13.6395944"><ele>554.6666666666666</ele><time>2026-05-02T09:17:04.163Z</time></trkpt><trkpt lat="46.1410326" lon="13.639523"><ele>552.0</ele><time>2026-05-02T09:17:05.155Z</time></trkpt><trkpt lat="46.1409344" lon="13.6394538"><ele>552.0</ele><time>2026-05-02T09:17:06.151Z</time></trkpt><trkpt lat="46.1408286" lon="13.6393961"><ele>552.0</ele><time>2026-05-02T09:17:07.155Z</time></trkpt><trkpt lat="46.1407316" lon="13.639352"><ele>552.0</ele><time>2026-05-02T09:17:08.145Z</time></trkpt><trkpt lat="46.1406327" lon="13.6393233"><ele>552.0</ele><time>2026-05-02T09:17:09.161Z</time></trkpt><trkpt lat="46.1405316" lon="13.6392949"><ele>552.0</ele><time>2026-05-02T09:17:10.16Z</time></trkpt><trkpt lat="46.1404324" lon="13.6392897"><ele>549.6666666666666</ele><time>2026-05-02T09:17:11.155Z</time></trkpt><trkpt lat="46.1403451" lon="13.639277"><ele>547.3333333333334</ele><time>2026-05-02T09:17:12.16Z</time></trkpt><trkpt lat="46.1402755" lon="13.6392742"><ele>545.0</ele><time>2026-05-02T09:17:13.15Z</time></trkpt><trkpt lat="46.1401833" lon="13.6392771"><ele>542.6666666666667</ele><time>2026-05-02T09:17:15.15Z</time></trkpt><trkpt lat="46.1402135" lon="13.63937"><ele>540.3333333333334</ele><time>2026-05-02T09:17:18.155Z</time></trkpt><trkpt lat="46.1403011" lon="13.6394445"><ele>538.0</ele><time>2026-05-02T09:17:20.155Z</time></trkpt><trkpt lat="46.1403677" lon="13.6394814"><ele>536.4</ele><time>2026-05-02T09:17:21.16Z</time></trkpt><trkpt lat="46.1404403" lon="13.6395301"><ele>534.8</ele><time>2026-05-02T09:17:22.163Z</time></trkpt><trkpt lat="46.1405225" lon="13.6396022"><ele>533.2</ele><time>2026-05-02T09:17:23.158Z</time></trkpt><trkpt lat="46.1406093" lon="13.6396882"><ele>531.6</ele><time>2026-05-02T09:17:24.149Z</time></trkpt><trkpt lat="46.1406922" lon="13.6397653"><ele>530.0</ele><time>2026-05-02T09:17:25.154Z</time></trkpt><trkpt lat="46.1407695" lon="13.6398385"><ele>530.0</ele><time>2026-05-02T09:17:26.181Z</time></trkpt><trkpt lat="46.1408442" lon="13.639917"><ele>530.0</ele><time>2026-05-02T09:17:27.153Z</time></trkpt><trkpt lat="46.1408999" lon="13.6399898"><ele>530.0</ele><time>2026-05-02T09:17:28.165Z</time></trkpt><trkpt lat="46.1409576" lon="13.6401195"><ele>530.0</ele><time>2026-05-02T09:17:30.155Z</time></trkpt><trkpt lat="46.1409439" lon="13.6402087"><ele>530.0</ele><time>2026-05-02T09:17:31.14Z</time></trkpt><trkpt lat="46.1408857" lon="13.6403633"><ele>525.6</ele><time>2026-05-02T09:17:33.153Z</time></trkpt><trkpt lat="46.1408577" lon="13.6404749"><ele>521.2</ele><time>2026-05-02T09:17:34.145Z</time></trkpt><trkpt lat="46.1408515" lon="13.6405702"><ele>516.8</ele><time>2026-05-02T09:17:35.143Z</time></trkpt><trkpt lat="46.140872" lon="13.6407278"><ele>512.4</ele><time>2026-05-02T09:17:37.146Z</time></trkpt><trkpt lat="46.1409759" lon="13.6408061"><ele>508.0</ele><time>2026-05-02T09:17:39.143Z</time></trkpt><trkpt lat="46.1410522" lon="13.6408376"><ele>508.0</ele><time>2026-05-02T09:17:40.14Z</time></trkpt><trkpt lat="46.1411239" lon="13.6408808"><ele>507.99999999999994</ele><time>2026-05-02T09:17:41.149Z</time></trkpt><trkpt lat="46.1411833" lon="13.6409213"><ele>507.99999999999994</ele><time>2026-05-02T09:17:42.149Z</time></trkpt><trkpt lat="46.1412132" lon="13.6410224"><ele>508.0</ele><time>2026-05-02T09:17:44.155Z</time></trkpt><trkpt lat="46.1411386" lon="13.6412485"><ele>508.0</ele><time>2026-05-02T09:17:46.149Z</time></trkpt><trkpt lat="46.1411035" lon="13.6413856"><ele>504.25</ele><time>2026-05-02T09:17:47.148Z</time></trkpt><trkpt lat="46.1410819" lon="13.6415308"><ele>500.5</ele><time>2026-05-02T09:17:48.153Z</time></trkpt><trkpt lat="46.1410685" lon="13.6416946"><ele>496.75</ele><time>2026-05-02T09:17:49.157Z</time></trkpt><trkpt lat="46.1410543" lon="13.6418642"><ele>493.0</ele><time>2026-05-02T09:17:50.156Z</time></trkpt><trkpt lat="46.1410418" lon="13.6420328"><ele>493.0</ele><time>2026-05-02T09:17:51.142Z</time></trkpt><trkpt lat="46.1410213" lon="13.6422009"><ele>492.99999999999994</ele><time>2026-05-02T09:17:52.148Z</time></trkpt><trkpt lat="46.1409961" lon="13.6423688"><ele>492.99999999999994</ele><time>2026-05-02T09:17:53.17Z</time></trkpt><trkpt lat="46.1409683" lon="13.6425157"><ele>493.0</ele><time>2026-05-02T09:17:54.161Z</time></trkpt><trkpt lat="46.1409501" lon="13.642637"><ele>493.0</ele><time>2026-05-02T09:17:55.155Z</time></trkpt><trkpt lat="46.1409452" lon="13.6427306"><ele>489.4</ele><time>2026-05-02T09:17:56.157Z</time></trkpt><trkpt lat="46.1410014" lon="13.642892"><ele>485.79999999999995</ele><time>2026-05-02T09:17:58.156Z</time></trkpt><trkpt lat="46.1410553" lon="13.6429398"><ele>482.2</ele><time>2026-05-02T09:17:59.151Z</time></trkpt><trkpt lat="46.1411271" lon="13.6429554"><ele>478.6</ele><time>2026-05-02T09:18:00.152Z</time></trkpt><trkpt lat="46.141216" lon="13.64297"><ele>475.0</ele><time>2026-05-02T09:18:01.151Z</time></trkpt><trkpt lat="46.1413176" lon="13.642975"><ele>475.0</ele><time>2026-05-02T09:18:02.145Z</time></trkpt><trkpt lat="46.1414192" lon="13.6429806"><ele>475.0</ele><time>2026-05-02T09:18:03.145Z</time></trkpt><trkpt lat="46.1415155" lon="13.642996"><ele>475.0</ele><time>2026-05-02T09:18:04.153Z</time></trkpt><trkpt lat="46.1416108" lon="13.6430137"><ele>475.0</ele><time>2026-05-02T09:18:05.156Z</time></trkpt><trkpt lat="46.1417101" lon="13.6430437"><ele>475.0</ele><time>2026-05-02T09:18:06.16Z</time></trkpt><trkpt lat="46.1418051" lon="13.6430619"><ele>477.83333333333337</ele><time>2026-05-02T09:18:07.165Z</time></trkpt><trkpt lat="46.1418996" lon="13.6430777"><ele>480.6666666666667</ele><time>2026-05-02T09:18:08.144Z</time></trkpt><trkpt lat="46.1419766" lon="13.643097"><ele>483.5</ele><time>2026-05-02T09:18:09.165Z</time></trkpt><trkpt lat="46.1420405" lon="13.6431233"><ele>486.33333333333337</ele><time>2026-05-02T09:18:10.156Z</time></trkpt><trkpt lat="46.1421478" lon="13.6432312"><ele>489.1666666666667</ele><time>2026-05-02T09:18:12.148Z</time></trkpt><trkpt lat="46.1422009" lon="13.6432924"><ele>492.0</ele><time>2026-05-02T09:18:13.154Z</time></trkpt><trkpt lat="46.1422649" lon="13.6434119"><ele>492.0</ele><time>2026-05-02T09:18:15.146Z</time></trkpt><trkpt lat="46.1422375" lon="13.6436291"><ele>492.0</ele><time>2026-05-02T09:18:17.135Z</time></trkpt><trkpt lat="46.1422169" lon="13.6438021"><ele>492.0</ele><time>2026-05-02T09:18:18.154Z</time></trkpt><trkpt lat="46.1422112" lon="13.6439984"><ele>492.0</ele><time>2026-05-02T09:18:19.141Z</time></trkpt><trkpt lat="46.1422203" lon="13.6441935"><ele>485.8</ele><time>2026-05-02T09:18:20.16Z</time></trkpt><trkpt lat="46.1422237" lon="13.6443522"><ele>479.6</ele><time>2026-05-02T09:18:21.151Z</time></trkpt><trkpt lat="46.142211" lon="13.6445119"><ele>473.40000000000003</ele><time>2026-05-02T09:18:22.151Z</time></trkpt><trkpt lat="46.1421749" lon="13.6446661"><ele>467.20000000000005</ele><time>2026-05-02T09:18:23.161Z</time></trkpt><trkpt lat="46.1421495" lon="13.6448056"><ele>461.0</ele><time>2026-05-02T09:18:24.145Z</time></trkpt><trkpt lat="46.1421229" lon="13.6449342"><ele>459.5714285714286</ele><time>2026-05-02T09:18:25.157Z</time></trkpt><trkpt lat="46.1421066" lon="13.6450381"><ele>458.1428571428572</ele><time>2026-05-02T09:18:26.148Z</time></trkpt><trkpt lat="46.1421176" lon="13.6451325"><ele>456.7142857142857</ele><time>2026-05-02T09:18:27.153Z</time></trkpt><trkpt lat="46.1421479" lon="13.6452281"><ele>455.28571428571433</ele><time>2026-05-02T09:18:28.157Z</time></trkpt><trkpt lat="46.1421973" lon="13.6453197"><ele>453.8571428571429</ele><time>2026-05-02T09:18:29.145Z</time></trkpt><trkpt lat="46.1422514" lon="13.6453991"><ele>452.42857142857144</ele><time>2026-05-02T09:18:30.151Z</time></trkpt><trkpt lat="46.1423144" lon="13.6454381"><ele>451.0</ele><time>2026-05-02T09:18:31.159Z</time></trkpt><trkpt lat="46.1423927" lon="13.6454496"><ele>451.00000000000006</ele><time>2026-05-02T09:18:32.154Z</time></trkpt><trkpt lat="46.1424824" lon="13.645465"><ele>451.0</ele><time>2026-05-02T09:18:33.159Z</time></trkpt><trkpt lat="46.1425682" lon="13.6454865"><ele>451.0</ele><time>2026-05-02T09:18:34.142Z</time></trkpt><trkpt lat="46.1426466" lon="13.6455251"><ele>451.0</ele><time>2026-05-02T09:18:35.163Z</time></trkpt><trkpt lat="46.1427059" lon="13.6455706"><ele>451.00000000000006</ele><time>2026-05-02T09:18:36.152Z</time></trkpt><trkpt lat="46.1427645" lon="13.6456815"><ele>451.0</ele><time>2026-05-02T09:18:38.143Z</time></trkpt><trkpt lat="46.1427874" lon="13.645768"><ele>451.0</ele><time>2026-05-02T09:18:39.142Z</time></trkpt><trkpt lat="46.142823" lon="13.645883"><ele>451.0</ele><time>2026-05-02T09:18:40.141Z</time></trkpt><trkpt lat="46.1428638" lon="13.646013"><ele>451.0</ele><time>2026-05-02T09:18:41.161Z</time></trkpt><trkpt lat="46.1428935" lon="13.6461114"><ele>451.0</ele><time>2026-05-02T09:18:42.15Z</time></trkpt><trkpt lat="46.1429794" lon="13.6462369"><ele>451.0</ele><time>2026-05-02T09:18:44.162Z</time></trkpt><trkpt lat="46.1430751" lon="13.6462658"><ele>447.2857142857143</ele><time>2026-05-02T09:18:46.152Z</time></trkpt><trkpt lat="46.1431576" lon="13.6462523"><ele>443.5714285714286</ele><time>2026-05-02T09:18:48.153Z</time></trkpt><trkpt lat="46.1430963" lon="13.6462926"><ele>439.8571428571429</ele><time>2026-05-02T09:18:51.145Z</time></trkpt><trkpt lat="46.1430331" lon="13.646302"><ele>436.1428571428571</ele><time>2026-05-02T09:18:52.161Z</time></trkpt><trkpt lat="46.1429668" lon="13.6463192"><ele>432.42857142857144</ele><time>2026-05-02T09:18:53.15Z</time></trkpt><trkpt lat="46.1428992" lon="13.6463162"><ele>428.7142857142857</ele><time>2026-05-02T09:18:54.169Z</time></trkpt><trkpt lat="46.1428298" lon="13.6462976"><ele>425.0</ele><time>2026-05-02T09:18:55.15Z</time></trkpt><trkpt lat="46.1427646" lon="13.6462506"><ele>424.99999999999994</ele><time>2026-05-02T09:18:56.154Z</time></trkpt><trkpt lat="46.1427085" lon="13.6461735"><ele>425.0</ele><time>2026-05-02T09:18:57.143Z</time></trkpt><trkpt lat="46.142644" lon="13.6461007"><ele>425.0</ele><time>2026-05-02T09:18:58.147Z</time></trkpt><trkpt lat="46.1425847" lon="13.6460155"><ele>425.0</ele><time>2026-05-02T09:18:59.153Z</time></trkpt><trkpt lat="46.1425248" lon="13.6459533"><ele>424.99999999999994</ele><time>2026-05-02T09:19:00.161Z</time></trkpt><trkpt lat="46.1424635" lon="13.645922"><ele>425.0</ele><time>2026-05-02T09:19:01.16Z</time></trkpt><trkpt lat="46.1423953" lon="13.6459264"><ele>425.49999999999994</ele><time>2026-05-02T09:19:02.146Z</time></trkpt><trkpt lat="46.1423156" lon="13.6459517"><ele>426.0</ele><time>2026-05-02T09:19:03.143Z</time></trkpt><trkpt lat="46.1422351" lon="13.6459721"><ele>426.5</ele><time>2026-05-02T09:19:04.145Z</time></trkpt><trkpt lat="46.1421532" lon="13.6460097"><ele>427.0</ele><time>2026-05-02T09:19:05.142Z</time></trkpt><trkpt lat="46.1420728" lon="13.6460295"><ele>427.49999999999994</ele><time>2026-05-02T09:19:06.148Z</time></trkpt><trkpt lat="46.1419962" lon="13.646044"><ele>428.0</ele><time>2026-05-02T09:19:07.145Z</time></trkpt><trkpt lat="46.1419271" lon="13.6460459"><ele>427.99999999999994</ele><time>2026-05-02T09:19:08.151Z</time></trkpt><trkpt lat="46.1418636" lon="13.6460359"><ele>428.0</ele><time>2026-05-02T09:19:09.144Z</time></trkpt><trkpt lat="46.1417879" lon="13.6459965"><ele>428.0</ele><time>2026-05-02T09:19:10.149Z</time></trkpt><trkpt lat="46.14171" lon="13.6459291"><ele>428.0</ele><time>2026-05-02T09:19:11.147Z</time></trkpt><trkpt lat="46.1416471" lon="13.6458477"><ele>427.99999999999994</ele><time>2026-05-02T09:19:12.149Z</time></trkpt><trkpt lat="46.1415979" lon="13.6457701"><ele>428.0</ele><time>2026-05-02T09:19:13.142Z</time></trkpt><trkpt lat="46.1415346" lon="13.6457337"><ele>427.99999999999994</ele><time>2026-05-02T09:19:16.152Z</time></trkpt><trkpt lat="46.1415773" lon="13.6458107"><ele>428.0</ele><time>2026-05-02T09:19:18.156Z</time></trkpt><trkpt lat="46.1416399" lon="13.6458955"><ele>428.0</ele><time>2026-05-02T09:19:19.147Z</time></trkpt><trkpt lat="46.1417011" lon="13.6460063"><ele>428.0</ele><time>2026-05-02T09:19:20.157Z</time></trkpt><trkpt lat="46.1417422" lon="13.6461201"><ele>427.99999999999994</ele><time>2026-05-02T09:19:21.152Z</time></trkpt><trkpt lat="46.141793" lon="13.646227"><ele>428.0</ele><time>2026-05-02T09:19:22.162Z</time></trkpt><trkpt lat="46.1418481" lon="13.6463193"><ele>423.49999999999994</ele><time>2026-05-02T09:19:23.143Z</time></trkpt><trkpt lat="46.1418982" lon="13.6464025"><ele>419.0</ele><time>2026-05-02T09:19:24.142Z</time></trkpt><trkpt lat="46.1419455" lon="13.6464757"><ele>414.5</ele><time>2026-05-02T09:19:25.149Z</time></trkpt><trkpt lat="46.1420509" lon="13.6465442"><ele>410.0</ele><time>2026-05-02T09:19:27.155Z</time></trkpt><trkpt lat="46.1421148" lon="13.6465589"><ele>405.49999999999994</ele><time>2026-05-02T09:19:28.149Z</time></trkpt><trkpt lat="46.1422149" lon="13.6466182"><ele>401.0</ele><time>2026-05-02T09:19:30.159Z</time></trkpt><trkpt lat="46.1422811" lon="13.6467662"><ele>400.99999999999994</ele><time>2026-05-02T09:19:32.145Z</time></trkpt><trkpt lat="46.1422983" lon="13.6468703"><ele>401.0</ele><time>2026-05-02T09:19:33.145Z</time></trkpt><trkpt lat="46.1423137" lon="13.6469793"><ele>401.0</ele><time>2026-05-02T09:19:34.147Z</time></trkpt><trkpt lat="46.1423624" lon="13.6471283"><ele>401.0</ele><time>2026-05-02T09:19:36.162Z</time></trkpt><trkpt lat="46.1424401" lon="13.6472204"><ele>400.99999999999994</ele><time>2026-05-02T09:19:38.171Z</time></trkpt><trkpt lat="46.1425172" lon="13.6472163"><ele>401.0</ele><time>2026-05-02T09:19:39.152Z</time></trkpt><trkpt lat="46.1426018" lon="13.647218"><ele>400.8333333333333</ele><time>2026-05-02T09:19:40.16Z</time></trkpt><trkpt lat="46.1426913" lon="13.6472578"><ele>400.66666666666663</ele><time>2026-05-02T09:19:41.161Z</time></trkpt><trkpt lat="46.1427824" lon="13.6473052"><ele>400.5</ele><time>2026-05-02T09:19:42.171Z</time></trkpt><trkpt lat="46.1428489" lon="13.6473395"><ele>400.33333333333337</ele><time>2026-05-02T09:19:43.157Z</time></trkpt><trkpt lat="46.1429439" lon="13.6474269"><ele>400.1666666666667</ele><time>2026-05-02T09:19:45.153Z</time></trkpt><trkpt lat="46.1429685" lon="13.6475209"><ele>400.0</ele><time>2026-05-02T09:19:46.154Z</time></trkpt><trkpt lat="46.1429912" lon="13.6476231"><ele>400.00000000000006</ele><time>2026-05-02T09:19:47.144Z</time></trkpt><trkpt lat="46.1430249" lon="13.647724"><ele>400.0</ele><time>2026-05-02T09:19:48.156Z</time></trkpt><trkpt lat="46.143057" lon="13.6478229"><ele>400.0</ele><time>2026-05-02T09:19:49.146Z</time></trkpt><trkpt lat="46.1430862" lon="13.64794"><ele>400.0</ele><time>2026-05-02T09:19:50.143Z</time></trkpt><trkpt lat="46.1431099" lon="13.6480591"><ele>400.00000000000006</ele><time>2026-05-02T09:19:51.158Z</time></trkpt><trkpt lat="46.1431444" lon="13.6481635"><ele>400.0</ele><time>2026-05-02T09:19:52.152Z</time></trkpt><trkpt lat="46.1431856" lon="13.648234"><ele>399.33333333333337</ele><time>2026-05-02T09:19:53.143Z</time></trkpt><trkpt lat="46.143246" lon="13.648276"><ele>398.6666666666667</ele><time>2026-05-02T09:19:54.156Z</time></trkpt><trkpt lat="46.143306" lon="13.6483093"><ele>398.0</ele><time>2026-05-02T09:19:55.15Z</time></trkpt><trkpt lat="46.1434031" lon="13.6483922"><ele>397.33333333333337</ele><time>2026-05-02T09:19:57.156Z</time></trkpt><trkpt lat="46.1434332" lon="13.6485328"><ele>396.6666666666667</ele><time>2026-05-02T09:19:59.151Z</time></trkpt><trkpt lat="46.1434346" lon="13.648626"><ele>396.0</ele><time>2026-05-02T09:20:00.155Z</time></trkpt><trkpt lat="46.1434583" lon="13.6488036"><ele>394.6</ele><time>2026-05-02T09:20:02.154Z</time></trkpt><trkpt lat="46.1435014" lon="13.6488874"><ele>393.20000000000005</ele><time>2026-05-02T09:20:03.16Z</time></trkpt><trkpt lat="46.1436116" lon="13.6489932"><ele>391.79999999999995</ele><time>2026-05-02T09:20:05.141Z</time></trkpt><trkpt lat="46.1436964" lon="13.6490407"><ele>390.4</ele><time>2026-05-02T09:20:06.164Z</time></trkpt><trkpt lat="46.1437894" lon="13.6490856"><ele>389.0</ele><time>2026-05-02T09:20:07.15Z</time></trkpt><trkpt lat="46.1438746" lon="13.64912"><ele>389.0</ele><time>2026-05-02T09:20:08.151Z</time></trkpt><trkpt lat="46.1439582" lon="13.649141"><ele>389.0</ele><time>2026-05-02T09:20:09.15Z</time></trkpt><trkpt lat="46.1440442" lon="13.6491479"><ele>389.0</ele><time>2026-05-02T09:20:10.175Z</time></trkpt><trkpt lat="46.1441442" lon="13.6491497"><ele>389.0</ele><time>2026-05-02T09:20:11.154Z</time></trkpt><trkpt lat="46.1442507" lon="13.6491332"><ele>389.0</ele><time>2026-05-02T09:20:12.167Z</time></trkpt><trkpt lat="46.1443651" lon="13.6491318"><ele>390.2</ele><time>2026-05-02T09:20:13.157Z</time></trkpt><trkpt lat="46.1444745" lon="13.6491387"><ele>391.4</ele><time>2026-05-02T09:20:14.159Z</time></trkpt><trkpt lat="46.1445828" lon="13.6491415"><ele>392.6</ele><time>2026-05-02T09:20:15.151Z</time></trkpt><trkpt lat="46.1446818" lon="13.6491438"><ele>393.8</ele><time>2026-05-02T09:20:16.167Z</time></trkpt><trkpt lat="46.1447579" lon="13.6491663"><ele>395.0</ele><time>2026-05-02T09:20:17.144Z</time></trkpt><trkpt lat="46.1448248" lon="13.6491892"><ele>395.2</ele><time>2026-05-02T09:20:18.153Z</time></trkpt><trkpt lat="46.1449456" lon="13.6492781"><ele>395.4</ele><time>2026-05-02T09:20:20.149Z</time></trkpt><trkpt lat="46.1450095" lon="13.649343"><ele>395.6</ele><time>2026-05-02T09:20:21.144Z</time></trkpt><trkpt lat="46.1450844" lon="13.6494082"><ele>395.8</ele><time>2026-05-02T09:20:22.162Z</time></trkpt><trkpt lat="46.1451605" lon="13.6494557"><ele>396.0</ele><time>2026-05-02T09:20:23.148Z</time></trkpt><trkpt lat="46.1452355" lon="13.6494837"><ele>396.0</ele><time>2026-05-02T09:20:24.147Z</time></trkpt><trkpt lat="46.1453098" lon="13.6495347"><ele>396.0</ele><time>2026-05-02T09:20:25.151Z</time></trkpt><trkpt lat="46.1453807" lon="13.64961"><ele>396.0</ele><time>2026-05-02T09:20:26.133Z</time></trkpt><trkpt lat="46.1454585" lon="13.6496918"><ele>396.0</ele><time>2026-05-02T09:20:27.16Z</time></trkpt><trkpt lat="46.1455327" lon="13.6497654"><ele>396.0</ele><time>2026-05-02T09:20:28.143Z</time></trkpt><trkpt lat="46.1456063" lon="13.6498601"><ele>396.0</ele><time>2026-05-02T09:20:29.139Z</time></trkpt><trkpt lat="46.1456712" lon="13.6499512"><ele>396.0</ele><time>2026-05-02T09:20:30.159Z</time></trkpt><trkpt lat="46.1457342" lon="13.6500376"><ele>396.0</ele><time>2026-05-02T09:20:31.147Z</time></trkpt><trkpt lat="46.1457922" lon="13.6501154"><ele>396.0</ele><time>2026-05-02T09:20:32.159Z</time></trkpt><trkpt lat="46.1458378" lon="13.6501966"><ele>396.0</ele><time>2026-05-02T09:20:33.143Z</time></trkpt><trkpt lat="46.1458821" lon="13.6502811"><ele>396.0</ele><time>2026-05-02T09:20:34.146Z</time></trkpt><trkpt lat="46.1459378" lon="13.6503627"><ele>397.20000000000005</ele><time>2026-05-02T09:20:35.148Z</time></trkpt><trkpt lat="46.1460096" lon="13.6504341"><ele>398.40000000000003</ele><time>2026-05-02T09:20:36.147Z</time></trkpt><trkpt lat="46.1460949" lon="13.6505076"><ele>399.6</ele><time>2026-05-02T09:20:37.153Z</time></trkpt><trkpt lat="46.1461851" lon="13.6505788"><ele>400.8</ele><time>2026-05-02T09:20:38.171Z</time></trkpt><trkpt lat="46.146266" lon="13.6506417"><ele>402.0</ele><time>2026-05-02T09:20:39.157Z</time></trkpt><trkpt lat="46.1463318" lon="13.6506928"><ele>402.0</ele><time>2026-05-02T09:20:40.158Z</time></trkpt><trkpt lat="46.1464048" lon="13.6508297"><ele>402.0</ele><time>2026-05-02T09:20:42.151Z</time></trkpt><trkpt lat="46.1464439" lon="13.6509144"><ele>402.0</ele><time>2026-05-02T09:20:43.163Z</time></trkpt><trkpt lat="46.1464866" lon="13.6509842"><ele>402.0</ele><time>2026-05-02T09:20:44.171Z</time></trkpt><trkpt lat="46.1465483" lon="13.6510579"><ele>402.0</ele><time>2026-05-02T09:20:45.149Z</time></trkpt><trkpt lat="46.1466221" lon="13.6511001"><ele>402.0</ele><time>2026-05-02T09:20:46.159Z</time></trkpt><trkpt lat="46.1467025" lon="13.6511444"><ele>404.40000000000003</ele><time>2026-05-02T09:20:47.146Z</time></trkpt><trkpt lat="46.1467989" lon="13.651187"><ele>406.8</ele><time>2026-05-02T09:20:48.16Z</time></trkpt><trkpt lat="46.1468995" lon="13.6512325"><ele>409.2</ele><time>2026-05-02T09:20:49.149Z</time></trkpt><trkpt lat="46.1469888" lon="13.6512902"><ele>411.6</ele><time>2026-05-02T09:20:50.154Z</time></trkpt><trkpt lat="46.1470717" lon="13.6513686"><ele>414.0</ele><time>2026-05-02T09:20:51.155Z</time></trkpt><trkpt lat="46.1471505" lon="13.6514612"><ele>414.0</ele><time>2026-05-02T09:20:52.154Z</time></trkpt><trkpt lat="46.1472426" lon="13.6515552"><ele>414.0</ele><time>2026-05-02T09:20:53.151Z</time></trkpt><trkpt lat="46.1473319" lon="13.6516533"><ele>414.0</ele><time>2026-05-02T09:20:54.146Z</time></trkpt><trkpt lat="46.1474045" lon="13.6517477"><ele>414.0</ele><time>2026-05-02T09:20:55.156Z</time></trkpt><trkpt lat="46.1474724" lon="13.651831"><ele>414.0</ele><time>2026-05-02T09:20:56.165Z</time></trkpt><trkpt lat="46.1475524" lon="13.6518914"><ele>413.79999999999995</ele><time>2026-05-02T09:20:57.164Z</time></trkpt><trkpt lat="46.1476372" lon="13.651954"><ele>413.59999999999997</ele><time>2026-05-02T09:20:58.157Z</time></trkpt><trkpt lat="46.1477235" lon="13.6520162"><ele>413.4</ele><time>2026-05-02T09:20:59.143Z</time></trkpt><trkpt lat="46.147818" lon="13.652082"><ele>413.2</ele><time>2026-05-02T09:21:00.151Z</time></trkpt><trkpt lat="46.1479207" lon="13.6521476"><ele>413.0</ele><time>2026-05-02T09:21:01.148Z</time></trkpt><trkpt lat="46.1480192" lon="13.6522059"><ele>413.0</ele><time>2026-05-02T09:21:02.153Z</time></trkpt><trkpt lat="46.1481166" lon="13.6522597"><ele>413.0</ele><time>2026-05-02T09:21:03.154Z</time></trkpt><trkpt lat="46.1482194" lon="13.6522866"><ele>413.0</ele><time>2026-05-02T09:21:04.155Z</time></trkpt><trkpt lat="46.1483232" lon="13.65229"><ele>413.0</ele><time>2026-05-02T09:21:05.152Z</time></trkpt><trkpt lat="46.1484246" lon="13.652279"><ele>413.0</ele><time>2026-05-02T09:21:06.148Z</time></trkpt><trkpt lat="46.1485121" lon="13.6522615"><ele>412.79999999999995</ele><time>2026-05-02T09:21:07.144Z</time></trkpt><trkpt lat="46.148595" lon="13.6522331"><ele>412.6</ele><time>2026-05-02T09:21:08.174Z</time></trkpt><trkpt lat="46.1486653" lon="13.6522117"><ele>412.4</ele><time>2026-05-02T09:21:09.151Z</time></trkpt><trkpt lat="46.148779" lon="13.6521561"><ele>412.20000000000005</ele><time>2026-05-02T09:21:11.153Z</time></trkpt><trkpt lat="46.1488821" lon="13.65202"><ele>412.0</ele><time>2026-05-02T09:21:13.15Z</time></trkpt><trkpt lat="46.1489226" lon="13.6518912"><ele>414.40000000000003</ele><time>2026-05-02T09:21:14.155Z</time></trkpt><trkpt lat="46.1489739" lon="13.6517719"><ele>416.8</ele><time>2026-05-02T09:21:15.147Z</time></trkpt><trkpt lat="46.1490327" lon="13.6516614"><ele>419.2</ele><time>2026-05-02T09:21:16.154Z</time></trkpt><trkpt lat="46.1490984" lon="13.6515401"><ele>421.6</ele><time>2026-05-02T09:21:17.145Z</time></trkpt><trkpt lat="46.149173" lon="13.6514422"><ele>424.0</ele><time>2026-05-02T09:21:18.147Z</time></trkpt><trkpt lat="46.1492476" lon="13.6513645"><ele>424.0</ele><time>2026-05-02T09:21:19.143Z</time></trkpt><trkpt lat="46.1493183" lon="13.6513224"><ele>424.0</ele><time>2026-05-02T09:21:20.166Z</time></trkpt><trkpt lat="46.1493852" lon="13.6512865"><ele>424.0</ele><time>2026-05-02T09:21:21.146Z</time></trkpt><trkpt lat="46.1494859" lon="13.6512894"><ele>424.0</ele><time>2026-05-02T09:21:23.145Z</time></trkpt><trkpt lat="46.1495465" lon="13.6513953"><ele>424.0</ele><time>2026-05-02T09:21:25.151Z</time></trkpt><trkpt lat="46.1495095" lon="13.651547"><ele>424.00000000000006</ele><time>2026-05-02T09:21:27.137Z</time></trkpt><trkpt lat="46.149485" lon="13.6516532"><ele>424.0</ele><time>2026-05-02T09:21:28.162Z</time></trkpt><trkpt lat="46.1494629" lon="13.6517582"><ele>424.0</ele><time>2026-05-02T09:21:29.139Z</time></trkpt><trkpt lat="46.1494417" lon="13.6518772"><ele>424.0</ele><time>2026-05-02T09:21:30.143Z</time></trkpt><trkpt lat="46.1494169" lon="13.652012"><ele>424.00000000000006</ele><time>2026-05-02T09:21:31.144Z</time></trkpt><trkpt lat="46.1493954" lon="13.6521438"><ele>424.0</ele><time>2026-05-02T09:21:32.139Z</time></trkpt><trkpt lat="46.1493886" lon="13.6522572"><ele>421.6666666666667</ele><time>2026-05-02T09:21:33.153Z</time></trkpt><trkpt lat="46.1493877" lon="13.6523525"><ele>419.33333333333337</ele><time>2026-05-02T09:21:34.141Z</time></trkpt><trkpt lat="46.1494378" lon="13.6524932"><ele>417.0</ele><time>2026-05-02T09:21:36.158Z</time></trkpt><trkpt lat="46.149497" lon="13.6525431"><ele>414.66666666666663</ele><time>2026-05-02T09:21:37.142Z</time></trkpt><trkpt lat="46.1495652" lon="13.6525807"><ele>412.3333333333333</ele><time>2026-05-02T09:21:38.166Z</time></trkpt><trkpt lat="46.1496363" lon="13.6526256"><ele>410.0</ele><time>2026-05-02T09:21:39.136Z</time></trkpt><trkpt lat="46.149711" lon="13.6526871"><ele>410.0</ele><time>2026-05-02T09:21:40.139Z</time></trkpt><trkpt lat="46.1498007" lon="13.6527593"><ele>410.0</ele><time>2026-05-02T09:21:41.142Z</time></trkpt><trkpt lat="46.1499027" lon="13.6528361"><ele>410.0</ele><time>2026-05-02T09:21:42.153Z</time></trkpt><trkpt lat="46.1500121" lon="13.6529094"><ele>410.0</ele><time>2026-05-02T09:21:43.14Z</time></trkpt><trkpt lat="46.1501233" lon="13.6529739"><ele>414.5</ele><time>2026-05-02T09:21:44.162Z</time></trkpt><trkpt lat="46.1502362" lon="13.6530452"><ele>419.0</ele><time>2026-05-02T09:21:45.169Z</time></trkpt><trkpt lat="46.1503481" lon="13.6531179"><ele>423.5</ele><time>2026-05-02T09:21:46.15Z</time></trkpt><trkpt lat="46.1504576" lon="13.6532002"><ele>428.0</ele><time>2026-05-02T09:21:47.168Z</time></trkpt><trkpt lat="46.1505613" lon="13.653256"><ele>428.0</ele><time>2026-05-02T09:21:48.167Z</time></trkpt><trkpt lat="46.1506497" lon="13.6533009"><ele>427.99999999999994</ele><time>2026-05-02T09:21:49.156Z</time></trkpt><trkpt lat="46.1507351" lon="13.6533532"><ele>427.99999999999994</ele><time>2026-05-02T09:21:50.17Z</time></trkpt><trkpt lat="46.1508307" lon="13.6534312"><ele>428.0</ele><time>2026-05-02T09:21:51.151Z</time></trkpt><trkpt lat="46.1509331" lon="13.6535189"><ele>428.0</ele><time>2026-05-02T09:21:52.145Z</time></trkpt><trkpt lat="46.1510372" lon="13.6535999"><ele>427.16666666666663</ele><time>2026-05-02T09:21:53.147Z</time></trkpt><trkpt lat="46.1511236" lon="13.6536711"><ele>426.3333333333333</ele><time>2026-05-02T09:21:54.159Z</time></trkpt><trkpt lat="46.1511863" lon="13.6537434"><ele>425.5</ele><time>2026-05-02T09:21:55.15Z</time></trkpt><trkpt lat="46.1512487" lon="13.653793"><ele>424.66666666666663</ele><time>2026-05-02T09:21:56.152Z</time></trkpt><trkpt lat="46.1513118" lon="13.6537956"><ele>423.8333333333333</ele><time>2026-05-02T09:21:57.149Z</time></trkpt><trkpt lat="46.1514417" lon="13.6537561"><ele>423.0</ele><time>2026-05-02T09:21:59.138Z</time></trkpt><trkpt lat="46.151517" lon="13.65374"><ele>423.8333333333333</ele><time>2026-05-02T09:22:00.156Z</time></trkpt><trkpt lat="46.1515875" lon="13.6537486"><ele>424.66666666666663</ele><time>2026-05-02T09:22:01.15Z</time></trkpt><trkpt lat="46.1516715" lon="13.6538519"><ele>425.5</ele><time>2026-05-02T09:22:03.145Z</time></trkpt><trkpt lat="46.1516972" lon="13.6539392"><ele>426.3333333333333</ele><time>2026-05-02T09:22:04.153Z</time></trkpt><trkpt lat="46.1517436" lon="13.6540095"><ele>427.16666666666663</ele><time>2026-05-02T09:22:05.147Z</time></trkpt><trkpt lat="46.1518079" lon="13.654054"><ele>428.0</ele><time>2026-05-02T09:22:06.156Z</time></trkpt><trkpt lat="46.1518819" lon="13.6540813"><ele>427.99999999999994</ele><time>2026-05-02T09:22:07.154Z</time></trkpt><trkpt lat="46.1519608" lon="13.6540863"><ele>428.0</ele><time>2026-05-02T09:22:08.17Z</time></trkpt><trkpt lat="46.1520349" lon="13.6540556"><ele>428.0</ele><time>2026-05-02T09:22:09.165Z</time></trkpt><trkpt lat="46.1521081" lon="13.6540272"><ele>428.0</ele><time>2026-05-02T09:22:10.163Z</time></trkpt><trkpt lat="46.1521995" lon="13.6540091"><ele>427.99999999999994</ele><time>2026-05-02T09:22:11.158Z</time></trkpt><trkpt lat="46.1522837" lon="13.6540025"><ele>428.0</ele><time>2026-05-02T09:22:12.167Z</time></trkpt><trkpt lat="46.1523825" lon="13.6540047"><ele>429.79999999999995</ele><time>2026-05-02T09:22:13.147Z</time></trkpt><trkpt lat="46.1524858" lon="13.6540013"><ele>431.59999999999997</ele><time>2026-05-02T09:22:14.155Z</time></trkpt><trkpt lat="46.1525958" lon="13.6539652"><ele>433.40000000000003</ele><time>2026-05-02T09:22:15.144Z</time></trkpt><trkpt lat="46.1527056" lon="13.6539346"><ele>435.20000000000005</ele><time>2026-05-02T09:22:16.151Z</time></trkpt><trkpt lat="46.1528193" lon="13.6539181"><ele>437.0</ele><time>2026-05-02T09:22:17.143Z</time></trkpt><trkpt lat="46.1529255" lon="13.6539261"><ele>436.99999999999994</ele><time>2026-05-02T09:22:18.156Z</time></trkpt><trkpt lat="46.1530145" lon="13.6539313"><ele>437.0</ele><time>2026-05-02T09:22:19.145Z</time></trkpt><trkpt lat="46.1530871" lon="13.6539268"><ele>437.0</ele><time>2026-05-02T09:22:20.155Z</time></trkpt><trkpt lat="46.1531499" lon="13.6538878"><ele>437.0</ele><time>2026-05-02T09:22:21.152Z</time></trkpt><trkpt lat="46.1532124" lon="13.6538069"><ele>436.99999999999994</ele><time>2026-05-02T09:22:22.143Z</time></trkpt><trkpt lat="46.1532841" lon="13.6537285"><ele>437.0</ele><time>2026-05-02T09:22:23.147Z</time></trkpt><trkpt lat="46.1533562" lon="13.6536549"><ele>437.57142857142856</ele><time>2026-05-02T09:22:24.155Z</time></trkpt><trkpt lat="46.1534331" lon="13.6535958"><ele>438.14285714285717</ele><time>2026-05-02T09:22:25.143Z</time></trkpt><trkpt lat="46.1534999" lon="13.6535629"><ele>438.7142857142857</ele><time>2026-05-02T09:22:26.158Z</time></trkpt><trkpt lat="46.1535598" lon="13.6535954"><ele>439.2857142857143</ele><time>2026-05-02T09:22:27.156Z</time></trkpt><trkpt lat="46.153608" lon="13.6536593"><ele>439.8571428571429</ele><time>2026-05-02T09:22:28.152Z</time></trkpt><trkpt lat="46.1536351" lon="13.653765"><ele>440.42857142857144</ele><time>2026-05-02T09:22:29.144Z</time></trkpt><trkpt lat="46.153661" lon="13.6538802"><ele>441.0</ele><time>2026-05-02T09:22:30.153Z</time></trkpt><trkpt lat="46.1536957" lon="13.6539571"><ele>441.0</ele><time>2026-05-02T09:22:31.143Z</time></trkpt><trkpt lat="46.1537526" lon="13.6540236"><ele>441.0</ele><time>2026-05-02T09:22:32.165Z</time></trkpt><trkpt lat="46.1538227" lon="13.6540413"><ele>441.0</ele><time>2026-05-02T09:22:33.134Z</time></trkpt><trkpt lat="46.1539203" lon="13.654057"><ele>441.0</ele><time>2026-05-02T09:22:34.146Z</time></trkpt><trkpt lat="46.1540337" lon="13.6540747"><ele>441.0</ele><time>2026-05-02T09:22:35.143Z</time></trkpt><trkpt lat="46.1541482" lon="13.6540991"><ele>442.6</ele><time>2026-05-02T09:22:36.168Z</time></trkpt><trkpt lat="46.1542497" lon="13.6541251"><ele>444.20000000000005</ele><time>2026-05-02T09:22:37.148Z</time></trkpt><trkpt lat="46.1543414" lon="13.6541758"><ele>445.79999999999995</ele><time>2026-05-02T09:22:38.156Z</time></trkpt><trkpt lat="46.1544305" lon="13.6542109"><ele>447.4</ele><time>2026-05-02T09:22:39.144Z</time></trkpt><trkpt lat="46.1545173" lon="13.6542356"><ele>449.0</ele><time>2026-05-02T09:22:40.162Z</time></trkpt><trkpt lat="46.154612" lon="13.6542838"><ele>449.0</ele><time>2026-05-02T09:22:41.157Z</time></trkpt><trkpt lat="46.154713" lon="13.6543478"><ele>449.0</ele><time>2026-05-02T09:22:42.151Z</time></trkpt><trkpt lat="46.1548195" lon="13.654431"><ele>449.0</ele><time>2026-05-02T09:22:43.153Z</time></trkpt><trkpt lat="46.1549232" lon="13.6545351"><ele>449.0</ele><time>2026-05-02T09:22:44.151Z</time></trkpt><trkpt lat="46.1550121" lon="13.6546381"><ele>446.0</ele><time>2026-05-02T09:22:45.16Z</time></trkpt><trkpt lat="46.1551012" lon="13.6547293"><ele>443.0</ele><time>2026-05-02T09:22:46.154Z</time></trkpt><trkpt lat="46.1551897" lon="13.6547989"><ele>440.0</ele><time>2026-05-02T09:22:47.154Z</time></trkpt><trkpt lat="46.155274" lon="13.6548447"><ele>437.0</ele><time>2026-05-02T09:22:48.153Z</time></trkpt><trkpt lat="46.1553362" lon="13.6548643"><ele>434.0</ele><time>2026-05-02T09:22:49.157Z</time></trkpt><trkpt lat="46.1554363" lon="13.6547896"><ele>434.0</ele><time>2026-05-02T09:22:51.169Z</time></trkpt><trkpt lat="46.1554782" lon="13.6547181"><ele>434.0</ele><time>2026-05-02T09:22:52.17Z</time></trkpt><trkpt lat="46.1555178" lon="13.6546399"><ele>434.0</ele><time>2026-05-02T09:22:53.144Z</time></trkpt><trkpt lat="46.1555851" lon="13.6545867"><ele>434.0</ele><time>2026-05-02T09:22:55.147Z</time></trkpt><trkpt lat="46.1556376" lon="13.654658"><ele>434.0</ele><time>2026-05-02T09:22:57.15Z</time></trkpt><trkpt lat="46.1556816" lon="13.6547479"><ele>434.0</ele><time>2026-05-02T09:22:58.152Z</time></trkpt><trkpt lat="46.1557411" lon="13.654816"><ele>434.0</ele><time>2026-05-02T09:22:59.157Z</time></trkpt><trkpt lat="46.1558449" lon="13.6548434"><ele>435.0</ele><time>2026-05-02T09:23:01.148Z</time></trkpt><trkpt lat="46.1559166" lon="13.6548272"><ele>436.0</ele><time>2026-05-02T09:23:02.156Z</time></trkpt><trkpt lat="46.1559981" lon="13.6547766"><ele>437.0</ele><time>2026-05-02T09:23:03.144Z</time></trkpt><trkpt lat="46.1560895" lon="13.6547213"><ele>438.0</ele><time>2026-05-02T09:23:04.146Z</time></trkpt><trkpt lat="46.1561794" lon="13.6546561"><ele>439.0</ele><time>2026-05-02T09:23:05.147Z</time></trkpt><trkpt lat="46.1562677" lon="13.6545776"><ele>439.0</ele><time>2026-05-02T09:23:06.171Z</time></trkpt><trkpt lat="46.1563576" lon="13.6544759"><ele>439.0</ele><time>2026-05-02T09:23:07.153Z</time></trkpt><trkpt lat="46.1564434" lon="13.6543835"><ele>439.0</ele><time>2026-05-02T09:23:08.142Z</time></trkpt><trkpt lat="46.1565224" lon="13.6542977"><ele>439.0</ele><time>2026-05-02T09:23:09.173Z</time></trkpt><trkpt lat="46.1565975" lon="13.6542194"><ele>439.0</ele><time>2026-05-02T09:23:10.134Z</time></trkpt><trkpt lat="46.1566648" lon="13.6541513"><ele>443.79999999999995</ele><time>2026-05-02T09:23:11.144Z</time></trkpt><trkpt lat="46.1567414" lon="13.6541199"><ele>448.59999999999997</ele><time>2026-05-02T09:23:12.137Z</time></trkpt><trkpt lat="46.156825" lon="13.6541026"><ele>453.4</ele><time>2026-05-02T09:23:13.154Z</time></trkpt><trkpt lat="46.1569298" lon="13.654065"><ele>458.2</ele><time>2026-05-02T09:23:14.152Z</time></trkpt><trkpt lat="46.1570505" lon="13.6540121"><ele>463.0</ele><time>2026-05-02T09:23:15.138Z</time></trkpt><trkpt lat="46.1571611" lon="13.6539568"><ele>463.0</ele><time>2026-05-02T09:23:16.137Z</time></trkpt><trkpt lat="46.1572681" lon="13.6539059"><ele>463.0</ele><time>2026-05-02T09:23:17.142Z</time></trkpt><trkpt lat="46.1573744" lon="13.6538343"><ele>463.0</ele><time>2026-05-02T09:23:18.151Z</time></trkpt><trkpt lat="46.1574774" lon="13.653747"><ele>463.0</ele><time>2026-05-02T09:23:19.149Z</time></trkpt><trkpt lat="46.1575801" lon="13.6536667"><ele>468.5</ele><time>2026-05-02T09:23:20.144Z</time></trkpt><trkpt lat="46.1576904" lon="13.6535889"><ele>474.0</ele><time>2026-05-02T09:23:21.153Z</time></trkpt><trkpt lat="46.1578048" lon="13.6535054"><ele>479.5</ele><time>2026-05-02T09:23:22.152Z</time></trkpt><trkpt lat="46.1579184" lon="13.6534324"><ele>485.0</ele><time>2026-05-02T09:23:23.128Z</time></trkpt><trkpt lat="46.1580184" lon="13.6533635"><ele>485.0</ele><time>2026-05-02T09:23:24.142Z</time></trkpt><trkpt lat="46.1581028" lon="13.6533008"><ele>485.0</ele><time>2026-05-02T09:23:25.139Z</time></trkpt><trkpt lat="46.1581738" lon="13.6532471"><ele>485.0</ele><time>2026-05-02T09:23:26.149Z</time></trkpt><trkpt lat="46.1582476" lon="13.6532046"><ele>485.0</ele><time>2026-05-02T09:23:27.137Z</time></trkpt><trkpt lat="46.1583304" lon="13.653067"><ele>485.0</ele><time>2026-05-02T09:23:29.139Z</time></trkpt><trkpt lat="46.1583621" lon="13.6529689"><ele>483.66666666666663</ele><time>2026-05-02T09:23:30.143Z</time></trkpt><trkpt lat="46.1583877" lon="13.652852"><ele>482.3333333333333</ele><time>2026-05-02T09:23:31.135Z</time></trkpt><trkpt lat="46.1583913" lon="13.652742"><ele>481.0</ele><time>2026-05-02T09:23:32.149Z</time></trkpt><trkpt lat="46.1584154" lon="13.6526223"><ele>479.66666666666663</ele><time>2026-05-02T09:23:34.14Z</time></trkpt><trkpt lat="46.1584817" lon="13.6525981"><ele>478.3333333333333</ele><time>2026-05-02T09:23:36.136Z</time></trkpt><trkpt lat="46.1585811" lon="13.6526573"><ele>477.0</ele><time>2026-05-02T09:23:38.127Z</time></trkpt><trkpt lat="46.158642" lon="13.6527496"><ele>473.6666666666667</ele><time>2026-05-02T09:23:39.134Z</time></trkpt><trkpt lat="46.1586871" lon="13.6528319"><ele>470.33333333333337</ele><time>2026-05-02T09:23:40.138Z</time></trkpt><trkpt lat="46.1587361" lon="13.6529037"><ele>467.0</ele><time>2026-05-02T09:23:41.126Z</time></trkpt><trkpt lat="46.1587825" lon="13.6529688"><ele>463.6666666666667</ele><time>2026-05-02T09:23:42.142Z</time></trkpt><trkpt lat="46.15885" lon="13.653012"><ele>460.33333333333337</ele><time>2026-05-02T09:23:43.142Z</time></trkpt><trkpt lat="46.1589447" lon="13.6530486"><ele>457.0</ele><time>2026-05-02T09:23:44.145Z</time></trkpt><trkpt lat="46.1590235" lon="13.6530812"><ele>456.33333333333337</ele><time>2026-05-02T09:23:45.132Z</time></trkpt><trkpt lat="46.1590769" lon="13.6531388"><ele>455.6666666666667</ele><time>2026-05-02T09:23:46.142Z</time></trkpt><trkpt lat="46.1591415" lon="13.6532298"><ele>455.0</ele><time>2026-05-02T09:23:47.125Z</time></trkpt><trkpt lat="46.1592045" lon="13.6533265"><ele>454.33333333333337</ele><time>2026-05-02T09:23:48.143Z</time></trkpt><trkpt lat="46.1592704" lon="13.6534199"><ele>453.6666666666667</ele><time>2026-05-02T09:23:49.144Z</time></trkpt><trkpt lat="46.1593336" lon="13.6534747"><ele>453.0</ele><time>2026-05-02T09:23:50.141Z</time></trkpt><trkpt lat="46.1594111" lon="13.6535048"><ele>453.0</ele><time>2026-05-02T09:23:51.135Z</time></trkpt><trkpt lat="46.1594982" lon="13.6535212"><ele>452.99999999999994</ele><time>2026-05-02T09:23:52.145Z</time></trkpt><trkpt lat="46.1595914" lon="13.6535467"><ele>452.99999999999994</ele><time>2026-05-02T09:23:53.137Z</time></trkpt><trkpt lat="46.159678" lon="13.6535708"><ele>453.0</ele><time>2026-05-02T09:23:54.145Z</time></trkpt><trkpt lat="46.1597758" lon="13.6535583"><ele>453.0</ele><time>2026-05-02T09:23:55.158Z</time></trkpt><trkpt lat="46.1598888" lon="13.6535374"><ele>453.75</ele><time>2026-05-02T09:23:56.146Z</time></trkpt><trkpt lat="46.1600208" lon="13.6534988"><ele>454.5</ele><time>2026-05-02T09:23:57.143Z</time></trkpt><trkpt lat="46.1601682" lon="13.6534758"><ele>455.25</ele><time>2026-05-02T09:23:58.153Z</time></trkpt><trkpt lat="46.1603134" lon="13.6534535"><ele>456.0</ele><time>2026-05-02T09:23:59.143Z</time></trkpt><trkpt lat="46.1604452" lon="13.6534326"><ele>456.0</ele><time>2026-05-02T09:24:00.131Z</time></trkpt><trkpt lat="46.1605543" lon="13.6534005"><ele>456.0</ele><time>2026-05-02T09:24:01.145Z</time></trkpt><trkpt lat="46.1606475" lon="13.6533722"><ele>456.0</ele><time>2026-05-02T09:24:02.139Z</time></trkpt><trkpt lat="46.1607384" lon="13.6533554"><ele>456.0</ele><time>2026-05-02T09:24:03.149Z</time></trkpt><trkpt lat="46.1608193" lon="13.653356"><ele>456.0</ele><time>2026-05-02T09:24:04.144Z</time></trkpt><trkpt lat="46.1609049" lon="13.6533739"><ele>457.3333333333333</ele><time>2026-05-02T09:24:05.143Z</time></trkpt><trkpt lat="46.1610036" lon="13.6534101"><ele>458.66666666666663</ele><time>2026-05-02T09:24:06.153Z</time></trkpt><trkpt lat="46.161095" lon="13.6534442"><ele>460.0</ele><time>2026-05-02T09:24:07.163Z</time></trkpt><trkpt lat="46.1611662" lon="13.6534665"><ele>461.3333333333333</ele><time>2026-05-02T09:24:08.142Z</time></trkpt><trkpt lat="46.1612378" lon="13.6534761"><ele>462.66666666666663</ele><time>2026-05-02T09:24:09.145Z</time></trkpt><trkpt lat="46.1613087" lon="13.6534666"><ele>464.0</ele><time>2026-05-02T09:24:10.155Z</time></trkpt><trkpt lat="46.1613784" lon="13.6534293"><ele>463.99999999999994</ele><time>2026-05-02T09:24:11.173Z</time></trkpt><trkpt lat="46.1614414" lon="13.6533869"><ele>464.0</ele><time>2026-05-02T09:24:12.141Z</time></trkpt><trkpt lat="46.1615055" lon="13.6533544"><ele>464.0</ele><time>2026-05-02T09:24:13.137Z</time></trkpt><trkpt lat="46.1616234" lon="13.6534148"><ele>464.0</ele><time>2026-05-02T09:24:15.162Z</time></trkpt><trkpt lat="46.1616934" lon="13.6534868"><ele>463.99999999999994</ele><time>2026-05-02T09:24:16.143Z</time></trkpt><trkpt lat="46.1617604" lon="13.6535719"><ele>464.0</ele><time>2026-05-02T09:24:17.135Z</time></trkpt><trkpt lat="46.1618281" lon="13.6536842"><ele>465.79999999999995</ele><time>2026-05-02T09:24:18.145Z</time></trkpt><trkpt lat="46.1619002" lon="13.6538056"><ele>467.59999999999997</ele><time>2026-05-02T09:24:19.148Z</time></trkpt><trkpt lat="46.1619746" lon="13.6539141"><ele>469.4</ele><time>2026-05-02T09:24:20.162Z</time></trkpt><trkpt lat="46.1620577" lon="13.653986"><ele>471.2</ele><time>2026-05-02T09:24:21.149Z</time></trkpt><trkpt lat="46.1621417" lon="13.6540522"><ele>473.0</ele><time>2026-05-02T09:24:22.15Z</time></trkpt><trkpt lat="46.1622338" lon="13.6541289"><ele>473.0</ele><time>2026-05-02T09:24:23.151Z</time></trkpt><trkpt lat="46.1623254" lon="13.6542411"><ele>473.0</ele><time>2026-05-02T09:24:24.155Z</time></trkpt><trkpt lat="46.1624232" lon="13.6543687"><ele>473.0</ele><time>2026-05-02T09:24:25.146Z</time></trkpt><trkpt lat="46.1625174" lon="13.6544897"><ele>473.0</ele><time>2026-05-02T09:24:26.153Z</time></trkpt><trkpt lat="46.162608" lon="13.6545762"><ele>474.3333333333333</ele><time>2026-05-02T09:24:27.159Z</time></trkpt><trkpt lat="46.1626899" lon="13.6546353"><ele>475.66666666666663</ele><time>2026-05-02T09:24:28.14Z</time></trkpt><trkpt lat="46.1627609" lon="13.6546987"><ele>477.0</ele><time>2026-05-02T09:24:29.155Z</time></trkpt><trkpt lat="46.1628008" lon="13.6547763"><ele>478.33333333333337</ele><time>2026-05-02T09:24:30.148Z</time></trkpt><trkpt lat="46.1627408" lon="13.6547321"><ele>479.6666666666667</ele><time>2026-05-02T09:24:44.149Z</time></trkpt><trkpt lat="46.1626528" lon="13.6546017"><ele>481.0</ele><time>2026-05-02T09:24:46.154Z</time></trkpt><trkpt lat="46.1625747" lon="13.6545526"><ele>481.0</ele><time>2026-05-02T09:24:47.15Z</time></trkpt><trkpt lat="46.1624906" lon="13.6544799"><ele>481.0</ele><time>2026-05-02T09:24:48.166Z</time></trkpt><trkpt lat="46.1623985" lon="13.6543722"><ele>481.0</ele><time>2026-05-02T09:24:49.162Z</time></trkpt><trkpt lat="46.162313" lon="13.6542529"><ele>481.0</ele><time>2026-05-02T09:24:50.163Z</time></trkpt><trkpt lat="46.1622267" lon="13.6541489"><ele>481.0</ele><time>2026-05-02T09:24:51.159Z</time></trkpt><trkpt lat="46.1621541" lon="13.6540822"><ele>479.8571428571428</ele><time>2026-05-02T09:24:52.159Z</time></trkpt><trkpt lat="46.1620929" lon="13.6540344"><ele>478.71428571428567</ele><time>2026-05-02T09:24:53.167Z</time></trkpt><trkpt lat="46.1620337" lon="13.6539959"><ele>477.57142857142856</ele><time>2026-05-02T09:24:54.147Z</time></trkpt><trkpt lat="46.1619801" lon="13.6539375"><ele>476.4285714285714</ele><time>2026-05-02T09:24:55.181Z</time></trkpt><trkpt lat="46.1619293" lon="13.6538693"><ele>475.2857142857142</ele><time>2026-05-02T09:24:56.161Z</time></trkpt><trkpt lat="46.1618745" lon="13.653794"><ele>474.14285714285717</ele><time>2026-05-02T09:24:57.163Z</time></trkpt><trkpt lat="46.1618215" lon="13.6537028"><ele>473.0</ele><time>2026-05-02T09:24:58.161Z</time></trkpt><trkpt lat="46.1617659" lon="13.6536054"><ele>471.49999999999994</ele><time>2026-05-02T09:24:59.151Z</time></trkpt><trkpt lat="46.1617213" lon="13.6535355"><ele>470.0</ele><time>2026-05-02T09:25:00.147Z</time></trkpt><trkpt lat="46.1617413" lon="13.6534091"><ele>468.5</ele><time>2026-05-02T09:25:04.146Z</time></trkpt><trkpt lat="46.1618502" lon="13.6533112"><ele>467.0</ele><time>2026-05-02T09:25:06.139Z</time></trkpt><trkpt lat="46.1619025" lon="13.6532487"><ele>465.49999999999994</ele><time>2026-05-02T09:25:07.143Z</time></trkpt><trkpt lat="46.1619625" lon="13.6531892"><ele>464.0</ele><time>2026-05-02T09:25:08.162Z</time></trkpt><trkpt lat="46.1620381" lon="13.6531319"><ele>464.0</ele><time>2026-05-02T09:25:09.154Z</time></trkpt><trkpt lat="46.1621229" lon="13.6530675"><ele>464.0</ele><time>2026-05-02T09:25:10.163Z</time></trkpt><trkpt lat="46.162204" lon="13.6529901"><ele>464.0</ele><time>2026-05-02T09:25:11.152Z</time></trkpt><trkpt lat="46.1622844" lon="13.6529116"><ele>464.0</ele><time>2026-05-02T09:25:12.164Z</time></trkpt><trkpt lat="46.1623579" lon="13.6528267"><ele>464.0</ele><time>2026-05-02T09:25:13.145Z</time></trkpt><trkpt lat="46.1624205" lon="13.6527334"><ele>464.99999999999994</ele><time>2026-05-02T09:25:14.168Z</time></trkpt><trkpt lat="46.1624779" lon="13.6526389"><ele>466.0</ele><time>2026-05-02T09:25:15.141Z</time></trkpt><trkpt lat="46.1625201" lon="13.6525387"><ele>467.0</ele><time>2026-05-02T09:25:16.158Z</time></trkpt><trkpt lat="46.1625534" lon="13.6524393"><ele>468.0</ele><time>2026-05-02T09:25:17.148Z</time></trkpt><trkpt lat="46.1625756" lon="13.6523456"><ele>468.99999999999994</ele><time>2026-05-02T09:25:18.15Z</time></trkpt><trkpt lat="46.162608" lon="13.6522109"><ele>470.0</ele><time>2026-05-02T09:25:20.169Z</time></trkpt><trkpt lat="46.162625" lon="13.6520905"><ele>469.99999999999994</ele><time>2026-05-02T09:25:23.154Z</time></trkpt><trkpt lat="46.1626848" lon="13.6519903"><ele>470.0</ele><time>2026-05-02T09:25:25.142Z</time></trkpt><trkpt lat="46.1627427" lon="13.6519329"><ele>470.0</ele><time>2026-05-02T09:25:26.141Z</time></trkpt><trkpt lat="46.1628076" lon="13.6518568"><ele>470.0</ele><time>2026-05-02T09:25:27.147Z</time></trkpt><trkpt lat="46.1628681" lon="13.6517637"><ele>469.99999999999994</ele><time>2026-05-02T09:25:28.142Z</time></trkpt><trkpt lat="46.1629182" lon="13.6516698"><ele>470.0</ele><time>2026-05-02T09:25:29.136Z</time></trkpt><trkpt lat="46.1629601" lon="13.6515627"><ele>472.85714285714283</ele><time>2026-05-02T09:25:30.145Z</time></trkpt><trkpt lat="46.1629978" lon="13.651452"><ele>475.71428571428567</ele><time>2026-05-02T09:25:31.138Z</time></trkpt><trkpt lat="46.1630369" lon="13.6513487"><ele>478.57142857142856</ele><time>2026-05-02T09:25:32.149Z</time></trkpt><trkpt lat="46.1630806" lon="13.651257"><ele>481.42857142857144</ele><time>2026-05-02T09:25:33.141Z</time></trkpt><trkpt lat="46.1631078" lon="13.6511632"><ele>484.2857142857143</ele><time>2026-05-02T09:25:34.138Z</time></trkpt><trkpt lat="46.1631394" lon="13.6510724"><ele>487.1428571428571</ele><time>2026-05-02T09:25:35.137Z</time></trkpt><trkpt lat="46.1631703" lon="13.6509916"><ele>490.0</ele><time>2026-05-02T09:25:36.149Z</time></trkpt><trkpt lat="46.1632197" lon="13.6509346"><ele>490.0</ele><time>2026-05-02T09:25:37.138Z</time></trkpt><trkpt lat="46.1633039" lon="13.6508792"><ele>490.0</ele><time>2026-05-02T09:25:38.157Z</time></trkpt><trkpt lat="46.1634022" lon="13.6508265"><ele>490.0</ele><time>2026-05-02T09:25:39.131Z</time></trkpt><trkpt lat="46.1635037" lon="13.6507623"><ele>490.0</ele><time>2026-05-02T09:25:40.16Z</time></trkpt><trkpt lat="46.1636118" lon="13.6506966"><ele>490.0</ele><time>2026-05-02T09:25:41.143Z</time></trkpt><trkpt lat="46.1637141" lon="13.6506362"><ele>490.00000000000006</ele><time>2026-05-02T09:25:42.154Z</time></trkpt><trkpt lat="46.1637985" lon="13.6505608"><ele>490.0</ele><time>2026-05-02T09:25:43.134Z</time></trkpt><trkpt lat="46.1638634" lon="13.6505035"><ele>490.0</ele><time>2026-05-02T09:25:44.132Z</time></trkpt><trkpt lat="46.1639015" lon="13.6504293"><ele>490.0</ele><time>2026-05-02T09:25:46.146Z</time></trkpt><trkpt lat="46.1638359" lon="13.6503769"><ele>490.00000000000006</ele><time>2026-05-02T09:25:48.141Z</time></trkpt><trkpt lat="46.1637672" lon="13.6503956"><ele>490.0</ele><time>2026-05-02T09:25:49.138Z</time></trkpt><trkpt lat="46.1637026" lon="13.6504115"><ele>490.00000000000006</ele><time>2026-05-02T09:25:50.134Z</time></trkpt><trkpt lat="46.1636382" lon="13.6504135"><ele>490.0</ele><time>2026-05-02T09:25:51.158Z</time></trkpt><trkpt lat="46.1635711" lon="13.650413"><ele>490.0</ele><time>2026-05-02T09:25:52.144Z</time></trkpt><trkpt lat="46.1634939" lon="13.6504067"><ele>490.0</ele><time>2026-05-02T09:25:53.149Z</time></trkpt><trkpt lat="46.1633997" lon="13.6504073"><ele>490.00000000000006</ele><time>2026-05-02T09:25:54.156Z</time></trkpt><trkpt lat="46.1633044" lon="13.6504147"><ele>490.0</ele><time>2026-05-02T09:25:55.143Z</time></trkpt><trkpt lat="46.1632136" lon="13.6504305"><ele>496.8</ele><time>2026-05-02T09:25:56.154Z</time></trkpt><trkpt lat="46.1631245" lon="13.6504463"><ele>503.6</ele><time>2026-05-02T09:25:57.133Z</time></trkpt><trkpt lat="46.1630325" lon="13.6504834"><ele>510.4</ele><time>2026-05-02T09:25:58.139Z</time></trkpt><trkpt lat="46.1629381" lon="13.6505409"><ele>517.2</ele><time>2026-05-02T09:25:59.145Z</time></trkpt><trkpt lat="46.1628501" lon="13.6506105"><ele>524.0</ele><time>2026-05-02T09:26:00.136Z</time></trkpt><trkpt lat="46.1627814" lon="13.6506755"><ele>524.0</ele><time>2026-05-02T09:26:01.158Z</time></trkpt><trkpt lat="46.1627223" lon="13.6507174"><ele>524.0</ele><time>2026-05-02T09:26:02.149Z</time></trkpt><trkpt lat="46.1626561" lon="13.6507403"><ele>524.0</ele><time>2026-05-02T09:26:03.143Z</time></trkpt><trkpt lat="46.1625886" lon="13.6507506"><ele>524.0</ele><time>2026-05-02T09:26:04.144Z</time></trkpt><trkpt lat="46.1625113" lon="13.6507564"><ele>524.0</ele><time>2026-05-02T09:26:05.139Z</time></trkpt><trkpt lat="46.1624278" lon="13.650755"><ele>524.0</ele><time>2026-05-02T09:26:06.147Z</time></trkpt><trkpt lat="46.1623423" lon="13.6507528"><ele>524.0</ele><time>2026-05-02T09:26:07.151Z</time></trkpt><trkpt lat="46.1622653" lon="13.6507559"><ele>525.4</ele><time>2026-05-02T09:26:08.148Z</time></trkpt><trkpt lat="46.1621724" lon="13.65084"><ele>526.8</ele><time>2026-05-02T09:26:10.151Z</time></trkpt><trkpt lat="46.1621027" lon="13.6509959"><ele>528.2</ele><time>2026-05-02T09:26:12.143Z</time></trkpt><trkpt lat="46.1620598" lon="13.6510758"><ele>529.6</ele><time>2026-05-02T09:26:13.15Z</time></trkpt><trkpt lat="46.1619612" lon="13.6512046"><ele>531.0</ele><time>2026-05-02T09:26:15.138Z</time></trkpt><trkpt lat="46.1618919" lon="13.6512754"><ele>531.0</ele><time>2026-05-02T09:26:16.147Z</time></trkpt><trkpt lat="46.1618186" lon="13.6513329"><ele>531.0</ele><time>2026-05-02T09:26:17.149Z</time></trkpt><trkpt lat="46.1617461" lon="13.6513785"><ele>531.0</ele><time>2026-05-02T09:26:18.155Z</time></trkpt><trkpt lat="46.1616676" lon="13.651416"><ele>531.0</ele><time>2026-05-02T09:26:19.149Z</time></trkpt><trkpt lat="46.1615856" lon="13.6514526"><ele>531.0</ele><time>2026-05-02T09:26:20.161Z</time></trkpt><trkpt lat="46.1615001" lon="13.6514918"><ele>531.0</ele><time>2026-05-02T09:26:21.142Z</time></trkpt><trkpt lat="46.1614234" lon="13.6515281"><ele>531.6666666666666</ele><time>2026-05-02T09:26:22.159Z</time></trkpt><trkpt lat="46.161352" lon="13.651558"><ele>532.3333333333334</ele><time>2026-05-02T09:26:23.15Z</time></trkpt><trkpt lat="46.1612846" lon="13.6515609"><ele>533.0</ele><time>2026-05-02T09:26:24.153Z</time></trkpt><trkpt lat="46.1612216" lon="13.6515443"><ele>533.6666666666667</ele><time>2026-05-02T09:26:25.146Z</time></trkpt><trkpt lat="46.1611025" lon="13.6514338"><ele>534.3333333333334</ele><time>2026-05-02T09:26:27.165Z</time></trkpt><trkpt lat="46.1610318" lon="13.6513578"><ele>535.0</ele><time>2026-05-02T09:26:28.17Z</time></trkpt><trkpt lat="46.1609613" lon="13.6512822"><ele>535.0</ele><time>2026-05-02T09:26:29.151Z</time></trkpt><trkpt lat="46.1609079" lon="13.6512192"><ele>535.0</ele><time>2026-05-02T09:26:30.157Z</time></trkpt><trkpt lat="46.1608716" lon="13.6511393"><ele>535.0</ele><time>2026-05-02T09:26:31.151Z</time></trkpt><trkpt lat="46.1608326" lon="13.6510594"><ele>535.0</ele><time>2026-05-02T09:26:32.172Z</time></trkpt><trkpt lat="46.1607959" lon="13.6509745"><ele>535.0</ele><time>2026-05-02T09:26:33.168Z</time></trkpt><trkpt lat="46.160741" lon="13.6509095"><ele>535.0</ele><time>2026-05-02T09:26:34.159Z</time></trkpt><trkpt lat="46.1606685" lon="13.6508728"><ele>535.0</ele><time>2026-05-02T09:26:35.151Z</time></trkpt><trkpt lat="46.1605937" lon="13.6508318"><ele>539.3333333333334</ele><time>2026-05-02T09:26:36.154Z</time></trkpt><trkpt lat="46.1605208" lon="13.6507958"><ele>543.6666666666667</ele><time>2026-05-02T09:26:37.159Z</time></trkpt><trkpt lat="46.1604446" lon="13.6507429"><ele>548.0</ele><time>2026-05-02T09:26:38.154Z</time></trkpt><trkpt lat="46.1603747" lon="13.6506748"><ele>552.3333333333334</ele><time>2026-05-02T09:26:39.163Z</time></trkpt><trkpt lat="46.1603213" lon="13.6505893"><ele>556.6666666666666</ele><time>2026-05-02T09:26:40.149Z</time></trkpt><trkpt lat="46.1602835" lon="13.650516"><ele>561.0</ele><time>2026-05-02T09:26:41.145Z</time></trkpt><trkpt lat="46.1602494" lon="13.6504311"><ele>561.0</ele><time>2026-05-02T09:26:42.152Z</time></trkpt><trkpt lat="46.1602125" lon="13.6503356"><ele>561.0</ele><time>2026-05-02T09:26:43.148Z</time></trkpt><trkpt lat="46.1601765" lon="13.6502573"><ele>561.0</ele><time>2026-05-02T09:26:44.154Z</time></trkpt><trkpt lat="46.160107" lon="13.650161"><ele>561.0</ele><time>2026-05-02T09:26:46.143Z</time></trkpt><trkpt lat="46.1600044" lon="13.6501938"><ele>561.0</ele><time>2026-05-02T09:26:48.152Z</time></trkpt><trkpt lat="46.1599334" lon="13.6502299"><ele>561.0</ele><time>2026-05-02T09:26:49.135Z</time></trkpt><trkpt lat="46.159836" lon="13.6502976"><ele>557.75</ele><time>2026-05-02T09:26:50.152Z</time></trkpt><trkpt lat="46.1597323" lon="13.6503621"><ele>554.5</ele><time>2026-05-02T09:26:51.159Z</time></trkpt><trkpt lat="46.1596222" lon="13.6504482"><ele>551.25</ele><time>2026-05-02T09:26:52.152Z</time></trkpt><trkpt lat="46.1595132" lon="13.6505435"><ele>548.0</ele><time>2026-05-02T09:26:53.152Z</time></trkpt><trkpt lat="46.1594089" lon="13.6506249"><ele>548.0</ele><time>2026-05-02T09:26:54.161Z</time></trkpt><trkpt lat="46.1593204" lon="13.6506999"><ele>548.0</ele><time>2026-05-02T09:26:55.149Z</time></trkpt><trkpt lat="46.1592386" lon="13.6507384"><ele>548.0</ele><time>2026-05-02T09:26:56.153Z</time></trkpt><trkpt lat="46.1591369" lon="13.6506558"><ele>548.0</ele><time>2026-05-02T09:26:58.149Z</time></trkpt><trkpt lat="46.1590925" lon="13.6504844"><ele>548.0</ele><time>2026-05-02T09:27:00.158Z</time></trkpt><trkpt lat="46.1590844" lon="13.6503777"><ele>547.1999999999999</ele><time>2026-05-02T09:27:01.149Z</time></trkpt><trkpt lat="46.1590743" lon="13.6502658"><ele>546.4</ele><time>2026-05-02T09:27:02.15Z</time></trkpt><trkpt lat="46.1590303" lon="13.6501462"><ele>545.5999999999999</ele><time>2026-05-02T09:27:03.149Z</time></trkpt><trkpt lat="46.1589612" lon="13.6500439"><ele>544.8</ele><time>2026-05-02T09:27:04.149Z</time></trkpt><trkpt lat="46.1588941" lon="13.649945"><ele>544.0</ele><time>2026-05-02T09:27:05.144Z</time></trkpt><trkpt lat="46.1588413" lon="13.6498472"><ele>544.0</ele><time>2026-05-02T09:27:06.161Z</time></trkpt><trkpt lat="46.1587921" lon="13.6497612"><ele>544.0</ele><time>2026-05-02T09:27:07.159Z</time></trkpt><trkpt lat="46.1587359" lon="13.6496456"><ele>544.0</ele><time>2026-05-02T09:27:08.157Z</time></trkpt><trkpt lat="46.1586912" lon="13.6495148"><ele>544.0</ele><time>2026-05-02T09:27:09.149Z</time></trkpt><trkpt lat="46.1586657" lon="13.6493843"><ele>544.0</ele><time>2026-05-02T09:27:10.156Z</time></trkpt><trkpt lat="46.1586569" lon="13.6492755"><ele>544.0</ele><time>2026-05-02T09:27:11.155Z</time></trkpt><trkpt lat="46.1586858" lon="13.6491171"><ele>548.8</ele><time>2026-05-02T09:27:13.15Z</time></trkpt><trkpt lat="46.1587133" lon="13.64903"><ele>553.5999999999999</ele><time>2026-05-02T09:27:14.149Z</time></trkpt><trkpt lat="46.1587313" lon="13.6488616"><ele>558.4</ele><time>2026-05-02T09:27:16.173Z</time></trkpt><trkpt lat="46.1586866" lon="13.6487683"><ele>563.1999999999999</ele><time>2026-05-02T09:27:17.154Z</time></trkpt><trkpt lat="46.1586104" lon="13.6486729"><ele>568.0</ele><time>2026-05-02T09:27:18.139Z</time></trkpt><trkpt lat="46.1585341" lon="13.6485946"><ele>572.1999999999999</ele><time>2026-05-02T09:27:19.143Z</time></trkpt><trkpt lat="46.1584554" lon="13.6485166"><ele>576.4</ele><time>2026-05-02T09:27:20.151Z</time></trkpt><trkpt lat="46.1583773" lon="13.6484449"><ele>580.5999999999999</ele><time>2026-05-02T09:27:21.162Z</time></trkpt><trkpt lat="46.1582981" lon="13.648386"><ele>584.8</ele><time>2026-05-02T09:27:22.147Z</time></trkpt><trkpt lat="46.1582172" lon="13.648327"><ele>589.0</ele><time>2026-05-02T09:27:23.159Z</time></trkpt><trkpt lat="46.1581475" lon="13.6482553"><ele>589.0</ele><time>2026-05-02T09:27:24.151Z</time></trkpt><trkpt lat="46.1580987" lon="13.6481724"><ele>589.0</ele><time>2026-05-02T09:27:25.162Z</time></trkpt><trkpt lat="46.1580753" lon="13.6480766"><ele>589.0</ele><time>2026-05-02T09:27:26.153Z</time></trkpt><trkpt lat="46.1580874" lon="13.6479006"><ele>589.0</ele><time>2026-05-02T09:27:28.147Z</time></trkpt><trkpt lat="46.1581118" lon="13.6477866"><ele>589.0</ele><time>2026-05-02T09:27:29.145Z</time></trkpt><trkpt lat="46.1581419" lon="13.6476599"><ele>589.0</ele><time>2026-05-02T09:27:30.168Z</time></trkpt><trkpt lat="46.1581869" lon="13.6475623"><ele>591.8333333333334</ele><time>2026-05-02T09:27:31.154Z</time></trkpt><trkpt lat="46.1582478" lon="13.6474737"><ele>594.6666666666667</ele><time>2026-05-02T09:27:32.159Z</time></trkpt><trkpt lat="46.1582998" lon="13.6474025"><ele>597.5</ele><time>2026-05-02T09:27:33.146Z</time></trkpt><trkpt lat="46.158309" lon="13.6472954"><ele>600.3333333333334</ele><time>2026-05-02T09:27:35.159Z</time></trkpt><trkpt lat="46.1582481" lon="13.6472696"><ele>603.1666666666666</ele><time>2026-05-02T09:27:36.151Z</time></trkpt><trkpt lat="46.1581653" lon="13.647241"><ele>606.0</ele><time>2026-05-02T09:27:37.147Z</time></trkpt><trkpt lat="46.158094" lon="13.6471969"><ele>606.0</ele><time>2026-05-02T09:27:38.178Z</time></trkpt><trkpt lat="46.1580359" lon="13.6471299"><ele>606.0</ele><time>2026-05-02T09:27:39.155Z</time></trkpt><trkpt lat="46.1579551" lon="13.6470283"><ele>606.0</ele><time>2026-05-02T09:27:41.155Z</time></trkpt><trkpt lat="46.1578515" lon="13.6471291"><ele>606.0</ele><time>2026-05-02T09:27:43.141Z</time></trkpt><trkpt lat="46.1577909" lon="13.6472365"><ele>606.0</ele><time>2026-05-02T09:27:44.155Z</time></trkpt><trkpt lat="46.1577314" lon="13.6473406"><ele>606.0</ele><time>2026-05-02T09:27:45.151Z</time></trkpt><trkpt lat="46.1576631" lon="13.6474038"><ele>606.0</ele><time>2026-05-02T09:27:46.148Z</time></trkpt><trkpt lat="46.1576014" lon="13.6474275"><ele>606.0</ele><time>2026-05-02T09:27:47.155Z</time></trkpt><trkpt lat="46.1575391" lon="13.6474029"><ele>606.0</ele><time>2026-05-02T09:27:48.154Z</time></trkpt><trkpt lat="46.1574442" lon="13.6472723"><ele>606.0</ele><time>2026-05-02T09:27:50.152Z</time></trkpt><trkpt lat="46.1574044" lon="13.6471609"><ele>606.0</ele><time>2026-05-02T09:27:51.145Z</time></trkpt><trkpt lat="46.1573616" lon="13.6470469"><ele>610.6666666666666</ele><time>2026-05-02T09:27:52.165Z</time></trkpt><trkpt lat="46.1573174" lon="13.6469407"><ele>615.3333333333334</ele><time>2026-05-02T09:27:53.146Z</time></trkpt><trkpt lat="46.1572833" lon="13.6468324"><ele>620.0</ele><time>2026-05-02T09:27:54.158Z</time></trkpt><trkpt lat="46.1572497" lon="13.6467403"><ele>624.6666666666667</ele><time>2026-05-02T09:27:55.152Z</time></trkpt><trkpt lat="46.1571785" lon="13.6467045"><ele>629.3333333333334</ele><time>2026-05-02T09:27:57.162Z</time></trkpt><trkpt lat="46.1570742" lon="13.6467974"><ele>634.0</ele><time>2026-05-02T09:27:59.14Z</time></trkpt><trkpt lat="46.1570245" lon="13.6468595"><ele>634.0</ele><time>2026-05-02T09:28:00.147Z</time></trkpt><trkpt lat="46.1569682" lon="13.6469304"><ele>634.0</ele><time>2026-05-02T09:28:01.146Z</time></trkpt><trkpt lat="46.1569166" lon="13.6470114"><ele>634.0</ele><time>2026-05-02T09:28:02.151Z</time></trkpt><trkpt lat="46.1568672" lon="13.6470962"><ele>634.0</ele><time>2026-05-02T09:28:03.16Z</time></trkpt><trkpt lat="46.1568119" lon="13.6471776"><ele>634.0</ele><time>2026-05-02T09:28:04.157Z</time></trkpt><trkpt lat="46.1567489" lon="13.6472463"><ele>634.0</ele><time>2026-05-02T09:28:05.158Z</time></trkpt><trkpt lat="46.1566749" lon="13.6473101"><ele>632.8</ele><time>2026-05-02T09:28:06.185Z</time></trkpt><trkpt lat="46.1565966" lon="13.6473678"><ele>631.5999999999999</ele><time>2026-05-02T09:28:07.159Z</time></trkpt><trkpt lat="46.1565393" lon="13.6474238"><ele>630.4</ele><time>2026-05-02T09:28:08.159Z</time></trkpt><trkpt lat="46.1565067" lon="13.6475916"><ele>629.1999999999999</ele><time>2026-05-02T09:28:10.154Z</time></trkpt><trkpt lat="46.1564868" lon="13.6477051"><ele>628.0</ele><time>2026-05-02T09:28:12.159Z</time></trkpt><trkpt lat="46.156403" lon="13.6476149"><ele>626.6666666666667</ele><time>2026-05-02T09:28:15.151Z</time></trkpt><trkpt lat="46.1563865" lon="13.6474506"><ele>625.3333333333334</ele><time>2026-05-02T09:28:17.147Z</time></trkpt><trkpt lat="46.1563985" lon="13.6473609"><ele>624.0</ele><time>2026-05-02T09:28:18.151Z</time></trkpt><trkpt lat="46.1564293" lon="13.6471997"><ele>622.6666666666666</ele><time>2026-05-02T09:28:20.163Z</time></trkpt><trkpt lat="46.1564643" lon="13.6471073"><ele>621.3333333333333</ele><time>2026-05-02T09:28:21.156Z</time></trkpt><trkpt lat="46.1565003" lon="13.6470196"><ele>620.0</ele><time>2026-05-02T09:28:22.162Z</time></trkpt><trkpt lat="46.1565355" lon="13.6469386"><ele>622.8</ele><time>2026-05-02T09:28:23.156Z</time></trkpt><trkpt lat="46.1565725" lon="13.6468608"><ele>625.6</ele><time>2026-05-02T09:28:25.155Z</time></trkpt><trkpt lat="46.1566478" lon="13.6468137"><ele>628.4</ele><time>2026-05-02T09:28:35.164Z</time></trkpt><trkpt lat="46.1567231" lon="13.6466548"><ele>631.2</ele><time>2026-05-02T09:28:37.169Z</time></trkpt><trkpt lat="46.1567624" lon="13.6465438"><ele>634.0</ele><time>2026-05-02T09:28:38.177Z</time></trkpt><trkpt lat="46.1567974" lon="13.6464209"><ele>634.0</ele><time>2026-05-02T09:28:39.166Z</time></trkpt><trkpt lat="46.1568349" lon="13.646288"><ele>634.0</ele><time>2026-05-02T09:28:40.153Z</time></trkpt><trkpt lat="46.1568818" lon="13.6461582"><ele>634.0</ele><time>2026-05-02T09:28:41.153Z</time></trkpt><trkpt lat="46.1569376" lon="13.6460305"><ele>634.0</ele><time>2026-05-02T09:28:42.159Z</time></trkpt><trkpt lat="46.1569934" lon="13.6459091"><ele>634.0</ele><time>2026-05-02T09:28:43.142Z</time></trkpt><trkpt lat="46.1570479" lon="13.6457951"><ele>635.8</ele><time>2026-05-02T09:28:44.145Z</time></trkpt><trkpt lat="46.1570962" lon="13.6457093"><ele>637.5999999999999</ele><time>2026-05-02T09:28:45.138Z</time></trkpt><trkpt lat="46.1571758" lon="13.6456137"><ele>639.4</ele><time>2026-05-02T09:28:47.156Z</time></trkpt><trkpt lat="46.1572859" lon="13.6456126"><ele>641.1999999999999</ele><time>2026-05-02T09:28:49.161Z</time></trkpt><trkpt lat="46.15739" lon="13.6456549"><ele>643.0</ele><time>2026-05-02T09:28:50.147Z</time></trkpt><trkpt lat="46.1574914" lon="13.6457187"><ele>644.1666666666667</ele><time>2026-05-02T09:28:51.159Z</time></trkpt><trkpt lat="46.1575727" lon="13.6457715"><ele>645.3333333333334</ele><time>2026-05-02T09:28:52.158Z</time></trkpt><trkpt lat="46.1576331" lon="13.6457974"><ele>646.5</ele><time>2026-05-02T09:28:53.157Z</time></trkpt><trkpt lat="46.1576976" lon="13.6457891"><ele>647.6666666666666</ele><time>2026-05-02T09:28:54.166Z</time></trkpt><trkpt lat="46.157777" lon="13.6457239"><ele>648.8333333333333</ele><time>2026-05-02T09:28:55.149Z</time></trkpt><trkpt lat="46.1578515" lon="13.6456452"><ele>650.0</ele><time>2026-05-02T09:28:56.155Z</time></trkpt><trkpt lat="46.1579325" lon="13.6455817"><ele>650.0</ele><time>2026-05-02T09:28:57.158Z</time></trkpt><trkpt lat="46.1580105" lon="13.6455556"><ele>650.0</ele><time>2026-05-02T09:28:58.173Z</time></trkpt><trkpt lat="46.1580867" lon="13.6455653"><ele>650.0</ele><time>2026-05-02T09:28:59.176Z</time></trkpt><trkpt lat="46.1581528" lon="13.6455931"><ele>650.0</ele><time>2026-05-02T09:29:00.162Z</time></trkpt><trkpt lat="46.1582536" lon="13.6456394"><ele>650.0</ele><time>2026-05-02T09:29:02.166Z</time></trkpt><trkpt lat="46.1583385" lon="13.6456519"><ele>650.0</ele><time>2026-05-02T09:29:17.173Z</time></trkpt><trkpt lat="46.1584007" lon="13.6456701"><ele>650.0</ele><time>2026-05-02T09:29:19.162Z</time></trkpt><trkpt lat="46.1583356" lon="13.6456315"><ele>650.0</ele><time>2026-05-02T09:41:17.161Z</time></trkpt><trkpt lat="46.1582709" lon="13.6455756"><ele>650.0</ele><time>2026-05-02T09:41:19.168Z</time></trkpt><trkpt lat="46.1582516" lon="13.6454645"><ele>650.0</ele><time>2026-05-02T09:41:22.17Z</time></trkpt><trkpt lat="46.15833" lon="13.6454563"><ele>650.0</ele><time>2026-05-02T09:41:25.169Z</time></trkpt><trkpt lat="46.1584538" lon="13.6454702"><ele>650.0</ele><time>2026-05-02T09:41:27.172Z</time></trkpt><trkpt lat="46.1585225" lon="13.645459"><ele>650.0</ele><time>2026-05-02T09:41:28.175Z</time></trkpt><trkpt lat="46.1585856" lon="13.645454"><ele>650.0</ele><time>2026-05-02T09:41:29.165Z</time></trkpt><trkpt lat="46.1586486" lon="13.6454364"><ele>650.0</ele><time>2026-05-02T09:41:30.173Z</time></trkpt><trkpt lat="46.158756" lon="13.645361"><ele>650.0</ele><time>2026-05-02T09:41:32.174Z</time></trkpt><trkpt lat="46.158846" lon="13.6452598"><ele>650.0</ele><time>2026-05-02T09:41:34.172Z</time></trkpt><trkpt lat="46.1588899" lon="13.6451921"><ele>650.0</ele><time>2026-05-02T09:41:35.175Z</time></trkpt><trkpt lat="46.158935" lon="13.6451105"><ele>650.1666666666666</ele><time>2026-05-02T09:41:36.165Z</time></trkpt><trkpt lat="46.1589792" lon="13.6450365"><ele>650.3333333333333</ele><time>2026-05-02T09:41:37.169Z</time></trkpt><trkpt lat="46.1590373" lon="13.6449724"><ele>650.5</ele><time>2026-05-02T09:41:38.155Z</time></trkpt><trkpt lat="46.1591032" lon="13.6449385"><ele>650.6666666666666</ele><time>2026-05-02T09:41:39.165Z</time></trkpt><trkpt lat="46.1591812" lon="13.6449491"><ele>650.8333333333334</ele><time>2026-05-02T09:41:40.152Z</time></trkpt><trkpt lat="46.1592643" lon="13.6450008"><ele>651.0</ele><time>2026-05-02T09:41:41.154Z</time></trkpt><trkpt lat="46.1593548" lon="13.6450546"><ele>653.8</ele><time>2026-05-02T09:41:42.151Z</time></trkpt><trkpt lat="46.1594553" lon="13.6450904"><ele>656.5999999999999</ele><time>2026-05-02T09:41:43.164Z</time></trkpt><trkpt lat="46.1595633" lon="13.6451075"><ele>659.4</ele><time>2026-05-02T09:41:44.165Z</time></trkpt><trkpt lat="46.1596713" lon="13.6451284"><ele>662.2</ele><time>2026-05-02T09:41:45.167Z</time></trkpt><trkpt lat="46.1597787" lon="13.6451634"><ele>665.0</ele><time>2026-05-02T09:41:46.151Z</time></trkpt><trkpt lat="46.1598819" lon="13.6452035"><ele>666.75</ele><time>2026-05-02T09:41:47.175Z</time></trkpt><trkpt lat="46.1599937" lon="13.6452579"><ele>668.5</ele><time>2026-05-02T09:41:48.161Z</time></trkpt><trkpt lat="46.1601076" lon="13.6453048"><ele>670.25</ele><time>2026-05-02T09:41:49.162Z</time></trkpt><trkpt lat="46.1602256" lon="13.6453463"><ele>672.0</ele><time>2026-05-02T09:41:50.162Z</time></trkpt><trkpt lat="46.1603422" lon="13.6453712"><ele>675.6</ele><time>2026-05-02T09:41:51.139Z</time></trkpt><trkpt lat="46.1604579" lon="13.6453774"><ele>679.2</ele><time>2026-05-02T09:41:52.161Z</time></trkpt><trkpt lat="46.160576" lon="13.6453625"><ele>682.8</ele><time>2026-05-02T09:41:53.165Z</time></trkpt><trkpt lat="46.1606778" lon="13.6453358"><ele>686.4</ele><time>2026-05-02T09:41:54.143Z</time></trkpt><trkpt lat="46.1607596" lon="13.6452654"><ele>690.0</ele><time>2026-05-02T09:41:55.178Z</time></trkpt><trkpt lat="46.1608304" lon="13.6451498"><ele>690.0</ele><time>2026-05-02T09:41:56.151Z</time></trkpt><trkpt lat="46.1609093" lon="13.6450177"><ele>690.0</ele><time>2026-05-02T09:41:57.162Z</time></trkpt><trkpt lat="46.1609945" lon="13.644912"><ele>690.0</ele><time>2026-05-02T09:41:58.167Z</time></trkpt><trkpt lat="46.1610908" lon="13.6448274"><ele>690.0</ele><time>2026-05-02T09:41:59.163Z</time></trkpt><trkpt lat="46.161202" lon="13.644755"><ele>690.0</ele><time>2026-05-02T09:42:00.173Z</time></trkpt><trkpt lat="46.1613111" lon="13.6446785"><ele>690.0</ele><time>2026-05-02T09:42:01.168Z</time></trkpt><trkpt lat="46.1614168" lon="13.6445948"><ele>690.0</ele><time>2026-05-02T09:42:02.158Z</time></trkpt><trkpt lat="46.1615261" lon="13.6444862"><ele>690.0</ele><time>2026-05-02T09:42:03.175Z</time></trkpt><trkpt lat="46.161627" lon="13.6443924"><ele>689.75</ele><time>2026-05-02T09:42:04.159Z</time></trkpt><trkpt lat="46.1617469" lon="13.644317"><ele>689.5</ele><time>2026-05-02T09:42:05.16Z</time></trkpt><trkpt lat="46.1618602" lon="13.6442381"><ele>689.25</ele><time>2026-05-02T09:42:06.165Z</time></trkpt><trkpt lat="46.1619538" lon="13.6441259"><ele>689.0</ele><time>2026-05-02T09:42:07.157Z</time></trkpt><trkpt lat="46.1620121" lon="13.6439711"><ele>689.0</ele><time>2026-05-02T09:42:08.159Z</time></trkpt><trkpt lat="46.1620615" lon="13.6438059"><ele>689.0</ele><time>2026-05-02T09:42:09.157Z</time></trkpt><trkpt lat="46.1621054" lon="13.643641"><ele>689.0</ele><time>2026-05-02T09:42:10.161Z</time></trkpt><trkpt lat="46.1621398" lon="13.6434692"><ele>689.0</ele><time>2026-05-02T09:42:11.166Z</time></trkpt><trkpt lat="46.1621819" lon="13.6433084"><ele>683.75</ele><time>2026-05-02T09:42:12.156Z</time></trkpt><trkpt lat="46.1622313" lon="13.6431658"><ele>678.5</ele><time>2026-05-02T09:42:13.153Z</time></trkpt><trkpt lat="46.1623041" lon="13.6430338"><ele>673.25</ele><time>2026-05-02T09:42:14.152Z</time></trkpt><trkpt lat="46.1624015" lon="13.6429236"><ele>668.0</ele><time>2026-05-02T09:42:15.154Z</time></trkpt><trkpt lat="46.1625136" lon="13.6428413"><ele>674.5</ele><time>2026-05-02T09:42:16.144Z</time></trkpt><trkpt lat="46.162625" lon="13.6427556"><ele>681.0</ele><time>2026-05-02T09:42:17.158Z</time></trkpt><trkpt lat="46.1627355" lon="13.6426432"><ele>687.5</ele><time>2026-05-02T09:42:18.17Z</time></trkpt><trkpt lat="46.1628288" lon="13.6425035"><ele>694.0</ele><time>2026-05-02T09:42:19.157Z</time></trkpt><trkpt lat="46.1629176" lon="13.6423599"><ele>694.0</ele><time>2026-05-02T09:42:20.155Z</time></trkpt><trkpt lat="46.1629953" lon="13.6422249"><ele>694.0</ele><time>2026-05-02T09:42:21.146Z</time></trkpt><trkpt lat="46.1630651" lon="13.6421148"><ele>694.0</ele><time>2026-05-02T09:42:22.156Z</time></trkpt><trkpt lat="46.1631247" lon="13.6420226"><ele>694.0</ele><time>2026-05-02T09:42:23.14Z</time></trkpt><trkpt lat="46.1631931" lon="13.6420015"><ele>694.0</ele><time>2026-05-02T09:42:24.174Z</time></trkpt><trkpt lat="46.1632705" lon="13.6420777"><ele>701.5</ele><time>2026-05-02T09:42:25.146Z</time></trkpt><trkpt lat="46.1633509" lon="13.6421847"><ele>709.0</ele><time>2026-05-02T09:42:26.146Z</time></trkpt><trkpt lat="46.1634344" lon="13.6423064"><ele>716.5</ele><time>2026-05-02T09:42:27.145Z</time></trkpt><trkpt lat="46.1635111" lon="13.6424471"><ele>724.0</ele><time>2026-05-02T09:42:28.149Z</time></trkpt><trkpt lat="46.1635708" lon="13.6425883"><ele>724.0</ele><time>2026-05-02T09:42:29.163Z</time></trkpt><trkpt lat="46.1636375" lon="13.6427287"><ele>724.0</ele><time>2026-05-02T09:42:30.158Z</time></trkpt><trkpt lat="46.1637278" lon="13.6428489"><ele>724.0</ele><time>2026-05-02T09:42:31.162Z</time></trkpt><trkpt lat="46.1638344" lon="13.6429337"><ele>724.0</ele><time>2026-05-02T09:42:32.153Z</time></trkpt><trkpt lat="46.1639525" lon="13.6430002"><ele>725.0</ele><time>2026-05-02T09:42:33.151Z</time></trkpt><trkpt lat="46.1640837" lon="13.6430303"><ele>726.0</ele><time>2026-05-02T09:42:34.149Z</time></trkpt><trkpt lat="46.1642195" lon="13.6430329"><ele>727.0</ele><time>2026-05-02T09:42:35.164Z</time></trkpt><trkpt lat="46.1643584" lon="13.6430012"><ele>728.0</ele><time>2026-05-02T09:42:36.165Z</time></trkpt><trkpt lat="46.1644929" lon="13.6429474"><ele>728.0</ele><time>2026-05-02T09:42:37.174Z</time></trkpt><trkpt lat="46.1646235" lon="13.6428613"><ele>728.0</ele><time>2026-05-02T09:42:38.147Z</time></trkpt><trkpt lat="46.1647406" lon="13.6427378"><ele>728.0</ele><time>2026-05-02T09:42:39.157Z</time></trkpt><trkpt lat="46.1648551" lon="13.6426031"><ele>728.0</ele><time>2026-05-02T09:42:40.149Z</time></trkpt><trkpt lat="46.1649687" lon="13.6424873"><ele>727.75</ele><time>2026-05-02T09:42:41.159Z</time></trkpt><trkpt lat="46.1650758" lon="13.6423652"><ele>727.5</ele><time>2026-05-02T09:42:42.218Z</time></trkpt><trkpt lat="46.1651736" lon="13.6422315"><ele>727.25</ele><time>2026-05-02T09:42:43.157Z</time></trkpt><trkpt lat="46.1652564" lon="13.6420958"><ele>727.0</ele><time>2026-05-02T09:42:44.161Z</time></trkpt><trkpt lat="46.1653383" lon="13.6419962"><ele>727.0</ele><time>2026-05-02T09:42:45.169Z</time></trkpt><trkpt lat="46.1654221" lon="13.6419496"><ele>727.0</ele><time>2026-05-02T09:42:46.18Z</time></trkpt><trkpt lat="46.1655275" lon="13.6419597"><ele>727.0</ele><time>2026-05-02T09:42:47.181Z</time></trkpt><trkpt lat="46.1656415" lon="13.6420071"><ele>727.0</ele><time>2026-05-02T09:42:48.144Z</time></trkpt><trkpt lat="46.165765" lon="13.6420498"><ele>727.0</ele><time>2026-05-02T09:42:49.161Z</time></trkpt><trkpt lat="46.1658963" lon="13.6420515"><ele>726.75</ele><time>2026-05-02T09:42:50.16Z</time></trkpt><trkpt lat="46.166028" lon="13.6420134"><ele>726.5</ele><time>2026-05-02T09:42:51.149Z</time></trkpt><trkpt lat="46.1661508" lon="13.6419496"><ele>726.25</ele><time>2026-05-02T09:42:52.16Z</time></trkpt><trkpt lat="46.1662803" lon="13.6418848"><ele>726.0</ele><time>2026-05-02T09:42:53.163Z</time></trkpt><trkpt lat="46.1664014" lon="13.6418171"><ele>726.75</ele><time>2026-05-02T09:42:54.171Z</time></trkpt><trkpt lat="46.1665157" lon="13.6417374"><ele>727.5</ele><time>2026-05-02T09:42:55.155Z</time></trkpt><trkpt lat="46.1666163" lon="13.6416332"><ele>728.25</ele><time>2026-05-02T09:42:56.186Z</time></trkpt><trkpt lat="46.1667015" lon="13.6414902"><ele>729.0</ele><time>2026-05-02T09:42:57.169Z</time></trkpt><trkpt lat="46.1667729" lon="13.6413234"><ele>729.0</ele><time>2026-05-02T09:42:58.157Z</time></trkpt><trkpt lat="46.1668311" lon="13.6411501"><ele>729.0</ele><time>2026-05-02T09:42:59.179Z</time></trkpt><trkpt lat="46.1668652" lon="13.6409608"><ele>729.0</ele><time>2026-05-02T09:43:00.181Z</time></trkpt><trkpt lat="46.166885" lon="13.6407603"><ele>729.0</ele><time>2026-05-02T09:43:01.169Z</time></trkpt><trkpt lat="46.1668993" lon="13.6405547"><ele>729.0</ele><time>2026-05-02T09:43:02.188Z</time></trkpt><trkpt lat="46.1669159" lon="13.6403602"><ele>729.0</ele><time>2026-05-02T09:43:03.156Z</time></trkpt><trkpt lat="46.1669416" lon="13.6401791"><ele>729.0</ele><time>2026-05-02T09:43:04.165Z</time></trkpt><trkpt lat="46.1669733" lon="13.6400139"><ele>729.0</ele><time>2026-05-02T09:43:05.165Z</time></trkpt><trkpt lat="46.1670278" lon="13.6399284"><ele>729.2</ele><time>2026-05-02T09:43:06.163Z</time></trkpt><trkpt lat="46.1671166" lon="13.639909"><ele>729.4000000000001</ele><time>2026-05-02T09:43:07.158Z</time></trkpt><trkpt lat="46.167197" lon="13.6399609"><ele>729.6</ele><time>2026-05-02T09:43:08.157Z</time></trkpt><trkpt lat="46.1672869" lon="13.6400543"><ele>729.8</ele><time>2026-05-02T09:43:09.155Z</time></trkpt><trkpt lat="46.1673965" lon="13.6401387"><ele>730.0</ele><time>2026-05-02T09:43:10.163Z</time></trkpt><trkpt lat="46.1675162" lon="13.6402037"><ele>730.0</ele><time>2026-05-02T09:43:11.15Z</time></trkpt><trkpt lat="46.167643" lon="13.6402566"><ele>730.0</ele><time>2026-05-02T09:43:12.158Z</time></trkpt><trkpt lat="46.1677549" lon="13.6403239"><ele>730.0</ele><time>2026-05-02T09:43:13.152Z</time></trkpt><trkpt lat="46.1678533" lon="13.640417"><ele>730.0</ele><time>2026-05-02T09:43:14.145Z</time></trkpt><trkpt lat="46.1679587" lon="13.6405287"><ele>727.0</ele><time>2026-05-02T09:43:15.15Z</time></trkpt><trkpt lat="46.1680679" lon="13.6406493"><ele>724.0</ele><time>2026-05-02T09:43:16.153Z</time></trkpt><trkpt lat="46.1681812" lon="13.6407665"><ele>721.0</ele><time>2026-05-02T09:43:17.147Z</time></trkpt><trkpt lat="46.1682986" lon="13.6408794"><ele>718.0</ele><time>2026-05-02T09:43:18.168Z</time></trkpt><trkpt lat="46.1684184" lon="13.6409835"><ele>718.0</ele><time>2026-05-02T09:43:19.154Z</time></trkpt><trkpt lat="46.168535" lon="13.6410973"><ele>718.0</ele><time>2026-05-02T09:43:20.15Z</time></trkpt><trkpt lat="46.168637" lon="13.6412268"><ele>718.0</ele><time>2026-05-02T09:43:21.145Z</time></trkpt><trkpt lat="46.1687294" lon="13.6413716"><ele>718.0</ele><time>2026-05-02T09:43:22.149Z</time></trkpt><trkpt lat="46.1688142" lon="13.6415325"><ele>719.25</ele><time>2026-05-02T09:43:23.136Z</time></trkpt><trkpt lat="46.1688818" lon="13.6417104"><ele>720.5</ele><time>2026-05-02T09:43:24.141Z</time></trkpt><trkpt lat="46.1689348" lon="13.6418825"><ele>721.75</ele><time>2026-05-02T09:43:25.156Z</time></trkpt><trkpt lat="46.1689996" lon="13.6420256"><ele>723.0</ele><time>2026-05-02T09:43:26.166Z</time></trkpt><trkpt lat="46.1690907" lon="13.6421252"><ele>717.25</ele><time>2026-05-02T09:43:27.177Z</time></trkpt><trkpt lat="46.1692102" lon="13.6421792"><ele>711.5</ele><time>2026-05-02T09:43:28.171Z</time></trkpt><trkpt lat="46.1693427" lon="13.6422057"><ele>705.75</ele><time>2026-05-02T09:43:29.157Z</time></trkpt><trkpt lat="46.169478" lon="13.6422217"><ele>700.0</ele><time>2026-05-02T09:43:30.162Z</time></trkpt><trkpt lat="46.1696126" lon="13.6422322"><ele>700.0</ele><time>2026-05-02T09:43:31.166Z</time></trkpt><trkpt lat="46.1697488" lon="13.6422224"><ele>700.0</ele><time>2026-05-02T09:43:32.175Z</time></trkpt><trkpt lat="46.1698837" lon="13.6422108"><ele>700.0</ele><time>2026-05-02T09:43:33.17Z</time></trkpt><trkpt lat="46.1700187" lon="13.6421919"><ele>700.0</ele><time>2026-05-02T09:43:34.158Z</time></trkpt><trkpt lat="46.1701531" lon="13.6421582"><ele>701.0</ele><time>2026-05-02T09:43:35.171Z</time></trkpt><trkpt lat="46.1702861" lon="13.6421024"><ele>702.0</ele><time>2026-05-02T09:43:36.164Z</time></trkpt><trkpt lat="46.1704023" lon="13.642035"><ele>703.0</ele><time>2026-05-02T09:43:37.175Z</time></trkpt><trkpt lat="46.1705092" lon="13.6419795"><ele>704.0</ele><time>2026-05-02T09:43:38.155Z</time></trkpt><trkpt lat="46.1706178" lon="13.6419518"><ele>708.0</ele><time>2026-05-02T09:43:39.158Z</time></trkpt><trkpt lat="46.1707408" lon="13.6419588"><ele>712.0</ele><time>2026-05-02T09:43:40.15Z</time></trkpt><trkpt lat="46.170867" lon="13.6419799"><ele>716.0</ele><time>2026-05-02T09:43:41.16Z</time></trkpt><trkpt lat="46.1709949" lon="13.6419874"><ele>720.0</ele><time>2026-05-02T09:43:42.162Z</time></trkpt><trkpt lat="46.1711303" lon="13.6419808"><ele>720.0</ele><time>2026-05-02T09:43:43.158Z</time></trkpt><trkpt lat="46.1712606" lon="13.6419671"><ele>720.0</ele><time>2026-05-02T09:43:44.163Z</time></trkpt><trkpt lat="46.1713891" lon="13.6419419"><ele>720.0</ele><time>2026-05-02T09:43:45.142Z</time></trkpt><trkpt lat="46.1715195" lon="13.6418902"><ele>720.0</ele><time>2026-05-02T09:43:46.149Z</time></trkpt><trkpt lat="46.1716408" lon="13.6418118"><ele>723.0</ele><time>2026-05-02T09:43:47.16Z</time></trkpt><trkpt lat="46.1717548" lon="13.6417432"><ele>726.0</ele><time>2026-05-02T09:43:48.16Z</time></trkpt><trkpt lat="46.1718644" lon="13.6417037"><ele>729.0</ele><time>2026-05-02T09:43:49.141Z</time></trkpt><trkpt lat="46.1719626" lon="13.6417044"><ele>732.0</ele><time>2026-05-02T09:43:50.144Z</time></trkpt><trkpt lat="46.1720613" lon="13.6417543"><ele>735.0</ele><time>2026-05-02T09:43:51.143Z</time></trkpt><trkpt lat="46.1721659" lon="13.6418247"><ele>735.0</ele><time>2026-05-02T09:43:52.16Z</time></trkpt><trkpt lat="46.1722651" lon="13.6418558"><ele>735.0</ele><time>2026-05-02T09:43:53.151Z</time></trkpt><trkpt lat="46.1723826" lon="13.6418402"><ele>735.0</ele><time>2026-05-02T09:43:54.162Z</time></trkpt><trkpt lat="46.1724987" lon="13.6418057"><ele>735.0</ele><time>2026-05-02T09:43:55.152Z</time></trkpt><trkpt lat="46.1726195" lon="13.6417697"><ele>737.75</ele><time>2026-05-02T09:43:56.149Z</time></trkpt><trkpt lat="46.172741" lon="13.6417324"><ele>740.5</ele><time>2026-05-02T09:43:57.165Z</time></trkpt><trkpt lat="46.1728686" lon="13.6417024"><ele>743.25</ele><time>2026-05-02T09:43:58.143Z</time></trkpt><trkpt lat="46.172981" lon="13.6416933"><ele>746.0</ele><time>2026-05-02T09:43:59.143Z</time></trkpt><trkpt lat="46.1731052" lon="13.6417188"><ele>748.5</ele><time>2026-05-02T09:44:00.15Z</time></trkpt><trkpt lat="46.1732279" lon="13.6417353"><ele>751.0</ele><time>2026-05-02T09:44:01.145Z</time></trkpt><trkpt lat="46.173355" lon="13.6417201"><ele>753.5</ele><time>2026-05-02T09:44:02.149Z</time></trkpt><trkpt lat="46.1734809" lon="13.6416936"><ele>756.0</ele><time>2026-05-02T09:44:03.155Z</time></trkpt><trkpt lat="46.1736041" lon="13.6416591"><ele>756.0</ele><time>2026-05-02T09:44:04.152Z</time></trkpt><trkpt lat="46.1737245" lon="13.641609"><ele>756.0</ele><time>2026-05-02T09:44:05.148Z</time></trkpt><trkpt lat="46.1738471" lon="13.6415579"><ele>756.0</ele><time>2026-05-02T09:44:06.171Z</time></trkpt><trkpt lat="46.1739754" lon="13.6415079"><ele>756.0</ele><time>2026-05-02T09:44:07.138Z</time></trkpt><trkpt lat="46.1741095" lon="13.6414636"><ele>757.1999999999999</ele><time>2026-05-02T09:44:08.17Z</time></trkpt><trkpt lat="46.1742347" lon="13.6414493"><ele>758.4</ele><time>2026-05-02T09:44:09.183Z</time></trkpt><trkpt lat="46.1743257" lon="13.6414556"><ele>759.6</ele><time>2026-05-02T09:44:10.157Z</time></trkpt><trkpt lat="46.174379" lon="13.6415121"><ele>760.8</ele><time>2026-05-02T09:44:11.157Z</time></trkpt><trkpt lat="46.174409" lon="13.641618"><ele>762.0</ele><time>2026-05-02T09:44:12.141Z</time></trkpt><trkpt lat="46.1743981" lon="13.6417469"><ele>762.0</ele><time>2026-05-02T09:44:13.14Z</time></trkpt><trkpt lat="46.1743675" lon="13.6418917"><ele>762.0</ele><time>2026-05-02T09:44:14.148Z</time></trkpt><trkpt lat="46.174322" lon="13.6420645"><ele>762.0</ele><time>2026-05-02T09:44:15.127Z</time></trkpt><trkpt lat="46.1742836" lon="13.6422549"><ele>762.0</ele><time>2026-05-02T09:44:16.135Z</time></trkpt><trkpt lat="46.1742321" lon="13.6424447"><ele>764.75</ele><time>2026-05-02T09:44:17.126Z</time></trkpt><trkpt lat="46.1741789" lon="13.6426418"><ele>767.5</ele><time>2026-05-02T09:44:18.144Z</time></trkpt><trkpt lat="46.1741287" lon="13.6428452"><ele>770.25</ele><time>2026-05-02T09:44:19.143Z</time></trkpt><trkpt lat="46.174082" lon="13.6430515"><ele>773.0</ele><time>2026-05-02T09:44:20.162Z</time></trkpt><trkpt lat="46.1740395" lon="13.6432548"><ele>782.0</ele><time>2026-05-02T09:44:21.149Z</time></trkpt><trkpt lat="46.1740005" lon="13.6434636"><ele>791.0</ele><time>2026-05-02T09:44:22.144Z</time></trkpt><trkpt lat="46.1739632" lon="13.6436802"><ele>800.0</ele><time>2026-05-02T09:44:23.121Z</time></trkpt><trkpt lat="46.1739296" lon="13.6439029"><ele>800.0</ele><time>2026-05-02T09:44:24.148Z</time></trkpt><trkpt lat="46.1739007" lon="13.6441365"><ele>800.0</ele><time>2026-05-02T09:44:25.146Z</time></trkpt><trkpt lat="46.173878" lon="13.6443755"><ele>800.0</ele><time>2026-05-02T09:44:26.138Z</time></trkpt><trkpt lat="46.1738544" lon="13.6446087"><ele>791.3333333333334</ele><time>2026-05-02T09:44:27.169Z</time></trkpt><trkpt lat="46.1738339" lon="13.6448407"><ele>782.6666666666667</ele><time>2026-05-02T09:44:28.122Z</time></trkpt><trkpt lat="46.1738213" lon="13.645067"><ele>774.0</ele><time>2026-05-02T09:44:29.216Z</time></trkpt><trkpt lat="46.173814" lon="13.6452938"><ele>769.25</ele><time>2026-05-02T09:44:30.124Z</time></trkpt><trkpt lat="46.173821" lon="13.6455099"><ele>764.5</ele><time>2026-05-02T09:44:31.144Z</time></trkpt><trkpt lat="46.1738314" lon="13.6457099"><ele>759.75</ele><time>2026-05-02T09:44:32.149Z</time></trkpt><trkpt lat="46.1738468" lon="13.6459007"><ele>755.0</ele><time>2026-05-02T09:44:33.154Z</time></trkpt><trkpt lat="46.173877" lon="13.6460777"><ele>755.6666666666666</ele><time>2026-05-02T09:44:34.146Z</time></trkpt><trkpt lat="46.1739403" lon="13.6462611"><ele>756.3333333333334</ele><time>2026-05-02T09:44:35.144Z</time></trkpt><trkpt lat="46.1740329" lon="13.64645"><ele>757.0</ele><time>2026-05-02T09:44:36.167Z</time></trkpt><trkpt lat="46.1741308" lon="13.6466343"><ele>757.0</ele><time>2026-05-02T09:44:37.152Z</time></trkpt><trkpt lat="46.1742175" lon="13.6468158"><ele>757.0</ele><time>2026-05-02T09:44:38.161Z</time></trkpt><trkpt lat="46.1743006" lon="13.6469962"><ele>757.0</ele><time>2026-05-02T09:44:39.149Z</time></trkpt><trkpt lat="46.1743785" lon="13.6471648"><ele>757.0</ele><time>2026-05-02T09:44:40.145Z</time></trkpt><trkpt lat="46.1744474" lon="13.6473293"><ele>755.0</ele><time>2026-05-02T09:44:41.159Z</time></trkpt><trkpt lat="46.1745065" lon="13.6474927"><ele>753.0</ele><time>2026-05-02T09:44:42.163Z</time></trkpt><trkpt lat="46.1745731" lon="13.6476301"><ele>751.0</ele><time>2026-05-02T09:44:43.155Z</time></trkpt><trkpt lat="46.1746555" lon="13.647724"><ele>749.0</ele><time>2026-05-02T09:44:44.17Z</time></trkpt><trkpt lat="46.1747608" lon="13.6477913"><ele>754.0</ele><time>2026-05-02T09:44:45.153Z</time></trkpt><trkpt lat="46.1748893" lon="13.6478287"><ele>759.0</ele><time>2026-05-02T09:44:46.179Z</time></trkpt><trkpt lat="46.1750373" lon="13.6478495"><ele>764.0</ele><time>2026-05-02T09:44:47.14Z</time></trkpt><trkpt lat="46.1751825" lon="13.6478536"><ele>769.0</ele><time>2026-05-02T09:44:48.165Z</time></trkpt><trkpt lat="46.1753201" lon="13.6478423"><ele>769.0</ele><time>2026-05-02T09:44:49.15Z</time></trkpt><trkpt lat="46.1754628" lon="13.6478296"><ele>769.0</ele><time>2026-05-02T09:44:50.152Z</time></trkpt><trkpt lat="46.1756093" lon="13.6477979"><ele>769.0</ele><time>2026-05-02T09:44:51.154Z</time></trkpt><trkpt lat="46.1757509" lon="13.6477313"><ele>769.0</ele><time>2026-05-02T09:44:52.141Z</time></trkpt><trkpt lat="46.1758844" lon="13.6476555"><ele>766.75</ele><time>2026-05-02T09:44:53.145Z</time></trkpt><trkpt lat="46.1760147" lon="13.6475668"><ele>764.5</ele><time>2026-05-02T09:44:54.149Z</time></trkpt><trkpt lat="46.1761448" lon="13.6474825"><ele>762.25</ele><time>2026-05-02T09:44:55.149Z</time></trkpt><trkpt lat="46.1762796" lon="13.6474185"><ele>760.0</ele><time>2026-05-02T09:44:56.145Z</time></trkpt><trkpt lat="46.1764192" lon="13.6473795"><ele>763.25</ele><time>2026-05-02T09:44:57.174Z</time></trkpt><trkpt lat="46.1765523" lon="13.6473767"><ele>766.5</ele><time>2026-05-02T09:44:58.148Z</time></trkpt><trkpt lat="46.1766818" lon="13.6474218"><ele>769.75</ele><time>2026-05-02T09:44:59.14Z</time></trkpt><trkpt lat="46.1768087" lon="13.647485"><ele>773.0</ele><time>2026-05-02T09:45:00.15Z</time></trkpt><trkpt lat="46.1769412" lon="13.6475569"><ele>773.0</ele><time>2026-05-02T09:45:01.158Z</time></trkpt><trkpt lat="46.1770852" lon="13.6476204"><ele>773.0</ele><time>2026-05-02T09:45:02.16Z</time></trkpt><trkpt lat="46.1772291" lon="13.6476645"><ele>773.0</ele><time>2026-05-02T09:45:03.152Z</time></trkpt><trkpt lat="46.1773655" lon="13.6476833"><ele>773.0</ele><time>2026-05-02T09:45:04.141Z</time></trkpt><trkpt lat="46.1774947" lon="13.6476799"><ele>774.5</ele><time>2026-05-02T09:45:05.145Z</time></trkpt><trkpt lat="46.1776267" lon="13.6476595"><ele>776.0</ele><time>2026-05-02T09:45:06.146Z</time></trkpt><trkpt lat="46.1777566" lon="13.6476201"><ele>777.5</ele><time>2026-05-02T09:45:07.153Z</time></trkpt><trkpt lat="46.1778817" lon="13.6475674"><ele>779.0</ele><time>2026-05-02T09:45:08.145Z</time></trkpt><trkpt lat="46.1780005" lon="13.6474777"><ele>779.0</ele><time>2026-05-02T09:45:09.154Z</time></trkpt><trkpt lat="46.1781151" lon="13.6473838"><ele>779.0</ele><time>2026-05-02T09:45:10.149Z</time></trkpt><trkpt lat="46.1782247" lon="13.6473034"><ele>779.0</ele><time>2026-05-02T09:45:11.141Z</time></trkpt><trkpt lat="46.1783186" lon="13.6472859"><ele>779.0</ele><time>2026-05-02T09:45:12.146Z</time></trkpt><trkpt lat="46.1784182" lon="13.6473197"><ele>781.4000000000001</ele><time>2026-05-02T09:45:13.141Z</time></trkpt><trkpt lat="46.1785317" lon="13.6473706"><ele>783.8</ele><time>2026-05-02T09:45:14.129Z</time></trkpt><trkpt lat="46.178651" lon="13.647401"><ele>786.2</ele><time>2026-05-02T09:45:15.15Z</time></trkpt><trkpt lat="46.1787514" lon="13.6474412"><ele>788.5999999999999</ele><time>2026-05-02T09:45:16.149Z</time></trkpt><trkpt lat="46.1788167" lon="13.6475125"><ele>791.0</ele><time>2026-05-02T09:45:17.15Z</time></trkpt><trkpt lat="46.1788537" lon="13.6476172"><ele>791.0</ele><time>2026-05-02T09:45:18.137Z</time></trkpt><trkpt lat="46.1788823" lon="13.6477564"><ele>791.0</ele><time>2026-05-02T09:45:19.14Z</time></trkpt><trkpt lat="46.178906" lon="13.6479075"><ele>791.0</ele><time>2026-05-02T09:45:20.143Z</time></trkpt><trkpt lat="46.1789141" lon="13.6480897"><ele>791.0</ele><time>2026-05-02T09:45:21.143Z</time></trkpt><trkpt lat="46.1789196" lon="13.648299"><ele>794.25</ele><time>2026-05-02T09:45:22.149Z</time></trkpt><trkpt lat="46.1789423" lon="13.6485143"><ele>797.5</ele><time>2026-05-02T09:45:23.138Z</time></trkpt><trkpt lat="46.1789747" lon="13.648722"><ele>800.75</ele><time>2026-05-02T09:45:24.142Z</time></trkpt><trkpt lat="46.1790121" lon="13.6489223"><ele>804.0</ele><time>2026-05-02T09:45:25.135Z</time></trkpt><trkpt lat="46.1790547" lon="13.6491161"><ele>804.0</ele><time>2026-05-02T09:45:26.14Z</time></trkpt><trkpt lat="46.1791016" lon="13.6493136"><ele>804.0</ele><time>2026-05-02T09:45:27.137Z</time></trkpt><trkpt lat="46.1791361" lon="13.6495245"><ele>804.0</ele><time>2026-05-02T09:45:28.157Z</time></trkpt><trkpt lat="46.1791652" lon="13.6497392"><ele>804.0</ele><time>2026-05-02T09:45:29.144Z</time></trkpt><trkpt lat="46.1791957" lon="13.6499559"><ele>807.75</ele><time>2026-05-02T09:45:30.15Z</time></trkpt><trkpt lat="46.1792302" lon="13.650169"><ele>811.5</ele><time>2026-05-02T09:45:31.14Z</time></trkpt><trkpt lat="46.1792596" lon="13.6503717"><ele>815.25</ele><time>2026-05-02T09:45:32.145Z</time></trkpt><trkpt lat="46.1792755" lon="13.6505598"><ele>819.0</ele><time>2026-05-02T09:45:33.14Z</time></trkpt><trkpt lat="46.1792811" lon="13.6507349"><ele>820.5</ele><time>2026-05-02T09:45:34.15Z</time></trkpt><trkpt lat="46.1792866" lon="13.6509016"><ele>822.0</ele><time>2026-05-02T09:45:35.139Z</time></trkpt><trkpt lat="46.1792881" lon="13.6510568"><ele>823.5</ele><time>2026-05-02T09:45:36.132Z</time></trkpt><trkpt lat="46.1792723" lon="13.6512132"><ele>825.0</ele><time>2026-05-02T09:45:37.154Z</time></trkpt><trkpt lat="46.179235" lon="13.6513798"><ele>825.75</ele><time>2026-05-02T09:45:38.143Z</time></trkpt><trkpt lat="46.179196" lon="13.6515497"><ele>826.5</ele><time>2026-05-02T09:45:39.143Z</time></trkpt><trkpt lat="46.1791658" lon="13.651706"><ele>827.25</ele><time>2026-05-02T09:45:40.136Z</time></trkpt><trkpt lat="46.1791535" lon="13.6518629"><ele>828.0</ele><time>2026-05-02T09:45:41.138Z</time></trkpt><trkpt lat="46.1791684" lon="13.6520142"><ele>830.5</ele><time>2026-05-02T09:45:42.144Z</time></trkpt><trkpt lat="46.1791993" lon="13.6521565"><ele>833.0</ele><time>2026-05-02T09:45:43.137Z</time></trkpt><trkpt lat="46.1792401" lon="13.6523056"><ele>835.5</ele><time>2026-05-02T09:45:44.136Z</time></trkpt><trkpt lat="46.1793075" lon="13.6524446"><ele>838.0</ele><time>2026-05-02T09:45:45.126Z</time></trkpt><trkpt lat="46.1794111" lon="13.6525674"><ele>838.0</ele><time>2026-05-02T09:45:46.134Z</time></trkpt><trkpt lat="46.1794963" lon="13.6526824"><ele>838.0</ele><time>2026-05-02T09:45:47.142Z</time></trkpt><trkpt lat="46.1795614" lon="13.6528044"><ele>838.0</ele><time>2026-05-02T09:45:48.147Z</time></trkpt><trkpt lat="46.179603" lon="13.652945"><ele>838.0</ele><time>2026-05-02T09:45:49.139Z</time></trkpt><trkpt lat="46.1796374" lon="13.653086"><ele>838.0</ele><time>2026-05-02T09:45:50.137Z</time></trkpt><trkpt lat="46.1796745" lon="13.6532148"><ele>840.8</ele><time>2026-05-02T09:45:51.132Z</time></trkpt><trkpt lat="46.1797258" lon="13.6533008"><ele>843.5999999999999</ele><time>2026-05-02T09:45:52.138Z</time></trkpt><trkpt lat="46.1798083" lon="13.6533257"><ele>846.4000000000001</ele><time>2026-05-02T09:45:53.151Z</time></trkpt><trkpt lat="46.1799026" lon="13.6533169"><ele>849.2</ele><time>2026-05-02T09:45:54.14Z</time></trkpt><trkpt lat="46.1800027" lon="13.6532893"><ele>852.0</ele><time>2026-05-02T09:45:55.136Z</time></trkpt><trkpt lat="46.1801085" lon="13.6532671"><ele>845.2</ele><time>2026-05-02T09:45:56.144Z</time></trkpt><trkpt lat="46.1802197" lon="13.653278"><ele>838.4000000000001</ele><time>2026-05-02T09:45:57.144Z</time></trkpt><trkpt lat="46.1803329" lon="13.6533129"><ele>831.5999999999999</ele><time>2026-05-02T09:45:58.163Z</time></trkpt><trkpt lat="46.18044" lon="13.6533301"><ele>824.8</ele><time>2026-05-02T09:45:59.14Z</time></trkpt><trkpt lat="46.1805356" lon="13.6532955"><ele>818.0</ele><time>2026-05-02T09:46:00.157Z</time></trkpt><trkpt lat="46.1806204" lon="13.6532011"><ele>818.0</ele><time>2026-05-02T09:46:01.147Z</time></trkpt><trkpt lat="46.1806822" lon="13.6530585"><ele>818.0</ele><time>2026-05-02T09:46:02.143Z</time></trkpt><trkpt lat="46.1807299" lon="13.6528862"><ele>818.0</ele><time>2026-05-02T09:46:03.17Z</time></trkpt><trkpt lat="46.1807748" lon="13.6527075"><ele>818.0</ele><time>2026-05-02T09:46:04.155Z</time></trkpt><trkpt lat="46.180817" lon="13.6525184"><ele>817.75</ele><time>2026-05-02T09:46:05.16Z</time></trkpt><trkpt lat="46.1808443" lon="13.6523139"><ele>817.5</ele><time>2026-05-02T09:46:06.15Z</time></trkpt><trkpt lat="46.1808676" lon="13.6521094"><ele>817.25</ele><time>2026-05-02T09:46:07.142Z</time></trkpt><trkpt lat="46.180896" lon="13.6519074"><ele>817.0</ele><time>2026-05-02T09:46:08.146Z</time></trkpt><trkpt lat="46.1809322" lon="13.6517036"><ele>813.0</ele><time>2026-05-02T09:46:09.149Z</time></trkpt><trkpt lat="46.1809863" lon="13.6515034"><ele>809.0</ele><time>2026-05-02T09:46:10.146Z</time></trkpt><trkpt lat="46.1810483" lon="13.651306"><ele>805.0</ele><time>2026-05-02T09:46:11.145Z</time></trkpt><trkpt lat="46.1811078" lon="13.6511082"><ele>801.0</ele><time>2026-05-02T09:46:12.156Z</time></trkpt><trkpt lat="46.1811656" lon="13.6509061"><ele>794.3333333333333</ele><time>2026-05-02T09:46:13.148Z</time></trkpt><trkpt lat="46.1812157" lon="13.6506957"><ele>787.6666666666666</ele><time>2026-05-02T09:46:14.145Z</time></trkpt><trkpt lat="46.1812663" lon="13.6504887"><ele>781.0</ele><time>2026-05-02T09:46:15.149Z</time></trkpt><trkpt lat="46.1813122" lon="13.6502821"><ele>777.75</ele><time>2026-05-02T09:46:16.157Z</time></trkpt><trkpt lat="46.1813533" lon="13.6500759"><ele>774.5</ele><time>2026-05-02T09:46:17.144Z</time></trkpt><trkpt lat="46.181383" lon="13.6498669"><ele>771.25</ele><time>2026-05-02T09:46:18.149Z</time></trkpt><trkpt lat="46.1814082" lon="13.6496665"><ele>768.0</ele><time>2026-05-02T09:46:19.147Z</time></trkpt><trkpt lat="46.1814414" lon="13.6494611"><ele>763.3333333333334</ele><time>2026-05-02T09:46:20.145Z</time></trkpt><trkpt lat="46.1814894" lon="13.6492537"><ele>758.6666666666667</ele><time>2026-05-02T09:46:21.141Z</time></trkpt><trkpt lat="46.1815385" lon="13.6490343"><ele>754.0</ele><time>2026-05-02T09:46:22.145Z</time></trkpt><trkpt lat="46.1815805" lon="13.6488158"><ele>765.0</ele><time>2026-05-02T09:46:23.158Z</time></trkpt><trkpt lat="46.1816145" lon="13.6485847"><ele>776.0</ele><time>2026-05-02T09:46:24.166Z</time></trkpt><trkpt lat="46.1816444" lon="13.6483611"><ele>787.0</ele><time>2026-05-02T09:46:25.143Z</time></trkpt><trkpt lat="46.1816673" lon="13.6481391"><ele>787.0</ele><time>2026-05-02T09:46:26.161Z</time></trkpt><trkpt lat="46.1816851" lon="13.6479272"><ele>787.0</ele><time>2026-05-02T09:46:27.147Z</time></trkpt><trkpt lat="46.181709" lon="13.6477341"><ele>787.0</ele><time>2026-05-02T09:46:28.16Z</time></trkpt><trkpt lat="46.181745" lon="13.6475476"><ele>787.0</ele><time>2026-05-02T09:46:29.154Z</time></trkpt><trkpt lat="46.1817893" lon="13.6473691"><ele>783.25</ele><time>2026-05-02T09:46:30.153Z</time></trkpt><trkpt lat="46.1818315" lon="13.647194"><ele>779.5</ele><time>2026-05-02T09:46:31.164Z</time></trkpt><trkpt lat="46.1818464" lon="13.6470123"><ele>775.75</ele><time>2026-05-02T09:46:32.167Z</time></trkpt><trkpt lat="46.1818479" lon="13.6468307"><ele>772.0</ele><time>2026-05-02T09:46:33.163Z</time></trkpt><trkpt lat="46.1818554" lon="13.6466496"><ele>768.75</ele><time>2026-05-02T09:46:34.147Z</time></trkpt><trkpt lat="46.1818748" lon="13.646482"><ele>765.5</ele><time>2026-05-02T09:46:35.163Z</time></trkpt><trkpt lat="46.1819195" lon="13.64633"><ele>762.25</ele><time>2026-05-02T09:46:36.152Z</time></trkpt><trkpt lat="46.181979" lon="13.6461684"><ele>759.0</ele><time>2026-05-02T09:46:37.146Z</time></trkpt><trkpt lat="46.1820599" lon="13.6460022"><ele>752.6666666666666</ele><time>2026-05-02T09:46:38.16Z</time></trkpt><trkpt lat="46.1821597" lon="13.645832"><ele>746.3333333333333</ele><time>2026-05-02T09:46:39.145Z</time></trkpt><trkpt lat="46.1822405" lon="13.6456415"><ele>740.0</ele><time>2026-05-02T09:46:40.146Z</time></trkpt><trkpt lat="46.1823005" lon="13.6454395"><ele>748.0</ele><time>2026-05-02T09:46:41.154Z</time></trkpt><trkpt lat="46.182357" lon="13.6452409"><ele>756.0</ele><time>2026-05-02T09:46:42.143Z</time></trkpt><trkpt lat="46.1824249" lon="13.6450442"><ele>764.0</ele><time>2026-05-02T09:46:43.141Z</time></trkpt><trkpt lat="46.1825099" lon="13.644864"><ele>764.0</ele><time>2026-05-02T09:46:44.148Z</time></trkpt><trkpt lat="46.1826051" lon="13.6447009"><ele>764.0</ele><time>2026-05-02T09:46:45.142Z</time></trkpt><trkpt lat="46.1826953" lon="13.6445573"><ele>764.0</ele><time>2026-05-02T09:46:46.139Z</time></trkpt><trkpt lat="46.1827602" lon="13.6444275"><ele>764.0</ele><time>2026-05-02T09:46:47.145Z</time></trkpt><trkpt lat="46.1827958" lon="13.644274"><ele>758.25</ele><time>2026-05-02T09:46:48.136Z</time></trkpt><trkpt lat="46.1827902" lon="13.644111"><ele>752.5</ele><time>2026-05-02T09:46:49.124Z</time></trkpt><trkpt lat="46.1827642" lon="13.6439135"><ele>746.75</ele><time>2026-05-02T09:46:50.117Z</time></trkpt><trkpt lat="46.1827263" lon="13.6437192"><ele>741.0</ele><time>2026-05-02T09:46:51.124Z</time></trkpt><trkpt lat="46.1826878" lon="13.6435303"><ele>739.75</ele><time>2026-05-02T09:46:52.123Z</time></trkpt><trkpt lat="46.1826597" lon="13.6433403"><ele>738.5</ele><time>2026-05-02T09:46:53.133Z</time></trkpt><trkpt lat="46.1826473" lon="13.6431405"><ele>737.25</ele><time>2026-05-02T09:46:54.158Z</time></trkpt><trkpt lat="46.1826643" lon="13.6429515"><ele>736.0</ele><time>2026-05-02T09:46:55.141Z</time></trkpt><trkpt lat="46.182694" lon="13.642775"><ele>736.0</ele><time>2026-05-02T09:46:56.133Z</time></trkpt><trkpt lat="46.1827326" lon="13.6426157"><ele>736.0</ele><time>2026-05-02T09:46:57.141Z</time></trkpt><trkpt lat="46.1827727" lon="13.6424655"><ele>736.0</ele><time>2026-05-02T09:46:58.16Z</time></trkpt><trkpt lat="46.1828328" lon="13.6423473"><ele>736.0</ele><time>2026-05-02T09:46:59.141Z</time></trkpt><trkpt lat="46.182928" lon="13.6422612"><ele>736.0</ele><time>2026-05-02T09:47:00.142Z</time></trkpt><trkpt lat="46.1830473" lon="13.6421862"><ele>736.0</ele><time>2026-05-02T09:47:01.123Z</time></trkpt><trkpt lat="46.1831693" lon="13.642114"><ele>736.0</ele><time>2026-05-02T09:47:02.138Z</time></trkpt><trkpt lat="46.1832842" lon="13.6420494"><ele>736.0</ele><time>2026-05-02T09:47:03.176Z</time></trkpt><trkpt lat="46.1833889" lon="13.6419963"><ele>736.0</ele><time>2026-05-02T09:47:04.155Z</time></trkpt><trkpt lat="46.1834811" lon="13.6419367"><ele>738.0</ele><time>2026-05-02T09:47:05.15Z</time></trkpt><trkpt lat="46.1835559" lon="13.6418556"><ele>740.0</ele><time>2026-05-02T09:47:06.133Z</time></trkpt><trkpt lat="46.183595" lon="13.641737"><ele>742.0</ele><time>2026-05-02T09:47:07.129Z</time></trkpt><trkpt lat="46.1835894" lon="13.6415753"><ele>744.0</ele><time>2026-05-02T09:47:08.143Z</time></trkpt><trkpt lat="46.1835614" lon="13.6413896"><ele>746.0</ele><time>2026-05-02T09:47:09.131Z</time></trkpt><trkpt lat="46.1835396" lon="13.6412073"><ele>742.0</ele><time>2026-05-02T09:47:10.137Z</time></trkpt><trkpt lat="46.1835689" lon="13.6410251"><ele>738.0</ele><time>2026-05-02T09:47:11.148Z</time></trkpt><trkpt lat="46.1836163" lon="13.6408389"><ele>734.0</ele><time>2026-05-02T09:47:12.141Z</time></trkpt><trkpt lat="46.1836582" lon="13.6406354"><ele>730.0</ele><time>2026-05-02T09:47:13.153Z</time></trkpt><trkpt lat="46.1836589" lon="13.6404314"><ele>728.3333333333334</ele><time>2026-05-02T09:47:14.143Z</time></trkpt><trkpt lat="46.1836171" lon="13.6402306"><ele>726.6666666666666</ele><time>2026-05-02T09:47:15.141Z</time></trkpt><trkpt lat="46.1835703" lon="13.6400108"><ele>725.0</ele><time>2026-05-02T09:47:16.135Z</time></trkpt><trkpt lat="46.1835154" lon="13.6397912"><ele>725.0</ele><time>2026-05-02T09:47:17.137Z</time></trkpt><trkpt lat="46.1834616" lon="13.6395767"><ele>725.0</ele><time>2026-05-02T09:47:18.145Z</time></trkpt><trkpt lat="46.1834119" lon="13.6393749"><ele>725.0</ele><time>2026-05-02T09:47:19.145Z</time></trkpt><trkpt lat="46.1833738" lon="13.6391856"><ele>725.0</ele><time>2026-05-02T09:47:20.145Z</time></trkpt><trkpt lat="46.1833537" lon="13.6390229"><ele>724.2</ele><time>2026-05-02T09:47:21.162Z</time></trkpt><trkpt lat="46.1833818" lon="13.6388749"><ele>723.4</ele><time>2026-05-02T09:47:22.141Z</time></trkpt><trkpt lat="46.1834302" lon="13.6387531"><ele>722.5999999999999</ele><time>2026-05-02T09:47:23.129Z</time></trkpt><trkpt lat="46.1835085" lon="13.6386738"><ele>721.8</ele><time>2026-05-02T09:47:24.137Z</time></trkpt><trkpt lat="46.1835973" lon="13.6386153"><ele>721.0</ele><time>2026-05-02T09:47:25.135Z</time></trkpt><trkpt lat="46.1836837" lon="13.6385652"><ele>719.4</ele><time>2026-05-02T09:47:26.139Z</time></trkpt><trkpt lat="46.1837474" lon="13.6384831"><ele>717.8</ele><time>2026-05-02T09:47:27.146Z</time></trkpt><trkpt lat="46.1837965" lon="13.6383506"><ele>716.1999999999999</ele><time>2026-05-02T09:47:28.127Z</time></trkpt><trkpt lat="46.1838079" lon="13.6381954"><ele>714.5999999999999</ele><time>2026-05-02T09:47:29.135Z</time></trkpt><trkpt lat="46.1838102" lon="13.638028"><ele>713.0</ele><time>2026-05-02T09:47:30.148Z</time></trkpt><trkpt lat="46.1838132" lon="13.6378329"><ele>711.25</ele><time>2026-05-02T09:47:31.135Z</time></trkpt><trkpt lat="46.1837998" lon="13.6376474"><ele>709.5</ele><time>2026-05-02T09:47:32.141Z</time></trkpt><trkpt lat="46.1837609" lon="13.6374845"><ele>707.75</ele><time>2026-05-02T09:47:33.155Z</time></trkpt><trkpt lat="46.1837076" lon="13.6373249"><ele>706.0</ele><time>2026-05-02T09:47:34.14Z</time></trkpt><trkpt lat="46.1836902" lon="13.6371521"><ele>707.5</ele><time>2026-05-02T09:47:35.162Z</time></trkpt><trkpt lat="46.1836998" lon="13.6369644"><ele>709.0</ele><time>2026-05-02T09:47:36.132Z</time></trkpt><trkpt lat="46.183696" lon="13.6367637"><ele>710.5</ele><time>2026-05-02T09:47:37.149Z</time></trkpt><trkpt lat="46.1836645" lon="13.6365655"><ele>712.0</ele><time>2026-05-02T09:47:38.153Z</time></trkpt><trkpt lat="46.1836165" lon="13.6363766"><ele>712.0</ele><time>2026-05-02T09:47:39.147Z</time></trkpt><trkpt lat="46.1835588" lon="13.6362153"><ele>712.0</ele><time>2026-05-02T09:47:40.138Z</time></trkpt><trkpt lat="46.1835232" lon="13.6360791"><ele>712.0</ele><time>2026-05-02T09:47:41.152Z</time></trkpt><trkpt lat="46.1835246" lon="13.6359599"><ele>712.0</ele><time>2026-05-02T09:47:42.158Z</time></trkpt><trkpt lat="46.1835591" lon="13.635842"><ele>712.0</ele><time>2026-05-02T09:47:43.144Z</time></trkpt><trkpt lat="46.1836101" lon="13.6357443"><ele>714.0</ele><time>2026-05-02T09:47:44.137Z</time></trkpt><trkpt lat="46.1836925" lon="13.6356678"><ele>716.0</ele><time>2026-05-02T09:47:45.152Z</time></trkpt><trkpt lat="46.1837955" lon="13.6356093"><ele>718.0</ele><time>2026-05-02T09:47:46.144Z</time></trkpt><trkpt lat="46.1839074" lon="13.6355523"><ele>720.0</ele><time>2026-05-02T09:47:47.137Z</time></trkpt><trkpt lat="46.1840243" lon="13.6354867"><ele>722.2</ele><time>2026-05-02T09:47:48.139Z</time></trkpt><trkpt lat="46.18413" lon="13.6354171"><ele>724.4</ele><time>2026-05-02T09:47:49.138Z</time></trkpt><trkpt lat="46.1842206" lon="13.6353217"><ele>726.5999999999999</ele><time>2026-05-02T09:47:50.151Z</time></trkpt><trkpt lat="46.1842866" lon="13.6352002"><ele>728.8</ele><time>2026-05-02T09:47:51.143Z</time></trkpt><trkpt lat="46.1843465" lon="13.635093"><ele>731.0</ele><time>2026-05-02T09:47:52.141Z</time></trkpt><trkpt lat="46.1844091" lon="13.6350006"><ele>731.0</ele><time>2026-05-02T09:47:53.143Z</time></trkpt><trkpt lat="46.1844584" lon="13.6348917"><ele>731.0</ele><time>2026-05-02T09:47:54.153Z</time></trkpt><trkpt lat="46.1844795" lon="13.6347632"><ele>731.0</ele><time>2026-05-02T09:47:55.146Z</time></trkpt><trkpt lat="46.1844787" lon="13.6346124"><ele>731.0</ele><time>2026-05-02T09:47:56.147Z</time></trkpt><trkpt lat="46.1844584" lon="13.6344543"><ele>731.0</ele><time>2026-05-02T09:47:57.127Z</time></trkpt><trkpt lat="46.1844095" lon="13.6343169"><ele>729.5999999999999</ele><time>2026-05-02T09:47:58.14Z</time></trkpt><trkpt lat="46.1843351" lon="13.6341858"><ele>728.2</ele><time>2026-05-02T09:47:59.129Z</time></trkpt><trkpt lat="46.1842601" lon="13.6340704"><ele>726.8</ele><time>2026-05-02T09:48:00.146Z</time></trkpt><trkpt lat="46.184204" lon="13.6339638"><ele>725.4000000000001</ele><time>2026-05-02T09:48:01.151Z</time></trkpt><trkpt lat="46.1841649" lon="13.6338373"><ele>724.0</ele><time>2026-05-02T09:48:02.144Z</time></trkpt><trkpt lat="46.1841563" lon="13.6336911"><ele>724.0</ele><time>2026-05-02T09:48:03.146Z</time></trkpt><trkpt lat="46.1841578" lon="13.633529"><ele>724.0</ele><time>2026-05-02T09:48:04.151Z</time></trkpt><trkpt lat="46.1841519" lon="13.63336"><ele>724.0</ele><time>2026-05-02T09:48:05.156Z</time></trkpt><trkpt lat="46.18413" lon="13.6332005"><ele>724.0</ele><time>2026-05-02T09:48:06.148Z</time></trkpt><trkpt lat="46.1840994" lon="13.6330577"><ele>724.0</ele><time>2026-05-02T09:48:07.152Z</time></trkpt><trkpt lat="46.184082" lon="13.6329099"><ele>722.25</ele><time>2026-05-02T09:48:08.154Z</time></trkpt><trkpt lat="46.1840829" lon="13.6327687"><ele>720.5</ele><time>2026-05-02T09:48:09.154Z</time></trkpt><trkpt lat="46.1841274" lon="13.6326121"><ele>718.75</ele><time>2026-05-02T09:48:10.166Z</time></trkpt><trkpt lat="46.1841932" lon="13.6324417"><ele>717.0</ele><time>2026-05-02T09:48:11.138Z</time></trkpt><trkpt lat="46.1842509" lon="13.632279"><ele>717.0</ele><time>2026-05-02T09:48:12.147Z</time></trkpt><trkpt lat="46.1842772" lon="13.6321229"><ele>717.0</ele><time>2026-05-02T09:48:13.144Z</time></trkpt><trkpt lat="46.1842623" lon="13.6319853"><ele>717.0</ele><time>2026-05-02T09:48:14.145Z</time></trkpt><trkpt lat="46.1842205" lon="13.6318716"><ele>717.0</ele><time>2026-05-02T09:48:15.133Z</time></trkpt><trkpt lat="46.1841473" lon="13.6317531"><ele>717.0</ele><time>2026-05-02T09:48:16.144Z</time></trkpt><trkpt lat="46.1840512" lon="13.6316481"><ele>711.5</ele><time>2026-05-02T09:48:17.147Z</time></trkpt><trkpt lat="46.1839486" lon="13.6315429"><ele>706.0</ele><time>2026-05-02T09:48:18.153Z</time></trkpt><trkpt lat="46.1838334" lon="13.6314465"><ele>700.5</ele><time>2026-05-02T09:48:19.146Z</time></trkpt><trkpt lat="46.1837107" lon="13.6313688"><ele>695.0</ele><time>2026-05-02T09:48:20.142Z</time></trkpt><trkpt lat="46.1835933" lon="13.6313258"><ele>695.0</ele><time>2026-05-02T09:48:21.141Z</time></trkpt><trkpt lat="46.1834824" lon="13.6312792"><ele>695.0</ele><time>2026-05-02T09:48:22.152Z</time></trkpt><trkpt lat="46.1833842" lon="13.6312179"><ele>695.0</ele><time>2026-05-02T09:48:23.134Z</time></trkpt><trkpt lat="46.1833108" lon="13.6311206"><ele>695.0</ele><time>2026-05-02T09:48:24.149Z</time></trkpt><trkpt lat="46.1832609" lon="13.6309801"><ele>695.0</ele><time>2026-05-02T09:48:25.16Z</time></trkpt><trkpt lat="46.1832128" lon="13.6308221"><ele>693.5</ele><time>2026-05-02T09:48:26.142Z</time></trkpt><trkpt lat="46.1831671" lon="13.6306549"><ele>692.0</ele><time>2026-05-02T09:48:27.145Z</time></trkpt><trkpt lat="46.1831247" lon="13.6304984"><ele>690.5</ele><time>2026-05-02T09:48:28.145Z</time></trkpt><trkpt lat="46.1831047" lon="13.6303408"><ele>689.0</ele><time>2026-05-02T09:48:29.143Z</time></trkpt><trkpt lat="46.1831106" lon="13.6301656"><ele>689.0</ele><time>2026-05-02T09:48:30.153Z</time></trkpt><trkpt lat="46.1831363" lon="13.6300053"><ele>689.0</ele><time>2026-05-02T09:48:31.137Z</time></trkpt><trkpt lat="46.1831734" lon="13.6298367"><ele>689.0</ele><time>2026-05-02T09:48:32.143Z</time></trkpt><trkpt lat="46.1832293" lon="13.6296629"><ele>689.0</ele><time>2026-05-02T09:48:33.147Z</time></trkpt><trkpt lat="46.1832834" lon="13.6294932"><ele>701.75</ele><time>2026-05-02T09:48:34.145Z</time></trkpt><trkpt lat="46.1833076" lon="13.6293321"><ele>714.5</ele><time>2026-05-02T09:48:35.15Z</time></trkpt><trkpt lat="46.1833092" lon="13.6291665"><ele>727.25</ele><time>2026-05-02T09:48:36.143Z</time></trkpt><trkpt lat="46.1832946" lon="13.6289881"><ele>740.0</ele><time>2026-05-02T09:48:37.138Z</time></trkpt><trkpt lat="46.1832615" lon="13.6288177"><ele>740.0</ele><time>2026-05-02T09:48:38.165Z</time></trkpt><trkpt lat="46.1832182" lon="13.6286483"><ele>740.0</ele><time>2026-05-02T09:48:39.147Z</time></trkpt><trkpt lat="46.1831704" lon="13.6284678"><ele>740.0</ele><time>2026-05-02T09:48:40.158Z</time></trkpt><trkpt lat="46.1831259" lon="13.6282908"><ele>740.0</ele><time>2026-05-02T09:48:41.147Z</time></trkpt><trkpt lat="46.1830663" lon="13.6281122"><ele>741.0</ele><time>2026-05-02T09:48:42.152Z</time></trkpt><trkpt lat="46.1830012" lon="13.6279397"><ele>742.0</ele><time>2026-05-02T09:48:43.147Z</time></trkpt><trkpt lat="46.1829352" lon="13.6277864"><ele>743.0</ele><time>2026-05-02T09:48:44.156Z</time></trkpt><trkpt lat="46.1828738" lon="13.6276527"><ele>744.0</ele><time>2026-05-02T09:48:45.143Z</time></trkpt><trkpt lat="46.1828101" lon="13.6275394"><ele>744.0</ele><time>2026-05-02T09:48:46.17Z</time></trkpt><trkpt lat="46.1827426" lon="13.6274488"><ele>744.0</ele><time>2026-05-02T09:48:47.143Z</time></trkpt><trkpt lat="46.1826706" lon="13.6273926"><ele>744.0</ele><time>2026-05-02T09:48:48.158Z</time></trkpt><trkpt lat="46.1826014" lon="13.6273859"><ele>744.0</ele><time>2026-05-02T09:48:49.141Z</time></trkpt><trkpt lat="46.1825283" lon="13.6274292"><ele>744.0</ele><time>2026-05-02T09:48:50.143Z</time></trkpt><trkpt lat="46.182446" lon="13.6274991"><ele>744.0</ele><time>2026-05-02T09:48:51.139Z</time></trkpt><trkpt lat="46.1823516" lon="13.6275817"><ele>741.5</ele><time>2026-05-02T09:48:52.145Z</time></trkpt><trkpt lat="46.1822478" lon="13.6276771"><ele>739.0</ele><time>2026-05-02T09:48:53.152Z</time></trkpt><trkpt lat="46.1821428" lon="13.6277726"><ele>736.5</ele><time>2026-05-02T09:48:54.17Z</time></trkpt><trkpt lat="46.1820413" lon="13.6278652"><ele>734.0</ele><time>2026-05-02T09:48:55.152Z</time></trkpt><trkpt lat="46.1819411" lon="13.6279687"><ele>734.0</ele><time>2026-05-02T09:48:56.158Z</time></trkpt><trkpt lat="46.181843" lon="13.6280727"><ele>734.0</ele><time>2026-05-02T09:48:57.148Z</time></trkpt><trkpt lat="46.1817509" lon="13.6281675"><ele>734.0</ele><time>2026-05-02T09:48:58.145Z</time></trkpt><trkpt lat="46.1816648" lon="13.6282615"><ele>734.0</ele><time>2026-05-02T09:48:59.15Z</time></trkpt><trkpt lat="46.1815819" lon="13.6283554"><ele>734.0</ele><time>2026-05-02T09:49:00.156Z</time></trkpt><trkpt lat="46.181498" lon="13.6284515"><ele>732.8000000000001</ele><time>2026-05-02T09:49:01.147Z</time></trkpt><trkpt lat="46.1814132" lon="13.6285653"><ele>731.6</ele><time>2026-05-02T09:49:02.159Z</time></trkpt><trkpt lat="46.1813331" lon="13.6286888"><ele>730.4</ele><time>2026-05-02T09:49:03.152Z</time></trkpt><trkpt lat="46.1812512" lon="13.6287886"><ele>729.2</ele><time>2026-05-02T09:49:04.149Z</time></trkpt><trkpt lat="46.1811775" lon="13.6288547"><ele>728.0</ele><time>2026-05-02T09:49:05.157Z</time></trkpt><trkpt lat="46.1811162" lon="13.6288816"><ele>728.0</ele><time>2026-05-02T09:49:06.149Z</time></trkpt><trkpt lat="46.1810507" lon="13.6288653"><ele>728.0</ele><time>2026-05-02T09:49:07.145Z</time></trkpt><trkpt lat="46.1810037" lon="13.628785"><ele>728.0</ele><time>2026-05-02T09:49:08.14Z</time></trkpt><trkpt lat="46.1809733" lon="13.6286533"><ele>728.0</ele><time>2026-05-02T09:49:09.159Z</time></trkpt><trkpt lat="46.1809384" lon="13.6285245"><ele>728.0</ele><time>2026-05-02T09:49:10.151Z</time></trkpt><trkpt lat="46.1808854" lon="13.6284049"><ele>728.0</ele><time>2026-05-02T09:49:11.152Z</time></trkpt><trkpt lat="46.1808037" lon="13.6283178"><ele>728.0</ele><time>2026-05-02T09:49:12.143Z</time></trkpt><trkpt lat="46.1806965" lon="13.6282856"><ele>728.0</ele><time>2026-05-02T09:49:13.135Z</time></trkpt><trkpt lat="46.1805839" lon="13.6282525"><ele>728.0</ele><time>2026-05-02T09:49:14.146Z</time></trkpt><trkpt lat="46.1804715" lon="13.6282119"><ele>728.0</ele><time>2026-05-02T09:49:15.152Z</time></trkpt><trkpt lat="46.1803721" lon="13.6281526"><ele>728.0</ele><time>2026-05-02T09:49:16.144Z</time></trkpt><trkpt lat="46.1802782" lon="13.628096"><ele>723.0</ele><time>2026-05-02T09:49:17.156Z</time></trkpt><trkpt lat="46.1801832" lon="13.6280696"><ele>718.0</ele><time>2026-05-02T09:49:18.152Z</time></trkpt><trkpt lat="46.1800935" lon="13.6280667"><ele>713.0</ele><time>2026-05-02T09:49:19.149Z</time></trkpt><trkpt lat="46.1800128" lon="13.628053"><ele>708.0</ele><time>2026-05-02T09:49:20.158Z</time></trkpt><trkpt lat="46.1799372" lon="13.6279931"><ele>703.0</ele><time>2026-05-02T09:49:21.151Z</time></trkpt><trkpt lat="46.1798752" lon="13.6278673"><ele>704.75</ele><time>2026-05-02T09:49:22.166Z</time></trkpt><trkpt lat="46.1798255" lon="13.627677"><ele>706.5</ele><time>2026-05-02T09:49:23.152Z</time></trkpt><trkpt lat="46.1797763" lon="13.6274789"><ele>708.25</ele><time>2026-05-02T09:49:24.14Z</time></trkpt><trkpt lat="46.1797273" lon="13.6273145"><ele>710.0</ele><time>2026-05-02T09:49:25.146Z</time></trkpt><trkpt lat="46.1796651" lon="13.6271896"><ele>710.0</ele><time>2026-05-02T09:49:26.155Z</time></trkpt><trkpt lat="46.1795839" lon="13.6270878"><ele>710.0</ele><time>2026-05-02T09:49:27.141Z</time></trkpt><trkpt lat="46.1794813" lon="13.6270197"><ele>710.0</ele><time>2026-05-02T09:49:28.139Z</time></trkpt><trkpt lat="46.1793619" lon="13.6269781"><ele>710.0</ele><time>2026-05-02T09:49:29.139Z</time></trkpt><trkpt lat="46.1792492" lon="13.626957"><ele>710.0</ele><time>2026-05-02T09:49:30.148Z</time></trkpt><trkpt lat="46.1791422" lon="13.6269826"><ele>710.0</ele><time>2026-05-02T09:49:31.153Z</time></trkpt><trkpt lat="46.1790403" lon="13.6270134"><ele>710.0</ele><time>2026-05-02T09:49:32.139Z</time></trkpt><trkpt lat="46.1789493" lon="13.627036"><ele>710.0</ele><time>2026-05-02T09:49:33.151Z</time></trkpt><trkpt lat="46.1788817" lon="13.6270193"><ele>710.0</ele><time>2026-05-02T09:49:34.151Z</time></trkpt><trkpt lat="46.1788195" lon="13.6268691"><ele>710.0</ele><time>2026-05-02T09:49:36.145Z</time></trkpt><trkpt lat="46.178822" lon="13.6267475"><ele>710.0</ele><time>2026-05-02T09:49:37.15Z</time></trkpt><trkpt lat="46.1788256" lon="13.6266037"><ele>710.0</ele><time>2026-05-02T09:49:38.156Z</time></trkpt><trkpt lat="46.1788399" lon="13.6264314"><ele>710.0</ele><time>2026-05-02T09:49:39.151Z</time></trkpt><trkpt lat="46.1788581" lon="13.6262097"><ele>703.75</ele><time>2026-05-02T09:49:40.141Z</time></trkpt><trkpt lat="46.1788705" lon="13.6259922"><ele>697.5</ele><time>2026-05-02T09:49:41.16Z</time></trkpt><trkpt lat="46.1788859" lon="13.6258052"><ele>691.25</ele><time>2026-05-02T09:49:42.151Z</time></trkpt><trkpt lat="46.1789016" lon="13.6256412"><ele>685.0</ele><time>2026-05-02T09:49:43.139Z</time></trkpt><trkpt lat="46.1788977" lon="13.6254969"><ele>685.0</ele><time>2026-05-02T09:49:44.167Z</time></trkpt><trkpt lat="46.1788518" lon="13.6253793"><ele>685.0</ele><time>2026-05-02T09:49:45.143Z</time></trkpt><trkpt lat="46.1787707" lon="13.6252584"><ele>685.0</ele><time>2026-05-02T09:49:46.152Z</time></trkpt><trkpt lat="46.178679" lon="13.6251579"><ele>685.0</ele><time>2026-05-02T09:49:47.135Z</time></trkpt><trkpt lat="46.1785888" lon="13.6250822"><ele>685.0</ele><time>2026-05-02T09:49:48.143Z</time></trkpt><trkpt lat="46.1784927" lon="13.6250714"><ele>684.2</ele><time>2026-05-02T09:49:49.161Z</time></trkpt><trkpt lat="46.1783971" lon="13.6250733"><ele>683.4</ele><time>2026-05-02T09:49:50.138Z</time></trkpt><trkpt lat="46.178297" lon="13.6250814"><ele>682.5999999999999</ele><time>2026-05-02T09:49:51.145Z</time></trkpt><trkpt lat="46.1781937" lon="13.6250335"><ele>681.8</ele><time>2026-05-02T09:49:52.152Z</time></trkpt><trkpt lat="46.1781083" lon="13.6249651"><ele>681.0</ele><time>2026-05-02T09:49:53.149Z</time></trkpt><trkpt lat="46.1780444" lon="13.6248853"><ele>681.0</ele><time>2026-05-02T09:49:54.154Z</time></trkpt><trkpt lat="46.1780104" lon="13.624773"><ele>681.0</ele><time>2026-05-02T09:49:55.141Z</time></trkpt><trkpt lat="46.1779934" lon="13.6246285"><ele>681.0</ele><time>2026-05-02T09:49:56.145Z</time></trkpt><trkpt lat="46.1779387" lon="13.6244918"><ele>681.0</ele><time>2026-05-02T09:49:57.144Z</time></trkpt><trkpt lat="46.1778655" lon="13.6243705"><ele>681.0</ele><time>2026-05-02T09:49:58.133Z</time></trkpt><trkpt lat="46.1777926" lon="13.6242775"><ele>681.1999999999999</ele><time>2026-05-02T09:49:59.137Z</time></trkpt><trkpt lat="46.1777131" lon="13.6242272"><ele>681.4</ele><time>2026-05-02T09:50:00.148Z</time></trkpt><trkpt lat="46.1776165" lon="13.6242198"><ele>681.6</ele><time>2026-05-02T09:50:01.134Z</time></trkpt><trkpt lat="46.1775134" lon="13.6242265"><ele>681.8</ele><time>2026-05-02T09:50:02.137Z</time></trkpt><trkpt lat="46.1774064" lon="13.6242133"><ele>682.0</ele><time>2026-05-02T09:50:03.137Z</time></trkpt><trkpt lat="46.1773033" lon="13.6241881"><ele>682.0</ele><time>2026-05-02T09:50:04.155Z</time></trkpt><trkpt lat="46.1772018" lon="13.6241417"><ele>682.0</ele><time>2026-05-02T09:50:05.146Z</time></trkpt><trkpt lat="46.1771067" lon="13.6240394"><ele>682.0</ele><time>2026-05-02T09:50:06.148Z</time></trkpt><trkpt lat="46.1770184" lon="13.6239231"><ele>682.0</ele><time>2026-05-02T09:50:07.147Z</time></trkpt><trkpt lat="46.1769558" lon="13.6237868"><ele>682.0</ele><time>2026-05-02T09:50:08.158Z</time></trkpt><trkpt lat="46.1769049" lon="13.6236849"><ele>682.0</ele><time>2026-05-02T09:50:09.159Z</time></trkpt><trkpt lat="46.176804" lon="13.6236681"><ele>682.0</ele><time>2026-05-02T09:50:10.168Z</time></trkpt><trkpt lat="46.176692" lon="13.6236782"><ele>682.0</ele><time>2026-05-02T09:50:11.14Z</time></trkpt><trkpt lat="46.1765997" lon="13.6236696"><ele>682.0</ele><time>2026-05-02T09:50:12.166Z</time></trkpt><trkpt lat="46.176525" lon="13.6236389"><ele>681.0</ele><time>2026-05-02T09:50:13.153Z</time></trkpt><trkpt lat="46.1764632" lon="13.6235985"><ele>680.0</ele><time>2026-05-02T09:50:14.161Z</time></trkpt><trkpt lat="46.1764056" lon="13.6235409"><ele>679.0</ele><time>2026-05-02T09:50:15.158Z</time></trkpt><trkpt lat="46.1763386" lon="13.6234526"><ele>678.0</ele><time>2026-05-02T09:50:16.155Z</time></trkpt><trkpt lat="46.1762778" lon="13.6233397"><ele>677.0</ele><time>2026-05-02T09:50:17.154Z</time></trkpt><trkpt lat="46.1762119" lon="13.623218"><ele>676.0</ele><time>2026-05-02T09:50:18.164Z</time></trkpt><trkpt lat="46.1761458" lon="13.6230909"><ele>676.0</ele><time>2026-05-02T09:50:19.16Z</time></trkpt><trkpt lat="46.1760838" lon="13.6229646"><ele>676.0</ele><time>2026-05-02T09:50:20.153Z</time></trkpt><trkpt lat="46.1760156" lon="13.6228482"><ele>676.0</ele><time>2026-05-02T09:50:21.149Z</time></trkpt><trkpt lat="46.1759308" lon="13.6227662"><ele>676.0</ele><time>2026-05-02T09:50:22.165Z</time></trkpt><trkpt lat="46.1758322" lon="13.6227105"><ele>676.0</ele><time>2026-05-02T09:50:23.142Z</time></trkpt><trkpt lat="46.1757302" lon="13.6226726"><ele>678.0</ele><time>2026-05-02T09:50:24.158Z</time></trkpt><trkpt lat="46.175615" lon="13.6226616"><ele>680.0</ele><time>2026-05-02T09:50:25.148Z</time></trkpt><trkpt lat="46.1754954" lon="13.6226845"><ele>682.0</ele><time>2026-05-02T09:50:26.146Z</time></trkpt><trkpt lat="46.1753788" lon="13.6226773"><ele>684.0</ele><time>2026-05-02T09:50:27.139Z</time></trkpt><trkpt lat="46.1752668" lon="13.6226731"><ele>684.0</ele><time>2026-05-02T09:50:28.158Z</time></trkpt><trkpt lat="46.1751632" lon="13.6226731"><ele>684.0</ele><time>2026-05-02T09:50:29.144Z</time></trkpt><trkpt lat="46.1750704" lon="13.6226686"><ele>684.0</ele><time>2026-05-02T09:50:30.151Z</time></trkpt><trkpt lat="46.1749984" lon="13.6226595"><ele>684.0</ele><time>2026-05-02T09:50:31.146Z</time></trkpt><trkpt lat="46.1749425" lon="13.6226129"><ele>684.0</ele><time>2026-05-02T09:50:32.149Z</time></trkpt><trkpt lat="46.174919" lon="13.6225243"><ele>684.0</ele><time>2026-05-02T09:50:33.155Z</time></trkpt><trkpt lat="46.1749576" lon="13.6223616"><ele>684.0</ele><time>2026-05-02T09:50:35.146Z</time></trkpt><trkpt lat="46.1750134" lon="13.6222787"><ele>684.0</ele><time>2026-05-02T09:50:36.15Z</time></trkpt><trkpt lat="46.1750791" lon="13.6221881"><ele>684.0</ele><time>2026-05-02T09:50:37.152Z</time></trkpt><trkpt lat="46.175122" lon="13.6220519"><ele>684.0</ele><time>2026-05-02T09:50:38.158Z</time></trkpt><trkpt lat="46.175154" lon="13.6219039"><ele>684.0</ele><time>2026-05-02T09:50:39.156Z</time></trkpt><trkpt lat="46.1752033" lon="13.6217685"><ele>682.0</ele><time>2026-05-02T09:50:40.158Z</time></trkpt><trkpt lat="46.1752719" lon="13.6216675"><ele>680.0</ele><time>2026-05-02T09:50:41.149Z</time></trkpt><trkpt lat="46.1753462" lon="13.6215685"><ele>678.0</ele><time>2026-05-02T09:50:42.148Z</time></trkpt><trkpt lat="46.1754107" lon="13.6214705"><ele>676.0</ele><time>2026-05-02T09:50:43.141Z</time></trkpt><trkpt lat="46.1754481" lon="13.6213681"><ele>674.0</ele><time>2026-05-02T09:50:44.153Z</time></trkpt><trkpt lat="46.1754286" lon="13.6212456"><ele>673.75</ele><time>2026-05-02T09:50:45.152Z</time></trkpt><trkpt lat="46.1753449" lon="13.6211028"><ele>673.5</ele><time>2026-05-02T09:50:46.145Z</time></trkpt><trkpt lat="46.1752506" lon="13.6209707"><ele>673.25</ele><time>2026-05-02T09:50:47.145Z</time></trkpt><trkpt lat="46.1751507" lon="13.6208379"><ele>673.0</ele><time>2026-05-02T09:50:48.153Z</time></trkpt><trkpt lat="46.1750458" lon="13.6207113"><ele>673.0</ele><time>2026-05-02T09:50:49.156Z</time></trkpt><trkpt lat="46.1749541" lon="13.6205932"><ele>673.0</ele><time>2026-05-02T09:50:50.165Z</time></trkpt><trkpt lat="46.1748761" lon="13.6204778"><ele>673.0</ele><time>2026-05-02T09:50:51.152Z</time></trkpt><trkpt lat="46.1748099" lon="13.6203534"><ele>673.0</ele><time>2026-05-02T09:50:52.155Z</time></trkpt><trkpt lat="46.1747636" lon="13.6202069"><ele>660.75</ele><time>2026-05-02T09:50:53.162Z</time></trkpt><trkpt lat="46.1747449" lon="13.6200392"><ele>648.5</ele><time>2026-05-02T09:50:54.162Z</time></trkpt><trkpt lat="46.1747536" lon="13.6198618"><ele>636.25</ele><time>2026-05-02T09:50:55.161Z</time></trkpt><trkpt lat="46.1747848" lon="13.6196602"><ele>624.0</ele><time>2026-05-02T09:50:56.149Z</time></trkpt><trkpt lat="46.1748216" lon="13.6194443"><ele>623.75</ele><time>2026-05-02T09:50:57.145Z</time></trkpt><trkpt lat="46.1748393" lon="13.6192495"><ele>623.5</ele><time>2026-05-02T09:50:58.144Z</time></trkpt><trkpt lat="46.1748469" lon="13.6190557"><ele>623.25</ele><time>2026-05-02T09:50:59.141Z</time></trkpt><trkpt lat="46.1748728" lon="13.6188652"><ele>623.0</ele><time>2026-05-02T09:51:00.144Z</time></trkpt><trkpt lat="46.1749086" lon="13.6186912"><ele>633.5</ele><time>2026-05-02T09:51:01.158Z</time></trkpt><trkpt lat="46.1749294" lon="13.6185087"><ele>644.0</ele><time>2026-05-02T09:51:02.171Z</time></trkpt><trkpt lat="46.1749435" lon="13.6183388"><ele>654.5</ele><time>2026-05-02T09:51:03.154Z</time></trkpt><trkpt lat="46.1749351" lon="13.6181836"><ele>665.0</ele><time>2026-05-02T09:51:04.153Z</time></trkpt><trkpt lat="46.1748757" lon="13.6180483"><ele>654.5</ele><time>2026-05-02T09:51:05.145Z</time></trkpt><trkpt lat="46.1747907" lon="13.617898"><ele>644.0</ele><time>2026-05-02T09:51:06.148Z</time></trkpt><trkpt lat="46.174719" lon="13.617748"><ele>633.5</ele><time>2026-05-02T09:51:07.14Z</time></trkpt><trkpt lat="46.1746712" lon="13.6175746"><ele>623.0</ele><time>2026-05-02T09:51:08.166Z</time></trkpt><trkpt lat="46.174641" lon="13.617377"><ele>623.0</ele><time>2026-05-02T09:51:09.156Z</time></trkpt><trkpt lat="46.1746083" lon="13.617194"><ele>623.0</ele><time>2026-05-02T09:51:10.146Z</time></trkpt><trkpt lat="46.1745687" lon="13.617023"><ele>623.0</ele><time>2026-05-02T09:51:11.147Z</time></trkpt><trkpt lat="46.1745188" lon="13.616876"><ele>623.0</ele><time>2026-05-02T09:51:12.152Z</time></trkpt><trkpt lat="46.1744535" lon="13.616735"><ele>627.5</ele><time>2026-05-02T09:51:13.174Z</time></trkpt><trkpt lat="46.1743723" lon="13.6166125"><ele>632.0</ele><time>2026-05-02T09:51:14.146Z</time></trkpt><trkpt lat="46.17427" lon="13.6165005"><ele>636.5</ele><time>2026-05-02T09:51:15.141Z</time></trkpt><trkpt lat="46.1741716" lon="13.6163949"><ele>641.0</ele><time>2026-05-02T09:51:16.143Z</time></trkpt><trkpt lat="46.1740746" lon="13.6162932"><ele>640.25</ele><time>2026-05-02T09:51:17.153Z</time></trkpt><trkpt lat="46.1739766" lon="13.6161839"><ele>639.5</ele><time>2026-05-02T09:51:18.154Z</time></trkpt><trkpt lat="46.1738813" lon="13.6160681"><ele>638.75</ele><time>2026-05-02T09:51:19.164Z</time></trkpt><trkpt lat="46.1737885" lon="13.6159381"><ele>638.0</ele><time>2026-05-02T09:51:20.158Z</time></trkpt><trkpt lat="46.1736925" lon="13.6158056"><ele>638.0</ele><time>2026-05-02T09:51:21.162Z</time></trkpt><trkpt lat="46.1735861" lon="13.6156837"><ele>638.0</ele><time>2026-05-02T09:51:22.164Z</time></trkpt><trkpt lat="46.1734777" lon="13.6155722"><ele>638.0</ele><time>2026-05-02T09:51:23.152Z</time></trkpt><trkpt lat="46.1733903" lon="13.6154411"><ele>638.0</ele><time>2026-05-02T09:51:24.161Z</time></trkpt><trkpt lat="46.1733372" lon="13.6152732"><ele>636.25</ele><time>2026-05-02T09:51:25.154Z</time></trkpt><trkpt lat="46.1732873" lon="13.6150876"><ele>634.5</ele><time>2026-05-02T09:51:26.144Z</time></trkpt><trkpt lat="46.1732296" lon="13.6148944"><ele>632.75</ele><time>2026-05-02T09:51:27.161Z</time></trkpt><trkpt lat="46.173169" lon="13.6146962"><ele>631.0</ele><time>2026-05-02T09:51:28.147Z</time></trkpt><trkpt lat="46.1731116" lon="13.6144844"><ele>619.0</ele><time>2026-05-02T09:51:29.15Z</time></trkpt><trkpt lat="46.1730545" lon="13.6142807"><ele>607.0</ele><time>2026-05-02T09:51:30.155Z</time></trkpt><trkpt lat="46.1729976" lon="13.614072"><ele>595.0</ele><time>2026-05-02T09:51:31.15Z</time></trkpt><trkpt lat="46.172942" lon="13.6138632"><ele>596.6666666666667</ele><time>2026-05-02T09:51:32.15Z</time></trkpt><trkpt lat="46.1728759" lon="13.6136549"><ele>598.3333333333334</ele><time>2026-05-02T09:51:33.154Z</time></trkpt><trkpt lat="46.1727986" lon="13.6134516"><ele>600.0</ele><time>2026-05-02T09:51:34.152Z</time></trkpt><trkpt lat="46.1727177" lon="13.6132555"><ele>600.0</ele><time>2026-05-02T09:51:35.147Z</time></trkpt><trkpt lat="46.1726389" lon="13.6130703"><ele>600.0</ele><time>2026-05-02T09:51:36.162Z</time></trkpt><trkpt lat="46.1725678" lon="13.612914"><ele>600.0</ele><time>2026-05-02T09:51:37.143Z</time></trkpt><trkpt lat="46.1725082" lon="13.6127842"><ele>600.0</ele><time>2026-05-02T09:51:38.171Z</time></trkpt><trkpt lat="46.1724559" lon="13.6126762"><ele>601.6666666666666</ele><time>2026-05-02T09:51:39.157Z</time></trkpt><trkpt lat="46.17241" lon="13.6125963"><ele>603.3333333333334</ele><time>2026-05-02T09:51:40.162Z</time></trkpt><trkpt lat="46.1723191" lon="13.6125603"><ele>605.0</ele><time>2026-05-02T09:51:42.168Z</time></trkpt><trkpt lat="46.1722097" lon="13.6125445"><ele>606.6666666666667</ele><time>2026-05-02T09:51:44.166Z</time></trkpt><trkpt lat="46.1721426" lon="13.6125143"><ele>608.3333333333334</ele><time>2026-05-02T09:51:45.163Z</time></trkpt><trkpt lat="46.1720788" lon="13.6124778"><ele>610.0</ele><time>2026-05-02T09:51:46.172Z</time></trkpt><trkpt lat="46.1720066" lon="13.6124514"><ele>610.0</ele><time>2026-05-02T09:51:47.166Z</time></trkpt><trkpt lat="46.1719384" lon="13.6124333"><ele>610.0</ele><time>2026-05-02T09:51:48.15Z</time></trkpt><trkpt lat="46.1718632" lon="13.6124264"><ele>610.0</ele><time>2026-05-02T09:51:49.16Z</time></trkpt><trkpt lat="46.171789" lon="13.612435"><ele>610.0</ele><time>2026-05-02T09:51:50.152Z</time></trkpt><trkpt lat="46.1717149" lon="13.612459"><ele>610.0</ele><time>2026-05-02T09:51:51.143Z</time></trkpt><trkpt lat="46.1716337" lon="13.6125047"><ele>610.0</ele><time>2026-05-02T09:51:52.157Z</time></trkpt><trkpt lat="46.1715504" lon="13.6125573"><ele>610.3333333333334</ele><time>2026-05-02T09:51:53.149Z</time></trkpt><trkpt lat="46.1714732" lon="13.6126023"><ele>610.6666666666667</ele><time>2026-05-02T09:51:54.167Z</time></trkpt><trkpt lat="46.1713893" lon="13.6126461"><ele>611.0</ele><time>2026-05-02T09:51:55.146Z</time></trkpt><trkpt lat="46.171312" lon="13.612689"><ele>611.3333333333334</ele><time>2026-05-02T09:51:56.152Z</time></trkpt><trkpt lat="46.1712503" lon="13.6127292"><ele>611.6666666666666</ele><time>2026-05-02T09:51:57.14Z</time></trkpt><trkpt lat="46.1711357" lon="13.6127806"><ele>612.0</ele><time>2026-05-02T09:51:59.153Z</time></trkpt><trkpt lat="46.1710626" lon="13.6127843"><ele>612.0</ele><time>2026-05-02T09:52:00.15Z</time></trkpt><trkpt lat="46.170995" lon="13.6128046"><ele>612.0</ele><time>2026-05-02T09:52:01.144Z</time></trkpt><trkpt lat="46.1709202" lon="13.6128339"><ele>612.0</ele><time>2026-05-02T09:52:02.15Z</time></trkpt><trkpt lat="46.1708515" lon="13.6128626"><ele>612.0</ele><time>2026-05-02T09:52:03.153Z</time></trkpt><trkpt lat="46.1707778" lon="13.6128811"><ele>612.0</ele><time>2026-05-02T09:52:04.148Z</time></trkpt><trkpt lat="46.1706982" lon="13.6128726"><ele>612.0</ele><time>2026-05-02T09:52:05.148Z</time></trkpt><trkpt lat="46.1706252" lon="13.6128719"><ele>612.0</ele><time>2026-05-02T09:52:06.154Z</time></trkpt><trkpt lat="46.170551" lon="13.6128743"><ele>603.8000000000001</ele><time>2026-05-02T09:52:07.144Z</time></trkpt><trkpt lat="46.1704711" lon="13.6128875"><ele>595.6</ele><time>2026-05-02T09:52:08.155Z</time></trkpt><trkpt lat="46.1703803" lon="13.6128957"><ele>587.4000000000001</ele><time>2026-05-02T09:52:09.139Z</time></trkpt><trkpt lat="46.170288" lon="13.6129085"><ele>579.2</ele><time>2026-05-02T09:52:10.153Z</time></trkpt><trkpt lat="46.1701598" lon="13.6128788"><ele>571.0</ele><time>2026-05-02T09:52:12.162Z</time></trkpt><trkpt lat="46.170091" lon="13.6128289"><ele>573.5714285714286</ele><time>2026-05-02T09:52:13.16Z</time></trkpt><trkpt lat="46.1700163" lon="13.6127887"><ele>576.1428571428571</ele><time>2026-05-02T09:52:14.156Z</time></trkpt><trkpt lat="46.1699502" lon="13.6127676"><ele>578.7142857142857</ele><time>2026-05-02T09:52:15.147Z</time></trkpt><trkpt lat="46.1698842" lon="13.6127441"><ele>581.2857142857142</ele><time>2026-05-02T09:52:16.171Z</time></trkpt><trkpt lat="46.1698174" lon="13.6127361"><ele>583.8571428571428</ele><time>2026-05-02T09:52:17.138Z</time></trkpt><trkpt lat="46.1697413" lon="13.6127391"><ele>586.4285714285714</ele><time>2026-05-02T09:52:18.175Z</time></trkpt><trkpt lat="46.1696545" lon="13.6127514"><ele>589.0</ele><time>2026-05-02T09:52:19.137Z</time></trkpt><trkpt lat="46.1695658" lon="13.6127627"><ele>589.0</ele><time>2026-05-02T09:52:20.164Z</time></trkpt><trkpt lat="46.1694885" lon="13.6127652"><ele>589.0</ele><time>2026-05-02T09:52:21.136Z</time></trkpt><trkpt lat="46.1694184" lon="13.612778"><ele>589.0</ele><time>2026-05-02T09:52:22.131Z</time></trkpt><trkpt lat="46.1693526" lon="13.6127744"><ele>589.0</ele><time>2026-05-02T09:52:23.173Z</time></trkpt><trkpt lat="46.169227" lon="13.6127157"><ele>589.0</ele><time>2026-05-02T09:52:25.16Z</time></trkpt><trkpt lat="46.1691612" lon="13.6126443"><ele>589.0</ele><time>2026-05-02T09:52:26.164Z</time></trkpt><trkpt lat="46.1690952" lon="13.6125841"><ele>589.0</ele><time>2026-05-02T09:52:27.139Z</time></trkpt><trkpt lat="46.1690301" lon="13.6125292"><ele>589.0</ele><time>2026-05-02T09:52:28.14Z</time></trkpt><trkpt lat="46.1689581" lon="13.6124878"><ele>589.0</ele><time>2026-05-02T09:52:29.143Z</time></trkpt><trkpt lat="46.1688903" lon="13.61246"><ele>589.0</ele><time>2026-05-02T09:52:30.147Z</time></trkpt><trkpt lat="46.1688197" lon="13.612443"><ele>589.0</ele><time>2026-05-02T09:52:31.139Z</time></trkpt><trkpt lat="46.1687574" lon="13.6124187"><ele>589.0</ele><time>2026-05-02T09:52:32.15Z</time></trkpt><trkpt lat="46.1686924" lon="13.6124163"><ele>589.0</ele><time>2026-05-02T09:52:33.133Z</time></trkpt><trkpt lat="46.168631" lon="13.6124517"><ele>589.6666666666667</ele><time>2026-05-02T09:52:34.142Z</time></trkpt><trkpt lat="46.1685667" lon="13.6125219"><ele>590.3333333333334</ele><time>2026-05-02T09:52:35.139Z</time></trkpt><trkpt lat="46.1685095" lon="13.6125879"><ele>591.0</ele><time>2026-05-02T09:52:36.143Z</time></trkpt><trkpt lat="46.1684551" lon="13.6126634"><ele>591.6666666666666</ele><time>2026-05-02T09:52:37.137Z</time></trkpt><trkpt lat="46.1683972" lon="13.6127483"><ele>592.3333333333333</ele><time>2026-05-02T09:52:38.15Z</time></trkpt><trkpt lat="46.1683329" lon="13.6128438"><ele>593.0</ele><time>2026-05-02T09:52:39.137Z</time></trkpt><trkpt lat="46.1682726" lon="13.6129424"><ele>589.8571428571428</ele><time>2026-05-02T09:52:40.137Z</time></trkpt><trkpt lat="46.1682208" lon="13.6130359"><ele>586.7142857142857</ele><time>2026-05-02T09:52:41.139Z</time></trkpt><trkpt lat="46.1681745" lon="13.6131273"><ele>583.5714285714286</ele><time>2026-05-02T09:52:42.143Z</time></trkpt><trkpt lat="46.1681315" lon="13.6132175"><ele>580.4285714285713</ele><time>2026-05-02T09:52:43.149Z</time></trkpt><trkpt lat="46.1680812" lon="13.613291"><ele>577.2857142857142</ele><time>2026-05-02T09:52:44.149Z</time></trkpt><trkpt lat="46.1680235" lon="13.6133416"><ele>574.1428571428571</ele><time>2026-05-02T09:52:45.137Z</time></trkpt><trkpt lat="46.1679624" lon="13.6133864"><ele>571.0</ele><time>2026-05-02T09:52:46.147Z</time></trkpt><trkpt lat="46.1679032" lon="13.6134245"><ele>571.0</ele><time>2026-05-02T09:52:47.141Z</time></trkpt><trkpt lat="46.1678504" lon="13.6135036"><ele>571.0</ele><time>2026-05-02T09:52:48.143Z</time></trkpt><trkpt lat="46.1678118" lon="13.6136025"><ele>571.0</ele><time>2026-05-02T09:52:49.134Z</time></trkpt><trkpt lat="46.1677701" lon="13.6136755"><ele>571.0</ele><time>2026-05-02T09:52:50.136Z</time></trkpt><trkpt lat="46.1676827" lon="13.6136967"><ele>571.0</ele><time>2026-05-02T09:52:52.138Z</time></trkpt><trkpt lat="46.1675642" lon="13.6136567"><ele>571.0</ele><time>2026-05-02T09:52:54.143Z</time></trkpt><trkpt lat="46.1675003" lon="13.613631"><ele>571.0</ele><time>2026-05-02T09:52:55.135Z</time></trkpt><trkpt lat="46.1673881" lon="13.613576"><ele>571.0</ele><time>2026-05-02T09:52:57.139Z</time></trkpt><trkpt lat="46.1673075" lon="13.6135796"><ele>571.0</ele><time>2026-05-02T09:52:59.137Z</time></trkpt><trkpt lat="46.1672316" lon="13.6137083"><ele>571.0</ele><time>2026-05-02T09:53:01.136Z</time></trkpt><trkpt lat="46.1672061" lon="13.6138175"><ele>571.0</ele><time>2026-05-02T09:53:02.14Z</time></trkpt><trkpt lat="46.1671859" lon="13.6139268"><ele>572.8333333333334</ele><time>2026-05-02T09:53:03.141Z</time></trkpt><trkpt lat="46.1671729" lon="13.6140426"><ele>574.6666666666667</ele><time>2026-05-02T09:53:04.133Z</time></trkpt><trkpt lat="46.1671572" lon="13.6141479"><ele>576.5</ele><time>2026-05-02T09:53:05.139Z</time></trkpt><trkpt lat="46.167138" lon="13.6142594"><ele>578.3333333333334</ele><time>2026-05-02T09:53:06.147Z</time></trkpt><trkpt lat="46.1671189" lon="13.6143823"><ele>580.1666666666666</ele><time>2026-05-02T09:53:07.129Z</time></trkpt><trkpt lat="46.1671037" lon="13.6145048"><ele>582.0</ele><time>2026-05-02T09:53:08.142Z</time></trkpt><trkpt lat="46.1670863" lon="13.6146208"><ele>577.8333333333334</ele><time>2026-05-02T09:53:09.138Z</time></trkpt><trkpt lat="46.1670692" lon="13.6147342"><ele>573.6666666666666</ele><time>2026-05-02T09:53:10.133Z</time></trkpt><trkpt lat="46.1670469" lon="13.6148443"><ele>569.5</ele><time>2026-05-02T09:53:11.137Z</time></trkpt><trkpt lat="46.1670186" lon="13.6149565"><ele>565.3333333333333</ele><time>2026-05-02T09:53:12.137Z</time></trkpt><trkpt lat="46.1669844" lon="13.6150652"><ele>561.1666666666666</ele><time>2026-05-02T09:53:13.132Z</time></trkpt><trkpt lat="46.166952" lon="13.6151613"><ele>557.0</ele><time>2026-05-02T09:53:14.14Z</time></trkpt><trkpt lat="46.1669218" lon="13.6152535"><ele>556.5</ele><time>2026-05-02T09:53:15.128Z</time></trkpt><trkpt lat="46.1668534" lon="13.6153665"><ele>556.0</ele><time>2026-05-02T09:53:17.141Z</time></trkpt><trkpt lat="46.1667451" lon="13.6154365"><ele>555.5</ele><time>2026-05-02T09:53:19.135Z</time></trkpt><trkpt lat="46.1666765" lon="13.6154556"><ele>555.0</ele><time>2026-05-02T09:53:20.15Z</time></trkpt><trkpt lat="46.1666117" lon="13.615471"><ele>554.5</ele><time>2026-05-02T09:53:21.158Z</time></trkpt><trkpt lat="46.1665476" lon="13.6154991"><ele>554.0</ele><time>2026-05-02T09:53:22.145Z</time></trkpt><trkpt lat="46.1664834" lon="13.6155335"><ele>554.0</ele><time>2026-05-02T09:53:23.163Z</time></trkpt><trkpt lat="46.1664231" lon="13.6155951"><ele>554.0</ele><time>2026-05-02T09:53:24.147Z</time></trkpt><trkpt lat="46.1663717" lon="13.6156585"><ele>554.0</ele><time>2026-05-02T09:53:25.139Z</time></trkpt><trkpt lat="46.1663209" lon="13.6157282"><ele>554.0</ele><time>2026-05-02T09:53:26.152Z</time></trkpt><trkpt lat="46.1662739" lon="13.6158083"><ele>554.0</ele><time>2026-05-02T09:53:27.135Z</time></trkpt><trkpt lat="46.1662259" lon="13.6158977"><ele>554.0</ele><time>2026-05-02T09:53:28.154Z</time></trkpt><trkpt lat="46.1661757" lon="13.6160043"><ele>554.0</ele><time>2026-05-02T09:53:29.139Z</time></trkpt><trkpt lat="46.1661235" lon="13.6161103"><ele>554.0</ele><time>2026-05-02T09:53:30.148Z</time></trkpt><trkpt lat="46.1660583" lon="13.6162094"><ele>554.0</ele><time>2026-05-02T09:53:31.159Z</time></trkpt><trkpt lat="46.1659875" lon="13.6163039"><ele>554.0</ele><time>2026-05-02T09:53:32.134Z</time></trkpt><trkpt lat="46.1659109" lon="13.6164029"><ele>554.0</ele><time>2026-05-02T09:53:33.151Z</time></trkpt><trkpt lat="46.1658563" lon="13.616524"><ele>551.0</ele><time>2026-05-02T09:53:34.153Z</time></trkpt><trkpt lat="46.1658078" lon="13.6166359"><ele>548.0</ele><time>2026-05-02T09:53:35.144Z</time></trkpt><trkpt lat="46.1657533" lon="13.6167515"><ele>545.0</ele><time>2026-05-02T09:53:36.147Z</time></trkpt><trkpt lat="46.1657078" lon="13.6168557"><ele>542.0</ele><time>2026-05-02T09:53:37.155Z</time></trkpt><trkpt lat="46.1656539" lon="13.6169669"><ele>539.0</ele><time>2026-05-02T09:53:38.145Z</time></trkpt><trkpt lat="46.1655944" lon="13.6170732"><ele>533.6666666666666</ele><time>2026-05-02T09:53:39.151Z</time></trkpt><trkpt lat="46.1655456" lon="13.6171819"><ele>528.3333333333333</ele><time>2026-05-02T09:53:40.138Z</time></trkpt><trkpt lat="46.1654966" lon="13.6172908"><ele>523.0</ele><time>2026-05-02T09:53:41.145Z</time></trkpt><trkpt lat="46.1654422" lon="13.6173857"><ele>517.6666666666666</ele><time>2026-05-02T09:53:42.151Z</time></trkpt><trkpt lat="46.1653821" lon="13.6174771"><ele>512.3333333333334</ele><time>2026-05-02T09:53:43.142Z</time></trkpt><trkpt lat="46.1653212" lon="13.6175737"><ele>507.0</ele><time>2026-05-02T09:53:44.147Z</time></trkpt><trkpt lat="46.1652561" lon="13.6176711"><ele>507.0</ele><time>2026-05-02T09:53:45.143Z</time></trkpt><trkpt lat="46.1651911" lon="13.6177611"><ele>507.0</ele><time>2026-05-02T09:53:46.154Z</time></trkpt><trkpt lat="46.1651242" lon="13.6178594"><ele>507.0</ele><time>2026-05-02T09:53:47.143Z</time></trkpt><trkpt lat="46.1650548" lon="13.6179415"><ele>507.0</ele><time>2026-05-02T09:53:48.157Z</time></trkpt><trkpt lat="46.1649956" lon="13.6180094"><ele>507.0</ele><time>2026-05-02T09:53:49.17Z</time></trkpt><trkpt lat="46.1649371" lon="13.6180742"><ele>507.0</ele><time>2026-05-02T09:53:50.15Z</time></trkpt><trkpt lat="46.1648387" lon="13.6181187"><ele>501.0</ele><time>2026-05-02T09:53:52.153Z</time></trkpt><trkpt lat="46.1647263" lon="13.6180327"><ele>495.0</ele><time>2026-05-02T09:53:54.15Z</time></trkpt><trkpt lat="46.1646648" lon="13.617971"><ele>489.0</ele><time>2026-05-02T09:53:55.148Z</time></trkpt><trkpt lat="46.1645973" lon="13.61791"><ele>483.0</ele><time>2026-05-02T09:53:56.152Z</time></trkpt><trkpt lat="46.164521" lon="13.6178677"><ele>477.0</ele><time>2026-05-02T09:53:57.175Z</time></trkpt><trkpt lat="46.1644557" lon="13.6178429"><ele>471.0</ele><time>2026-05-02T09:53:58.146Z</time></trkpt><trkpt lat="46.1643655" lon="13.6178021"><ele>471.0</ele><time>2026-05-02T09:54:00.151Z</time></trkpt><trkpt lat="46.1642969" lon="13.6177124"><ele>471.0</ele><time>2026-05-02T09:54:02.151Z</time></trkpt><trkpt lat="46.164278" lon="13.61754"><ele>471.0</ele><time>2026-05-02T09:54:04.148Z</time></trkpt><trkpt lat="46.1642556" lon="13.6174461"><ele>471.0</ele><time>2026-05-02T09:54:05.136Z</time></trkpt><trkpt lat="46.1642121" lon="13.6173565"><ele>471.0</ele><time>2026-05-02T09:54:06.156Z</time></trkpt><trkpt lat="46.1641554" lon="13.6172785"><ele>471.0</ele><time>2026-05-02T09:54:07.165Z</time></trkpt><trkpt lat="46.1640919" lon="13.6172205"><ele>469.3333333333333</ele><time>2026-05-02T09:54:08.169Z</time></trkpt><trkpt lat="46.1640245" lon="13.6171604"><ele>467.66666666666663</ele><time>2026-05-02T09:54:09.141Z</time></trkpt><trkpt lat="46.1639642" lon="13.6170912"><ele>466.0</ele><time>2026-05-02T09:54:10.155Z</time></trkpt><trkpt lat="46.1639059" lon="13.6170077"><ele>464.3333333333333</ele><time>2026-05-02T09:54:11.143Z</time></trkpt><trkpt lat="46.1638622" lon="13.6169127"><ele>462.66666666666663</ele><time>2026-05-02T09:54:12.167Z</time></trkpt><trkpt lat="46.1638212" lon="13.6168065"><ele>461.0</ele><time>2026-05-02T09:54:13.157Z</time></trkpt><trkpt lat="46.1637627" lon="13.6166993"><ele>460.99999999999994</ele><time>2026-05-02T09:54:14.147Z</time></trkpt><trkpt lat="46.1636829" lon="13.6166359"><ele>461.0</ele><time>2026-05-02T09:54:15.154Z</time></trkpt><trkpt lat="46.1635909" lon="13.616586"><ele>461.0</ele><time>2026-05-02T09:54:16.138Z</time></trkpt><trkpt lat="46.1635095" lon="13.6165585"><ele>461.0</ele><time>2026-05-02T09:54:17.148Z</time></trkpt><trkpt lat="46.1634233" lon="13.6165481"><ele>460.99999999999994</ele><time>2026-05-02T09:54:18.168Z</time></trkpt><trkpt lat="46.1633404" lon="13.6165399"><ele>461.0</ele><time>2026-05-02T09:54:19.152Z</time></trkpt><trkpt lat="46.1632541" lon="13.6165361"><ele>455.8333333333333</ele><time>2026-05-02T09:54:20.157Z</time></trkpt><trkpt lat="46.1631661" lon="13.6165156"><ele>450.66666666666663</ele><time>2026-05-02T09:54:21.16Z</time></trkpt><trkpt lat="46.1630706" lon="13.6164931"><ele>445.5</ele><time>2026-05-02T09:54:22.156Z</time></trkpt><trkpt lat="46.1629854" lon="13.6164729"><ele>440.33333333333337</ele><time>2026-05-02T09:54:23.148Z</time></trkpt><trkpt lat="46.1629073" lon="13.6164383"><ele>435.1666666666667</ele><time>2026-05-02T09:54:24.157Z</time></trkpt><trkpt lat="46.1628166" lon="13.6164128"><ele>430.0</ele><time>2026-05-02T09:54:25.136Z</time></trkpt><trkpt lat="46.1627276" lon="13.6163992"><ele>430.0</ele><time>2026-05-02T09:54:26.162Z</time></trkpt><trkpt lat="46.1626388" lon="13.616375"><ele>430.0</ele><time>2026-05-02T09:54:27.171Z</time></trkpt><trkpt lat="46.1625654" lon="13.6163497"><ele>430.0</ele><time>2026-05-02T09:54:28.157Z</time></trkpt><trkpt lat="46.162448" lon="13.6162942"><ele>430.0</ele><time>2026-05-02T09:54:30.157Z</time></trkpt><trkpt lat="46.1623507" lon="13.6161802"><ele>430.0</ele><time>2026-05-02T09:54:32.143Z</time></trkpt><trkpt lat="46.1622393" lon="13.6161102"><ele>429.83333333333337</ele><time>2026-05-02T09:54:34.163Z</time></trkpt><trkpt lat="46.1621738" lon="13.6161015"><ele>429.6666666666667</ele><time>2026-05-02T09:54:35.145Z</time></trkpt><trkpt lat="46.1621045" lon="13.6160914"><ele>429.5</ele><time>2026-05-02T09:54:36.161Z</time></trkpt><trkpt lat="46.1620367" lon="13.6160476"><ele>429.33333333333337</ele><time>2026-05-02T09:54:37.147Z</time></trkpt><trkpt lat="46.1619608" lon="13.6159954"><ele>429.1666666666667</ele><time>2026-05-02T09:54:38.148Z</time></trkpt><trkpt lat="46.161888" lon="13.6159224"><ele>429.0</ele><time>2026-05-02T09:54:39.142Z</time></trkpt><trkpt lat="46.1618173" lon="13.615858"><ele>429.0</ele><time>2026-05-02T09:54:40.143Z</time></trkpt><trkpt lat="46.1617433" lon="13.6157861"><ele>429.0</ele><time>2026-05-02T09:54:41.171Z</time></trkpt><trkpt lat="46.1616708" lon="13.6157129"><ele>429.0</ele><time>2026-05-02T09:54:42.16Z</time></trkpt><trkpt lat="46.1615898" lon="13.615651"><ele>429.0</ele><time>2026-05-02T09:54:43.146Z</time></trkpt><trkpt lat="46.1615113" lon="13.6155901"><ele>429.0</ele><time>2026-05-02T09:54:44.148Z</time></trkpt><trkpt lat="46.161438" lon="13.6155257"><ele>429.0</ele><time>2026-05-02T09:54:45.147Z</time></trkpt><trkpt lat="46.1613702" lon="13.6154437"><ele>420.8333333333333</ele><time>2026-05-02T09:54:46.163Z</time></trkpt><trkpt lat="46.1613055" lon="13.6153582"><ele>412.6666666666667</ele><time>2026-05-02T09:54:47.149Z</time></trkpt><trkpt lat="46.1612481" lon="13.6152587"><ele>404.5</ele><time>2026-05-02T09:54:48.155Z</time></trkpt><trkpt lat="46.1611935" lon="13.6151553"><ele>396.33333333333337</ele><time>2026-05-02T09:54:49.143Z</time></trkpt><trkpt lat="46.1611422" lon="13.6150602"><ele>388.1666666666667</ele><time>2026-05-02T09:54:50.158Z</time></trkpt><trkpt lat="46.1610917" lon="13.6149697"><ele>380.0</ele><time>2026-05-02T09:54:51.147Z</time></trkpt><trkpt lat="46.1610472" lon="13.6148606"><ele>380.0</ele><time>2026-05-02T09:54:52.155Z</time></trkpt><trkpt lat="46.1610032" lon="13.6147512"><ele>380.0</ele><time>2026-05-02T09:54:53.14Z</time></trkpt><trkpt lat="46.1609671" lon="13.6146193"><ele>380.0</ele><time>2026-05-02T09:54:54.16Z</time></trkpt><trkpt lat="46.1609288" lon="13.614489"><ele>380.0</ele><time>2026-05-02T09:54:55.148Z</time></trkpt><trkpt lat="46.1608862" lon="13.6143568"><ele>380.0</ele><time>2026-05-02T09:54:56.154Z</time></trkpt><trkpt lat="46.1608427" lon="13.6142346"><ele>375.0</ele><time>2026-05-02T09:54:57.142Z</time></trkpt><trkpt lat="46.1608052" lon="13.6141098"><ele>370.0</ele><time>2026-05-02T09:54:58.17Z</time></trkpt><trkpt lat="46.1607629" lon="13.6139869"><ele>365.0</ele><time>2026-05-02T09:54:59.149Z</time></trkpt><trkpt lat="46.1607118" lon="13.613877"><ele>360.0</ele><time>2026-05-02T09:55:00.148Z</time></trkpt><trkpt lat="46.1606593" lon="13.6137741"><ele>355.0</ele><time>2026-05-02T09:55:01.149Z</time></trkpt><trkpt lat="46.1605989" lon="13.6136761"><ele>358.0</ele><time>2026-05-02T09:55:02.156Z</time></trkpt><trkpt lat="46.1605404" lon="13.6135747"><ele>361.0</ele><time>2026-05-02T09:55:03.144Z</time></trkpt><trkpt lat="46.1604799" lon="13.6134759"><ele>364.0</ele><time>2026-05-02T09:55:04.168Z</time></trkpt><trkpt lat="46.1604149" lon="13.6133781"><ele>367.0</ele><time>2026-05-02T09:55:05.139Z</time></trkpt><trkpt lat="46.1603543" lon="13.6132861"><ele>370.0</ele><time>2026-05-02T09:55:06.146Z</time></trkpt><trkpt lat="46.160304" lon="13.613195"><ele>373.0</ele><time>2026-05-02T09:55:07.161Z</time></trkpt><trkpt lat="46.1602589" lon="13.6131033"><ele>373.0</ele><time>2026-05-02T09:55:08.159Z</time></trkpt><trkpt lat="46.1602215" lon="13.6129955"><ele>373.0</ele><time>2026-05-02T09:55:09.155Z</time></trkpt><trkpt lat="46.1601892" lon="13.6128775"><ele>373.0</ele><time>2026-05-02T09:55:10.137Z</time></trkpt><trkpt lat="46.1601657" lon="13.6127381"><ele>373.0</ele><time>2026-05-02T09:55:11.157Z</time></trkpt><trkpt lat="46.1601456" lon="13.6126006"><ele>373.0</ele><time>2026-05-02T09:55:12.145Z</time></trkpt><trkpt lat="46.1601242" lon="13.6124921"><ele>373.0</ele><time>2026-05-02T09:55:13.14Z</time></trkpt><trkpt lat="46.1601227" lon="13.6124"><ele>376.2</ele><time>2026-05-02T09:55:14.142Z</time></trkpt><trkpt lat="46.1601783" lon="13.6122454"><ele>379.4</ele><time>2026-05-02T09:55:16.139Z</time></trkpt><trkpt lat="46.1602225" lon="13.6121008"><ele>382.59999999999997</ele><time>2026-05-02T09:55:18.12Z</time></trkpt><trkpt lat="46.1601583" lon="13.6119898"><ele>385.79999999999995</ele><time>2026-05-02T09:55:20.123Z</time></trkpt><trkpt lat="46.16011" lon="13.6119227"><ele>389.0</ele><time>2026-05-02T09:55:21.135Z</time></trkpt><trkpt lat="46.1600711" lon="13.6118377"><ele>390.49999999999994</ele><time>2026-05-02T09:55:22.131Z</time></trkpt><trkpt lat="46.1600369" lon="13.6117402"><ele>392.0</ele><time>2026-05-02T09:55:23.138Z</time></trkpt><trkpt lat="46.1599974" lon="13.611623"><ele>393.5</ele><time>2026-05-02T09:55:24.138Z</time></trkpt><trkpt lat="46.1599536" lon="13.6115197"><ele>395.0</ele><time>2026-05-02T09:55:25.144Z</time></trkpt><trkpt lat="46.1599063" lon="13.6114224"><ele>396.49999999999994</ele><time>2026-05-02T09:55:26.147Z</time></trkpt><trkpt lat="46.1598624" lon="13.6113144"><ele>398.0</ele><time>2026-05-02T09:55:27.146Z</time></trkpt><trkpt lat="46.159831" lon="13.6112084"><ele>391.3333333333333</ele><time>2026-05-02T09:55:28.126Z</time></trkpt><trkpt lat="46.1597968" lon="13.6111084"><ele>384.66666666666663</ele><time>2026-05-02T09:55:29.142Z</time></trkpt><trkpt lat="46.159774" lon="13.6110006"><ele>378.0</ele><time>2026-05-02T09:55:30.156Z</time></trkpt><trkpt lat="46.1597515" lon="13.610885"><ele>371.3333333333333</ele><time>2026-05-02T09:55:31.163Z</time></trkpt><trkpt lat="46.1597238" lon="13.6107511"><ele>364.66666666666663</ele><time>2026-05-02T09:55:32.137Z</time></trkpt><trkpt lat="46.1596962" lon="13.6106225"><ele>358.0</ele><time>2026-05-02T09:55:33.153Z</time></trkpt><trkpt lat="46.1596651" lon="13.6104931"><ele>358.0</ele><time>2026-05-02T09:55:34.142Z</time></trkpt><trkpt lat="46.1596443" lon="13.6103542"><ele>358.0</ele><time>2026-05-02T09:55:35.145Z</time></trkpt><trkpt lat="46.15963" lon="13.6102175"><ele>358.0</ele><time>2026-05-02T09:55:36.175Z</time></trkpt><trkpt lat="46.1596157" lon="13.610081"><ele>358.0</ele><time>2026-05-02T09:55:37.158Z</time></trkpt><trkpt lat="46.1596002" lon="13.6099499"><ele>358.0</ele><time>2026-05-02T09:55:38.146Z</time></trkpt><trkpt lat="46.159584" lon="13.6098124"><ele>358.4</ele><time>2026-05-02T09:55:39.158Z</time></trkpt><trkpt lat="46.1595728" lon="13.6096801"><ele>358.79999999999995</ele><time>2026-05-02T09:55:40.143Z</time></trkpt><trkpt lat="46.1595593" lon="13.6095415"><ele>359.2</ele><time>2026-05-02T09:55:41.153Z</time></trkpt><trkpt lat="46.1595407" lon="13.6093928"><ele>359.6</ele><time>2026-05-02T09:55:42.147Z</time></trkpt><trkpt lat="46.1595223" lon="13.609241"><ele>360.0</ele><time>2026-05-02T09:55:43.156Z</time></trkpt><trkpt lat="46.1595001" lon="13.6090923"><ele>360.0</ele><time>2026-05-02T09:55:44.145Z</time></trkpt><trkpt lat="46.159466" lon="13.6089581"><ele>360.0</ele><time>2026-05-02T09:55:45.135Z</time></trkpt><trkpt lat="46.1594258" lon="13.6088276"><ele>360.0</ele><time>2026-05-02T09:55:46.16Z</time></trkpt><trkpt lat="46.1593825" lon="13.6086999"><ele>360.0</ele><time>2026-05-02T09:55:47.145Z</time></trkpt><trkpt lat="46.1593288" lon="13.60858"><ele>360.0</ele><time>2026-05-02T09:55:48.143Z</time></trkpt><trkpt lat="46.1592832" lon="13.6084578"><ele>362.8</ele><time>2026-05-02T09:55:49.14Z</time></trkpt><trkpt lat="46.1592381" lon="13.6083368"><ele>365.6</ele><time>2026-05-02T09:55:50.157Z</time></trkpt><trkpt lat="46.1591838" lon="13.6082136"><ele>368.4</ele><time>2026-05-02T09:55:51.155Z</time></trkpt><trkpt lat="46.1591283" lon="13.6080972"><ele>371.2</ele><time>2026-05-02T09:55:52.155Z</time></trkpt><trkpt lat="46.1590716" lon="13.6079931"><ele>374.0</ele><time>2026-05-02T09:55:53.155Z</time></trkpt><trkpt lat="46.1590128" lon="13.6078855"><ele>367.1666666666667</ele><time>2026-05-02T09:55:54.15Z</time></trkpt><trkpt lat="46.1589597" lon="13.6077913"><ele>360.33333333333337</ele><time>2026-05-02T09:55:55.149Z</time></trkpt><trkpt lat="46.1589093" lon="13.6077011"><ele>353.5</ele><time>2026-05-02T09:55:56.153Z</time></trkpt><trkpt lat="46.1588712" lon="13.6076034"><ele>346.6666666666667</ele><time>2026-05-02T09:55:57.143Z</time></trkpt><trkpt lat="46.158842" lon="13.607495"><ele>339.8333333333333</ele><time>2026-05-02T09:55:58.157Z</time></trkpt><trkpt lat="46.1588191" lon="13.607394"><ele>333.0</ele><time>2026-05-02T09:55:59.161Z</time></trkpt><trkpt lat="46.1588007" lon="13.6072852"><ele>333.0</ele><time>2026-05-02T09:56:00.17Z</time></trkpt><trkpt lat="46.1588374" lon="13.6071134"><ele>333.0</ele><time>2026-05-02T09:56:02.15Z</time></trkpt><trkpt lat="46.1588776" lon="13.6070239"><ele>333.0</ele><time>2026-05-02T09:56:03.154Z</time></trkpt><trkpt lat="46.1589098" lon="13.6069458"><ele>333.0</ele><time>2026-05-02T09:56:04.143Z</time></trkpt><trkpt lat="46.1588984" lon="13.6068126"><ele>333.0</ele><time>2026-05-02T09:56:06.146Z</time></trkpt><trkpt lat="46.1588066" lon="13.6066927"><ele>334.0</ele><time>2026-05-02T09:56:08.148Z</time></trkpt><trkpt lat="46.158743" lon="13.6066349"><ele>335.0</ele><time>2026-05-02T09:56:09.132Z</time></trkpt><trkpt lat="46.1586579" lon="13.6065564"><ele>336.0</ele><time>2026-05-02T09:56:11.152Z</time></trkpt><trkpt lat="46.1586894" lon="13.6066864"><ele>337.0</ele><time>2026-05-02T09:56:15.132Z</time></trkpt><trkpt lat="46.1587374" lon="13.6067457"><ele>338.0</ele><time>2026-05-02T09:56:16.138Z</time></trkpt><trkpt lat="46.1587616" lon="13.606902"><ele>339.0</ele><time>2026-05-02T09:56:18.149Z</time></trkpt><trkpt lat="46.1587238" lon="13.6069913"><ele>338.0</ele><time>2026-05-02T09:56:19.141Z</time></trkpt><trkpt lat="46.1586683" lon="13.6070762"><ele>337.0</ele><time>2026-05-02T09:56:20.132Z</time></trkpt><trkpt lat="46.1586148" lon="13.6071703"><ele>336.0</ele><time>2026-05-02T09:56:21.139Z</time></trkpt><trkpt lat="46.1585755" lon="13.6072648"><ele>335.0</ele><time>2026-05-02T09:56:22.163Z</time></trkpt><trkpt lat="46.1585497" lon="13.6073648"><ele>334.0</ele><time>2026-05-02T09:56:23.149Z</time></trkpt><trkpt lat="46.1585335" lon="13.6074871"><ele>333.0</ele><time>2026-05-02T09:56:24.131Z</time></trkpt><trkpt lat="46.1585288" lon="13.6076079"><ele>333.0</ele><time>2026-05-02T09:56:25.156Z</time></trkpt><trkpt lat="46.1585298" lon="13.607729"><ele>333.0</ele><time>2026-05-02T09:56:26.134Z</time></trkpt><trkpt lat="46.1585408" lon="13.6078594"><ele>333.0</ele><time>2026-05-02T09:56:27.15Z</time></trkpt><trkpt lat="46.1585574" lon="13.6079786"><ele>333.0</ele><time>2026-05-02T09:56:28.154Z</time></trkpt><trkpt lat="46.1585739" lon="13.6081023"><ele>333.0</ele><time>2026-05-02T09:56:29.155Z</time></trkpt><trkpt lat="46.1586032" lon="13.6082398"><ele>333.0</ele><time>2026-05-02T09:56:30.152Z</time></trkpt><trkpt lat="46.1586367" lon="13.608376"><ele>332.4</ele><time>2026-05-02T09:56:31.141Z</time></trkpt><trkpt lat="46.1586709" lon="13.6085129"><ele>331.79999999999995</ele><time>2026-05-02T09:56:32.135Z</time></trkpt><trkpt lat="46.1587024" lon="13.6086539"><ele>331.2</ele><time>2026-05-02T09:56:33.141Z</time></trkpt><trkpt lat="46.1587244" lon="13.6088016"><ele>330.6</ele><time>2026-05-02T09:56:34.154Z</time></trkpt><trkpt lat="46.1587447" lon="13.6089502"><ele>330.0</ele><time>2026-05-02T09:56:35.127Z</time></trkpt><trkpt lat="46.1587574" lon="13.609097"><ele>327.8333333333333</ele><time>2026-05-02T09:56:36.141Z</time></trkpt><trkpt lat="46.1587716" lon="13.6092222"><ele>325.6666666666667</ele><time>2026-05-02T09:56:37.143Z</time></trkpt><trkpt lat="46.1587926" lon="13.6093427"><ele>323.5</ele><time>2026-05-02T09:56:38.156Z</time></trkpt><trkpt lat="46.158807" lon="13.60947"><ele>321.33333333333337</ele><time>2026-05-02T09:56:39.135Z</time></trkpt><trkpt lat="46.1588152" lon="13.6095852"><ele>319.1666666666667</ele><time>2026-05-02T09:56:40.147Z</time></trkpt><trkpt lat="46.1588203" lon="13.6097025"><ele>317.0</ele><time>2026-05-02T09:56:41.148Z</time></trkpt><trkpt lat="46.1588202" lon="13.6098305"><ele>316.2</ele><time>2026-05-02T09:56:42.139Z</time></trkpt><trkpt lat="46.1588261" lon="13.6099831"><ele>315.4</ele><time>2026-05-02T09:56:43.132Z</time></trkpt><trkpt lat="46.1588285" lon="13.6101339"><ele>314.6</ele><time>2026-05-02T09:56:44.152Z</time></trkpt><trkpt lat="46.1588222" lon="13.6102757"><ele>313.8</ele><time>2026-05-02T09:56:45.128Z</time></trkpt><trkpt lat="46.1588215" lon="13.6104143"><ele>313.0</ele><time>2026-05-02T09:56:46.162Z</time></trkpt><trkpt lat="46.1588163" lon="13.6105526"><ele>313.0</ele><time>2026-05-02T09:56:47.143Z</time></trkpt><trkpt lat="46.1588093" lon="13.6106892"><ele>313.0</ele><time>2026-05-02T09:56:48.135Z</time></trkpt><trkpt lat="46.1587999" lon="13.6108225"><ele>313.0</ele><time>2026-05-02T09:56:49.133Z</time></trkpt><trkpt lat="46.1587962" lon="13.6109421"><ele>313.0</ele><time>2026-05-02T09:56:50.138Z</time></trkpt><trkpt lat="46.1587914" lon="13.6110628"><ele>313.0</ele><time>2026-05-02T09:56:51.143Z</time></trkpt><trkpt lat="46.1587769" lon="13.611194"><ele>313.0</ele><time>2026-05-02T09:56:52.139Z</time></trkpt><trkpt lat="46.1587449" lon="13.6113294"><ele>313.2</ele><time>2026-05-02T09:56:53.159Z</time></trkpt><trkpt lat="46.1587167" lon="13.6114591"><ele>313.4</ele><time>2026-05-02T09:56:54.141Z</time></trkpt><trkpt lat="46.1586988" lon="13.6115812"><ele>313.59999999999997</ele><time>2026-05-02T09:56:55.143Z</time></trkpt><trkpt lat="46.1586804" lon="13.6117101"><ele>313.8</ele><time>2026-05-02T09:56:56.134Z</time></trkpt><trkpt lat="46.1586624" lon="13.6118489"><ele>314.0</ele><time>2026-05-02T09:56:57.132Z</time></trkpt><trkpt lat="46.1586599" lon="13.611996"><ele>314.0</ele><time>2026-05-02T09:56:58.146Z</time></trkpt><trkpt lat="46.1586682" lon="13.6121385"><ele>314.0</ele><time>2026-05-02T09:56:59.136Z</time></trkpt><trkpt lat="46.1586715" lon="13.6122703"><ele>314.0</ele><time>2026-05-02T09:57:00.146Z</time></trkpt><trkpt lat="46.1586829" lon="13.6123855"><ele>314.0</ele><time>2026-05-02T09:57:01.144Z</time></trkpt><trkpt lat="46.1587121" lon="13.6124718"><ele>314.0</ele><time>2026-05-02T09:57:02.151Z</time></trkpt><trkpt lat="46.1588202" lon="13.6125407"><ele>314.0</ele><time>2026-05-02T09:57:04.143Z</time></trkpt><trkpt lat="46.1588818" lon="13.6125709"><ele>314.0</ele><time>2026-05-02T09:57:05.13Z</time></trkpt><trkpt lat="46.158945" lon="13.6126729"><ele>314.0</ele><time>2026-05-02T09:57:07.128Z</time></trkpt><trkpt lat="46.15893" lon="13.6127844"><ele>314.0</ele><time>2026-05-02T09:57:08.135Z</time></trkpt><trkpt lat="46.1589107" lon="13.6129187"><ele>314.0</ele><time>2026-05-02T09:57:09.134Z</time></trkpt><trkpt lat="46.1589158" lon="13.6130475"><ele>314.0</ele><time>2026-05-02T09:57:10.15Z</time></trkpt><trkpt lat="46.1589606" lon="13.6131548"><ele>313.59999999999997</ele><time>2026-05-02T09:57:11.146Z</time></trkpt><trkpt lat="46.1590236" lon="13.6132654"><ele>313.2</ele><time>2026-05-02T09:57:12.161Z</time></trkpt><trkpt lat="46.159087" lon="13.61339"><ele>312.79999999999995</ele><time>2026-05-02T09:57:13.142Z</time></trkpt><trkpt lat="46.159145" lon="13.6135148"><ele>312.4</ele><time>2026-05-02T09:57:14.143Z</time></trkpt><trkpt lat="46.1591921" lon="13.6136473"><ele>312.0</ele><time>2026-05-02T09:57:15.138Z</time></trkpt><trkpt lat="46.1592336" lon="13.6137757"><ele>314.4</ele><time>2026-05-02T09:57:16.143Z</time></trkpt><trkpt lat="46.1592672" lon="13.6138915"><ele>316.79999999999995</ele><time>2026-05-02T09:57:17.153Z</time></trkpt><trkpt lat="46.1593029" lon="13.6140108"><ele>319.2</ele><time>2026-05-02T09:57:18.154Z</time></trkpt><trkpt lat="46.1593401" lon="13.6141358"><ele>321.59999999999997</ele><time>2026-05-02T09:57:19.155Z</time></trkpt><trkpt lat="46.1593745" lon="13.6142613"><ele>324.0</ele><time>2026-05-02T09:57:20.146Z</time></trkpt><trkpt lat="46.1594064" lon="13.6143853"><ele>322.3333333333333</ele><time>2026-05-02T09:57:21.148Z</time></trkpt><trkpt lat="46.1594309" lon="13.6145131"><ele>320.6666666666667</ele><time>2026-05-02T09:57:22.152Z</time></trkpt><trkpt lat="46.1594529" lon="13.614636"><ele>319.0</ele><time>2026-05-02T09:57:23.146Z</time></trkpt><trkpt lat="46.1594811" lon="13.6147509"><ele>317.33333333333337</ele><time>2026-05-02T09:57:24.146Z</time></trkpt><trkpt lat="46.1595045" lon="13.6148587"><ele>315.6666666666667</ele><time>2026-05-02T09:57:25.144Z</time></trkpt><trkpt lat="46.1595174" lon="13.6149668"><ele>314.0</ele><time>2026-05-02T09:57:26.146Z</time></trkpt><trkpt lat="46.1595268" lon="13.6150877"><ele>314.0</ele><time>2026-05-02T09:57:27.135Z</time></trkpt><trkpt lat="46.1595335" lon="13.6152087"><ele>314.0</ele><time>2026-05-02T09:57:28.152Z</time></trkpt><trkpt lat="46.1595276" lon="13.6153156"><ele>314.0</ele><time>2026-05-02T09:57:29.151Z</time></trkpt><trkpt lat="46.1595122" lon="13.6154892"><ele>314.0</ele><time>2026-05-02T09:57:31.138Z</time></trkpt><trkpt lat="46.1595258" lon="13.615611"><ele>314.0</ele><time>2026-05-02T09:57:33.134Z</time></trkpt><trkpt lat="46.1595451" lon="13.6157035"><ele>314.0</ele><time>2026-05-02T09:57:36.145Z</time></trkpt><trkpt lat="46.1594617" lon="13.6156874"><ele>314.0</ele><time>2026-05-02T09:57:39.152Z</time></trkpt><trkpt lat="46.1593714" lon="13.6156178"><ele>314.0</ele><time>2026-05-02T09:57:41.14Z</time></trkpt><trkpt lat="46.1593075" lon="13.6155501"><ele>314.0</ele><time>2026-05-02T09:57:43.143Z</time></trkpt><trkpt lat="46.1592605" lon="13.6154112"><ele>314.0</ele><time>2026-05-02T09:57:45.145Z</time></trkpt><trkpt lat="46.1592508" lon="13.6152826"><ele>314.0</ele><time>2026-05-02T09:57:47.141Z</time></trkpt><trkpt lat="46.1592504" lon="13.6151644"><ele>314.0</ele><time>2026-05-02T09:57:49.142Z</time></trkpt><trkpt lat="46.1592397" lon="13.6150555"><ele>314.0</ele><time>2026-05-02T09:57:51.143Z</time></trkpt><trkpt lat="46.1592227" lon="13.6149488"><ele>314.0</ele><time>2026-05-02T09:57:53.141Z</time></trkpt><trkpt lat="46.1592" lon="13.6148298"><ele>314.0</ele><time>2026-05-02T09:57:55.152Z</time></trkpt><trkpt lat="46.1591878" lon="13.6146757"><ele>314.0</ele><time>2026-05-02T09:57:57.154Z</time></trkpt><trkpt lat="46.1591574" lon="13.6145135"><ele>313.83333333333337</ele><time>2026-05-02T09:57:59.155Z</time></trkpt><trkpt lat="46.1591131" lon="13.6143306"><ele>313.6666666666667</ele><time>2026-05-02T09:58:01.169Z</time></trkpt><trkpt lat="46.1590809" lon="13.61423"><ele>313.5</ele><time>2026-05-02T09:58:02.156Z</time></trkpt><trkpt lat="46.1590398" lon="13.6141401"><ele>313.3333333333333</ele><time>2026-05-02T09:58:03.154Z</time></trkpt><trkpt lat="46.1589966" lon="13.6140539"><ele>313.16666666666663</ele><time>2026-05-02T09:58:04.148Z</time></trkpt><trkpt lat="46.1589607" lon="13.6139771"><ele>313.0</ele><time>2026-05-02T09:58:05.149Z</time></trkpt><trkpt lat="46.158884" lon="13.6138389"><ele>313.0</ele><time>2026-05-02T09:58:07.14Z</time></trkpt><trkpt lat="46.1588384" lon="13.6137661"><ele>313.0</ele><time>2026-05-02T09:58:08.16Z</time></trkpt><trkpt lat="46.1587849" lon="13.6136688"><ele>313.0</ele><time>2026-05-02T09:58:09.146Z</time></trkpt><trkpt lat="46.1587342" lon="13.613559"><ele>313.0</ele><time>2026-05-02T09:58:10.147Z</time></trkpt><trkpt lat="46.158681" lon="13.6134421"><ele>313.0</ele><time>2026-05-02T09:58:11.152Z</time></trkpt><trkpt lat="46.1586233" lon="13.6133186"><ele>313.0</ele><time>2026-05-02T09:58:12.153Z</time></trkpt><trkpt lat="46.1585558" lon="13.6131866"><ele>312.75</ele><time>2026-05-02T09:58:13.143Z</time></trkpt><trkpt lat="46.1584797" lon="13.6130442"><ele>312.5</ele><time>2026-05-02T09:58:14.14Z</time></trkpt><trkpt lat="46.1583974" lon="13.6129089"><ele>312.25</ele><time>2026-05-02T09:58:15.149Z</time></trkpt><trkpt lat="46.1583313" lon="13.6127713"><ele>312.0</ele><time>2026-05-02T09:58:16.148Z</time></trkpt><trkpt lat="46.1582789" lon="13.6126199"><ele>312.5</ele><time>2026-05-02T09:58:17.142Z</time></trkpt><trkpt lat="46.1582292" lon="13.6124539"><ele>313.0</ele><time>2026-05-02T09:58:18.143Z</time></trkpt><trkpt lat="46.1581911" lon="13.6122809"><ele>313.5</ele><time>2026-05-02T09:58:19.148Z</time></trkpt><trkpt lat="46.1581628" lon="13.6121045"><ele>314.0</ele><time>2026-05-02T09:58:20.146Z</time></trkpt><trkpt lat="46.1581364" lon="13.611929"><ele>319.5</ele><time>2026-05-02T09:58:21.154Z</time></trkpt><trkpt lat="46.158105" lon="13.6117649"><ele>325.0</ele><time>2026-05-02T09:58:22.156Z</time></trkpt><trkpt lat="46.1580838" lon="13.6115866"><ele>330.5</ele><time>2026-05-02T09:58:23.144Z</time></trkpt><trkpt lat="46.1580903" lon="13.6114097"><ele>336.0</ele><time>2026-05-02T09:58:24.147Z</time></trkpt><trkpt lat="46.1581351" lon="13.611247"><ele>335.25</ele><time>2026-05-02T09:58:25.145Z</time></trkpt><trkpt lat="46.1581977" lon="13.6110609"><ele>334.5</ele><time>2026-05-02T09:58:26.138Z</time></trkpt><trkpt lat="46.1582407" lon="13.6108807"><ele>333.75</ele><time>2026-05-02T09:58:27.14Z</time></trkpt><trkpt lat="46.1582852" lon="13.6107047"><ele>333.0</ele><time>2026-05-02T09:58:28.141Z</time></trkpt><trkpt lat="46.1583237" lon="13.6105314"><ele>331.75</ele><time>2026-05-02T09:58:29.148Z</time></trkpt><trkpt lat="46.1583333" lon="13.6103739"><ele>330.5</ele><time>2026-05-02T09:58:30.142Z</time></trkpt><trkpt lat="46.1583165" lon="13.6102208"><ele>329.25</ele><time>2026-05-02T09:58:31.151Z</time></trkpt><trkpt lat="46.158262" lon="13.6100698"><ele>328.0</ele><time>2026-05-02T09:58:32.149Z</time></trkpt><trkpt lat="46.1581938" lon="13.6099303"><ele>328.0</ele><time>2026-05-02T09:58:33.131Z</time></trkpt><trkpt lat="46.158116" lon="13.6098023"><ele>328.0</ele><time>2026-05-02T09:58:34.138Z</time></trkpt><trkpt lat="46.1580297" lon="13.609708"><ele>328.0</ele><time>2026-05-02T09:58:35.156Z</time></trkpt><trkpt lat="46.1579344" lon="13.6096482"><ele>328.0</ele><time>2026-05-02T09:58:36.142Z</time></trkpt><trkpt lat="46.1578311" lon="13.6095985"><ele>328.0</ele><time>2026-05-02T09:58:37.132Z</time></trkpt><trkpt lat="46.1577602" lon="13.6095202"><ele>324.75</ele><time>2026-05-02T09:58:38.143Z</time></trkpt><trkpt lat="46.1577093" lon="13.6094068"><ele>321.5</ele><time>2026-05-02T09:58:39.148Z</time></trkpt><trkpt lat="46.1576844" lon="13.6092315"><ele>318.25</ele><time>2026-05-02T09:58:40.13Z</time></trkpt><trkpt lat="46.1576616" lon="13.6090431"><ele>315.0</ele><time>2026-05-02T09:58:41.134Z</time></trkpt><trkpt lat="46.1576467" lon="13.6088603"><ele>315.0</ele><time>2026-05-02T09:58:42.149Z</time></trkpt><trkpt lat="46.1576352" lon="13.6086735"><ele>315.0</ele><time>2026-05-02T09:58:43.142Z</time></trkpt><trkpt lat="46.157627" lon="13.6085002"><ele>315.0</ele><time>2026-05-02T09:58:44.142Z</time></trkpt><trkpt lat="46.1576472" lon="13.6083379"><ele>315.0</ele><time>2026-05-02T09:58:45.128Z</time></trkpt><trkpt lat="46.1576899" lon="13.6081894"><ele>312.4</ele><time>2026-05-02T09:58:46.141Z</time></trkpt><trkpt lat="46.1577414" lon="13.6080393"><ele>309.8</ele><time>2026-05-02T09:58:47.137Z</time></trkpt><trkpt lat="46.1577914" lon="13.6079071"><ele>307.2</ele><time>2026-05-02T09:58:48.142Z</time></trkpt><trkpt lat="46.1578207" lon="13.6077815"><ele>304.6</ele><time>2026-05-02T09:58:49.148Z</time></trkpt><trkpt lat="46.157806" lon="13.6076595"><ele>302.0</ele><time>2026-05-02T09:58:50.132Z</time></trkpt><trkpt lat="46.1577736" lon="13.6075314"><ele>300.75</ele><time>2026-05-02T09:58:51.134Z</time></trkpt><trkpt lat="46.1576979" lon="13.607394"><ele>299.5</ele><time>2026-05-02T09:58:52.144Z</time></trkpt><trkpt lat="46.157607" lon="13.6072653"><ele>298.25</ele><time>2026-05-02T09:58:53.126Z</time></trkpt><trkpt lat="46.1575087" lon="13.6071708"><ele>297.0</ele><time>2026-05-02T09:58:54.135Z</time></trkpt><trkpt lat="46.1574156" lon="13.6071009"><ele>297.1666666666667</ele><time>2026-05-02T09:58:55.128Z</time></trkpt><trkpt lat="46.1573333" lon="13.6070397"><ele>297.3333333333333</ele><time>2026-05-02T09:58:56.135Z</time></trkpt><trkpt lat="46.1572659" lon="13.6069822"><ele>297.5</ele><time>2026-05-02T09:58:57.155Z</time></trkpt><trkpt lat="46.1572097" lon="13.6069167"><ele>297.66666666666663</ele><time>2026-05-02T09:58:58.141Z</time></trkpt><trkpt lat="46.1571294" lon="13.6067863"><ele>297.8333333333333</ele><time>2026-05-02T09:59:00.151Z</time></trkpt><trkpt lat="46.1570989" lon="13.6066955"><ele>298.0</ele><time>2026-05-02T09:59:01.137Z</time></trkpt><trkpt lat="46.1570776" lon="13.6066028"><ele>298.0</ele><time>2026-05-02T09:59:02.155Z</time></trkpt><trkpt lat="46.1570797" lon="13.6064835"><ele>298.0</ele><time>2026-05-02T09:59:03.165Z</time></trkpt><trkpt lat="46.157073" lon="13.6063829"><ele>298.0</ele><time>2026-05-02T09:59:04.136Z</time></trkpt><trkpt lat="46.1570643" lon="13.6062908"><ele>298.0</ele><time>2026-05-02T09:59:05.142Z</time></trkpt><trkpt lat="46.1570385" lon="13.6061122"><ele>298.0</ele><time>2026-05-02T09:59:07.139Z</time></trkpt><trkpt lat="46.1570264" lon="13.6060227"><ele>298.0</ele><time>2026-05-02T09:59:08.156Z</time></trkpt><trkpt lat="46.1570114" lon="13.6058606"><ele>296.0</ele><time>2026-05-02T09:59:10.134Z</time></trkpt><trkpt lat="46.1570036" lon="13.6057289"><ele>294.0</ele><time>2026-05-02T09:59:12.167Z</time></trkpt><trkpt lat="46.1569986" lon="13.6056067"><ele>292.0</ele><time>2026-05-02T09:59:14.158Z</time></trkpt><trkpt lat="46.1570123" lon="13.60551"><ele>290.0</ele><time>2026-05-02T09:59:17.139Z</time></trkpt><trkpt lat="46.1570181" lon="13.6053891"><ele>288.0</ele><time>2026-05-02T09:59:19.133Z</time></trkpt><trkpt lat="46.1570213" lon="13.6052697"><ele>286.0</ele><time>2026-05-02T09:59:21.154Z</time></trkpt><trkpt lat="46.1570031" lon="13.6051505"><ele>285.66666666666663</ele><time>2026-05-02T09:59:23.152Z</time></trkpt><trkpt lat="46.1569763" lon="13.6050491"><ele>285.3333333333333</ele><time>2026-05-02T09:59:25.158Z</time></trkpt><trkpt lat="46.1569152" lon="13.6048788"><ele>285.0</ele><time>2026-05-02T09:59:27.142Z</time></trkpt><trkpt lat="46.1568764" lon="13.604786"><ele>284.6666666666667</ele><time>2026-05-02T09:59:28.152Z</time></trkpt><trkpt lat="46.1568349" lon="13.6046894"><ele>284.33333333333337</ele><time>2026-05-02T09:59:29.15Z</time></trkpt><trkpt lat="46.1567924" lon="13.604595"><ele>284.0</ele><time>2026-05-02T09:59:30.156Z</time></trkpt><trkpt lat="46.1567516" lon="13.604512"><ele>284.33333333333337</ele><time>2026-05-02T09:59:31.155Z</time></trkpt><trkpt lat="46.1567009" lon="13.6044304"><ele>284.6666666666667</ele><time>2026-05-02T09:59:33.153Z</time></trkpt><trkpt lat="46.1566875" lon="13.6042974"><ele>285.0</ele><time>2026-05-02T10:00:42.161Z</time></trkpt><trkpt lat="46.1566499" lon="13.6041966"><ele>285.3333333333333</ele><time>2026-05-02T10:00:43.147Z</time></trkpt><trkpt lat="46.1566172" lon="13.6040806"><ele>285.66666666666663</ele><time>2026-05-02T10:00:44.167Z</time></trkpt><trkpt lat="46.1565885" lon="13.6039265"><ele>286.0</ele><time>2026-05-02T10:00:45.15Z</time></trkpt><trkpt lat="46.1565745" lon="13.6037292"><ele>287.0</ele><time>2026-05-02T10:00:46.152Z</time></trkpt><trkpt lat="46.1565732" lon="13.6035264"><ele>288.0</ele><time>2026-05-02T10:00:47.152Z</time></trkpt><trkpt lat="46.1565731" lon="13.6033181"><ele>289.0</ele><time>2026-05-02T10:00:48.147Z</time></trkpt><trkpt lat="46.1565713" lon="13.6031092"><ele>290.0</ele><time>2026-05-02T10:00:49.155Z</time></trkpt><trkpt lat="46.1565713" lon="13.6029063"><ele>289.25</ele><time>2026-05-02T10:00:50.154Z</time></trkpt><trkpt lat="46.1565712" lon="13.6027011"><ele>288.5</ele><time>2026-05-02T10:00:51.148Z</time></trkpt><trkpt lat="46.1565705" lon="13.6025062"><ele>287.75</ele><time>2026-05-02T10:00:52.139Z</time></trkpt><trkpt lat="46.156577" lon="13.6023226"><ele>287.0</ele><time>2026-05-02T10:00:53.151Z</time></trkpt><trkpt lat="46.1566021" lon="13.6021396"><ele>285.5</ele><time>2026-05-02T10:00:54.154Z</time></trkpt><trkpt lat="46.1566378" lon="13.6019539"><ele>284.0</ele><time>2026-05-02T10:00:55.135Z</time></trkpt><trkpt lat="46.1566881" lon="13.6017697"><ele>282.5</ele><time>2026-05-02T10:00:56.143Z</time></trkpt><trkpt lat="46.1567466" lon="13.6015848"><ele>281.0</ele><time>2026-05-02T10:00:57.148Z</time></trkpt><trkpt lat="46.1568101" lon="13.6014121"><ele>281.0</ele><time>2026-05-02T10:00:58.161Z</time></trkpt><trkpt lat="46.156872" lon="13.6012473"><ele>281.0</ele><time>2026-05-02T10:00:59.154Z</time></trkpt><trkpt lat="46.1569129" lon="13.6010827"><ele>281.0</ele><time>2026-05-02T10:01:00.148Z</time></trkpt><trkpt lat="46.1569289" lon="13.6009212"><ele>281.0</ele><time>2026-05-02T10:01:01.155Z</time></trkpt><trkpt lat="46.156923" lon="13.6007352"><ele>281.0</ele><time>2026-05-02T10:01:02.143Z</time></trkpt><trkpt lat="46.1569125" lon="13.6005461"><ele>281.0</ele><time>2026-05-02T10:01:03.148Z</time></trkpt><trkpt lat="46.1568931" lon="13.6003514"><ele>281.0</ele><time>2026-05-02T10:01:04.158Z</time></trkpt><trkpt lat="46.1568509" lon="13.6001683"><ele>281.0</ele><time>2026-05-02T10:01:05.141Z</time></trkpt><trkpt lat="46.1567865" lon="13.5999968"><ele>280.75</ele><time>2026-05-02T10:01:06.142Z</time></trkpt><trkpt lat="46.1566904" lon="13.5998351"><ele>280.5</ele><time>2026-05-02T10:01:07.134Z</time></trkpt><trkpt lat="46.1565713" lon="13.5997013"><ele>280.25</ele><time>2026-05-02T10:01:08.137Z</time></trkpt><trkpt lat="46.1564587" lon="13.5995697"><ele>280.0</ele><time>2026-05-02T10:01:09.138Z</time></trkpt><trkpt lat="46.1563758" lon="13.5994187"><ele>284.5</ele><time>2026-05-02T10:01:10.15Z</time></trkpt><trkpt lat="46.1563222" lon="13.5992432"><ele>289.0</ele><time>2026-05-02T10:01:11.148Z</time></trkpt><trkpt lat="46.1562809" lon="13.5990545"><ele>293.5</ele><time>2026-05-02T10:01:12.131Z</time></trkpt><trkpt lat="46.1562452" lon="13.5988494"><ele>298.0</ele><time>2026-05-02T10:01:13.143Z</time></trkpt><trkpt lat="46.1561983" lon="13.598647"><ele>298.0</ele><time>2026-05-02T10:01:14.148Z</time></trkpt><trkpt lat="46.1561598" lon="13.5984384"><ele>298.0</ele><time>2026-05-02T10:01:15.142Z</time></trkpt><trkpt lat="46.1561294" lon="13.5982298"><ele>298.0</ele><time>2026-05-02T10:01:16.135Z</time></trkpt><trkpt lat="46.1561086" lon="13.5980233"><ele>298.0</ele><time>2026-05-02T10:01:17.146Z</time></trkpt><trkpt lat="46.1560929" lon="13.5978193"><ele>295.25</ele><time>2026-05-02T10:01:18.148Z</time></trkpt><trkpt lat="46.1560815" lon="13.5976208"><ele>292.5</ele><time>2026-05-02T10:01:19.145Z</time></trkpt><trkpt lat="46.1560691" lon="13.5974143"><ele>289.75</ele><time>2026-05-02T10:01:20.15Z</time></trkpt><trkpt lat="46.1560653" lon="13.5972077"><ele>287.0</ele><time>2026-05-02T10:01:21.135Z</time></trkpt><trkpt lat="46.1560728" lon="13.5970063"><ele>286.5</ele><time>2026-05-02T10:01:22.161Z</time></trkpt><trkpt lat="46.1560778" lon="13.5968118"><ele>286.0</ele><time>2026-05-02T10:01:23.141Z</time></trkpt><trkpt lat="46.1560615" lon="13.5966343"><ele>285.5</ele><time>2026-05-02T10:01:24.143Z</time></trkpt><trkpt lat="46.1560164" lon="13.5964691"><ele>285.0</ele><time>2026-05-02T10:01:25.144Z</time></trkpt><trkpt lat="46.1559688" lon="13.5963032"><ele>283.5</ele><time>2026-05-02T10:01:26.164Z</time></trkpt><trkpt lat="46.1559227" lon="13.5961328"><ele>282.0</ele><time>2026-05-02T10:01:27.171Z</time></trkpt><trkpt lat="46.1558806" lon="13.5959725"><ele>280.5</ele><time>2026-05-02T10:01:28.155Z</time></trkpt><trkpt lat="46.1558493" lon="13.5958158"><ele>279.0</ele><time>2026-05-02T10:01:29.141Z</time></trkpt><trkpt lat="46.1558411" lon="13.5956671"><ele>279.0</ele><time>2026-05-02T10:01:30.146Z</time></trkpt><trkpt lat="46.1558392" lon="13.5955304"><ele>279.0</ele><time>2026-05-02T10:01:31.152Z</time></trkpt><trkpt lat="46.1558483" lon="13.5954041"><ele>279.0</ele><time>2026-05-02T10:01:32.148Z</time></trkpt><trkpt lat="46.1558661" lon="13.5952808"><ele>279.0</ele><time>2026-05-02T10:01:33.15Z</time></trkpt><trkpt lat="46.1558908" lon="13.5951514"><ele>279.0</ele><time>2026-05-02T10:01:34.16Z</time></trkpt><trkpt lat="46.1559201" lon="13.5950068"><ele>277.8</ele><time>2026-05-02T10:01:35.132Z</time></trkpt><trkpt lat="46.1559644" lon="13.594875"><ele>276.59999999999997</ele><time>2026-05-02T10:01:36.159Z</time></trkpt><trkpt lat="46.1560212" lon="13.5947472"><ele>275.4</ele><time>2026-05-02T10:01:37.155Z</time></trkpt><trkpt lat="46.156081" lon="13.594613"><ele>274.2</ele><time>2026-05-02T10:01:38.159Z</time></trkpt><trkpt lat="46.1561318" lon="13.5944736"><ele>273.0</ele><time>2026-05-02T10:01:39.15Z</time></trkpt><trkpt lat="46.1561609" lon="13.5943262"><ele>271.5</ele><time>2026-05-02T10:01:40.132Z</time></trkpt><trkpt lat="46.1561708" lon="13.5941612"><ele>270.0</ele><time>2026-05-02T10:01:41.138Z</time></trkpt><trkpt lat="46.1561387" lon="13.5939943"><ele>268.5</ele><time>2026-05-02T10:01:42.138Z</time></trkpt><trkpt lat="46.1560943" lon="13.5938402"><ele>267.0</ele><time>2026-05-02T10:01:43.128Z</time></trkpt><trkpt lat="46.1560537" lon="13.5936774"><ele>265.75</ele><time>2026-05-02T10:01:44.158Z</time></trkpt><trkpt lat="46.1560152" lon="13.5935023"><ele>264.5</ele><time>2026-05-02T10:01:45.146Z</time></trkpt><trkpt lat="46.1559736" lon="13.5933349"><ele>263.25</ele><time>2026-05-02T10:01:46.146Z</time></trkpt><trkpt lat="46.1559354" lon="13.59316"><ele>262.0</ele><time>2026-05-02T10:01:47.133Z</time></trkpt><trkpt lat="46.1559058" lon="13.5929923"><ele>262.5</ele><time>2026-05-02T10:01:48.158Z</time></trkpt><trkpt lat="46.1558863" lon="13.5928104"><ele>263.0</ele><time>2026-05-02T10:01:49.134Z</time></trkpt><trkpt lat="46.1558849" lon="13.5926254"><ele>263.5</ele><time>2026-05-02T10:01:50.142Z</time></trkpt><trkpt lat="46.155865" lon="13.5924477"><ele>264.0</ele><time>2026-05-02T10:01:51.146Z</time></trkpt><trkpt lat="46.1558302" lon="13.5922683"><ele>264.0</ele><time>2026-05-02T10:01:52.142Z</time></trkpt><trkpt lat="46.1557798" lon="13.5920899"><ele>264.0</ele><time>2026-05-02T10:01:53.175Z</time></trkpt><trkpt lat="46.1557267" lon="13.5918996"><ele>264.0</ele><time>2026-05-02T10:01:54.16Z</time></trkpt><trkpt lat="46.1556812" lon="13.5917115"><ele>264.0</ele><time>2026-05-02T10:01:55.155Z</time></trkpt><trkpt lat="46.1556427" lon="13.591522"><ele>262.25</ele><time>2026-05-02T10:01:56.159Z</time></trkpt><trkpt lat="46.1556148" lon="13.5913222"><ele>260.5</ele><time>2026-05-02T10:01:57.141Z</time></trkpt><trkpt lat="46.1556009" lon="13.5911245"><ele>258.75</ele><time>2026-05-02T10:01:58.149Z</time></trkpt><trkpt lat="46.1555963" lon="13.5909247"><ele>257.0</ele><time>2026-05-02T10:01:59.139Z</time></trkpt><trkpt lat="46.155593" lon="13.5907305"><ele>256.75</ele><time>2026-05-02T10:02:00.144Z</time></trkpt><trkpt lat="46.1555848" lon="13.5905458"><ele>256.5</ele><time>2026-05-02T10:02:01.149Z</time></trkpt><trkpt lat="46.1555788" lon="13.5903611"><ele>256.25</ele><time>2026-05-02T10:02:02.172Z</time></trkpt><trkpt lat="46.1555721" lon="13.5901653"><ele>256.0</ele><time>2026-05-02T10:02:03.149Z</time></trkpt><trkpt lat="46.1555573" lon="13.5899612"><ele>255.5</ele><time>2026-05-02T10:02:04.158Z</time></trkpt><trkpt lat="46.1555269" lon="13.5897703"><ele>255.0</ele><time>2026-05-02T10:02:05.153Z</time></trkpt><trkpt lat="46.1554821" lon="13.589574"><ele>254.5</ele><time>2026-05-02T10:02:06.141Z</time></trkpt><trkpt lat="46.1554332" lon="13.5893821"><ele>254.0</ele><time>2026-05-02T10:02:07.156Z</time></trkpt><trkpt lat="46.1553877" lon="13.5891966"><ele>253.75</ele><time>2026-05-02T10:02:08.138Z</time></trkpt><trkpt lat="46.1553459" lon="13.5890179"><ele>253.5</ele><time>2026-05-02T10:02:09.143Z</time></trkpt><trkpt lat="46.1553033" lon="13.588842"><ele>253.25</ele><time>2026-05-02T10:02:10.155Z</time></trkpt><trkpt lat="46.1552599" lon="13.5886619"><ele>253.0</ele><time>2026-05-02T10:02:11.159Z</time></trkpt><trkpt lat="46.1552187" lon="13.5884835"><ele>253.0</ele><time>2026-05-02T10:02:12.157Z</time></trkpt><trkpt lat="46.1551952" lon="13.5883051"><ele>253.0</ele><time>2026-05-02T10:02:13.163Z</time></trkpt><trkpt lat="46.1551994" lon="13.5881163"><ele>253.0</ele><time>2026-05-02T10:02:14.149Z</time></trkpt><trkpt lat="46.1552228" lon="13.5879162"><ele>253.0</ele><time>2026-05-02T10:02:15.154Z</time></trkpt><trkpt lat="46.155256" lon="13.5877182"><ele>255.75</ele><time>2026-05-02T10:02:16.142Z</time></trkpt><trkpt lat="46.1552923" lon="13.5875253"><ele>258.5</ele><time>2026-05-02T10:02:17.136Z</time></trkpt><trkpt lat="46.15534" lon="13.587338"><ele>261.25</ele><time>2026-05-02T10:02:18.149Z</time></trkpt><trkpt lat="46.1554006" lon="13.5871562"><ele>264.0</ele><time>2026-05-02T10:02:19.155Z</time></trkpt><trkpt lat="46.1554753" lon="13.5869839"><ele>261.25</ele><time>2026-05-02T10:02:20.149Z</time></trkpt><trkpt lat="46.1555589" lon="13.5868124"><ele>258.5</ele><time>2026-05-02T10:02:21.169Z</time></trkpt><trkpt lat="46.1556483" lon="13.5866533"><ele>255.75</ele><time>2026-05-02T10:02:22.149Z</time></trkpt><trkpt lat="46.1557362" lon="13.5864974"><ele>253.0</ele><time>2026-05-02T10:02:23.146Z</time></trkpt><trkpt lat="46.1558184" lon="13.5863491"><ele>253.0</ele><time>2026-05-02T10:02:24.15Z</time></trkpt><trkpt lat="46.1558992" lon="13.5862004"><ele>253.0</ele><time>2026-05-02T10:02:25.14Z</time></trkpt><trkpt lat="46.1559719" lon="13.5860621"><ele>253.0</ele><time>2026-05-02T10:02:26.154Z</time></trkpt><trkpt lat="46.1560375" lon="13.5859356"><ele>253.0</ele><time>2026-05-02T10:02:27.159Z</time></trkpt><trkpt lat="46.1561007" lon="13.5858114"><ele>252.4</ele><time>2026-05-02T10:02:28.144Z</time></trkpt><trkpt lat="46.1561649" lon="13.585692"><ele>251.8</ele><time>2026-05-02T10:02:29.141Z</time></trkpt><trkpt lat="46.1562311" lon="13.5855633"><ele>251.2</ele><time>2026-05-02T10:02:30.16Z</time></trkpt><trkpt lat="46.1562935" lon="13.5854324"><ele>250.6</ele><time>2026-05-02T10:02:31.158Z</time></trkpt><trkpt lat="46.1563707" lon="13.5853105"><ele>250.0</ele><time>2026-05-02T10:02:32.16Z</time></trkpt><trkpt lat="46.1564311" lon="13.5851798"><ele>250.0</ele><time>2026-05-02T10:02:33.166Z</time></trkpt><trkpt lat="46.1564728" lon="13.5850305"><ele>250.0</ele><time>2026-05-02T10:02:34.154Z</time></trkpt><trkpt lat="46.1565091" lon="13.5848697"><ele>250.0</ele><time>2026-05-02T10:02:35.14Z</time></trkpt><trkpt lat="46.1565565" lon="13.5847223"><ele>250.0</ele><time>2026-05-02T10:02:36.15Z</time></trkpt><trkpt lat="46.156619" lon="13.5845807"><ele>252.0</ele><time>2026-05-02T10:02:37.152Z</time></trkpt><trkpt lat="46.1566899" lon="13.5844594"><ele>254.0</ele><time>2026-05-02T10:02:38.157Z</time></trkpt><trkpt lat="46.1567501" lon="13.5843511"><ele>256.0</ele><time>2026-05-02T10:02:39.149Z</time></trkpt><trkpt lat="46.1567774" lon="13.5842281"><ele>258.0</ele><time>2026-05-02T10:02:40.153Z</time></trkpt><trkpt lat="46.1567789" lon="13.5840845"><ele>260.0</ele><time>2026-05-02T10:02:41.169Z</time></trkpt><trkpt lat="46.1567622" lon="13.5839244"><ele>260.0</ele><time>2026-05-02T10:02:42.146Z</time></trkpt><trkpt lat="46.1567589" lon="13.5837669"><ele>260.0</ele><time>2026-05-02T10:02:43.157Z</time></trkpt><trkpt lat="46.1567665" lon="13.583603"><ele>260.0</ele><time>2026-05-02T10:02:44.172Z</time></trkpt><trkpt lat="46.1567723" lon="13.5834503"><ele>260.0</ele><time>2026-05-02T10:02:45.139Z</time></trkpt><trkpt lat="46.1567704" lon="13.5832994"><ele>260.0</ele><time>2026-05-02T10:02:46.147Z</time></trkpt><trkpt lat="46.1567425" lon="13.5831618"><ele>260.5</ele><time>2026-05-02T10:02:47.162Z</time></trkpt><trkpt lat="46.1566992" lon="13.5830271"><ele>261.0</ele><time>2026-05-02T10:02:48.149Z</time></trkpt><trkpt lat="46.1566621" lon="13.5828713"><ele>261.5</ele><time>2026-05-02T10:02:49.146Z</time></trkpt><trkpt lat="46.1566304" lon="13.5826981"><ele>262.0</ele><time>2026-05-02T10:02:50.152Z</time></trkpt><trkpt lat="46.1565906" lon="13.5825299"><ele>261.0</ele><time>2026-05-02T10:02:51.145Z</time></trkpt><trkpt lat="46.156541" lon="13.5823568"><ele>260.0</ele><time>2026-05-02T10:02:52.149Z</time></trkpt><trkpt lat="46.1564951" lon="13.5821702"><ele>259.0</ele><time>2026-05-02T10:02:53.138Z</time></trkpt><trkpt lat="46.1564532" lon="13.5819715"><ele>258.0</ele><time>2026-05-02T10:02:54.149Z</time></trkpt><trkpt lat="46.1564083" lon="13.5817856"><ele>258.0</ele><time>2026-05-02T10:02:55.146Z</time></trkpt><trkpt lat="46.1563535" lon="13.5816195"><ele>258.0</ele><time>2026-05-02T10:02:56.155Z</time></trkpt><trkpt lat="46.1562986" lon="13.5814677"><ele>258.0</ele><time>2026-05-02T10:02:57.15Z</time></trkpt><trkpt lat="46.1562644" lon="13.5813446"><ele>258.0</ele><time>2026-05-02T10:02:58.162Z</time></trkpt><trkpt lat="46.1562684" lon="13.581244"><ele>258.0</ele><time>2026-05-02T10:02:59.155Z</time></trkpt><trkpt lat="46.1563206" lon="13.5811689"><ele>261.4</ele><time>2026-05-02T10:03:00.149Z</time></trkpt><trkpt lat="46.1563999" lon="13.5811173"><ele>264.8</ele><time>2026-05-02T10:03:01.142Z</time></trkpt><trkpt lat="46.1564911" lon="13.5810651"><ele>268.2</ele><time>2026-05-02T10:03:02.143Z</time></trkpt><trkpt lat="46.1565884" lon="13.581022"><ele>271.6</ele><time>2026-05-02T10:03:03.135Z</time></trkpt><trkpt lat="46.1566904" lon="13.5809506"><ele>275.0</ele><time>2026-05-02T10:03:04.138Z</time></trkpt><trkpt lat="46.1568051" lon="13.5808775"><ele>279.75</ele><time>2026-05-02T10:03:05.14Z</time></trkpt><trkpt lat="46.1569149" lon="13.5808055"><ele>284.5</ele><time>2026-05-02T10:03:06.17Z</time></trkpt><trkpt lat="46.1570225" lon="13.5807387"><ele>289.25</ele><time>2026-05-02T10:03:07.144Z</time></trkpt><trkpt lat="46.1571154" lon="13.5806485"><ele>294.0</ele><time>2026-05-02T10:03:08.144Z</time></trkpt><trkpt lat="46.1571897" lon="13.5805378"><ele>294.0</ele><time>2026-05-02T10:03:09.147Z</time></trkpt><trkpt lat="46.1572444" lon="13.5804389"><ele>294.0</ele><time>2026-05-02T10:03:10.149Z</time></trkpt><trkpt lat="46.1572537" lon="13.5803484"><ele>294.0</ele><time>2026-05-02T10:03:11.139Z</time></trkpt><trkpt lat="46.1571994" lon="13.5802664"><ele>294.0</ele><time>2026-05-02T10:03:12.157Z</time></trkpt><trkpt lat="46.1571059" lon="13.5802594"><ele>294.0</ele><time>2026-05-02T10:03:13.149Z</time></trkpt><trkpt lat="46.1570087" lon="13.5802791"><ele>294.0</ele><time>2026-05-02T10:03:14.142Z</time></trkpt><trkpt lat="46.156906" lon="13.580305"><ele>294.0</ele><time>2026-05-02T10:03:15.131Z</time></trkpt><trkpt lat="46.1568018" lon="13.5803322"><ele>294.0</ele><time>2026-05-02T10:03:16.132Z</time></trkpt><trkpt lat="46.1566853" lon="13.5803482"><ele>294.0</ele><time>2026-05-02T10:03:17.151Z</time></trkpt><trkpt lat="46.1565625" lon="13.5803516"><ele>294.0</ele><time>2026-05-02T10:03:18.15Z</time></trkpt><trkpt lat="46.1564403" lon="13.580342"><ele>293.0</ele><time>2026-05-02T10:03:19.135Z</time></trkpt><trkpt lat="46.1563248" lon="13.5802996"><ele>292.0</ele><time>2026-05-02T10:03:20.132Z</time></trkpt><trkpt lat="46.1562137" lon="13.5802438"><ele>291.0</ele><time>2026-05-02T10:03:21.138Z</time></trkpt><trkpt lat="46.1561182" lon="13.5801811"><ele>290.0</ele><time>2026-05-02T10:03:22.144Z</time></trkpt><trkpt lat="46.1560476" lon="13.5801072"><ele>289.0</ele><time>2026-05-02T10:03:23.15Z</time></trkpt><trkpt lat="46.1560126" lon="13.5799832"><ele>289.0</ele><time>2026-05-02T10:03:24.15Z</time></trkpt><trkpt lat="46.1560105" lon="13.5798082"><ele>289.0</ele><time>2026-05-02T10:03:25.144Z</time></trkpt><trkpt lat="46.1560159" lon="13.5796318"><ele>289.0</ele><time>2026-05-02T10:03:26.159Z</time></trkpt><trkpt lat="46.1560229" lon="13.5794471"><ele>289.0</ele><time>2026-05-02T10:03:27.133Z</time></trkpt><trkpt lat="46.1560187" lon="13.5792555"><ele>289.2</ele><time>2026-05-02T10:03:28.154Z</time></trkpt><trkpt lat="46.1560049" lon="13.5790677"><ele>289.4</ele><time>2026-05-02T10:03:29.163Z</time></trkpt><trkpt lat="46.1559823" lon="13.5788847"><ele>289.6</ele><time>2026-05-02T10:03:30.154Z</time></trkpt><trkpt lat="46.1559603" lon="13.5787358"><ele>289.8</ele><time>2026-05-02T10:03:31.151Z</time></trkpt><trkpt lat="46.1559582" lon="13.5786256"><ele>290.0</ele><time>2026-05-02T10:03:32.146Z</time></trkpt><trkpt lat="46.1560378" lon="13.5784573"><ele>290.0</ele><time>2026-05-02T10:03:34.132Z</time></trkpt><trkpt lat="46.1561333" lon="13.5783642"><ele>290.0</ele><time>2026-05-02T10:03:35.15Z</time></trkpt><trkpt lat="46.1562419" lon="13.5782659"><ele>290.0</ele><time>2026-05-02T10:03:36.157Z</time></trkpt><trkpt lat="46.1563549" lon="13.5781708"><ele>290.0</ele><time>2026-05-02T10:03:37.137Z</time></trkpt><trkpt lat="46.1564767" lon="13.5780441"><ele>298.25</ele><time>2026-05-02T10:03:38.15Z</time></trkpt><trkpt lat="46.1565934" lon="13.5779143"><ele>306.5</ele><time>2026-05-02T10:03:39.13Z</time></trkpt><trkpt lat="46.1567007" lon="13.5777954"><ele>314.75</ele><time>2026-05-02T10:03:40.132Z</time></trkpt><trkpt lat="46.1568075" lon="13.5776776"><ele>323.0</ele><time>2026-05-02T10:03:41.145Z</time></trkpt><trkpt lat="46.1569151" lon="13.57756"><ele>323.0</ele><time>2026-05-02T10:03:42.158Z</time></trkpt><trkpt lat="46.157022" lon="13.5774489"><ele>323.0</ele><time>2026-05-02T10:03:43.155Z</time></trkpt><trkpt lat="46.1571179" lon="13.5773341"><ele>323.0</ele><time>2026-05-02T10:03:44.141Z</time></trkpt><trkpt lat="46.1571825" lon="13.5772181"><ele>323.0</ele><time>2026-05-02T10:03:45.135Z</time></trkpt><trkpt lat="46.1572177" lon="13.5771094"><ele>323.0</ele><time>2026-05-02T10:03:46.147Z</time></trkpt><trkpt lat="46.1572261" lon="13.5769925"><ele>326.2</ele><time>2026-05-02T10:03:47.133Z</time></trkpt><trkpt lat="46.1571999" lon="13.5768559"><ele>329.4</ele><time>2026-05-02T10:03:48.136Z</time></trkpt><trkpt lat="46.1571406" lon="13.5767312"><ele>332.59999999999997</ele><time>2026-05-02T10:03:49.149Z</time></trkpt><trkpt lat="46.1570779" lon="13.5766105"><ele>335.79999999999995</ele><time>2026-05-02T10:03:50.147Z</time></trkpt><trkpt lat="46.1570014" lon="13.5765173"><ele>339.0</ele><time>2026-05-02T10:03:51.155Z</time></trkpt><trkpt lat="46.1568921" lon="13.5764587"><ele>339.0</ele><time>2026-05-02T10:03:52.139Z</time></trkpt><trkpt lat="46.1567668" lon="13.5764203"><ele>339.0</ele><time>2026-05-02T10:03:53.13Z</time></trkpt><trkpt lat="46.1566389" lon="13.5763824"><ele>339.0</ele><time>2026-05-02T10:03:54.14Z</time></trkpt><trkpt lat="46.1565094" lon="13.5763552"><ele>339.0</ele><time>2026-05-02T10:03:55.161Z</time></trkpt><trkpt lat="46.1563783" lon="13.5763313"><ele>338.6</ele><time>2026-05-02T10:03:56.154Z</time></trkpt><trkpt lat="46.1562685" lon="13.5762994"><ele>338.2</ele><time>2026-05-02T10:03:57.149Z</time></trkpt><trkpt lat="46.156178" lon="13.5762555"><ele>337.8</ele><time>2026-05-02T10:03:58.174Z</time></trkpt><trkpt lat="46.1560978" lon="13.5761941"><ele>337.40000000000003</ele><time>2026-05-02T10:03:59.139Z</time></trkpt><trkpt lat="46.1560433" lon="13.5761205"><ele>337.0</ele><time>2026-05-02T10:04:00.16Z</time></trkpt><trkpt lat="46.1560448" lon="13.576005"><ele>337.0</ele><time>2026-05-02T10:04:01.161Z</time></trkpt><trkpt lat="46.1560706" lon="13.575854"><ele>337.0</ele><time>2026-05-02T10:04:02.155Z</time></trkpt><trkpt lat="46.1561049" lon="13.575677"><ele>337.0</ele><time>2026-05-02T10:04:03.149Z</time></trkpt><trkpt lat="46.1561263" lon="13.5755175"><ele>337.0</ele><time>2026-05-02T10:04:04.146Z</time></trkpt><trkpt lat="46.1561196" lon="13.5753687"><ele>341.40000000000003</ele><time>2026-05-02T10:04:05.161Z</time></trkpt><trkpt lat="46.1560906" lon="13.5752369"><ele>345.8</ele><time>2026-05-02T10:04:06.149Z</time></trkpt><trkpt lat="46.156036" lon="13.5751339"><ele>350.2</ele><time>2026-05-02T10:04:07.139Z</time></trkpt><trkpt lat="46.155941" lon="13.575098"><ele>354.6</ele><time>2026-05-02T10:04:08.133Z</time></trkpt><trkpt lat="46.1558291" lon="13.5750865"><ele>359.0</ele><time>2026-05-02T10:04:09.137Z</time></trkpt><trkpt lat="46.1557335" lon="13.5750538"><ele>354.0</ele><time>2026-05-02T10:04:10.161Z</time></trkpt><trkpt lat="46.1556559" lon="13.5749802"><ele>349.0</ele><time>2026-05-02T10:04:11.153Z</time></trkpt><trkpt lat="46.1555899" lon="13.5748724"><ele>344.0</ele><time>2026-05-02T10:04:12.138Z</time></trkpt><trkpt lat="46.1555307" lon="13.5747548"><ele>339.0</ele><time>2026-05-02T10:04:13.163Z</time></trkpt><trkpt lat="46.1554846" lon="13.5746207"><ele>334.0</ele><time>2026-05-02T10:04:14.15Z</time></trkpt><trkpt lat="46.1554777" lon="13.5744789"><ele>334.0</ele><time>2026-05-02T10:04:15.154Z</time></trkpt><trkpt lat="46.1555081" lon="13.5743417"><ele>334.0</ele><time>2026-05-02T10:04:16.168Z</time></trkpt><trkpt lat="46.1555562" lon="13.5741981"><ele>334.0</ele><time>2026-05-02T10:04:17.145Z</time></trkpt><trkpt lat="46.1555994" lon="13.5740391"><ele>334.0</ele><time>2026-05-02T10:04:18.139Z</time></trkpt><trkpt lat="46.155643" lon="13.5738731"><ele>334.0</ele><time>2026-05-02T10:04:19.159Z</time></trkpt><trkpt lat="46.1556909" lon="13.5737064"><ele>334.0</ele><time>2026-05-02T10:04:20.15Z</time></trkpt><trkpt lat="46.1557447" lon="13.5735316"><ele>334.0</ele><time>2026-05-02T10:04:21.148Z</time></trkpt><trkpt lat="46.1558053" lon="13.5733687"><ele>334.0</ele><time>2026-05-02T10:04:22.147Z</time></trkpt><trkpt lat="46.1558606" lon="13.5732051"><ele>344.0</ele><time>2026-05-02T10:04:23.138Z</time></trkpt><trkpt lat="46.1559061" lon="13.5730451"><ele>354.0</ele><time>2026-05-02T10:04:24.148Z</time></trkpt><trkpt lat="46.1559441" lon="13.5728759"><ele>364.0</ele><time>2026-05-02T10:04:25.144Z</time></trkpt><trkpt lat="46.1559812" lon="13.572696"><ele>374.0</ele><time>2026-05-02T10:04:26.158Z</time></trkpt><trkpt lat="46.1560163" lon="13.5725153"><ele>374.0</ele><time>2026-05-02T10:04:27.138Z</time></trkpt><trkpt lat="46.1560509" lon="13.5723381"><ele>374.0</ele><time>2026-05-02T10:04:28.145Z</time></trkpt><trkpt lat="46.1560722" lon="13.5721712"><ele>374.0</ele><time>2026-05-02T10:04:29.143Z</time></trkpt><trkpt lat="46.1560845" lon="13.5720171"><ele>374.0</ele><time>2026-05-02T10:04:30.149Z</time></trkpt><trkpt lat="46.1560819" lon="13.5718755"><ele>379.2</ele><time>2026-05-02T10:04:31.159Z</time></trkpt><trkpt lat="46.1560546" lon="13.5717721"><ele>384.4</ele><time>2026-05-02T10:04:32.162Z</time></trkpt><trkpt lat="46.1560032" lon="13.5716909"><ele>389.6</ele><time>2026-05-02T10:04:33.139Z</time></trkpt><trkpt lat="46.1559274" lon="13.5716305"><ele>394.8</ele><time>2026-05-02T10:04:34.165Z</time></trkpt><trkpt lat="46.1558223" lon="13.5716179"><ele>400.0</ele><time>2026-05-02T10:04:35.156Z</time></trkpt><trkpt lat="46.1557142" lon="13.5716425"><ele>400.0</ele><time>2026-05-02T10:04:36.141Z</time></trkpt><trkpt lat="46.1556223" lon="13.5716515"><ele>400.0</ele><time>2026-05-02T10:04:37.162Z</time></trkpt><trkpt lat="46.1555442" lon="13.5716595"><ele>400.0</ele><time>2026-05-02T10:04:38.153Z</time></trkpt><trkpt lat="46.1556086" lon="13.5715715"><ele>400.0</ele><time>2026-05-02T10:04:41.149Z</time></trkpt><trkpt lat="46.1557071" lon="13.5715553"><ele>400.0</ele><time>2026-05-02T10:04:42.159Z</time></trkpt><trkpt lat="46.1558176" lon="13.5715349"><ele>400.0</ele><time>2026-05-02T10:04:43.174Z</time></trkpt><trkpt lat="46.155932" lon="13.571524"><ele>400.0</ele><time>2026-05-02T10:04:44.148Z</time></trkpt><trkpt lat="46.1560252" lon="13.5715371"><ele>400.0</ele><time>2026-05-02T10:04:45.154Z</time></trkpt><trkpt lat="46.1561102" lon="13.5715755"><ele>400.0</ele><time>2026-05-02T10:04:46.156Z</time></trkpt><trkpt lat="46.1561867" lon="13.5716485"><ele>400.0</ele><time>2026-05-02T10:04:47.15Z</time></trkpt><trkpt lat="46.1562418" lon="13.5717653"><ele>400.0</ele><time>2026-05-02T10:04:48.153Z</time></trkpt><trkpt lat="46.1562779" lon="13.5719325"><ele>400.0</ele><time>2026-05-02T10:04:49.163Z</time></trkpt><trkpt lat="46.1563078" lon="13.5720653"><ele>400.0</ele><time>2026-05-02T10:04:50.156Z</time></trkpt><trkpt lat="46.1563225" lon="13.5722043"><ele>400.0</ele><time>2026-05-02T10:04:51.157Z</time></trkpt><trkpt lat="46.1563368" lon="13.5723119"><ele>400.0</ele><time>2026-05-02T10:04:52.159Z</time></trkpt><trkpt lat="46.1564154" lon="13.5723608"><ele>400.0</ele><time>2026-05-02T10:04:54.146Z</time></trkpt><trkpt lat="46.1564157" lon="13.5721805"><ele>400.0</ele><time>2026-05-02T10:04:56.153Z</time></trkpt><trkpt lat="46.1563999" lon="13.5720661"><ele>400.0</ele><time>2026-05-02T10:04:57.15Z</time></trkpt><trkpt lat="46.1563864" lon="13.5719266"><ele>400.0</ele><time>2026-05-02T10:04:58.148Z</time></trkpt><trkpt lat="46.1563741" lon="13.5717805"><ele>400.0</ele><time>2026-05-02T10:04:59.157Z</time></trkpt><trkpt lat="46.1563565" lon="13.5716319"><ele>400.00000000000006</ele><time>2026-05-02T10:05:00.139Z</time></trkpt><trkpt lat="46.1563347" lon="13.5714844"><ele>400.0</ele><time>2026-05-02T10:05:01.141Z</time></trkpt><trkpt lat="46.1563154" lon="13.5713567"><ele>400.0</ele><time>2026-05-02T10:05:02.168Z</time></trkpt><trkpt lat="46.1562811" lon="13.5712661"><ele>400.0</ele><time>2026-05-02T10:05:03.155Z</time></trkpt><trkpt lat="46.1562245" lon="13.5711994"><ele>400.00000000000006</ele><time>2026-05-02T10:05:04.153Z</time></trkpt><trkpt lat="46.1561491" lon="13.5711593"><ele>400.0</ele><time>2026-05-02T10:05:05.165Z</time></trkpt><trkpt lat="46.15606" lon="13.5711417"><ele>404.0</ele><time>2026-05-02T10:05:06.147Z</time></trkpt><trkpt lat="46.1559658" lon="13.5711197"><ele>408.0</ele><time>2026-05-02T10:05:07.157Z</time></trkpt><trkpt lat="46.1558601" lon="13.5710975"><ele>412.0</ele><time>2026-05-02T10:05:08.149Z</time></trkpt><trkpt lat="46.1557618" lon="13.5710674"><ele>416.0</ele><time>2026-05-02T10:05:09.135Z</time></trkpt><trkpt lat="46.155675" lon="13.5710143"><ele>420.0</ele><time>2026-05-02T10:05:10.164Z</time></trkpt><trkpt lat="46.1555862" lon="13.5709461"><ele>420.0</ele><time>2026-05-02T10:05:11.151Z</time></trkpt><trkpt lat="46.1554974" lon="13.5708738"><ele>420.0</ele><time>2026-05-02T10:05:12.17Z</time></trkpt><trkpt lat="46.1554038" lon="13.5708119"><ele>420.0</ele><time>2026-05-02T10:05:13.162Z</time></trkpt><trkpt lat="46.1552958" lon="13.5707777"><ele>420.0</ele><time>2026-05-02T10:05:14.153Z</time></trkpt><trkpt lat="46.155183" lon="13.5707599"><ele>420.0</ele><time>2026-05-02T10:05:15.166Z</time></trkpt><trkpt lat="46.1550767" lon="13.5707215"><ele>420.0</ele><time>2026-05-02T10:05:16.154Z</time></trkpt><trkpt lat="46.1549732" lon="13.5706693"><ele>420.0</ele><time>2026-05-02T10:05:17.152Z</time></trkpt><trkpt lat="46.1548759" lon="13.5705947"><ele>420.0</ele><time>2026-05-02T10:05:18.148Z</time></trkpt><trkpt lat="46.1547867" lon="13.5705229"><ele>420.0</ele><time>2026-05-02T10:05:19.149Z</time></trkpt><trkpt lat="46.1547233" lon="13.5704678"><ele>420.0</ele><time>2026-05-02T10:05:20.161Z</time></trkpt><trkpt lat="46.1547229" lon="13.5703465"><ele>420.0</ele><time>2026-05-02T10:05:22.183Z</time></trkpt><trkpt lat="46.1548427" lon="13.5703623"><ele>420.0</ele><time>2026-05-02T10:05:24.154Z</time></trkpt><trkpt lat="46.1549098" lon="13.5704495"><ele>420.0</ele><time>2026-05-02T10:05:25.155Z</time></trkpt><trkpt lat="46.1549974" lon="13.5705168"><ele>420.0</ele><time>2026-05-02T10:05:26.149Z</time></trkpt><trkpt lat="46.1551006" lon="13.5705518"><ele>420.0</ele><time>2026-05-02T10:05:27.162Z</time></trkpt><trkpt lat="46.1552071" lon="13.570578"><ele>420.0</ele><time>2026-05-02T10:05:28.148Z</time></trkpt><trkpt lat="46.1553187" lon="13.5705586"><ele>420.0</ele><time>2026-05-02T10:05:29.162Z</time></trkpt><trkpt lat="46.1554228" lon="13.5705133"><ele>420.0</ele><time>2026-05-02T10:05:30.158Z</time></trkpt><trkpt lat="46.1555308" lon="13.5704729"><ele>420.0</ele><time>2026-05-02T10:05:31.161Z</time></trkpt><trkpt lat="46.1556419" lon="13.5704441"><ele>420.0</ele><time>2026-05-02T10:05:32.157Z</time></trkpt><trkpt lat="46.1557596" lon="13.5704491"><ele>422.6</ele><time>2026-05-02T10:05:33.142Z</time></trkpt><trkpt lat="46.1558709" lon="13.570472"><ele>425.2</ele><time>2026-05-02T10:05:34.155Z</time></trkpt><trkpt lat="46.1559821" lon="13.5704922"><ele>427.79999999999995</ele><time>2026-05-02T10:05:35.147Z</time></trkpt><trkpt lat="46.1560831" lon="13.5705025"><ele>430.4</ele><time>2026-05-02T10:05:36.158Z</time></trkpt><trkpt lat="46.1561719" lon="13.570514"><ele>433.0</ele><time>2026-05-02T10:05:37.155Z</time></trkpt><trkpt lat="46.1562428" lon="13.5705441"><ele>433.0</ele><time>2026-05-02T10:05:38.149Z</time></trkpt><trkpt lat="46.1563295" lon="13.5705383"><ele>432.99999999999994</ele><time>2026-05-02T10:05:40.155Z</time></trkpt><trkpt lat="46.1562711" lon="13.5703861"><ele>432.99999999999994</ele><time>2026-05-02T10:05:42.152Z</time></trkpt><trkpt lat="46.1561879" lon="13.5703772"><ele>433.0</ele><time>2026-05-02T10:05:43.14Z</time></trkpt><trkpt lat="46.1560871" lon="13.5703891"><ele>433.0</ele><time>2026-05-02T10:05:44.151Z</time></trkpt><trkpt lat="46.1559805" lon="13.5703747"><ele>434.59999999999997</ele><time>2026-05-02T10:05:45.135Z</time></trkpt><trkpt lat="46.1558803" lon="13.5703365"><ele>436.19999999999993</ele><time>2026-05-02T10:05:46.146Z</time></trkpt><trkpt lat="46.1557864" lon="13.5702903"><ele>437.8</ele><time>2026-05-02T10:05:47.162Z</time></trkpt><trkpt lat="46.1556948" lon="13.570254"><ele>439.4</ele><time>2026-05-02T10:05:48.141Z</time></trkpt><trkpt lat="46.1555987" lon="13.5702183"><ele>441.0</ele><time>2026-05-02T10:05:49.174Z</time></trkpt><trkpt lat="46.1555047" lon="13.5701812"><ele>441.0</ele><time>2026-05-02T10:05:50.153Z</time></trkpt><trkpt lat="46.1554131" lon="13.5701327"><ele>441.0</ele><time>2026-05-02T10:05:51.166Z</time></trkpt><trkpt lat="46.1553319" lon="13.5700888"><ele>441.0</ele><time>2026-05-02T10:05:52.168Z</time></trkpt><trkpt lat="46.1552947" lon="13.5699836"><ele>441.0</ele><time>2026-05-02T10:05:54.163Z</time></trkpt><trkpt lat="46.1553343" lon="13.5698934"><ele>441.0</ele><time>2026-05-02T10:05:55.151Z</time></trkpt><trkpt lat="46.1553749" lon="13.5698142"><ele>441.0</ele><time>2026-05-02T10:05:56.159Z</time></trkpt><trkpt lat="46.1554179" lon="13.5697303"><ele>441.0</ele><time>2026-05-02T10:05:57.146Z</time></trkpt><trkpt lat="46.1554596" lon="13.569631"><ele>441.0</ele><time>2026-05-02T10:05:58.153Z</time></trkpt><trkpt lat="46.1555189" lon="13.5695443"><ele>441.0</ele><time>2026-05-02T10:05:59.157Z</time></trkpt><trkpt lat="46.1555784" lon="13.5694447"><ele>441.0</ele><time>2026-05-02T10:06:00.159Z</time></trkpt><trkpt lat="46.1556457" lon="13.5693395"><ele>441.0</ele><time>2026-05-02T10:06:01.144Z</time></trkpt><trkpt lat="46.1557149" lon="13.5692195"><ele>440.8</ele><time>2026-05-02T10:06:02.162Z</time></trkpt><trkpt lat="46.1557954" lon="13.5690932"><ele>440.6</ele><time>2026-05-02T10:06:03.158Z</time></trkpt><trkpt lat="46.1558706" lon="13.5689662"><ele>440.4</ele><time>2026-05-02T10:06:04.154Z</time></trkpt><trkpt lat="46.155949" lon="13.5688499"><ele>440.2</ele><time>2026-05-02T10:06:05.155Z</time></trkpt><trkpt lat="46.1560171" lon="13.5687485"><ele>440.0</ele><time>2026-05-02T10:06:06.14Z</time></trkpt><trkpt lat="46.1560749" lon="13.5686659"><ele>439.99999999999994</ele><time>2026-05-02T10:06:07.169Z</time></trkpt><trkpt lat="46.1561303" lon="13.5685867"><ele>440.0</ele><time>2026-05-02T10:06:08.157Z</time></trkpt><trkpt lat="46.1561851" lon="13.5685028"><ele>440.0</ele><time>2026-05-02T10:06:09.146Z</time></trkpt><trkpt lat="46.1562437" lon="13.5684193"><ele>440.0</ele><time>2026-05-02T10:06:10.141Z</time></trkpt><trkpt lat="46.1563039" lon="13.5683289"><ele>439.99999999999994</ele><time>2026-05-02T10:06:11.154Z</time></trkpt><trkpt lat="46.1563506" lon="13.5682369"><ele>440.0</ele><time>2026-05-02T10:06:12.156Z</time></trkpt><trkpt lat="46.1563852" lon="13.5681453"><ele>439.99999999999994</ele><time>2026-05-02T10:06:13.145Z</time></trkpt><trkpt lat="46.1564228" lon="13.5680648"><ele>440.0</ele><time>2026-05-02T10:06:14.16Z</time></trkpt><trkpt lat="46.1564637" lon="13.5679735"><ele>440.0</ele><time>2026-05-02T10:06:15.143Z</time></trkpt><trkpt lat="46.1565213" lon="13.5678774"><ele>440.0</ele><time>2026-05-02T10:06:16.146Z</time></trkpt><trkpt lat="46.1565758" lon="13.5677897"><ele>439.99999999999994</ele><time>2026-05-02T10:06:17.156Z</time></trkpt><trkpt lat="46.1566272" lon="13.5677044"><ele>440.0</ele><time>2026-05-02T10:06:18.142Z</time></trkpt><trkpt lat="46.1566803" lon="13.5676237"><ele>444.49999999999994</ele><time>2026-05-02T10:06:19.153Z</time></trkpt><trkpt lat="46.156736" lon="13.5675402"><ele>449.0</ele><time>2026-05-02T10:06:20.147Z</time></trkpt><trkpt lat="46.1567891" lon="13.5674555"><ele>453.5</ele><time>2026-05-02T10:06:21.148Z</time></trkpt><trkpt lat="46.1568402" lon="13.5673608"><ele>458.0</ele><time>2026-05-02T10:06:22.138Z</time></trkpt><trkpt lat="46.1568938" lon="13.5672659"><ele>462.49999999999994</ele><time>2026-05-02T10:06:23.134Z</time></trkpt><trkpt lat="46.1569468" lon="13.5671765"><ele>467.0</ele><time>2026-05-02T10:06:24.13Z</time></trkpt><trkpt lat="46.1570005" lon="13.5670918"><ele>464.40000000000003</ele><time>2026-05-02T10:06:25.156Z</time></trkpt><trkpt lat="46.1570582" lon="13.5670118"><ele>461.80000000000007</ele><time>2026-05-02T10:06:26.145Z</time></trkpt><trkpt lat="46.157115" lon="13.5669268"><ele>459.2</ele><time>2026-05-02T10:06:27.154Z</time></trkpt><trkpt lat="46.1571725" lon="13.5668574"><ele>456.6</ele><time>2026-05-02T10:06:28.141Z</time></trkpt><trkpt lat="46.1572543" lon="13.5667357"><ele>454.0</ele><time>2026-05-02T10:06:30.159Z</time></trkpt><trkpt lat="46.157305" lon="13.566558"><ele>454.00000000000006</ele><time>2026-05-02T10:06:32.157Z</time></trkpt><trkpt lat="46.1573218" lon="13.5664352"><ele>454.0</ele><time>2026-05-02T10:06:33.137Z</time></trkpt><trkpt lat="46.1573345" lon="13.5663083"><ele>454.0</ele><time>2026-05-02T10:06:34.159Z</time></trkpt><trkpt lat="46.157354" lon="13.5661958"><ele>454.0</ele><time>2026-05-02T10:06:35.149Z</time></trkpt><trkpt lat="46.1573856" lon="13.5660944"><ele>454.00000000000006</ele><time>2026-05-02T10:06:36.161Z</time></trkpt><trkpt lat="46.1574264" lon="13.5660052"><ele>454.0</ele><time>2026-05-02T10:06:37.165Z</time></trkpt><trkpt lat="46.157457" lon="13.5658706"><ele>457.79999999999995</ele><time>2026-05-02T10:06:39.157Z</time></trkpt><trkpt lat="46.1573661" lon="13.565781"><ele>461.59999999999997</ele><time>2026-05-02T10:06:42.143Z</time></trkpt><trkpt lat="46.1573027" lon="13.5657379"><ele>465.4</ele><time>2026-05-02T10:06:43.139Z</time></trkpt><trkpt lat="46.1572359" lon="13.5656015"><ele>469.2</ele><time>2026-05-02T10:06:45.142Z</time></trkpt><trkpt lat="46.1572137" lon="13.5654957"><ele>473.0</ele><time>2026-05-02T10:06:46.137Z</time></trkpt><trkpt lat="46.1571747" lon="13.565398"><ele>472.99999999999994</ele><time>2026-05-02T10:06:47.139Z</time></trkpt><trkpt lat="46.1571225" lon="13.5653176"><ele>473.0</ele><time>2026-05-02T10:06:48.143Z</time></trkpt><trkpt lat="46.1570543" lon="13.565254"><ele>473.0</ele><time>2026-05-02T10:06:49.138Z</time></trkpt><trkpt lat="46.1569796" lon="13.5652011"><ele>473.0</ele><time>2026-05-02T10:06:50.146Z</time></trkpt><trkpt lat="46.1569007" lon="13.5651377"><ele>472.99999999999994</ele><time>2026-05-02T10:06:51.162Z</time></trkpt><trkpt lat="46.1568219" lon="13.5650744"><ele>473.0</ele><time>2026-05-02T10:06:52.15Z</time></trkpt><trkpt lat="46.1567355" lon="13.5650579"><ele>472.99999999999994</ele><time>2026-05-02T10:06:53.153Z</time></trkpt><trkpt lat="46.1566472" lon="13.5650668"><ele>473.0</ele><time>2026-05-02T10:06:54.154Z</time></trkpt><trkpt lat="46.1565661" lon="13.5650833"><ele>473.0</ele><time>2026-05-02T10:06:55.137Z</time></trkpt><trkpt lat="46.1564898" lon="13.5651001"><ele>473.0</ele><time>2026-05-02T10:06:56.155Z</time></trkpt><trkpt lat="46.1564268" lon="13.5651088"><ele>472.99999999999994</ele><time>2026-05-02T10:06:57.147Z</time></trkpt><trkpt lat="46.1563182" lon="13.5650625"><ele>473.0</ele><time>2026-05-02T10:06:59.155Z</time></trkpt><trkpt lat="46.1562131" lon="13.5649533"><ele>472.99999999999994</ele><time>2026-05-02T10:07:01.148Z</time></trkpt><trkpt lat="46.156148" lon="13.5648989"><ele>473.0</ele><time>2026-05-02T10:07:02.16Z</time></trkpt><trkpt lat="46.1560728" lon="13.5648437"><ele>473.0</ele><time>2026-05-02T10:07:03.153Z</time></trkpt><trkpt lat="46.1559996" lon="13.5647864"><ele>473.0</ele><time>2026-05-02T10:07:04.15Z</time></trkpt><trkpt lat="46.1559293" lon="13.5647246"><ele>472.99999999999994</ele><time>2026-05-02T10:07:05.163Z</time></trkpt><trkpt lat="46.1558569" lon="13.5646618"><ele>473.0</ele><time>2026-05-02T10:07:06.163Z</time></trkpt><trkpt lat="46.1557884" lon="13.5645958"><ele>473.0</ele><time>2026-05-02T10:07:07.174Z</time></trkpt><trkpt lat="46.1557419" lon="13.5645271"><ele>472.99999999999994</ele><time>2026-05-02T10:07:08.16Z</time></trkpt><trkpt lat="46.1556874" lon="13.5643432"><ele>472.99999999999994</ele><time>2026-05-02T10:07:10.163Z</time></trkpt><trkpt lat="46.155687" lon="13.5642212"><ele>473.0</ele><time>2026-05-02T10:07:11.17Z</time></trkpt><trkpt lat="46.1556977" lon="13.5640897"><ele>473.0</ele><time>2026-05-02T10:07:12.167Z</time></trkpt><trkpt lat="46.1557088" lon="13.5639633"><ele>473.0</ele><time>2026-05-02T10:07:13.164Z</time></trkpt><trkpt lat="46.1557262" lon="13.5638385"><ele>472.99999999999994</ele><time>2026-05-02T10:07:14.161Z</time></trkpt><trkpt lat="46.1557475" lon="13.5637016"><ele>472.99999999999994</ele><time>2026-05-02T10:07:15.158Z</time></trkpt><trkpt lat="46.1557526" lon="13.5635529"><ele>473.0</ele><time>2026-05-02T10:07:16.16Z</time></trkpt><trkpt lat="46.1557424" lon="13.5634059"><ele>473.0</ele><time>2026-05-02T10:07:17.146Z</time></trkpt><trkpt lat="46.1557286" lon="13.5632733"><ele>472.99999999999994</ele><time>2026-05-02T10:07:18.155Z</time></trkpt><trkpt lat="46.1557253" lon="13.5631592"><ele>473.0</ele><time>2026-05-02T10:07:19.144Z</time></trkpt><trkpt lat="46.155731" lon="13.5630483"><ele>473.0</ele><time>2026-05-02T10:07:20.15Z</time></trkpt><trkpt lat="46.1557474" lon="13.5629285"><ele>473.0</ele><time>2026-05-02T10:07:21.165Z</time></trkpt><trkpt lat="46.1557663" lon="13.5628122"><ele>472.99999999999994</ele><time>2026-05-02T10:07:22.146Z</time></trkpt><trkpt lat="46.1557669" lon="13.5627019"><ele>473.0</ele><time>2026-05-02T10:07:23.143Z</time></trkpt><trkpt lat="46.1557481" lon="13.5625949"><ele>478.99999999999994</ele><time>2026-05-02T10:07:24.156Z</time></trkpt><trkpt lat="46.1557214" lon="13.5624802"><ele>485.0</ele><time>2026-05-02T10:07:25.133Z</time></trkpt><trkpt lat="46.1556886" lon="13.5623637"><ele>491.0</ele><time>2026-05-02T10:07:26.148Z</time></trkpt><trkpt lat="46.1556554" lon="13.5622481"><ele>497.0</ele><time>2026-05-02T10:07:27.154Z</time></trkpt><trkpt lat="46.15563" lon="13.5621301"><ele>502.99999999999994</ele><time>2026-05-02T10:07:28.143Z</time></trkpt><trkpt lat="46.1556085" lon="13.562024"><ele>509.0</ele><time>2026-05-02T10:07:29.143Z</time></trkpt><trkpt lat="46.1555938" lon="13.5619201"><ele>508.99999999999994</ele><time>2026-05-02T10:07:30.148Z</time></trkpt><trkpt lat="46.1555863" lon="13.5617996"><ele>509.0</ele><time>2026-05-02T10:07:31.145Z</time></trkpt><trkpt lat="46.1555754" lon="13.5616664"><ele>509.0</ele><time>2026-05-02T10:07:32.153Z</time></trkpt><trkpt lat="46.1555507" lon="13.5615436"><ele>509.0</ele><time>2026-05-02T10:07:33.151Z</time></trkpt><trkpt lat="46.1555233" lon="13.5614258"><ele>508.99999999999994</ele><time>2026-05-02T10:07:34.141Z</time></trkpt><trkpt lat="46.1555084" lon="13.5613216"><ele>509.0</ele><time>2026-05-02T10:07:35.142Z</time></trkpt><trkpt lat="46.1555036" lon="13.5612308"><ele>508.99999999999994</ele><time>2026-05-02T10:07:36.133Z</time></trkpt><trkpt lat="46.1555049" lon="13.5611387"><ele>509.0</ele><time>2026-05-02T10:07:37.168Z</time></trkpt><trkpt lat="46.1554622" lon="13.5610265"><ele>509.0</ele><time>2026-05-02T10:07:39.147Z</time></trkpt><trkpt lat="46.1553628" lon="13.5610103"><ele>509.0</ele><time>2026-05-02T10:07:41.159Z</time></trkpt><trkpt lat="46.1552784" lon="13.5611357"><ele>508.99999999999994</ele><time>2026-05-02T10:07:43.132Z</time></trkpt><trkpt lat="46.1552309" lon="13.56122"><ele>509.0</ele><time>2026-05-02T10:07:44.133Z</time></trkpt><trkpt lat="46.1551796" lon="13.5613004"><ele>508.99999999999994</ele><time>2026-05-02T10:07:45.145Z</time></trkpt><trkpt lat="46.1551239" lon="13.5613752"><ele>509.0</ele><time>2026-05-02T10:07:46.148Z</time></trkpt><trkpt lat="46.1550677" lon="13.5614482"><ele>509.0</ele><time>2026-05-02T10:07:47.156Z</time></trkpt><trkpt lat="46.155006" lon="13.5615162"><ele>509.0</ele><time>2026-05-02T10:07:48.158Z</time></trkpt><trkpt lat="46.1549416" lon="13.5615711"><ele>508.99999999999994</ele><time>2026-05-02T10:07:49.161Z</time></trkpt><trkpt lat="46.1548661" lon="13.5616122"><ele>509.0</ele><time>2026-05-02T10:07:50.137Z</time></trkpt><trkpt lat="46.1547852" lon="13.5616453"><ele>510.0</ele><time>2026-05-02T10:07:51.146Z</time></trkpt><trkpt lat="46.154701" lon="13.5616856"><ele>511.0</ele><time>2026-05-02T10:07:52.157Z</time></trkpt><trkpt lat="46.1546121" lon="13.561733"><ele>512.0</ele><time>2026-05-02T10:07:53.135Z</time></trkpt><trkpt lat="46.1545198" lon="13.5617856"><ele>513.0</ele><time>2026-05-02T10:07:54.156Z</time></trkpt><trkpt lat="46.154426" lon="13.5618477"><ele>514.0</ele><time>2026-05-02T10:07:55.133Z</time></trkpt><trkpt lat="46.1543345" lon="13.561905"><ele>514.0</ele><time>2026-05-02T10:07:56.136Z</time></trkpt><trkpt lat="46.154245" lon="13.5619591"><ele>514.0</ele><time>2026-05-02T10:07:57.135Z</time></trkpt><trkpt lat="46.1541643" lon="13.5620138"><ele>514.0</ele><time>2026-05-02T10:07:58.151Z</time></trkpt><trkpt lat="46.1540901" lon="13.562067"><ele>514.0</ele><time>2026-05-02T10:07:59.143Z</time></trkpt><trkpt lat="46.1540169" lon="13.5621263"><ele>514.0</ele><time>2026-05-02T10:08:00.135Z</time></trkpt><trkpt lat="46.1539416" lon="13.5621938"><ele>514.0</ele><time>2026-05-02T10:08:01.141Z</time></trkpt><trkpt lat="46.1538675" lon="13.5622646"><ele>508.50000000000006</ele><time>2026-05-02T10:08:02.135Z</time></trkpt><trkpt lat="46.1537996" lon="13.5623209"><ele>503.0</ele><time>2026-05-02T10:08:03.159Z</time></trkpt><trkpt lat="46.1537314" lon="13.5623855"><ele>497.5</ele><time>2026-05-02T10:08:04.155Z</time></trkpt><trkpt lat="46.1536573" lon="13.5624449"><ele>492.0</ele><time>2026-05-02T10:08:05.143Z</time></trkpt><trkpt lat="46.1535911" lon="13.5625014"><ele>486.50000000000006</ele><time>2026-05-02T10:08:06.15Z</time></trkpt><trkpt lat="46.1535335" lon="13.5625404"><ele>481.0</ele><time>2026-05-02T10:08:07.153Z</time></trkpt><trkpt lat="46.153418" lon="13.5625624"><ele>481.00000000000006</ele><time>2026-05-02T10:08:09.142Z</time></trkpt><trkpt lat="46.1533325" lon="13.5625593"><ele>481.0</ele><time>2026-05-02T10:08:10.154Z</time></trkpt><trkpt lat="46.153247" lon="13.5625557"><ele>481.0</ele><time>2026-05-02T10:08:11.145Z</time></trkpt><trkpt lat="46.1531574" lon="13.562558"><ele>481.0</ele><time>2026-05-02T10:08:12.152Z</time></trkpt><trkpt lat="46.1530733" lon="13.5625605"><ele>481.00000000000006</ele><time>2026-05-02T10:08:13.132Z</time></trkpt><trkpt lat="46.1529923" lon="13.5625552"><ele>481.0</ele><time>2026-05-02T10:08:14.15Z</time></trkpt><trkpt lat="46.1529105" lon="13.5625403"><ele>481.00000000000006</ele><time>2026-05-02T10:08:15.158Z</time></trkpt><trkpt lat="46.1528373" lon="13.5624989"><ele>481.0</ele><time>2026-05-02T10:08:16.147Z</time></trkpt><trkpt lat="46.1527657" lon="13.5624509"><ele>481.0</ele><time>2026-05-02T10:08:17.161Z</time></trkpt><trkpt lat="46.1526879" lon="13.5624041"><ele>481.0</ele><time>2026-05-02T10:08:18.155Z</time></trkpt><trkpt lat="46.1526109" lon="13.5623355"><ele>481.00000000000006</ele><time>2026-05-02T10:08:19.161Z</time></trkpt><trkpt lat="46.1525395" lon="13.5622714"><ele>481.0</ele><time>2026-05-02T10:08:20.159Z</time></trkpt><trkpt lat="46.1524728" lon="13.5621959"><ele>447.1666666666667</ele><time>2026-05-02T10:08:21.151Z</time></trkpt><trkpt lat="46.1524145" lon="13.5621014"><ele>413.33333333333337</ele><time>2026-05-02T10:08:22.153Z</time></trkpt><trkpt lat="46.1523722" lon="13.5620097"><ele>379.5</ele><time>2026-05-02T10:08:23.145Z</time></trkpt><trkpt lat="46.1523362" lon="13.5619032"><ele>345.6666666666667</ele><time>2026-05-02T10:08:24.162Z</time></trkpt><trkpt lat="46.1522994" lon="13.5617866"><ele>311.83333333333337</ele><time>2026-05-02T10:08:25.169Z</time></trkpt><trkpt lat="46.1522646" lon="13.5616664"><ele>278.0</ele><time>2026-05-02T10:08:26.175Z</time></trkpt><trkpt lat="46.1522351" lon="13.561552"><ele>278.0</ele><time>2026-05-02T10:08:27.14Z</time></trkpt><trkpt lat="46.1522041" lon="13.5614277"><ele>278.0</ele><time>2026-05-02T10:08:28.161Z</time></trkpt><trkpt lat="46.1521773" lon="13.5612991"><ele>278.0</ele><time>2026-05-02T10:08:29.157Z</time></trkpt><trkpt lat="46.1521541" lon="13.5611697"><ele>278.0</ele><time>2026-05-02T10:08:30.156Z</time></trkpt><trkpt lat="46.15214" lon="13.5610427"><ele>278.0</ele><time>2026-05-02T10:08:31.151Z</time></trkpt><trkpt lat="46.152122" lon="13.5609202"><ele>286.5</ele><time>2026-05-02T10:08:32.16Z</time></trkpt><trkpt lat="46.1521031" lon="13.5608036"><ele>295.0</ele><time>2026-05-02T10:08:33.168Z</time></trkpt><trkpt lat="46.1520881" lon="13.5606913"><ele>303.5</ele><time>2026-05-02T10:08:34.162Z</time></trkpt><trkpt lat="46.1520899" lon="13.5605724"><ele>312.0</ele><time>2026-05-02T10:08:35.157Z</time></trkpt><trkpt lat="46.1520904" lon="13.5604396"><ele>320.5</ele><time>2026-05-02T10:08:36.151Z</time></trkpt><trkpt lat="46.152085" lon="13.5602965"><ele>329.0</ele><time>2026-05-02T10:08:37.159Z</time></trkpt><trkpt lat="46.1520661" lon="13.5601347"><ele>337.4</ele><time>2026-05-02T10:08:38.161Z</time></trkpt><trkpt lat="46.1520481" lon="13.5599781"><ele>345.79999999999995</ele><time>2026-05-02T10:08:39.145Z</time></trkpt><trkpt lat="46.152024" lon="13.5598183"><ele>354.20000000000005</ele><time>2026-05-02T10:08:40.145Z</time></trkpt><trkpt lat="46.1520017" lon="13.559682"><ele>362.6</ele><time>2026-05-02T10:08:41.15Z</time></trkpt><trkpt lat="46.1519817" lon="13.5595525"><ele>371.0</ele><time>2026-05-02T10:08:42.157Z</time></trkpt><trkpt lat="46.1519702" lon="13.5594281"><ele>378.1666666666667</ele><time>2026-05-02T10:08:43.145Z</time></trkpt><trkpt lat="46.151966" lon="13.5593033"><ele>385.33333333333337</ele><time>2026-05-02T10:08:44.182Z</time></trkpt><trkpt lat="46.1519663" lon="13.5591808"><ele>392.5</ele><time>2026-05-02T10:08:45.155Z</time></trkpt><trkpt lat="46.1519743" lon="13.5590629"><ele>399.6666666666667</ele><time>2026-05-02T10:08:46.161Z</time></trkpt><trkpt lat="46.1519869" lon="13.5589447"><ele>406.8333333333333</ele><time>2026-05-02T10:08:47.15Z</time></trkpt><trkpt lat="46.1520186" lon="13.558816"><ele>414.0</ele><time>2026-05-02T10:08:48.182Z</time></trkpt><trkpt lat="46.1520748" lon="13.5586775"><ele>414.0</ele><time>2026-05-02T10:08:49.15Z</time></trkpt><trkpt lat="46.1521214" lon="13.558546"><ele>414.0</ele><time>2026-05-02T10:08:50.163Z</time></trkpt><trkpt lat="46.1521684" lon="13.5584094"><ele>414.0</ele><time>2026-05-02T10:08:51.141Z</time></trkpt><trkpt lat="46.1522123" lon="13.558276"><ele>414.0</ele><time>2026-05-02T10:08:52.158Z</time></trkpt><trkpt lat="46.1522615" lon="13.5581534"><ele>414.0</ele><time>2026-05-02T10:08:53.146Z</time></trkpt><trkpt lat="46.1522996" lon="13.5580357"><ele>414.0</ele><time>2026-05-02T10:08:54.165Z</time></trkpt><trkpt lat="46.1523242" lon="13.5579201"><ele>414.0</ele><time>2026-05-02T10:08:55.144Z</time></trkpt><trkpt lat="46.1523234" lon="13.5578284"><ele>414.0</ele><time>2026-05-02T10:08:56.159Z</time></trkpt><trkpt lat="46.1522928" lon="13.5577423"><ele>414.0</ele><time>2026-05-02T10:08:57.151Z</time></trkpt><trkpt lat="46.152202" lon="13.5575748"><ele>414.0</ele><time>2026-05-02T10:08:59.152Z</time></trkpt><trkpt lat="46.1521375" lon="13.5574778"><ele>419.6666666666667</ele><time>2026-05-02T10:09:00.158Z</time></trkpt><trkpt lat="46.1520737" lon="13.5573746"><ele>425.33333333333337</ele><time>2026-05-02T10:09:01.139Z</time></trkpt><trkpt lat="46.152014" lon="13.5572834"><ele>431.0</ele><time>2026-05-02T10:09:02.14Z</time></trkpt><trkpt lat="46.151954" lon="13.5571912"><ele>436.6666666666667</ele><time>2026-05-02T10:09:03.138Z</time></trkpt><trkpt lat="46.1519086" lon="13.557095"><ele>442.33333333333337</ele><time>2026-05-02T10:09:04.147Z</time></trkpt><trkpt lat="46.1518643" lon="13.5569942"><ele>448.0</ele><time>2026-05-02T10:09:05.138Z</time></trkpt><trkpt lat="46.1518232" lon="13.556886"><ele>448.0</ele><time>2026-05-02T10:09:06.154Z</time></trkpt><trkpt lat="46.1517929" lon="13.5567686"><ele>447.99999999999994</ele><time>2026-05-02T10:09:07.138Z</time></trkpt><trkpt lat="46.1517704" lon="13.5566443"><ele>447.99999999999994</ele><time>2026-05-02T10:09:08.163Z</time></trkpt><trkpt lat="46.1517537" lon="13.5565203"><ele>448.0</ele><time>2026-05-02T10:09:09.135Z</time></trkpt><trkpt lat="46.1517333" lon="13.5563884"><ele>448.0</ele><time>2026-05-02T10:09:10.146Z</time></trkpt><trkpt lat="46.1517174" lon="13.5562494"><ele>445.83333333333337</ele><time>2026-05-02T10:09:11.143Z</time></trkpt><trkpt lat="46.1517006" lon="13.5561163"><ele>443.6666666666667</ele><time>2026-05-02T10:09:12.159Z</time></trkpt><trkpt lat="46.1516854" lon="13.5559872"><ele>441.5</ele><time>2026-05-02T10:09:13.145Z</time></trkpt><trkpt lat="46.1516676" lon="13.5558649"><ele>439.33333333333337</ele><time>2026-05-02T10:09:14.158Z</time></trkpt><trkpt lat="46.1516513" lon="13.5557508"><ele>437.1666666666667</ele><time>2026-05-02T10:09:15.172Z</time></trkpt><trkpt lat="46.1516459" lon="13.555642"><ele>435.0</ele><time>2026-05-02T10:09:16.161Z</time></trkpt><trkpt lat="46.1516581" lon="13.555527"><ele>435.0</ele><time>2026-05-02T10:09:17.149Z</time></trkpt><trkpt lat="46.1516943" lon="13.5554164"><ele>435.0</ele><time>2026-05-02T10:09:18.145Z</time></trkpt><trkpt lat="46.1517365" lon="13.5553143"><ele>435.0</ele><time>2026-05-02T10:09:19.146Z</time></trkpt><trkpt lat="46.1517918" lon="13.5552223"><ele>435.0</ele><time>2026-05-02T10:09:20.16Z</time></trkpt><trkpt lat="46.151852" lon="13.5551195"><ele>435.0</ele><time>2026-05-02T10:09:21.148Z</time></trkpt><trkpt lat="46.1519087" lon="13.5550039"><ele>435.0</ele><time>2026-05-02T10:09:22.166Z</time></trkpt><trkpt lat="46.1519537" lon="13.5548776"><ele>433.8</ele><time>2026-05-02T10:09:23.147Z</time></trkpt><trkpt lat="46.1519896" lon="13.5547455"><ele>432.6</ele><time>2026-05-02T10:09:24.16Z</time></trkpt><trkpt lat="46.1520292" lon="13.554616"><ele>431.4</ele><time>2026-05-02T10:09:25.155Z</time></trkpt><trkpt lat="46.1520653" lon="13.5544817"><ele>430.2</ele><time>2026-05-02T10:09:26.147Z</time></trkpt><trkpt lat="46.1520968" lon="13.554349"><ele>429.0</ele><time>2026-05-02T10:09:27.15Z</time></trkpt><trkpt lat="46.1521245" lon="13.5542165"><ele>425.4</ele><time>2026-05-02T10:09:28.15Z</time></trkpt><trkpt lat="46.1521575" lon="13.5540785"><ele>421.79999999999995</ele><time>2026-05-02T10:09:29.147Z</time></trkpt><trkpt lat="46.1521978" lon="13.5539484"><ele>418.20000000000005</ele><time>2026-05-02T10:09:30.17Z</time></trkpt><trkpt lat="46.1522425" lon="13.5538232"><ele>414.6</ele><time>2026-05-02T10:09:31.145Z</time></trkpt><trkpt lat="46.1522924" lon="13.553697"><ele>411.0</ele><time>2026-05-02T10:09:32.169Z</time></trkpt><trkpt lat="46.1523524" lon="13.5535876"><ele>414.6666666666667</ele><time>2026-05-02T10:09:33.146Z</time></trkpt><trkpt lat="46.1524107" lon="13.5534727"><ele>418.33333333333337</ele><time>2026-05-02T10:09:34.142Z</time></trkpt><trkpt lat="46.1524652" lon="13.5533796"><ele>422.0</ele><time>2026-05-02T10:09:35.147Z</time></trkpt><trkpt lat="46.1525175" lon="13.5532979"><ele>425.6666666666667</ele><time>2026-05-02T10:09:36.136Z</time></trkpt><trkpt lat="46.1525712" lon="13.55324"><ele>429.33333333333337</ele><time>2026-05-02T10:09:37.135Z</time></trkpt><trkpt lat="46.1526238" lon="13.5531882"><ele>433.0</ele><time>2026-05-02T10:09:38.145Z</time></trkpt><trkpt lat="46.1526929" lon="13.553103"><ele>433.00000000000006</ele><time>2026-05-02T10:09:40.146Z</time></trkpt><trkpt lat="46.1526687" lon="13.5529382"><ele>433.0</ele><time>2026-05-02T10:09:42.159Z</time></trkpt><trkpt lat="46.152647" lon="13.5528377"><ele>433.0</ele><time>2026-05-02T10:09:43.135Z</time></trkpt><trkpt lat="46.1526399" lon="13.5527326"><ele>433.0</ele><time>2026-05-02T10:09:44.138Z</time></trkpt><trkpt lat="46.1526458" lon="13.5526217"><ele>433.00000000000006</ele><time>2026-05-02T10:09:45.141Z</time></trkpt><trkpt lat="46.1526675" lon="13.5525135"><ele>433.0</ele><time>2026-05-02T10:09:46.155Z</time></trkpt><trkpt lat="46.1527015" lon="13.5523964"><ele>431.1666666666667</ele><time>2026-05-02T10:09:47.137Z</time></trkpt><trkpt lat="46.1527318" lon="13.5522961"><ele>429.33333333333337</ele><time>2026-05-02T10:09:48.135Z</time></trkpt><trkpt lat="46.1527271" lon="13.5521991"><ele>427.5</ele><time>2026-05-02T10:09:49.147Z</time></trkpt><trkpt lat="46.1526939" lon="13.5521065"><ele>425.66666666666663</ele><time>2026-05-02T10:09:50.15Z</time></trkpt><trkpt lat="46.1526425" lon="13.5520044"><ele>423.8333333333333</ele><time>2026-05-02T10:09:51.135Z</time></trkpt><trkpt lat="46.1525803" lon="13.5519124"><ele>422.0</ele><time>2026-05-02T10:09:52.146Z</time></trkpt><trkpt lat="46.1525241" lon="13.5518151"><ele>420.20000000000005</ele><time>2026-05-02T10:09:53.148Z</time></trkpt><trkpt lat="46.1524805" lon="13.5517232"><ele>418.4</ele><time>2026-05-02T10:09:54.153Z</time></trkpt><trkpt lat="46.1524583" lon="13.5516249"><ele>416.6</ele><time>2026-05-02T10:09:55.152Z</time></trkpt><trkpt lat="46.1524081" lon="13.5514738"><ele>414.79999999999995</ele><time>2026-05-02T10:09:57.141Z</time></trkpt><trkpt lat="46.1522913" lon="13.5514185"><ele>413.0</ele><time>2026-05-02T10:09:59.125Z</time></trkpt><trkpt lat="46.152225" lon="13.5513887"><ele>413.8333333333333</ele><time>2026-05-02T10:10:00.139Z</time></trkpt><trkpt lat="46.1521591" lon="13.551325"><ele>414.66666666666663</ele><time>2026-05-02T10:10:01.146Z</time></trkpt><trkpt lat="46.1520958" lon="13.5512615"><ele>415.5</ele><time>2026-05-02T10:10:02.153Z</time></trkpt><trkpt lat="46.1520344" lon="13.5511774"><ele>416.33333333333337</ele><time>2026-05-02T10:10:03.149Z</time></trkpt><trkpt lat="46.1519815" lon="13.5510871"><ele>417.1666666666667</ele><time>2026-05-02T10:10:04.157Z</time></trkpt><trkpt lat="46.1519439" lon="13.5510032"><ele>418.0</ele><time>2026-05-02T10:10:05.145Z</time></trkpt><trkpt lat="46.1519179" lon="13.5509195"><ele>418.0</ele><time>2026-05-02T10:10:06.143Z</time></trkpt><trkpt lat="46.1518336" lon="13.5508245"><ele>418.0</ele><time>2026-05-02T10:10:08.139Z</time></trkpt><trkpt lat="46.1516996" lon="13.5508639"><ele>418.0</ele><time>2026-05-02T10:10:10.143Z</time></trkpt><trkpt lat="46.1516336" lon="13.5508944"><ele>418.0</ele><time>2026-05-02T10:10:11.142Z</time></trkpt><trkpt lat="46.1515689" lon="13.5509067"><ele>418.0</ele><time>2026-05-02T10:10:12.145Z</time></trkpt><trkpt lat="46.1514973" lon="13.5508861"><ele>413.79999999999995</ele><time>2026-05-02T10:10:13.146Z</time></trkpt><trkpt lat="46.1514089" lon="13.5508418"><ele>409.6</ele><time>2026-05-02T10:10:14.148Z</time></trkpt><trkpt lat="46.1513083" lon="13.5507949"><ele>405.4</ele><time>2026-05-02T10:10:15.14Z</time></trkpt><trkpt lat="46.1512097" lon="13.5507504"><ele>401.20000000000005</ele><time>2026-05-02T10:10:16.131Z</time></trkpt><trkpt lat="46.1511169" lon="13.5507266"><ele>397.0</ele><time>2026-05-02T10:10:17.14Z</time></trkpt><trkpt lat="46.1510259" lon="13.5507064"><ele>397.00000000000006</ele><time>2026-05-02T10:10:18.153Z</time></trkpt><trkpt lat="46.1509367" lon="13.5506919"><ele>397.0</ele><time>2026-05-02T10:10:19.159Z</time></trkpt><trkpt lat="46.1508518" lon="13.550677"><ele>397.0</ele><time>2026-05-02T10:10:20.148Z</time></trkpt><trkpt lat="46.1507797" lon="13.5506675"><ele>397.0</ele><time>2026-05-02T10:10:21.146Z</time></trkpt><trkpt lat="46.1507158" lon="13.5506542"><ele>397.00000000000006</ele><time>2026-05-02T10:10:22.143Z</time></trkpt><trkpt lat="46.1506218" lon="13.5505256"><ele>397.0</ele><time>2026-05-02T10:10:24.147Z</time></trkpt><trkpt lat="46.1505992" lon="13.5504361"><ele>392.1666666666667</ele><time>2026-05-02T10:10:25.142Z</time></trkpt><trkpt lat="46.1505849" lon="13.5503459"><ele>387.33333333333337</ele><time>2026-05-02T10:10:26.151Z</time></trkpt><trkpt lat="46.1505865" lon="13.5502416"><ele>382.5</ele><time>2026-05-02T10:10:27.156Z</time></trkpt><trkpt lat="46.1505919" lon="13.5501247"><ele>377.6666666666667</ele><time>2026-05-02T10:10:28.151Z</time></trkpt><trkpt lat="46.1506057" lon="13.5500023"><ele>372.83333333333337</ele><time>2026-05-02T10:10:29.144Z</time></trkpt><trkpt lat="46.1506385" lon="13.549862"><ele>368.0</ele><time>2026-05-02T10:10:30.139Z</time></trkpt><trkpt lat="46.1506658" lon="13.5497231"><ele>368.0</ele><time>2026-05-02T10:10:31.155Z</time></trkpt><trkpt lat="46.1506952" lon="13.5495896"><ele>368.0</ele><time>2026-05-02T10:10:32.134Z</time></trkpt><trkpt lat="46.1507385" lon="13.5494523"><ele>368.0</ele><time>2026-05-02T10:10:33.153Z</time></trkpt><trkpt lat="46.1507793" lon="13.5493242"><ele>368.0</ele><time>2026-05-02T10:10:34.145Z</time></trkpt><trkpt lat="46.1508201" lon="13.5492058"><ele>368.0</ele><time>2026-05-02T10:10:35.152Z</time></trkpt><trkpt lat="46.1508607" lon="13.5490949"><ele>372.83333333333337</ele><time>2026-05-02T10:10:36.172Z</time></trkpt><trkpt lat="46.1508955" lon="13.5489914"><ele>377.6666666666667</ele><time>2026-05-02T10:10:37.14Z</time></trkpt><trkpt lat="46.1509162" lon="13.5488915"><ele>382.5</ele><time>2026-05-02T10:10:38.149Z</time></trkpt><trkpt lat="46.1509151" lon="13.5487993"><ele>387.33333333333337</ele><time>2026-05-02T10:10:39.137Z</time></trkpt><trkpt lat="46.1508784" lon="13.5486681"><ele>392.1666666666667</ele><time>2026-05-02T10:10:41.132Z</time></trkpt><trkpt lat="46.1508357" lon="13.5485884"><ele>397.0</ele><time>2026-05-02T10:10:42.129Z</time></trkpt><trkpt lat="46.1507892" lon="13.5484947"><ele>397.00000000000006</ele><time>2026-05-02T10:10:43.153Z</time></trkpt><trkpt lat="46.1507481" lon="13.548377"><ele>397.0</ele><time>2026-05-02T10:10:44.139Z</time></trkpt><trkpt lat="46.1507192" lon="13.5482602"><ele>397.0</ele><time>2026-05-02T10:10:45.154Z</time></trkpt><trkpt lat="46.1506993" lon="13.5481244"><ele>397.0</ele><time>2026-05-02T10:10:46.155Z</time></trkpt><trkpt lat="46.1506944" lon="13.548008"><ele>397.00000000000006</ele><time>2026-05-02T10:10:47.15Z</time></trkpt><trkpt lat="46.1507092" lon="13.5478863"><ele>397.0</ele><time>2026-05-02T10:10:48.137Z</time></trkpt><trkpt lat="46.1507297" lon="13.5477612"><ele>397.40000000000003</ele><time>2026-05-02T10:10:49.146Z</time></trkpt><trkpt lat="46.1507625" lon="13.5476332"><ele>397.8</ele><time>2026-05-02T10:10:50.154Z</time></trkpt><trkpt lat="46.1507982" lon="13.5475081"><ele>398.2</ele><time>2026-05-02T10:10:51.15Z</time></trkpt><trkpt lat="46.1508382" lon="13.5473725"><ele>398.6</ele><time>2026-05-02T10:10:52.153Z</time></trkpt><trkpt lat="46.1508784" lon="13.5472355"><ele>399.0</ele><time>2026-05-02T10:10:53.151Z</time></trkpt><trkpt lat="46.1509165" lon="13.547097"><ele>399.5</ele><time>2026-05-02T10:10:54.142Z</time></trkpt><trkpt lat="46.1509621" lon="13.5469576"><ele>400.0</ele><time>2026-05-02T10:10:55.148Z</time></trkpt><trkpt lat="46.1509953" lon="13.5468304"><ele>400.5</ele><time>2026-05-02T10:10:56.149Z</time></trkpt><trkpt lat="46.1510252" lon="13.546718"><ele>401.0</ele><time>2026-05-02T10:10:57.161Z</time></trkpt><trkpt lat="46.1510312" lon="13.5466151"><ele>401.5</ele><time>2026-05-02T10:10:58.145Z</time></trkpt><trkpt lat="46.1509742" lon="13.5465169"><ele>402.0</ele><time>2026-05-02T10:11:00.14Z</time></trkpt><trkpt lat="46.1509108" lon="13.5465288"><ele>402.0</ele><time>2026-05-02T10:11:01.132Z</time></trkpt><trkpt lat="46.1508344" lon="13.5465518"><ele>402.0</ele><time>2026-05-02T10:11:02.137Z</time></trkpt><trkpt lat="46.1507604" lon="13.5465905"><ele>402.0</ele><time>2026-05-02T10:11:03.14Z</time></trkpt><trkpt lat="46.15069" lon="13.5466312"><ele>402.0</ele><time>2026-05-02T10:11:04.167Z</time></trkpt><trkpt lat="46.1506263" lon="13.5466554"><ele>402.0</ele><time>2026-05-02T10:11:05.152Z</time></trkpt><trkpt lat="46.1505494" lon="13.5466693"><ele>402.0</ele><time>2026-05-02T10:11:06.131Z</time></trkpt><trkpt lat="46.1504634" lon="13.5466716"><ele>400.8333333333333</ele><time>2026-05-02T10:11:07.149Z</time></trkpt><trkpt lat="46.1503749" lon="13.5466726"><ele>399.66666666666663</ele><time>2026-05-02T10:11:08.162Z</time></trkpt><trkpt lat="46.1502854" lon="13.546678"><ele>398.5</ele><time>2026-05-02T10:11:09.144Z</time></trkpt><trkpt lat="46.1502103" lon="13.5466773"><ele>397.3333333333333</ele><time>2026-05-02T10:11:10.148Z</time></trkpt><trkpt lat="46.1501251" lon="13.5466217"><ele>396.16666666666663</ele><time>2026-05-02T10:11:12.157Z</time></trkpt><trkpt lat="46.1501145" lon="13.5465017"><ele>395.0</ele><time>2026-05-02T10:11:14.153Z</time></trkpt><trkpt lat="46.1501151" lon="13.5464084"><ele>394.99999999999994</ele><time>2026-05-02T10:11:15.138Z</time></trkpt><trkpt lat="46.1501191" lon="13.5462807"><ele>395.0</ele><time>2026-05-02T10:11:16.161Z</time></trkpt><trkpt lat="46.1501186" lon="13.5461567"><ele>395.0</ele><time>2026-05-02T10:11:17.149Z</time></trkpt><trkpt lat="46.1501138" lon="13.5460597"><ele>395.0</ele><time>2026-05-02T10:11:18.158Z</time></trkpt><trkpt lat="46.1500762" lon="13.5459436"><ele>394.99999999999994</ele><time>2026-05-02T10:11:20.16Z</time></trkpt><trkpt lat="46.1500165" lon="13.5459107"><ele>395.0</ele><time>2026-05-02T10:11:21.142Z</time></trkpt><trkpt lat="46.1498962" lon="13.545913"><ele>399.66666666666663</ele><time>2026-05-02T10:11:23.141Z</time></trkpt><trkpt lat="46.1498497" lon="13.5459819"><ele>404.3333333333333</ele><time>2026-05-02T10:11:24.157Z</time></trkpt><trkpt lat="46.1497987" lon="13.5460747"><ele>409.0</ele><time>2026-05-02T10:11:25.144Z</time></trkpt><trkpt lat="46.1497496" lon="13.5461702"><ele>413.66666666666663</ele><time>2026-05-02T10:11:26.138Z</time></trkpt><trkpt lat="46.1497045" lon="13.5462496"><ele>418.3333333333333</ele><time>2026-05-02T10:11:27.131Z</time></trkpt><trkpt lat="46.1496527" lon="13.5463264"><ele>423.0</ele><time>2026-05-02T10:11:28.127Z</time></trkpt><trkpt lat="46.1495984" lon="13.5463976"><ele>423.0</ele><time>2026-05-02T10:11:29.152Z</time></trkpt><trkpt lat="46.1495085" lon="13.5465021"><ele>423.0</ele><time>2026-05-02T10:11:31.141Z</time></trkpt><trkpt lat="46.1494589" lon="13.5466351"><ele>423.0</ele><time>2026-05-02T10:11:33.125Z</time></trkpt><trkpt lat="46.1494253" lon="13.5467501"><ele>423.0</ele><time>2026-05-02T10:11:34.135Z</time></trkpt><trkpt lat="46.1493922" lon="13.5468763"><ele>423.0</ele><time>2026-05-02T10:11:35.151Z</time></trkpt><trkpt lat="46.1493586" lon="13.5469943"><ele>418.8333333333333</ele><time>2026-05-02T10:11:36.154Z</time></trkpt><trkpt lat="46.1493242" lon="13.5471179"><ele>414.66666666666663</ele><time>2026-05-02T10:11:37.146Z</time></trkpt><trkpt lat="46.1492909" lon="13.547234"><ele>410.5</ele><time>2026-05-02T10:11:38.15Z</time></trkpt><trkpt lat="46.1492514" lon="13.5473419"><ele>406.3333333333333</ele><time>2026-05-02T10:11:39.144Z</time></trkpt><trkpt lat="46.1491996" lon="13.5474455"><ele>402.16666666666663</ele><time>2026-05-02T10:11:40.147Z</time></trkpt><trkpt lat="46.1491427" lon="13.5475313"><ele>398.0</ele><time>2026-05-02T10:11:41.146Z</time></trkpt><trkpt lat="46.149071" lon="13.5475953"><ele>400.16666666666663</ele><time>2026-05-02T10:11:42.149Z</time></trkpt><trkpt lat="46.1490048" lon="13.5476464"><ele>402.3333333333333</ele><time>2026-05-02T10:11:43.15Z</time></trkpt><trkpt lat="46.1489394" lon="13.5476826"><ele>404.5</ele><time>2026-05-02T10:11:44.147Z</time></trkpt><trkpt lat="46.1488594" lon="13.5476869"><ele>406.66666666666663</ele><time>2026-05-02T10:11:45.137Z</time></trkpt><trkpt lat="46.1487801" lon="13.5476711"><ele>408.8333333333333</ele><time>2026-05-02T10:11:46.149Z</time></trkpt><trkpt lat="46.1487018" lon="13.5476332"><ele>411.0</ele><time>2026-05-02T10:11:47.141Z</time></trkpt><trkpt lat="46.1486166" lon="13.5475874"><ele>411.0</ele><time>2026-05-02T10:11:48.148Z</time></trkpt><trkpt lat="46.1485241" lon="13.5475425"><ele>411.0</ele><time>2026-05-02T10:11:49.154Z</time></trkpt><trkpt lat="46.1484293" lon="13.5475144"><ele>411.0</ele><time>2026-05-02T10:11:50.154Z</time></trkpt><trkpt lat="46.1483324" lon="13.5475141"><ele>411.0</ele><time>2026-05-02T10:11:51.137Z</time></trkpt><trkpt lat="46.1482455" lon="13.5475446"><ele>411.0</ele><time>2026-05-02T10:11:52.16Z</time></trkpt><trkpt lat="46.1481553" lon="13.5475812"><ele>407.20000000000005</ele><time>2026-05-02T10:11:53.14Z</time></trkpt><trkpt lat="46.1480692" lon="13.5476112"><ele>403.40000000000003</ele><time>2026-05-02T10:11:54.16Z</time></trkpt><trkpt lat="46.1479836" lon="13.5476414"><ele>399.6</ele><time>2026-05-02T10:11:55.15Z</time></trkpt><trkpt lat="46.1478945" lon="13.5476661"><ele>395.8</ele><time>2026-05-02T10:11:56.139Z</time></trkpt><trkpt lat="46.1478049" lon="13.5476888"><ele>392.0</ele><time>2026-05-02T10:11:57.136Z</time></trkpt><trkpt lat="46.1477119" lon="13.5476921"><ele>391.99999999999994</ele><time>2026-05-02T10:11:58.143Z</time></trkpt><trkpt lat="46.1476194" lon="13.547675"><ele>392.0</ele><time>2026-05-02T10:11:59.157Z</time></trkpt><trkpt lat="46.1475447" lon="13.5476311"><ele>392.0</ele><time>2026-05-02T10:12:00.16Z</time></trkpt><trkpt lat="46.1474847" lon="13.5475401"><ele>392.0</ele><time>2026-05-02T10:12:01.166Z</time></trkpt><trkpt lat="46.1474365" lon="13.5474515"><ele>391.99999999999994</ele><time>2026-05-02T10:12:02.132Z</time></trkpt><trkpt lat="46.1473996" lon="13.5473541"><ele>392.0</ele><time>2026-05-02T10:12:03.152Z</time></trkpt><trkpt lat="46.1473576" lon="13.547257"><ele>386.99999999999994</ele><time>2026-05-02T10:12:04.147Z</time></trkpt><trkpt lat="46.1473022" lon="13.5471775"><ele>382.0</ele><time>2026-05-02T10:12:05.144Z</time></trkpt><trkpt lat="46.1472168" lon="13.5471319"><ele>377.0</ele><time>2026-05-02T10:12:06.158Z</time></trkpt><trkpt lat="46.1471296" lon="13.5471027"><ele>372.0</ele><time>2026-05-02T10:12:07.144Z</time></trkpt><trkpt lat="46.1470616" lon="13.5470667"><ele>367.0</ele><time>2026-05-02T10:12:08.145Z</time></trkpt><trkpt lat="46.1469886" lon="13.5469345"><ele>362.0</ele><time>2026-05-02T10:12:10.147Z</time></trkpt><trkpt lat="46.1469596" lon="13.5467375"><ele>360.6666666666667</ele><time>2026-05-02T10:12:12.155Z</time></trkpt><trkpt lat="46.1469666" lon="13.5466103"><ele>359.33333333333337</ele><time>2026-05-02T10:12:13.148Z</time></trkpt><trkpt lat="46.1469812" lon="13.5464851"><ele>358.0</ele><time>2026-05-02T10:12:14.157Z</time></trkpt><trkpt lat="46.1470097" lon="13.5463419"><ele>356.6666666666667</ele><time>2026-05-02T10:12:15.175Z</time></trkpt><trkpt lat="46.1470285" lon="13.5462204"><ele>355.3333333333333</ele><time>2026-05-02T10:12:16.141Z</time></trkpt><trkpt lat="46.1470392" lon="13.5461113"><ele>354.0</ele><time>2026-05-02T10:12:17.157Z</time></trkpt><trkpt lat="46.146991" lon="13.5459593"><ele>354.0</ele><time>2026-05-02T10:12:19.132Z</time></trkpt><trkpt lat="46.146893" lon="13.5459215"><ele>354.0</ele><time>2026-05-02T10:12:20.151Z</time></trkpt><trkpt lat="46.1467804" lon="13.5458587"><ele>354.0</ele><time>2026-05-02T10:12:21.139Z</time></trkpt><trkpt lat="46.1466683" lon="13.5457877"><ele>354.0</ele><time>2026-05-02T10:12:22.145Z</time></trkpt><trkpt lat="46.1465597" lon="13.5457244"><ele>354.0</ele><time>2026-05-02T10:12:23.132Z</time></trkpt><trkpt lat="46.1464668" lon="13.5456576"><ele>354.0</ele><time>2026-05-02T10:12:24.144Z</time></trkpt><trkpt lat="46.1463903" lon="13.545606"><ele>354.0</ele><time>2026-05-02T10:12:25.139Z</time></trkpt><trkpt lat="46.1463456" lon="13.5455306"><ele>354.0</ele><time>2026-05-02T10:12:26.147Z</time></trkpt><trkpt lat="46.1463309" lon="13.5454412"><ele>354.0</ele><time>2026-05-02T10:12:27.137Z</time></trkpt><trkpt lat="46.1463227" lon="13.545345"><ele>354.0</ele><time>2026-05-02T10:12:28.152Z</time></trkpt><trkpt lat="46.1463186" lon="13.5452188"><ele>354.0</ele><time>2026-05-02T10:12:29.154Z</time></trkpt><trkpt lat="46.1463109" lon="13.5450777"><ele>354.0</ele><time>2026-05-02T10:12:30.149Z</time></trkpt><trkpt lat="46.1462874" lon="13.5449388"><ele>354.0</ele><time>2026-05-02T10:12:31.154Z</time></trkpt><trkpt lat="46.1462536" lon="13.5448304"><ele>354.0</ele><time>2026-05-02T10:12:32.144Z</time></trkpt><trkpt lat="46.146197" lon="13.5447417"><ele>354.0</ele><time>2026-05-02T10:12:33.148Z</time></trkpt><trkpt lat="46.1461258" lon="13.5446669"><ele>358.5</ele><time>2026-05-02T10:12:34.143Z</time></trkpt><trkpt lat="46.146063" lon="13.5445931"><ele>363.0</ele><time>2026-05-02T10:12:35.141Z</time></trkpt><trkpt lat="46.146022" lon="13.5445069"><ele>367.5</ele><time>2026-05-02T10:12:36.149Z</time></trkpt><trkpt lat="46.1459973" lon="13.5443903"><ele>372.0</ele><time>2026-05-02T10:12:37.143Z</time></trkpt><trkpt lat="46.1459675" lon="13.5442671"><ele>376.5</ele><time>2026-05-02T10:12:38.16Z</time></trkpt><trkpt lat="46.1459277" lon="13.5441551"><ele>381.0</ele><time>2026-05-02T10:12:39.147Z</time></trkpt><trkpt lat="46.1458711" lon="13.5440531"><ele>381.0</ele><time>2026-05-02T10:12:40.165Z</time></trkpt><trkpt lat="46.1458073" lon="13.5439469"><ele>381.0</ele><time>2026-05-02T10:12:41.133Z</time></trkpt><trkpt lat="46.1457451" lon="13.5438389"><ele>381.0</ele><time>2026-05-02T10:12:42.135Z</time></trkpt><trkpt lat="46.1456814" lon="13.543727"><ele>381.0</ele><time>2026-05-02T10:12:43.147Z</time></trkpt><trkpt lat="46.1456153" lon="13.5436042"><ele>381.0</ele><time>2026-05-02T10:12:44.135Z</time></trkpt><trkpt lat="46.1455616" lon="13.5434887"><ele>372.8333333333333</ele><time>2026-05-02T10:12:45.151Z</time></trkpt><trkpt lat="46.1455253" lon="13.5433881"><ele>364.6666666666667</ele><time>2026-05-02T10:12:46.137Z</time></trkpt><trkpt lat="46.1454945" lon="13.5432112"><ele>356.5</ele><time>2026-05-02T10:12:48.156Z</time></trkpt><trkpt lat="46.1455002" lon="13.5431195"><ele>348.33333333333337</ele><time>2026-05-02T10:12:49.164Z</time></trkpt><trkpt lat="46.1455082" lon="13.5430125"><ele>340.1666666666667</ele><time>2026-05-02T10:12:50.164Z</time></trkpt><trkpt lat="46.1455245" lon="13.5428995"><ele>332.0</ele><time>2026-05-02T10:12:51.136Z</time></trkpt><trkpt lat="46.1455471" lon="13.5427928"><ele>331.83333333333337</ele><time>2026-05-02T10:12:52.132Z</time></trkpt><trkpt lat="46.1455847" lon="13.542689"><ele>331.6666666666667</ele><time>2026-05-02T10:12:53.142Z</time></trkpt><trkpt lat="46.1456338" lon="13.5425965"><ele>331.5</ele><time>2026-05-02T10:12:54.143Z</time></trkpt><trkpt lat="46.1456893" lon="13.5425108"><ele>331.3333333333333</ele><time>2026-05-02T10:12:55.135Z</time></trkpt><trkpt lat="46.1457365" lon="13.5424251"><ele>331.16666666666663</ele><time>2026-05-02T10:12:56.18Z</time></trkpt><trkpt lat="46.1457612" lon="13.5422779"><ele>331.0</ele><time>2026-05-02T10:12:58.138Z</time></trkpt><trkpt lat="46.1456863" lon="13.5421357"><ele>332.3333333333333</ele><time>2026-05-02T10:13:00.171Z</time></trkpt><trkpt lat="46.1456352" lon="13.5419838"><ele>333.66666666666663</ele><time>2026-05-02T10:13:02.138Z</time></trkpt><trkpt lat="46.1456327" lon="13.5418744"><ele>335.0</ele><time>2026-05-02T10:13:03.138Z</time></trkpt><trkpt lat="46.1456175" lon="13.5417568"><ele>336.3333333333333</ele><time>2026-05-02T10:13:04.143Z</time></trkpt><trkpt lat="46.145597" lon="13.5416515"><ele>337.6666666666667</ele><time>2026-05-02T10:13:05.133Z</time></trkpt><trkpt lat="46.1455588" lon="13.5415477"><ele>339.0</ele><time>2026-05-02T10:13:06.138Z</time></trkpt><trkpt lat="46.1455151" lon="13.5414453"><ele>339.0</ele><time>2026-05-02T10:13:07.143Z</time></trkpt><trkpt lat="46.145476" lon="13.5413452"><ele>339.0</ele><time>2026-05-02T10:13:08.139Z</time></trkpt><trkpt lat="46.1454435" lon="13.5412612"><ele>339.0</ele><time>2026-05-02T10:13:09.136Z</time></trkpt><trkpt lat="46.1453522" lon="13.5411526"><ele>339.0</ele><time>2026-05-02T10:13:11.148Z</time></trkpt><trkpt lat="46.1452453" lon="13.5410936"><ele>339.0</ele><time>2026-05-02T10:13:13.133Z</time></trkpt><trkpt lat="46.1451848" lon="13.5410536"><ele>339.0</ele><time>2026-05-02T10:13:16.141Z</time></trkpt><trkpt lat="46.1451817" lon="13.5409484"><ele>339.0</ele><time>2026-05-02T10:13:52.153Z</time></trkpt><trkpt lat="46.1451546" lon="13.5408165"><ele>339.0</ele><time>2026-05-02T10:13:54.153Z</time></trkpt><trkpt lat="46.1451194" lon="13.5407194"><ele>339.0</ele><time>2026-05-02T10:13:56.143Z</time></trkpt><trkpt lat="46.1450871" lon="13.5406239"><ele>339.0</ele><time>2026-05-02T10:14:38.161Z</time></trkpt><trkpt lat="46.1450597" lon="13.540515"><ele>339.0</ele><time>2026-05-02T10:14:40.143Z</time></trkpt><trkpt lat="46.1450494" lon="13.5403766"><ele>339.0</ele><time>2026-05-02T10:14:42.15Z</time></trkpt><trkpt lat="46.1450259" lon="13.5402075"><ele>339.0</ele><time>2026-05-02T10:14:44.142Z</time></trkpt><trkpt lat="46.1450134" lon="13.5401121"><ele>339.0</ele><time>2026-05-02T10:14:45.15Z</time></trkpt><trkpt lat="46.1450023" lon="13.5400201"><ele>339.0</ele><time>2026-05-02T10:14:46.146Z</time></trkpt><trkpt lat="46.1449838" lon="13.5399311"><ele>339.0</ele><time>2026-05-02T10:14:47.157Z</time></trkpt><trkpt lat="46.144962" lon="13.5398448"><ele>339.0</ele><time>2026-05-02T10:14:48.151Z</time></trkpt><trkpt lat="46.1449378" lon="13.5397558"><ele>339.0</ele><time>2026-05-02T10:14:49.161Z</time></trkpt><trkpt lat="46.144915" lon="13.5396549"><ele>339.0</ele><time>2026-05-02T10:14:50.144Z</time></trkpt><trkpt lat="46.1448777" lon="13.5395443"><ele>339.0</ele><time>2026-05-02T10:14:51.153Z</time></trkpt><trkpt lat="46.144831" lon="13.5394376"><ele>339.0</ele><time>2026-05-02T10:14:52.15Z</time></trkpt><trkpt lat="46.1447906" lon="13.539332"><ele>339.0</ele><time>2026-05-02T10:14:53.15Z</time></trkpt><trkpt lat="46.1447523" lon="13.5392182"><ele>339.0</ele><time>2026-05-02T10:14:54.166Z</time></trkpt><trkpt lat="46.1447162" lon="13.5390954"><ele>339.0</ele><time>2026-05-02T10:14:55.141Z</time></trkpt><trkpt lat="46.1446834" lon="13.5389683"><ele>339.0</ele><time>2026-05-02T10:14:56.144Z</time></trkpt><trkpt lat="46.144648" lon="13.5388526"><ele>339.0</ele><time>2026-05-02T10:14:57.15Z</time></trkpt><trkpt lat="46.1446086" lon="13.5387447"><ele>339.0</ele><time>2026-05-02T10:14:58.15Z</time></trkpt><trkpt lat="46.1445566" lon="13.5386465"><ele>339.0</ele><time>2026-05-02T10:14:59.148Z</time></trkpt><trkpt lat="46.1444827" lon="13.5385691"><ele>339.0</ele><time>2026-05-02T10:15:00.155Z</time></trkpt><trkpt lat="46.1443854" lon="13.5385125"><ele>339.0</ele><time>2026-05-02T10:15:01.154Z</time></trkpt><trkpt lat="46.1442848" lon="13.5384651"><ele>348.25</ele><time>2026-05-02T10:15:02.159Z</time></trkpt><trkpt lat="46.1441858" lon="13.5384115"><ele>357.5</ele><time>2026-05-02T10:15:03.158Z</time></trkpt><trkpt lat="46.144078" lon="13.5383659"><ele>366.75</ele><time>2026-05-02T10:15:04.146Z</time></trkpt><trkpt lat="46.1439647" lon="13.5383169"><ele>376.0</ele><time>2026-05-02T10:15:05.146Z</time></trkpt><trkpt lat="46.1438541" lon="13.5382648"><ele>376.0</ele><time>2026-05-02T10:15:06.152Z</time></trkpt><trkpt lat="46.1437489" lon="13.5382044"><ele>376.0</ele><time>2026-05-02T10:15:07.152Z</time></trkpt><trkpt lat="46.1436488" lon="13.5381353"><ele>376.0</ele><time>2026-05-02T10:15:08.148Z</time></trkpt><trkpt lat="46.1435416" lon="13.5380835"><ele>376.0</ele><time>2026-05-02T10:15:09.149Z</time></trkpt><trkpt lat="46.143429" lon="13.5380346"><ele>376.0</ele><time>2026-05-02T10:15:10.153Z</time></trkpt><trkpt lat="46.1433274" lon="13.5379867"><ele>376.0</ele><time>2026-05-02T10:15:11.151Z</time></trkpt><trkpt lat="46.1432363" lon="13.5379358"><ele>376.0</ele><time>2026-05-02T10:15:12.154Z</time></trkpt><trkpt lat="46.1431703" lon="13.5378639"><ele>376.0</ele><time>2026-05-02T10:15:13.152Z</time></trkpt><trkpt lat="46.1431268" lon="13.5377696"><ele>376.0</ele><time>2026-05-02T10:15:14.151Z</time></trkpt><trkpt lat="46.1431087" lon="13.5376531"><ele>376.0</ele><time>2026-05-02T10:15:15.15Z</time></trkpt><trkpt lat="46.1431082" lon="13.5375254"><ele>376.0</ele><time>2026-05-02T10:15:16.164Z</time></trkpt><trkpt lat="46.1431084" lon="13.5374192"><ele>376.0</ele><time>2026-05-02T10:15:17.149Z</time></trkpt><trkpt lat="46.1431301" lon="13.537299"><ele>376.0</ele><time>2026-05-02T10:15:19.153Z</time></trkpt><trkpt lat="46.1432105" lon="13.5373731"><ele>376.0</ele><time>2026-05-02T10:15:21.141Z</time></trkpt><trkpt lat="46.1432408" lon="13.5374949"><ele>376.0</ele><time>2026-05-02T10:15:22.154Z</time></trkpt><trkpt lat="46.1432643" lon="13.5375914"><ele>376.0</ele><time>2026-05-02T10:15:23.151Z</time></trkpt><trkpt lat="46.1433356" lon="13.5376474"><ele>383.66666666666663</ele><time>2026-05-02T10:15:25.142Z</time></trkpt><trkpt lat="46.1433649" lon="13.5375114"><ele>391.3333333333333</ele><time>2026-05-02T10:15:27.157Z</time></trkpt><trkpt lat="46.1433479" lon="13.5374196"><ele>399.0</ele><time>2026-05-02T10:15:28.147Z</time></trkpt><trkpt lat="46.1433218" lon="13.5373064"><ele>406.66666666666663</ele><time>2026-05-02T10:15:29.145Z</time></trkpt><trkpt lat="46.1432954" lon="13.5371774"><ele>414.3333333333333</ele><time>2026-05-02T10:15:30.157Z</time></trkpt><trkpt lat="46.1432641" lon="13.537048"><ele>422.0</ele><time>2026-05-02T10:15:31.151Z</time></trkpt><trkpt lat="46.1432085" lon="13.5369401"><ele>422.0</ele><time>2026-05-02T10:15:32.151Z</time></trkpt><trkpt lat="46.1431311" lon="13.5368511"><ele>422.0</ele><time>2026-05-02T10:15:33.14Z</time></trkpt><trkpt lat="46.1430384" lon="13.5367741"><ele>422.0</ele><time>2026-05-02T10:15:34.148Z</time></trkpt><trkpt lat="46.1429253" lon="13.5366899"><ele>422.0</ele><time>2026-05-02T10:15:35.141Z</time></trkpt><trkpt lat="46.1428185" lon="13.5366051"><ele>422.0</ele><time>2026-05-02T10:15:36.15Z</time></trkpt><trkpt lat="46.1427047" lon="13.5365243"><ele>422.0</ele><time>2026-05-02T10:15:37.141Z</time></trkpt><trkpt lat="46.1426003" lon="13.5364384"><ele>422.0</ele><time>2026-05-02T10:15:38.145Z</time></trkpt><trkpt lat="46.1425142" lon="13.5363408"><ele>422.0</ele><time>2026-05-02T10:15:39.14Z</time></trkpt><trkpt lat="46.1424427" lon="13.5362135"><ele>420.5</ele><time>2026-05-02T10:15:40.139Z</time></trkpt><trkpt lat="46.1423881" lon="13.5360489"><ele>419.0</ele><time>2026-05-02T10:15:41.15Z</time></trkpt><trkpt lat="46.1423341" lon="13.5358981"><ele>417.5</ele><time>2026-05-02T10:15:42.155Z</time></trkpt><trkpt lat="46.1422733" lon="13.5357509"><ele>416.0</ele><time>2026-05-02T10:15:43.154Z</time></trkpt><trkpt lat="46.1422253" lon="13.5356004"><ele>416.0</ele><time>2026-05-02T10:15:44.154Z</time></trkpt><trkpt lat="46.142189" lon="13.5354435"><ele>416.0</ele><time>2026-05-02T10:15:45.153Z</time></trkpt><trkpt lat="46.1421681" lon="13.5352734"><ele>416.0</ele><time>2026-05-02T10:15:46.149Z</time></trkpt><trkpt lat="46.1421553" lon="13.5351116"><ele>416.0</ele><time>2026-05-02T10:15:47.145Z</time></trkpt><trkpt lat="46.1421478" lon="13.5349628"><ele>418.20000000000005</ele><time>2026-05-02T10:15:48.149Z</time></trkpt><trkpt lat="46.1421401" lon="13.5348218"><ele>420.40000000000003</ele><time>2026-05-02T10:15:49.144Z</time></trkpt><trkpt lat="46.1421357" lon="13.5346713"><ele>422.6</ele><time>2026-05-02T10:15:50.153Z</time></trkpt><trkpt lat="46.1421307" lon="13.5345198"><ele>424.8</ele><time>2026-05-02T10:15:51.157Z</time></trkpt><trkpt lat="46.1421186" lon="13.5343856"><ele>427.0</ele><time>2026-05-02T10:15:52.156Z</time></trkpt><trkpt lat="46.1420978" lon="13.5342643"><ele>429.33333333333337</ele><time>2026-05-02T10:15:53.142Z</time></trkpt><trkpt lat="46.1420504" lon="13.5341727"><ele>431.6666666666667</ele><time>2026-05-02T10:15:54.153Z</time></trkpt><trkpt lat="46.1419801" lon="13.5341062"><ele>434.0</ele><time>2026-05-02T10:15:55.142Z</time></trkpt><trkpt lat="46.1418953" lon="13.5340591"><ele>436.33333333333337</ele><time>2026-05-02T10:15:56.147Z</time></trkpt><trkpt lat="46.1418141" lon="13.5340048"><ele>438.6666666666667</ele><time>2026-05-02T10:15:57.157Z</time></trkpt><trkpt lat="46.1417316" lon="13.5339508"><ele>441.0</ele><time>2026-05-02T10:15:58.15Z</time></trkpt><trkpt lat="46.1416476" lon="13.5338814"><ele>441.0</ele><time>2026-05-02T10:15:59.153Z</time></trkpt><trkpt lat="46.1415723" lon="13.5338093"><ele>441.0</ele><time>2026-05-02T10:16:00.157Z</time></trkpt><trkpt lat="46.1415123" lon="13.5337412"><ele>441.0</ele><time>2026-05-02T10:16:01.15Z</time></trkpt><trkpt lat="46.1414543" lon="13.533653"><ele>441.0</ele><time>2026-05-02T10:16:02.149Z</time></trkpt><trkpt lat="46.1414006" lon="13.5335563"><ele>441.0</ele><time>2026-05-02T10:16:03.145Z</time></trkpt><trkpt lat="46.1413547" lon="13.5334442"><ele>441.0</ele><time>2026-05-02T10:16:04.145Z</time></trkpt><trkpt lat="46.1413118" lon="13.5333334"><ele>441.0</ele><time>2026-05-02T10:16:05.144Z</time></trkpt><trkpt lat="46.141262" lon="13.5332275"><ele>441.0</ele><time>2026-05-02T10:16:06.157Z</time></trkpt><trkpt lat="46.1412031" lon="13.5331268"><ele>441.0</ele><time>2026-05-02T10:16:07.154Z</time></trkpt><trkpt lat="46.1411382" lon="13.5330443"><ele>441.0</ele><time>2026-05-02T10:16:08.148Z</time></trkpt><trkpt lat="46.1410774" lon="13.5329662"><ele>441.0</ele><time>2026-05-02T10:16:09.15Z</time></trkpt><trkpt lat="46.1410118" lon="13.5328718"><ele>441.0</ele><time>2026-05-02T10:16:10.155Z</time></trkpt><trkpt lat="46.1409463" lon="13.5327797"><ele>441.0</ele><time>2026-05-02T10:16:11.151Z</time></trkpt><trkpt lat="46.1408895" lon="13.5326833"><ele>441.0</ele><time>2026-05-02T10:16:12.146Z</time></trkpt><trkpt lat="46.1408403" lon="13.5325844"><ele>441.0</ele><time>2026-05-02T10:16:13.151Z</time></trkpt><trkpt lat="46.1407989" lon="13.5324654"><ele>441.0</ele><time>2026-05-02T10:16:14.156Z</time></trkpt><trkpt lat="46.1407549" lon="13.5323416"><ele>441.0</ele><time>2026-05-02T10:16:15.153Z</time></trkpt><trkpt lat="46.1407167" lon="13.5322029"><ele>441.0</ele><time>2026-05-02T10:16:16.165Z</time></trkpt><trkpt lat="46.1406737" lon="13.5320632"><ele>441.0</ele><time>2026-05-02T10:16:17.145Z</time></trkpt><trkpt lat="46.1406372" lon="13.5319265"><ele>441.0</ele><time>2026-05-02T10:16:18.148Z</time></trkpt><trkpt lat="46.1406008" lon="13.5317954"><ele>441.0</ele><time>2026-05-02T10:16:19.146Z</time></trkpt><trkpt lat="46.1405692" lon="13.5316657"><ele>441.0</ele><time>2026-05-02T10:16:20.154Z</time></trkpt><trkpt lat="46.1405487" lon="13.5315462"><ele>441.0</ele><time>2026-05-02T10:16:21.143Z</time></trkpt><trkpt lat="46.1405277" lon="13.5314542"><ele>441.0</ele><time>2026-05-02T10:16:22.156Z</time></trkpt><trkpt lat="46.1404516" lon="13.5313266"><ele>441.0</ele><time>2026-05-02T10:16:24.151Z</time></trkpt><trkpt lat="46.1403973" lon="13.5312575"><ele>441.0</ele><time>2026-05-02T10:16:25.142Z</time></trkpt><trkpt lat="46.1403392" lon="13.5311885"><ele>441.0</ele><time>2026-05-02T10:16:26.144Z</time></trkpt><trkpt lat="46.1402846" lon="13.5311059"><ele>441.0</ele><time>2026-05-02T10:16:27.149Z</time></trkpt><trkpt lat="46.1402281" lon="13.5310175"><ele>441.0</ele><time>2026-05-02T10:16:28.155Z</time></trkpt><trkpt lat="46.1401545" lon="13.5309205"><ele>441.0</ele><time>2026-05-02T10:16:29.141Z</time></trkpt><trkpt lat="46.1400907" lon="13.5308327"><ele>441.0</ele><time>2026-05-02T10:16:30.15Z</time></trkpt><trkpt lat="46.1400348" lon="13.5307341"><ele>441.0</ele><time>2026-05-02T10:16:31.15Z</time></trkpt><trkpt lat="46.1399877" lon="13.5306258"><ele>441.0</ele><time>2026-05-02T10:16:32.16Z</time></trkpt><trkpt lat="46.1399429" lon="13.5305113"><ele>446.6666666666667</ele><time>2026-05-02T10:16:33.151Z</time></trkpt><trkpt lat="46.1399029" lon="13.5303843"><ele>452.33333333333337</ele><time>2026-05-02T10:16:34.152Z</time></trkpt><trkpt lat="46.1398691" lon="13.5302594"><ele>458.0</ele><time>2026-05-02T10:16:35.148Z</time></trkpt><trkpt lat="46.1398305" lon="13.5301354"><ele>463.6666666666667</ele><time>2026-05-02T10:16:36.148Z</time></trkpt><trkpt lat="46.1397922" lon="13.530028"><ele>469.33333333333337</ele><time>2026-05-02T10:16:37.154Z</time></trkpt><trkpt lat="46.1397477" lon="13.5299538"><ele>475.0</ele><time>2026-05-02T10:16:38.155Z</time></trkpt><trkpt lat="46.1396256" lon="13.5299017"><ele>475.0</ele><time>2026-05-02T10:16:40.15Z</time></trkpt><trkpt lat="46.1395396" lon="13.5299169"><ele>475.0</ele><time>2026-05-02T10:16:41.141Z</time></trkpt><trkpt lat="46.1394516" lon="13.5299228"><ele>475.0</ele><time>2026-05-02T10:16:42.138Z</time></trkpt><trkpt lat="46.1393588" lon="13.5299214"><ele>475.0</ele><time>2026-05-02T10:16:43.143Z</time></trkpt><trkpt lat="46.1392591" lon="13.5299124"><ele>475.0</ele><time>2026-05-02T10:16:44.143Z</time></trkpt><trkpt lat="46.1391666" lon="13.5299022"><ele>475.0</ele><time>2026-05-02T10:16:45.146Z</time></trkpt><trkpt lat="46.1390799" lon="13.5299018"><ele>475.0</ele><time>2026-05-02T10:16:46.143Z</time></trkpt><trkpt lat="46.138997" lon="13.5299204"><ele>475.0</ele><time>2026-05-02T10:16:47.142Z</time></trkpt><trkpt lat="46.1389089" lon="13.5299523"><ele>475.0</ele><time>2026-05-02T10:16:48.15Z</time></trkpt><trkpt lat="46.1388126" lon="13.5299834"><ele>475.0</ele><time>2026-05-02T10:16:49.141Z</time></trkpt><trkpt lat="46.1387109" lon="13.5300278"><ele>476.4</ele><time>2026-05-02T10:16:50.143Z</time></trkpt><trkpt lat="46.1386127" lon="13.5300769"><ele>477.8</ele><time>2026-05-02T10:16:51.15Z</time></trkpt><trkpt lat="46.1385092" lon="13.5301183"><ele>479.20000000000005</ele><time>2026-05-02T10:16:52.147Z</time></trkpt><trkpt lat="46.1384057" lon="13.5301607"><ele>480.6</ele><time>2026-05-02T10:16:53.15Z</time></trkpt><trkpt lat="46.1383071" lon="13.5301965"><ele>482.0</ele><time>2026-05-02T10:16:54.142Z</time></trkpt><trkpt lat="46.1382052" lon="13.5302356"><ele>484.6</ele><time>2026-05-02T10:16:55.144Z</time></trkpt><trkpt lat="46.138105" lon="13.5302693"><ele>487.20000000000005</ele><time>2026-05-02T10:16:56.146Z</time></trkpt><trkpt lat="46.1380105" lon="13.5303047"><ele>489.8</ele><time>2026-05-02T10:16:57.152Z</time></trkpt><trkpt lat="46.1379239" lon="13.5303373"><ele>492.4</ele><time>2026-05-02T10:16:58.143Z</time></trkpt><trkpt lat="46.1378372" lon="13.5303773"><ele>495.0</ele><time>2026-05-02T10:16:59.148Z</time></trkpt><trkpt lat="46.1377535" lon="13.5304033"><ele>495.0</ele><time>2026-05-02T10:17:00.141Z</time></trkpt><trkpt lat="46.137674" lon="13.5304059"><ele>495.0</ele><time>2026-05-02T10:17:01.15Z</time></trkpt><trkpt lat="46.1375936" lon="13.5303835"><ele>495.0</ele><time>2026-05-02T10:17:02.146Z</time></trkpt><trkpt lat="46.1375082" lon="13.5303368"><ele>495.0</ele><time>2026-05-02T10:17:03.142Z</time></trkpt><trkpt lat="46.137415" lon="13.530284"><ele>495.0</ele><time>2026-05-02T10:17:04.144Z</time></trkpt><trkpt lat="46.1373183" lon="13.5302303"><ele>495.0</ele><time>2026-05-02T10:17:05.153Z</time></trkpt><trkpt lat="46.1372275" lon="13.5301725"><ele>495.0</ele><time>2026-05-02T10:17:06.143Z</time></trkpt><trkpt lat="46.1371275" lon="13.5301265"><ele>495.0</ele><time>2026-05-02T10:17:07.145Z</time></trkpt><trkpt lat="46.1370303" lon="13.5300891"><ele>495.0</ele><time>2026-05-02T10:17:08.15Z</time></trkpt><trkpt lat="46.1369414" lon="13.5300729"><ele>495.0</ele><time>2026-05-02T10:17:09.146Z</time></trkpt><trkpt lat="46.1368559" lon="13.5300502"><ele>495.0</ele><time>2026-05-02T10:17:10.155Z</time></trkpt><trkpt lat="46.1367706" lon="13.5300256"><ele>495.0</ele><time>2026-05-02T10:17:11.138Z</time></trkpt><trkpt lat="46.1366937" lon="13.5299901"><ele>495.0</ele><time>2026-05-02T10:17:12.152Z</time></trkpt><trkpt lat="46.1366175" lon="13.529954"><ele>495.0</ele><time>2026-05-02T10:17:13.143Z</time></trkpt><trkpt lat="46.1365486" lon="13.5299088"><ele>495.0</ele><time>2026-05-02T10:17:14.154Z</time></trkpt><trkpt lat="46.1364765" lon="13.5298532"><ele>495.0</ele><time>2026-05-02T10:17:15.141Z</time></trkpt><trkpt lat="46.1364046" lon="13.5297871"><ele>495.0</ele><time>2026-05-02T10:17:16.167Z</time></trkpt><trkpt lat="46.1363351" lon="13.5297064"><ele>495.0</ele><time>2026-05-02T10:17:17.144Z</time></trkpt><trkpt lat="46.1362757" lon="13.5296181"><ele>495.0</ele><time>2026-05-02T10:17:18.143Z</time></trkpt><trkpt lat="46.1362205" lon="13.5295287"><ele>495.0</ele><time>2026-05-02T10:17:19.148Z</time></trkpt><trkpt lat="46.136163" lon="13.5294357"><ele>495.0</ele><time>2026-05-02T10:17:20.138Z</time></trkpt><trkpt lat="46.136118" lon="13.5293519"><ele>495.0</ele><time>2026-05-02T10:17:21.149Z</time></trkpt><trkpt lat="46.1360608" lon="13.5292048"><ele>488.8333333333333</ele><time>2026-05-02T10:17:23.151Z</time></trkpt><trkpt lat="46.1360495" lon="13.5291126"><ele>482.66666666666663</ele><time>2026-05-02T10:17:24.146Z</time></trkpt><trkpt lat="46.136047" lon="13.5290203"><ele>476.5</ele><time>2026-05-02T10:17:25.139Z</time></trkpt><trkpt lat="46.136023" lon="13.528855"><ele>470.3333333333333</ele><time>2026-05-02T10:17:27.157Z</time></trkpt><trkpt lat="46.135998" lon="13.5287565"><ele>464.16666666666663</ele><time>2026-05-02T10:17:28.158Z</time></trkpt><trkpt lat="46.1359728" lon="13.5286563"><ele>458.0</ele><time>2026-05-02T10:17:29.156Z</time></trkpt><trkpt lat="46.1359433" lon="13.5285498"><ele>457.99999999999994</ele><time>2026-05-02T10:17:30.151Z</time></trkpt><trkpt lat="46.1359078" lon="13.5284467"><ele>458.0</ele><time>2026-05-02T10:17:31.148Z</time></trkpt><trkpt lat="46.1358643" lon="13.5283381"><ele>458.0</ele><time>2026-05-02T10:17:32.147Z</time></trkpt><trkpt lat="46.1358142" lon="13.528232"><ele>458.0</ele><time>2026-05-02T10:17:33.151Z</time></trkpt><trkpt lat="46.1357587" lon="13.5281304"><ele>457.99999999999994</ele><time>2026-05-02T10:17:34.145Z</time></trkpt><trkpt lat="46.1356964" lon="13.5280354"><ele>458.0</ele><time>2026-05-02T10:17:35.144Z</time></trkpt><trkpt lat="46.1356315" lon="13.5279411"><ele>451.79999999999995</ele><time>2026-05-02T10:17:36.153Z</time></trkpt><trkpt lat="46.1355666" lon="13.5278523"><ele>445.59999999999997</ele><time>2026-05-02T10:17:37.139Z</time></trkpt><trkpt lat="46.1355058" lon="13.5277611"><ele>439.40000000000003</ele><time>2026-05-02T10:17:38.151Z</time></trkpt><trkpt lat="46.1354413" lon="13.5276692"><ele>433.20000000000005</ele><time>2026-05-02T10:17:39.157Z</time></trkpt><trkpt lat="46.1353774" lon="13.5275675"><ele>427.0</ele><time>2026-05-02T10:17:40.156Z</time></trkpt><trkpt lat="46.1353059" lon="13.5274672"><ele>427.00000000000006</ele><time>2026-05-02T10:17:41.151Z</time></trkpt><trkpt lat="46.1352443" lon="13.5273762"><ele>427.0</ele><time>2026-05-02T10:17:42.149Z</time></trkpt><trkpt lat="46.1351806" lon="13.5272882"><ele>427.0</ele><time>2026-05-02T10:17:43.143Z</time></trkpt><trkpt lat="46.1351189" lon="13.5272076"><ele>427.0</ele><time>2026-05-02T10:17:44.136Z</time></trkpt><trkpt lat="46.1350643" lon="13.5271329"><ele>427.00000000000006</ele><time>2026-05-02T10:17:45.142Z</time></trkpt><trkpt lat="46.1350117" lon="13.5270566"><ele>427.0</ele><time>2026-05-02T10:17:46.142Z</time></trkpt><trkpt lat="46.1349645" lon="13.5269726"><ele>428.00000000000006</ele><time>2026-05-02T10:17:47.144Z</time></trkpt><trkpt lat="46.1349177" lon="13.5268791"><ele>429.0</ele><time>2026-05-02T10:17:48.148Z</time></trkpt><trkpt lat="46.1348669" lon="13.5267956"><ele>430.0</ele><time>2026-05-02T10:17:49.148Z</time></trkpt><trkpt lat="46.1348039" lon="13.5267303"><ele>431.0</ele><time>2026-05-02T10:17:50.154Z</time></trkpt><trkpt lat="46.1347357" lon="13.5266883"><ele>432.00000000000006</ele><time>2026-05-02T10:17:51.147Z</time></trkpt><trkpt lat="46.1346105" lon="13.5267549"><ele>433.0</ele><time>2026-05-02T10:17:53.143Z</time></trkpt><trkpt lat="46.1345454" lon="13.5268021"><ele>433.00000000000006</ele><time>2026-05-02T10:17:54.145Z</time></trkpt><trkpt lat="46.1344731" lon="13.5268533"><ele>433.0</ele><time>2026-05-02T10:17:55.157Z</time></trkpt><trkpt lat="46.1343941" lon="13.5269054"><ele>433.0</ele><time>2026-05-02T10:17:56.149Z</time></trkpt><trkpt lat="46.1343159" lon="13.5269461"><ele>433.0</ele><time>2026-05-02T10:17:57.148Z</time></trkpt><trkpt lat="46.1342402" lon="13.5269882"><ele>433.00000000000006</ele><time>2026-05-02T10:17:58.151Z</time></trkpt><trkpt lat="46.1341588" lon="13.5270309"><ele>433.0</ele><time>2026-05-02T10:17:59.148Z</time></trkpt><trkpt lat="46.1340897" lon="13.5270717"><ele>431.83333333333337</ele><time>2026-05-02T10:18:00.143Z</time></trkpt><trkpt lat="46.1339867" lon="13.5271135"><ele>430.6666666666667</ele><time>2026-05-02T10:18:02.153Z</time></trkpt><trkpt lat="46.1338926" lon="13.5270237"><ele>429.5</ele><time>2026-05-02T10:18:04.147Z</time></trkpt><trkpt lat="46.1338358" lon="13.5269643"><ele>428.33333333333337</ele><time>2026-05-02T10:18:05.159Z</time></trkpt><trkpt lat="46.1337857" lon="13.5268907"><ele>427.1666666666667</ele><time>2026-05-02T10:18:06.155Z</time></trkpt><trkpt lat="46.1337325" lon="13.5267898"><ele>426.0</ele><time>2026-05-02T10:18:07.166Z</time></trkpt><trkpt lat="46.133675" lon="13.5266736"><ele>426.0</ele><time>2026-05-02T10:18:08.142Z</time></trkpt><trkpt lat="46.133613" lon="13.5265537"><ele>426.0</ele><time>2026-05-02T10:18:09.148Z</time></trkpt><trkpt lat="46.1335522" lon="13.5264329"><ele>426.0</ele><time>2026-05-02T10:18:10.148Z</time></trkpt><trkpt lat="46.1334916" lon="13.5263174"><ele>426.0</ele><time>2026-05-02T10:18:11.154Z</time></trkpt><trkpt lat="46.1334338" lon="13.5261924"><ele>426.0</ele><time>2026-05-02T10:18:12.151Z</time></trkpt><trkpt lat="46.1333744" lon="13.526066"><ele>425.6</ele><time>2026-05-02T10:18:13.146Z</time></trkpt><trkpt lat="46.133307" lon="13.5259464"><ele>425.20000000000005</ele><time>2026-05-02T10:18:14.155Z</time></trkpt><trkpt lat="46.1332362" lon="13.525831"><ele>424.79999999999995</ele><time>2026-05-02T10:18:15.147Z</time></trkpt><trkpt lat="46.1331629" lon="13.5257117"><ele>424.4</ele><time>2026-05-02T10:18:16.15Z</time></trkpt><trkpt lat="46.1330975" lon="13.5255994"><ele>424.0</ele><time>2026-05-02T10:18:17.147Z</time></trkpt><trkpt lat="46.1330271" lon="13.5254931"><ele>420.79999999999995</ele><time>2026-05-02T10:18:18.149Z</time></trkpt><trkpt lat="46.1329581" lon="13.5253892"><ele>417.59999999999997</ele><time>2026-05-02T10:18:19.15Z</time></trkpt><trkpt lat="46.1328886" lon="13.5252898"><ele>414.4</ele><time>2026-05-02T10:18:20.148Z</time></trkpt><trkpt lat="46.1328296" lon="13.5252021"><ele>411.2</ele><time>2026-05-02T10:18:21.148Z</time></trkpt><trkpt lat="46.1327828" lon="13.5251227"><ele>408.0</ele><time>2026-05-02T10:18:22.158Z</time></trkpt><trkpt lat="46.1327452" lon="13.5249475"><ele>408.0</ele><time>2026-05-02T10:18:24.151Z</time></trkpt><trkpt lat="46.1327309" lon="13.5248305"><ele>408.0</ele><time>2026-05-02T10:18:25.139Z</time></trkpt><trkpt lat="46.1327144" lon="13.5247111"><ele>408.0</ele><time>2026-05-02T10:18:26.158Z</time></trkpt><trkpt lat="46.1326977" lon="13.5245846"><ele>408.0</ele><time>2026-05-02T10:18:27.147Z</time></trkpt><trkpt lat="46.1326844" lon="13.5244654"><ele>408.0</ele><time>2026-05-02T10:18:28.153Z</time></trkpt><trkpt lat="46.1326727" lon="13.5243563"><ele>408.0</ele><time>2026-05-02T10:18:29.163Z</time></trkpt><trkpt lat="46.1326635" lon="13.5242551"><ele>409.2</ele><time>2026-05-02T10:18:30.157Z</time></trkpt><trkpt lat="46.1326559" lon="13.5241518"><ele>410.4</ele><time>2026-05-02T10:18:31.157Z</time></trkpt><trkpt lat="46.1326443" lon="13.5240506"><ele>411.59999999999997</ele><time>2026-05-02T10:18:32.157Z</time></trkpt><trkpt lat="46.1326856" lon="13.5238864"><ele>412.79999999999995</ele><time>2026-05-02T10:18:34.154Z</time></trkpt><trkpt lat="46.1327674" lon="13.5237729"><ele>414.0</ele><time>2026-05-02T10:18:36.153Z</time></trkpt><trkpt lat="46.1328017" lon="13.5236647"><ele>414.0</ele><time>2026-05-02T10:18:38.164Z</time></trkpt><trkpt lat="46.1327337" lon="13.5235685"><ele>414.0</ele><time>2026-05-02T10:18:41.144Z</time></trkpt><trkpt lat="46.1326592" lon="13.5234702"><ele>414.0</ele><time>2026-05-02T10:18:43.169Z</time></trkpt><trkpt lat="46.1326093" lon="13.5234113"><ele>414.0</ele><time>2026-05-02T10:18:44.162Z</time></trkpt><trkpt lat="46.1325593" lon="13.5233364"><ele>414.0</ele><time>2026-05-02T10:18:45.155Z</time></trkpt><trkpt lat="46.132519" lon="13.5232524"><ele>414.0</ele><time>2026-05-02T10:18:46.156Z</time></trkpt><trkpt lat="46.1324809" lon="13.5231552"><ele>414.0</ele><time>2026-05-02T10:18:47.161Z</time></trkpt><trkpt lat="46.1324409" lon="13.5230494"><ele>414.0</ele><time>2026-05-02T10:18:48.152Z</time></trkpt><trkpt lat="46.1323977" lon="13.5229312"><ele>414.0</ele><time>2026-05-02T10:18:49.161Z</time></trkpt><trkpt lat="46.1323477" lon="13.5228166"><ele>414.0</ele><time>2026-05-02T10:18:50.161Z</time></trkpt><trkpt lat="46.1322906" lon="13.5227171"><ele>414.0</ele><time>2026-05-02T10:18:51.157Z</time></trkpt><trkpt lat="46.1322322" lon="13.5226271"><ele>414.0</ele><time>2026-05-02T10:18:52.163Z</time></trkpt><trkpt lat="46.132177" lon="13.5225253"><ele>410.2</ele><time>2026-05-02T10:18:53.147Z</time></trkpt><trkpt lat="46.1321223" lon="13.5224252"><ele>406.4</ele><time>2026-05-02T10:18:54.164Z</time></trkpt><trkpt lat="46.132064" lon="13.5223262"><ele>402.6</ele><time>2026-05-02T10:18:55.174Z</time></trkpt><trkpt lat="46.1320118" lon="13.5222216"><ele>398.8</ele><time>2026-05-02T10:18:56.169Z</time></trkpt><trkpt lat="46.1319577" lon="13.5221148"><ele>395.0</ele><time>2026-05-02T10:18:57.172Z</time></trkpt><trkpt lat="46.1319045" lon="13.5220035"><ele>393.4</ele><time>2026-05-02T10:18:58.17Z</time></trkpt><trkpt lat="46.1318652" lon="13.521893"><ele>391.8</ele><time>2026-05-02T10:18:59.177Z</time></trkpt><trkpt lat="46.1318427" lon="13.52179"><ele>390.20000000000005</ele><time>2026-05-02T10:19:00.178Z</time></trkpt><trkpt lat="46.1318215" lon="13.5216945"><ele>388.6</ele><time>2026-05-02T10:19:01.173Z</time></trkpt><trkpt lat="46.1317672" lon="13.5215568"><ele>387.0</ele><time>2026-05-02T10:19:03.162Z</time></trkpt><trkpt lat="46.1316583" lon="13.521472"><ele>387.0</ele><time>2026-05-02T10:19:05.156Z</time></trkpt><trkpt lat="46.1315729" lon="13.5214303"><ele>387.0</ele><time>2026-05-02T10:19:06.165Z</time></trkpt><trkpt lat="46.1314858" lon="13.521385"><ele>387.0</ele><time>2026-05-02T10:19:07.163Z</time></trkpt><trkpt lat="46.1313907" lon="13.5213589"><ele>387.0</ele><time>2026-05-02T10:19:08.17Z</time></trkpt><trkpt lat="46.131291" lon="13.521347"><ele>387.0</ele><time>2026-05-02T10:19:09.166Z</time></trkpt><trkpt lat="46.1311943" lon="13.5213442"><ele>386.6</ele><time>2026-05-02T10:19:10.172Z</time></trkpt><trkpt lat="46.1310993" lon="13.5213606"><ele>386.20000000000005</ele><time>2026-05-02T10:19:11.172Z</time></trkpt><trkpt lat="46.1310017" lon="13.5213785"><ele>385.8</ele><time>2026-05-02T10:19:12.18Z</time></trkpt><trkpt lat="46.130906" lon="13.521395"><ele>385.4</ele><time>2026-05-02T10:19:13.172Z</time></trkpt><trkpt lat="46.1308159" lon="13.5214126"><ele>385.0</ele><time>2026-05-02T10:19:14.173Z</time></trkpt><trkpt lat="46.1307219" lon="13.5214253"><ele>382.8</ele><time>2026-05-02T10:19:15.174Z</time></trkpt><trkpt lat="46.1306224" lon="13.5214088"><ele>380.6</ele><time>2026-05-02T10:19:16.173Z</time></trkpt><trkpt lat="46.1305148" lon="13.5213684"><ele>378.4</ele><time>2026-05-02T10:19:17.162Z</time></trkpt><trkpt lat="46.1304097" lon="13.5213181"><ele>376.2</ele><time>2026-05-02T10:19:18.169Z</time></trkpt><trkpt lat="46.1303036" lon="13.5212644"><ele>374.0</ele><time>2026-05-02T10:19:19.169Z</time></trkpt><trkpt lat="46.1302055" lon="13.521215"><ele>374.0</ele><time>2026-05-02T10:19:20.177Z</time></trkpt><trkpt lat="46.1301168" lon="13.5211678"><ele>374.0</ele><time>2026-05-02T10:19:21.164Z</time></trkpt><trkpt lat="46.1300341" lon="13.5211099"><ele>374.0</ele><time>2026-05-02T10:19:22.183Z</time></trkpt><trkpt lat="46.1299554" lon="13.5210472"><ele>374.0</ele><time>2026-05-02T10:19:23.161Z</time></trkpt><trkpt lat="46.1298852" lon="13.5209835"><ele>374.0</ele><time>2026-05-02T10:19:24.17Z</time></trkpt><trkpt lat="46.1298312" lon="13.5209197"><ele>374.0</ele><time>2026-05-02T10:19:25.174Z</time></trkpt><trkpt lat="46.1298752" lon="13.5207678"><ele>374.0</ele><time>2026-05-02T10:19:27.168Z</time></trkpt><trkpt lat="46.1299418" lon="13.5206875"><ele>374.0</ele><time>2026-05-02T10:19:28.171Z</time></trkpt><trkpt lat="46.1300034" lon="13.5206291"><ele>374.0</ele><time>2026-05-02T10:19:29.154Z</time></trkpt><trkpt lat="46.1300797" lon="13.5205931"><ele>374.0</ele><time>2026-05-02T10:19:31.157Z</time></trkpt><trkpt lat="46.1301564" lon="13.5205525"><ele>374.0</ele><time>2026-05-02T10:19:34.165Z</time></trkpt><trkpt lat="46.1302198" lon="13.5205297"><ele>374.0</ele><time>2026-05-02T10:19:36.165Z</time></trkpt><trkpt lat="46.130297" lon="13.5205461"><ele>374.0</ele><time>2026-05-02T10:19:38.185Z</time></trkpt><trkpt lat="46.130384" lon="13.5205948"><ele>374.0</ele><time>2026-05-02T10:19:40.173Z</time></trkpt><trkpt lat="46.1304685" lon="13.5206591"><ele>374.0</ele><time>2026-05-02T10:19:42.17Z</time></trkpt><trkpt lat="46.1304004" lon="13.5205955"><ele>374.0</ele><time>2026-05-02T10:19:52.166Z</time></trkpt><trkpt lat="46.1303387" lon="13.5205487"><ele>374.0</ele><time>2026-05-02T10:19:54.164Z</time></trkpt><trkpt lat="46.1302459" lon="13.5205308"><ele>374.0</ele><time>2026-05-02T11:16:19.169Z</time></trkpt><trkpt lat="46.1301704" lon="13.5205436"><ele>374.0</ele><time>2026-05-02T11:16:20.173Z</time></trkpt><trkpt lat="46.1300898" lon="13.5205836"><ele>374.0</ele><time>2026-05-02T11:16:21.166Z</time></trkpt><trkpt lat="46.1300121" lon="13.5206298"><ele>374.0</ele><time>2026-05-02T11:16:22.185Z</time></trkpt><trkpt lat="46.1299568" lon="13.5206877"><ele>374.0</ele><time>2026-05-02T11:16:23.186Z</time></trkpt><trkpt lat="46.1299044" lon="13.5207402"><ele>374.0</ele><time>2026-05-02T11:16:24.172Z</time></trkpt><trkpt lat="46.129827" lon="13.5208094"><ele>374.0</ele><time>2026-05-02T11:16:26.185Z</time></trkpt><trkpt lat="46.1297512" lon="13.5207934"><ele>372.5</ele><time>2026-05-02T11:16:29.176Z</time></trkpt><trkpt lat="46.1296833" lon="13.5207075"><ele>371.0</ele><time>2026-05-02T11:17:16.172Z</time></trkpt><trkpt lat="46.1296259" lon="13.5206556"><ele>369.5</ele><time>2026-05-02T11:17:17.186Z</time></trkpt><trkpt lat="46.129566" lon="13.5205971"><ele>368.0</ele><time>2026-05-02T11:17:18.174Z</time></trkpt><trkpt lat="46.1295001" lon="13.5205328"><ele>366.5</ele><time>2026-05-02T11:17:19.173Z</time></trkpt><trkpt lat="46.129431" lon="13.5204686"><ele>365.0</ele><time>2026-05-02T11:17:20.178Z</time></trkpt><trkpt lat="46.1293623" lon="13.5204053"><ele>364.8</ele><time>2026-05-02T11:17:21.174Z</time></trkpt><trkpt lat="46.1293056" lon="13.5203483"><ele>364.6</ele><time>2026-05-02T11:17:22.173Z</time></trkpt><trkpt lat="46.1292563" lon="13.5202902"><ele>364.4</ele><time>2026-05-02T11:17:23.17Z</time></trkpt><trkpt lat="46.129178" lon="13.5201827"><ele>364.2</ele><time>2026-05-02T11:17:25.184Z</time></trkpt><trkpt lat="46.1291183" lon="13.5200699"><ele>364.0</ele><time>2026-05-02T11:17:27.184Z</time></trkpt><trkpt lat="46.1290522" lon="13.5199411"><ele>364.0</ele><time>2026-05-02T11:17:29.174Z</time></trkpt><trkpt lat="46.1289771" lon="13.519826"><ele>364.0</ele><time>2026-05-02T11:17:31.179Z</time></trkpt><trkpt lat="46.1288774" lon="13.5197318"><ele>364.0</ele><time>2026-05-02T11:17:33.182Z</time></trkpt><trkpt lat="46.1288083" lon="13.5196964"><ele>364.0</ele><time>2026-05-02T11:17:34.168Z</time></trkpt><trkpt lat="46.1287298" lon="13.5196682"><ele>364.0</ele><time>2026-05-02T11:17:35.182Z</time></trkpt><trkpt lat="46.1286406" lon="13.5196418"><ele>364.0</ele><time>2026-05-02T11:17:36.169Z</time></trkpt><trkpt lat="46.1285523" lon="13.5196309"><ele>364.0</ele><time>2026-05-02T11:17:37.18Z</time></trkpt><trkpt lat="46.1284641" lon="13.5196288"><ele>364.0</ele><time>2026-05-02T11:17:38.169Z</time></trkpt><trkpt lat="46.128375" lon="13.5196255"><ele>364.0</ele><time>2026-05-02T11:17:39.169Z</time></trkpt><trkpt lat="46.1282845" lon="13.5196299"><ele>364.0</ele><time>2026-05-02T11:17:40.173Z</time></trkpt><trkpt lat="46.1281972" lon="13.519637"><ele>364.0</ele><time>2026-05-02T11:17:41.169Z</time></trkpt><trkpt lat="46.1281128" lon="13.5196316"><ele>362.8333333333333</ele><time>2026-05-02T11:17:42.17Z</time></trkpt><trkpt lat="46.1280283" lon="13.5196209"><ele>361.66666666666663</ele><time>2026-05-02T11:17:43.154Z</time></trkpt><trkpt lat="46.1279463" lon="13.5196059"><ele>360.5</ele><time>2026-05-02T11:17:44.161Z</time></trkpt><trkpt lat="46.1278635" lon="13.5195806"><ele>359.3333333333333</ele><time>2026-05-02T11:17:45.159Z</time></trkpt><trkpt lat="46.1277785" lon="13.519527"><ele>358.1666666666667</ele><time>2026-05-02T11:17:46.164Z</time></trkpt><trkpt lat="46.1276925" lon="13.5194528"><ele>357.0</ele><time>2026-05-02T11:17:47.15Z</time></trkpt><trkpt lat="46.1276024" lon="13.5193727"><ele>357.0</ele><time>2026-05-02T11:17:48.144Z</time></trkpt><trkpt lat="46.127524" lon="13.5192858"><ele>357.0</ele><time>2026-05-02T11:17:49.154Z</time></trkpt><trkpt lat="46.1274482" lon="13.5191983"><ele>357.0</ele><time>2026-05-02T11:17:50.14Z</time></trkpt><trkpt lat="46.127368" lon="13.5191191"><ele>357.0</ele><time>2026-05-02T11:17:51.16Z</time></trkpt><trkpt lat="46.1272876" lon="13.5190412"><ele>357.0</ele><time>2026-05-02T11:17:52.161Z</time></trkpt><trkpt lat="46.1272085" lon="13.5189525"><ele>356.40000000000003</ele><time>2026-05-02T11:17:53.16Z</time></trkpt><trkpt lat="46.1271289" lon="13.5188576"><ele>355.8</ele><time>2026-05-02T11:17:54.144Z</time></trkpt><trkpt lat="46.1270526" lon="13.5187493"><ele>355.2</ele><time>2026-05-02T11:17:55.162Z</time></trkpt><trkpt lat="46.1269789" lon="13.5186219"><ele>354.6</ele><time>2026-05-02T11:17:56.146Z</time></trkpt><trkpt lat="46.1269052" lon="13.5185022"><ele>354.0</ele><time>2026-05-02T11:17:57.148Z</time></trkpt><trkpt lat="46.1268395" lon="13.518394"><ele>354.0</ele><time>2026-05-02T11:17:58.139Z</time></trkpt><trkpt lat="46.126768" lon="13.5183003"><ele>354.0</ele><time>2026-05-02T11:17:59.149Z</time></trkpt><trkpt lat="46.1266955" lon="13.5182402"><ele>354.0</ele><time>2026-05-02T11:18:00.157Z</time></trkpt><trkpt lat="46.1266106" lon="13.5181983"><ele>354.0</ele><time>2026-05-02T11:18:01.172Z</time></trkpt><trkpt lat="46.1265155" lon="13.5181657"><ele>354.0</ele><time>2026-05-02T11:18:02.148Z</time></trkpt><trkpt lat="46.1264173" lon="13.5181326"><ele>352.2</ele><time>2026-05-02T11:18:03.16Z</time></trkpt><trkpt lat="46.1263192" lon="13.5181026"><ele>350.4</ele><time>2026-05-02T11:18:04.146Z</time></trkpt><trkpt lat="46.1262166" lon="13.5180872"><ele>348.6</ele><time>2026-05-02T11:18:05.168Z</time></trkpt><trkpt lat="46.1261232" lon="13.5181061"><ele>346.8</ele><time>2026-05-02T11:18:06.14Z</time></trkpt><trkpt lat="46.1260176" lon="13.5181852"><ele>345.0</ele><time>2026-05-02T11:18:07.156Z</time></trkpt><trkpt lat="46.1259189" lon="13.5182891"><ele>345.0</ele><time>2026-05-02T11:18:08.141Z</time></trkpt><trkpt lat="46.1258118" lon="13.5184002"><ele>345.0</ele><time>2026-05-02T11:18:09.162Z</time></trkpt><trkpt lat="46.1257085" lon="13.5185135"><ele>345.0</ele><time>2026-05-02T11:18:10.15Z</time></trkpt><trkpt lat="46.1255952" lon="13.5186001"><ele>345.0</ele><time>2026-05-02T11:18:11.155Z</time></trkpt><trkpt lat="46.1254729" lon="13.5186789"><ele>337.0</ele><time>2026-05-02T11:18:12.16Z</time></trkpt><trkpt lat="46.1253328" lon="13.5187458"><ele>329.0</ele><time>2026-05-02T11:18:13.155Z</time></trkpt><trkpt lat="46.1251851" lon="13.5187916"><ele>321.0</ele><time>2026-05-02T11:18:14.152Z</time></trkpt><trkpt lat="46.1250291" lon="13.518827"><ele>320.0</ele><time>2026-05-02T11:18:15.15Z</time></trkpt><trkpt lat="46.1248774" lon="13.518856"><ele>319.0</ele><time>2026-05-02T11:18:16.153Z</time></trkpt><trkpt lat="46.1247323" lon="13.5188867"><ele>318.0</ele><time>2026-05-02T11:18:17.146Z</time></trkpt><trkpt lat="46.1245877" lon="13.5189016"><ele>317.0</ele><time>2026-05-02T11:18:18.152Z</time></trkpt><trkpt lat="46.124438" lon="13.5189304"><ele>317.0</ele><time>2026-05-02T11:18:19.166Z</time></trkpt><trkpt lat="46.1242978" lon="13.5189664"><ele>317.0</ele><time>2026-05-02T11:18:20.15Z</time></trkpt><trkpt lat="46.1241532" lon="13.5190043"><ele>317.0</ele><time>2026-05-02T11:18:21.138Z</time></trkpt><trkpt lat="46.1240058" lon="13.5190385"><ele>317.0</ele><time>2026-05-02T11:18:22.136Z</time></trkpt><trkpt lat="46.1238529" lon="13.5190556"><ele>314.33333333333337</ele><time>2026-05-02T11:18:23.134Z</time></trkpt><trkpt lat="46.1236932" lon="13.5190477"><ele>311.6666666666667</ele><time>2026-05-02T11:18:24.138Z</time></trkpt><trkpt lat="46.1235451" lon="13.5190232"><ele>309.0</ele><time>2026-05-02T11:18:25.141Z</time></trkpt><trkpt lat="46.1233989" lon="13.518999"><ele>309.0</ele><time>2026-05-02T11:18:26.146Z</time></trkpt><trkpt lat="46.1232591" lon="13.5189415"><ele>309.0</ele><time>2026-05-02T11:18:27.174Z</time></trkpt><trkpt lat="46.1231265" lon="13.5188699"><ele>309.0</ele><time>2026-05-02T11:18:28.15Z</time></trkpt><trkpt lat="46.1229989" lon="13.5187789"><ele>309.0</ele><time>2026-05-02T11:18:29.148Z</time></trkpt><trkpt lat="46.1228726" lon="13.5186606"><ele>308.0</ele><time>2026-05-02T11:18:30.156Z</time></trkpt><trkpt lat="46.1227191" lon="13.5185435"><ele>307.0</ele><time>2026-05-02T11:18:31.149Z</time></trkpt><trkpt lat="46.1225624" lon="13.5184464"><ele>306.0</ele><time>2026-05-02T11:18:32.153Z</time></trkpt><trkpt lat="46.1224069" lon="13.518345"><ele>299.3333333333333</ele><time>2026-05-02T11:18:33.145Z</time></trkpt><trkpt lat="46.1222509" lon="13.5182397"><ele>292.66666666666663</ele><time>2026-05-02T11:18:34.139Z</time></trkpt><trkpt lat="46.1221072" lon="13.518103"><ele>286.0</ele><time>2026-05-02T11:18:35.138Z</time></trkpt><trkpt lat="46.1219722" lon="13.5179329"><ele>289.0</ele><time>2026-05-02T11:18:36.128Z</time></trkpt><trkpt lat="46.1218509" lon="13.5177571"><ele>292.0</ele><time>2026-05-02T11:18:37.155Z</time></trkpt><trkpt lat="46.1217403" lon="13.5175763"><ele>295.0</ele><time>2026-05-02T11:18:38.149Z</time></trkpt><trkpt lat="46.1216408" lon="13.5173782"><ele>279.0</ele><time>2026-05-02T11:18:39.149Z</time></trkpt><trkpt lat="46.1215506" lon="13.5171538"><ele>263.0</ele><time>2026-05-02T11:18:40.147Z</time></trkpt><trkpt lat="46.1214601" lon="13.5169429"><ele>247.0</ele><time>2026-05-02T11:18:41.138Z</time></trkpt><trkpt lat="46.1213926" lon="13.5167446"><ele>247.0</ele><time>2026-05-02T11:18:42.15Z</time></trkpt><trkpt lat="46.1213396" lon="13.516561"><ele>247.0</ele><time>2026-05-02T11:18:43.144Z</time></trkpt><trkpt lat="46.1213111" lon="13.5163768"><ele>247.0</ele><time>2026-05-02T11:18:44.158Z</time></trkpt><trkpt lat="46.121322" lon="13.5161859"><ele>247.0</ele><time>2026-05-02T11:18:45.154Z</time></trkpt><trkpt lat="46.1213505" lon="13.5159869"><ele>247.0</ele><time>2026-05-02T11:18:46.142Z</time></trkpt><trkpt lat="46.1213966" lon="13.5157566"><ele>247.0</ele><time>2026-05-02T11:18:47.155Z</time></trkpt><trkpt lat="46.121429" lon="13.5155144"><ele>247.0</ele><time>2026-05-02T11:18:48.139Z</time></trkpt><trkpt lat="46.1214564" lon="13.5152614"><ele>246.0</ele><time>2026-05-02T11:18:49.152Z</time></trkpt><trkpt lat="46.1214603" lon="13.5150032"><ele>245.0</ele><time>2026-05-02T11:18:50.134Z</time></trkpt><trkpt lat="46.1214481" lon="13.5147546"><ele>244.0</ele><time>2026-05-02T11:18:51.159Z</time></trkpt><trkpt lat="46.1214331" lon="13.5145095"><ele>244.0</ele><time>2026-05-02T11:18:52.16Z</time></trkpt><trkpt lat="46.1214183" lon="13.5143189"><ele>244.0</ele><time>2026-05-02T11:18:53.163Z</time></trkpt><trkpt lat="46.1213901" lon="13.514155"><ele>244.0</ele><time>2026-05-02T11:18:54.137Z</time></trkpt><trkpt lat="46.1213547" lon="13.514017"><ele>244.0</ele><time>2026-05-02T11:18:55.136Z</time></trkpt><trkpt lat="46.1212903" lon="13.5138909"><ele>244.0</ele><time>2026-05-02T11:18:56.14Z</time></trkpt><trkpt lat="46.1212165" lon="13.5137903"><ele>243.99999999999997</ele><time>2026-05-02T11:18:57.148Z</time></trkpt><trkpt lat="46.1211335" lon="13.5137016"><ele>243.99999999999997</ele><time>2026-05-02T11:18:58.156Z</time></trkpt><trkpt lat="46.1210505" lon="13.5136047"><ele>244.0</ele><time>2026-05-02T11:18:59.141Z</time></trkpt><trkpt lat="46.1209771" lon="13.513461"><ele>244.0</ele><time>2026-05-02T11:19:00.137Z</time></trkpt><trkpt lat="46.1209146" lon="13.5132803"><ele>247.25</ele><time>2026-05-02T11:19:01.145Z</time></trkpt><trkpt lat="46.1208602" lon="13.5130991"><ele>250.5</ele><time>2026-05-02T11:19:02.153Z</time></trkpt><trkpt lat="46.1208124" lon="13.5129131"><ele>253.75</ele><time>2026-05-02T11:19:03.141Z</time></trkpt><trkpt lat="46.1207715" lon="13.51269"><ele>257.0</ele><time>2026-05-02T11:19:04.162Z</time></trkpt><trkpt lat="46.1207407" lon="13.512426"><ele>242.66666666666669</ele><time>2026-05-02T11:19:05.159Z</time></trkpt><trkpt lat="46.1206988" lon="13.5121864"><ele>228.33333333333331</ele><time>2026-05-02T11:19:06.142Z</time></trkpt><trkpt lat="46.1206502" lon="13.5119442"><ele>214.0</ele><time>2026-05-02T11:19:07.142Z</time></trkpt><trkpt lat="46.1205956" lon="13.5116888"><ele>214.0</ele><time>2026-05-02T11:19:08.145Z</time></trkpt><trkpt lat="46.1205364" lon="13.5114593"><ele>214.0</ele><time>2026-05-02T11:19:09.14Z</time></trkpt><trkpt lat="46.1204808" lon="13.5112205"><ele>214.0</ele><time>2026-05-02T11:19:10.137Z</time></trkpt><trkpt lat="46.1204165" lon="13.5110089"><ele>214.5</ele><time>2026-05-02T11:19:11.148Z</time></trkpt><trkpt lat="46.1203384" lon="13.51082"><ele>215.0</ele><time>2026-05-02T11:19:12.14Z</time></trkpt><trkpt lat="46.1202531" lon="13.5106572"><ele>215.5</ele><time>2026-05-02T11:19:13.149Z</time></trkpt><trkpt lat="46.1201616" lon="13.5104966"><ele>216.0</ele><time>2026-05-02T11:19:14.142Z</time></trkpt><trkpt lat="46.1200772" lon="13.5103534"><ele>216.8</ele><time>2026-05-02T11:19:15.138Z</time></trkpt><trkpt lat="46.1200096" lon="13.5102136"><ele>217.60000000000002</ele><time>2026-05-02T11:19:16.147Z</time></trkpt><trkpt lat="46.1199453" lon="13.5100787"><ele>218.4</ele><time>2026-05-02T11:19:17.144Z</time></trkpt><trkpt lat="46.1198914" lon="13.5099723"><ele>219.2</ele><time>2026-05-02T11:19:18.141Z</time></trkpt><trkpt lat="46.1198479" lon="13.5098867"><ele>220.0</ele><time>2026-05-02T11:19:19.14Z</time></trkpt><trkpt lat="46.1197876" lon="13.5098061"><ele>220.0</ele><time>2026-05-02T11:19:21.151Z</time></trkpt><trkpt lat="46.1197428" lon="13.5099768"><ele>220.0</ele><time>2026-05-02T11:19:23.136Z</time></trkpt><trkpt lat="46.1197751" lon="13.5100658"><ele>220.0</ele><time>2026-05-02T11:19:24.123Z</time></trkpt><trkpt lat="46.1198274" lon="13.5101763"><ele>220.0</ele><time>2026-05-02T11:19:25.141Z</time></trkpt><trkpt lat="46.1198706" lon="13.5102938"><ele>220.0</ele><time>2026-05-02T11:19:26.148Z</time></trkpt><trkpt lat="46.1198997" lon="13.5104367"><ele>219.0</ele><time>2026-05-02T11:19:27.144Z</time></trkpt><trkpt lat="46.1199404" lon="13.5106012"><ele>218.0</ele><time>2026-05-02T11:19:28.128Z</time></trkpt><trkpt lat="46.1199868" lon="13.5108009"><ele>217.0</ele><time>2026-05-02T11:19:29.137Z</time></trkpt><trkpt lat="46.1200212" lon="13.5109926"><ele>216.0</ele><time>2026-05-02T11:19:30.123Z</time></trkpt><trkpt lat="46.1200557" lon="13.5111869"><ele>215.5</ele><time>2026-05-02T11:19:31.148Z</time></trkpt><trkpt lat="46.1200773" lon="13.5113765"><ele>215.0</ele><time>2026-05-02T11:19:32.13Z</time></trkpt><trkpt lat="46.1200877" lon="13.5115816"><ele>214.5</ele><time>2026-05-02T11:19:33.152Z</time></trkpt><trkpt lat="46.1200657" lon="13.5117927"><ele>214.0</ele><time>2026-05-02T11:19:34.143Z</time></trkpt><trkpt lat="46.1200285" lon="13.5119829"><ele>213.75</ele><time>2026-05-02T11:19:35.138Z</time></trkpt><trkpt lat="46.1199738" lon="13.5121639"><ele>213.5</ele><time>2026-05-02T11:19:36.135Z</time></trkpt><trkpt lat="46.119912" lon="13.5123638"><ele>213.25</ele><time>2026-05-02T11:19:37.129Z</time></trkpt><trkpt lat="46.1198608" lon="13.5125534"><ele>213.0</ele><time>2026-05-02T11:19:38.138Z</time></trkpt><trkpt lat="46.1198283" lon="13.5127405"><ele>206.60000000000002</ele><time>2026-05-02T11:19:39.139Z</time></trkpt><trkpt lat="46.1197998" lon="13.5129049"><ele>200.20000000000002</ele><time>2026-05-02T11:19:40.127Z</time></trkpt><trkpt lat="46.1197711" lon="13.5130383"><ele>193.8</ele><time>2026-05-02T11:19:41.145Z</time></trkpt><trkpt lat="46.1197425" lon="13.5131227"><ele>187.4</ele><time>2026-05-02T11:19:42.141Z</time></trkpt><trkpt lat="46.1196495" lon="13.5130999"><ele>181.0</ele><time>2026-05-02T11:19:44.143Z</time></trkpt><trkpt lat="46.1196112" lon="13.5129709"><ele>181.0</ele><time>2026-05-02T11:19:45.138Z</time></trkpt><trkpt lat="46.1196057" lon="13.5127989"><ele>181.0</ele><time>2026-05-02T11:19:46.138Z</time></trkpt><trkpt lat="46.119604" lon="13.5125871"><ele>181.0</ele><time>2026-05-02T11:19:47.129Z</time></trkpt><trkpt lat="46.1196111" lon="13.5123217"><ele>181.0</ele><time>2026-05-02T11:19:48.133Z</time></trkpt><trkpt lat="46.1196106" lon="13.5120609"><ele>181.0</ele><time>2026-05-02T11:19:49.126Z</time></trkpt><trkpt lat="46.1195932" lon="13.511803"><ele>181.0</ele><time>2026-05-02T11:19:50.13Z</time></trkpt><trkpt lat="46.1195478" lon="13.5115632"><ele>181.0</ele><time>2026-05-02T11:19:51.127Z</time></trkpt><trkpt lat="46.1194833" lon="13.5113427"><ele>181.0</ele><time>2026-05-02T11:19:52.126Z</time></trkpt><trkpt lat="46.1194096" lon="13.5111342"><ele>181.0</ele><time>2026-05-02T11:19:53.125Z</time></trkpt><trkpt lat="46.1193319" lon="13.5109425"><ele>180.0</ele><time>2026-05-02T11:19:54.117Z</time></trkpt><trkpt lat="46.119234" lon="13.5108569"><ele>179.0</ele><time>2026-05-02T11:19:55.135Z</time></trkpt><trkpt lat="46.1191055" lon="13.5108525"><ele>178.0</ele><time>2026-05-02T11:19:56.132Z</time></trkpt><trkpt lat="46.1189422" lon="13.5109253"><ele>177.0</ele><time>2026-05-02T11:19:57.126Z</time></trkpt><trkpt lat="46.1187832" lon="13.5109724"><ele>177.0</ele><time>2026-05-02T11:19:58.133Z</time></trkpt><trkpt lat="46.1186271" lon="13.5110209"><ele>177.0</ele><time>2026-05-02T11:19:59.126Z</time></trkpt><trkpt lat="46.1184734" lon="13.5110743"><ele>177.0</ele><time>2026-05-02T11:20:00.125Z</time></trkpt><trkpt lat="46.1183279" lon="13.5111302"><ele>173.75</ele><time>2026-05-02T11:20:01.129Z</time></trkpt><trkpt lat="46.1181831" lon="13.5111866"><ele>170.5</ele><time>2026-05-02T11:20:02.145Z</time></trkpt><trkpt lat="46.1180389" lon="13.5112133"><ele>167.25</ele><time>2026-05-02T11:20:03.134Z</time></trkpt><trkpt lat="46.1179102" lon="13.5111988"><ele>164.0</ele><time>2026-05-02T11:20:04.142Z</time></trkpt><trkpt lat="46.1177891" lon="13.5111723"><ele>164.0</ele><time>2026-05-02T11:20:05.145Z</time></trkpt><trkpt lat="46.1176664" lon="13.5111408"><ele>164.0</ele><time>2026-05-02T11:20:06.141Z</time></trkpt><trkpt lat="46.1175691" lon="13.511121"><ele>164.0</ele><time>2026-05-02T11:20:07.152Z</time></trkpt><trkpt lat="46.1175056" lon="13.5110995"><ele>164.0</ele><time>2026-05-02T11:20:08.134Z</time></trkpt><trkpt lat="46.1174258" lon="13.5110439"><ele>164.0</ele><time>2026-05-02T11:20:10.156Z</time></trkpt><trkpt lat="46.1174128" lon="13.5108949"><ele>161.75</ele><time>2026-05-02T11:20:12.143Z</time></trkpt><trkpt lat="46.1173918" lon="13.5107398"><ele>159.5</ele><time>2026-05-02T11:20:13.129Z</time></trkpt><trkpt lat="46.1173588" lon="13.510548"><ele>157.25</ele><time>2026-05-02T11:20:14.14Z</time></trkpt><trkpt lat="46.1173072" lon="13.5103336"><ele>155.0</ele><time>2026-05-02T11:20:15.159Z</time></trkpt><trkpt lat="46.1172548" lon="13.5101147"><ele>155.0</ele><time>2026-05-02T11:20:16.154Z</time></trkpt><trkpt lat="46.1171918" lon="13.5098893"><ele>155.0</ele><time>2026-05-02T11:20:17.139Z</time></trkpt><trkpt lat="46.1171255" lon="13.5096683"><ele>155.0</ele><time>2026-05-02T11:20:18.149Z</time></trkpt><trkpt lat="46.1170587" lon="13.5094414"><ele>154.66666666666666</ele><time>2026-05-02T11:20:19.143Z</time></trkpt><trkpt lat="46.1169912" lon="13.5092143"><ele>154.33333333333334</ele><time>2026-05-02T11:20:20.148Z</time></trkpt><trkpt lat="46.1169194" lon="13.5089871"><ele>154.0</ele><time>2026-05-02T11:20:21.154Z</time></trkpt><trkpt lat="46.1168517" lon="13.5087476"><ele>153.66666666666669</ele><time>2026-05-02T11:20:22.162Z</time></trkpt><trkpt lat="46.1167928" lon="13.5085032"><ele>153.33333333333334</ele><time>2026-05-02T11:20:23.159Z</time></trkpt><trkpt lat="46.1167401" lon="13.5082533"><ele>153.0</ele><time>2026-05-02T11:20:24.155Z</time></trkpt><trkpt lat="46.1166835" lon="13.5079988"><ele>152.0</ele><time>2026-05-02T11:20:25.149Z</time></trkpt><trkpt lat="46.1166178" lon="13.507749"><ele>151.0</ele><time>2026-05-02T11:20:26.138Z</time></trkpt><trkpt lat="46.1165294" lon="13.5075088"><ele>150.0</ele><time>2026-05-02T11:20:27.135Z</time></trkpt><trkpt lat="46.1164107" lon="13.5072812"><ele>149.0</ele><time>2026-05-02T11:20:28.161Z</time></trkpt><trkpt lat="46.1162775" lon="13.507078"><ele>148.0</ele><time>2026-05-02T11:20:29.147Z</time></trkpt><trkpt lat="46.116134" lon="13.5068861"><ele>147.0</ele><time>2026-05-02T11:20:30.148Z</time></trkpt><trkpt lat="46.1159884" lon="13.506703"><ele>147.0</ele><time>2026-05-02T11:20:31.147Z</time></trkpt><trkpt lat="46.1158538" lon="13.5065207"><ele>147.0</ele><time>2026-05-02T11:20:32.14Z</time></trkpt><trkpt lat="46.1157367" lon="13.5063256"><ele>147.0</ele><time>2026-05-02T11:20:33.149Z</time></trkpt><trkpt lat="46.1156356" lon="13.5061227"><ele>146.0</ele><time>2026-05-02T11:20:34.134Z</time></trkpt><trkpt lat="46.1155576" lon="13.5059101"><ele>145.0</ele><time>2026-05-02T11:20:35.149Z</time></trkpt><trkpt lat="46.1154959" lon="13.505705"><ele>144.0</ele><time>2026-05-02T11:20:36.157Z</time></trkpt><trkpt lat="46.1154696" lon="13.5055046"><ele>144.33333333333334</ele><time>2026-05-02T11:20:37.159Z</time></trkpt><trkpt lat="46.115472" lon="13.5052993"><ele>144.66666666666669</ele><time>2026-05-02T11:20:38.151Z</time></trkpt><trkpt lat="46.1154682" lon="13.5050808"><ele>145.0</ele><time>2026-05-02T11:20:39.148Z</time></trkpt><trkpt lat="46.1154569" lon="13.5048496"><ele>145.0</ele><time>2026-05-02T11:20:40.152Z</time></trkpt><trkpt lat="46.1154325" lon="13.5046078"><ele>145.0</ele><time>2026-05-02T11:20:41.165Z</time></trkpt><trkpt lat="46.1154102" lon="13.5043728"><ele>145.0</ele><time>2026-05-02T11:20:42.154Z</time></trkpt><trkpt lat="46.115393" lon="13.5041526"><ele>144.33333333333334</ele><time>2026-05-02T11:20:43.152Z</time></trkpt><trkpt lat="46.1153589" lon="13.5039232"><ele>143.66666666666666</ele><time>2026-05-02T11:20:44.15Z</time></trkpt><trkpt lat="46.1153167" lon="13.5036855"><ele>143.0</ele><time>2026-05-02T11:20:45.156Z</time></trkpt><trkpt lat="46.1152731" lon="13.503448"><ele>143.0</ele><time>2026-05-02T11:20:46.158Z</time></trkpt><trkpt lat="46.1152235" lon="13.5031989"><ele>143.0</ele><time>2026-05-02T11:20:47.145Z</time></trkpt><trkpt lat="46.1151691" lon="13.5029493"><ele>143.0</ele><time>2026-05-02T11:20:48.137Z</time></trkpt><trkpt lat="46.1151047" lon="13.5026874"><ele>143.33333333333331</ele><time>2026-05-02T11:20:49.151Z</time></trkpt><trkpt lat="46.1150396" lon="13.5024242"><ele>143.66666666666666</ele><time>2026-05-02T11:20:50.143Z</time></trkpt><trkpt lat="46.1149808" lon="13.5021592"><ele>144.0</ele><time>2026-05-02T11:20:51.147Z</time></trkpt><trkpt lat="46.1149292" lon="13.5018931"><ele>144.33333333333334</ele><time>2026-05-02T11:20:52.143Z</time></trkpt><trkpt lat="46.1148907" lon="13.5016322"><ele>144.66666666666669</ele><time>2026-05-02T11:20:53.147Z</time></trkpt><trkpt lat="46.1148894" lon="13.5013692"><ele>145.0</ele><time>2026-05-02T11:20:54.135Z</time></trkpt><trkpt lat="46.1149353" lon="13.5011235"><ele>145.0</ele><time>2026-05-02T11:20:55.149Z</time></trkpt><trkpt lat="46.1149937" lon="13.500875"><ele>145.0</ele><time>2026-05-02T11:20:56.129Z</time></trkpt><trkpt lat="46.1150938" lon="13.50063"><ele>145.0</ele><time>2026-05-02T11:20:57.142Z</time></trkpt><trkpt lat="46.1152083" lon="13.5003854"><ele>145.33333333333334</ele><time>2026-05-02T11:20:58.148Z</time></trkpt><trkpt lat="46.1153211" lon="13.5001436"><ele>145.66666666666666</ele><time>2026-05-02T11:20:59.151Z</time></trkpt><trkpt lat="46.1154294" lon="13.4999013"><ele>146.0</ele><time>2026-05-02T11:21:00.145Z</time></trkpt><trkpt lat="46.1155229" lon="13.4996511"><ele>146.33333333333331</ele><time>2026-05-02T11:21:01.163Z</time></trkpt><trkpt lat="46.1156044" lon="13.4993949"><ele>146.66666666666666</ele><time>2026-05-02T11:21:02.155Z</time></trkpt><trkpt lat="46.1156765" lon="13.4991339"><ele>147.0</ele><time>2026-05-02T11:21:03.15Z</time></trkpt><trkpt lat="46.115751" lon="13.4988722"><ele>145.33333333333334</ele><time>2026-05-02T11:21:04.144Z</time></trkpt><trkpt lat="46.115828" lon="13.4986086"><ele>143.66666666666669</ele><time>2026-05-02T11:21:05.126Z</time></trkpt><trkpt lat="46.1158997" lon="13.4983578"><ele>142.0</ele><time>2026-05-02T11:21:06.152Z</time></trkpt><trkpt lat="46.1159762" lon="13.4981036"><ele>140.66666666666669</ele><time>2026-05-02T11:21:07.141Z</time></trkpt><trkpt lat="46.1160563" lon="13.4978613"><ele>139.33333333333334</ele><time>2026-05-02T11:21:08.133Z</time></trkpt><trkpt lat="46.1161483" lon="13.4976146"><ele>138.0</ele><time>2026-05-02T11:21:09.147Z</time></trkpt><trkpt lat="46.1162522" lon="13.4973981"><ele>138.0</ele><time>2026-05-02T11:21:10.154Z</time></trkpt><trkpt lat="46.1163654" lon="13.4971942"><ele>138.0</ele><time>2026-05-02T11:21:11.159Z</time></trkpt><trkpt lat="46.1164973" lon="13.496996"><ele>138.0</ele><time>2026-05-02T11:21:12.158Z</time></trkpt><trkpt lat="46.1166411" lon="13.4968064"><ele>138.0</ele><time>2026-05-02T11:21:13.156Z</time></trkpt><trkpt lat="46.1167861" lon="13.4966115"><ele>138.0</ele><time>2026-05-02T11:21:14.152Z</time></trkpt><trkpt lat="46.1169329" lon="13.4964257"><ele>138.0</ele><time>2026-05-02T11:21:15.154Z</time></trkpt><trkpt lat="46.1170865" lon="13.4962332"><ele>138.66666666666666</ele><time>2026-05-02T11:21:16.148Z</time></trkpt><trkpt lat="46.1172439" lon="13.4960441"><ele>139.33333333333331</ele><time>2026-05-02T11:21:17.146Z</time></trkpt><trkpt lat="46.1173918" lon="13.4958626"><ele>140.0</ele><time>2026-05-02T11:21:18.16Z</time></trkpt><trkpt lat="46.1175408" lon="13.495677"><ele>140.33333333333331</ele><time>2026-05-02T11:21:19.157Z</time></trkpt><trkpt lat="46.1176808" lon="13.4954943"><ele>140.66666666666666</ele><time>2026-05-02T11:21:20.153Z</time></trkpt><trkpt lat="46.1178186" lon="13.4953197"><ele>141.0</ele><time>2026-05-02T11:21:21.172Z</time></trkpt><trkpt lat="46.1179609" lon="13.4951436"><ele>141.66666666666666</ele><time>2026-05-02T11:21:22.149Z</time></trkpt><trkpt lat="46.1180938" lon="13.4949753"><ele>142.33333333333331</ele><time>2026-05-02T11:21:23.147Z</time></trkpt><trkpt lat="46.11822" lon="13.4948185"><ele>143.0</ele><time>2026-05-02T11:21:24.164Z</time></trkpt><trkpt lat="46.1183337" lon="13.4946741"><ele>143.5</ele><time>2026-05-02T11:21:25.148Z</time></trkpt><trkpt lat="46.1184424" lon="13.4945302"><ele>144.0</ele><time>2026-05-02T11:21:26.154Z</time></trkpt><trkpt lat="46.1185449" lon="13.4943997"><ele>144.5</ele><time>2026-05-02T11:21:27.151Z</time></trkpt><trkpt lat="46.118646" lon="13.4942756"><ele>145.0</ele><time>2026-05-02T11:21:28.148Z</time></trkpt><trkpt lat="46.1187429" lon="13.4941542"><ele>145.0</ele><time>2026-05-02T11:21:29.174Z</time></trkpt><trkpt lat="46.1188353" lon="13.4940366"><ele>145.0</ele><time>2026-05-02T11:21:30.148Z</time></trkpt><trkpt lat="46.1189192" lon="13.4939188"><ele>145.0</ele><time>2026-05-02T11:21:31.159Z</time></trkpt><trkpt lat="46.1189987" lon="13.4938099"><ele>145.0</ele><time>2026-05-02T11:21:32.154Z</time></trkpt><trkpt lat="46.1190741" lon="13.4937181"><ele>145.0</ele><time>2026-05-02T11:21:33.149Z</time></trkpt><trkpt lat="46.1191627" lon="13.4936481"><ele>146.75</ele><time>2026-05-02T11:21:34.15Z</time></trkpt><trkpt lat="46.1192563" lon="13.4936103"><ele>148.5</ele><time>2026-05-02T11:21:35.169Z</time></trkpt><trkpt lat="46.1193686" lon="13.4936181"><ele>150.25</ele><time>2026-05-02T11:21:36.153Z</time></trkpt><trkpt lat="46.1195124" lon="13.4936554"><ele>152.0</ele><time>2026-05-02T11:21:37.159Z</time></trkpt><trkpt lat="46.1196661" lon="13.4937075"><ele>150.66666666666666</ele><time>2026-05-02T11:21:38.165Z</time></trkpt><trkpt lat="46.1198353" lon="13.4937737"><ele>149.33333333333334</ele><time>2026-05-02T11:21:39.165Z</time></trkpt><trkpt lat="46.1200052" lon="13.4938424"><ele>148.0</ele><time>2026-05-02T11:21:40.169Z</time></trkpt><trkpt lat="46.1201887" lon="13.4939206"><ele>148.0</ele><time>2026-05-02T11:21:41.17Z</time></trkpt><trkpt lat="46.1203811" lon="13.4940037"><ele>148.0</ele><time>2026-05-02T11:21:42.182Z</time></trkpt><trkpt lat="46.1205784" lon="13.4940873"><ele>148.0</ele><time>2026-05-02T11:21:43.167Z</time></trkpt><trkpt lat="46.1207794" lon="13.4941694"><ele>148.66666666666669</ele><time>2026-05-02T11:21:44.166Z</time></trkpt><trkpt lat="46.1209635" lon="13.4942474"><ele>149.33333333333334</ele><time>2026-05-02T11:21:45.149Z</time></trkpt><trkpt lat="46.1211522" lon="13.4943325"><ele>150.0</ele><time>2026-05-02T11:21:46.162Z</time></trkpt><trkpt lat="46.1213259" lon="13.494413"><ele>150.0</ele><time>2026-05-02T11:21:47.166Z</time></trkpt><trkpt lat="46.1214807" lon="13.4945023"><ele>150.0</ele><time>2026-05-02T11:21:48.152Z</time></trkpt><trkpt lat="46.1216328" lon="13.4945844"><ele>150.0</ele><time>2026-05-02T11:21:49.148Z</time></trkpt><trkpt lat="46.1217768" lon="13.4946864"><ele>151.66666666666666</ele><time>2026-05-02T11:21:50.161Z</time></trkpt><trkpt lat="46.1219181" lon="13.4948007"><ele>153.33333333333331</ele><time>2026-05-02T11:21:51.145Z</time></trkpt><trkpt lat="46.1220585" lon="13.4949223"><ele>155.0</ele><time>2026-05-02T11:21:52.141Z</time></trkpt><trkpt lat="46.1221966" lon="13.4950309"><ele>155.0</ele><time>2026-05-02T11:21:53.162Z</time></trkpt><trkpt lat="46.122332" lon="13.4951349"><ele>155.0</ele><time>2026-05-02T11:21:54.16Z</time></trkpt><trkpt lat="46.1224681" lon="13.4952363"><ele>155.0</ele><time>2026-05-02T11:21:55.154Z</time></trkpt><trkpt lat="46.1225988" lon="13.4953362"><ele>154.0</ele><time>2026-05-02T11:21:56.156Z</time></trkpt><trkpt lat="46.1227174" lon="13.4954231"><ele>153.0</ele><time>2026-05-02T11:21:57.148Z</time></trkpt><trkpt lat="46.1228276" lon="13.4955124"><ele>152.0</ele><time>2026-05-02T11:21:58.135Z</time></trkpt><trkpt lat="46.1229384" lon="13.4955949"><ele>151.0</ele><time>2026-05-02T11:21:59.147Z</time></trkpt><trkpt lat="46.1230567" lon="13.4956819"><ele>151.0</ele><time>2026-05-02T11:22:00.147Z</time></trkpt><trkpt lat="46.1231807" lon="13.4957694"><ele>151.0</ele><time>2026-05-02T11:22:01.158Z</time></trkpt><trkpt lat="46.1233169" lon="13.4958461"><ele>151.0</ele><time>2026-05-02T11:22:02.14Z</time></trkpt><trkpt lat="46.1234709" lon="13.4959173"><ele>151.0</ele><time>2026-05-02T11:22:03.156Z</time></trkpt><trkpt lat="46.1236465" lon="13.4959859"><ele>153.0</ele><time>2026-05-02T11:22:04.16Z</time></trkpt><trkpt lat="46.1238283" lon="13.4960545"><ele>155.0</ele><time>2026-05-02T11:22:05.147Z</time></trkpt><trkpt lat="46.1240265" lon="13.4961132"><ele>157.0</ele><time>2026-05-02T11:22:06.161Z</time></trkpt><trkpt lat="46.1242233" lon="13.4961662"><ele>161.66666666666669</ele><time>2026-05-02T11:22:07.153Z</time></trkpt><trkpt lat="46.1244201" lon="13.4962102"><ele>166.33333333333334</ele><time>2026-05-02T11:22:08.165Z</time></trkpt><trkpt lat="46.1246238" lon="13.4962449"><ele>171.0</ele><time>2026-05-02T11:22:09.15Z</time></trkpt><trkpt lat="46.1248355" lon="13.4962459"><ele>171.66666666666666</ele><time>2026-05-02T11:22:10.169Z</time></trkpt><trkpt lat="46.1250474" lon="13.4962335"><ele>172.33333333333331</ele><time>2026-05-02T11:22:11.168Z</time></trkpt><trkpt lat="46.1252566" lon="13.4961969"><ele>173.0</ele><time>2026-05-02T11:22:12.166Z</time></trkpt><trkpt lat="46.1254632" lon="13.4961778"><ele>173.0</ele><time>2026-05-02T11:22:13.145Z</time></trkpt><trkpt lat="46.1256648" lon="13.4961719"><ele>173.0</ele><time>2026-05-02T11:22:14.147Z</time></trkpt><trkpt lat="46.1258426" lon="13.4961689"><ele>173.0</ele><time>2026-05-02T11:22:15.149Z</time></trkpt><trkpt lat="46.1259932" lon="13.4962043"><ele>168.6</ele><time>2026-05-02T11:22:16.148Z</time></trkpt><trkpt lat="46.1261227" lon="13.4962625"><ele>164.20000000000002</ele><time>2026-05-02T11:22:17.154Z</time></trkpt><trkpt lat="46.1262404" lon="13.4963158"><ele>159.8</ele><time>2026-05-02T11:22:18.151Z</time></trkpt><trkpt lat="46.1263346" lon="13.496378"><ele>155.4</ele><time>2026-05-02T11:22:19.15Z</time></trkpt><trkpt lat="46.1264084" lon="13.4964433"><ele>151.0</ele><time>2026-05-02T11:22:20.158Z</time></trkpt><trkpt lat="46.1264657" lon="13.4964816"><ele>151.0</ele><time>2026-05-02T11:22:21.142Z</time></trkpt><trkpt lat="46.1265604" lon="13.4964952"><ele>151.0</ele><time>2026-05-02T11:22:23.145Z</time></trkpt><trkpt lat="46.1266355" lon="13.4964745"><ele>151.0</ele><time>2026-05-02T11:22:25.15Z</time></trkpt><trkpt lat="46.1267119" lon="13.4964447"><ele>151.0</ele><time>2026-05-02T11:22:27.133Z</time></trkpt><trkpt lat="46.1267719" lon="13.4963993"><ele>151.0</ele><time>2026-05-02T11:22:28.15Z</time></trkpt><trkpt lat="46.1268453" lon="13.4963341"><ele>151.0</ele><time>2026-05-02T11:22:29.137Z</time></trkpt><trkpt lat="46.1269198" lon="13.4962579"><ele>153.8</ele><time>2026-05-02T11:22:30.137Z</time></trkpt><trkpt lat="46.1269968" lon="13.4961866"><ele>156.6</ele><time>2026-05-02T11:22:31.155Z</time></trkpt><trkpt lat="46.1270715" lon="13.4961151"><ele>159.4</ele><time>2026-05-02T11:22:32.148Z</time></trkpt><trkpt lat="46.127145" lon="13.4960389"><ele>162.2</ele><time>2026-05-02T11:22:33.141Z</time></trkpt><trkpt lat="46.1272111" lon="13.4959565"><ele>165.0</ele><time>2026-05-02T11:22:34.136Z</time></trkpt><trkpt lat="46.1272831" lon="13.4958753"><ele>165.0</ele><time>2026-05-02T11:22:35.141Z</time></trkpt><trkpt lat="46.1273545" lon="13.4957987"><ele>165.0</ele><time>2026-05-02T11:22:36.134Z</time></trkpt><trkpt lat="46.1274366" lon="13.4957386"><ele>165.0</ele><time>2026-05-02T11:22:37.142Z</time></trkpt><trkpt lat="46.1275194" lon="13.4956844"><ele>165.0</ele><time>2026-05-02T11:22:38.161Z</time></trkpt><trkpt lat="46.1275937" lon="13.4956447"><ele>165.0</ele><time>2026-05-02T11:22:39.162Z</time></trkpt><trkpt lat="46.1276643" lon="13.4956316"><ele>165.0</ele><time>2026-05-02T11:22:40.152Z</time></trkpt><trkpt lat="46.127741" lon="13.4956274"><ele>164.66666666666666</ele><time>2026-05-02T11:22:41.156Z</time></trkpt><trkpt lat="46.1278181" lon="13.4956294"><ele>164.33333333333334</ele><time>2026-05-02T11:22:42.152Z</time></trkpt><trkpt lat="46.1278994" lon="13.4956294"><ele>164.0</ele><time>2026-05-02T11:22:43.161Z</time></trkpt><trkpt lat="46.1279787" lon="13.4956407"><ele>163.66666666666669</ele><time>2026-05-02T11:22:44.146Z</time></trkpt><trkpt lat="46.1280611" lon="13.4956464"><ele>163.33333333333334</ele><time>2026-05-02T11:22:45.141Z</time></trkpt><trkpt lat="46.1281449" lon="13.495644"><ele>163.0</ele><time>2026-05-02T11:22:46.145Z</time></trkpt><trkpt lat="46.1282273" lon="13.4956162"><ele>163.8</ele><time>2026-05-02T11:22:47.164Z</time></trkpt><trkpt lat="46.128312" lon="13.4955895"><ele>164.60000000000002</ele><time>2026-05-02T11:22:48.15Z</time></trkpt><trkpt lat="46.1284043" lon="13.4955599"><ele>165.39999999999998</ele><time>2026-05-02T11:22:49.132Z</time></trkpt><trkpt lat="46.1284997" lon="13.495526"><ele>166.2</ele><time>2026-05-02T11:22:50.156Z</time></trkpt><trkpt lat="46.1285928" lon="13.4954897"><ele>167.0</ele><time>2026-05-02T11:22:51.16Z</time></trkpt><trkpt lat="46.1286917" lon="13.4954653"><ele>167.0</ele><time>2026-05-02T11:22:52.146Z</time></trkpt><trkpt lat="46.1287879" lon="13.4954532"><ele>167.0</ele><time>2026-05-02T11:22:53.149Z</time></trkpt><trkpt lat="46.128892" lon="13.4954464"><ele>167.0</ele><time>2026-05-02T11:22:54.144Z</time></trkpt><trkpt lat="46.1290052" lon="13.4954536"><ele>167.0</ele><time>2026-05-02T11:22:55.156Z</time></trkpt><trkpt lat="46.1291096" lon="13.4954524"><ele>167.0</ele><time>2026-05-02T11:22:56.157Z</time></trkpt><trkpt lat="46.1292142" lon="13.4954472"><ele>167.2</ele><time>2026-05-02T11:22:57.14Z</time></trkpt><trkpt lat="46.1293151" lon="13.4954543"><ele>167.39999999999998</ele><time>2026-05-02T11:22:58.137Z</time></trkpt><trkpt lat="46.1294095" lon="13.495476"><ele>167.60000000000002</ele><time>2026-05-02T11:22:59.145Z</time></trkpt><trkpt lat="46.1294927" lon="13.4955071"><ele>167.8</ele><time>2026-05-02T11:23:00.146Z</time></trkpt><trkpt lat="46.1295696" lon="13.4955513"><ele>168.0</ele><time>2026-05-02T11:23:01.152Z</time></trkpt><trkpt lat="46.1296519" lon="13.4956008"><ele>168.0</ele><time>2026-05-02T11:23:02.149Z</time></trkpt><trkpt lat="46.129737" lon="13.4956561"><ele>168.0</ele><time>2026-05-02T11:23:03.141Z</time></trkpt><trkpt lat="46.129822" lon="13.4956908"><ele>168.0</ele><time>2026-05-02T11:23:04.154Z</time></trkpt><trkpt lat="46.1299116" lon="13.4957019"><ele>168.0</ele><time>2026-05-02T11:23:05.145Z</time></trkpt><trkpt lat="46.1299947" lon="13.4956936"><ele>168.0</ele><time>2026-05-02T11:23:06.139Z</time></trkpt><trkpt lat="46.1300495" lon="13.4956467"><ele>168.0</ele><time>2026-05-02T11:23:07.138Z</time></trkpt><trkpt lat="46.1301341" lon="13.4954981"><ele>171.5</ele><time>2026-05-02T11:23:09.136Z</time></trkpt><trkpt lat="46.1301786" lon="13.4954086"><ele>175.0</ele><time>2026-05-02T11:23:10.151Z</time></trkpt><trkpt lat="46.1302275" lon="13.4953504"><ele>178.5</ele><time>2026-05-02T11:23:11.146Z</time></trkpt><trkpt lat="46.1302948" lon="13.4953104"><ele>182.0</ele><time>2026-05-02T11:23:12.142Z</time></trkpt><trkpt lat="46.1303746" lon="13.4952818"><ele>185.5</ele><time>2026-05-02T11:23:13.151Z</time></trkpt><trkpt lat="46.1304584" lon="13.4952721"><ele>189.0</ele><time>2026-05-02T11:23:14.14Z</time></trkpt><trkpt lat="46.1305383" lon="13.4952782"><ele>189.0</ele><time>2026-05-02T11:23:15.143Z</time></trkpt><trkpt lat="46.1306086" lon="13.4952813"><ele>189.0</ele><time>2026-05-02T11:23:16.152Z</time></trkpt><trkpt lat="46.1306814" lon="13.4952974"><ele>189.0</ele><time>2026-05-02T11:23:17.151Z</time></trkpt><trkpt lat="46.1307551" lon="13.4953376"><ele>189.0</ele><time>2026-05-02T11:23:18.149Z</time></trkpt><trkpt lat="46.1308283" lon="13.4953876"><ele>189.0</ele><time>2026-05-02T11:23:19.142Z</time></trkpt><trkpt lat="46.1308974" lon="13.4954509"><ele>189.0</ele><time>2026-05-02T11:23:20.136Z</time></trkpt><trkpt lat="46.1309575" lon="13.4955236"><ele>187.28571428571428</ele><time>2026-05-02T11:23:21.147Z</time></trkpt><trkpt lat="46.1310137" lon="13.4956041"><ele>185.57142857142856</ele><time>2026-05-02T11:23:22.158Z</time></trkpt><trkpt lat="46.1310714" lon="13.4956882"><ele>183.85714285714286</ele><time>2026-05-02T11:23:23.144Z</time></trkpt><trkpt lat="46.1311241" lon="13.4957735"><ele>182.14285714285714</ele><time>2026-05-02T11:23:24.148Z</time></trkpt><trkpt lat="46.1311743" lon="13.4958459"><ele>180.42857142857142</ele><time>2026-05-02T11:23:25.142Z</time></trkpt><trkpt lat="46.1312304" lon="13.4959"><ele>178.71428571428572</ele><time>2026-05-02T11:23:26.15Z</time></trkpt><trkpt lat="46.131291" lon="13.4959478"><ele>177.0</ele><time>2026-05-02T11:23:27.141Z</time></trkpt><trkpt lat="46.1313686" lon="13.4959813"><ele>177.0</ele><time>2026-05-02T11:23:28.161Z</time></trkpt><trkpt lat="46.1314554" lon="13.4960154"><ele>177.0</ele><time>2026-05-02T11:23:29.155Z</time></trkpt><trkpt lat="46.1315518" lon="13.4960324"><ele>177.0</ele><time>2026-05-02T11:23:30.136Z</time></trkpt><trkpt lat="46.131646" lon="13.496037"><ele>177.0</ele><time>2026-05-02T11:23:31.139Z</time></trkpt><trkpt lat="46.1317425" lon="13.4960167"><ele>177.0</ele><time>2026-05-02T11:23:32.15Z</time></trkpt><trkpt lat="46.1318286" lon="13.4959698"><ele>177.39999999999998</ele><time>2026-05-02T11:23:33.138Z</time></trkpt><trkpt lat="46.1318961" lon="13.4958881"><ele>177.79999999999998</ele><time>2026-05-02T11:23:34.136Z</time></trkpt><trkpt lat="46.1319403" lon="13.4957691"><ele>178.2</ele><time>2026-05-02T11:23:35.149Z</time></trkpt><trkpt lat="46.1319803" lon="13.4956413"><ele>178.6</ele><time>2026-05-02T11:23:36.126Z</time></trkpt><trkpt lat="46.1320122" lon="13.4955185"><ele>179.0</ele><time>2026-05-02T11:23:37.153Z</time></trkpt><trkpt lat="46.132014" lon="13.4953788"><ele>182.0</ele><time>2026-05-02T11:23:39.128Z</time></trkpt><trkpt lat="46.1319332" lon="13.4952974"><ele>185.0</ele><time>2026-05-02T11:23:41.131Z</time></trkpt><trkpt lat="46.1318666" lon="13.4952805"><ele>188.0</ele><time>2026-05-02T11:23:42.13Z</time></trkpt><trkpt lat="46.1317717" lon="13.4952633"><ele>191.0</ele><time>2026-05-02T11:23:43.142Z</time></trkpt><trkpt lat="46.1316543" lon="13.4952503"><ele>194.0</ele><time>2026-05-02T11:23:44.141Z</time></trkpt><trkpt lat="46.1315419" lon="13.4952436"><ele>194.0</ele><time>2026-05-02T11:23:45.128Z</time></trkpt><trkpt lat="46.1314245" lon="13.4952394"><ele>194.0</ele><time>2026-05-02T11:23:46.142Z</time></trkpt><trkpt lat="46.1313058" lon="13.4952515"><ele>194.0</ele><time>2026-05-02T11:23:47.143Z</time></trkpt><trkpt lat="46.1312119" lon="13.4952516"><ele>194.0</ele><time>2026-05-02T11:23:48.14Z</time></trkpt><trkpt lat="46.1311252" lon="13.4952257"><ele>194.0</ele><time>2026-05-02T11:23:49.14Z</time></trkpt><trkpt lat="46.1310364" lon="13.4951789"><ele>194.0</ele><time>2026-05-02T11:23:50.156Z</time></trkpt><trkpt lat="46.1309492" lon="13.4951319"><ele>194.0</ele><time>2026-05-02T11:23:51.13Z</time></trkpt><trkpt lat="46.1308612" lon="13.4950615"><ele>194.0</ele><time>2026-05-02T11:23:52.139Z</time></trkpt><trkpt lat="46.1307692" lon="13.4949904"><ele>194.0</ele><time>2026-05-02T11:23:53.151Z</time></trkpt><trkpt lat="46.1306598" lon="13.4949607"><ele>194.0</ele><time>2026-05-02T11:23:54.141Z</time></trkpt><trkpt lat="46.1305455" lon="13.4949357"><ele>193.0</ele><time>2026-05-02T11:23:55.141Z</time></trkpt><trkpt lat="46.1304375" lon="13.4949287"><ele>192.0</ele><time>2026-05-02T11:23:56.124Z</time></trkpt><trkpt lat="46.1303374" lon="13.494929"><ele>191.0</ele><time>2026-05-02T11:23:57.146Z</time></trkpt><trkpt lat="46.1302244" lon="13.494925"><ele>190.0</ele><time>2026-05-02T11:23:58.135Z</time></trkpt><trkpt lat="46.1301623" lon="13.4948647"><ele>189.0</ele><time>2026-05-02T11:23:59.147Z</time></trkpt><trkpt lat="46.1301113" lon="13.4947582"><ele>189.0</ele><time>2026-05-02T11:24:00.143Z</time></trkpt><trkpt lat="46.1300699" lon="13.4946185"><ele>189.0</ele><time>2026-05-02T11:24:01.141Z</time></trkpt><trkpt lat="46.1300526" lon="13.4944877"><ele>189.0</ele><time>2026-05-02T11:24:02.15Z</time></trkpt><trkpt lat="46.1300326" lon="13.4943495"><ele>189.0</ele><time>2026-05-02T11:24:03.129Z</time></trkpt><trkpt lat="46.1300112" lon="13.4942412"><ele>189.0</ele><time>2026-05-02T11:24:04.139Z</time></trkpt><trkpt lat="46.1299859" lon="13.4941479"><ele>189.0</ele><time>2026-05-02T11:24:05.152Z</time></trkpt><trkpt lat="46.1299399" lon="13.4940715"><ele>192.5</ele><time>2026-05-02T11:24:06.145Z</time></trkpt><trkpt lat="46.1298659" lon="13.4940465"><ele>196.0</ele><time>2026-05-02T11:24:07.129Z</time></trkpt><trkpt lat="46.1297827" lon="13.494017"><ele>199.5</ele><time>2026-05-02T11:24:08.137Z</time></trkpt><trkpt lat="46.1297016" lon="13.4940139"><ele>203.0</ele><time>2026-05-02T11:24:09.138Z</time></trkpt><trkpt lat="46.1296329" lon="13.4939812"><ele>206.5</ele><time>2026-05-02T11:24:10.128Z</time></trkpt><trkpt lat="46.1295537" lon="13.4938942"><ele>210.0</ele><time>2026-05-02T11:24:12.133Z</time></trkpt><trkpt lat="46.1295677" lon="13.4938034"><ele>215.0</ele><time>2026-05-02T11:24:13.139Z</time></trkpt><trkpt lat="46.1296842" lon="13.4936796"><ele>220.0</ele><time>2026-05-02T11:24:15.135Z</time></trkpt><trkpt lat="46.129786" lon="13.4936341"><ele>225.0</ele><time>2026-05-02T11:24:16.141Z</time></trkpt><trkpt lat="46.1298987" lon="13.4935645"><ele>230.0</ele><time>2026-05-02T11:24:17.152Z</time></trkpt><trkpt lat="46.1299841" lon="13.4935129"><ele>230.0</ele><time>2026-05-02T11:24:18.142Z</time></trkpt><trkpt lat="46.1300831" lon="13.4934691"><ele>230.0</ele><time>2026-05-02T11:24:19.144Z</time></trkpt><trkpt lat="46.130187" lon="13.4934323"><ele>230.0</ele><time>2026-05-02T11:24:20.152Z</time></trkpt><trkpt lat="46.1303081" lon="13.4934218"><ele>230.0</ele><time>2026-05-02T11:24:21.141Z</time></trkpt><trkpt lat="46.1304095" lon="13.4934285"><ele>230.0</ele><time>2026-05-02T11:24:22.133Z</time></trkpt><trkpt lat="46.1304994" lon="13.4934352"><ele>230.0</ele><time>2026-05-02T11:24:23.14Z</time></trkpt><trkpt lat="46.1305749" lon="13.4933913"><ele>230.0</ele><time>2026-05-02T11:24:24.139Z</time></trkpt><trkpt lat="46.1306408" lon="13.4932978"><ele>230.0</ele><time>2026-05-02T11:24:25.148Z</time></trkpt><trkpt lat="46.1306755" lon="13.4931775"><ele>230.0</ele><time>2026-05-02T11:24:26.142Z</time></trkpt><trkpt lat="46.1306955" lon="13.4930391"><ele>230.0</ele><time>2026-05-02T11:24:27.131Z</time></trkpt><trkpt lat="46.1307176" lon="13.4929168"><ele>229.0</ele><time>2026-05-02T11:24:28.128Z</time></trkpt><trkpt lat="46.1307408" lon="13.4928006"><ele>228.0</ele><time>2026-05-02T11:24:29.138Z</time></trkpt><trkpt lat="46.1308216" lon="13.4926686"><ele>227.0</ele><time>2026-05-02T11:24:31.139Z</time></trkpt><trkpt lat="46.1309212" lon="13.4926145"><ele>226.0</ele><time>2026-05-02T11:24:33.152Z</time></trkpt><trkpt lat="46.1309847" lon="13.4925977"><ele>225.0</ele><time>2026-05-02T11:24:34.131Z</time></trkpt><trkpt lat="46.131074" lon="13.492564"><ele>225.0</ele><time>2026-05-02T11:24:35.142Z</time></trkpt><trkpt lat="46.1311455" lon="13.4925274"><ele>225.0</ele><time>2026-05-02T11:24:36.146Z</time></trkpt><trkpt lat="46.1312118" lon="13.4924877"><ele>225.0</ele><time>2026-05-02T11:24:37.155Z</time></trkpt><trkpt lat="46.1312805" lon="13.4924527"><ele>225.0</ele><time>2026-05-02T11:24:38.138Z</time></trkpt><trkpt lat="46.1313912" lon="13.4924417"><ele>225.0</ele><time>2026-05-02T11:24:40.144Z</time></trkpt><trkpt lat="46.1314814" lon="13.49253"><ele>225.0</ele><time>2026-05-02T11:24:42.145Z</time></trkpt><trkpt lat="46.1315378" lon="13.4925936"><ele>225.0</ele><time>2026-05-02T11:24:43.128Z</time></trkpt><trkpt lat="46.1316014" lon="13.4926667"><ele>225.0</ele><time>2026-05-02T11:24:44.137Z</time></trkpt><trkpt lat="46.1316684" lon="13.4927502"><ele>225.0</ele><time>2026-05-02T11:24:45.138Z</time></trkpt><trkpt lat="46.131737" lon="13.4928294"><ele>225.0</ele><time>2026-05-02T11:24:46.12Z</time></trkpt><trkpt lat="46.1318055" lon="13.4929102"><ele>225.0</ele><time>2026-05-02T11:24:47.147Z</time></trkpt><trkpt lat="46.1318649" lon="13.4929954"><ele>225.0</ele><time>2026-05-02T11:24:48.137Z</time></trkpt><trkpt lat="46.1319189" lon="13.4930716"><ele>226.71428571428575</ele><time>2026-05-02T11:24:49.149Z</time></trkpt><trkpt lat="46.1319754" lon="13.4931331"><ele>228.42857142857144</ele><time>2026-05-02T11:24:50.153Z</time></trkpt><trkpt lat="46.132038" lon="13.4931736"><ele>230.14285714285714</ele><time>2026-05-02T11:24:51.122Z</time></trkpt><trkpt lat="46.1321059" lon="13.4932081"><ele>231.85714285714286</ele><time>2026-05-02T11:24:52.148Z</time></trkpt><trkpt lat="46.1321752" lon="13.4932229"><ele>233.57142857142856</ele><time>2026-05-02T11:24:53.141Z</time></trkpt><trkpt lat="46.1322424" lon="13.493238"><ele>235.28571428571425</ele><time>2026-05-02T11:24:54.116Z</time></trkpt><trkpt lat="46.1323082" lon="13.4932489"><ele>236.99999999999997</ele><time>2026-05-02T11:24:55.148Z</time></trkpt><trkpt lat="46.1324092" lon="13.4932969"><ele>237.0</ele><time>2026-05-02T11:24:57.13Z</time></trkpt><trkpt lat="46.1324568" lon="13.4933577"><ele>237.0</ele><time>2026-05-02T11:24:58.134Z</time></trkpt><trkpt lat="46.1325078" lon="13.4934352"><ele>237.0</ele><time>2026-05-02T11:24:59.13Z</time></trkpt><trkpt lat="46.1325822" lon="13.4935114"><ele>237.0</ele><time>2026-05-02T11:25:00.125Z</time></trkpt><trkpt lat="46.1326528" lon="13.4935911"><ele>237.0</ele><time>2026-05-02T11:25:01.118Z</time></trkpt><trkpt lat="46.1327273" lon="13.4936906"><ele>237.0</ele><time>2026-05-02T11:25:02.125Z</time></trkpt><trkpt lat="46.1328055" lon="13.4937956"><ele>235.0</ele><time>2026-05-02T11:25:03.137Z</time></trkpt><trkpt lat="46.1328812" lon="13.4939022"><ele>233.0</ele><time>2026-05-02T11:25:04.133Z</time></trkpt><trkpt lat="46.1329605" lon="13.4940076"><ele>231.0</ele><time>2026-05-02T11:25:05.146Z</time></trkpt><trkpt lat="46.1330443" lon="13.4940957"><ele>229.0</ele><time>2026-05-02T11:25:06.126Z</time></trkpt><trkpt lat="46.1331221" lon="13.4941882"><ele>227.0</ele><time>2026-05-02T11:25:07.157Z</time></trkpt><trkpt lat="46.1332085" lon="13.4942671"><ele>231.39999999999998</ele><time>2026-05-02T11:25:08.143Z</time></trkpt><trkpt lat="46.1332874" lon="13.4943359"><ele>235.79999999999998</ele><time>2026-05-02T11:25:09.134Z</time></trkpt><trkpt lat="46.1333501" lon="13.4943952"><ele>240.2</ele><time>2026-05-02T11:25:10.129Z</time></trkpt><trkpt lat="46.1334317" lon="13.4945042"><ele>244.6</ele><time>2026-05-02T11:25:12.157Z</time></trkpt><trkpt lat="46.1334605" lon="13.4946098"><ele>249.0</ele><time>2026-05-02T11:25:13.127Z</time></trkpt><trkpt lat="46.133487" lon="13.4947505"><ele>249.0</ele><time>2026-05-02T11:25:14.147Z</time></trkpt><trkpt lat="46.1335068" lon="13.4948701"><ele>249.0</ele><time>2026-05-02T11:25:15.129Z</time></trkpt><trkpt lat="46.1335348" lon="13.4949734"><ele>249.0</ele><time>2026-05-02T11:25:16.146Z</time></trkpt><trkpt lat="46.1335745" lon="13.495072"><ele>249.0</ele><time>2026-05-02T11:25:17.134Z</time></trkpt><trkpt lat="46.1336317" lon="13.4951745"><ele>249.0</ele><time>2026-05-02T11:25:18.142Z</time></trkpt><trkpt lat="46.1336989" lon="13.495269"><ele>249.0</ele><time>2026-05-02T11:25:19.156Z</time></trkpt><trkpt lat="46.1337612" lon="13.4953631"><ele>247.5</ele><time>2026-05-02T11:25:20.133Z</time></trkpt><trkpt lat="46.1338039" lon="13.4954624"><ele>246.0</ele><time>2026-05-02T11:25:21.154Z</time></trkpt><trkpt lat="46.1338386" lon="13.4955666"><ele>244.5</ele><time>2026-05-02T11:25:22.159Z</time></trkpt><trkpt lat="46.1338552" lon="13.4957277"><ele>243.0</ele><time>2026-05-02T11:25:24.166Z</time></trkpt><trkpt lat="46.1338587" lon="13.4958185"><ele>241.5</ele><time>2026-05-02T11:25:25.154Z</time></trkpt><trkpt lat="46.1338766" lon="13.4959056"><ele>240.0</ele><time>2026-05-02T11:25:26.137Z</time></trkpt><trkpt lat="46.1339099" lon="13.4960802"><ele>240.0</ele><time>2026-05-02T11:25:28.154Z</time></trkpt><trkpt lat="46.1339278" lon="13.4961833"><ele>240.0</ele><time>2026-05-02T11:25:29.143Z</time></trkpt><trkpt lat="46.133953" lon="13.4963011"><ele>240.0</ele><time>2026-05-02T11:25:30.157Z</time></trkpt><trkpt lat="46.1339729" lon="13.4964276"><ele>240.0</ele><time>2026-05-02T11:25:31.144Z</time></trkpt><trkpt lat="46.1339954" lon="13.4965798"><ele>240.0</ele><time>2026-05-02T11:25:32.159Z</time></trkpt><trkpt lat="46.1340115" lon="13.4967067"><ele>240.0</ele><time>2026-05-02T11:25:33.145Z</time></trkpt><trkpt lat="46.1340286" lon="13.4968298"><ele>238.66666666666666</ele><time>2026-05-02T11:25:34.154Z</time></trkpt><trkpt lat="46.1340491" lon="13.4969489"><ele>237.33333333333331</ele><time>2026-05-02T11:25:35.152Z</time></trkpt><trkpt lat="46.1340808" lon="13.4970628"><ele>236.0</ele><time>2026-05-02T11:25:36.145Z</time></trkpt><trkpt lat="46.1341212" lon="13.4971709"><ele>234.66666666666666</ele><time>2026-05-02T11:25:37.141Z</time></trkpt><trkpt lat="46.1341722" lon="13.497266"><ele>233.33333333333331</ele><time>2026-05-02T11:25:38.127Z</time></trkpt><trkpt lat="46.1342362" lon="13.4973621"><ele>232.0</ele><time>2026-05-02T11:25:39.146Z</time></trkpt><trkpt lat="46.134309" lon="13.4974543"><ele>232.39999999999998</ele><time>2026-05-02T11:25:40.141Z</time></trkpt><trkpt lat="46.1343807" lon="13.4975562"><ele>232.79999999999998</ele><time>2026-05-02T11:25:41.15Z</time></trkpt><trkpt lat="46.134447" lon="13.4976488"><ele>233.2</ele><time>2026-05-02T11:25:42.152Z</time></trkpt><trkpt lat="46.1345144" lon="13.497739"><ele>233.6</ele><time>2026-05-02T11:25:43.149Z</time></trkpt><trkpt lat="46.1345882" lon="13.4978362"><ele>234.0</ele><time>2026-05-02T11:25:44.127Z</time></trkpt><trkpt lat="46.1346678" lon="13.4979218"><ele>234.0</ele><time>2026-05-02T11:25:45.133Z</time></trkpt><trkpt lat="46.1347603" lon="13.497993"><ele>233.99999999999997</ele><time>2026-05-02T11:25:46.147Z</time></trkpt><trkpt lat="46.1348521" lon="13.4980594"><ele>233.99999999999997</ele><time>2026-05-02T11:25:47.143Z</time></trkpt><trkpt lat="46.1349476" lon="13.4980997"><ele>234.0</ele><time>2026-05-02T11:25:48.146Z</time></trkpt><trkpt lat="46.1350461" lon="13.4981199"><ele>234.0</ele><time>2026-05-02T11:25:49.137Z</time></trkpt><trkpt lat="46.1351539" lon="13.4981342"><ele>237.6</ele><time>2026-05-02T11:25:50.134Z</time></trkpt><trkpt lat="46.1352426" lon="13.4981682"><ele>241.2</ele><time>2026-05-02T11:25:51.134Z</time></trkpt><trkpt lat="46.1353174" lon="13.4982118"><ele>244.79999999999998</ele><time>2026-05-02T11:25:52.153Z</time></trkpt><trkpt lat="46.1353902" lon="13.4983357"><ele>248.39999999999998</ele><time>2026-05-02T11:25:54.149Z</time></trkpt><trkpt lat="46.1354261" lon="13.4985133"><ele>252.0</ele><time>2026-05-02T11:25:56.13Z</time></trkpt><trkpt lat="46.1354417" lon="13.4986192"><ele>252.0</ele><time>2026-05-02T11:25:57.132Z</time></trkpt><trkpt lat="46.1354643" lon="13.4987296"><ele>252.0</ele><time>2026-05-02T11:25:58.129Z</time></trkpt><trkpt lat="46.1354945" lon="13.4988378"><ele>252.0</ele><time>2026-05-02T11:25:59.131Z</time></trkpt><trkpt lat="46.1355386" lon="13.4989396"><ele>252.0</ele><time>2026-05-02T11:26:00.151Z</time></trkpt><trkpt lat="46.1356107" lon="13.4990431"><ele>252.0</ele><time>2026-05-02T11:26:01.139Z</time></trkpt><trkpt lat="46.1356855" lon="13.4991452"><ele>252.0</ele><time>2026-05-02T11:26:02.122Z</time></trkpt><trkpt lat="46.1357675" lon="13.4992453"><ele>252.5</ele><time>2026-05-02T11:26:03.135Z</time></trkpt><trkpt lat="46.1358423" lon="13.4993387"><ele>253.0</ele><time>2026-05-02T11:26:04.16Z</time></trkpt><trkpt lat="46.1359155" lon="13.4994228"><ele>253.5</ele><time>2026-05-02T11:26:05.138Z</time></trkpt><trkpt lat="46.1359811" lon="13.4994752"><ele>254.0</ele><time>2026-05-02T11:26:06.14Z</time></trkpt><trkpt lat="46.1360411" lon="13.4995129"><ele>254.5</ele><time>2026-05-02T11:26:07.145Z</time></trkpt><trkpt lat="46.136108" lon="13.4995297"><ele>255.0</ele><time>2026-05-02T11:26:08.162Z</time></trkpt><trkpt lat="46.1361922" lon="13.4995144"><ele>255.0</ele><time>2026-05-02T11:26:09.144Z</time></trkpt><trkpt lat="46.1362707" lon="13.4994906"><ele>255.0</ele><time>2026-05-02T11:26:10.145Z</time></trkpt><trkpt lat="46.1363409" lon="13.4994671"><ele>255.0</ele><time>2026-05-02T11:26:11.134Z</time></trkpt><trkpt lat="46.1364023" lon="13.4994416"><ele>255.0</ele><time>2026-05-02T11:26:12.159Z</time></trkpt><trkpt lat="46.1364906" lon="13.4994114"><ele>255.0</ele><time>2026-05-02T11:26:14.161Z</time></trkpt><trkpt lat="46.136555" lon="13.4994336"><ele>255.0</ele><time>2026-05-02T11:26:16.142Z</time></trkpt><trkpt lat="46.136654" lon="13.4995175"><ele>252.16666666666666</ele><time>2026-05-02T11:26:18.146Z</time></trkpt><trkpt lat="46.1367144" lon="13.4995643"><ele>249.33333333333331</ele><time>2026-05-02T11:26:19.153Z</time></trkpt><trkpt lat="46.1367869" lon="13.4995834"><ele>246.5</ele><time>2026-05-02T11:26:20.142Z</time></trkpt><trkpt lat="46.1368699" lon="13.4995855"><ele>243.66666666666666</ele><time>2026-05-02T11:26:21.153Z</time></trkpt><trkpt lat="46.1369508" lon="13.4996026"><ele>240.83333333333331</ele><time>2026-05-02T11:26:22.152Z</time></trkpt><trkpt lat="46.1370263" lon="13.4996339"><ele>238.0</ele><time>2026-05-02T11:26:23.144Z</time></trkpt><trkpt lat="46.1371124" lon="13.4996657"><ele>238.0</ele><time>2026-05-02T11:26:24.148Z</time></trkpt><trkpt lat="46.1371994" lon="13.4997215"><ele>238.0</ele><time>2026-05-02T11:26:25.149Z</time></trkpt><trkpt lat="46.1372956" lon="13.4997826"><ele>238.0</ele><time>2026-05-02T11:26:26.137Z</time></trkpt><trkpt lat="46.1373979" lon="13.4998538"><ele>238.0</ele><time>2026-05-02T11:26:27.149Z</time></trkpt><trkpt lat="46.1374973" lon="13.4999141"><ele>238.0</ele><time>2026-05-02T11:26:28.137Z</time></trkpt><trkpt lat="46.1375923" lon="13.4999676"><ele>238.0</ele><time>2026-05-02T11:26:29.136Z</time></trkpt><trkpt lat="46.1376692" lon="13.5000224"><ele>238.0</ele><time>2026-05-02T11:26:30.147Z</time></trkpt><trkpt lat="46.1377459" lon="13.5000649"><ele>238.0</ele><time>2026-05-02T11:26:31.137Z</time></trkpt><trkpt lat="46.137831" lon="13.5002011"><ele>238.0</ele><time>2026-05-02T11:26:33.135Z</time></trkpt><trkpt lat="46.1378887" lon="13.5003113"><ele>238.0</ele><time>2026-05-02T11:26:34.156Z</time></trkpt><trkpt lat="46.137935" lon="13.5004452"><ele>237.99999999999997</ele><time>2026-05-02T11:26:35.138Z</time></trkpt><trkpt lat="46.1379695" lon="13.5005796"><ele>238.0</ele><time>2026-05-02T11:26:36.164Z</time></trkpt><trkpt lat="46.1380022" lon="13.5007047"><ele>238.0</ele><time>2026-05-02T11:26:37.163Z</time></trkpt><trkpt lat="46.1380415" lon="13.5008135"><ele>238.0</ele><time>2026-05-02T11:26:38.15Z</time></trkpt><trkpt lat="46.1380925" lon="13.5009075"><ele>237.99999999999997</ele><time>2026-05-02T11:26:39.152Z</time></trkpt><trkpt lat="46.1381503" lon="13.5010024"><ele>238.0</ele><time>2026-05-02T11:26:40.165Z</time></trkpt><trkpt lat="46.1382137" lon="13.5010939"><ele>241.99999999999997</ele><time>2026-05-02T11:26:41.149Z</time></trkpt><trkpt lat="46.1382724" lon="13.5011872"><ele>246.0</ele><time>2026-05-02T11:26:42.153Z</time></trkpt><trkpt lat="46.1383283" lon="13.501264"><ele>250.0</ele><time>2026-05-02T11:26:43.142Z</time></trkpt><trkpt lat="46.1383848" lon="13.5013224"><ele>254.0</ele><time>2026-05-02T11:26:44.142Z</time></trkpt><trkpt lat="46.1384447" lon="13.5013722"><ele>258.0</ele><time>2026-05-02T11:26:45.15Z</time></trkpt><trkpt lat="46.1385129" lon="13.5014229"><ele>262.0</ele><time>2026-05-02T11:26:46.154Z</time></trkpt><trkpt lat="46.13859" lon="13.5014593"><ele>262.0</ele><time>2026-05-02T11:26:47.145Z</time></trkpt><trkpt lat="46.1386566" lon="13.501482"><ele>262.0</ele><time>2026-05-02T11:26:48.161Z</time></trkpt><trkpt lat="46.13876" lon="13.5015602"><ele>262.0</ele><time>2026-05-02T11:26:50.149Z</time></trkpt><trkpt lat="46.1388195" lon="13.5016027"><ele>262.0</ele><time>2026-05-02T11:26:51.141Z</time></trkpt><trkpt lat="46.138878" lon="13.5016633"><ele>262.0</ele><time>2026-05-02T11:26:52.144Z</time></trkpt><trkpt lat="46.1389296" lon="13.5017437"><ele>262.0</ele><time>2026-05-02T11:26:53.155Z</time></trkpt><trkpt lat="46.1389813" lon="13.5018336"><ele>262.0</ele><time>2026-05-02T11:26:54.15Z</time></trkpt><trkpt lat="46.1390419" lon="13.5019321"><ele>262.0</ele><time>2026-05-02T11:26:55.153Z</time></trkpt><trkpt lat="46.1391128" lon="13.5020434"><ele>262.0</ele><time>2026-05-02T11:26:56.148Z</time></trkpt><trkpt lat="46.1391684" lon="13.5021581"><ele>262.0</ele><time>2026-05-02T11:26:57.15Z</time></trkpt><trkpt lat="46.1392152" lon="13.5022581"><ele>262.0</ele><time>2026-05-02T11:26:58.149Z</time></trkpt><trkpt lat="46.1392538" lon="13.5023666"><ele>264.0</ele><time>2026-05-02T11:26:59.146Z</time></trkpt><trkpt lat="46.1392948" lon="13.5024667"><ele>266.0</ele><time>2026-05-02T11:27:00.148Z</time></trkpt><trkpt lat="46.1393404" lon="13.5025505"><ele>268.0</ele><time>2026-05-02T11:27:01.151Z</time></trkpt><trkpt lat="46.1393851" lon="13.502622"><ele>270.0</ele><time>2026-05-02T11:27:02.134Z</time></trkpt><trkpt lat="46.1394407" lon="13.5026696"><ele>272.0</ele><time>2026-05-02T11:27:03.152Z</time></trkpt><trkpt lat="46.1395118" lon="13.5026945"><ele>274.0</ele><time>2026-05-02T11:27:04.146Z</time></trkpt><trkpt lat="46.1395868" lon="13.5027186"><ele>276.0</ele><time>2026-05-02T11:27:05.149Z</time></trkpt><trkpt lat="46.1396729" lon="13.5027314"><ele>276.0</ele><time>2026-05-02T11:27:06.172Z</time></trkpt><trkpt lat="46.1397707" lon="13.5027139"><ele>276.0</ele><time>2026-05-02T11:27:07.166Z</time></trkpt><trkpt lat="46.1398737" lon="13.5026956"><ele>276.0</ele><time>2026-05-02T11:27:08.141Z</time></trkpt><trkpt lat="46.1399741" lon="13.5026714"><ele>276.0</ele><time>2026-05-02T11:27:09.163Z</time></trkpt><trkpt lat="46.1400787" lon="13.502648"><ele>276.0</ele><time>2026-05-02T11:27:10.164Z</time></trkpt><trkpt lat="46.1401721" lon="13.5026261"><ele>280.0</ele><time>2026-05-02T11:27:11.146Z</time></trkpt><trkpt lat="46.1402656" lon="13.502602"><ele>284.0</ele><time>2026-05-02T11:27:12.141Z</time></trkpt><trkpt lat="46.1403683" lon="13.502578"><ele>288.0</ele><time>2026-05-02T11:27:13.142Z</time></trkpt><trkpt lat="46.1404622" lon="13.5025574"><ele>292.0</ele><time>2026-05-02T11:27:14.135Z</time></trkpt><trkpt lat="46.1405556" lon="13.5025311"><ele>296.0</ele><time>2026-05-02T11:27:15.149Z</time></trkpt><trkpt lat="46.14065" lon="13.5025042"><ele>296.33333333333337</ele><time>2026-05-02T11:27:16.144Z</time></trkpt><trkpt lat="46.1407377" lon="13.5024698"><ele>296.6666666666667</ele><time>2026-05-02T11:27:17.134Z</time></trkpt><trkpt lat="46.140825" lon="13.502434"><ele>297.0</ele><time>2026-05-02T11:27:18.173Z</time></trkpt><trkpt lat="46.1409015" lon="13.5024056"><ele>297.3333333333333</ele><time>2026-05-02T11:27:19.148Z</time></trkpt><trkpt lat="46.1409628" lon="13.5023667"><ele>297.66666666666663</ele><time>2026-05-02T11:27:20.136Z</time></trkpt><trkpt lat="46.1410636" lon="13.5022813"><ele>298.0</ele><time>2026-05-02T11:27:22.148Z</time></trkpt><trkpt lat="46.1411612" lon="13.5022484"><ele>298.0</ele><time>2026-05-02T11:27:24.152Z</time></trkpt><trkpt lat="46.1412738" lon="13.5022691"><ele>298.0</ele><time>2026-05-02T11:27:26.139Z</time></trkpt><trkpt lat="46.1413442" lon="13.5022782"><ele>298.0</ele><time>2026-05-02T11:27:27.142Z</time></trkpt><trkpt lat="46.1414155" lon="13.5022777"><ele>298.0</ele><time>2026-05-02T11:27:28.153Z</time></trkpt><trkpt lat="46.1415064" lon="13.5022816"><ele>298.0</ele><time>2026-05-02T11:27:29.144Z</time></trkpt><trkpt lat="46.141595" lon="13.5022931"><ele>298.0</ele><time>2026-05-02T11:27:30.14Z</time></trkpt><trkpt lat="46.1416881" lon="13.5023032"><ele>300.0</ele><time>2026-05-02T11:27:31.149Z</time></trkpt><trkpt lat="46.1417901" lon="13.5023074"><ele>302.0</ele><time>2026-05-02T11:27:32.14Z</time></trkpt><trkpt lat="46.1418945" lon="13.5022985"><ele>304.0</ele><time>2026-05-02T11:27:33.151Z</time></trkpt><trkpt lat="46.1419987" lon="13.5022893"><ele>306.0</ele><time>2026-05-02T11:27:34.15Z</time></trkpt><trkpt lat="46.1421079" lon="13.5022811"><ele>308.0</ele><time>2026-05-02T11:27:35.138Z</time></trkpt><trkpt lat="46.142212" lon="13.5022711"><ele>308.0</ele><time>2026-05-02T11:27:36.135Z</time></trkpt><trkpt lat="46.142317" lon="13.5022612"><ele>308.0</ele><time>2026-05-02T11:27:37.145Z</time></trkpt><trkpt lat="46.1424147" lon="13.5022513"><ele>308.0</ele><time>2026-05-02T11:27:38.135Z</time></trkpt><trkpt lat="46.1425129" lon="13.5022428"><ele>308.0</ele><time>2026-05-02T11:27:39.135Z</time></trkpt><trkpt lat="46.142603" lon="13.5022191"><ele>308.0</ele><time>2026-05-02T11:27:40.157Z</time></trkpt><trkpt lat="46.142682" lon="13.5021989"><ele>309.5</ele><time>2026-05-02T11:27:41.144Z</time></trkpt><trkpt lat="46.1427857" lon="13.5022119"><ele>311.0</ele><time>2026-05-02T11:27:43.144Z</time></trkpt><trkpt lat="46.1427137" lon="13.5021131"><ele>312.5</ele><time>2026-05-02T11:27:52.162Z</time></trkpt><trkpt lat="46.1426637" lon="13.5020404"><ele>314.0</ele><time>2026-05-02T11:27:54.138Z</time></trkpt><trkpt lat="46.1427086" lon="13.501955"><ele>315.5</ele><time>2026-05-02T11:27:58.15Z</time></trkpt><trkpt lat="46.1428083" lon="13.5019347"><ele>317.0</ele><time>2026-05-02T11:28:00.162Z</time></trkpt><trkpt lat="46.142874" lon="13.5019016"><ele>318.1666666666667</ele><time>2026-05-02T11:28:01.158Z</time></trkpt><trkpt lat="46.1429496" lon="13.5018643"><ele>319.33333333333337</ele><time>2026-05-02T11:28:02.171Z</time></trkpt><trkpt lat="46.1430631" lon="13.5018016"><ele>320.5</ele><time>2026-05-02T11:28:04.142Z</time></trkpt><trkpt lat="46.1431261" lon="13.5018045"><ele>321.6666666666667</ele><time>2026-05-02T11:28:05.149Z</time></trkpt><trkpt lat="46.1431868" lon="13.5018311"><ele>322.8333333333333</ele><time>2026-05-02T11:28:06.149Z</time></trkpt><trkpt lat="46.1432739" lon="13.5019306"><ele>324.0</ele><time>2026-05-02T11:28:08.146Z</time></trkpt><trkpt lat="46.1433069" lon="13.5020244"><ele>326.0</ele><time>2026-05-02T11:28:09.141Z</time></trkpt><trkpt lat="46.1433415" lon="13.5021417"><ele>328.0</ele><time>2026-05-02T11:28:10.159Z</time></trkpt><trkpt lat="46.1433939" lon="13.5022693"><ele>330.0</ele><time>2026-05-02T11:28:11.133Z</time></trkpt><trkpt lat="46.1434408" lon="13.5023944"><ele>332.0</ele><time>2026-05-02T11:28:12.164Z</time></trkpt><trkpt lat="46.1434933" lon="13.5025077"><ele>334.0</ele><time>2026-05-02T11:28:13.147Z</time></trkpt><trkpt lat="46.1435505" lon="13.5026139"><ele>334.0</ele><time>2026-05-02T11:28:14.156Z</time></trkpt><trkpt lat="46.1436008" lon="13.5027243"><ele>334.0</ele><time>2026-05-02T11:28:15.143Z</time></trkpt><trkpt lat="46.1436555" lon="13.5028272"><ele>334.0</ele><time>2026-05-02T11:28:16.149Z</time></trkpt><trkpt lat="46.1437127" lon="13.5029329"><ele>334.0</ele><time>2026-05-02T11:28:17.146Z</time></trkpt><trkpt lat="46.1437749" lon="13.50303"><ele>334.0</ele><time>2026-05-02T11:28:18.146Z</time></trkpt><trkpt lat="46.1438286" lon="13.5031152"><ele>334.0</ele><time>2026-05-02T11:28:19.141Z</time></trkpt><trkpt lat="46.1438748" lon="13.5032007"><ele>332.6</ele><time>2026-05-02T11:28:20.15Z</time></trkpt><trkpt lat="46.1439641" lon="13.5033061"><ele>331.2</ele><time>2026-05-02T11:28:22.161Z</time></trkpt><trkpt lat="46.1440271" lon="13.5033599"><ele>329.8</ele><time>2026-05-02T11:28:24.148Z</time></trkpt><trkpt lat="46.1440959" lon="13.5034079"><ele>328.40000000000003</ele><time>2026-05-02T11:28:27.156Z</time></trkpt><trkpt lat="46.1440965" lon="13.5033131"><ele>327.0</ele><time>2026-05-02T11:28:30.154Z</time></trkpt><trkpt lat="46.1440606" lon="13.5031412"><ele>327.0</ele><time>2026-05-02T11:28:32.15Z</time></trkpt><trkpt lat="46.1440458" lon="13.503047"><ele>327.0</ele><time>2026-05-02T11:28:33.15Z</time></trkpt><trkpt lat="46.1440414" lon="13.5029366"><ele>327.0</ele><time>2026-05-02T11:28:34.128Z</time></trkpt><trkpt lat="46.1440427" lon="13.5028195"><ele>327.0</ele><time>2026-05-02T11:28:35.157Z</time></trkpt><trkpt lat="46.1440593" lon="13.502716"><ele>327.0</ele><time>2026-05-02T11:28:36.121Z</time></trkpt><trkpt lat="46.1440918" lon="13.5026132"><ele>327.0</ele><time>2026-05-02T11:28:37.135Z</time></trkpt><trkpt lat="46.14413" lon="13.5025144"><ele>331.6666666666667</ele><time>2026-05-02T11:28:38.118Z</time></trkpt><trkpt lat="46.1441717" lon="13.502408"><ele>336.3333333333333</ele><time>2026-05-02T11:28:39.135Z</time></trkpt><trkpt lat="46.1442202" lon="13.5023233"><ele>341.0</ele><time>2026-05-02T11:28:40.128Z</time></trkpt><trkpt lat="46.1442638" lon="13.5022543"><ele>345.66666666666663</ele><time>2026-05-02T11:28:41.131Z</time></trkpt><trkpt lat="46.1443774" lon="13.5021754"><ele>350.3333333333333</ele><time>2026-05-02T11:28:43.141Z</time></trkpt><trkpt lat="46.1444447" lon="13.502141"><ele>355.0</ele><time>2026-05-02T11:28:44.158Z</time></trkpt><trkpt lat="46.1445083" lon="13.5021204"><ele>355.0</ele><time>2026-05-02T11:28:45.138Z</time></trkpt><trkpt lat="46.1445726" lon="13.5021324"><ele>355.0</ele><time>2026-05-02T11:28:46.133Z</time></trkpt><trkpt lat="46.1446864" lon="13.5021999"><ele>355.0</ele><time>2026-05-02T11:28:48.137Z</time></trkpt><trkpt lat="46.1447921" lon="13.5022795"><ele>355.0</ele><time>2026-05-02T11:28:50.131Z</time></trkpt><trkpt lat="46.1448497" lon="13.5023275"><ele>355.0</ele><time>2026-05-02T11:28:51.147Z</time></trkpt><trkpt lat="46.1449118" lon="13.5023616"><ele>355.0</ele><time>2026-05-02T11:28:52.134Z</time></trkpt><trkpt lat="46.1449752" lon="13.5023802"><ele>354.3333333333333</ele><time>2026-05-02T11:28:53.13Z</time></trkpt><trkpt lat="46.1450871" lon="13.5024098"><ele>353.66666666666663</ele><time>2026-05-02T11:28:55.138Z</time></trkpt><trkpt lat="46.1451587" lon="13.502362"><ele>353.0</ele><time>2026-05-02T11:28:57.133Z</time></trkpt><trkpt lat="46.1452186" lon="13.5022178"><ele>352.3333333333333</ele><time>2026-05-02T11:28:59.131Z</time></trkpt><trkpt lat="46.1452651" lon="13.5021452"><ele>351.6666666666667</ele><time>2026-05-02T11:29:00.125Z</time></trkpt><trkpt lat="46.145323" lon="13.5020995"><ele>351.0</ele><time>2026-05-02T11:29:01.127Z</time></trkpt><trkpt lat="46.14539" lon="13.5020563"><ele>351.0</ele><time>2026-05-02T11:29:02.132Z</time></trkpt><trkpt lat="46.145454" lon="13.5020401"><ele>351.0</ele><time>2026-05-02T11:29:03.143Z</time></trkpt><trkpt lat="46.1455306" lon="13.5020331"><ele>351.0</ele><time>2026-05-02T11:29:04.142Z</time></trkpt><trkpt lat="46.145613" lon="13.5020326"><ele>351.0</ele><time>2026-05-02T11:29:05.132Z</time></trkpt><trkpt lat="46.1457046" lon="13.5020295"><ele>351.0</ele><time>2026-05-02T11:29:06.137Z</time></trkpt><trkpt lat="46.1457936" lon="13.5020046"><ele>351.0</ele><time>2026-05-02T11:29:07.133Z</time></trkpt><trkpt lat="46.1458684" lon="13.5019872"><ele>353.8333333333333</ele><time>2026-05-02T11:29:08.138Z</time></trkpt><trkpt lat="46.1459894" lon="13.502"><ele>356.6666666666667</ele><time>2026-05-02T11:29:10.147Z</time></trkpt><trkpt lat="46.1460484" lon="13.5020323"><ele>359.5</ele><time>2026-05-02T11:29:11.132Z</time></trkpt><trkpt lat="46.1461127" lon="13.502081"><ele>362.33333333333337</ele><time>2026-05-02T11:29:12.144Z</time></trkpt><trkpt lat="46.1461913" lon="13.5021354"><ele>365.1666666666667</ele><time>2026-05-02T11:29:13.137Z</time></trkpt><trkpt lat="46.1462704" lon="13.5022087"><ele>368.0</ele><time>2026-05-02T11:29:14.148Z</time></trkpt><trkpt lat="46.1463475" lon="13.5022535"><ele>370.5</ele><time>2026-05-02T11:29:15.133Z</time></trkpt><trkpt lat="46.1464254" lon="13.5022715"><ele>373.0</ele><time>2026-05-02T11:29:16.124Z</time></trkpt><trkpt lat="46.1465051" lon="13.5022674"><ele>375.5</ele><time>2026-05-02T11:29:17.137Z</time></trkpt><trkpt lat="46.1465787" lon="13.502264"><ele>378.0</ele><time>2026-05-02T11:29:18.132Z</time></trkpt><trkpt lat="46.1466543" lon="13.5022701"><ele>380.5</ele><time>2026-05-02T11:29:19.138Z</time></trkpt><trkpt lat="46.1467842" lon="13.5022934"><ele>383.0</ele><time>2026-05-02T11:29:21.147Z</time></trkpt><trkpt lat="46.1468488" lon="13.5023252"><ele>384.0</ele><time>2026-05-02T11:29:22.154Z</time></trkpt><trkpt lat="46.1469148" lon="13.5023667"><ele>385.0</ele><time>2026-05-02T11:29:23.144Z</time></trkpt><trkpt lat="46.1469772" lon="13.5024148"><ele>386.0</ele><time>2026-05-02T11:29:24.129Z</time></trkpt><trkpt lat="46.14704" lon="13.5024597"><ele>387.0</ele><time>2026-05-02T11:29:25.141Z</time></trkpt><trkpt lat="46.1470912" lon="13.5025287"><ele>388.0</ele><time>2026-05-02T11:29:26.143Z</time></trkpt><trkpt lat="46.1471487" lon="13.5026067"><ele>389.0</ele><time>2026-05-02T11:29:27.133Z</time></trkpt><trkpt lat="46.1472065" lon="13.5026805"><ele>390.0</ele><time>2026-05-02T11:29:28.134Z</time></trkpt><trkpt lat="46.1472612" lon="13.5027371"><ele>390.0</ele><time>2026-05-02T11:29:29.134Z</time></trkpt><trkpt lat="46.1473329" lon="13.5027844"><ele>390.0</ele><time>2026-05-02T11:29:30.135Z</time></trkpt><trkpt lat="46.1474041" lon="13.5028032"><ele>390.0</ele><time>2026-05-02T11:29:31.135Z</time></trkpt><trkpt lat="46.1475346" lon="13.5028101"><ele>390.0</ele><time>2026-05-02T11:29:33.124Z</time></trkpt><trkpt lat="46.1476047" lon="13.502805"><ele>390.0</ele><time>2026-05-02T11:29:34.13Z</time></trkpt><trkpt lat="46.1476755" lon="13.5027802"><ele>390.0</ele><time>2026-05-02T11:29:35.127Z</time></trkpt><trkpt lat="46.1477839" lon="13.5027127"><ele>390.6666666666667</ele><time>2026-05-02T11:29:37.129Z</time></trkpt><trkpt lat="46.147834" lon="13.5026532"><ele>391.33333333333337</ele><time>2026-05-02T11:29:38.12Z</time></trkpt><trkpt lat="46.1478952" lon="13.5025997"><ele>392.0</ele><time>2026-05-02T11:29:39.133Z</time></trkpt><trkpt lat="46.1479516" lon="13.5025338"><ele>392.6666666666667</ele><time>2026-05-02T11:29:40.133Z</time></trkpt><trkpt lat="46.1480283" lon="13.5024796"><ele>393.33333333333337</ele><time>2026-05-02T11:29:41.137Z</time></trkpt><trkpt lat="46.1481021" lon="13.5024155"><ele>394.0</ele><time>2026-05-02T11:29:42.12Z</time></trkpt><trkpt lat="46.1481802" lon="13.5023444"><ele>394.33333333333337</ele><time>2026-05-02T11:29:43.125Z</time></trkpt><trkpt lat="46.1482494" lon="13.5022875"><ele>394.6666666666667</ele><time>2026-05-02T11:29:44.139Z</time></trkpt><trkpt lat="46.1483" lon="13.5022232"><ele>395.0</ele><time>2026-05-02T11:29:45.145Z</time></trkpt><trkpt lat="46.1483602" lon="13.5021025"><ele>395.33333333333337</ele><time>2026-05-02T11:29:47.14Z</time></trkpt><trkpt lat="46.1484321" lon="13.5019473"><ele>395.6666666666667</ele><time>2026-05-02T11:29:49.138Z</time></trkpt><trkpt lat="46.1484831" lon="13.5018857"><ele>396.0</ele><time>2026-05-02T11:29:50.149Z</time></trkpt><trkpt lat="46.1485315" lon="13.5018117"><ele>396.0</ele><time>2026-05-02T11:29:51.141Z</time></trkpt><trkpt lat="46.1485852" lon="13.5017319"><ele>396.0</ele><time>2026-05-02T11:29:52.13Z</time></trkpt><trkpt lat="46.1486404" lon="13.5016688"><ele>396.0</ele><time>2026-05-02T11:29:53.123Z</time></trkpt><trkpt lat="46.1487011" lon="13.5015981"><ele>396.0</ele><time>2026-05-02T11:29:54.121Z</time></trkpt><trkpt lat="46.1487653" lon="13.5015335"><ele>396.0</ele><time>2026-05-02T11:29:55.142Z</time></trkpt><trkpt lat="46.1488272" lon="13.501485"><ele>396.0</ele><time>2026-05-02T11:29:56.144Z</time></trkpt><trkpt lat="46.1488956" lon="13.501447"><ele>396.0</ele><time>2026-05-02T11:29:57.146Z</time></trkpt><trkpt lat="46.1489608" lon="13.5014321"><ele>396.0</ele><time>2026-05-02T11:29:58.147Z</time></trkpt><trkpt lat="46.1490315" lon="13.5014268"><ele>396.0</ele><time>2026-05-02T11:29:59.127Z</time></trkpt><trkpt lat="46.1491499" lon="13.501444"><ele>396.0</ele><time>2026-05-02T11:30:01.14Z</time></trkpt><trkpt lat="46.1492209" lon="13.5014782"><ele>396.0</ele><time>2026-05-02T11:30:02.142Z</time></trkpt><trkpt lat="46.1492809" lon="13.5015187"><ele>396.0</ele><time>2026-05-02T11:30:03.142Z</time></trkpt><trkpt lat="46.1493401" lon="13.5015886"><ele>396.0</ele><time>2026-05-02T11:30:04.141Z</time></trkpt><trkpt lat="46.1494206" lon="13.5016463"><ele>399.0</ele><time>2026-05-02T11:30:05.138Z</time></trkpt><trkpt lat="46.1495006" lon="13.5016938"><ele>402.0</ele><time>2026-05-02T11:30:06.126Z</time></trkpt><trkpt lat="46.1495836" lon="13.5017185"><ele>405.0</ele><time>2026-05-02T11:30:07.135Z</time></trkpt><trkpt lat="46.1496709" lon="13.5017403"><ele>408.0</ele><time>2026-05-02T11:30:08.139Z</time></trkpt><trkpt lat="46.1497494" lon="13.5017658"><ele>411.0</ele><time>2026-05-02T11:30:09.133Z</time></trkpt><trkpt lat="46.1498064" lon="13.5018078"><ele>414.0</ele><time>2026-05-02T11:30:10.155Z</time></trkpt><trkpt lat="46.1499271" lon="13.5018588"><ele>415.3333333333333</ele><time>2026-05-02T11:30:12.142Z</time></trkpt><trkpt lat="46.1499927" lon="13.5018946"><ele>416.66666666666663</ele><time>2026-05-02T11:30:13.132Z</time></trkpt><trkpt lat="46.1500594" lon="13.5019236"><ele>418.0</ele><time>2026-05-02T11:30:14.141Z</time></trkpt><trkpt lat="46.1501374" lon="13.5019363"><ele>419.3333333333333</ele><time>2026-05-02T11:30:15.129Z</time></trkpt><trkpt lat="46.1502213" lon="13.5019534"><ele>420.66666666666663</ele><time>2026-05-02T11:30:16.125Z</time></trkpt><trkpt lat="46.1503106" lon="13.5019656"><ele>422.0</ele><time>2026-05-02T11:30:17.135Z</time></trkpt><trkpt lat="46.150395" lon="13.5019707"><ele>422.0</ele><time>2026-05-02T11:30:18.134Z</time></trkpt><trkpt lat="46.1504608" lon="13.5019692"><ele>422.0</ele><time>2026-05-02T11:30:19.134Z</time></trkpt><trkpt lat="46.1505461" lon="13.5019166"><ele>422.0</ele><time>2026-05-02T11:30:21.131Z</time></trkpt><trkpt lat="46.1506044" lon="13.501768"><ele>422.0</ele><time>2026-05-02T11:30:23.135Z</time></trkpt><trkpt lat="46.150605" lon="13.5016394"><ele>422.0</ele><time>2026-05-02T11:30:24.135Z</time></trkpt><trkpt lat="46.1506318" lon="13.5015125"><ele>422.0</ele><time>2026-05-02T11:30:25.132Z</time></trkpt><trkpt lat="46.1506747" lon="13.501416"><ele>422.0</ele><time>2026-05-02T11:30:26.138Z</time></trkpt><trkpt lat="46.1507511" lon="13.5012777"><ele>422.0</ele><time>2026-05-02T11:30:28.12Z</time></trkpt><trkpt lat="46.1508659" lon="13.5012158"><ele>422.0</ele><time>2026-05-02T11:30:30.149Z</time></trkpt><trkpt lat="46.1509747" lon="13.5012337"><ele>422.0</ele><time>2026-05-02T11:30:32.14Z</time></trkpt><trkpt lat="46.1510811" lon="13.5012499"><ele>421.20000000000005</ele><time>2026-05-02T11:30:34.137Z</time></trkpt><trkpt lat="46.1511606" lon="13.5012288"><ele>420.4</ele><time>2026-05-02T11:30:36.136Z</time></trkpt><trkpt lat="46.151203" lon="13.5010801"><ele>419.6</ele><time>2026-05-02T11:30:38.147Z</time></trkpt><trkpt lat="46.1512462" lon="13.5009261"><ele>418.79999999999995</ele><time>2026-05-02T11:30:40.139Z</time></trkpt><trkpt lat="46.1512968" lon="13.5007857"><ele>418.0</ele><time>2026-05-02T11:30:42.133Z</time></trkpt><trkpt lat="46.1513432" lon="13.5006745"><ele>418.0</ele><time>2026-05-02T11:30:44.136Z</time></trkpt><trkpt lat="46.1514043" lon="13.5006143"><ele>418.0</ele><time>2026-05-02T11:30:46.143Z</time></trkpt><trkpt lat="46.1515153" lon="13.5006308"><ele>418.0</ele><time>2026-05-02T11:30:48.142Z</time></trkpt><trkpt lat="46.1515872" lon="13.5006569"><ele>418.0</ele><time>2026-05-02T11:30:49.149Z</time></trkpt><trkpt lat="46.1517228" lon="13.5006434"><ele>418.0</ele><time>2026-05-02T11:30:51.151Z</time></trkpt><trkpt lat="46.1518027" lon="13.5006365"><ele>423.79999999999995</ele><time>2026-05-02T11:30:52.153Z</time></trkpt><trkpt lat="46.1518803" lon="13.5006279"><ele>429.6</ele><time>2026-05-02T11:30:53.138Z</time></trkpt><trkpt lat="46.1519522" lon="13.500619"><ele>435.40000000000003</ele><time>2026-05-02T11:30:54.136Z</time></trkpt><trkpt lat="46.1520768" lon="13.5006024"><ele>441.20000000000005</ele><time>2026-05-02T11:30:56.145Z</time></trkpt><trkpt lat="46.1522415" lon="13.5006113"><ele>447.0</ele><time>2026-05-02T11:30:59.143Z</time></trkpt><trkpt lat="46.1523703" lon="13.5006684"><ele>449.3333333333333</ele><time>2026-05-02T11:31:01.134Z</time></trkpt><trkpt lat="46.1524361" lon="13.5007197"><ele>451.66666666666663</ele><time>2026-05-02T11:31:02.149Z</time></trkpt><trkpt lat="46.1525039" lon="13.5007671"><ele>454.0</ele><time>2026-05-02T11:31:03.138Z</time></trkpt><trkpt lat="46.1525617" lon="13.5008254"><ele>456.3333333333333</ele><time>2026-05-02T11:31:04.155Z</time></trkpt><trkpt lat="46.1526287" lon="13.5009121"><ele>458.66666666666663</ele><time>2026-05-02T11:31:05.15Z</time></trkpt><trkpt lat="46.152699" lon="13.5009987"><ele>461.0</ele><time>2026-05-02T11:31:06.138Z</time></trkpt><trkpt lat="46.1527703" lon="13.5010838"><ele>460.99999999999994</ele><time>2026-05-02T11:31:07.124Z</time></trkpt><trkpt lat="46.1528219" lon="13.5011656"><ele>461.0</ele><time>2026-05-02T11:31:08.132Z</time></trkpt><trkpt lat="46.1528958" lon="13.5012226"><ele>461.0</ele><time>2026-05-02T11:31:09.123Z</time></trkpt><trkpt lat="46.1529872" lon="13.5012629"><ele>461.0</ele><time>2026-05-02T11:31:10.123Z</time></trkpt><trkpt lat="46.1530844" lon="13.5012833"><ele>460.99999999999994</ele><time>2026-05-02T11:31:11.137Z</time></trkpt><trkpt lat="46.1531767" lon="13.5012848"><ele>461.0</ele><time>2026-05-02T11:31:12.127Z</time></trkpt><trkpt lat="46.1532469" lon="13.5012851"><ele>462.8333333333333</ele><time>2026-05-02T11:31:13.13Z</time></trkpt><trkpt lat="46.1533288" lon="13.5012592"><ele>464.66666666666663</ele><time>2026-05-02T11:31:14.146Z</time></trkpt><trkpt lat="46.153406" lon="13.5012454"><ele>466.5</ele><time>2026-05-02T11:31:15.136Z</time></trkpt><trkpt lat="46.153478" lon="13.5012347"><ele>468.33333333333337</ele><time>2026-05-02T11:31:16.134Z</time></trkpt><trkpt lat="46.153541" lon="13.5012276"><ele>470.1666666666667</ele><time>2026-05-02T11:31:17.138Z</time></trkpt><trkpt lat="46.1536246" lon="13.5011933"><ele>472.0</ele><time>2026-05-02T11:31:18.16Z</time></trkpt><trkpt lat="46.1537047" lon="13.5011383"><ele>468.33333333333337</ele><time>2026-05-02T11:31:19.137Z</time></trkpt><trkpt lat="46.1537905" lon="13.5010828"><ele>464.6666666666667</ele><time>2026-05-02T11:31:20.148Z</time></trkpt><trkpt lat="46.1538789" lon="13.5010207"><ele>461.0</ele><time>2026-05-02T11:31:21.134Z</time></trkpt><trkpt lat="46.1539675" lon="13.50095"><ele>457.33333333333337</ele><time>2026-05-02T11:31:22.132Z</time></trkpt><trkpt lat="46.1540289" lon="13.500901"><ele>453.6666666666667</ele><time>2026-05-02T11:31:23.144Z</time></trkpt><trkpt lat="46.1540846" lon="13.5008456"><ele>450.0</ele><time>2026-05-02T11:31:24.136Z</time></trkpt><trkpt lat="46.1541512" lon="13.5008052"><ele>449.5</ele><time>2026-05-02T11:31:25.129Z</time></trkpt><trkpt lat="46.1542416" lon="13.5007853"><ele>449.0</ele><time>2026-05-02T11:31:26.134Z</time></trkpt><trkpt lat="46.1543275" lon="13.5007944"><ele>448.5</ele><time>2026-05-02T11:31:27.133Z</time></trkpt><trkpt lat="46.1544025" lon="13.5008077"><ele>448.0</ele><time>2026-05-02T11:31:28.141Z</time></trkpt><trkpt lat="46.1544714" lon="13.5008584"><ele>447.5</ele><time>2026-05-02T11:31:29.144Z</time></trkpt><trkpt lat="46.1545215" lon="13.5009138"><ele>447.0</ele><time>2026-05-02T11:31:30.134Z</time></trkpt><trkpt lat="46.1545534" lon="13.501049"><ele>447.0</ele><time>2026-05-02T11:31:32.132Z</time></trkpt><trkpt lat="46.1545636" lon="13.5011397"><ele>447.0</ele><time>2026-05-02T11:31:33.146Z</time></trkpt><trkpt lat="46.1545834" lon="13.5012281"><ele>447.0</ele><time>2026-05-02T11:31:34.137Z</time></trkpt><trkpt lat="46.1546165" lon="13.5013344"><ele>447.0</ele><time>2026-05-02T11:31:35.134Z</time></trkpt><trkpt lat="46.1546494" lon="13.5014605"><ele>447.0</ele><time>2026-05-02T11:31:36.126Z</time></trkpt><trkpt lat="46.1546833" lon="13.5015876"><ele>447.0</ele><time>2026-05-02T11:31:37.145Z</time></trkpt><trkpt lat="46.1547289" lon="13.5017043"><ele>447.2857142857142</ele><time>2026-05-02T11:31:38.142Z</time></trkpt><trkpt lat="46.1547789" lon="13.5017877"><ele>447.57142857142856</ele><time>2026-05-02T11:31:39.139Z</time></trkpt><trkpt lat="46.1548406" lon="13.5018513"><ele>447.85714285714283</ele><time>2026-05-02T11:31:40.165Z</time></trkpt><trkpt lat="46.1549157" lon="13.5018795"><ele>448.1428571428571</ele><time>2026-05-02T11:31:41.127Z</time></trkpt><trkpt lat="46.1549839" lon="13.5018784"><ele>448.4285714285714</ele><time>2026-05-02T11:31:42.147Z</time></trkpt><trkpt lat="46.1550512" lon="13.501874"><ele>448.71428571428567</ele><time>2026-05-02T11:31:43.138Z</time></trkpt><trkpt lat="46.1551304" lon="13.5018557"><ele>449.0</ele><time>2026-05-02T11:31:44.12Z</time></trkpt><trkpt lat="46.1552099" lon="13.5018384"><ele>449.0</ele><time>2026-05-02T11:31:45.134Z</time></trkpt><trkpt lat="46.1553025" lon="13.501806"><ele>449.0</ele><time>2026-05-02T11:31:46.122Z</time></trkpt><trkpt lat="46.1553941" lon="13.5017803"><ele>449.0</ele><time>2026-05-02T11:31:47.122Z</time></trkpt><trkpt lat="46.1554867" lon="13.5017459"><ele>449.0</ele><time>2026-05-02T11:31:48.134Z</time></trkpt><trkpt lat="46.1555658" lon="13.5017182"><ele>449.0</ele><time>2026-05-02T11:31:49.128Z</time></trkpt><trkpt lat="46.1557007" lon="13.5016714"><ele>447.2857142857143</ele><time>2026-05-02T11:31:51.147Z</time></trkpt><trkpt lat="46.1557646" lon="13.5016671"><ele>445.57142857142856</ele><time>2026-05-02T11:31:52.124Z</time></trkpt><trkpt lat="46.1558341" lon="13.5016774"><ele>443.85714285714283</ele><time>2026-05-02T11:31:53.137Z</time></trkpt><trkpt lat="46.1558975" lon="13.5017083"><ele>442.1428571428571</ele><time>2026-05-02T11:31:54.131Z</time></trkpt><trkpt lat="46.1559656" lon="13.5017602"><ele>440.42857142857144</ele><time>2026-05-02T11:31:55.136Z</time></trkpt><trkpt lat="46.1560366" lon="13.5017919"><ele>438.71428571428567</ele><time>2026-05-02T11:31:56.144Z</time></trkpt><trkpt lat="46.1561198" lon="13.5018402"><ele>437.0</ele><time>2026-05-02T11:31:57.125Z</time></trkpt><trkpt lat="46.156205" lon="13.5018755"><ele>437.0</ele><time>2026-05-02T11:31:58.137Z</time></trkpt><trkpt lat="46.156281" lon="13.5019169"><ele>437.00000000000006</ele><time>2026-05-02T11:31:59.134Z</time></trkpt><trkpt lat="46.1563508" lon="13.501957"><ele>437.00000000000006</ele><time>2026-05-02T11:32:00.137Z</time></trkpt><trkpt lat="46.1564358" lon="13.5019679"><ele>437.0</ele><time>2026-05-02T11:32:01.141Z</time></trkpt><trkpt lat="46.1565564" lon="13.5019372"><ele>437.0</ele><time>2026-05-02T11:32:02.15Z</time></trkpt><trkpt lat="46.1566918" lon="13.5018644"><ele>437.0</ele><time>2026-05-02T11:32:03.161Z</time></trkpt><trkpt lat="46.1567915" lon="13.5017684"><ele>437.0</ele><time>2026-05-02T11:32:04.138Z</time></trkpt><trkpt lat="46.1568797" lon="13.5016672"><ele>437.0</ele><time>2026-05-02T11:32:05.133Z</time></trkpt><trkpt lat="46.1569599" lon="13.5015541"><ele>437.0</ele><time>2026-05-02T11:32:06.139Z</time></trkpt><trkpt lat="46.1570489" lon="13.5014338"><ele>437.0</ele><time>2026-05-02T11:32:07.141Z</time></trkpt><trkpt lat="46.1571545" lon="13.5013376"><ele>437.0</ele><time>2026-05-02T11:32:08.15Z</time></trkpt><trkpt lat="46.1572558" lon="13.5012522"><ele>437.0</ele><time>2026-05-02T11:32:09.155Z</time></trkpt><trkpt lat="46.1573595" lon="13.5011673"><ele>437.0</ele><time>2026-05-02T11:32:10.145Z</time></trkpt><trkpt lat="46.1574575" lon="13.5010907"><ele>438.3333333333333</ele><time>2026-05-02T11:32:11.14Z</time></trkpt><trkpt lat="46.1575335" lon="13.501009"><ele>439.66666666666663</ele><time>2026-05-02T11:32:12.123Z</time></trkpt><trkpt lat="46.1576029" lon="13.500942"><ele>441.0</ele><time>2026-05-02T11:32:13.151Z</time></trkpt><trkpt lat="46.1576775" lon="13.5008955"><ele>442.33333333333337</ele><time>2026-05-02T11:32:14.158Z</time></trkpt><trkpt lat="46.1577522" lon="13.500893"><ele>443.6666666666667</ele><time>2026-05-02T11:32:15.129Z</time></trkpt><trkpt lat="46.1578391" lon="13.5009665"><ele>445.0</ele><time>2026-05-02T11:32:16.131Z</time></trkpt><trkpt lat="46.1579038" lon="13.5010703"><ele>445.00000000000006</ele><time>2026-05-02T11:32:17.137Z</time></trkpt><trkpt lat="46.1579468" lon="13.5012082"><ele>445.0</ele><time>2026-05-02T11:32:18.132Z</time></trkpt><trkpt lat="46.1579725" lon="13.5013392"><ele>445.0</ele><time>2026-05-02T11:32:19.152Z</time></trkpt><trkpt lat="46.1580155" lon="13.5014658"><ele>445.0</ele><time>2026-05-02T11:32:20.144Z</time></trkpt><trkpt lat="46.1580522" lon="13.501544"><ele>445.00000000000006</ele><time>2026-05-02T11:32:21.157Z</time></trkpt><trkpt lat="46.1580797" lon="13.5016271"><ele>445.0</ele><time>2026-05-02T11:32:23.126Z</time></trkpt><trkpt lat="46.1581777" lon="13.5015611"><ele>448.33333333333337</ele><time>2026-05-02T11:32:25.153Z</time></trkpt><trkpt lat="46.158239" lon="13.5014964"><ele>451.6666666666667</ele><time>2026-05-02T11:32:26.142Z</time></trkpt><trkpt lat="46.1583075" lon="13.501439"><ele>455.0</ele><time>2026-05-02T11:32:27.138Z</time></trkpt><trkpt lat="46.1583809" lon="13.5013951"><ele>458.33333333333337</ele><time>2026-05-02T11:32:28.135Z</time></trkpt><trkpt lat="46.1584553" lon="13.5013789"><ele>461.6666666666667</ele><time>2026-05-02T11:32:29.134Z</time></trkpt><trkpt lat="46.1585283" lon="13.5013912"><ele>465.0</ele><time>2026-05-02T11:32:30.136Z</time></trkpt><trkpt lat="46.1586095" lon="13.5014354"><ele>465.0</ele><time>2026-05-02T11:32:31.14Z</time></trkpt><trkpt lat="46.1586909" lon="13.5014741"><ele>465.0</ele><time>2026-05-02T11:32:32.133Z</time></trkpt><trkpt lat="46.1587837" lon="13.5015208"><ele>465.0</ele><time>2026-05-02T11:32:33.135Z</time></trkpt><trkpt lat="46.1588651" lon="13.5015733"><ele>465.0</ele><time>2026-05-02T11:32:34.138Z</time></trkpt><trkpt lat="46.1589324" lon="13.5015984"><ele>465.0</ele><time>2026-05-02T11:32:35.152Z</time></trkpt><trkpt lat="46.1589989" lon="13.5015982"><ele>465.0</ele><time>2026-05-02T11:32:36.14Z</time></trkpt><trkpt lat="46.1590593" lon="13.5015659"><ele>465.2857142857143</ele><time>2026-05-02T11:32:37.123Z</time></trkpt><trkpt lat="46.159115" lon="13.501522"><ele>465.57142857142856</ele><time>2026-05-02T11:32:38.134Z</time></trkpt><trkpt lat="46.1591611" lon="13.5014601"><ele>465.85714285714283</ele><time>2026-05-02T11:32:39.132Z</time></trkpt><trkpt lat="46.1592037" lon="13.5013882"><ele>466.1428571428571</ele><time>2026-05-02T11:32:40.144Z</time></trkpt><trkpt lat="46.1592471" lon="13.5013122"><ele>466.42857142857144</ele><time>2026-05-02T11:32:41.141Z</time></trkpt><trkpt lat="46.1592839" lon="13.5012318"><ele>466.71428571428567</ele><time>2026-05-02T11:32:42.133Z</time></trkpt><trkpt lat="46.1593265" lon="13.5011567"><ele>466.99999999999994</ele><time>2026-05-02T11:32:43.119Z</time></trkpt><trkpt lat="46.1593698" lon="13.5010749"><ele>466.99999999999994</ele><time>2026-05-02T11:32:44.143Z</time></trkpt><trkpt lat="46.1594112" lon="13.5010036"><ele>467.0</ele><time>2026-05-02T11:32:45.129Z</time></trkpt><trkpt lat="46.1594652" lon="13.5009306"><ele>467.0</ele><time>2026-05-02T11:32:46.123Z</time></trkpt><trkpt lat="46.1595277" lon="13.5008563"><ele>467.0</ele><time>2026-05-02T11:32:47.127Z</time></trkpt><trkpt lat="46.1595856" lon="13.5007719"><ele>466.99999999999994</ele><time>2026-05-02T11:32:48.138Z</time></trkpt><trkpt lat="46.159645" lon="13.5006936"><ele>467.0</ele><time>2026-05-02T11:32:49.125Z</time></trkpt><trkpt lat="46.1597204" lon="13.5006183"><ele>466.99999999999994</ele><time>2026-05-02T11:32:50.139Z</time></trkpt><trkpt lat="46.1597998" lon="13.5005447"><ele>467.0</ele><time>2026-05-02T11:32:51.123Z</time></trkpt><trkpt lat="46.1598791" lon="13.5004759"><ele>467.0</ele><time>2026-05-02T11:32:52.146Z</time></trkpt><trkpt lat="46.1599589" lon="13.5004123"><ele>467.0</ele><time>2026-05-02T11:32:53.137Z</time></trkpt><trkpt lat="46.1600318" lon="13.5003729"><ele>466.99999999999994</ele><time>2026-05-02T11:32:54.133Z</time></trkpt><trkpt lat="46.1601049" lon="13.5003242"><ele>467.0</ele><time>2026-05-02T11:32:55.139Z</time></trkpt><trkpt lat="46.1601753" lon="13.500275"><ele>467.99999999999994</ele><time>2026-05-02T11:32:56.14Z</time></trkpt><trkpt lat="46.1602356" lon="13.5002267"><ele>469.0</ele><time>2026-05-02T11:32:57.141Z</time></trkpt><trkpt lat="46.1602956" lon="13.5001723"><ele>470.0</ele><time>2026-05-02T11:32:58.137Z</time></trkpt><trkpt lat="46.1603597" lon="13.5000967"><ele>471.0</ele><time>2026-05-02T11:32:59.129Z</time></trkpt><trkpt lat="46.1604139" lon="13.5000062"><ele>471.99999999999994</ele><time>2026-05-02T11:33:00.15Z</time></trkpt><trkpt lat="46.1604677" lon="13.4999126"><ele>473.0</ele><time>2026-05-02T11:33:01.148Z</time></trkpt><trkpt lat="46.1605255" lon="13.4998181"><ele>473.0</ele><time>2026-05-02T11:33:02.14Z</time></trkpt><trkpt lat="46.1605902" lon="13.499721"><ele>472.99999999999994</ele><time>2026-05-02T11:33:03.144Z</time></trkpt><trkpt lat="46.1606613" lon="13.4996288"><ele>472.99999999999994</ele><time>2026-05-02T11:33:04.16Z</time></trkpt><trkpt lat="46.1607399" lon="13.4995178"><ele>473.0</ele><time>2026-05-02T11:33:05.15Z</time></trkpt><trkpt lat="46.1608205" lon="13.4994015"><ele>473.0</ele><time>2026-05-02T11:33:06.143Z</time></trkpt><trkpt lat="46.1608936" lon="13.4992792"><ele>475.2</ele><time>2026-05-02T11:33:07.146Z</time></trkpt><trkpt lat="46.1609697" lon="13.4991606"><ele>477.4</ele><time>2026-05-02T11:33:08.138Z</time></trkpt><trkpt lat="46.161039" lon="13.4990591"><ele>479.59999999999997</ele><time>2026-05-02T11:33:09.153Z</time></trkpt><trkpt lat="46.1611001" lon="13.4989635"><ele>481.79999999999995</ele><time>2026-05-02T11:33:10.13Z</time></trkpt><trkpt lat="46.1611659" lon="13.4988734"><ele>484.0</ele><time>2026-05-02T11:33:11.129Z</time></trkpt><trkpt lat="46.1612325" lon="13.4987887"><ele>485.83333333333337</ele><time>2026-05-02T11:33:12.134Z</time></trkpt><trkpt lat="46.1613128" lon="13.4987113"><ele>487.6666666666667</ele><time>2026-05-02T11:33:13.127Z</time></trkpt><trkpt lat="46.1613843" lon="13.4986352"><ele>489.5</ele><time>2026-05-02T11:33:14.126Z</time></trkpt><trkpt lat="46.1614504" lon="13.4985592"><ele>491.33333333333337</ele><time>2026-05-02T11:33:15.142Z</time></trkpt><trkpt lat="46.1615106" lon="13.4984739"><ele>493.1666666666667</ele><time>2026-05-02T11:33:16.141Z</time></trkpt><trkpt lat="46.1615794" lon="13.4983889"><ele>495.0</ele><time>2026-05-02T11:33:17.137Z</time></trkpt><trkpt lat="46.1616444" lon="13.4983071"><ele>495.0</ele><time>2026-05-02T11:33:18.14Z</time></trkpt><trkpt lat="46.1617086" lon="13.4982416"><ele>495.0</ele><time>2026-05-02T11:33:19.131Z</time></trkpt><trkpt lat="46.1617818" lon="13.4981879"><ele>495.0</ele><time>2026-05-02T11:33:20.14Z</time></trkpt><trkpt lat="46.161847" lon="13.4981442"><ele>495.0</ele><time>2026-05-02T11:33:21.124Z</time></trkpt><trkpt lat="46.1619525" lon="13.4981055"><ele>495.0</ele><time>2026-05-02T11:33:23.142Z</time></trkpt><trkpt lat="46.1620738" lon="13.4980698"><ele>495.0</ele><time>2026-05-02T11:33:25.14Z</time></trkpt><trkpt lat="46.1621981" lon="13.4980154"><ele>495.0</ele><time>2026-05-02T11:33:27.127Z</time></trkpt><trkpt lat="46.1622573" lon="13.4979728"><ele>495.0</ele><time>2026-05-02T11:33:28.134Z</time></trkpt><trkpt lat="46.1623259" lon="13.4979274"><ele>495.0</ele><time>2026-05-02T11:33:29.134Z</time></trkpt><trkpt lat="46.1623947" lon="13.4978937"><ele>495.0</ele><time>2026-05-02T11:33:30.137Z</time></trkpt><trkpt lat="46.1624651" lon="13.4978499"><ele>495.0</ele><time>2026-05-02T11:33:31.139Z</time></trkpt><trkpt lat="46.1625414" lon="13.4977979"><ele>494.3333333333333</ele><time>2026-05-02T11:33:32.15Z</time></trkpt><trkpt lat="46.1626123" lon="13.4977282"><ele>493.66666666666663</ele><time>2026-05-02T11:33:33.138Z</time></trkpt><trkpt lat="46.1626845" lon="13.4976689"><ele>493.0</ele><time>2026-05-02T11:33:34.145Z</time></trkpt><trkpt lat="46.1627605" lon="13.4976062"><ele>492.3333333333333</ele><time>2026-05-02T11:33:35.147Z</time></trkpt><trkpt lat="46.1628343" lon="13.4975528"><ele>491.66666666666663</ele><time>2026-05-02T11:33:36.139Z</time></trkpt><trkpt lat="46.1629068" lon="13.4974912"><ele>491.0</ele><time>2026-05-02T11:33:37.129Z</time></trkpt><trkpt lat="46.1629726" lon="13.4974372"><ele>491.0</ele><time>2026-05-02T11:33:38.129Z</time></trkpt><trkpt lat="46.1630476" lon="13.4973809"><ele>491.0</ele><time>2026-05-02T11:33:39.126Z</time></trkpt><trkpt lat="46.1631241" lon="13.4973135"><ele>491.0</ele><time>2026-05-02T11:33:40.152Z</time></trkpt><trkpt lat="46.1632022" lon="13.4972359"><ele>491.0</ele><time>2026-05-02T11:33:41.137Z</time></trkpt><trkpt lat="46.1632822" lon="13.4971587"><ele>491.0</ele><time>2026-05-02T11:33:42.139Z</time></trkpt><trkpt lat="46.1633688" lon="13.4970722"><ele>492.99999999999994</ele><time>2026-05-02T11:33:43.132Z</time></trkpt><trkpt lat="46.1634454" lon="13.4969988"><ele>495.0</ele><time>2026-05-02T11:33:44.133Z</time></trkpt><trkpt lat="46.1635212" lon="13.4969349"><ele>497.0</ele><time>2026-05-02T11:33:45.154Z</time></trkpt><trkpt lat="46.1635836" lon="13.4969043"><ele>499.0</ele><time>2026-05-02T11:33:46.131Z</time></trkpt><trkpt lat="46.1636338" lon="13.4969965"><ele>500.99999999999994</ele><time>2026-05-02T11:33:48.143Z</time></trkpt><trkpt lat="46.1636425" lon="13.4970933"><ele>503.0</ele><time>2026-05-02T11:33:49.141Z</time></trkpt><trkpt lat="46.1636152" lon="13.4972"><ele>506.99999999999994</ele><time>2026-05-02T11:33:50.127Z</time></trkpt><trkpt lat="46.1635944" lon="13.4972967"><ele>511.0</ele><time>2026-05-02T11:33:51.143Z</time></trkpt><trkpt lat="46.1635663" lon="13.497392"><ele>515.0</ele><time>2026-05-02T11:33:52.157Z</time></trkpt><trkpt lat="46.1635458" lon="13.4974928"><ele>519.0</ele><time>2026-05-02T11:33:53.152Z</time></trkpt><trkpt lat="46.1635505" lon="13.497683"><ele>523.0</ele><time>2026-05-02T11:33:55.145Z</time></trkpt><trkpt lat="46.1635537" lon="13.4977939"><ele>527.0</ele><time>2026-05-02T11:33:56.142Z</time></trkpt><trkpt lat="46.163548" lon="13.4978989"><ele>530.5</ele><time>2026-05-02T11:33:57.132Z</time></trkpt><trkpt lat="46.1635372" lon="13.4980077"><ele>534.0</ele><time>2026-05-02T11:33:58.159Z</time></trkpt><trkpt lat="46.1635235" lon="13.498116"><ele>537.5</ele><time>2026-05-02T11:33:59.143Z</time></trkpt><trkpt lat="46.1635" lon="13.4982346"><ele>541.0</ele><time>2026-05-02T11:34:00.133Z</time></trkpt><trkpt lat="46.1634666" lon="13.4983665"><ele>544.5</ele><time>2026-05-02T11:34:01.139Z</time></trkpt><trkpt lat="46.1634421" lon="13.4984882"><ele>548.0</ele><time>2026-05-02T11:34:02.129Z</time></trkpt><trkpt lat="46.1634048" lon="13.4986008"><ele>548.0000000000001</ele><time>2026-05-02T11:34:03.155Z</time></trkpt><trkpt lat="46.1633685" lon="13.4987034"><ele>548.0</ele><time>2026-05-02T11:34:04.14Z</time></trkpt><trkpt lat="46.1633396" lon="13.4987987"><ele>548.0</ele><time>2026-05-02T11:34:05.14Z</time></trkpt><trkpt lat="46.1633159" lon="13.4988899"><ele>548.0</ele><time>2026-05-02T11:34:07.143Z</time></trkpt><trkpt lat="46.1633832" lon="13.4988178"><ele>548.0</ele><time>2026-05-02T11:34:11.129Z</time></trkpt><trkpt lat="46.1634225" lon="13.4987398"><ele>548.0000000000001</ele><time>2026-05-02T11:34:12.131Z</time></trkpt><trkpt lat="46.1634683" lon="13.4986681"><ele>548.0</ele><time>2026-05-02T11:34:13.137Z</time></trkpt><trkpt lat="46.1635097" lon="13.4985897"><ele>548.0</ele><time>2026-05-02T11:34:14.136Z</time></trkpt><trkpt lat="46.1635634" lon="13.498515"><ele>548.0</ele><time>2026-05-02T11:34:15.132Z</time></trkpt><trkpt lat="46.1636214" lon="13.4984465"><ele>548.0</ele><time>2026-05-02T11:34:16.132Z</time></trkpt><trkpt lat="46.1636914" lon="13.498384"><ele>548.0</ele><time>2026-05-02T11:34:17.127Z</time></trkpt><trkpt lat="46.1637496" lon="13.4983235"><ele>548.0</ele><time>2026-05-02T11:34:18.126Z</time></trkpt><trkpt lat="46.1638182" lon="13.4982596"><ele>548.0</ele><time>2026-05-02T11:34:19.128Z</time></trkpt><trkpt lat="46.1638871" lon="13.4981966"><ele>548.0</ele><time>2026-05-02T11:34:20.131Z</time></trkpt><trkpt lat="46.1639541" lon="13.4981542"><ele>548.0</ele><time>2026-05-02T11:34:21.131Z</time></trkpt><trkpt lat="46.1640288" lon="13.4981155"><ele>548.0</ele><time>2026-05-02T11:34:22.145Z</time></trkpt><trkpt lat="46.1641054" lon="13.4980627"><ele>548.0</ele><time>2026-05-02T11:34:23.124Z</time></trkpt><trkpt lat="46.1641827" lon="13.49802"><ele>548.0</ele><time>2026-05-02T11:34:24.126Z</time></trkpt><trkpt lat="46.1642487" lon="13.4979835"><ele>548.0</ele><time>2026-05-02T11:34:25.139Z</time></trkpt><trkpt lat="46.1643109" lon="13.4979543"><ele>551.6666666666666</ele><time>2026-05-02T11:34:26.144Z</time></trkpt><trkpt lat="46.1644301" lon="13.4979393"><ele>555.3333333333333</ele><time>2026-05-02T11:34:28.143Z</time></trkpt><trkpt lat="46.1645103" lon="13.4979704"><ele>559.0</ele><time>2026-05-02T11:34:30.177Z</time></trkpt><trkpt lat="46.1645474" lon="13.4980919"><ele>562.6666666666666</ele><time>2026-05-02T11:34:32.156Z</time></trkpt><trkpt lat="46.164539" lon="13.4981956"><ele>566.3333333333334</ele><time>2026-05-02T11:34:33.171Z</time></trkpt><trkpt lat="46.1645328" lon="13.4983007"><ele>570.0</ele><time>2026-05-02T11:34:34.133Z</time></trkpt><trkpt lat="46.1645071" lon="13.4984209"><ele>570.0</ele><time>2026-05-02T11:34:35.16Z</time></trkpt><trkpt lat="46.1644838" lon="13.4985497"><ele>570.0</ele><time>2026-05-02T11:34:36.145Z</time></trkpt><trkpt lat="46.1644545" lon="13.4986483"><ele>570.0</ele><time>2026-05-02T11:34:37.156Z</time></trkpt><trkpt lat="46.1644282" lon="13.4987482"><ele>570.0</ele><time>2026-05-02T11:34:38.158Z</time></trkpt><trkpt lat="46.1643931" lon="13.4988278"><ele>570.0</ele><time>2026-05-02T11:34:39.147Z</time></trkpt><trkpt lat="46.1643134" lon="13.4989567"><ele>570.0</ele><time>2026-05-02T11:34:41.147Z</time></trkpt><trkpt lat="46.164246" lon="13.4990264"><ele>570.3333333333334</ele><time>2026-05-02T11:34:42.167Z</time></trkpt><trkpt lat="46.1641866" lon="13.4990836"><ele>570.6666666666666</ele><time>2026-05-02T11:34:43.167Z</time></trkpt><trkpt lat="46.1641274" lon="13.4991564"><ele>571.0</ele><time>2026-05-02T11:34:44.142Z</time></trkpt><trkpt lat="46.164062" lon="13.4992202"><ele>571.3333333333333</ele><time>2026-05-02T11:34:45.149Z</time></trkpt><trkpt lat="46.1640067" lon="13.4993039"><ele>571.6666666666666</ele><time>2026-05-02T11:34:46.146Z</time></trkpt><trkpt lat="46.1639472" lon="13.4993899"><ele>572.0</ele><time>2026-05-02T11:34:47.156Z</time></trkpt><trkpt lat="46.163908" lon="13.4995143"><ele>574.1666666666666</ele><time>2026-05-02T11:34:48.139Z</time></trkpt><trkpt lat="46.1638863" lon="13.4996311"><ele>576.3333333333333</ele><time>2026-05-02T11:34:49.147Z</time></trkpt><trkpt lat="46.1638521" lon="13.4997563"><ele>578.5</ele><time>2026-05-02T11:34:50.153Z</time></trkpt><trkpt lat="46.1638149" lon="13.4998692"><ele>580.6666666666666</ele><time>2026-05-02T11:34:51.154Z</time></trkpt><trkpt lat="46.1637747" lon="13.4999612"><ele>582.8333333333334</ele><time>2026-05-02T11:34:52.134Z</time></trkpt><trkpt lat="46.1637366" lon="13.5000612"><ele>585.0</ele><time>2026-05-02T11:34:53.14Z</time></trkpt><trkpt lat="46.1636984" lon="13.5001661"><ele>585.0</ele><time>2026-05-02T11:34:54.143Z</time></trkpt><trkpt lat="46.1636686" lon="13.5002626"><ele>585.0</ele><time>2026-05-02T11:34:55.155Z</time></trkpt><trkpt lat="46.1636394" lon="13.5003577"><ele>585.0</ele><time>2026-05-02T11:34:56.135Z</time></trkpt><trkpt lat="46.1636142" lon="13.500451"><ele>585.0</ele><time>2026-05-02T11:34:57.154Z</time></trkpt><trkpt lat="46.1635877" lon="13.5005565"><ele>585.0</ele><time>2026-05-02T11:34:58.142Z</time></trkpt><trkpt lat="46.1635613" lon="13.5006577"><ele>585.0</ele><time>2026-05-02T11:34:59.141Z</time></trkpt><trkpt lat="46.1635192" lon="13.5007542"><ele>585.0</ele><time>2026-05-02T11:35:00.134Z</time></trkpt><trkpt lat="46.1634924" lon="13.5008479"><ele>585.0</ele><time>2026-05-02T11:35:01.144Z</time></trkpt><trkpt lat="46.1634782" lon="13.5009675"><ele>585.0</ele><time>2026-05-02T11:35:02.132Z</time></trkpt><trkpt lat="46.1634668" lon="13.5010767"><ele>585.0</ele><time>2026-05-02T11:35:03.14Z</time></trkpt><trkpt lat="46.1634715" lon="13.5011854"><ele>585.0</ele><time>2026-05-02T11:35:04.136Z</time></trkpt><trkpt lat="46.1634825" lon="13.5012811"><ele>585.0</ele><time>2026-05-02T11:35:05.133Z</time></trkpt><trkpt lat="46.1634968" lon="13.5013812"><ele>585.0</ele><time>2026-05-02T11:35:06.144Z</time></trkpt><trkpt lat="46.1635108" lon="13.5014763"><ele>585.0</ele><time>2026-05-02T11:35:07.145Z</time></trkpt><trkpt lat="46.1635207" lon="13.5015787"><ele>585.1666666666666</ele><time>2026-05-02T11:35:08.13Z</time></trkpt><trkpt lat="46.163525" lon="13.501687"><ele>585.3333333333334</ele><time>2026-05-02T11:35:09.131Z</time></trkpt><trkpt lat="46.1635318" lon="13.5018007"><ele>585.5</ele><time>2026-05-02T11:35:10.137Z</time></trkpt><trkpt lat="46.1635192" lon="13.5019319"><ele>585.6666666666667</ele><time>2026-05-02T11:35:11.144Z</time></trkpt><trkpt lat="46.1635004" lon="13.5020627"><ele>585.8333333333334</ele><time>2026-05-02T11:35:12.12Z</time></trkpt><trkpt lat="46.163477" lon="13.5021852"><ele>586.0</ele><time>2026-05-02T11:35:13.118Z</time></trkpt><trkpt lat="46.163453" lon="13.5023099"><ele>585.4</ele><time>2026-05-02T11:35:14.131Z</time></trkpt><trkpt lat="46.1634388" lon="13.5024517"><ele>584.8</ele><time>2026-05-02T11:35:15.134Z</time></trkpt><trkpt lat="46.1634228" lon="13.5025953"><ele>584.1999999999999</ele><time>2026-05-02T11:35:16.127Z</time></trkpt><trkpt lat="46.1634208" lon="13.5027373"><ele>583.6</ele><time>2026-05-02T11:35:17.129Z</time></trkpt><trkpt lat="46.1634115" lon="13.5028774"><ele>583.0</ele><time>2026-05-02T11:35:18.126Z</time></trkpt><trkpt lat="46.1633992" lon="13.5030214"><ele>583.0</ele><time>2026-05-02T11:35:19.134Z</time></trkpt><trkpt lat="46.1633989" lon="13.5031543"><ele>583.0</ele><time>2026-05-02T11:35:20.131Z</time></trkpt><trkpt lat="46.1634045" lon="13.5033038"><ele>583.0</ele><time>2026-05-02T11:35:21.134Z</time></trkpt><trkpt lat="46.1634097" lon="13.5034551"><ele>583.0</ele><time>2026-05-02T11:35:22.135Z</time></trkpt><trkpt lat="46.1634264" lon="13.503614"><ele>583.0</ele><time>2026-05-02T11:35:23.128Z</time></trkpt><trkpt lat="46.1634277" lon="13.5037648"><ele>583.0</ele><time>2026-05-02T11:35:24.132Z</time></trkpt><trkpt lat="46.1634353" lon="13.5039222"><ele>583.0</ele><time>2026-05-02T11:35:25.142Z</time></trkpt><trkpt lat="46.1634381" lon="13.5040756"><ele>583.0</ele><time>2026-05-02T11:35:26.136Z</time></trkpt><trkpt lat="46.163436" lon="13.5042339"><ele>583.0</ele><time>2026-05-02T11:35:27.135Z</time></trkpt><trkpt lat="46.1634182" lon="13.5044"><ele>583.0</ele><time>2026-05-02T11:35:28.137Z</time></trkpt><trkpt lat="46.1634003" lon="13.5045627"><ele>582.6</ele><time>2026-05-02T11:35:29.134Z</time></trkpt><trkpt lat="46.1633792" lon="13.5047118"><ele>582.1999999999999</ele><time>2026-05-02T11:35:30.134Z</time></trkpt><trkpt lat="46.1633579" lon="13.504869"><ele>581.8</ele><time>2026-05-02T11:35:31.127Z</time></trkpt><trkpt lat="46.1633517" lon="13.50502"><ele>581.4</ele><time>2026-05-02T11:35:32.13Z</time></trkpt><trkpt lat="46.1633518" lon="13.5051756"><ele>581.0</ele><time>2026-05-02T11:35:33.118Z</time></trkpt><trkpt lat="46.1633496" lon="13.5053309"><ele>581.6</ele><time>2026-05-02T11:35:34.141Z</time></trkpt><trkpt lat="46.1633644" lon="13.5054629"><ele>582.2</ele><time>2026-05-02T11:35:35.109Z</time></trkpt><trkpt lat="46.1633782" lon="13.5055928"><ele>582.8</ele><time>2026-05-02T11:35:36.128Z</time></trkpt><trkpt lat="46.1633986" lon="13.50574"><ele>583.4</ele><time>2026-05-02T11:35:37.135Z</time></trkpt><trkpt lat="46.1634209" lon="13.505889"><ele>584.0</ele><time>2026-05-02T11:35:38.129Z</time></trkpt><trkpt lat="46.1634355" lon="13.5060347"><ele>584.0</ele><time>2026-05-02T11:35:39.129Z</time></trkpt><trkpt lat="46.163445" lon="13.5061877"><ele>584.0</ele><time>2026-05-02T11:35:40.134Z</time></trkpt><trkpt lat="46.1634659" lon="13.5063416"><ele>584.0</ele><time>2026-05-02T11:35:41.117Z</time></trkpt><trkpt lat="46.1634946" lon="13.5065054"><ele>584.0</ele><time>2026-05-02T11:35:42.135Z</time></trkpt><trkpt lat="46.1635104" lon="13.5066717"><ele>584.0</ele><time>2026-05-02T11:35:43.122Z</time></trkpt><trkpt lat="46.1635182" lon="13.5068351"><ele>585.6</ele><time>2026-05-02T11:35:44.125Z</time></trkpt><trkpt lat="46.1635262" lon="13.506983"><ele>587.2</ele><time>2026-05-02T11:35:45.13Z</time></trkpt><trkpt lat="46.163545" lon="13.5071283"><ele>588.8000000000001</ele><time>2026-05-02T11:35:46.127Z</time></trkpt><trkpt lat="46.1635633" lon="13.5072606"><ele>590.4</ele><time>2026-05-02T11:35:47.125Z</time></trkpt><trkpt lat="46.1636094" lon="13.5073557"><ele>592.0</ele><time>2026-05-02T11:35:48.133Z</time></trkpt><trkpt lat="46.163661" lon="13.5074581"><ele>589.8333333333334</ele><time>2026-05-02T11:35:49.131Z</time></trkpt><trkpt lat="46.1637163" lon="13.5075213"><ele>587.6666666666667</ele><time>2026-05-02T11:35:50.143Z</time></trkpt><trkpt lat="46.1637905" lon="13.5075622"><ele>585.5</ele><time>2026-05-02T11:35:51.125Z</time></trkpt><trkpt lat="46.1638827" lon="13.5075932"><ele>583.3333333333334</ele><time>2026-05-02T11:35:52.143Z</time></trkpt><trkpt lat="46.1639722" lon="13.5076428"><ele>581.1666666666666</ele><time>2026-05-02T11:35:53.127Z</time></trkpt><trkpt lat="46.1640604" lon="13.507689"><ele>579.0</ele><time>2026-05-02T11:35:54.135Z</time></trkpt><trkpt lat="46.1641592" lon="13.5077246"><ele>579.0</ele><time>2026-05-02T11:35:55.139Z</time></trkpt><trkpt lat="46.1642542" lon="13.5077528"><ele>579.0</ele><time>2026-05-02T11:35:56.128Z</time></trkpt><trkpt lat="46.1643524" lon="13.507788"><ele>579.0</ele><time>2026-05-02T11:35:57.139Z</time></trkpt><trkpt lat="46.1644343" lon="13.5078233"><ele>579.0</ele><time>2026-05-02T11:35:58.137Z</time></trkpt><trkpt lat="46.1645206" lon="13.5078514"><ele>579.0</ele><time>2026-05-02T11:35:59.133Z</time></trkpt><trkpt lat="46.1645817" lon="13.5078742"><ele>579.0</ele><time>2026-05-02T11:36:00.143Z</time></trkpt><trkpt lat="46.1646877" lon="13.5079324"><ele>579.3333333333334</ele><time>2026-05-02T11:36:02.122Z</time></trkpt><trkpt lat="46.164753" lon="13.507951"><ele>579.6666666666666</ele><time>2026-05-02T11:36:03.135Z</time></trkpt><trkpt lat="46.1648183" lon="13.5079574"><ele>580.0</ele><time>2026-05-02T11:36:04.132Z</time></trkpt><trkpt lat="46.1648991" lon="13.5079607"><ele>580.3333333333333</ele><time>2026-05-02T11:36:05.119Z</time></trkpt><trkpt lat="46.1649844" lon="13.5079507"><ele>580.6666666666666</ele><time>2026-05-02T11:36:06.118Z</time></trkpt><trkpt lat="46.1650657" lon="13.5079136"><ele>581.0</ele><time>2026-05-02T11:36:07.136Z</time></trkpt><trkpt lat="46.1651348" lon="13.5078904"><ele>581.0</ele><time>2026-05-02T11:36:08.131Z</time></trkpt><trkpt lat="46.1652223" lon="13.5078636"><ele>581.0</ele><time>2026-05-02T11:36:10.142Z</time></trkpt><trkpt lat="46.1653059" lon="13.5079411"><ele>581.0</ele><time>2026-05-02T11:36:12.144Z</time></trkpt><trkpt lat="46.1653181" lon="13.5080534"><ele>581.0</ele><time>2026-05-02T11:36:13.134Z</time></trkpt><trkpt lat="46.1653034" lon="13.5081744"><ele>581.0</ele><time>2026-05-02T11:36:14.117Z</time></trkpt><trkpt lat="46.1652956" lon="13.5083174"><ele>587.3333333333333</ele><time>2026-05-02T11:36:15.136Z</time></trkpt><trkpt lat="46.165292" lon="13.5084725"><ele>593.6666666666666</ele><time>2026-05-02T11:36:16.142Z</time></trkpt><trkpt lat="46.165301" lon="13.5086166"><ele>600.0</ele><time>2026-05-02T11:36:17.133Z</time></trkpt><trkpt lat="46.1653193" lon="13.5087307"><ele>606.3333333333334</ele><time>2026-05-02T11:36:18.134Z</time></trkpt><trkpt lat="46.1653338" lon="13.5088402"><ele>612.6666666666667</ele><time>2026-05-02T11:36:19.126Z</time></trkpt><trkpt lat="46.1653384" lon="13.5089561"><ele>619.0</ele><time>2026-05-02T11:36:20.146Z</time></trkpt><trkpt lat="46.1653988" lon="13.5090626"><ele>622.5</ele><time>2026-05-02T11:36:22.133Z</time></trkpt><trkpt lat="46.1655979" lon="13.508952"><ele>626.0</ele><time>2026-05-02T11:36:26.123Z</time></trkpt><trkpt lat="46.1656762" lon="13.5089045"><ele>629.5</ele><time>2026-05-02T11:36:27.16Z</time></trkpt><trkpt lat="46.1657628" lon="13.508866"><ele>633.0</ele><time>2026-05-02T11:36:28.126Z</time></trkpt><trkpt lat="46.1658246" lon="13.5088296"><ele>633.0</ele><time>2026-05-02T11:36:29.132Z</time></trkpt><trkpt lat="46.1658918" lon="13.5088138"><ele>633.0</ele><time>2026-05-02T11:36:30.119Z</time></trkpt><trkpt lat="46.1659601" lon="13.5087862"><ele>633.0</ele><time>2026-05-02T11:36:31.127Z</time></trkpt><trkpt lat="46.1660399" lon="13.5087737"><ele>633.0</ele><time>2026-05-02T11:36:32.135Z</time></trkpt><trkpt lat="46.1661127" lon="13.5087595"><ele>633.0</ele><time>2026-05-02T11:36:33.129Z</time></trkpt><trkpt lat="46.1661938" lon="13.5087477"><ele>633.0</ele><time>2026-05-02T11:36:34.118Z</time></trkpt><trkpt lat="46.1662727" lon="13.5087499"><ele>627.1666666666666</ele><time>2026-05-02T11:36:35.137Z</time></trkpt><trkpt lat="46.1663438" lon="13.5087365"><ele>621.3333333333334</ele><time>2026-05-02T11:36:36.137Z</time></trkpt><trkpt lat="46.1664167" lon="13.5087273"><ele>615.5</ele><time>2026-05-02T11:36:37.137Z</time></trkpt><trkpt lat="46.166489" lon="13.5087092"><ele>609.6666666666667</ele><time>2026-05-02T11:36:38.142Z</time></trkpt><trkpt lat="46.1665548" lon="13.5087107"><ele>603.8333333333334</ele><time>2026-05-02T11:36:39.143Z</time></trkpt><trkpt lat="46.1666714" lon="13.5086771"><ele>598.0</ele><time>2026-05-02T11:36:41.13Z</time></trkpt><trkpt lat="46.1667572" lon="13.5087015"><ele>601.6</ele><time>2026-05-02T11:36:43.128Z</time></trkpt><trkpt lat="46.166833" lon="13.5087994"><ele>605.1999999999999</ele><time>2026-05-02T11:36:45.128Z</time></trkpt><trkpt lat="46.1668822" lon="13.5088576"><ele>608.8</ele><time>2026-05-02T11:36:46.105Z</time></trkpt><trkpt lat="46.1669612" lon="13.5089885"><ele>612.4</ele><time>2026-05-02T11:36:48.123Z</time></trkpt><trkpt lat="46.1670496" lon="13.5091065"><ele>616.0</ele><time>2026-05-02T11:36:50.119Z</time></trkpt><trkpt lat="46.1671422" lon="13.5091653"><ele>616.0</ele><time>2026-05-02T11:36:52.123Z</time></trkpt><trkpt lat="46.1672521" lon="13.5091226"><ele>616.0</ele><time>2026-05-02T11:36:54.126Z</time></trkpt><trkpt lat="46.167313" lon="13.5090776"><ele>616.0</ele><time>2026-05-02T11:36:55.127Z</time></trkpt><trkpt lat="46.1673826" lon="13.5090475"><ele>616.0</ele><time>2026-05-02T11:36:56.123Z</time></trkpt><trkpt lat="46.1674599" lon="13.5090228"><ele>616.0</ele><time>2026-05-02T11:36:57.116Z</time></trkpt><trkpt lat="46.1675375" lon="13.5089936"><ele>616.0</ele><time>2026-05-02T11:36:58.103Z</time></trkpt><trkpt lat="46.1676305" lon="13.5089459"><ele>613.2</ele><time>2026-05-02T11:36:59.124Z</time></trkpt><trkpt lat="46.167719" lon="13.5089112"><ele>610.4000000000001</ele><time>2026-05-02T11:37:00.123Z</time></trkpt><trkpt lat="46.1678079" lon="13.5088896"><ele>607.6</ele><time>2026-05-02T11:37:01.125Z</time></trkpt><trkpt lat="46.1679058" lon="13.5088626"><ele>604.8000000000001</ele><time>2026-05-02T11:37:02.126Z</time></trkpt><trkpt lat="46.1680188" lon="13.508826"><ele>602.0</ele><time>2026-05-02T11:37:03.12Z</time></trkpt><trkpt lat="46.168119" lon="13.5087764"><ele>596.5</ele><time>2026-05-02T11:37:04.109Z</time></trkpt><trkpt lat="46.1682332" lon="13.5086989"><ele>591.0</ele><time>2026-05-02T11:37:05.124Z</time></trkpt><trkpt lat="46.1683356" lon="13.5086213"><ele>585.5</ele><time>2026-05-02T11:37:06.13Z</time></trkpt><trkpt lat="46.1684246" lon="13.5085117"><ele>580.0</ele><time>2026-05-02T11:37:07.13Z</time></trkpt><trkpt lat="46.1685137" lon="13.5084218"><ele>580.0</ele><time>2026-05-02T11:37:08.129Z</time></trkpt><trkpt lat="46.1686018" lon="13.5083244"><ele>580.0</ele><time>2026-05-02T11:37:09.127Z</time></trkpt><trkpt lat="46.1687015" lon="13.5082332"><ele>580.0</ele><time>2026-05-02T11:37:10.132Z</time></trkpt><trkpt lat="46.1687839" lon="13.5081619"><ele>580.0</ele><time>2026-05-02T11:37:11.142Z</time></trkpt><trkpt lat="46.1688822" lon="13.5080861"><ele>580.0</ele><time>2026-05-02T11:37:12.119Z</time></trkpt><trkpt lat="46.1689685" lon="13.5080005"><ele>580.25</ele><time>2026-05-02T11:37:13.13Z</time></trkpt><trkpt lat="46.1690629" lon="13.5079291"><ele>580.5</ele><time>2026-05-02T11:37:14.138Z</time></trkpt><trkpt lat="46.169155" lon="13.5078785"><ele>580.75</ele><time>2026-05-02T11:37:16.126Z</time></trkpt><trkpt lat="46.1692326" lon="13.5081053"><ele>581.0</ele><time>2026-05-02T11:37:23.13Z</time></trkpt><trkpt lat="46.1692448" lon="13.5082823"><ele>581.0</ele><time>2026-05-02T11:37:25.121Z</time></trkpt><trkpt lat="46.1692431" lon="13.5083971"><ele>581.0</ele><time>2026-05-02T11:37:26.133Z</time></trkpt><trkpt lat="46.1692477" lon="13.5085039"><ele>581.0</ele><time>2026-05-02T11:37:27.139Z</time></trkpt><trkpt lat="46.1692646" lon="13.5086076"><ele>581.0</ele><time>2026-05-02T11:37:28.142Z</time></trkpt><trkpt lat="46.1692861" lon="13.5087024"><ele>581.0</ele><time>2026-05-02T11:37:29.123Z</time></trkpt><trkpt lat="46.1693229" lon="13.508796"><ele>581.0</ele><time>2026-05-02T11:37:30.136Z</time></trkpt><trkpt lat="46.1693617" lon="13.508888"><ele>581.0</ele><time>2026-05-02T11:37:31.127Z</time></trkpt><trkpt lat="46.1694005" lon="13.5089822"><ele>586.8</ele><time>2026-05-02T11:37:32.133Z</time></trkpt><trkpt lat="46.169461" lon="13.5090541"><ele>592.6</ele><time>2026-05-02T11:37:33.118Z</time></trkpt><trkpt lat="46.1695288" lon="13.5091405"><ele>598.4</ele><time>2026-05-02T11:37:34.117Z</time></trkpt><trkpt lat="46.1696141" lon="13.5092161"><ele>604.2</ele><time>2026-05-02T11:37:35.135Z</time></trkpt><trkpt lat="46.1696964" lon="13.509276"><ele>610.0</ele><time>2026-05-02T11:37:36.117Z</time></trkpt><trkpt lat="46.1697864" lon="13.5093392"><ele>610.0</ele><time>2026-05-02T11:37:37.132Z</time></trkpt><trkpt lat="46.1698467" lon="13.5093917"><ele>610.0</ele><time>2026-05-02T11:37:38.133Z</time></trkpt><trkpt lat="46.1699067" lon="13.5094377"><ele>610.0</ele><time>2026-05-02T11:37:39.131Z</time></trkpt><trkpt lat="46.1699668" lon="13.5094785"><ele>610.0</ele><time>2026-05-02T11:37:40.129Z</time></trkpt><trkpt lat="46.1700504" lon="13.5094971"><ele>610.0</ele><time>2026-05-02T11:37:41.145Z</time></trkpt><trkpt lat="46.1701445" lon="13.5095077"><ele>610.0</ele><time>2026-05-02T11:37:42.135Z</time></trkpt><trkpt lat="46.1702218" lon="13.5095233"><ele>609.1428571428572</ele><time>2026-05-02T11:37:43.135Z</time></trkpt><trkpt lat="46.1702958" lon="13.5095459"><ele>608.2857142857142</ele><time>2026-05-02T11:37:44.133Z</time></trkpt><trkpt lat="46.1703694" lon="13.509565"><ele>607.4285714285714</ele><time>2026-05-02T11:37:45.132Z</time></trkpt><trkpt lat="46.1704289" lon="13.509622"><ele>606.5714285714287</ele><time>2026-05-02T11:37:46.113Z</time></trkpt><trkpt lat="46.1704727" lon="13.5097031"><ele>605.7142857142858</ele><time>2026-05-02T11:37:47.132Z</time></trkpt><trkpt lat="46.1705301" lon="13.5097905"><ele>604.8571428571429</ele><time>2026-05-02T11:37:48.113Z</time></trkpt><trkpt lat="46.1705763" lon="13.5098526"><ele>604.0</ele><time>2026-05-02T11:37:49.134Z</time></trkpt><trkpt lat="46.1706272" lon="13.5099137"><ele>598.0</ele><time>2026-05-02T11:37:50.121Z</time></trkpt><trkpt lat="46.170733" lon="13.5099403"><ele>592.0</ele><time>2026-05-02T11:37:52.133Z</time></trkpt><trkpt lat="46.170846" lon="13.5099969"><ele>586.0</ele><time>2026-05-02T11:37:54.13Z</time></trkpt><trkpt lat="46.1709079" lon="13.5100369"><ele>580.0</ele><time>2026-05-02T11:37:55.125Z</time></trkpt><trkpt lat="46.1710294" lon="13.5101321"><ele>574.0</ele><time>2026-05-02T11:37:57.12Z</time></trkpt><trkpt lat="46.1711234" lon="13.5101935"><ele>574.0</ele><time>2026-05-02T11:37:58.127Z</time></trkpt><trkpt lat="46.1712075" lon="13.5102666"><ele>574.0</ele><time>2026-05-02T11:37:59.141Z</time></trkpt><trkpt lat="46.1713166" lon="13.5103565"><ele>574.0</ele><time>2026-05-02T11:38:00.131Z</time></trkpt><trkpt lat="46.1713974" lon="13.5104399"><ele>574.0</ele><time>2026-05-02T11:38:01.127Z</time></trkpt><trkpt lat="46.1714841" lon="13.5104782"><ele>574.0</ele><time>2026-05-02T11:38:02.114Z</time></trkpt><trkpt lat="46.1716076" lon="13.5104794"><ele>571.0</ele><time>2026-05-02T11:38:03.114Z</time></trkpt><trkpt lat="46.1717071" lon="13.510464"><ele>568.0</ele><time>2026-05-02T11:38:04.118Z</time></trkpt><trkpt lat="46.1718248" lon="13.5104192"><ele>565.0</ele><time>2026-05-02T11:38:05.122Z</time></trkpt><trkpt lat="46.1719286" lon="13.5103742"><ele>562.0</ele><time>2026-05-02T11:38:06.134Z</time></trkpt><trkpt lat="46.1720183" lon="13.5103206"><ele>559.0</ele><time>2026-05-02T11:38:07.127Z</time></trkpt><trkpt lat="46.1720945" lon="13.5102658"><ele>559.0</ele><time>2026-05-02T11:38:08.13Z</time></trkpt><trkpt lat="46.1721771" lon="13.5102142"><ele>559.0</ele><time>2026-05-02T11:38:09.116Z</time></trkpt><trkpt lat="46.1722453" lon="13.5101515"><ele>559.0</ele><time>2026-05-02T11:38:10.116Z</time></trkpt><trkpt lat="46.1723192" lon="13.5100895"><ele>559.0</ele><time>2026-05-02T11:38:11.137Z</time></trkpt><trkpt lat="46.1723879" lon="13.5100272"><ele>559.0</ele><time>2026-05-02T11:38:12.129Z</time></trkpt><trkpt lat="46.1724648" lon="13.5099577"><ele>559.0</ele><time>2026-05-02T11:38:13.124Z</time></trkpt><trkpt lat="46.1725266" lon="13.5098807"><ele>560.5</ele><time>2026-05-02T11:38:14.126Z</time></trkpt><trkpt lat="46.1726031" lon="13.5098019"><ele>562.0</ele><time>2026-05-02T11:38:15.128Z</time></trkpt><trkpt lat="46.1726719" lon="13.5097332"><ele>563.5</ele><time>2026-05-02T11:38:16.126Z</time></trkpt><trkpt lat="46.172745" lon="13.5096909"><ele>565.0</ele><time>2026-05-02T11:38:17.128Z</time></trkpt><trkpt lat="46.1728148" lon="13.5096769"><ele>566.5</ele><time>2026-05-02T11:38:18.136Z</time></trkpt><trkpt lat="46.1729051" lon="13.5096763"><ele>568.0</ele><time>2026-05-02T11:38:19.131Z</time></trkpt><trkpt lat="46.1730043" lon="13.5096737"><ele>568.0</ele><time>2026-05-02T11:38:20.152Z</time></trkpt><trkpt lat="46.1731008" lon="13.5096659"><ele>568.0</ele><time>2026-05-02T11:38:21.141Z</time></trkpt><trkpt lat="46.1731961" lon="13.5096495"><ele>568.0</ele><time>2026-05-02T11:38:22.145Z</time></trkpt><trkpt lat="46.1732714" lon="13.5096356"><ele>568.0</ele><time>2026-05-02T11:38:23.124Z</time></trkpt><trkpt lat="46.1733381" lon="13.5096253"><ele>568.0</ele><time>2026-05-02T11:38:24.141Z</time></trkpt><trkpt lat="46.1734074" lon="13.5095996"><ele>568.0</ele><time>2026-05-02T11:38:25.14Z</time></trkpt><trkpt lat="46.1735003" lon="13.5095272"><ele>566.8</ele><time>2026-05-02T11:38:27.153Z</time></trkpt><trkpt lat="46.1735731" lon="13.5094598"><ele>565.5999999999999</ele><time>2026-05-02T11:38:34.139Z</time></trkpt><trkpt lat="46.1736374" lon="13.5093625"><ele>564.4000000000001</ele><time>2026-05-02T11:38:37.12Z</time></trkpt><trkpt lat="46.1737298" lon="13.5093503"><ele>563.2</ele><time>2026-05-02T11:38:38.136Z</time></trkpt><trkpt lat="46.17382" lon="13.5093381"><ele>562.0</ele><time>2026-05-02T11:38:39.134Z</time></trkpt><trkpt lat="46.1739276" lon="13.5093324"><ele>563.3333333333334</ele><time>2026-05-02T11:38:40.137Z</time></trkpt><trkpt lat="46.1740257" lon="13.5092972"><ele>564.6666666666667</ele><time>2026-05-02T11:38:41.135Z</time></trkpt><trkpt lat="46.1741047" lon="13.5092557"><ele>566.0</ele><time>2026-05-02T11:38:42.143Z</time></trkpt><trkpt lat="46.1741867" lon="13.5092155"><ele>567.3333333333334</ele><time>2026-05-02T11:38:43.137Z</time></trkpt><trkpt lat="46.1742595" lon="13.5091801"><ele>568.6666666666666</ele><time>2026-05-02T11:38:44.119Z</time></trkpt><trkpt lat="46.1743359" lon="13.5091646"><ele>570.0</ele><time>2026-05-02T11:38:45.132Z</time></trkpt><trkpt lat="46.1744072" lon="13.5091628"><ele>570.0</ele><time>2026-05-02T11:38:46.137Z</time></trkpt><trkpt lat="46.1744825" lon="13.5091891"><ele>570.0</ele><time>2026-05-02T11:38:47.148Z</time></trkpt><trkpt lat="46.1745633" lon="13.5092316"><ele>570.0</ele><time>2026-05-02T11:38:48.133Z</time></trkpt><trkpt lat="46.1746441" lon="13.5092879"><ele>570.0</ele><time>2026-05-02T11:38:49.13Z</time></trkpt><trkpt lat="46.1747181" lon="13.5093508"><ele>570.0</ele><time>2026-05-02T11:38:50.131Z</time></trkpt><trkpt lat="46.1747902" lon="13.5094271"><ele>570.0</ele><time>2026-05-02T11:38:51.128Z</time></trkpt><trkpt lat="46.1748553" lon="13.5095046"><ele>570.4</ele><time>2026-05-02T11:38:52.125Z</time></trkpt><trkpt lat="46.1749145" lon="13.5095752"><ele>570.8</ele><time>2026-05-02T11:38:53.123Z</time></trkpt><trkpt lat="46.1749793" lon="13.5096433"><ele>571.2</ele><time>2026-05-02T11:38:54.123Z</time></trkpt><trkpt lat="46.1750272" lon="13.5097058"><ele>571.6</ele><time>2026-05-02T11:38:55.149Z</time></trkpt><trkpt lat="46.1751226" lon="13.5097684"><ele>572.0</ele><time>2026-05-02T11:38:57.134Z</time></trkpt><trkpt lat="46.1752515" lon="13.5096633"><ele>572.0</ele><time>2026-05-02T11:38:59.125Z</time></trkpt><trkpt lat="46.1753065" lon="13.5095555"><ele>572.0</ele><time>2026-05-02T11:39:00.135Z</time></trkpt><trkpt lat="46.1753632" lon="13.5094079"><ele>572.0</ele><time>2026-05-02T11:39:01.132Z</time></trkpt><trkpt lat="46.1754152" lon="13.5092606"><ele>572.0</ele><time>2026-05-02T11:39:02.117Z</time></trkpt><trkpt lat="46.1754643" lon="13.5090986"><ele>572.0</ele><time>2026-05-02T11:39:03.144Z</time></trkpt><trkpt lat="46.1755156" lon="13.50894"><ele>572.0</ele><time>2026-05-02T11:39:04.13Z</time></trkpt><trkpt lat="46.1755615" lon="13.5087794"><ele>572.0</ele><time>2026-05-02T11:39:05.131Z</time></trkpt><trkpt lat="46.1756022" lon="13.5086305"><ele>572.0</ele><time>2026-05-02T11:39:06.137Z</time></trkpt><trkpt lat="46.1756475" lon="13.5085165"><ele>572.0</ele><time>2026-05-02T11:39:07.132Z</time></trkpt><trkpt lat="46.1757018" lon="13.5084198"><ele>572.0</ele><time>2026-05-02T11:39:08.13Z</time></trkpt><trkpt lat="46.1757773" lon="13.5083254"><ele>572.75</ele><time>2026-05-02T11:39:09.132Z</time></trkpt><trkpt lat="46.1758656" lon="13.5081868"><ele>573.5</ele><time>2026-05-02T11:39:10.147Z</time></trkpt><trkpt lat="46.1759334" lon="13.5080726"><ele>574.25</ele><time>2026-05-02T11:39:11.139Z</time></trkpt><trkpt lat="46.1759782" lon="13.50794"><ele>575.0</ele><time>2026-05-02T11:39:12.141Z</time></trkpt><trkpt lat="46.1760499" lon="13.5078022"><ele>570.8</ele><time>2026-05-02T11:39:13.134Z</time></trkpt><trkpt lat="46.1761182" lon="13.507676"><ele>566.6</ele><time>2026-05-02T11:39:14.117Z</time></trkpt><trkpt lat="46.1761615" lon="13.5075503"><ele>562.4</ele><time>2026-05-02T11:39:15.134Z</time></trkpt><trkpt lat="46.1762051" lon="13.5074123"><ele>558.2</ele><time>2026-05-02T11:39:16.129Z</time></trkpt><trkpt lat="46.1762433" lon="13.5072844"><ele>554.0</ele><time>2026-05-02T11:39:17.138Z</time></trkpt><trkpt lat="46.1762788" lon="13.5071906"><ele>554.0</ele><time>2026-05-02T11:39:18.148Z</time></trkpt><trkpt lat="46.1763254" lon="13.5071091"><ele>554.0</ele><time>2026-05-02T11:39:19.136Z</time></trkpt><trkpt lat="46.1763879" lon="13.5070542"><ele>554.0</ele><time>2026-05-02T11:39:20.152Z</time></trkpt><trkpt lat="46.1764688" lon="13.506992"><ele>554.0</ele><time>2026-05-02T11:39:21.143Z</time></trkpt><trkpt lat="46.1765644" lon="13.5069252"><ele>554.0</ele><time>2026-05-02T11:39:22.121Z</time></trkpt><trkpt lat="46.1766609" lon="13.5068465"><ele>554.5</ele><time>2026-05-02T11:39:23.134Z</time></trkpt><trkpt lat="46.1767651" lon="13.506747"><ele>555.0</ele><time>2026-05-02T11:39:24.142Z</time></trkpt><trkpt lat="46.1768619" lon="13.5066289"><ele>555.5</ele><time>2026-05-02T11:39:25.126Z</time></trkpt><trkpt lat="46.1769672" lon="13.5065167"><ele>556.0</ele><time>2026-05-02T11:39:26.13Z</time></trkpt><trkpt lat="46.1770627" lon="13.5064151"><ele>556.0</ele><time>2026-05-02T11:39:27.134Z</time></trkpt><trkpt lat="46.1771737" lon="13.5063297"><ele>556.0</ele><time>2026-05-02T11:39:28.142Z</time></trkpt><trkpt lat="46.1772804" lon="13.506247"><ele>556.0</ele><time>2026-05-02T11:39:29.156Z</time></trkpt><trkpt lat="46.1773827" lon="13.5061586"><ele>556.0</ele><time>2026-05-02T11:39:30.135Z</time></trkpt><trkpt lat="46.1774812" lon="13.5060694"><ele>558.0</ele><time>2026-05-02T11:39:31.132Z</time></trkpt><trkpt lat="46.1775618" lon="13.5059661"><ele>560.0</ele><time>2026-05-02T11:39:32.126Z</time></trkpt><trkpt lat="46.1776088" lon="13.5058522"><ele>562.0</ele><time>2026-05-02T11:39:33.13Z</time></trkpt><trkpt lat="46.1776348" lon="13.5057141"><ele>564.0</ele><time>2026-05-02T11:39:34.147Z</time></trkpt><trkpt lat="46.1776328" lon="13.5055764"><ele>566.0</ele><time>2026-05-02T11:39:35.122Z</time></trkpt><trkpt lat="46.177627" lon="13.505433"><ele>563.6</ele><time>2026-05-02T11:39:36.131Z</time></trkpt><trkpt lat="46.1775966" lon="13.5052852"><ele>561.2</ele><time>2026-05-02T11:39:37.135Z</time></trkpt><trkpt lat="46.1775666" lon="13.5051373"><ele>558.8</ele><time>2026-05-02T11:39:38.134Z</time></trkpt><trkpt lat="46.1775565" lon="13.5050023"><ele>556.4</ele><time>2026-05-02T11:39:39.131Z</time></trkpt><trkpt lat="46.177566" lon="13.5048568"><ele>554.0</ele><time>2026-05-02T11:39:40.141Z</time></trkpt><trkpt lat="46.1776364" lon="13.50472"><ele>554.5</ele><time>2026-05-02T11:39:41.13Z</time></trkpt><trkpt lat="46.1777368" lon="13.5045606"><ele>555.0</ele><time>2026-05-02T11:39:42.142Z</time></trkpt><trkpt lat="46.1778087" lon="13.5043823"><ele>555.5</ele><time>2026-05-02T11:39:43.144Z</time></trkpt><trkpt lat="46.1778649" lon="13.5041931"><ele>556.0</ele><time>2026-05-02T11:39:44.16Z</time></trkpt><trkpt lat="46.1778902" lon="13.5039702"><ele>556.0</ele><time>2026-05-02T11:39:45.128Z</time></trkpt><trkpt lat="46.1779111" lon="13.503756"><ele>556.0</ele><time>2026-05-02T11:39:46.126Z</time></trkpt><trkpt lat="46.1779235" lon="13.5035566"><ele>556.0</ele><time>2026-05-02T11:39:47.132Z</time></trkpt><trkpt lat="46.1779421" lon="13.5033686"><ele>556.0</ele><time>2026-05-02T11:39:48.143Z</time></trkpt><trkpt lat="46.1779712" lon="13.5032125"><ele>556.4</ele><time>2026-05-02T11:39:49.158Z</time></trkpt><trkpt lat="46.1779923" lon="13.503085"><ele>556.8</ele><time>2026-05-02T11:39:50.135Z</time></trkpt><trkpt lat="46.1780563" lon="13.5029718"><ele>557.1999999999999</ele><time>2026-05-02T11:39:51.16Z</time></trkpt><trkpt lat="46.1781508" lon="13.5028586"><ele>557.6</ele><time>2026-05-02T11:39:52.128Z</time></trkpt><trkpt lat="46.1782246" lon="13.5027357"><ele>558.0</ele><time>2026-05-02T11:39:53.144Z</time></trkpt><trkpt lat="46.1782992" lon="13.5026038"><ele>562.1999999999999</ele><time>2026-05-02T11:39:54.158Z</time></trkpt><trkpt lat="46.1783574" lon="13.5024808"><ele>566.4</ele><time>2026-05-02T11:39:55.153Z</time></trkpt><trkpt lat="46.1783908" lon="13.5023885"><ele>570.5999999999999</ele><time>2026-05-02T11:39:56.146Z</time></trkpt><trkpt lat="46.1784433" lon="13.5022585"><ele>574.8</ele><time>2026-05-02T11:39:58.147Z</time></trkpt><trkpt lat="46.1784688" lon="13.5023989"><ele>579.0</ele><time>2026-05-02T11:40:05.15Z</time></trkpt><trkpt lat="46.1784839" lon="13.5025555"><ele>579.0</ele><time>2026-05-02T11:40:07.151Z</time></trkpt><trkpt lat="46.1785382" lon="13.5026123"><ele>579.0</ele><time>2026-05-02T11:40:08.135Z</time></trkpt><trkpt lat="46.1786207" lon="13.5026374"><ele>579.0</ele><time>2026-05-02T11:40:09.136Z</time></trkpt><trkpt lat="46.1787157" lon="13.5027138"><ele>579.0</ele><time>2026-05-02T11:40:11.141Z</time></trkpt><trkpt lat="46.1787511" lon="13.5028709"><ele>579.0</ele><time>2026-05-02T11:40:13.148Z</time></trkpt><trkpt lat="46.1787529" lon="13.5029946"><ele>579.8333333333334</ele><time>2026-05-02T11:40:14.162Z</time></trkpt><trkpt lat="46.1787589" lon="13.5031198"><ele>580.6666666666666</ele><time>2026-05-02T11:40:15.157Z</time></trkpt><trkpt lat="46.1787522" lon="13.5032304"><ele>581.5</ele><time>2026-05-02T11:40:16.129Z</time></trkpt><trkpt lat="46.1787336" lon="13.503335"><ele>582.3333333333333</ele><time>2026-05-02T11:40:17.151Z</time></trkpt><trkpt lat="46.1787061" lon="13.5034364"><ele>583.1666666666666</ele><time>2026-05-02T11:40:18.145Z</time></trkpt><trkpt lat="46.1786696" lon="13.503536"><ele>584.0</ele><time>2026-05-02T11:40:19.173Z</time></trkpt><trkpt lat="46.1786227" lon="13.503634"><ele>584.0</ele><time>2026-05-02T11:40:20.15Z</time></trkpt><trkpt lat="46.1785648" lon="13.5037387"><ele>584.0</ele><time>2026-05-02T11:40:21.139Z</time></trkpt><trkpt lat="46.1785141" lon="13.503853"><ele>584.0</ele><time>2026-05-02T11:40:22.147Z</time></trkpt><trkpt lat="46.17847" lon="13.503963"><ele>584.0</ele><time>2026-05-02T11:40:23.158Z</time></trkpt><trkpt lat="46.1784397" lon="13.5040688"><ele>584.0</ele><time>2026-05-02T11:40:24.146Z</time></trkpt><trkpt lat="46.1784263" lon="13.5041721"><ele>584.0</ele><time>2026-05-02T11:40:25.142Z</time></trkpt><trkpt lat="46.1784322" lon="13.5042875"><ele>585.3333333333333</ele><time>2026-05-02T11:40:26.122Z</time></trkpt><trkpt lat="46.1784516" lon="13.5043906"><ele>586.6666666666666</ele><time>2026-05-02T11:40:27.139Z</time></trkpt><trkpt lat="46.1784753" lon="13.504496"><ele>588.0</ele><time>2026-05-02T11:40:28.125Z</time></trkpt><trkpt lat="46.1784902" lon="13.5046026"><ele>589.3333333333334</ele><time>2026-05-02T11:40:29.139Z</time></trkpt><trkpt lat="46.1785072" lon="13.5047146"><ele>590.6666666666667</ele><time>2026-05-02T11:40:30.143Z</time></trkpt><trkpt lat="46.1785225" lon="13.50482"><ele>592.0</ele><time>2026-05-02T11:40:31.14Z</time></trkpt><trkpt lat="46.1785351" lon="13.5049202"><ele>593.0</ele><time>2026-05-02T11:40:32.146Z</time></trkpt><trkpt lat="46.1785378" lon="13.5050121"><ele>594.0</ele><time>2026-05-02T11:40:33.155Z</time></trkpt><trkpt lat="46.1785387" lon="13.5052037"><ele>595.0</ele><time>2026-05-02T11:40:35.152Z</time></trkpt><trkpt lat="46.1785458" lon="13.505308"><ele>596.0</ele><time>2026-05-02T11:40:36.14Z</time></trkpt><trkpt lat="46.1785523" lon="13.5054125"><ele>597.0</ele><time>2026-05-02T11:40:37.139Z</time></trkpt><trkpt lat="46.1785538" lon="13.5055079"><ele>598.0</ele><time>2026-05-02T11:40:38.133Z</time></trkpt><trkpt lat="46.1785391" lon="13.505624"><ele>599.1666666666667</ele><time>2026-05-02T11:40:39.133Z</time></trkpt><trkpt lat="46.1785142" lon="13.5057484"><ele>600.3333333333334</ele><time>2026-05-02T11:40:40.153Z</time></trkpt><trkpt lat="46.1784924" lon="13.5058768"><ele>601.5</ele><time>2026-05-02T11:40:41.157Z</time></trkpt><trkpt lat="46.178474" lon="13.5060021"><ele>602.6666666666666</ele><time>2026-05-02T11:40:42.161Z</time></trkpt><trkpt lat="46.1784631" lon="13.506113"><ele>603.8333333333333</ele><time>2026-05-02T11:40:43.158Z</time></trkpt><trkpt lat="46.178463" lon="13.5062042"><ele>605.0</ele><time>2026-05-02T11:40:44.134Z</time></trkpt><trkpt lat="46.1784807" lon="13.5063581"><ele>607.4</ele><time>2026-05-02T11:40:46.133Z</time></trkpt><trkpt lat="46.1784429" lon="13.5065154"><ele>609.8</ele><time>2026-05-02T11:40:48.134Z</time></trkpt><trkpt lat="46.1783893" lon="13.5066091"><ele>612.2</ele><time>2026-05-02T11:40:49.129Z</time></trkpt><trkpt lat="46.1783095" lon="13.5067073"><ele>614.6</ele><time>2026-05-02T11:40:50.132Z</time></trkpt><trkpt lat="46.1782348" lon="13.5067863"><ele>617.0</ele><time>2026-05-02T11:40:51.128Z</time></trkpt><trkpt lat="46.1781659" lon="13.5068644"><ele>616.0</ele><time>2026-05-02T11:40:52.126Z</time></trkpt><trkpt lat="46.1781075" lon="13.5069527"><ele>615.0</ele><time>2026-05-02T11:40:53.119Z</time></trkpt><trkpt lat="46.1780688" lon="13.5070502"><ele>614.0</ele><time>2026-05-02T11:40:54.142Z</time></trkpt><trkpt lat="46.1780389" lon="13.50715"><ele>613.0</ele><time>2026-05-02T11:40:55.143Z</time></trkpt><trkpt lat="46.1780101" lon="13.5072565"><ele>612.0</ele><time>2026-05-02T11:40:56.146Z</time></trkpt><trkpt lat="46.1779806" lon="13.5074121"><ele>611.0</ele><time>2026-05-02T11:40:58.131Z</time></trkpt><trkpt lat="46.177997" lon="13.5075472"><ele>611.0000000000001</ele><time>2026-05-02T11:41:00.139Z</time></trkpt><trkpt lat="46.1780596" lon="13.5075296"><ele>611.0</ele><time>2026-05-02T11:41:02.135Z</time></trkpt><trkpt lat="46.1781195" lon="13.5074495"><ele>611.0</ele><time>2026-05-02T11:41:03.129Z</time></trkpt><trkpt lat="46.1781827" lon="13.5073795"><ele>611.0</ele><time>2026-05-02T11:41:04.127Z</time></trkpt><trkpt lat="46.1782465" lon="13.5073244"><ele>611.0</ele><time>2026-05-02T11:41:05.147Z</time></trkpt><trkpt lat="46.178306" lon="13.5072732"><ele>611.0000000000001</ele><time>2026-05-02T11:41:06.134Z</time></trkpt><trkpt lat="46.1783777" lon="13.5072313"><ele>611.0</ele><time>2026-05-02T11:41:07.139Z</time></trkpt><trkpt lat="46.1784794" lon="13.5072397"><ele>615.0</ele><time>2026-05-02T11:41:09.128Z</time></trkpt><trkpt lat="46.1785802" lon="13.5072598"><ele>619.0</ele><time>2026-05-02T11:41:11.141Z</time></trkpt><trkpt lat="46.1786517" lon="13.5072643"><ele>623.0</ele><time>2026-05-02T11:41:12.144Z</time></trkpt><trkpt lat="46.1787316" lon="13.5072458"><ele>627.0</ele><time>2026-05-02T11:41:13.137Z</time></trkpt><trkpt lat="46.1788065" lon="13.507221"><ele>631.0</ele><time>2026-05-02T11:41:14.146Z</time></trkpt><trkpt lat="46.1788795" lon="13.507177"><ele>635.0</ele><time>2026-05-02T11:41:15.146Z</time></trkpt><trkpt lat="46.1789385" lon="13.5071262"><ele>632.0</ele><time>2026-05-02T11:41:16.12Z</time></trkpt><trkpt lat="46.1789938" lon="13.5070543"><ele>629.0</ele><time>2026-05-02T11:41:17.147Z</time></trkpt><trkpt lat="46.1790343" lon="13.5069532"><ele>626.0</ele><time>2026-05-02T11:41:18.148Z</time></trkpt><trkpt lat="46.1790544" lon="13.5068321"><ele>623.0</ele><time>2026-05-02T11:41:19.124Z</time></trkpt><trkpt lat="46.1790697" lon="13.5067067"><ele>620.0</ele><time>2026-05-02T11:41:20.143Z</time></trkpt><trkpt lat="46.1790825" lon="13.5065794"><ele>617.0</ele><time>2026-05-02T11:41:21.136Z</time></trkpt><trkpt lat="46.1790996" lon="13.5064427"><ele>622.8</ele><time>2026-05-02T11:41:22.141Z</time></trkpt><trkpt lat="46.1790998" lon="13.5062805"><ele>628.6</ele><time>2026-05-02T11:41:23.152Z</time></trkpt><trkpt lat="46.1791275" lon="13.5061296"><ele>634.4</ele><time>2026-05-02T11:41:24.123Z</time></trkpt><trkpt lat="46.1791523" lon="13.5059859"><ele>640.1999999999999</ele><time>2026-05-02T11:41:25.143Z</time></trkpt><trkpt lat="46.1791863" lon="13.5058495"><ele>646.0</ele><time>2026-05-02T11:41:26.138Z</time></trkpt><trkpt lat="46.1792173" lon="13.5057234"><ele>646.0</ele><time>2026-05-02T11:41:27.135Z</time></trkpt><trkpt lat="46.1792593" lon="13.505593"><ele>646.0</ele><time>2026-05-02T11:41:28.158Z</time></trkpt><trkpt lat="46.1792981" lon="13.5054613"><ele>646.0</ele><time>2026-05-02T11:41:29.127Z</time></trkpt><trkpt lat="46.1793443" lon="13.5053246"><ele>646.0</ele><time>2026-05-02T11:41:30.144Z</time></trkpt><trkpt lat="46.1793987" lon="13.5051845"><ele>646.0</ele><time>2026-05-02T11:41:31.142Z</time></trkpt><trkpt lat="46.1794595" lon="13.5050597"><ele>644.5999999999999</ele><time>2026-05-02T11:41:32.151Z</time></trkpt><trkpt lat="46.1795186" lon="13.5049406"><ele>643.1999999999999</ele><time>2026-05-02T11:41:33.154Z</time></trkpt><trkpt lat="46.1795722" lon="13.5048214"><ele>641.8</ele><time>2026-05-02T11:41:34.15Z</time></trkpt><trkpt lat="46.1796259" lon="13.5046898"><ele>640.4</ele><time>2026-05-02T11:41:35.115Z</time></trkpt><trkpt lat="46.1796753" lon="13.5045592"><ele>639.0</ele><time>2026-05-02T11:41:36.148Z</time></trkpt><trkpt lat="46.1797142" lon="13.5044255"><ele>636.6</ele><time>2026-05-02T11:41:37.16Z</time></trkpt><trkpt lat="46.1797393" lon="13.5043127"><ele>634.2</ele><time>2026-05-02T11:41:38.129Z</time></trkpt><trkpt lat="46.1797661" lon="13.5041943"><ele>631.8000000000001</ele><time>2026-05-02T11:41:39.133Z</time></trkpt><trkpt lat="46.1797946" lon="13.5040681"><ele>629.4</ele><time>2026-05-02T11:41:40.148Z</time></trkpt><trkpt lat="46.1798181" lon="13.503928"><ele>627.0</ele><time>2026-05-02T11:41:41.143Z</time></trkpt><trkpt lat="46.1798567" lon="13.5038035"><ele>631.3333333333334</ele><time>2026-05-02T11:41:42.138Z</time></trkpt><trkpt lat="46.1798945" lon="13.5036981"><ele>635.6666666666666</ele><time>2026-05-02T11:41:43.135Z</time></trkpt><trkpt lat="46.1799265" lon="13.5035992"><ele>640.0</ele><time>2026-05-02T11:41:44.141Z</time></trkpt><trkpt lat="46.1799718" lon="13.5035129"><ele>644.3333333333333</ele><time>2026-05-02T11:41:45.137Z</time></trkpt><trkpt lat="46.1800148" lon="13.5034247"><ele>648.6666666666666</ele><time>2026-05-02T11:41:46.126Z</time></trkpt><trkpt lat="46.1800652" lon="13.5033297"><ele>653.0</ele><time>2026-05-02T11:41:47.139Z</time></trkpt><trkpt lat="46.1801203" lon="13.5032268"><ele>653.0</ele><time>2026-05-02T11:41:48.124Z</time></trkpt><trkpt lat="46.1801725" lon="13.5031485"><ele>653.0</ele><time>2026-05-02T11:41:49.137Z</time></trkpt><trkpt lat="46.1802233" lon="13.5030675"><ele>653.0</ele><time>2026-05-02T11:41:50.118Z</time></trkpt><trkpt lat="46.1802726" lon="13.5029946"><ele>653.0</ele><time>2026-05-02T11:41:51.136Z</time></trkpt><trkpt lat="46.1803413" lon="13.5028923"><ele>653.0</ele><time>2026-05-02T11:41:53.124Z</time></trkpt><trkpt lat="46.1804258" lon="13.5028476"><ele>653.0</ele><time>2026-05-02T11:42:05.145Z</time></trkpt><trkpt lat="46.1805122" lon="13.5027637"><ele>654.5</ele><time>2026-05-02T11:42:07.152Z</time></trkpt><trkpt lat="46.1805675" lon="13.502702"><ele>656.0</ele><time>2026-05-02T11:42:08.124Z</time></trkpt><trkpt lat="46.1806286" lon="13.5026137"><ele>657.5</ele><time>2026-05-02T11:42:09.13Z</time></trkpt><trkpt lat="46.1806875" lon="13.5025312"><ele>659.0</ele><time>2026-05-02T11:42:10.139Z</time></trkpt><trkpt lat="46.1807416" lon="13.5024525"><ele>660.5</ele><time>2026-05-02T11:42:11.135Z</time></trkpt><trkpt lat="46.1808284" lon="13.5023195"><ele>662.0</ele><time>2026-05-02T11:42:13.138Z</time></trkpt><trkpt lat="46.1808729" lon="13.5022522"><ele>662.0</ele><time>2026-05-02T11:42:14.129Z</time></trkpt><trkpt lat="46.1809239" lon="13.5021795"><ele>662.0</ele><time>2026-05-02T11:42:15.137Z</time></trkpt><trkpt lat="46.1809722" lon="13.5021041"><ele>662.0</ele><time>2026-05-02T11:42:16.14Z</time></trkpt><trkpt lat="46.1810193" lon="13.5020122"><ele>662.0</ele><time>2026-05-02T11:42:17.128Z</time></trkpt><trkpt lat="46.1810708" lon="13.5019188"><ele>662.0</ele><time>2026-05-02T11:42:18.138Z</time></trkpt><trkpt lat="46.1811359" lon="13.5018115"><ele>662.0</ele><time>2026-05-02T11:42:19.141Z</time></trkpt><trkpt lat="46.1812016" lon="13.5016907"><ele>660.2</ele><time>2026-05-02T11:42:20.14Z</time></trkpt><trkpt lat="46.1812688" lon="13.5015714"><ele>658.4000000000001</ele><time>2026-05-02T11:42:21.138Z</time></trkpt><trkpt lat="46.1813256" lon="13.5014594"><ele>656.5999999999999</ele><time>2026-05-02T11:42:22.13Z</time></trkpt><trkpt lat="46.1813897" lon="13.5013456"><ele>654.8</ele><time>2026-05-02T11:42:23.127Z</time></trkpt><trkpt lat="46.1814463" lon="13.5012348"><ele>653.0</ele><time>2026-05-02T11:42:24.135Z</time></trkpt><trkpt lat="46.1815108" lon="13.5011331"><ele>655.8</ele><time>2026-05-02T11:42:25.132Z</time></trkpt><trkpt lat="46.1815754" lon="13.5010195"><ele>658.5999999999999</ele><time>2026-05-02T11:42:26.129Z</time></trkpt><trkpt lat="46.181644" lon="13.5008928"><ele>661.4000000000001</ele><time>2026-05-02T11:42:27.132Z</time></trkpt><trkpt lat="46.1817089" lon="13.5007729"><ele>664.2</ele><time>2026-05-02T11:42:28.143Z</time></trkpt><trkpt lat="46.1817878" lon="13.5006624"><ele>667.0</ele><time>2026-05-02T11:42:29.141Z</time></trkpt><trkpt lat="46.181854" lon="13.5005368"><ele>667.0</ele><time>2026-05-02T11:42:30.14Z</time></trkpt><trkpt lat="46.1819222" lon="13.5004185"><ele>667.0</ele><time>2026-05-02T11:42:31.134Z</time></trkpt><trkpt lat="46.1819848" lon="13.5003134"><ele>667.0</ele><time>2026-05-02T11:42:32.145Z</time></trkpt><trkpt lat="46.1820539" lon="13.5002163"><ele>667.0</ele><time>2026-05-02T11:42:33.145Z</time></trkpt><trkpt lat="46.1821143" lon="13.5001223"><ele>667.0</ele><time>2026-05-02T11:42:34.14Z</time></trkpt><trkpt lat="46.1821777" lon="13.5000305"><ele>667.8</ele><time>2026-05-02T11:42:35.141Z</time></trkpt><trkpt lat="46.1822483" lon="13.4999351"><ele>668.6</ele><time>2026-05-02T11:42:36.127Z</time></trkpt><trkpt lat="46.1823346" lon="13.4998486"><ele>669.4</ele><time>2026-05-02T11:42:37.14Z</time></trkpt><trkpt lat="46.1824173" lon="13.4997753"><ele>670.1999999999999</ele><time>2026-05-02T11:42:38.138Z</time></trkpt><trkpt lat="46.1825011" lon="13.4996995"><ele>671.0</ele><time>2026-05-02T11:42:39.139Z</time></trkpt><trkpt lat="46.1825914" lon="13.4996303"><ele>668.8</ele><time>2026-05-02T11:42:40.134Z</time></trkpt><trkpt lat="46.182688" lon="13.4995804"><ele>666.5999999999999</ele><time>2026-05-02T11:42:41.134Z</time></trkpt><trkpt lat="46.1827832" lon="13.4995374"><ele>664.4</ele><time>2026-05-02T11:42:42.132Z</time></trkpt><trkpt lat="46.1828839" lon="13.4994859"><ele>662.2</ele><time>2026-05-02T11:42:43.131Z</time></trkpt><trkpt lat="46.1829743" lon="13.4994338"><ele>660.0</ele><time>2026-05-02T11:42:44.138Z</time></trkpt><trkpt lat="46.1830651" lon="13.4993577"><ele>660.0</ele><time>2026-05-02T11:42:45.151Z</time></trkpt><trkpt lat="46.1831526" lon="13.4992502"><ele>660.0</ele><time>2026-05-02T11:42:46.13Z</time></trkpt><trkpt lat="46.1832484" lon="13.4991481"><ele>660.0</ele><time>2026-05-02T11:42:47.138Z</time></trkpt><trkpt lat="46.1833364" lon="13.4990462"><ele>660.0</ele><time>2026-05-02T11:42:48.142Z</time></trkpt><trkpt lat="46.183406" lon="13.4989441"><ele>660.0</ele><time>2026-05-02T11:42:49.134Z</time></trkpt><trkpt lat="46.1834862" lon="13.4988441"><ele>661.0</ele><time>2026-05-02T11:42:50.129Z</time></trkpt><trkpt lat="46.1835666" lon="13.4987567"><ele>662.0</ele><time>2026-05-02T11:42:51.134Z</time></trkpt><trkpt lat="46.183649" lon="13.4986806"><ele>663.0</ele><time>2026-05-02T11:42:52.148Z</time></trkpt><trkpt lat="46.18373" lon="13.4986262"><ele>664.0</ele><time>2026-05-02T11:42:53.134Z</time></trkpt><trkpt lat="46.1838213" lon="13.4985709"><ele>665.0</ele><time>2026-05-02T11:42:54.128Z</time></trkpt><trkpt lat="46.1839175" lon="13.498526"><ele>663.4</ele><time>2026-05-02T11:42:55.135Z</time></trkpt><trkpt lat="46.1840171" lon="13.498462"><ele>661.8</ele><time>2026-05-02T11:42:56.156Z</time></trkpt><trkpt lat="46.184104" lon="13.4983933"><ele>660.2</ele><time>2026-05-02T11:42:57.136Z</time></trkpt><trkpt lat="46.1841871" lon="13.4983134"><ele>658.6</ele><time>2026-05-02T11:42:58.126Z</time></trkpt><trkpt lat="46.1842738" lon="13.4982473"><ele>657.0</ele><time>2026-05-02T11:42:59.142Z</time></trkpt><trkpt lat="46.1843429" lon="13.4981927"><ele>657.0</ele><time>2026-05-02T11:43:00.134Z</time></trkpt><trkpt lat="46.1844083" lon="13.4981117"><ele>657.0</ele><time>2026-05-02T11:43:01.136Z</time></trkpt><trkpt lat="46.1844539" lon="13.4980348"><ele>657.0</ele><time>2026-05-02T11:43:02.148Z</time></trkpt><trkpt lat="46.1845097" lon="13.4979812"><ele>657.0</ele><time>2026-05-02T11:43:03.124Z</time></trkpt><trkpt lat="46.1846057" lon="13.49793"><ele>657.0</ele><time>2026-05-02T11:43:05.136Z</time></trkpt><trkpt lat="46.1846733" lon="13.4979408"><ele>657.0</ele><time>2026-05-02T11:43:06.133Z</time></trkpt><trkpt lat="46.1848015" lon="13.4979287"><ele>658.0</ele><time>2026-05-02T11:43:08.135Z</time></trkpt><trkpt lat="46.1848853" lon="13.4979166"><ele>659.0</ele><time>2026-05-02T11:43:09.118Z</time></trkpt><trkpt lat="46.1849544" lon="13.497896"><ele>660.0</ele><time>2026-05-02T11:43:10.136Z</time></trkpt><trkpt lat="46.1850214" lon="13.4978378"><ele>661.0</ele><time>2026-05-02T11:43:11.138Z</time></trkpt><trkpt lat="46.1850857" lon="13.4977905"><ele>662.0</ele><time>2026-05-02T11:43:12.127Z</time></trkpt><trkpt lat="46.1851496" lon="13.4977321"><ele>663.0</ele><time>2026-05-02T11:43:13.146Z</time></trkpt><trkpt lat="46.1851888" lon="13.4976566"><ele>664.0</ele><time>2026-05-02T11:43:14.127Z</time></trkpt><trkpt lat="46.1852596" lon="13.4975076"><ele>664.0</ele><time>2026-05-02T11:43:16.128Z</time></trkpt><trkpt lat="46.1853095" lon="13.4974411"><ele>664.0</ele><time>2026-05-02T11:43:17.129Z</time></trkpt><trkpt lat="46.1853948" lon="13.4972862"><ele>664.0</ele><time>2026-05-02T11:43:19.133Z</time></trkpt><trkpt lat="46.1854062" lon="13.4971683"><ele>664.0</ele><time>2026-05-02T11:43:20.13Z</time></trkpt><trkpt lat="46.1854356" lon="13.4970524"><ele>664.0</ele><time>2026-05-02T11:43:21.138Z</time></trkpt><trkpt lat="46.1854591" lon="13.4969256"><ele>661.6</ele><time>2026-05-02T11:43:22.133Z</time></trkpt><trkpt lat="46.1854782" lon="13.4967895"><ele>659.2</ele><time>2026-05-02T11:43:23.141Z</time></trkpt><trkpt lat="46.1855049" lon="13.4966496"><ele>656.8000000000001</ele><time>2026-05-02T11:43:24.133Z</time></trkpt><trkpt lat="46.1855312" lon="13.4965055"><ele>654.4000000000001</ele><time>2026-05-02T11:43:25.131Z</time></trkpt><trkpt lat="46.1855557" lon="13.4963623"><ele>652.0</ele><time>2026-05-02T11:43:26.12Z</time></trkpt><trkpt lat="46.1855901" lon="13.4962193"><ele>650.6</ele><time>2026-05-02T11:43:27.143Z</time></trkpt><trkpt lat="46.1856365" lon="13.4960779"><ele>649.2</ele><time>2026-05-02T11:43:28.141Z</time></trkpt><trkpt lat="46.1857071" lon="13.4959566"><ele>647.8</ele><time>2026-05-02T11:43:29.145Z</time></trkpt><trkpt lat="46.185777" lon="13.4958502"><ele>646.4</ele><time>2026-05-02T11:43:30.139Z</time></trkpt><trkpt lat="46.185843" lon="13.4957525"><ele>645.0</ele><time>2026-05-02T11:43:31.139Z</time></trkpt><trkpt lat="46.1859044" lon="13.4956971"><ele>651.4</ele><time>2026-05-02T11:43:32.137Z</time></trkpt><trkpt lat="46.1859579" lon="13.4956491"><ele>657.8</ele><time>2026-05-02T11:43:33.146Z</time></trkpt><trkpt lat="46.186057" lon="13.495629"><ele>664.2</ele><time>2026-05-02T11:43:35.142Z</time></trkpt><trkpt lat="46.1861867" lon="13.495648"><ele>670.6</ele><time>2026-05-02T11:43:37.134Z</time></trkpt><trkpt lat="46.1862649" lon="13.4957022"><ele>677.0</ele><time>2026-05-02T11:43:38.162Z</time></trkpt><trkpt lat="46.186334" lon="13.4957752"><ele>677.0</ele><time>2026-05-02T11:43:39.133Z</time></trkpt><trkpt lat="46.1864081" lon="13.4958732"><ele>677.0</ele><time>2026-05-02T11:43:40.145Z</time></trkpt><trkpt lat="46.1864897" lon="13.4959749"><ele>677.0</ele><time>2026-05-02T11:43:41.15Z</time></trkpt><trkpt lat="46.1865596" lon="13.4960714"><ele>677.0</ele><time>2026-05-02T11:43:42.143Z</time></trkpt><trkpt lat="46.1866386" lon="13.4961806"><ele>677.0</ele><time>2026-05-02T11:43:43.15Z</time></trkpt><trkpt lat="46.186743" lon="13.4962879"><ele>684.5</ele><time>2026-05-02T11:43:44.144Z</time></trkpt><trkpt lat="46.1868542" lon="13.4963892"><ele>692.0</ele><time>2026-05-02T11:43:45.13Z</time></trkpt><trkpt lat="46.1869558" lon="13.4964739"><ele>699.5</ele><time>2026-05-02T11:43:46.124Z</time></trkpt><trkpt lat="46.187064" lon="13.4965663"><ele>707.0</ele><time>2026-05-02T11:43:47.139Z</time></trkpt><trkpt lat="46.1871702" lon="13.4966474"><ele>707.0</ele><time>2026-05-02T11:43:48.146Z</time></trkpt><trkpt lat="46.1872723" lon="13.496729"><ele>707.0</ele><time>2026-05-02T11:43:49.137Z</time></trkpt><trkpt lat="46.1873553" lon="13.4967988"><ele>707.0</ele><time>2026-05-02T11:43:50.121Z</time></trkpt><trkpt lat="46.1874465" lon="13.4968609"><ele>707.0</ele><time>2026-05-02T11:43:51.14Z</time></trkpt><trkpt lat="46.1875392" lon="13.4969104"><ele>707.0</ele><time>2026-05-02T11:43:52.132Z</time></trkpt><trkpt lat="46.1876402" lon="13.4969561"><ele>705.0</ele><time>2026-05-02T11:43:53.131Z</time></trkpt><trkpt lat="46.1877315" lon="13.4969862"><ele>703.0</ele><time>2026-05-02T11:43:54.116Z</time></trkpt><trkpt lat="46.1878222" lon="13.4970266"><ele>701.0</ele><time>2026-05-02T11:43:55.13Z</time></trkpt><trkpt lat="46.1879086" lon="13.4970544"><ele>699.0</ele><time>2026-05-02T11:43:56.131Z</time></trkpt><trkpt lat="46.1879944" lon="13.4970998"><ele>697.0</ele><time>2026-05-02T11:43:57.141Z</time></trkpt><trkpt lat="46.188064" lon="13.4971417"><ele>695.0</ele><time>2026-05-02T11:43:58.118Z</time></trkpt><trkpt lat="46.1881264" lon="13.4971825"><ele>700.0</ele><time>2026-05-02T11:43:59.124Z</time></trkpt><trkpt lat="46.1882485" lon="13.4972304"><ele>705.0</ele><time>2026-05-02T11:44:01.134Z</time></trkpt><trkpt lat="46.1883168" lon="13.4972534"><ele>710.0</ele><time>2026-05-02T11:44:02.132Z</time></trkpt><trkpt lat="46.18838" lon="13.4972773"><ele>715.0</ele><time>2026-05-02T11:44:03.115Z</time></trkpt><trkpt lat="46.1884432" lon="13.4972984"><ele>720.0</ele><time>2026-05-02T11:44:04.134Z</time></trkpt><trkpt lat="46.1885121" lon="13.4973286"><ele>725.0</ele><time>2026-05-02T11:44:05.111Z</time></trkpt><trkpt lat="46.188583" lon="13.4973458"><ele>725.0</ele><time>2026-05-02T11:44:06.131Z</time></trkpt><trkpt lat="46.1886626" lon="13.4973436"><ele>725.0</ele><time>2026-05-02T11:44:07.124Z</time></trkpt><trkpt lat="46.1887493" lon="13.4973172"><ele>725.0</ele><time>2026-05-02T11:44:08.126Z</time></trkpt><trkpt lat="46.1888314" lon="13.4972761"><ele>725.0</ele><time>2026-05-02T11:44:09.127Z</time></trkpt><trkpt lat="46.1889047" lon="13.4972318"><ele>725.0</ele><time>2026-05-02T11:44:10.138Z</time></trkpt><trkpt lat="46.1889911" lon="13.4972029"><ele>725.0</ele><time>2026-05-02T11:44:11.118Z</time></trkpt><trkpt lat="46.1890793" lon="13.4971721"><ele>726.8</ele><time>2026-05-02T11:44:12.111Z</time></trkpt><trkpt lat="46.1891772" lon="13.497156"><ele>728.6</ele><time>2026-05-02T11:44:13.123Z</time></trkpt><trkpt lat="46.1892677" lon="13.4971323"><ele>730.4000000000001</ele><time>2026-05-02T11:44:14.127Z</time></trkpt><trkpt lat="46.1893634" lon="13.4971164"><ele>732.2</ele><time>2026-05-02T11:44:15.131Z</time></trkpt><trkpt lat="46.1894575" lon="13.4971247"><ele>734.0</ele><time>2026-05-02T11:44:16.134Z</time></trkpt><trkpt lat="46.1895444" lon="13.4971412"><ele>734.0</ele><time>2026-05-02T11:44:17.138Z</time></trkpt><trkpt lat="46.1896304" lon="13.4971818"><ele>734.0</ele><time>2026-05-02T11:44:18.121Z</time></trkpt><trkpt lat="46.189713" lon="13.4972203"><ele>734.0</ele><time>2026-05-02T11:44:19.141Z</time></trkpt><trkpt lat="46.1897927" lon="13.4972465"><ele>734.0</ele><time>2026-05-02T11:44:20.127Z</time></trkpt><trkpt lat="46.1898607" lon="13.4972705"><ele>734.0</ele><time>2026-05-02T11:44:21.133Z</time></trkpt><trkpt lat="46.190045" lon="13.4972441"><ele>737.1666666666666</ele><time>2026-05-02T11:44:31.113Z</time></trkpt><trkpt lat="46.1901018" lon="13.4972914"><ele>740.3333333333333</ele><time>2026-05-02T11:44:53.118Z</time></trkpt><trkpt lat="46.1901221" lon="13.4973903"><ele>743.5</ele><time>2026-05-02T11:45:06.116Z</time></trkpt><trkpt lat="46.1900613" lon="13.4973411"><ele>746.6666666666666</ele><time>2026-05-02T11:45:20.113Z</time></trkpt><trkpt lat="46.1901466" lon="13.4972732"><ele>749.8333333333334</ele><time>2026-05-02T11:45:32.117Z</time></trkpt><trkpt lat="46.1902389" lon="13.4973073"><ele>753.0</ele><time>2026-05-02T11:45:34.119Z</time></trkpt><trkpt lat="46.1903142" lon="13.4973932"><ele>753.0</ele><time>2026-05-02T11:45:36.111Z</time></trkpt><trkpt lat="46.1904051" lon="13.4975029"><ele>753.0</ele><time>2026-05-02T11:45:38.111Z</time></trkpt><trkpt lat="46.1904945" lon="13.4976249"><ele>753.0</ele><time>2026-05-02T11:45:40.118Z</time></trkpt><trkpt lat="46.1905518" lon="13.4976735"><ele>753.0</ele><time>2026-05-02T11:45:41.119Z</time></trkpt><trkpt lat="46.1906097" lon="13.4977105"><ele>753.0</ele><time>2026-05-02T11:45:42.117Z</time></trkpt><trkpt lat="46.1907116" lon="13.4977811"><ele>750.25</ele><time>2026-05-02T11:45:44.118Z</time></trkpt><trkpt lat="46.1908006" lon="13.4978546"><ele>747.5</ele><time>2026-05-02T11:45:46.116Z</time></trkpt><trkpt lat="46.1908868" lon="13.4979638"><ele>744.75</ele><time>2026-05-02T11:45:48.114Z</time></trkpt><trkpt lat="46.1909892" lon="13.4980537"><ele>742.0</ele><time>2026-05-02T11:45:50.113Z</time></trkpt><trkpt lat="46.1910934" lon="13.4981273"><ele>747.5</ele><time>2026-05-02T11:45:52.114Z</time></trkpt><trkpt lat="46.1911651" lon="13.4982103"><ele>753.0</ele><time>2026-05-02T11:45:54.115Z</time></trkpt><trkpt lat="46.1912468" lon="13.49826"><ele>758.5</ele><time>2026-05-02T11:45:56.121Z</time></trkpt><trkpt lat="46.1913113" lon="13.4982821"><ele>764.0</ele><time>2026-05-02T11:45:57.115Z</time></trkpt><trkpt lat="46.1914098" lon="13.4982861"><ele>769.4999999999999</ele><time>2026-05-02T11:45:58.106Z</time></trkpt><trkpt lat="46.1915019" lon="13.4982671"><ele>775.0</ele><time>2026-05-02T11:45:59.11Z</time></trkpt><trkpt lat="46.1915987" lon="13.4982217"><ele>774.9999999999999</ele><time>2026-05-02T11:46:00.106Z</time></trkpt><trkpt lat="46.191682" lon="13.4981732"><ele>775.0</ele><time>2026-05-02T11:46:01.118Z</time></trkpt><trkpt lat="46.1917485" lon="13.4981162"><ele>775.0</ele><time>2026-05-02T11:46:02.128Z</time></trkpt><trkpt lat="46.1918095" lon="13.4980505"><ele>775.0</ele><time>2026-05-02T11:46:03.113Z</time></trkpt><trkpt lat="46.1918755" lon="13.4980019"><ele>774.9999999999999</ele><time>2026-05-02T11:46:04.117Z</time></trkpt><trkpt lat="46.1919761" lon="13.4979481"><ele>775.0</ele><time>2026-05-02T11:46:06.112Z</time></trkpt><trkpt lat="46.192051" lon="13.4979573"><ele>774.9999999999999</ele><time>2026-05-02T11:46:07.125Z</time></trkpt><trkpt lat="46.1921126" lon="13.4979848"><ele>775.0</ele><time>2026-05-02T11:46:08.115Z</time></trkpt><trkpt lat="46.1921814" lon="13.4979941"><ele>775.0</ele><time>2026-05-02T11:46:09.117Z</time></trkpt><trkpt lat="46.1922533" lon="13.497989"><ele>775.0</ele><time>2026-05-02T11:46:10.117Z</time></trkpt><trkpt lat="46.1923572" lon="13.4979634"><ele>774.9999999999999</ele><time>2026-05-02T11:46:12.133Z</time></trkpt><trkpt lat="46.1924377" lon="13.49804"><ele>775.0</ele><time>2026-05-02T11:46:14.122Z</time></trkpt><trkpt lat="46.1924602" lon="13.4981559"><ele>767.8</ele><time>2026-05-02T11:46:16.147Z</time></trkpt><trkpt lat="46.1924641" lon="13.4982847"><ele>760.6</ele><time>2026-05-02T11:46:18.134Z</time></trkpt><trkpt lat="46.1924346" lon="13.4984276"><ele>753.4000000000001</ele><time>2026-05-02T11:46:20.146Z</time></trkpt><trkpt lat="46.192417" lon="13.4985609"><ele>746.2</ele><time>2026-05-02T11:46:22.128Z</time></trkpt><trkpt lat="46.19239" lon="13.4987231"><ele>739.0</ele><time>2026-05-02T11:46:24.124Z</time></trkpt><trkpt lat="46.1923752" lon="13.4988403"><ele>739.0</ele><time>2026-05-02T11:46:25.134Z</time></trkpt><trkpt lat="46.1923497" lon="13.498953"><ele>739.0</ele><time>2026-05-02T11:46:26.122Z</time></trkpt><trkpt lat="46.1923453" lon="13.499066"><ele>739.0</ele><time>2026-05-02T11:46:27.124Z</time></trkpt><trkpt lat="46.1923351" lon="13.4991763"><ele>739.0</ele><time>2026-05-02T11:46:28.12Z</time></trkpt><trkpt lat="46.1923409" lon="13.4992824"><ele>739.0</ele><time>2026-05-02T11:46:29.123Z</time></trkpt><trkpt lat="46.1923496" lon="13.4993832"><ele>739.0</ele><time>2026-05-02T11:46:30.114Z</time></trkpt><trkpt lat="46.1923893" lon="13.4995064"><ele>740.1666666666667</ele><time>2026-05-02T11:46:32.12Z</time></trkpt><trkpt lat="46.1924237" lon="13.4996032"><ele>741.3333333333334</ele><time>2026-05-02T11:46:34.124Z</time></trkpt><trkpt lat="46.1924411" lon="13.4997534"><ele>742.5</ele><time>2026-05-02T11:46:37.124Z</time></trkpt><trkpt lat="46.1924205" lon="13.499907"><ele>743.6666666666666</ele><time>2026-05-02T11:46:39.116Z</time></trkpt><trkpt lat="46.1923933" lon="13.5000321"><ele>744.8333333333333</ele><time>2026-05-02T11:46:41.125Z</time></trkpt><trkpt lat="46.1923841" lon="13.5001222"><ele>746.0</ele><time>2026-05-02T11:46:43.114Z</time></trkpt><trkpt lat="46.192586" lon="13.5001108"><ele>746.0</ele><time>2026-05-02T11:46:48.115Z</time></trkpt><trkpt lat="46.1926829" lon="13.5000916"><ele>746.0</ele><time>2026-05-02T11:46:49.116Z</time></trkpt><trkpt lat="46.1927889" lon="13.5000799"><ele>746.0</ele><time>2026-05-02T11:46:50.121Z</time></trkpt><trkpt lat="46.1928813" lon="13.5000582"><ele>746.0</ele><time>2026-05-02T11:46:51.115Z</time></trkpt><trkpt lat="46.192978" lon="13.5000242"><ele>746.0</ele><time>2026-05-02T11:46:52.121Z</time></trkpt><trkpt lat="46.1930466" lon="13.4999963"><ele>746.0</ele><time>2026-05-02T11:46:53.125Z</time></trkpt><trkpt lat="46.1931667" lon="13.4999675"><ele>746.0</ele><time>2026-05-02T11:46:55.122Z</time></trkpt><trkpt lat="46.1932803" lon="13.4999902"><ele>746.0</ele><time>2026-05-02T11:46:57.117Z</time></trkpt><trkpt lat="46.1933914" lon="13.5000091"><ele>746.0</ele><time>2026-05-02T11:46:59.126Z</time></trkpt><trkpt lat="46.193469" lon="13.5001034"><ele>746.1666666666666</ele><time>2026-05-02T11:47:01.117Z</time></trkpt><trkpt lat="46.1934971" lon="13.5002367"><ele>746.3333333333333</ele><time>2026-05-02T11:47:03.118Z</time></trkpt><trkpt lat="46.1935056" lon="13.500383"><ele>746.5</ele><time>2026-05-02T11:47:05.111Z</time></trkpt><trkpt lat="46.1935088" lon="13.5004776"><ele>746.6666666666666</ele><time>2026-05-02T11:47:06.113Z</time></trkpt><trkpt lat="46.1934882" lon="13.5006426"><ele>746.8333333333334</ele><time>2026-05-02T11:47:08.123Z</time></trkpt><trkpt lat="46.193487" lon="13.5007428"><ele>747.0</ele><time>2026-05-02T11:47:09.111Z</time></trkpt><trkpt lat="46.1934868" lon="13.500836"><ele>747.0</ele><time>2026-05-02T11:47:10.118Z</time></trkpt><trkpt lat="46.1934945" lon="13.5009691"><ele>747.0</ele><time>2026-05-02T11:47:12.116Z</time></trkpt><trkpt lat="46.1935022" lon="13.501077"><ele>747.0</ele><time>2026-05-02T11:47:14.118Z</time></trkpt><trkpt lat="46.1935956" lon="13.501166"><ele>747.0</ele><time>2026-05-02T11:47:16.128Z</time></trkpt><trkpt lat="46.1936573" lon="13.5012063"><ele>747.0</ele><time>2026-05-02T11:47:17.122Z</time></trkpt><trkpt lat="46.1937289" lon="13.501246"><ele>747.0</ele><time>2026-05-02T11:47:18.119Z</time></trkpt><trkpt lat="46.1937946" lon="13.5012862"><ele>752.2</ele><time>2026-05-02T11:47:19.12Z</time></trkpt><trkpt lat="46.1938739" lon="13.5013447"><ele>757.4000000000001</ele><time>2026-05-02T11:47:20.123Z</time></trkpt><trkpt lat="46.1939475" lon="13.5014106"><ele>762.5999999999999</ele><time>2026-05-02T11:47:21.119Z</time></trkpt><trkpt lat="46.1940228" lon="13.5014943"><ele>767.8</ele><time>2026-05-02T11:47:22.122Z</time></trkpt><trkpt lat="46.1940953" lon="13.5015732"><ele>773.0</ele><time>2026-05-02T11:47:23.123Z</time></trkpt><trkpt lat="46.1941773" lon="13.5016395"><ele>773.0</ele><time>2026-05-02T11:47:24.122Z</time></trkpt><trkpt lat="46.1942614" lon="13.5017156"><ele>773.0</ele><time>2026-05-02T11:47:25.125Z</time></trkpt><trkpt lat="46.1943382" lon="13.5018055"><ele>773.0</ele><time>2026-05-02T11:47:26.118Z</time></trkpt><trkpt lat="46.1944208" lon="13.5019012"><ele>773.0</ele><time>2026-05-02T11:47:27.118Z</time></trkpt><trkpt lat="46.1945068" lon="13.5019992"><ele>773.0</ele><time>2026-05-02T11:47:28.12Z</time></trkpt><trkpt lat="46.1945774" lon="13.5020781"><ele>773.0000000000001</ele><time>2026-05-02T11:47:29.121Z</time></trkpt><trkpt lat="46.1946381" lon="13.5021479"><ele>773.0</ele><time>2026-05-02T11:47:30.122Z</time></trkpt><trkpt lat="46.1946906" lon="13.5022305"><ele>773.0</ele><time>2026-05-02T11:47:31.113Z</time></trkpt><trkpt lat="46.1947424" lon="13.5023097"><ele>773.0</ele><time>2026-05-02T11:47:32.119Z</time></trkpt><trkpt lat="46.1947943" lon="13.5023852"><ele>773.0000000000001</ele><time>2026-05-02T11:47:33.116Z</time></trkpt><trkpt lat="46.1948481" lon="13.5024575"><ele>773.0</ele><time>2026-05-02T11:47:34.113Z</time></trkpt><trkpt lat="46.194902" lon="13.5025408"><ele>773.0000000000001</ele><time>2026-05-02T11:47:35.121Z</time></trkpt><trkpt lat="46.1949553" lon="13.5026254"><ele>773.0</ele><time>2026-05-02T11:47:36.116Z</time></trkpt><trkpt lat="46.1950056" lon="13.5026978"><ele>773.0</ele><time>2026-05-02T11:47:37.126Z</time></trkpt><trkpt lat="46.1950915" lon="13.5027951"><ele>773.0</ele><time>2026-05-02T11:47:39.115Z</time></trkpt><trkpt lat="46.1951833" lon="13.5028889"><ele>773.0000000000001</ele><time>2026-05-02T11:47:41.113Z</time></trkpt><trkpt lat="46.1952179" lon="13.5029758"><ele>773.0</ele><time>2026-05-02T11:47:42.125Z</time></trkpt><trkpt lat="46.195253" lon="13.5030528"><ele>773.0</ele><time>2026-05-02T11:47:43.125Z</time></trkpt><trkpt lat="46.1953324" lon="13.5031306"><ele>773.0</ele><time>2026-05-02T11:47:45.122Z</time></trkpt><trkpt lat="46.1953873" lon="13.5032334"><ele>773.0</ele><time>2026-05-02T11:47:47.121Z</time></trkpt><trkpt lat="46.1954324" lon="13.5033138"><ele>773.0</ele><time>2026-05-02T11:47:48.119Z</time></trkpt><trkpt lat="46.1955215" lon="13.5034654"><ele>773.0</ele><time>2026-05-02T11:47:50.123Z</time></trkpt><trkpt lat="46.1955919" lon="13.50354"><ele>773.0000000000001</ele><time>2026-05-02T11:47:51.118Z</time></trkpt><trkpt lat="46.1956512" lon="13.5036101"><ele>773.0</ele><time>2026-05-02T11:47:52.131Z</time></trkpt><trkpt lat="46.1957183" lon="13.5036794"><ele>773.0</ele><time>2026-05-02T11:47:53.119Z</time></trkpt><trkpt lat="46.19577" lon="13.503759"><ele>773.0</ele><time>2026-05-02T11:47:54.115Z</time></trkpt><trkpt lat="46.1958214" lon="13.5038413"><ele>773.0000000000001</ele><time>2026-05-02T11:47:55.122Z</time></trkpt><trkpt lat="46.1958807" lon="13.5039171"><ele>773.0</ele><time>2026-05-02T11:47:56.117Z</time></trkpt><trkpt lat="46.1959339" lon="13.5039943"><ele>773.0000000000001</ele><time>2026-05-02T11:47:57.129Z</time></trkpt><trkpt lat="46.195965" lon="13.5040819"><ele>773.0</ele><time>2026-05-02T11:47:58.111Z</time></trkpt><trkpt lat="46.1959984" lon="13.5041622"><ele>773.0</ele><time>2026-05-02T11:47:59.115Z</time></trkpt><trkpt lat="46.1960258" lon="13.5042809"><ele>773.0</ele><time>2026-05-02T11:48:00.114Z</time></trkpt><trkpt lat="46.1960482" lon="13.5043932"><ele>773.0000000000001</ele><time>2026-05-02T11:48:01.113Z</time></trkpt><trkpt lat="46.1960491" lon="13.5045236"><ele>773.0</ele><time>2026-05-02T11:48:02.113Z</time></trkpt><trkpt lat="46.1960483" lon="13.5046557"><ele>773.0000000000001</ele><time>2026-05-02T11:48:03.111Z</time></trkpt><trkpt lat="46.1960675" lon="13.5047851"><ele>773.0</ele><time>2026-05-02T11:48:04.11Z</time></trkpt><trkpt lat="46.1960808" lon="13.5049273"><ele>773.0</ele><time>2026-05-02T11:48:05.111Z</time></trkpt><trkpt lat="46.196089" lon="13.5050634"><ele>773.0</ele><time>2026-05-02T11:48:06.122Z</time></trkpt><trkpt lat="46.1961065" lon="13.505175"><ele>773.0000000000001</ele><time>2026-05-02T11:48:07.131Z</time></trkpt><trkpt lat="46.1961307" lon="13.5052781"><ele>773.0</ele><time>2026-05-02T11:48:08.114Z</time></trkpt><trkpt lat="46.1961537" lon="13.5053668"><ele>773.0</ele><time>2026-05-02T11:48:09.119Z</time></trkpt><trkpt lat="46.1961759" lon="13.5054528"><ele>773.0</ele><time>2026-05-02T11:48:10.114Z</time></trkpt><trkpt lat="46.1961967" lon="13.5055993"><ele>773.0</ele><time>2026-05-02T11:48:12.117Z</time></trkpt><trkpt lat="46.1962334" lon="13.5056804"><ele>773.0</ele><time>2026-05-02T11:48:14.114Z</time></trkpt><trkpt lat="46.1964277" lon="13.5056882"><ele>773.0</ele><time>2026-05-02T11:48:19.111Z</time></trkpt><trkpt lat="46.1964985" lon="13.50577"><ele>773.0000000000001</ele><time>2026-05-02T11:48:22.113Z</time></trkpt><trkpt lat="46.1965685" lon="13.5059249"><ele>773.0</ele><time>2026-05-02T11:48:24.114Z</time></trkpt><trkpt lat="46.196587" lon="13.5060174"><ele>773.0</ele><time>2026-05-02T11:48:25.113Z</time></trkpt><trkpt lat="46.19661" lon="13.5061236"><ele>773.0</ele><time>2026-05-02T11:48:26.115Z</time></trkpt><trkpt lat="46.1966551" lon="13.5062289"><ele>773.0000000000001</ele><time>2026-05-02T11:48:27.115Z</time></trkpt><trkpt lat="46.1966771" lon="13.5063266"><ele>773.0</ele><time>2026-05-02T11:48:28.123Z</time></trkpt><trkpt lat="46.1966863" lon="13.5064189"><ele>773.0</ele><time>2026-05-02T11:48:29.113Z</time></trkpt><trkpt lat="46.1967287" lon="13.5065015"><ele>773.0</ele><time>2026-05-02T11:48:30.109Z</time></trkpt><trkpt lat="46.1967809" lon="13.5066679"><ele>773.0</ele><time>2026-05-02T11:48:32.128Z</time></trkpt><trkpt lat="46.1968209" lon="13.5068224"><ele>773.0</ele><time>2026-05-02T11:48:34.11Z</time></trkpt><trkpt lat="46.196856" lon="13.5069112"><ele>773.0</ele><time>2026-05-02T11:48:35.113Z</time></trkpt><trkpt lat="46.1969013" lon="13.5070533"><ele>773.0</ele><time>2026-05-02T11:48:37.125Z</time></trkpt><trkpt lat="46.1969133" lon="13.507148"><ele>773.0</ele><time>2026-05-02T11:48:38.12Z</time></trkpt><trkpt lat="46.1969467" lon="13.5073149"><ele>773.0</ele><time>2026-05-02T11:48:40.114Z</time></trkpt><trkpt lat="46.196999" lon="13.507464"><ele>773.0</ele><time>2026-05-02T11:48:42.108Z</time></trkpt><trkpt lat="46.197059" lon="13.5076"><ele>773.0</ele><time>2026-05-02T11:48:44.117Z</time></trkpt><trkpt lat="46.1971482" lon="13.5076662"><ele>773.0000000000001</ele><time>2026-05-02T11:48:46.124Z</time></trkpt><trkpt lat="46.1972428" lon="13.5076209"><ele>773.0</ele><time>2026-05-02T11:48:47.112Z</time></trkpt><trkpt lat="46.1973269" lon="13.5075826"><ele>773.0</ele><time>2026-05-02T11:48:48.114Z</time></trkpt><trkpt lat="46.1973845" lon="13.5075299"><ele>773.0</ele><time>2026-05-02T11:48:49.116Z</time></trkpt><trkpt lat="46.1974394" lon="13.5074545"><ele>773.0000000000001</ele><time>2026-05-02T11:48:50.112Z</time></trkpt><trkpt lat="46.1974738" lon="13.5073673"><ele>773.0</ele><time>2026-05-02T11:48:51.11Z</time></trkpt><trkpt lat="46.1975111" lon="13.5072864"><ele>773.0</ele><time>2026-05-02T11:48:52.116Z</time></trkpt><trkpt lat="46.197562" lon="13.5071887"><ele>773.0</ele><time>2026-05-02T11:48:53.121Z</time></trkpt><trkpt lat="46.1976114" lon="13.5071007"><ele>773.0</ele><time>2026-05-02T11:48:54.131Z</time></trkpt><trkpt lat="46.1976524" lon="13.5070069"><ele>773.0</ele><time>2026-05-02T11:48:55.114Z</time></trkpt><trkpt lat="46.1976815" lon="13.5069231"><ele>773.0</ele><time>2026-05-02T11:48:56.126Z</time></trkpt><trkpt lat="46.197726" lon="13.506842"><ele>773.0</ele><time>2026-05-02T11:48:57.123Z</time></trkpt><trkpt lat="46.1977696" lon="13.5067641"><ele>773.0</ele><time>2026-05-02T11:48:58.114Z</time></trkpt><trkpt lat="46.197837" lon="13.5066012"><ele>773.0000000000001</ele><time>2026-05-02T11:49:00.122Z</time></trkpt><trkpt lat="46.1978661" lon="13.5065006"><ele>773.0</ele><time>2026-05-02T11:49:01.108Z</time></trkpt><trkpt lat="46.1978965" lon="13.5063842"><ele>773.0</ele><time>2026-05-02T11:49:02.11Z</time></trkpt><trkpt lat="46.1979173" lon="13.506258"><ele>773.0</ele><time>2026-05-02T11:49:03.111Z</time></trkpt><trkpt lat="46.1979361" lon="13.5061315"><ele>773.0000000000001</ele><time>2026-05-02T11:49:04.109Z</time></trkpt><trkpt lat="46.1979681" lon="13.5060063"><ele>773.0</ele><time>2026-05-02T11:49:05.11Z</time></trkpt><trkpt lat="46.1979865" lon="13.5058755"><ele>768.5000000000001</ele><time>2026-05-02T11:49:06.114Z</time></trkpt><trkpt lat="46.1980005" lon="13.5057403"><ele>764.0</ele><time>2026-05-02T11:49:07.117Z</time></trkpt><trkpt lat="46.1980043" lon="13.505614"><ele>759.5</ele><time>2026-05-02T11:49:08.114Z</time></trkpt><trkpt lat="46.1980184" lon="13.5054891"><ele>755.0</ele><time>2026-05-02T11:49:09.125Z</time></trkpt><trkpt lat="46.1980371" lon="13.5053627"><ele>750.5</ele><time>2026-05-02T11:49:10.111Z</time></trkpt><trkpt lat="46.1980483" lon="13.5052386"><ele>746.0</ele><time>2026-05-02T11:49:11.114Z</time></trkpt><trkpt lat="46.1980585" lon="13.5051229"><ele>746.0</ele><time>2026-05-02T11:49:12.111Z</time></trkpt><trkpt lat="46.1980818" lon="13.5049899"><ele>746.0</ele><time>2026-05-02T11:49:13.111Z</time></trkpt><trkpt lat="46.19811" lon="13.504849"><ele>746.0</ele><time>2026-05-02T11:49:14.121Z</time></trkpt><trkpt lat="46.1981392" lon="13.5047071"><ele>746.0</ele><time>2026-05-02T11:49:15.116Z</time></trkpt><trkpt lat="46.1981598" lon="13.5045933"><ele>746.0</ele><time>2026-05-02T11:49:16.111Z</time></trkpt><trkpt lat="46.198171" lon="13.5044596"><ele>748.6666666666666</ele><time>2026-05-02T11:49:17.115Z</time></trkpt><trkpt lat="46.1982013" lon="13.5043362"><ele>751.3333333333333</ele><time>2026-05-02T11:49:18.117Z</time></trkpt><trkpt lat="46.198215" lon="13.5042261"><ele>754.0</ele><time>2026-05-02T11:49:19.121Z</time></trkpt><trkpt lat="46.1982371" lon="13.5041126"><ele>756.6666666666666</ele><time>2026-05-02T11:49:20.11Z</time></trkpt><trkpt lat="46.1982552" lon="13.5039865"><ele>759.3333333333334</ele><time>2026-05-02T11:49:21.117Z</time></trkpt><trkpt lat="46.1982699" lon="13.5038477"><ele>762.0</ele><time>2026-05-02T11:49:22.115Z</time></trkpt><trkpt lat="46.1982866" lon="13.5037001"><ele>762.0</ele><time>2026-05-02T11:49:23.121Z</time></trkpt><trkpt lat="46.198305" lon="13.5035514"><ele>762.0</ele><time>2026-05-02T11:49:24.109Z</time></trkpt><trkpt lat="46.1983219" lon="13.5034033"><ele>762.0</ele><time>2026-05-02T11:49:25.107Z</time></trkpt><trkpt lat="46.1983348" lon="13.5032551"><ele>762.0</ele><time>2026-05-02T11:49:26.118Z</time></trkpt><trkpt lat="46.1983581" lon="13.5031137"><ele>762.0</ele><time>2026-05-02T11:49:27.115Z</time></trkpt><trkpt lat="46.1983783" lon="13.5029679"><ele>760.8</ele><time>2026-05-02T11:49:28.118Z</time></trkpt><trkpt lat="46.1983905" lon="13.5028348"><ele>759.6</ele><time>2026-05-02T11:49:29.116Z</time></trkpt><trkpt lat="46.1983909" lon="13.5027205"><ele>758.4</ele><time>2026-05-02T11:49:30.116Z</time></trkpt><trkpt lat="46.198407" lon="13.5025942"><ele>757.1999999999999</ele><time>2026-05-02T11:49:31.108Z</time></trkpt><trkpt lat="46.198429" lon="13.5024481"><ele>756.0</ele><time>2026-05-02T11:49:32.117Z</time></trkpt><trkpt lat="46.1984511" lon="13.5022926"><ele>756.0</ele><time>2026-05-02T11:49:33.109Z</time></trkpt><trkpt lat="46.1984707" lon="13.5021425"><ele>756.0</ele><time>2026-05-02T11:49:34.114Z</time></trkpt><trkpt lat="46.1984931" lon="13.5020112"><ele>756.0</ele><time>2026-05-02T11:49:35.11Z</time></trkpt><trkpt lat="46.1985131" lon="13.5018726"><ele>756.0</ele><time>2026-05-02T11:49:36.115Z</time></trkpt><trkpt lat="46.1985322" lon="13.5017335"><ele>756.0</ele><time>2026-05-02T11:49:37.114Z</time></trkpt><trkpt lat="46.1985448" lon="13.5015885"><ele>754.8</ele><time>2026-05-02T11:49:38.13Z</time></trkpt><trkpt lat="46.1985558" lon="13.5014521"><ele>753.5999999999999</ele><time>2026-05-02T11:49:39.116Z</time></trkpt><trkpt lat="46.1985699" lon="13.5013127"><ele>752.4</ele><time>2026-05-02T11:49:40.109Z</time></trkpt><trkpt lat="46.1985915" lon="13.5011687"><ele>751.2</ele><time>2026-05-02T11:49:41.11Z</time></trkpt><trkpt lat="46.1986155" lon="13.5010231"><ele>750.0</ele><time>2026-05-02T11:49:42.122Z</time></trkpt><trkpt lat="46.1986371" lon="13.5008692"><ele>749.8</ele><time>2026-05-02T11:49:43.111Z</time></trkpt><trkpt lat="46.1986496" lon="13.5007085"><ele>749.6</ele><time>2026-05-02T11:49:44.119Z</time></trkpt><trkpt lat="46.1986465" lon="13.5005582"><ele>749.4000000000001</ele><time>2026-05-02T11:49:45.121Z</time></trkpt><trkpt lat="46.1986327" lon="13.5004187"><ele>749.2</ele><time>2026-05-02T11:49:46.112Z</time></trkpt><trkpt lat="46.1986202" lon="13.5002814"><ele>749.0</ele><time>2026-05-02T11:49:47.119Z</time></trkpt><trkpt lat="46.1986082" lon="13.5001541"><ele>748.5</ele><time>2026-05-02T11:49:48.121Z</time></trkpt><trkpt lat="46.1985982" lon="13.5000345"><ele>748.0</ele><time>2026-05-02T11:49:49.125Z</time></trkpt><trkpt lat="46.1985961" lon="13.4999212"><ele>747.5</ele><time>2026-05-02T11:49:50.118Z</time></trkpt><trkpt lat="46.198601" lon="13.4998048"><ele>747.0</ele><time>2026-05-02T11:49:51.119Z</time></trkpt><trkpt lat="46.198616" lon="13.4996736"><ele>746.5</ele><time>2026-05-02T11:49:52.115Z</time></trkpt><trkpt lat="46.1986359" lon="13.4995306"><ele>746.0</ele><time>2026-05-02T11:49:53.122Z</time></trkpt><trkpt lat="46.1986834" lon="13.4993666"><ele>745.1999999999999</ele><time>2026-05-02T11:49:54.129Z</time></trkpt><trkpt lat="46.198693" lon="13.4992345"><ele>744.4</ele><time>2026-05-02T11:49:55.116Z</time></trkpt><trkpt lat="46.1986942" lon="13.4990796"><ele>743.6</ele><time>2026-05-02T11:49:56.133Z</time></trkpt><trkpt lat="46.1986743" lon="13.4989117"><ele>742.8</ele><time>2026-05-02T11:49:57.123Z</time></trkpt><trkpt lat="46.1986565" lon="13.4987454"><ele>742.0</ele><time>2026-05-02T11:49:58.116Z</time></trkpt><trkpt lat="46.198631" lon="13.4985423"><ele>744.0</ele><time>2026-05-02T11:49:59.131Z</time></trkpt><trkpt lat="46.1986121" lon="13.4983493"><ele>746.0</ele><time>2026-05-02T11:50:00.122Z</time></trkpt><trkpt lat="46.1986175" lon="13.4981525"><ele>748.0</ele><time>2026-05-02T11:50:01.135Z</time></trkpt><trkpt lat="46.1986212" lon="13.4979675"><ele>750.0</ele><time>2026-05-02T11:50:02.129Z</time></trkpt><trkpt lat="46.1986303" lon="13.4977979"><ele>750.4</ele><time>2026-05-02T11:50:03.133Z</time></trkpt><trkpt lat="46.198651" lon="13.497633"><ele>750.8</ele><time>2026-05-02T11:50:04.132Z</time></trkpt><trkpt lat="46.1986827" lon="13.4974949"><ele>751.2</ele><time>2026-05-02T11:50:05.141Z</time></trkpt><trkpt lat="46.1987201" lon="13.4973629"><ele>751.6</ele><time>2026-05-02T11:50:06.134Z</time></trkpt><trkpt lat="46.1987616" lon="13.497216"><ele>752.0</ele><time>2026-05-02T11:50:07.123Z</time></trkpt><trkpt lat="46.1988095" lon="13.4970758"><ele>751.2</ele><time>2026-05-02T11:50:08.13Z</time></trkpt><trkpt lat="46.1988453" lon="13.4969306"><ele>750.4000000000001</ele><time>2026-05-02T11:50:09.133Z</time></trkpt><trkpt lat="46.1988671" lon="13.4967729"><ele>749.5999999999999</ele><time>2026-05-02T11:50:10.154Z</time></trkpt><trkpt lat="46.1988693" lon="13.4966091"><ele>748.8</ele><time>2026-05-02T11:50:11.129Z</time></trkpt><trkpt lat="46.1988534" lon="13.496441"><ele>748.0</ele><time>2026-05-02T11:50:12.141Z</time></trkpt><trkpt lat="46.1988335" lon="13.4962887"><ele>749.0</ele><time>2026-05-02T11:50:13.135Z</time></trkpt><trkpt lat="46.1988219" lon="13.4961361"><ele>750.0</ele><time>2026-05-02T11:50:14.137Z</time></trkpt><trkpt lat="46.198805" lon="13.4959948"><ele>751.0</ele><time>2026-05-02T11:50:15.135Z</time></trkpt><trkpt lat="46.1987882" lon="13.4958672"><ele>752.0</ele><time>2026-05-02T11:50:16.132Z</time></trkpt><trkpt lat="46.1987713" lon="13.4957473"><ele>753.0</ele><time>2026-05-02T11:50:17.141Z</time></trkpt><trkpt lat="46.1987595" lon="13.4956412"><ele>753.0</ele><time>2026-05-02T11:50:18.127Z</time></trkpt><trkpt lat="46.1987406" lon="13.4955071"><ele>753.0</ele><time>2026-05-02T11:50:20.137Z</time></trkpt><trkpt lat="46.1987111" lon="13.495403"><ele>753.0</ele><time>2026-05-02T11:50:23.138Z</time></trkpt><trkpt lat="46.1986844" lon="13.4952943"><ele>753.0</ele><time>2026-05-02T11:50:36.135Z</time></trkpt><trkpt lat="46.1986591" lon="13.495194"><ele>753.0</ele><time>2026-05-02T11:50:37.135Z</time></trkpt><trkpt lat="46.1986457" lon="13.495098"><ele>753.0</ele><time>2026-05-02T11:50:38.156Z</time></trkpt><trkpt lat="46.1986363" lon="13.4949492"><ele>754.2</ele><time>2026-05-02T11:50:40.147Z</time></trkpt><trkpt lat="46.1986205" lon="13.494824"><ele>755.4</ele><time>2026-05-02T11:50:42.13Z</time></trkpt><trkpt lat="46.1986009" lon="13.4947033"><ele>756.6</ele><time>2026-05-02T11:50:44.132Z</time></trkpt><trkpt lat="46.1985855" lon="13.4945774"><ele>757.8000000000001</ele><time>2026-05-02T11:50:46.135Z</time></trkpt><trkpt lat="46.1985685" lon="13.4944255"><ele>759.0</ele><time>2026-05-02T11:50:48.143Z</time></trkpt><trkpt lat="46.1985587" lon="13.4942768"><ele>759.6666666666666</ele><time>2026-05-02T11:50:50.139Z</time></trkpt><trkpt lat="46.1985767" lon="13.4941093"><ele>760.3333333333334</ele><time>2026-05-02T11:50:52.128Z</time></trkpt><trkpt lat="46.1985899" lon="13.4940159"><ele>761.0</ele><time>2026-05-02T11:50:53.128Z</time></trkpt><trkpt lat="46.1985964" lon="13.4939057"><ele>761.6666666666667</ele><time>2026-05-02T11:50:54.119Z</time></trkpt><trkpt lat="46.1985981" lon="13.4937868"><ele>762.3333333333334</ele><time>2026-05-02T11:50:55.129Z</time></trkpt><trkpt lat="46.1985824" lon="13.4936533"><ele>763.0</ele><time>2026-05-02T11:50:56.126Z</time></trkpt><trkpt lat="46.198561" lon="13.4935251"><ele>763.3333333333334</ele><time>2026-05-02T11:50:57.129Z</time></trkpt><trkpt lat="46.1985394" lon="13.4934095"><ele>763.6666666666667</ele><time>2026-05-02T11:50:58.133Z</time></trkpt><trkpt lat="46.1985058" lon="13.4932992"><ele>764.0</ele><time>2026-05-02T11:50:59.127Z</time></trkpt><trkpt lat="46.1984806" lon="13.4931862"><ele>764.3333333333334</ele><time>2026-05-02T11:51:00.139Z</time></trkpt><trkpt lat="46.1984459" lon="13.4930642"><ele>764.6666666666666</ele><time>2026-05-02T11:51:01.144Z</time></trkpt><trkpt lat="46.1984263" lon="13.4929391"><ele>765.0</ele><time>2026-05-02T11:51:02.149Z</time></trkpt><trkpt lat="46.1984089" lon="13.4928099"><ele>765.8</ele><time>2026-05-02T11:51:03.138Z</time></trkpt><trkpt lat="46.198398" lon="13.4926743"><ele>766.6</ele><time>2026-05-02T11:51:04.143Z</time></trkpt><trkpt lat="46.1983655" lon="13.4925486"><ele>767.4000000000001</ele><time>2026-05-02T11:51:05.137Z</time></trkpt><trkpt lat="46.1983323" lon="13.4924184"><ele>768.2</ele><time>2026-05-02T11:51:06.144Z</time></trkpt><trkpt lat="46.1982889" lon="13.4922954"><ele>769.0</ele><time>2026-05-02T11:51:07.139Z</time></trkpt><trkpt lat="46.1982493" lon="13.4921826"><ele>771.2</ele><time>2026-05-02T11:51:08.139Z</time></trkpt><trkpt lat="46.1982102" lon="13.4920707"><ele>773.4000000000001</ele><time>2026-05-02T11:51:09.127Z</time></trkpt><trkpt lat="46.1981725" lon="13.4919565"><ele>775.6</ele><time>2026-05-02T11:51:10.134Z</time></trkpt><trkpt lat="46.1981392" lon="13.4918244"><ele>777.8</ele><time>2026-05-02T11:51:11.14Z</time></trkpt><trkpt lat="46.1980973" lon="13.4916929"><ele>780.0</ele><time>2026-05-02T11:51:12.139Z</time></trkpt><trkpt lat="46.1980558" lon="13.4915548"><ele>776.4</ele><time>2026-05-02T11:51:13.133Z</time></trkpt><trkpt lat="46.1980114" lon="13.4914153"><ele>772.8</ele><time>2026-05-02T11:51:14.14Z</time></trkpt><trkpt lat="46.1979647" lon="13.4912767"><ele>769.2</ele><time>2026-05-02T11:51:15.134Z</time></trkpt><trkpt lat="46.1979054" lon="13.4911393"><ele>765.6</ele><time>2026-05-02T11:51:16.136Z</time></trkpt><trkpt lat="46.1978451" lon="13.490992"><ele>762.0</ele><time>2026-05-02T11:51:17.141Z</time></trkpt><trkpt lat="46.19778" lon="13.4908615"><ele>762.0</ele><time>2026-05-02T11:51:18.142Z</time></trkpt><trkpt lat="46.1977196" lon="13.490776"><ele>762.0</ele><time>2026-05-02T11:51:19.136Z</time></trkpt><trkpt lat="46.1976638" lon="13.4907316"><ele>762.0</ele><time>2026-05-02T11:51:20.136Z</time></trkpt><trkpt lat="46.1975557" lon="13.4907872"><ele>762.0</ele><time>2026-05-02T11:51:22.141Z</time></trkpt><trkpt lat="46.1975516" lon="13.4908911"><ele>762.0</ele><time>2026-05-02T11:51:23.135Z</time></trkpt><trkpt lat="46.1976054" lon="13.4909803"><ele>762.0</ele><time>2026-05-02T11:51:24.129Z</time></trkpt><trkpt lat="46.1976746" lon="13.4910815"><ele>762.0</ele><time>2026-05-02T11:51:25.134Z</time></trkpt><trkpt lat="46.1977376" lon="13.4912121"><ele>762.0</ele><time>2026-05-02T11:51:26.144Z</time></trkpt><trkpt lat="46.1977758" lon="13.4913707"><ele>762.0</ele><time>2026-05-02T11:51:27.138Z</time></trkpt><trkpt lat="46.1977862" lon="13.491545"><ele>762.0</ele><time>2026-05-02T11:51:28.132Z</time></trkpt><trkpt lat="46.1977741" lon="13.4917148"><ele>759.4000000000001</ele><time>2026-05-02T11:51:29.146Z</time></trkpt><trkpt lat="46.1977562" lon="13.4918971"><ele>756.8000000000001</ele><time>2026-05-02T11:51:30.139Z</time></trkpt><trkpt lat="46.1977403" lon="13.4920702"><ele>754.2</ele><time>2026-05-02T11:51:31.136Z</time></trkpt><trkpt lat="46.1977407" lon="13.4922301"><ele>751.6</ele><time>2026-05-02T11:51:32.133Z</time></trkpt><trkpt lat="46.1977668" lon="13.4923294"><ele>749.0</ele><time>2026-05-02T11:51:33.137Z</time></trkpt><trkpt lat="46.1978273" lon="13.4924396"><ele>749.0</ele><time>2026-05-02T11:51:35.125Z</time></trkpt><trkpt lat="46.1977795" lon="13.4925093"><ele>749.0</ele><time>2026-05-02T11:51:37.138Z</time></trkpt><trkpt lat="46.197678" lon="13.4924242"><ele>749.0</ele><time>2026-05-02T11:51:39.139Z</time></trkpt><trkpt lat="46.1976116" lon="13.4923328"><ele>749.0</ele><time>2026-05-02T11:51:40.124Z</time></trkpt><trkpt lat="46.1975303" lon="13.4922107"><ele>749.0</ele><time>2026-05-02T11:51:41.128Z</time></trkpt><trkpt lat="46.1974457" lon="13.4920752"><ele>749.0</ele><time>2026-05-02T11:51:42.123Z</time></trkpt><trkpt lat="46.1973684" lon="13.4919295"><ele>749.0</ele><time>2026-05-02T11:51:43.122Z</time></trkpt><trkpt lat="46.1973094" lon="13.4917845"><ele>749.0</ele><time>2026-05-02T11:51:44.125Z</time></trkpt><trkpt lat="46.1972384" lon="13.4916711"><ele>749.0</ele><time>2026-05-02T11:51:45.122Z</time></trkpt><trkpt lat="46.1971468" lon="13.4915924"><ele>745.75</ele><time>2026-05-02T11:51:46.135Z</time></trkpt><trkpt lat="46.1970297" lon="13.4915201"><ele>742.5</ele><time>2026-05-02T11:51:47.133Z</time></trkpt><trkpt lat="46.1969139" lon="13.491446"><ele>739.25</ele><time>2026-05-02T11:51:48.129Z</time></trkpt><trkpt lat="46.196794" lon="13.4913511"><ele>736.0</ele><time>2026-05-02T11:51:49.129Z</time></trkpt><trkpt lat="46.1966733" lon="13.4912462"><ele>736.0</ele><time>2026-05-02T11:51:50.132Z</time></trkpt><trkpt lat="46.1965567" lon="13.4911437"><ele>736.0</ele><time>2026-05-02T11:51:51.133Z</time></trkpt><trkpt lat="46.1964424" lon="13.491042"><ele>736.0</ele><time>2026-05-02T11:51:52.129Z</time></trkpt><trkpt lat="46.1963251" lon="13.4909525"><ele>736.0</ele><time>2026-05-02T11:51:53.128Z</time></trkpt><trkpt lat="46.1962192" lon="13.4908712"><ele>729.5999999999999</ele><time>2026-05-02T11:51:54.131Z</time></trkpt><trkpt lat="46.196118" lon="13.4908025"><ele>723.2</ele><time>2026-05-02T11:51:55.121Z</time></trkpt><trkpt lat="46.1960302" lon="13.4907342"><ele>716.8</ele><time>2026-05-02T11:51:56.147Z</time></trkpt><trkpt lat="46.1959612" lon="13.4906607"><ele>710.4000000000001</ele><time>2026-05-02T11:51:57.134Z</time></trkpt><trkpt lat="46.1959287" lon="13.4905643"><ele>704.0</ele><time>2026-05-02T11:51:58.132Z</time></trkpt><trkpt lat="46.1958962" lon="13.4904484"><ele>707.25</ele><time>2026-05-02T11:51:59.123Z</time></trkpt><trkpt lat="46.1958685" lon="13.4903092"><ele>710.5</ele><time>2026-05-02T11:52:00.119Z</time></trkpt><trkpt lat="46.1958213" lon="13.4901639"><ele>713.75</ele><time>2026-05-02T11:52:01.12Z</time></trkpt><trkpt lat="46.1957707" lon="13.4899991"><ele>717.0</ele><time>2026-05-02T11:52:02.118Z</time></trkpt><trkpt lat="46.1956949" lon="13.489839"><ele>705.25</ele><time>2026-05-02T11:52:03.125Z</time></trkpt><trkpt lat="46.1956329" lon="13.4896968"><ele>693.5</ele><time>2026-05-02T11:52:04.12Z</time></trkpt><trkpt lat="46.1955824" lon="13.4895383"><ele>681.75</ele><time>2026-05-02T11:52:05.132Z</time></trkpt><trkpt lat="46.1955393" lon="13.4893671"><ele>670.0</ele><time>2026-05-02T11:52:06.14Z</time></trkpt><trkpt lat="46.1955192" lon="13.4891846"><ele>670.0</ele><time>2026-05-02T11:52:07.126Z</time></trkpt><trkpt lat="46.1955176" lon="13.4889751"><ele>670.0</ele><time>2026-05-02T11:52:08.134Z</time></trkpt><trkpt lat="46.195499" lon="13.4887623"><ele>670.0</ele><time>2026-05-02T11:52:09.128Z</time></trkpt><trkpt lat="46.1954878" lon="13.4885372"><ele>672.0</ele><time>2026-05-02T11:52:10.129Z</time></trkpt><trkpt lat="46.1954834" lon="13.4882978"><ele>674.0</ele><time>2026-05-02T11:52:11.129Z</time></trkpt><trkpt lat="46.1954712" lon="13.4880784"><ele>676.0</ele><time>2026-05-02T11:52:12.133Z</time></trkpt><trkpt lat="46.1954438" lon="13.4878634"><ele>676.0</ele><time>2026-05-02T11:52:13.134Z</time></trkpt><trkpt lat="46.1954095" lon="13.4876492"><ele>676.0</ele><time>2026-05-02T11:52:14.132Z</time></trkpt><trkpt lat="46.1953637" lon="13.4874375"><ele>676.0</ele><time>2026-05-02T11:52:15.122Z</time></trkpt><trkpt lat="46.1953097" lon="13.4872143"><ele>679.3333333333334</ele><time>2026-05-02T11:52:16.127Z</time></trkpt><trkpt lat="46.1952585" lon="13.4870032"><ele>682.6666666666666</ele><time>2026-05-02T11:52:17.124Z</time></trkpt><trkpt lat="46.1952131" lon="13.48679"><ele>686.0</ele><time>2026-05-02T11:52:18.137Z</time></trkpt><trkpt lat="46.195155" lon="13.4865913"><ele>686.0</ele><time>2026-05-02T11:52:19.123Z</time></trkpt><trkpt lat="46.1950892" lon="13.4864063"><ele>686.0</ele><time>2026-05-02T11:52:20.128Z</time></trkpt><trkpt lat="46.1950097" lon="13.4862699"><ele>686.0</ele><time>2026-05-02T11:52:21.137Z</time></trkpt><trkpt lat="46.1949048" lon="13.4861666"><ele>686.0</ele><time>2026-05-02T11:52:22.125Z</time></trkpt><trkpt lat="46.1947968" lon="13.4860794"><ele>676.5</ele><time>2026-05-02T11:52:23.112Z</time></trkpt><trkpt lat="46.1946864" lon="13.4859836"><ele>667.0</ele><time>2026-05-02T11:52:24.127Z</time></trkpt><trkpt lat="46.1945925" lon="13.4858727"><ele>657.5</ele><time>2026-05-02T11:52:25.131Z</time></trkpt><trkpt lat="46.1945248" lon="13.4857392"><ele>648.0</ele><time>2026-05-02T11:52:26.139Z</time></trkpt><trkpt lat="46.1944722" lon="13.4855565"><ele>648.75</ele><time>2026-05-02T11:52:27.126Z</time></trkpt><trkpt lat="46.1944279" lon="13.4853672"><ele>649.5</ele><time>2026-05-02T11:52:28.131Z</time></trkpt><trkpt lat="46.1944055" lon="13.4851552"><ele>650.25</ele><time>2026-05-02T11:52:29.125Z</time></trkpt><trkpt lat="46.1943915" lon="13.4849361"><ele>651.0</ele><time>2026-05-02T11:52:30.139Z</time></trkpt><trkpt lat="46.1943809" lon="13.4847449"><ele>652.75</ele><time>2026-05-02T11:52:31.124Z</time></trkpt><trkpt lat="46.194368" lon="13.4845593"><ele>654.5</ele><time>2026-05-02T11:52:32.121Z</time></trkpt><trkpt lat="46.1943366" lon="13.4843778"><ele>656.25</ele><time>2026-05-02T11:52:33.124Z</time></trkpt><trkpt lat="46.1942877" lon="13.4842143"><ele>658.0</ele><time>2026-05-02T11:52:34.121Z</time></trkpt><trkpt lat="46.1942232" lon="13.4840844"><ele>658.0</ele><time>2026-05-02T11:52:35.118Z</time></trkpt><trkpt lat="46.1941631" lon="13.4839722"><ele>658.0</ele><time>2026-05-02T11:52:36.122Z</time></trkpt><trkpt lat="46.194115" lon="13.4838832"><ele>658.0</ele><time>2026-05-02T11:52:37.12Z</time></trkpt><trkpt lat="46.1940742" lon="13.4838133"><ele>658.0</ele><time>2026-05-02T11:52:38.118Z</time></trkpt><trkpt lat="46.1940097" lon="13.4838804"><ele>658.0</ele><time>2026-05-02T11:52:40.123Z</time></trkpt><trkpt lat="46.1940099" lon="13.4839979"><ele>658.0</ele><time>2026-05-02T11:52:41.135Z</time></trkpt><trkpt lat="46.1940602" lon="13.4841314"><ele>658.0</ele><time>2026-05-02T11:52:42.123Z</time></trkpt><trkpt lat="46.1941212" lon="13.4842785"><ele>658.0</ele><time>2026-05-02T11:52:43.137Z</time></trkpt><trkpt lat="46.1941864" lon="13.4844454"><ele>658.0</ele><time>2026-05-02T11:52:44.13Z</time></trkpt><trkpt lat="46.1942261" lon="13.4846389"><ele>658.0</ele><time>2026-05-02T11:52:45.137Z</time></trkpt><trkpt lat="46.1942482" lon="13.4848321"><ele>656.25</ele><time>2026-05-02T11:52:46.151Z</time></trkpt><trkpt lat="46.194249" lon="13.4850354"><ele>654.5</ele><time>2026-05-02T11:52:47.134Z</time></trkpt><trkpt lat="46.1942324" lon="13.4852409"><ele>652.75</ele><time>2026-05-02T11:52:48.134Z</time></trkpt><trkpt lat="46.1942083" lon="13.4854428"><ele>651.0</ele><time>2026-05-02T11:52:49.145Z</time></trkpt><trkpt lat="46.1941692" lon="13.4856531"><ele>650.0</ele><time>2026-05-02T11:52:50.127Z</time></trkpt><trkpt lat="46.1941355" lon="13.4858691"><ele>649.0</ele><time>2026-05-02T11:52:51.13Z</time></trkpt><trkpt lat="46.194102" lon="13.486105"><ele>648.0</ele><time>2026-05-02T11:52:52.125Z</time></trkpt><trkpt lat="46.1940746" lon="13.4863291"><ele>648.0</ele><time>2026-05-02T11:52:53.142Z</time></trkpt><trkpt lat="46.1940583" lon="13.4865561"><ele>648.0</ele><time>2026-05-02T11:52:54.134Z</time></trkpt><trkpt lat="46.1940369" lon="13.4867834"><ele>648.0</ele><time>2026-05-02T11:52:55.134Z</time></trkpt><trkpt lat="46.194019" lon="13.4870057"><ele>635.25</ele><time>2026-05-02T11:52:56.134Z</time></trkpt><trkpt lat="46.1939957" lon="13.4872217"><ele>622.5</ele><time>2026-05-02T11:52:57.128Z</time></trkpt><trkpt lat="46.1939644" lon="13.4874386"><ele>609.75</ele><time>2026-05-02T11:52:58.134Z</time></trkpt><trkpt lat="46.1939398" lon="13.4876306"><ele>597.0</ele><time>2026-05-02T11:52:59.14Z</time></trkpt><trkpt lat="46.1939264" lon="13.4878069"><ele>597.0</ele><time>2026-05-02T11:53:00.139Z</time></trkpt><trkpt lat="46.1939278" lon="13.4879723"><ele>597.0</ele><time>2026-05-02T11:53:01.138Z</time></trkpt><trkpt lat="46.193936" lon="13.4880982"><ele>597.0</ele><time>2026-05-02T11:53:02.139Z</time></trkpt><trkpt lat="46.1939389" lon="13.4881918"><ele>597.0</ele><time>2026-05-02T11:53:03.149Z</time></trkpt><trkpt lat="46.1938682" lon="13.4879753"><ele>597.0</ele><time>2026-05-02T11:53:08.132Z</time></trkpt><trkpt lat="46.193846" lon="13.4877749"><ele>597.0</ele><time>2026-05-02T11:53:09.132Z</time></trkpt><trkpt lat="46.1938307" lon="13.4875818"><ele>597.0</ele><time>2026-05-02T11:53:10.137Z</time></trkpt><trkpt lat="46.1938229" lon="13.4873815"><ele>597.0</ele><time>2026-05-02T11:53:11.134Z</time></trkpt><trkpt lat="46.1938195" lon="13.4871626"><ele>597.0</ele><time>2026-05-02T11:53:12.136Z</time></trkpt><trkpt lat="46.1938032" lon="13.4869665"><ele>599.5</ele><time>2026-05-02T11:53:13.131Z</time></trkpt><trkpt lat="46.1937778" lon="13.4867963"><ele>602.0</ele><time>2026-05-02T11:53:14.13Z</time></trkpt><trkpt lat="46.1937411" lon="13.4866209"><ele>604.5</ele><time>2026-05-02T11:53:15.133Z</time></trkpt><trkpt lat="46.1936904" lon="13.4864624"><ele>607.0</ele><time>2026-05-02T11:53:16.12Z</time></trkpt><trkpt lat="46.1936315" lon="13.4863271"><ele>607.0</ele><time>2026-05-02T11:53:17.13Z</time></trkpt><trkpt lat="46.1935832" lon="13.486224"><ele>607.0</ele><time>2026-05-02T11:53:18.127Z</time></trkpt><trkpt lat="46.1935365" lon="13.4861548"><ele>607.0</ele><time>2026-05-02T11:53:19.125Z</time></trkpt><trkpt lat="46.1934512" lon="13.4861993"><ele>607.0</ele><time>2026-05-02T11:53:21.126Z</time></trkpt><trkpt lat="46.1934045" lon="13.4862915"><ele>607.0</ele><time>2026-05-02T11:53:22.124Z</time></trkpt><trkpt lat="46.1933369" lon="13.4863845"><ele>607.0</ele><time>2026-05-02T11:53:23.123Z</time></trkpt><trkpt lat="46.1932605" lon="13.4864614"><ele>607.0</ele><time>2026-05-02T11:53:24.125Z</time></trkpt><trkpt lat="46.1931855" lon="13.4865265"><ele>607.0</ele><time>2026-05-02T11:53:25.129Z</time></trkpt><trkpt lat="46.1931126" lon="13.4865803"><ele>607.0</ele><time>2026-05-02T11:53:26.131Z</time></trkpt><trkpt lat="46.1930214" lon="13.4866021"><ele>607.0</ele><time>2026-05-02T11:53:27.125Z</time></trkpt><trkpt lat="46.1929119" lon="13.4865746"><ele>607.0</ele><time>2026-05-02T11:53:28.125Z</time></trkpt><trkpt lat="46.1927584" lon="13.4865113"><ele>601.6666666666667</ele><time>2026-05-02T11:53:29.133Z</time></trkpt><trkpt lat="46.1925939" lon="13.48644"><ele>596.3333333333334</ele><time>2026-05-02T11:53:30.129Z</time></trkpt><trkpt lat="46.1924176" lon="13.4863509"><ele>591.0</ele><time>2026-05-02T11:53:31.136Z</time></trkpt><trkpt lat="46.1922531" lon="13.4862639"><ele>589.0</ele><time>2026-05-02T11:53:32.14Z</time></trkpt><trkpt lat="46.1921129" lon="13.4862058"><ele>587.0</ele><time>2026-05-02T11:53:33.136Z</time></trkpt><trkpt lat="46.1920061" lon="13.4861555"><ele>585.0</ele><time>2026-05-02T11:53:34.141Z</time></trkpt><trkpt lat="46.1919348" lon="13.4860671"><ele>583.0</ele><time>2026-05-02T11:53:35.147Z</time></trkpt><trkpt lat="46.1918662" lon="13.4859395"><ele>583.0</ele><time>2026-05-02T11:53:36.134Z</time></trkpt><trkpt lat="46.1917902" lon="13.4858104"><ele>583.0</ele><time>2026-05-02T11:53:37.133Z</time></trkpt><trkpt lat="46.1916822" lon="13.4857155"><ele>583.0</ele><time>2026-05-02T11:53:38.137Z</time></trkpt><trkpt lat="46.1915382" lon="13.4856552"><ele>583.0</ele><time>2026-05-02T11:53:39.137Z</time></trkpt><trkpt lat="46.1914026" lon="13.485591"><ele>581.75</ele><time>2026-05-02T11:53:40.141Z</time></trkpt><trkpt lat="46.1912812" lon="13.4855063"><ele>580.5</ele><time>2026-05-02T11:53:41.147Z</time></trkpt><trkpt lat="46.1911642" lon="13.4854196"><ele>579.25</ele><time>2026-05-02T11:53:42.141Z</time></trkpt><trkpt lat="46.1910565" lon="13.4853677"><ele>578.0</ele><time>2026-05-02T11:53:43.141Z</time></trkpt><trkpt lat="46.1909565" lon="13.4853393"><ele>578.0</ele><time>2026-05-02T11:53:44.144Z</time></trkpt><trkpt lat="46.1908638" lon="13.4853175"><ele>578.0</ele><time>2026-05-02T11:53:45.137Z</time></trkpt><trkpt lat="46.1907877" lon="13.4852766"><ele>578.0</ele><time>2026-05-02T11:53:46.144Z</time></trkpt><trkpt lat="46.1907346" lon="13.4852192"><ele>578.0</ele><time>2026-05-02T11:53:47.134Z</time></trkpt><trkpt lat="46.1906913" lon="13.485134"><ele>578.0</ele><time>2026-05-02T11:53:48.147Z</time></trkpt><trkpt lat="46.1906579" lon="13.4850181"><ele>578.0</ele><time>2026-05-02T11:53:49.141Z</time></trkpt><trkpt lat="46.1906339" lon="13.4848978"><ele>574.6</ele><time>2026-05-02T11:53:50.14Z</time></trkpt><trkpt lat="46.1906248" lon="13.4847757"><ele>571.1999999999999</ele><time>2026-05-02T11:53:51.139Z</time></trkpt><trkpt lat="46.1906175" lon="13.4846723"><ele>567.8</ele><time>2026-05-02T11:53:52.137Z</time></trkpt><trkpt lat="46.1905447" lon="13.4845311"><ele>564.4</ele><time>2026-05-02T11:53:54.145Z</time></trkpt><trkpt lat="46.190447" lon="13.4844337"><ele>561.0</ele><time>2026-05-02T11:53:56.151Z</time></trkpt><trkpt lat="46.1903978" lon="13.4843625"><ele>561.0</ele><time>2026-05-02T11:53:57.147Z</time></trkpt><trkpt lat="46.1903639" lon="13.4842681"><ele>561.0</ele><time>2026-05-02T11:53:58.149Z</time></trkpt><trkpt lat="46.1903253" lon="13.4841655"><ele>561.0</ele><time>2026-05-02T11:53:59.16Z</time></trkpt><trkpt lat="46.1902787" lon="13.4840522"><ele>561.0</ele><time>2026-05-02T11:54:00.155Z</time></trkpt><trkpt lat="46.1902279" lon="13.4839449"><ele>561.0</ele><time>2026-05-02T11:54:01.153Z</time></trkpt><trkpt lat="46.1901661" lon="13.4838554"><ele>561.0</ele><time>2026-05-02T11:54:02.145Z</time></trkpt><trkpt lat="46.1901077" lon="13.4837723"><ele>561.6666666666666</ele><time>2026-05-02T11:54:03.14Z</time></trkpt><trkpt lat="46.1900508" lon="13.4837006"><ele>562.3333333333334</ele><time>2026-05-02T11:54:04.145Z</time></trkpt><trkpt lat="46.1900009" lon="13.4836272"><ele>563.0</ele><time>2026-05-02T11:54:05.145Z</time></trkpt><trkpt lat="46.1899632" lon="13.4835386"><ele>563.6666666666667</ele><time>2026-05-02T11:54:06.149Z</time></trkpt><trkpt lat="46.1899451" lon="13.4834329"><ele>564.3333333333334</ele><time>2026-05-02T11:54:07.146Z</time></trkpt><trkpt lat="46.1899531" lon="13.4833209"><ele>565.0</ele><time>2026-05-02T11:54:08.143Z</time></trkpt><trkpt lat="46.1899742" lon="13.4831929"><ele>565.0</ele><time>2026-05-02T11:54:09.141Z</time></trkpt><trkpt lat="46.1899912" lon="13.4830568"><ele>565.0</ele><time>2026-05-02T11:54:10.139Z</time></trkpt><trkpt lat="46.1899964" lon="13.4829239"><ele>565.0</ele><time>2026-05-02T11:54:11.154Z</time></trkpt><trkpt lat="46.1899986" lon="13.4827922"><ele>565.0</ele><time>2026-05-02T11:54:12.161Z</time></trkpt><trkpt lat="46.1900018" lon="13.4826632"><ele>565.0</ele><time>2026-05-02T11:54:13.152Z</time></trkpt><trkpt lat="46.1900037" lon="13.4825498"><ele>565.0</ele><time>2026-05-02T11:54:14.15Z</time></trkpt><trkpt lat="46.190004" lon="13.4824559"><ele>563.8</ele><time>2026-05-02T11:54:15.152Z</time></trkpt><trkpt lat="46.1899429" lon="13.4823455"><ele>562.6</ele><time>2026-05-02T11:54:17.157Z</time></trkpt><trkpt lat="46.1898689" lon="13.4824622"><ele>561.4</ele><time>2026-05-02T11:54:19.149Z</time></trkpt><trkpt lat="46.1898802" lon="13.4825881"><ele>560.2</ele><time>2026-05-02T11:54:20.151Z</time></trkpt><trkpt lat="46.1898923" lon="13.4827235"><ele>559.0</ele><time>2026-05-02T11:54:21.144Z</time></trkpt><trkpt lat="46.1898911" lon="13.4828518"><ele>560.2</ele><time>2026-05-02T11:54:22.153Z</time></trkpt><trkpt lat="46.1898743" lon="13.4829829"><ele>561.4</ele><time>2026-05-02T11:54:23.152Z</time></trkpt><trkpt lat="46.1898415" lon="13.4831211"><ele>562.6</ele><time>2026-05-02T11:54:24.152Z</time></trkpt><trkpt lat="46.1897902" lon="13.4832401"><ele>563.8</ele><time>2026-05-02T11:54:25.149Z</time></trkpt><trkpt lat="46.1897201" lon="13.4833529"><ele>565.0</ele><time>2026-05-02T11:54:26.146Z</time></trkpt><trkpt lat="46.1896544" lon="13.4834674"><ele>560.0</ele><time>2026-05-02T11:54:27.154Z</time></trkpt><trkpt lat="46.1895967" lon="13.4835707"><ele>555.0</ele><time>2026-05-02T11:54:28.15Z</time></trkpt><trkpt lat="46.1895584" lon="13.4836822"><ele>550.0</ele><time>2026-05-02T11:54:29.16Z</time></trkpt><trkpt lat="46.1895536" lon="13.4837991"><ele>545.0</ele><time>2026-05-02T11:54:30.167Z</time></trkpt><trkpt lat="46.1895564" lon="13.4839165"><ele>540.0</ele><time>2026-05-02T11:54:31.148Z</time></trkpt><trkpt lat="46.189555" lon="13.4840215"><ele>535.0</ele><time>2026-05-02T11:54:32.15Z</time></trkpt><trkpt lat="46.1895633" lon="13.4841247"><ele>534.5</ele><time>2026-05-02T11:54:33.15Z</time></trkpt><trkpt lat="46.1895776" lon="13.4842288"><ele>534.0</ele><time>2026-05-02T11:54:34.156Z</time></trkpt><trkpt lat="46.1895835" lon="13.4843367"><ele>533.5</ele><time>2026-05-02T11:54:35.166Z</time></trkpt><trkpt lat="46.189571" lon="13.4844275"><ele>533.0</ele><time>2026-05-02T11:54:36.166Z</time></trkpt><trkpt lat="46.1894717" lon="13.4844387"><ele>532.5</ele><time>2026-05-02T11:54:38.152Z</time></trkpt><trkpt lat="46.1894369" lon="13.4843499"><ele>532.0</ele><time>2026-05-02T11:54:39.147Z</time></trkpt><trkpt lat="46.1894143" lon="13.4842442"><ele>532.0</ele><time>2026-05-02T11:54:40.158Z</time></trkpt><trkpt lat="46.1894006" lon="13.4841036"><ele>532.0</ele><time>2026-05-02T11:54:41.155Z</time></trkpt><trkpt lat="46.1893686" lon="13.4839454"><ele>532.0</ele><time>2026-05-02T11:54:42.154Z</time></trkpt><trkpt lat="46.1893269" lon="13.4837876"><ele>532.0</ele><time>2026-05-02T11:54:43.166Z</time></trkpt><trkpt lat="46.1892917" lon="13.4836317"><ele>532.0</ele><time>2026-05-02T11:54:44.163Z</time></trkpt><trkpt lat="46.1892736" lon="13.4834851"><ele>532.6</ele><time>2026-05-02T11:54:45.157Z</time></trkpt><trkpt lat="46.189267" lon="13.4833516"><ele>533.2</ele><time>2026-05-02T11:54:46.153Z</time></trkpt><trkpt lat="46.189249" lon="13.4832217"><ele>533.8</ele><time>2026-05-02T11:54:47.151Z</time></trkpt><trkpt lat="46.189205" lon="13.4831123"><ele>534.4</ele><time>2026-05-02T11:54:48.153Z</time></trkpt><trkpt lat="46.1891389" lon="13.4830099"><ele>535.0</ele><time>2026-05-02T11:54:49.152Z</time></trkpt><trkpt lat="46.1890601" lon="13.4829502"><ele>532.0</ele><time>2026-05-02T11:54:50.152Z</time></trkpt><trkpt lat="46.1889684" lon="13.4829297"><ele>529.0</ele><time>2026-05-02T11:54:51.152Z</time></trkpt><trkpt lat="46.188886" lon="13.4829213"><ele>526.0</ele><time>2026-05-02T11:54:52.145Z</time></trkpt><trkpt lat="46.1888067" lon="13.4829377"><ele>523.0</ele><time>2026-05-02T11:54:53.146Z</time></trkpt><trkpt lat="46.1887355" lon="13.4829324"><ele>520.0</ele><time>2026-05-02T11:54:54.17Z</time></trkpt><trkpt lat="46.1886514" lon="13.4828913"><ele>517.0</ele><time>2026-05-02T11:54:55.165Z</time></trkpt><trkpt lat="46.1885692" lon="13.4828176"><ele>517.0</ele><time>2026-05-02T11:54:56.162Z</time></trkpt><trkpt lat="46.1884754" lon="13.4827468"><ele>517.0</ele><time>2026-05-02T11:54:57.15Z</time></trkpt><trkpt lat="46.1883732" lon="13.4826718"><ele>517.0</ele><time>2026-05-02T11:54:58.163Z</time></trkpt><trkpt lat="46.1882787" lon="13.4825864"><ele>517.0</ele><time>2026-05-02T11:54:59.167Z</time></trkpt><trkpt lat="46.1881865" lon="13.482508"><ele>517.0</ele><time>2026-05-02T11:55:00.174Z</time></trkpt><trkpt lat="46.1881009" lon="13.4824188"><ele>512.4</ele><time>2026-05-02T11:55:01.165Z</time></trkpt><trkpt lat="46.1880401" lon="13.4823064"><ele>507.80000000000007</ele><time>2026-05-02T11:55:02.166Z</time></trkpt><trkpt lat="46.1879962" lon="13.4821815"><ele>503.2</ele><time>2026-05-02T11:55:03.148Z</time></trkpt><trkpt lat="46.1879568" lon="13.4820626"><ele>498.6</ele><time>2026-05-02T11:55:04.164Z</time></trkpt><trkpt lat="46.1879178" lon="13.4819485"><ele>494.0</ele><time>2026-05-02T11:55:05.162Z</time></trkpt><trkpt lat="46.1879162" lon="13.4818229"><ele>493.6</ele><time>2026-05-02T11:55:06.164Z</time></trkpt><trkpt lat="46.1879513" lon="13.4817109"><ele>493.2</ele><time>2026-05-02T11:55:07.157Z</time></trkpt><trkpt lat="46.188008" lon="13.4816025"><ele>492.80000000000007</ele><time>2026-05-02T11:55:08.154Z</time></trkpt><trkpt lat="46.1880821" lon="13.4814957"><ele>492.40000000000003</ele><time>2026-05-02T11:55:09.159Z</time></trkpt><trkpt lat="46.1881646" lon="13.4813922"><ele>492.0</ele><time>2026-05-02T11:55:10.172Z</time></trkpt><trkpt lat="46.1882481" lon="13.4812768"><ele>496.5</ele><time>2026-05-02T11:55:11.164Z</time></trkpt><trkpt lat="46.1883288" lon="13.4811498"><ele>501.0</ele><time>2026-05-02T11:55:12.171Z</time></trkpt><trkpt lat="46.1883756" lon="13.4809953"><ele>505.5</ele><time>2026-05-02T11:55:13.173Z</time></trkpt><trkpt lat="46.188382" lon="13.4808173"><ele>510.0</ele><time>2026-05-02T11:55:14.155Z</time></trkpt><trkpt lat="46.1883657" lon="13.4806443"><ele>510.0</ele><time>2026-05-02T11:55:15.146Z</time></trkpt><trkpt lat="46.1883393" lon="13.4804811"><ele>510.0</ele><time>2026-05-02T11:55:16.15Z</time></trkpt><trkpt lat="46.1882855" lon="13.4803572"><ele>510.0</ele><time>2026-05-02T11:55:17.158Z</time></trkpt><trkpt lat="46.1882014" lon="13.480275"><ele>510.0</ele><time>2026-05-02T11:55:18.152Z</time></trkpt><trkpt lat="46.1880893" lon="13.4802348"><ele>510.0</ele><time>2026-05-02T11:55:19.152Z</time></trkpt><trkpt lat="46.1879708" lon="13.4802574"><ele>503.5</ele><time>2026-05-02T11:55:20.15Z</time></trkpt><trkpt lat="46.1878511" lon="13.4803134"><ele>497.0</ele><time>2026-05-02T11:55:21.15Z</time></trkpt><trkpt lat="46.187753" lon="13.4804179"><ele>490.5</ele><time>2026-05-02T11:55:22.164Z</time></trkpt><trkpt lat="46.1876844" lon="13.4805587"><ele>484.0</ele><time>2026-05-02T11:55:23.156Z</time></trkpt><trkpt lat="46.1876397" lon="13.4807108"><ele>484.0</ele><time>2026-05-02T11:55:24.152Z</time></trkpt><trkpt lat="46.1876126" lon="13.4808758"><ele>484.0</ele><time>2026-05-02T11:55:25.151Z</time></trkpt><trkpt lat="46.1875804" lon="13.4810299"><ele>484.0</ele><time>2026-05-02T11:55:26.164Z</time></trkpt><trkpt lat="46.1875216" lon="13.4811765"><ele>484.0</ele><time>2026-05-02T11:55:27.15Z</time></trkpt><trkpt lat="46.1874503" lon="13.4813112"><ele>486.0</ele><time>2026-05-02T11:55:28.148Z</time></trkpt><trkpt lat="46.1873664" lon="13.4814595"><ele>488.0</ele><time>2026-05-02T11:55:29.16Z</time></trkpt><trkpt lat="46.1872817" lon="13.4816303"><ele>490.0</ele><time>2026-05-02T11:55:30.154Z</time></trkpt><trkpt lat="46.1872191" lon="13.4817939"><ele>492.0</ele><time>2026-05-02T11:55:31.16Z</time></trkpt><trkpt lat="46.1871823" lon="13.4819623"><ele>482.0</ele><time>2026-05-02T11:55:32.179Z</time></trkpt><trkpt lat="46.1871561" lon="13.4821433"><ele>472.0</ele><time>2026-05-02T11:55:33.155Z</time></trkpt><trkpt lat="46.1871327" lon="13.4823332"><ele>462.0</ele><time>2026-05-02T11:55:34.159Z</time></trkpt><trkpt lat="46.1871164" lon="13.4825259"><ele>452.0</ele><time>2026-05-02T11:55:35.161Z</time></trkpt><trkpt lat="46.1871038" lon="13.4827134"><ele>452.0</ele><time>2026-05-02T11:55:36.171Z</time></trkpt><trkpt lat="46.1871028" lon="13.4829004"><ele>452.0</ele><time>2026-05-02T11:55:37.168Z</time></trkpt><trkpt lat="46.1871186" lon="13.4830916"><ele>452.0</ele><time>2026-05-02T11:55:38.158Z</time></trkpt><trkpt lat="46.1871513" lon="13.4832812"><ele>452.0</ele><time>2026-05-02T11:55:39.169Z</time></trkpt><trkpt lat="46.18719" lon="13.4834759"><ele>451.0</ele><time>2026-05-02T11:55:40.175Z</time></trkpt><trkpt lat="46.1872298" lon="13.4836742"><ele>450.0</ele><time>2026-05-02T11:55:41.162Z</time></trkpt><trkpt lat="46.1872473" lon="13.4838703"><ele>449.0</ele><time>2026-05-02T11:55:42.159Z</time></trkpt><trkpt lat="46.187251" lon="13.4840741"><ele>448.0</ele><time>2026-05-02T11:55:43.153Z</time></trkpt><trkpt lat="46.1872457" lon="13.484269"><ele>446.75</ele><time>2026-05-02T11:55:44.153Z</time></trkpt><trkpt lat="46.1872469" lon="13.4844574"><ele>445.5</ele><time>2026-05-02T11:55:45.14Z</time></trkpt><trkpt lat="46.1872592" lon="13.4846414"><ele>444.25</ele><time>2026-05-02T11:55:46.14Z</time></trkpt><trkpt lat="46.1872854" lon="13.4848095"><ele>443.0</ele><time>2026-05-02T11:55:47.149Z</time></trkpt><trkpt lat="46.1873086" lon="13.4849625"><ele>440.8333333333333</ele><time>2026-05-02T11:55:48.146Z</time></trkpt><trkpt lat="46.187317" lon="13.4851093"><ele>438.66666666666663</ele><time>2026-05-02T11:55:49.137Z</time></trkpt><trkpt lat="46.1873168" lon="13.4852439"><ele>436.5</ele><time>2026-05-02T11:55:50.146Z</time></trkpt><trkpt lat="46.1873106" lon="13.4853681"><ele>434.33333333333337</ele><time>2026-05-02T11:55:51.149Z</time></trkpt><trkpt lat="46.1873163" lon="13.4854831"><ele>432.1666666666667</ele><time>2026-05-02T11:55:52.151Z</time></trkpt><trkpt lat="46.1873367" lon="13.4855919"><ele>430.0</ele><time>2026-05-02T11:55:53.147Z</time></trkpt><trkpt lat="46.1873687" lon="13.4856863"><ele>430.0</ele><time>2026-05-02T11:55:54.146Z</time></trkpt><trkpt lat="46.1873729" lon="13.4857954"><ele>430.0</ele><time>2026-05-02T11:55:56.147Z</time></trkpt><trkpt lat="46.1872729" lon="13.4857386"><ele>430.0</ele><time>2026-05-02T11:55:58.141Z</time></trkpt><trkpt lat="46.1872307" lon="13.4856371"><ele>430.0</ele><time>2026-05-02T11:55:59.141Z</time></trkpt><trkpt lat="46.1871892" lon="13.4855016"><ele>430.0</ele><time>2026-05-02T11:56:00.139Z</time></trkpt><trkpt lat="46.1871428" lon="13.4853501"><ele>430.0</ele><time>2026-05-02T11:56:01.142Z</time></trkpt><trkpt lat="46.1870866" lon="13.4852008"><ele>430.0</ele><time>2026-05-02T11:56:02.149Z</time></trkpt><trkpt lat="46.1870224" lon="13.485064"><ele>430.0</ele><time>2026-05-02T11:56:03.142Z</time></trkpt><trkpt lat="46.1869432" lon="13.4849316"><ele>430.0</ele><time>2026-05-02T11:56:04.153Z</time></trkpt><trkpt lat="46.1868562" lon="13.4848133"><ele>430.0</ele><time>2026-05-02T11:56:05.139Z</time></trkpt><trkpt lat="46.1867695" lon="13.4846951"><ele>430.0</ele><time>2026-05-02T11:56:06.15Z</time></trkpt><trkpt lat="46.1866842" lon="13.4845697"><ele>430.0</ele><time>2026-05-02T11:56:07.15Z</time></trkpt><trkpt lat="46.1866058" lon="13.4844457"><ele>430.0</ele><time>2026-05-02T11:56:08.141Z</time></trkpt><trkpt lat="46.1865397" lon="13.4843185"><ele>424.5</ele><time>2026-05-02T11:56:09.15Z</time></trkpt><trkpt lat="46.1864777" lon="13.4841786"><ele>419.0</ele><time>2026-05-02T11:56:10.136Z</time></trkpt><trkpt lat="46.1864209" lon="13.4840254"><ele>413.5</ele><time>2026-05-02T11:56:11.151Z</time></trkpt><trkpt lat="46.1863723" lon="13.483851"><ele>408.0</ele><time>2026-05-02T11:56:12.147Z</time></trkpt><trkpt lat="46.1863243" lon="13.4836652"><ele>408.0</ele><time>2026-05-02T11:56:13.143Z</time></trkpt><trkpt lat="46.1862666" lon="13.4834736"><ele>408.0</ele><time>2026-05-02T11:56:14.154Z</time></trkpt><trkpt lat="46.1861819" lon="13.4832732"><ele>408.0</ele><time>2026-05-02T11:56:15.149Z</time></trkpt><trkpt lat="46.1860976" lon="13.4830572"><ele>411.66666666666663</ele><time>2026-05-02T11:56:16.15Z</time></trkpt><trkpt lat="46.186016" lon="13.4828506"><ele>415.3333333333333</ele><time>2026-05-02T11:56:17.139Z</time></trkpt><trkpt lat="46.1859316" lon="13.4826622"><ele>419.0</ele><time>2026-05-02T11:56:18.156Z</time></trkpt><trkpt lat="46.1858537" lon="13.4824974"><ele>419.0</ele><time>2026-05-02T11:56:19.149Z</time></trkpt><trkpt lat="46.1857903" lon="13.4823508"><ele>419.0</ele><time>2026-05-02T11:56:20.136Z</time></trkpt><trkpt lat="46.185735" lon="13.4822082"><ele>419.0</ele><time>2026-05-02T11:56:21.139Z</time></trkpt><trkpt lat="46.1856748" lon="13.4820648"><ele>419.0</ele><time>2026-05-02T11:56:22.139Z</time></trkpt><trkpt lat="46.1855888" lon="13.4819459"><ele>414.5</ele><time>2026-05-02T11:56:23.139Z</time></trkpt><trkpt lat="46.1854867" lon="13.4818585"><ele>410.0</ele><time>2026-05-02T11:56:24.148Z</time></trkpt><trkpt lat="46.1853701" lon="13.4817794"><ele>405.5</ele><time>2026-05-02T11:56:25.133Z</time></trkpt><trkpt lat="46.1852558" lon="13.4817049"><ele>401.0</ele><time>2026-05-02T11:56:26.133Z</time></trkpt><trkpt lat="46.1851421" lon="13.4816494"><ele>401.0</ele><time>2026-05-02T11:56:27.139Z</time></trkpt><trkpt lat="46.1850319" lon="13.4816478"><ele>401.0</ele><time>2026-05-02T11:56:28.141Z</time></trkpt><trkpt lat="46.1849579" lon="13.4817074"><ele>401.0</ele><time>2026-05-02T11:56:29.133Z</time></trkpt><trkpt lat="46.184907" lon="13.4818168"><ele>401.0</ele><time>2026-05-02T11:56:30.142Z</time></trkpt><trkpt lat="46.1848849" lon="13.4819749"><ele>401.0</ele><time>2026-05-02T11:56:31.142Z</time></trkpt><trkpt lat="46.1848751" lon="13.4821381"><ele>399.5</ele><time>2026-05-02T11:56:32.15Z</time></trkpt><trkpt lat="46.1848861" lon="13.4823078"><ele>398.0</ele><time>2026-05-02T11:56:33.151Z</time></trkpt><trkpt lat="46.1848956" lon="13.4824945"><ele>396.5</ele><time>2026-05-02T11:56:34.149Z</time></trkpt><trkpt lat="46.1849074" lon="13.4826734"><ele>395.0</ele><time>2026-05-02T11:56:35.142Z</time></trkpt><trkpt lat="46.1849267" lon="13.4828586"><ele>393.5</ele><time>2026-05-02T11:56:36.165Z</time></trkpt><trkpt lat="46.1849576" lon="13.4830357"><ele>392.0</ele><time>2026-05-02T11:56:37.159Z</time></trkpt><trkpt lat="46.1849937" lon="13.4832113"><ele>390.5</ele><time>2026-05-02T11:56:38.146Z</time></trkpt><trkpt lat="46.1850391" lon="13.4833825"><ele>389.0</ele><time>2026-05-02T11:56:39.148Z</time></trkpt><trkpt lat="46.1850955" lon="13.4835632"><ele>389.0</ele><time>2026-05-02T11:56:40.156Z</time></trkpt><trkpt lat="46.1851519" lon="13.4837457"><ele>389.0</ele><time>2026-05-02T11:56:41.151Z</time></trkpt><trkpt lat="46.185209" lon="13.4839211"><ele>389.0</ele><time>2026-05-02T11:56:42.149Z</time></trkpt><trkpt lat="46.185268" lon="13.4840772"><ele>389.0</ele><time>2026-05-02T11:56:43.151Z</time></trkpt><trkpt lat="46.1853348" lon="13.4841825"><ele>387.16666666666663</ele><time>2026-05-02T11:56:44.146Z</time></trkpt><trkpt lat="46.1853881" lon="13.4842412"><ele>385.3333333333333</ele><time>2026-05-02T11:56:45.142Z</time></trkpt><trkpt lat="46.1854226" lon="13.484361"><ele>383.5</ele><time>2026-05-02T11:56:47.144Z</time></trkpt><trkpt lat="46.1853622" lon="13.4844286"><ele>381.66666666666663</ele><time>2026-05-02T11:56:48.164Z</time></trkpt><trkpt lat="46.1852688" lon="13.4844505"><ele>379.8333333333333</ele><time>2026-05-02T11:56:49.142Z</time></trkpt><trkpt lat="46.1851529" lon="13.4844368"><ele>378.0</ele><time>2026-05-02T11:56:50.141Z</time></trkpt><trkpt lat="46.1850263" lon="13.4844239"><ele>378.0</ele><time>2026-05-02T11:56:51.136Z</time></trkpt><trkpt lat="46.1848986" lon="13.4844226"><ele>378.0</ele><time>2026-05-02T11:56:52.142Z</time></trkpt><trkpt lat="46.1847764" lon="13.4844372"><ele>378.0</ele><time>2026-05-02T11:56:53.138Z</time></trkpt><trkpt lat="46.184654" lon="13.4844866"><ele>378.0</ele><time>2026-05-02T11:56:54.139Z</time></trkpt><trkpt lat="46.1845256" lon="13.4845233"><ele>372.25</ele><time>2026-05-02T11:56:55.148Z</time></trkpt><trkpt lat="46.1843873" lon="13.4845131"><ele>366.5</ele><time>2026-05-02T11:56:56.138Z</time></trkpt><trkpt lat="46.1842591" lon="13.4844367"><ele>360.75</ele><time>2026-05-02T11:56:57.132Z</time></trkpt><trkpt lat="46.1841537" lon="13.484308"><ele>355.0</ele><time>2026-05-02T11:56:58.127Z</time></trkpt><trkpt lat="46.1840809" lon="13.4841407"><ele>355.0</ele><time>2026-05-02T11:56:59.135Z</time></trkpt><trkpt lat="46.1840354" lon="13.4839577"><ele>355.0</ele><time>2026-05-02T11:57:00.135Z</time></trkpt><trkpt lat="46.1839947" lon="13.4837719"><ele>355.0</ele><time>2026-05-02T11:57:01.137Z</time></trkpt><trkpt lat="46.1839524" lon="13.4835775"><ele>355.0</ele><time>2026-05-02T11:57:02.131Z</time></trkpt><trkpt lat="46.1839268" lon="13.4833906"><ele>345.5</ele><time>2026-05-02T11:57:03.149Z</time></trkpt><trkpt lat="46.1839184" lon="13.4832006"><ele>336.0</ele><time>2026-05-02T11:57:04.15Z</time></trkpt><trkpt lat="46.1839329" lon="13.4830164"><ele>326.5</ele><time>2026-05-02T11:57:05.141Z</time></trkpt><trkpt lat="46.1839028" lon="13.4828497"><ele>317.0</ele><time>2026-05-02T11:57:06.143Z</time></trkpt><trkpt lat="46.1838418" lon="13.4826865"><ele>316.25</ele><time>2026-05-02T11:57:07.132Z</time></trkpt><trkpt lat="46.1837851" lon="13.4825225"><ele>315.5</ele><time>2026-05-02T11:57:08.13Z</time></trkpt><trkpt lat="46.1837314" lon="13.4823354"><ele>314.75</ele><time>2026-05-02T11:57:09.144Z</time></trkpt><trkpt lat="46.1836904" lon="13.4821334"><ele>314.0</ele><time>2026-05-02T11:57:10.136Z</time></trkpt><trkpt lat="46.1836686" lon="13.4819216"><ele>315.75</ele><time>2026-05-02T11:57:11.133Z</time></trkpt><trkpt lat="46.1836582" lon="13.4817168"><ele>317.5</ele><time>2026-05-02T11:57:12.129Z</time></trkpt><trkpt lat="46.1836369" lon="13.4815055"><ele>319.25</ele><time>2026-05-02T11:57:13.135Z</time></trkpt><trkpt lat="46.183599" lon="13.4812996"><ele>321.0</ele><time>2026-05-02T11:57:14.14Z</time></trkpt><trkpt lat="46.1835469" lon="13.4811086"><ele>322.5</ele><time>2026-05-02T11:57:15.14Z</time></trkpt><trkpt lat="46.1834803" lon="13.4809511"><ele>324.0</ele><time>2026-05-02T11:57:16.134Z</time></trkpt><trkpt lat="46.1834078" lon="13.4807969"><ele>325.5</ele><time>2026-05-02T11:57:17.146Z</time></trkpt><trkpt lat="46.183358" lon="13.4806412"><ele>327.0</ele><time>2026-05-02T11:57:18.136Z</time></trkpt><trkpt lat="46.1833309" lon="13.4804762"><ele>325.8</ele><time>2026-05-02T11:57:19.141Z</time></trkpt><trkpt lat="46.1833171" lon="13.4803135"><ele>324.6</ele><time>2026-05-02T11:57:20.145Z</time></trkpt><trkpt lat="46.1833239" lon="13.4801765"><ele>323.40000000000003</ele><time>2026-05-02T11:57:21.145Z</time></trkpt><trkpt lat="46.1833429" lon="13.4800524"><ele>322.20000000000005</ele><time>2026-05-02T11:57:22.139Z</time></trkpt><trkpt lat="46.1833673" lon="13.479946"><ele>321.0</ele><time>2026-05-02T11:57:23.134Z</time></trkpt><trkpt lat="46.183352" lon="13.4798156"><ele>321.0</ele><time>2026-05-02T11:57:25.136Z</time></trkpt><trkpt lat="46.1832655" lon="13.4798841"><ele>321.0</ele><time>2026-05-02T11:57:27.136Z</time></trkpt><trkpt lat="46.1832444" lon="13.4799818"><ele>321.0</ele><time>2026-05-02T11:57:28.149Z</time></trkpt><trkpt lat="46.1832417" lon="13.480112"><ele>321.0</ele><time>2026-05-02T11:57:29.153Z</time></trkpt><trkpt lat="46.1832415" lon="13.4802671"><ele>321.0</ele><time>2026-05-02T11:57:30.139Z</time></trkpt><trkpt lat="46.18324" lon="13.4804391"><ele>322.5</ele><time>2026-05-02T11:57:31.139Z</time></trkpt><trkpt lat="46.1832322" lon="13.4806248"><ele>324.0</ele><time>2026-05-02T11:57:32.143Z</time></trkpt><trkpt lat="46.183219" lon="13.4808175"><ele>325.5</ele><time>2026-05-02T11:57:33.14Z</time></trkpt><trkpt lat="46.183203" lon="13.4810195"><ele>327.0</ele><time>2026-05-02T11:57:34.139Z</time></trkpt><trkpt lat="46.1831882" lon="13.4812286"><ele>315.5</ele><time>2026-05-02T11:57:35.144Z</time></trkpt><trkpt lat="46.1831779" lon="13.4814468"><ele>304.0</ele><time>2026-05-02T11:57:36.142Z</time></trkpt><trkpt lat="46.1831705" lon="13.4816607"><ele>292.5</ele><time>2026-05-02T11:57:37.151Z</time></trkpt><trkpt lat="46.1831655" lon="13.4818603"><ele>281.0</ele><time>2026-05-02T11:57:38.133Z</time></trkpt><trkpt lat="46.1831555" lon="13.482034"><ele>281.6</ele><time>2026-05-02T11:57:39.135Z</time></trkpt><trkpt lat="46.1831547" lon="13.4821935"><ele>282.20000000000005</ele><time>2026-05-02T11:57:40.142Z</time></trkpt><trkpt lat="46.1831763" lon="13.4823544"><ele>282.79999999999995</ele><time>2026-05-02T11:57:41.14Z</time></trkpt><trkpt lat="46.1832175" lon="13.4824832"><ele>283.4</ele><time>2026-05-02T11:57:42.141Z</time></trkpt><trkpt lat="46.1832558" lon="13.4825997"><ele>284.0</ele><time>2026-05-02T11:57:43.149Z</time></trkpt><trkpt lat="46.1832646" lon="13.4826975"><ele>284.33333333333337</ele><time>2026-05-02T11:57:44.147Z</time></trkpt><trkpt lat="46.1832445" lon="13.4827842"><ele>284.6666666666667</ele><time>2026-05-02T11:57:45.141Z</time></trkpt><trkpt lat="46.1831871" lon="13.4828673"><ele>285.0</ele><time>2026-05-02T11:57:46.146Z</time></trkpt><trkpt lat="46.1831075" lon="13.4829526"><ele>285.3333333333333</ele><time>2026-05-02T11:57:47.134Z</time></trkpt><trkpt lat="46.1830324" lon="13.4830691"><ele>285.66666666666663</ele><time>2026-05-02T11:57:48.133Z</time></trkpt><trkpt lat="46.18299" lon="13.483189"><ele>286.0</ele><time>2026-05-02T11:57:49.139Z</time></trkpt><trkpt lat="46.1829804" lon="13.48336"><ele>286.0</ele><time>2026-05-02T11:57:50.15Z</time></trkpt><trkpt lat="46.1829949" lon="13.4835469"><ele>286.0</ele><time>2026-05-02T11:57:51.136Z</time></trkpt><trkpt lat="46.1830144" lon="13.4837304"><ele>286.0</ele><time>2026-05-02T11:57:52.129Z</time></trkpt><trkpt lat="46.1830372" lon="13.4839115"><ele>286.0</ele><time>2026-05-02T11:57:53.131Z</time></trkpt><trkpt lat="46.1830663" lon="13.4840943"><ele>287.0</ele><time>2026-05-02T11:57:54.131Z</time></trkpt><trkpt lat="46.1830951" lon="13.4842855"><ele>288.0</ele><time>2026-05-02T11:57:55.133Z</time></trkpt><trkpt lat="46.1831259" lon="13.4844665"><ele>289.0</ele><time>2026-05-02T11:57:56.125Z</time></trkpt><trkpt lat="46.1831461" lon="13.4846277"><ele>290.0</ele><time>2026-05-02T11:57:57.131Z</time></trkpt><trkpt lat="46.1831694" lon="13.4847638"><ele>290.0</ele><time>2026-05-02T11:57:58.134Z</time></trkpt><trkpt lat="46.1832029" lon="13.4848808"><ele>290.0</ele><time>2026-05-02T11:57:59.133Z</time></trkpt><trkpt lat="46.1832331" lon="13.4849711"><ele>290.0</ele><time>2026-05-02T11:58:00.127Z</time></trkpt><trkpt lat="46.1832606" lon="13.4850596"><ele>290.0</ele><time>2026-05-02T11:58:01.123Z</time></trkpt><trkpt lat="46.1831933" lon="13.4848187"><ele>290.0</ele><time>2026-05-02T11:58:06.122Z</time></trkpt><trkpt lat="46.1831364" lon="13.484663"><ele>285.5</ele><time>2026-05-02T11:58:07.131Z</time></trkpt><trkpt lat="46.1830797" lon="13.484492"><ele>281.0</ele><time>2026-05-02T11:58:08.133Z</time></trkpt><trkpt lat="46.1830334" lon="13.48431"><ele>276.5</ele><time>2026-05-02T11:58:09.138Z</time></trkpt><trkpt lat="46.1829972" lon="13.4841146"><ele>272.0</ele><time>2026-05-02T11:58:10.134Z</time></trkpt><trkpt lat="46.1829434" lon="13.4839209"><ele>275.5</ele><time>2026-05-02T11:58:11.13Z</time></trkpt><trkpt lat="46.1828649" lon="13.4837589"><ele>279.0</ele><time>2026-05-02T11:58:12.132Z</time></trkpt><trkpt lat="46.1827886" lon="13.4836177"><ele>282.5</ele><time>2026-05-02T11:58:13.135Z</time></trkpt><trkpt lat="46.1827418" lon="13.4834836"><ele>286.0</ele><time>2026-05-02T11:58:14.128Z</time></trkpt><trkpt lat="46.1827176" lon="13.4833521"><ele>286.0</ele><time>2026-05-02T11:58:15.123Z</time></trkpt><trkpt lat="46.182724" lon="13.4832286"><ele>286.0</ele><time>2026-05-02T11:58:16.129Z</time></trkpt><trkpt lat="46.182744" lon="13.4831249"><ele>286.0</ele><time>2026-05-02T11:58:17.132Z</time></trkpt><trkpt lat="46.1827528" lon="13.4830175"><ele>286.0</ele><time>2026-05-02T11:58:18.132Z</time></trkpt><trkpt lat="46.1827402" lon="13.4829158"><ele>286.0</ele><time>2026-05-02T11:58:19.138Z</time></trkpt><trkpt lat="46.1827067" lon="13.4828233"><ele>286.0</ele><time>2026-05-02T11:58:20.137Z</time></trkpt><trkpt lat="46.1826363" lon="13.4827399"><ele>285.5</ele><time>2026-05-02T11:58:21.133Z</time></trkpt><trkpt lat="46.1825454" lon="13.4826483"><ele>285.0</ele><time>2026-05-02T11:58:22.135Z</time></trkpt><trkpt lat="46.1824563" lon="13.4825287"><ele>284.5</ele><time>2026-05-02T11:58:23.128Z</time></trkpt><trkpt lat="46.1823832" lon="13.482379"><ele>284.0</ele><time>2026-05-02T11:58:24.127Z</time></trkpt><trkpt lat="46.1823171" lon="13.4822222"><ele>274.25</ele><time>2026-05-02T11:58:25.119Z</time></trkpt><trkpt lat="46.1822652" lon="13.4820582"><ele>264.5</ele><time>2026-05-02T11:58:26.133Z</time></trkpt><trkpt lat="46.1822424" lon="13.4818724"><ele>254.75</ele><time>2026-05-02T11:58:27.131Z</time></trkpt><trkpt lat="46.1822246" lon="13.481695"><ele>245.0</ele><time>2026-05-02T11:58:28.132Z</time></trkpt><trkpt lat="46.1822066" lon="13.4815064"><ele>245.0</ele><time>2026-05-02T11:58:29.133Z</time></trkpt><trkpt lat="46.1821806" lon="13.4813296"><ele>245.0</ele><time>2026-05-02T11:58:30.123Z</time></trkpt><trkpt lat="46.1821538" lon="13.481163"><ele>245.0</ele><time>2026-05-02T11:58:31.128Z</time></trkpt><trkpt lat="46.1821248" lon="13.4809922"><ele>245.0</ele><time>2026-05-02T11:58:32.127Z</time></trkpt><trkpt lat="46.1820834" lon="13.480838"><ele>244.4</ele><time>2026-05-02T11:58:33.135Z</time></trkpt><trkpt lat="46.1820236" lon="13.4807006"><ele>243.8</ele><time>2026-05-02T11:58:34.132Z</time></trkpt><trkpt lat="46.181962" lon="13.480581"><ele>243.2</ele><time>2026-05-02T11:58:35.138Z</time></trkpt><trkpt lat="46.1819042" lon="13.4804618"><ele>242.6</ele><time>2026-05-02T11:58:36.137Z</time></trkpt><trkpt lat="46.1818584" lon="13.4803373"><ele>242.0</ele><time>2026-05-02T11:58:37.14Z</time></trkpt><trkpt lat="46.1818392" lon="13.4801887"><ele>240.8</ele><time>2026-05-02T11:58:38.139Z</time></trkpt><trkpt lat="46.1818435" lon="13.4800205"><ele>239.6</ele><time>2026-05-02T11:58:39.126Z</time></trkpt><trkpt lat="46.1818609" lon="13.4798493"><ele>238.40000000000003</ele><time>2026-05-02T11:58:40.144Z</time></trkpt><trkpt lat="46.181871" lon="13.4796897"><ele>237.20000000000002</ele><time>2026-05-02T11:58:41.138Z</time></trkpt><trkpt lat="46.181893" lon="13.4795514"><ele>236.0</ele><time>2026-05-02T11:58:42.136Z</time></trkpt><trkpt lat="46.1819685" lon="13.4794515"><ele>240.0</ele><time>2026-05-02T11:58:43.138Z</time></trkpt><trkpt lat="46.1820649" lon="13.4793708"><ele>244.0</ele><time>2026-05-02T11:58:44.126Z</time></trkpt><trkpt lat="46.1821649" lon="13.479263"><ele>248.0</ele><time>2026-05-02T11:58:45.131Z</time></trkpt><trkpt lat="46.1822665" lon="13.4791479"><ele>252.0</ele><time>2026-05-02T11:58:46.123Z</time></trkpt><trkpt lat="46.1823807" lon="13.4790344"><ele>252.0</ele><time>2026-05-02T11:58:47.133Z</time></trkpt><trkpt lat="46.1825047" lon="13.4789351"><ele>252.0</ele><time>2026-05-02T11:58:48.13Z</time></trkpt><trkpt lat="46.1826246" lon="13.4788308"><ele>252.0</ele><time>2026-05-02T11:58:49.13Z</time></trkpt><trkpt lat="46.1827453" lon="13.4787219"><ele>252.0</ele><time>2026-05-02T11:58:50.13Z</time></trkpt><trkpt lat="46.1828612" lon="13.4786051"><ele>249.25</ele><time>2026-05-02T11:58:51.123Z</time></trkpt><trkpt lat="46.1829669" lon="13.4784921"><ele>246.5</ele><time>2026-05-02T11:58:52.131Z</time></trkpt><trkpt lat="46.1830693" lon="13.4783908"><ele>243.75</ele><time>2026-05-02T11:58:53.126Z</time></trkpt><trkpt lat="46.1831834" lon="13.4783085"><ele>241.0</ele><time>2026-05-02T11:58:54.132Z</time></trkpt><trkpt lat="46.1832991" lon="13.4782358"><ele>241.0</ele><time>2026-05-02T11:58:55.126Z</time></trkpt><trkpt lat="46.1834088" lon="13.4781731"><ele>241.0</ele><time>2026-05-02T11:58:56.127Z</time></trkpt><trkpt lat="46.1835208" lon="13.4781197"><ele>241.0</ele><time>2026-05-02T11:58:57.12Z</time></trkpt><trkpt lat="46.1836405" lon="13.4780743"><ele>241.0</ele><time>2026-05-02T11:58:58.123Z</time></trkpt><trkpt lat="46.1837605" lon="13.4780292"><ele>241.0</ele><time>2026-05-02T11:58:59.123Z</time></trkpt><trkpt lat="46.1838765" lon="13.4779809"><ele>241.0</ele><time>2026-05-02T11:59:00.12Z</time></trkpt><trkpt lat="46.1839899" lon="13.4779187"><ele>241.0</ele><time>2026-05-02T11:59:01.12Z</time></trkpt><trkpt lat="46.1840964" lon="13.477853"><ele>241.0</ele><time>2026-05-02T11:59:02.117Z</time></trkpt><trkpt lat="46.1841952" lon="13.4777706"><ele>236.0</ele><time>2026-05-02T11:59:03.121Z</time></trkpt><trkpt lat="46.184283" lon="13.4776634"><ele>231.0</ele><time>2026-05-02T11:59:04.132Z</time></trkpt><trkpt lat="46.1843568" lon="13.4775305"><ele>226.0</ele><time>2026-05-02T11:59:05.123Z</time></trkpt><trkpt lat="46.1844317" lon="13.4773928"><ele>221.0</ele><time>2026-05-02T11:59:06.119Z</time></trkpt><trkpt lat="46.1845094" lon="13.4772902"><ele>221.00000000000003</ele><time>2026-05-02T11:59:07.126Z</time></trkpt><trkpt lat="46.1845729" lon="13.477205"><ele>221.0</ele><time>2026-05-02T11:59:08.128Z</time></trkpt><trkpt lat="46.1846235" lon="13.4771404"><ele>221.0</ele><time>2026-05-02T11:59:09.122Z</time></trkpt><trkpt lat="46.1846294" lon="13.4769948"><ele>221.0</ele><time>2026-05-02T11:59:11.12Z</time></trkpt><trkpt lat="46.1845258" lon="13.4770061"><ele>221.00000000000003</ele><time>2026-05-02T11:59:13.13Z</time></trkpt><trkpt lat="46.1844743" lon="13.477085"><ele>221.0</ele><time>2026-05-02T11:59:14.131Z</time></trkpt><trkpt lat="46.1844314" lon="13.4771614"><ele>221.0</ele><time>2026-05-02T11:59:15.128Z</time></trkpt><trkpt lat="46.1843716" lon="13.4772545"><ele>221.0</ele><time>2026-05-02T11:59:16.134Z</time></trkpt><trkpt lat="46.1842895" lon="13.4773527"><ele>221.0</ele><time>2026-05-02T11:59:17.133Z</time></trkpt><trkpt lat="46.1841823" lon="13.4774473"><ele>221.0</ele><time>2026-05-02T11:59:18.119Z</time></trkpt><trkpt lat="46.1840583" lon="13.4775421"><ele>216.75</ele><time>2026-05-02T11:59:19.12Z</time></trkpt><trkpt lat="46.1839319" lon="13.4776224"><ele>212.5</ele><time>2026-05-02T11:59:20.124Z</time></trkpt><trkpt lat="46.1838067" lon="13.477686"><ele>208.25</ele><time>2026-05-02T11:59:21.122Z</time></trkpt><trkpt lat="46.1836747" lon="13.4777347"><ele>204.0</ele><time>2026-05-02T11:59:22.139Z</time></trkpt><trkpt lat="46.183545" lon="13.4777754"><ele>204.0</ele><time>2026-05-02T11:59:23.124Z</time></trkpt><trkpt lat="46.183411" lon="13.4778182"><ele>204.0</ele><time>2026-05-02T11:59:24.121Z</time></trkpt><trkpt lat="46.1832705" lon="13.4778507"><ele>204.0</ele><time>2026-05-02T11:59:25.117Z</time></trkpt><trkpt lat="46.1831342" lon="13.4778805"><ele>204.0</ele><time>2026-05-02T11:59:26.112Z</time></trkpt><trkpt lat="46.1829983" lon="13.4778985"><ele>201.5</ele><time>2026-05-02T11:59:27.125Z</time></trkpt><trkpt lat="46.1828628" lon="13.4779073"><ele>199.0</ele><time>2026-05-02T11:59:28.118Z</time></trkpt><trkpt lat="46.1827304" lon="13.4779161"><ele>196.5</ele><time>2026-05-02T11:59:29.11Z</time></trkpt><trkpt lat="46.1826049" lon="13.4779254"><ele>194.0</ele><time>2026-05-02T11:59:30.115Z</time></trkpt><trkpt lat="46.1824819" lon="13.477933"><ele>194.2</ele><time>2026-05-02T11:59:31.123Z</time></trkpt><trkpt lat="46.1823623" lon="13.4779477"><ele>194.39999999999998</ele><time>2026-05-02T11:59:32.122Z</time></trkpt><trkpt lat="46.1822493" lon="13.4779684"><ele>194.6</ele><time>2026-05-02T11:59:33.126Z</time></trkpt><trkpt lat="46.1821364" lon="13.477983"><ele>194.8</ele><time>2026-05-02T11:59:34.132Z</time></trkpt><trkpt lat="46.1820392" lon="13.4779879"><ele>195.0</ele><time>2026-05-02T11:59:35.128Z</time></trkpt><trkpt lat="46.1819601" lon="13.4779761"><ele>193.8</ele><time>2026-05-02T11:59:36.12Z</time></trkpt><trkpt lat="46.1818554" lon="13.4779075"><ele>192.6</ele><time>2026-05-02T11:59:38.13Z</time></trkpt><trkpt lat="46.1817965" lon="13.4778366"><ele>191.39999999999998</ele><time>2026-05-02T11:59:40.127Z</time></trkpt><trkpt lat="46.1816814" lon="13.4777553"><ele>190.2</ele><time>2026-05-02T11:59:42.13Z</time></trkpt><trkpt lat="46.1815917" lon="13.4777298"><ele>189.0</ele><time>2026-05-02T11:59:43.128Z</time></trkpt><trkpt lat="46.1814979" lon="13.4777036"><ele>189.0</ele><time>2026-05-02T11:59:44.132Z</time></trkpt><trkpt lat="46.1813843" lon="13.4776784"><ele>189.0</ele><time>2026-05-02T11:59:45.133Z</time></trkpt><trkpt lat="46.1812569" lon="13.4776463"><ele>189.0</ele><time>2026-05-02T11:59:46.131Z</time></trkpt><trkpt lat="46.1811426" lon="13.4776162"><ele>189.0</ele><time>2026-05-02T11:59:47.133Z</time></trkpt><trkpt lat="46.1810371" lon="13.4776151"><ele>189.0</ele><time>2026-05-02T11:59:48.138Z</time></trkpt><trkpt lat="46.1809403" lon="13.4775985"><ele>189.0</ele><time>2026-05-02T11:59:49.138Z</time></trkpt><trkpt lat="46.1808508" lon="13.4775952"><ele>189.0</ele><time>2026-05-02T11:59:50.146Z</time></trkpt><trkpt lat="46.1807731" lon="13.4775978"><ele>189.0</ele><time>2026-05-02T11:59:51.144Z</time></trkpt><trkpt lat="46.1807034" lon="13.4775921"><ele>189.0</ele><time>2026-05-02T11:59:52.138Z</time></trkpt><trkpt lat="46.1805912" lon="13.4775902"><ele>189.0</ele><time>2026-05-02T11:59:54.144Z</time></trkpt><trkpt lat="46.1804922" lon="13.4776019"><ele>188.79999999999998</ele><time>2026-05-02T11:59:56.143Z</time></trkpt><trkpt lat="46.1804196" lon="13.4775477"><ele>188.6</ele><time>2026-05-02T11:59:58.157Z</time></trkpt><trkpt lat="46.1804085" lon="13.4774091"><ele>188.4</ele><time>2026-05-02T12:00:00.145Z</time></trkpt><trkpt lat="46.1803891" lon="13.4772243"><ele>188.2</ele><time>2026-05-02T12:00:02.141Z</time></trkpt><trkpt lat="46.180373" lon="13.4771133"><ele>188.0</ele><time>2026-05-02T12:00:03.142Z</time></trkpt><trkpt lat="46.1803544" lon="13.4769984"><ele>188.0</ele><time>2026-05-02T12:00:04.154Z</time></trkpt><trkpt lat="46.1803333" lon="13.4768884"><ele>188.0</ele><time>2026-05-02T12:00:05.142Z</time></trkpt><trkpt lat="46.1803195" lon="13.4767887"><ele>188.0</ele><time>2026-05-02T12:00:06.137Z</time></trkpt><trkpt lat="46.1803038" lon="13.4766861"><ele>188.0</ele><time>2026-05-02T12:00:07.146Z</time></trkpt><trkpt lat="46.1802876" lon="13.4765872"><ele>188.0</ele><time>2026-05-02T12:00:08.139Z</time></trkpt><trkpt lat="46.1802722" lon="13.4764875"><ele>188.0</ele><time>2026-05-02T12:00:09.147Z</time></trkpt><trkpt lat="46.180255" lon="13.4763885"><ele>188.0</ele><time>2026-05-02T12:00:10.139Z</time></trkpt><trkpt lat="46.1802421" lon="13.4762934"><ele>188.33333333333331</ele><time>2026-05-02T12:00:11.155Z</time></trkpt><trkpt lat="46.1802305" lon="13.4762033"><ele>188.66666666666666</ele><time>2026-05-02T12:00:12.137Z</time></trkpt><trkpt lat="46.1802166" lon="13.4761126"><ele>189.0</ele><time>2026-05-02T12:00:13.148Z</time></trkpt><trkpt lat="46.1801902" lon="13.4759524"><ele>189.33333333333334</ele><time>2026-05-02T12:00:15.146Z</time></trkpt><trkpt lat="46.1801383" lon="13.4758047"><ele>189.66666666666669</ele><time>2026-05-02T12:00:17.142Z</time></trkpt><trkpt lat="46.1800967" lon="13.4757291"><ele>190.0</ele><time>2026-05-02T12:00:18.146Z</time></trkpt><trkpt lat="46.1800622" lon="13.4756372"><ele>190.0</ele><time>2026-05-02T12:00:19.148Z</time></trkpt><trkpt lat="46.1800479" lon="13.4755376"><ele>190.0</ele><time>2026-05-02T12:00:20.141Z</time></trkpt><trkpt lat="46.1800534" lon="13.4754258"><ele>190.0</ele><time>2026-05-02T12:00:21.137Z</time></trkpt><trkpt lat="46.1800654" lon="13.4752992"><ele>190.0</ele><time>2026-05-02T12:00:22.146Z</time></trkpt><trkpt lat="46.1800746" lon="13.475165"><ele>190.0</ele><time>2026-05-02T12:00:23.142Z</time></trkpt><trkpt lat="46.1800738" lon="13.4750296"><ele>190.0</ele><time>2026-05-02T12:00:24.138Z</time></trkpt><trkpt lat="46.1800711" lon="13.4748956"><ele>191.6</ele><time>2026-05-02T12:00:25.13Z</time></trkpt><trkpt lat="46.1800509" lon="13.4747511"><ele>193.2</ele><time>2026-05-02T12:00:26.138Z</time></trkpt><trkpt lat="46.1800311" lon="13.4746093"><ele>194.8</ele><time>2026-05-02T12:00:27.135Z</time></trkpt><trkpt lat="46.1800134" lon="13.4744651"><ele>196.4</ele><time>2026-05-02T12:00:28.137Z</time></trkpt><trkpt lat="46.1799997" lon="13.4743249"><ele>198.0</ele><time>2026-05-02T12:00:29.139Z</time></trkpt><trkpt lat="46.1799933" lon="13.4741744"><ele>199.0</ele><time>2026-05-02T12:00:30.132Z</time></trkpt><trkpt lat="46.1799884" lon="13.4740273"><ele>200.0</ele><time>2026-05-02T12:00:31.135Z</time></trkpt><trkpt lat="46.1799878" lon="13.4738848"><ele>201.0</ele><time>2026-05-02T12:00:32.126Z</time></trkpt><trkpt lat="46.1799879" lon="13.4737389"><ele>202.0</ele><time>2026-05-02T12:00:33.137Z</time></trkpt><trkpt lat="46.1799861" lon="13.4736037"><ele>203.0</ele><time>2026-05-02T12:00:34.143Z</time></trkpt><trkpt lat="46.179967" lon="13.4734686"><ele>204.16666666666669</ele><time>2026-05-02T12:00:35.13Z</time></trkpt><trkpt lat="46.1799303" lon="13.4733431"><ele>205.33333333333334</ele><time>2026-05-02T12:00:36.129Z</time></trkpt><trkpt lat="46.1798794" lon="13.4732303"><ele>206.5</ele><time>2026-05-02T12:00:37.131Z</time></trkpt><trkpt lat="46.1798216" lon="13.4731339"><ele>207.66666666666669</ele><time>2026-05-02T12:00:38.132Z</time></trkpt><trkpt lat="46.1797562" lon="13.4730664"><ele>208.83333333333334</ele><time>2026-05-02T12:00:39.13Z</time></trkpt><trkpt lat="46.1796948" lon="13.4730038"><ele>210.0</ele><time>2026-05-02T12:00:40.126Z</time></trkpt><trkpt lat="46.179659" lon="13.4729273"><ele>210.0</ele><time>2026-05-02T12:00:41.134Z</time></trkpt><trkpt lat="46.1796812" lon="13.4727972"><ele>210.0</ele><time>2026-05-02T12:00:43.135Z</time></trkpt><trkpt lat="46.1798099" lon="13.4727937"><ele>210.0</ele><time>2026-05-02T12:00:45.13Z</time></trkpt><trkpt lat="46.1798921" lon="13.4728181"><ele>210.0</ele><time>2026-05-02T12:00:46.129Z</time></trkpt><trkpt lat="46.1799686" lon="13.4728635"><ele>210.0</ele><time>2026-05-02T12:00:47.137Z</time></trkpt><trkpt lat="46.180017" lon="13.4729511"><ele>210.0</ele><time>2026-05-02T12:00:48.148Z</time></trkpt><trkpt lat="46.1800411" lon="13.4730651"><ele>210.0</ele><time>2026-05-02T12:00:49.137Z</time></trkpt><trkpt lat="46.1800739" lon="13.4731872"><ele>210.0</ele><time>2026-05-02T12:00:50.141Z</time></trkpt><trkpt lat="46.1801357" lon="13.4732965"><ele>210.0</ele><time>2026-05-02T12:00:51.132Z</time></trkpt><trkpt lat="46.1802197" lon="13.4733746"><ele>210.0</ele><time>2026-05-02T12:00:52.145Z</time></trkpt><trkpt lat="46.1803067" lon="13.4734201"><ele>210.0</ele><time>2026-05-02T12:00:53.138Z</time></trkpt><trkpt lat="46.1803824" lon="13.4734535"><ele>210.0</ele><time>2026-05-02T12:00:54.135Z</time></trkpt><trkpt lat="46.1804333" lon="13.4735445"><ele>210.0</ele><time>2026-05-02T12:00:55.136Z</time></trkpt><trkpt lat="46.1804534" lon="13.4736949"><ele>210.0</ele><time>2026-05-02T12:00:56.127Z</time></trkpt><trkpt lat="46.180474" lon="13.4738466"><ele>210.0</ele><time>2026-05-02T12:00:57.128Z</time></trkpt><trkpt lat="46.1804996" lon="13.4740048"><ele>208.25</ele><time>2026-05-02T12:00:58.12Z</time></trkpt><trkpt lat="46.1805325" lon="13.4741696"><ele>206.5</ele><time>2026-05-02T12:00:59.132Z</time></trkpt><trkpt lat="46.180566" lon="13.4743388"><ele>204.75</ele><time>2026-05-02T12:01:00.131Z</time></trkpt><trkpt lat="46.1805997" lon="13.4744989"><ele>203.0</ele><time>2026-05-02T12:01:01.129Z</time></trkpt><trkpt lat="46.1806183" lon="13.4746505"><ele>202.0</ele><time>2026-05-02T12:01:02.129Z</time></trkpt><trkpt lat="46.1806347" lon="13.4747898"><ele>201.0</ele><time>2026-05-02T12:01:03.137Z</time></trkpt><trkpt lat="46.1806521" lon="13.474883"><ele>200.0</ele><time>2026-05-02T12:01:04.137Z</time></trkpt><trkpt lat="46.1807543" lon="13.4749194"><ele>199.0</ele><time>2026-05-02T12:01:06.131Z</time></trkpt><trkpt lat="46.1808344" lon="13.4748779"><ele>198.0</ele><time>2026-05-02T12:01:07.131Z</time></trkpt><trkpt lat="46.1809258" lon="13.474815"><ele>201.2</ele><time>2026-05-02T12:01:08.15Z</time></trkpt><trkpt lat="46.1810262" lon="13.474771"><ele>204.4</ele><time>2026-05-02T12:01:09.139Z</time></trkpt><trkpt lat="46.1811219" lon="13.4747478"><ele>207.59999999999997</ele><time>2026-05-02T12:01:10.134Z</time></trkpt><trkpt lat="46.1811969" lon="13.4747177"><ele>210.79999999999998</ele><time>2026-05-02T12:01:11.127Z</time></trkpt><trkpt lat="46.181288" lon="13.474656"><ele>214.0</ele><time>2026-05-02T12:01:13.14Z</time></trkpt><trkpt lat="46.181221" lon="13.4745763"><ele>214.0</ele><time>2026-05-02T12:01:15.128Z</time></trkpt><trkpt lat="46.1811031" lon="13.4746452"><ele>213.99999999999997</ele><time>2026-05-02T12:01:17.138Z</time></trkpt><trkpt lat="46.1810139" lon="13.4746537"><ele>213.99999999999997</ele><time>2026-05-02T12:01:18.132Z</time></trkpt><trkpt lat="46.1809175" lon="13.4746303"><ele>214.0</ele><time>2026-05-02T12:01:19.133Z</time></trkpt><trkpt lat="46.1808452" lon="13.4745603"><ele>214.0</ele><time>2026-05-02T12:01:20.138Z</time></trkpt><trkpt lat="46.1807871" lon="13.474448"><ele>220.5</ele><time>2026-05-02T12:01:21.128Z</time></trkpt><trkpt lat="46.1807511" lon="13.4743034"><ele>227.0</ele><time>2026-05-02T12:01:22.143Z</time></trkpt><trkpt lat="46.1807402" lon="13.4741496"><ele>233.5</ele><time>2026-05-02T12:01:23.13Z</time></trkpt><trkpt lat="46.1807403" lon="13.4739735"><ele>240.0</ele><time>2026-05-02T12:01:24.134Z</time></trkpt><trkpt lat="46.1807398" lon="13.4737974"><ele>240.2</ele><time>2026-05-02T12:01:25.133Z</time></trkpt><trkpt lat="46.1807524" lon="13.4736387"><ele>240.4</ele><time>2026-05-02T12:01:26.143Z</time></trkpt><trkpt lat="46.1807964" lon="13.4735087"><ele>240.60000000000002</ele><time>2026-05-02T12:01:27.142Z</time></trkpt><trkpt lat="46.1808584" lon="13.4733997"><ele>240.8</ele><time>2026-05-02T12:01:28.13Z</time></trkpt><trkpt lat="46.1809182" lon="13.4732921"><ele>241.0</ele><time>2026-05-02T12:01:29.141Z</time></trkpt><trkpt lat="46.180951" lon="13.4731618"><ele>241.0</ele><time>2026-05-02T12:01:30.138Z</time></trkpt><trkpt lat="46.1809472" lon="13.4730168"><ele>241.00000000000003</ele><time>2026-05-02T12:01:31.139Z</time></trkpt><trkpt lat="46.1809214" lon="13.4728641"><ele>241.00000000000003</ele><time>2026-05-02T12:01:32.133Z</time></trkpt><trkpt lat="46.1808873" lon="13.4727096"><ele>241.0</ele><time>2026-05-02T12:01:33.133Z</time></trkpt><trkpt lat="46.1808452" lon="13.4725516"><ele>241.0</ele><time>2026-05-02T12:01:34.145Z</time></trkpt><trkpt lat="46.1808028" lon="13.4723943"><ele>242.8</ele><time>2026-05-02T12:01:35.153Z</time></trkpt><trkpt lat="46.1807708" lon="13.47224"><ele>244.60000000000002</ele><time>2026-05-02T12:01:36.141Z</time></trkpt><trkpt lat="46.1807504" lon="13.4720886"><ele>246.4</ele><time>2026-05-02T12:01:37.142Z</time></trkpt><trkpt lat="46.1807581" lon="13.4719312"><ele>248.2</ele><time>2026-05-02T12:01:38.139Z</time></trkpt><trkpt lat="46.1807924" lon="13.4718026"><ele>250.0</ele><time>2026-05-02T12:01:39.132Z</time></trkpt><trkpt lat="46.1808229" lon="13.4717189"><ele>248.8</ele><time>2026-05-02T12:01:40.141Z</time></trkpt><trkpt lat="46.1807517" lon="13.4715989"><ele>247.6</ele><time>2026-05-02T12:01:42.136Z</time></trkpt><trkpt lat="46.1806684" lon="13.4715394"><ele>246.39999999999998</ele><time>2026-05-02T12:01:43.132Z</time></trkpt><trkpt lat="46.1805932" lon="13.4714389"><ele>245.2</ele><time>2026-05-02T12:01:44.133Z</time></trkpt><trkpt lat="46.1805576" lon="13.4713063"><ele>244.0</ele><time>2026-05-02T12:01:45.142Z</time></trkpt><trkpt lat="46.1805256" lon="13.4711751"><ele>245.99999999999997</ele><time>2026-05-02T12:01:46.125Z</time></trkpt><trkpt lat="46.1804697" lon="13.4710768"><ele>248.0</ele><time>2026-05-02T12:01:47.132Z</time></trkpt><trkpt lat="46.1803721" lon="13.4710361"><ele>250.0</ele><time>2026-05-02T12:01:48.138Z</time></trkpt><trkpt lat="46.1802747" lon="13.4709995"><ele>252.0</ele><time>2026-05-02T12:01:49.139Z</time></trkpt><trkpt lat="46.180219" lon="13.470931"><ele>253.99999999999997</ele><time>2026-05-02T12:01:50.129Z</time></trkpt><trkpt lat="46.1801782" lon="13.4708384"><ele>256.0</ele><time>2026-05-02T12:01:51.142Z</time></trkpt><trkpt lat="46.1801561" lon="13.4707209"><ele>256.0</ele><time>2026-05-02T12:01:52.143Z</time></trkpt><trkpt lat="46.180149" lon="13.4705851"><ele>256.0</ele><time>2026-05-02T12:01:53.13Z</time></trkpt><trkpt lat="46.180142" lon="13.4704366"><ele>256.0</ele><time>2026-05-02T12:01:54.127Z</time></trkpt><trkpt lat="46.1801392" lon="13.4702781"><ele>256.0</ele><time>2026-05-02T12:01:55.133Z</time></trkpt><trkpt lat="46.1801497" lon="13.4701116"><ele>256.0</ele><time>2026-05-02T12:01:56.139Z</time></trkpt><trkpt lat="46.1801493" lon="13.4699329"><ele>260.0</ele><time>2026-05-02T12:01:57.133Z</time></trkpt><trkpt lat="46.1801292" lon="13.4697712"><ele>264.0</ele><time>2026-05-02T12:01:58.135Z</time></trkpt><trkpt lat="46.1800974" lon="13.4696203"><ele>268.0</ele><time>2026-05-02T12:01:59.13Z</time></trkpt><trkpt lat="46.1800741" lon="13.4694634"><ele>272.0</ele><time>2026-05-02T12:02:00.141Z</time></trkpt><trkpt lat="46.1800423" lon="13.4693412"><ele>276.0</ele><time>2026-05-02T12:02:01.145Z</time></trkpt><trkpt lat="46.1799848" lon="13.4693028"><ele>277.2</ele><time>2026-05-02T12:02:02.142Z</time></trkpt><trkpt lat="46.1799003" lon="13.4693151"><ele>278.40000000000003</ele><time>2026-05-02T12:02:03.136Z</time></trkpt><trkpt lat="46.179814" lon="13.4693671"><ele>279.6</ele><time>2026-05-02T12:02:04.13Z</time></trkpt><trkpt lat="46.1797404" lon="13.4694444"><ele>280.8</ele><time>2026-05-02T12:02:05.136Z</time></trkpt><trkpt lat="46.1796525" lon="13.4694684"><ele>282.0</ele><time>2026-05-02T12:02:06.126Z</time></trkpt><trkpt lat="46.1795601" lon="13.4694459"><ele>282.0</ele><time>2026-05-02T12:02:07.137Z</time></trkpt><trkpt lat="46.1794843" lon="13.4693739"><ele>282.0</ele><time>2026-05-02T12:02:08.141Z</time></trkpt><trkpt lat="46.1794203" lon="13.469253"><ele>282.0</ele><time>2026-05-02T12:02:09.142Z</time></trkpt><trkpt lat="46.1793794" lon="13.4691002"><ele>282.0</ele><time>2026-05-02T12:02:10.135Z</time></trkpt><trkpt lat="46.179349" lon="13.468929"><ele>282.0</ele><time>2026-05-02T12:02:11.135Z</time></trkpt><trkpt lat="46.1793092" lon="13.4687689"><ele>283.4</ele><time>2026-05-02T12:02:12.14Z</time></trkpt><trkpt lat="46.1792673" lon="13.4686421"><ele>284.79999999999995</ele><time>2026-05-02T12:02:13.13Z</time></trkpt><trkpt lat="46.1791847" lon="13.4685997"><ele>286.2</ele><time>2026-05-02T12:02:14.132Z</time></trkpt><trkpt lat="46.1790824" lon="13.4686073"><ele>287.59999999999997</ele><time>2026-05-02T12:02:15.134Z</time></trkpt><trkpt lat="46.1789799" lon="13.4686225"><ele>289.0</ele><time>2026-05-02T12:02:16.133Z</time></trkpt><trkpt lat="46.1788753" lon="13.4685862"><ele>289.0</ele><time>2026-05-02T12:02:17.138Z</time></trkpt><trkpt lat="46.1787842" lon="13.4685003"><ele>289.0</ele><time>2026-05-02T12:02:18.142Z</time></trkpt><trkpt lat="46.1787023" lon="13.4684002"><ele>289.0</ele><time>2026-05-02T12:02:19.138Z</time></trkpt><trkpt lat="46.1786291" lon="13.4682911"><ele>289.0</ele><time>2026-05-02T12:02:20.131Z</time></trkpt><trkpt lat="46.1785631" lon="13.4681757"><ele>289.0</ele><time>2026-05-02T12:02:21.129Z</time></trkpt><trkpt lat="46.1784937" lon="13.4680745"><ele>289.0</ele><time>2026-05-02T12:02:22.135Z</time></trkpt><trkpt lat="46.178433" lon="13.4679766"><ele>289.0</ele><time>2026-05-02T12:02:23.135Z</time></trkpt><trkpt lat="46.1783985" lon="13.4678711"><ele>289.0</ele><time>2026-05-02T12:02:24.13Z</time></trkpt><trkpt lat="46.1784122" lon="13.4677357"><ele>289.0</ele><time>2026-05-02T12:02:25.133Z</time></trkpt><trkpt lat="46.1784422" lon="13.4676061"><ele>289.0</ele><time>2026-05-02T12:02:26.123Z</time></trkpt><trkpt lat="46.178478" lon="13.4674744"><ele>290.16666666666663</ele><time>2026-05-02T12:02:27.133Z</time></trkpt><trkpt lat="46.1785223" lon="13.4673405"><ele>291.3333333333333</ele><time>2026-05-02T12:02:28.124Z</time></trkpt><trkpt lat="46.1785741" lon="13.4672191"><ele>292.5</ele><time>2026-05-02T12:02:29.137Z</time></trkpt><trkpt lat="46.1786025" lon="13.4671138"><ele>293.6666666666667</ele><time>2026-05-02T12:02:30.127Z</time></trkpt><trkpt lat="46.1786013" lon="13.4670151"><ele>294.83333333333337</ele><time>2026-05-02T12:02:31.129Z</time></trkpt><trkpt lat="46.1785591" lon="13.4669157"><ele>296.0</ele><time>2026-05-02T12:02:32.126Z</time></trkpt><trkpt lat="46.1784818" lon="13.46683"><ele>299.6</ele><time>2026-05-02T12:02:33.126Z</time></trkpt><trkpt lat="46.1783971" lon="13.4667459"><ele>303.20000000000005</ele><time>2026-05-02T12:02:34.123Z</time></trkpt><trkpt lat="46.178293" lon="13.4666784"><ele>306.79999999999995</ele><time>2026-05-02T12:02:35.12Z</time></trkpt><trkpt lat="46.1781952" lon="13.4666147"><ele>310.4</ele><time>2026-05-02T12:02:36.14Z</time></trkpt><trkpt lat="46.1781113" lon="13.466584"><ele>314.0</ele><time>2026-05-02T12:02:37.131Z</time></trkpt><trkpt lat="46.1780648" lon="13.4665093"><ele>314.0</ele><time>2026-05-02T12:02:39.128Z</time></trkpt><trkpt lat="46.1781589" lon="13.4664652"><ele>314.0</ele><time>2026-05-02T12:02:41.139Z</time></trkpt><trkpt lat="46.1782383" lon="13.4664982"><ele>314.0</ele><time>2026-05-02T12:02:42.117Z</time></trkpt><trkpt lat="46.1783246" lon="13.4665298"><ele>314.0</ele><time>2026-05-02T12:02:43.135Z</time></trkpt><trkpt lat="46.1784202" lon="13.4665672"><ele>314.0</ele><time>2026-05-02T12:02:44.123Z</time></trkpt><trkpt lat="46.1785002" lon="13.4666116"><ele>314.33333333333337</ele><time>2026-05-02T12:02:45.132Z</time></trkpt><trkpt lat="46.1785632" lon="13.4666443"><ele>314.6666666666667</ele><time>2026-05-02T12:02:46.127Z</time></trkpt><trkpt lat="46.1786296" lon="13.4666037"><ele>315.0</ele><time>2026-05-02T12:02:48.133Z</time></trkpt><trkpt lat="46.1785527" lon="13.4664548"><ele>315.3333333333333</ele><time>2026-05-02T12:02:50.124Z</time></trkpt><trkpt lat="46.1784815" lon="13.4663818"><ele>315.66666666666663</ele><time>2026-05-02T12:02:51.13Z</time></trkpt><trkpt lat="46.1784098" lon="13.4662955"><ele>316.0</ele><time>2026-05-02T12:02:52.123Z</time></trkpt><trkpt lat="46.1783252" lon="13.4661904"><ele>319.6</ele><time>2026-05-02T12:02:53.131Z</time></trkpt><trkpt lat="46.1782387" lon="13.4660734"><ele>323.20000000000005</ele><time>2026-05-02T12:02:54.127Z</time></trkpt><trkpt lat="46.1781532" lon="13.4659703"><ele>326.79999999999995</ele><time>2026-05-02T12:02:55.129Z</time></trkpt><trkpt lat="46.1780789" lon="13.4658714"><ele>330.4</ele><time>2026-05-02T12:02:56.133Z</time></trkpt><trkpt lat="46.1780425" lon="13.4657599"><ele>334.0</ele><time>2026-05-02T12:02:57.128Z</time></trkpt><trkpt lat="46.1780465" lon="13.4656214"><ele>334.25</ele><time>2026-05-02T12:02:58.126Z</time></trkpt><trkpt lat="46.178084" lon="13.4654704"><ele>334.5</ele><time>2026-05-02T12:02:59.13Z</time></trkpt><trkpt lat="46.1781295" lon="13.4653093"><ele>334.75</ele><time>2026-05-02T12:03:00.126Z</time></trkpt><trkpt lat="46.1781642" lon="13.4651489"><ele>335.0</ele><time>2026-05-02T12:03:01.134Z</time></trkpt><trkpt lat="46.1781725" lon="13.4649588"><ele>337.25</ele><time>2026-05-02T12:03:02.137Z</time></trkpt><trkpt lat="46.1781507" lon="13.4647687"><ele>339.5</ele><time>2026-05-02T12:03:03.119Z</time></trkpt><trkpt lat="46.1781301" lon="13.4645884"><ele>341.75</ele><time>2026-05-02T12:03:04.128Z</time></trkpt><trkpt lat="46.1781179" lon="13.4644266"><ele>344.0</ele><time>2026-05-02T12:03:05.129Z</time></trkpt><trkpt lat="46.1781277" lon="13.4643098"><ele>343.0</ele><time>2026-05-02T12:03:06.128Z</time></trkpt><trkpt lat="46.1781742" lon="13.4642272"><ele>342.0</ele><time>2026-05-02T12:03:07.136Z</time></trkpt><trkpt lat="46.1782987" lon="13.4642542"><ele>341.0</ele><time>2026-05-02T12:03:09.135Z</time></trkpt><trkpt lat="46.1783619" lon="13.4643737"><ele>340.0</ele><time>2026-05-02T12:03:10.12Z</time></trkpt><trkpt lat="46.1784001" lon="13.4644784"><ele>339.0</ele><time>2026-05-02T12:03:11.125Z</time></trkpt><trkpt lat="46.1784286" lon="13.4646124"><ele>339.5</ele><time>2026-05-02T12:03:12.129Z</time></trkpt><trkpt lat="46.1784648" lon="13.4647914"><ele>340.0</ele><time>2026-05-02T12:03:13.125Z</time></trkpt><trkpt lat="46.1785204" lon="13.4649627"><ele>340.5</ele><time>2026-05-02T12:03:14.125Z</time></trkpt><trkpt lat="46.1786003" lon="13.4651112"><ele>341.0</ele><time>2026-05-02T12:03:15.126Z</time></trkpt><trkpt lat="46.1787043" lon="13.4652395"><ele>341.0</ele><time>2026-05-02T12:03:16.134Z</time></trkpt><trkpt lat="46.1788063" lon="13.4653668"><ele>341.0</ele><time>2026-05-02T12:03:17.137Z</time></trkpt><trkpt lat="46.1789029" lon="13.4654924"><ele>341.0</ele><time>2026-05-02T12:03:18.14Z</time></trkpt><trkpt lat="46.1789971" lon="13.4655856"><ele>341.0</ele><time>2026-05-02T12:03:19.139Z</time></trkpt><trkpt lat="46.179099" lon="13.4656221"><ele>343.6</ele><time>2026-05-02T12:03:20.156Z</time></trkpt><trkpt lat="46.1792" lon="13.4656321"><ele>346.20000000000005</ele><time>2026-05-02T12:03:21.143Z</time></trkpt><trkpt lat="46.1792882" lon="13.4657018"><ele>348.79999999999995</ele><time>2026-05-02T12:03:22.151Z</time></trkpt><trkpt lat="46.1793541" lon="13.4658136"><ele>351.4</ele><time>2026-05-02T12:03:23.138Z</time></trkpt><trkpt lat="46.1794329" lon="13.4659506"><ele>354.0</ele><time>2026-05-02T12:03:24.131Z</time></trkpt><trkpt lat="46.179516" lon="13.4660988"><ele>354.0</ele><time>2026-05-02T12:03:25.139Z</time></trkpt><trkpt lat="46.1795901" lon="13.4662274"><ele>354.0</ele><time>2026-05-02T12:03:26.138Z</time></trkpt><trkpt lat="46.1796604" lon="13.4663281"><ele>354.0</ele><time>2026-05-02T12:03:27.135Z</time></trkpt><trkpt lat="46.1797192" lon="13.466372"><ele>354.0</ele><time>2026-05-02T12:03:28.139Z</time></trkpt><trkpt lat="46.179765" lon="13.4662763"><ele>354.0</ele><time>2026-05-02T12:03:30.137Z</time></trkpt><trkpt lat="46.1797385" lon="13.4661632"><ele>354.0</ele><time>2026-05-02T12:03:31.135Z</time></trkpt><trkpt lat="46.1796826" lon="13.4660612"><ele>354.0</ele><time>2026-05-02T12:03:32.138Z</time></trkpt><trkpt lat="46.1796246" lon="13.4659381"><ele>354.0</ele><time>2026-05-02T12:03:33.135Z</time></trkpt><trkpt lat="46.1795771" lon="13.4657819"><ele>354.0</ele><time>2026-05-02T12:03:34.151Z</time></trkpt><trkpt lat="46.179536" lon="13.4656015"><ele>354.0</ele><time>2026-05-02T12:03:35.139Z</time></trkpt><trkpt lat="46.1794976" lon="13.4654127"><ele>359.0</ele><time>2026-05-02T12:03:36.138Z</time></trkpt><trkpt lat="46.1794651" lon="13.4652019"><ele>364.0</ele><time>2026-05-02T12:03:37.141Z</time></trkpt><trkpt lat="46.1794379" lon="13.4649785"><ele>369.0</ele><time>2026-05-02T12:03:38.138Z</time></trkpt><trkpt lat="46.1794034" lon="13.4647523"><ele>371.5</ele><time>2026-05-02T12:03:39.139Z</time></trkpt><trkpt lat="46.1793638" lon="13.4645443"><ele>374.0</ele><time>2026-05-02T12:03:40.144Z</time></trkpt><trkpt lat="46.1792986" lon="13.4643552"><ele>376.5</ele><time>2026-05-02T12:03:41.135Z</time></trkpt><trkpt lat="46.1792446" lon="13.4641725"><ele>379.0</ele><time>2026-05-02T12:03:42.132Z</time></trkpt><trkpt lat="46.1792143" lon="13.4640095"><ele>379.0</ele><time>2026-05-02T12:03:43.14Z</time></trkpt><trkpt lat="46.1792191" lon="13.4638309"><ele>379.0</ele><time>2026-05-02T12:03:44.137Z</time></trkpt><trkpt lat="46.1792374" lon="13.4636408"><ele>379.0</ele><time>2026-05-02T12:03:45.14Z</time></trkpt><trkpt lat="46.1792561" lon="13.4634449"><ele>379.0</ele><time>2026-05-02T12:03:46.138Z</time></trkpt><trkpt lat="46.1792588" lon="13.4632304"><ele>380.66666666666663</ele><time>2026-05-02T12:03:47.139Z</time></trkpt><trkpt lat="46.1792345" lon="13.4630093"><ele>382.3333333333333</ele><time>2026-05-02T12:03:48.136Z</time></trkpt><trkpt lat="46.1792079" lon="13.4627901"><ele>384.0</ele><time>2026-05-02T12:03:49.14Z</time></trkpt><trkpt lat="46.1791789" lon="13.4625867"><ele>386.25</ele><time>2026-05-02T12:03:50.13Z</time></trkpt><trkpt lat="46.1791436" lon="13.4624045"><ele>388.5</ele><time>2026-05-02T12:03:51.136Z</time></trkpt><trkpt lat="46.1791308" lon="13.4622393"><ele>390.75</ele><time>2026-05-02T12:03:52.134Z</time></trkpt><trkpt lat="46.179139" lon="13.4620735"><ele>393.0</ele><time>2026-05-02T12:03:53.131Z</time></trkpt><trkpt lat="46.1791622" lon="13.461896"><ele>394.0</ele><time>2026-05-02T12:03:54.136Z</time></trkpt><trkpt lat="46.1791883" lon="13.4617112"><ele>395.0</ele><time>2026-05-02T12:03:55.135Z</time></trkpt><trkpt lat="46.179186" lon="13.4615285"><ele>396.0</ele><time>2026-05-02T12:03:56.141Z</time></trkpt><trkpt lat="46.1791546" lon="13.4613576"><ele>397.0</ele><time>2026-05-02T12:03:57.141Z</time></trkpt><trkpt lat="46.1790992" lon="13.4611834"><ele>395.75</ele><time>2026-05-02T12:03:58.13Z</time></trkpt><trkpt lat="46.1790405" lon="13.4610115"><ele>394.5</ele><time>2026-05-02T12:03:59.14Z</time></trkpt><trkpt lat="46.1790009" lon="13.4608342"><ele>393.25</ele><time>2026-05-02T12:04:00.14Z</time></trkpt><trkpt lat="46.1789677" lon="13.4606592"><ele>392.0</ele><time>2026-05-02T12:04:01.151Z</time></trkpt><trkpt lat="46.1789157" lon="13.4605258"><ele>394.5</ele><time>2026-05-02T12:04:02.139Z</time></trkpt><trkpt lat="46.1788228" lon="13.4603886"><ele>397.0</ele><time>2026-05-02T12:04:03.139Z</time></trkpt><trkpt lat="46.1787115" lon="13.4602625"><ele>399.5</ele><time>2026-05-02T12:04:04.128Z</time></trkpt><trkpt lat="46.1786061" lon="13.4601267"><ele>402.0</ele><time>2026-05-02T12:04:05.131Z</time></trkpt><trkpt lat="46.1785283" lon="13.4599744"><ele>402.0</ele><time>2026-05-02T12:04:06.128Z</time></trkpt><trkpt lat="46.1784755" lon="13.4598129"><ele>402.0</ele><time>2026-05-02T12:04:07.132Z</time></trkpt><trkpt lat="46.1784389" lon="13.4596395"><ele>402.0</ele><time>2026-05-02T12:04:08.13Z</time></trkpt><trkpt lat="46.1784067" lon="13.4594863"><ele>402.0</ele><time>2026-05-02T12:04:09.134Z</time></trkpt><trkpt lat="46.1783837" lon="13.4593456"><ele>404.8</ele><time>2026-05-02T12:04:10.14Z</time></trkpt><trkpt lat="46.1783699" lon="13.4592121"><ele>407.6</ele><time>2026-05-02T12:04:11.137Z</time></trkpt><trkpt lat="46.1783842" lon="13.4591227"><ele>410.40000000000003</ele><time>2026-05-02T12:04:12.133Z</time></trkpt><trkpt lat="46.1784633" lon="13.4590645"><ele>413.20000000000005</ele><time>2026-05-02T12:04:14.133Z</time></trkpt><trkpt lat="46.1785085" lon="13.4591948"><ele>416.0</ele><time>2026-05-02T12:04:16.131Z</time></trkpt><trkpt lat="46.1785649" lon="13.4593287"><ele>416.0</ele><time>2026-05-02T12:04:17.137Z</time></trkpt><trkpt lat="46.1786362" lon="13.4594939"><ele>416.0</ele><time>2026-05-02T12:04:18.131Z</time></trkpt><trkpt lat="46.1787378" lon="13.4596474"><ele>416.0</ele><time>2026-05-02T12:04:19.136Z</time></trkpt><trkpt lat="46.1788589" lon="13.4597557"><ele>416.0</ele><time>2026-05-02T12:04:20.137Z</time></trkpt><trkpt lat="46.1789897" lon="13.4598236"><ele>418.20000000000005</ele><time>2026-05-02T12:04:21.14Z</time></trkpt><trkpt lat="46.1791231" lon="13.4598909"><ele>420.40000000000003</ele><time>2026-05-02T12:04:22.139Z</time></trkpt><trkpt lat="46.1792381" lon="13.4599658"><ele>422.6</ele><time>2026-05-02T12:04:23.138Z</time></trkpt><trkpt lat="46.1793207" lon="13.460022"><ele>424.8</ele><time>2026-05-02T12:04:24.135Z</time></trkpt><trkpt lat="46.179387" lon="13.4600162"><ele>427.0</ele><time>2026-05-02T12:04:25.141Z</time></trkpt><trkpt lat="46.1794152" lon="13.459898"><ele>427.0</ele><time>2026-05-02T12:04:27.134Z</time></trkpt><trkpt lat="46.1793735" lon="13.4597982"><ele>427.0</ele><time>2026-05-02T12:04:28.136Z</time></trkpt><trkpt lat="46.1793097" lon="13.4596795"><ele>427.0</ele><time>2026-05-02T12:04:29.141Z</time></trkpt><trkpt lat="46.1792509" lon="13.4595159"><ele>427.0</ele><time>2026-05-02T12:04:30.126Z</time></trkpt><trkpt lat="46.1791965" lon="13.4593184"><ele>429.25</ele><time>2026-05-02T12:04:31.135Z</time></trkpt><trkpt lat="46.1791401" lon="13.4591236"><ele>431.5</ele><time>2026-05-02T12:04:32.146Z</time></trkpt><trkpt lat="46.179088" lon="13.4589204"><ele>433.75</ele><time>2026-05-02T12:04:33.129Z</time></trkpt><trkpt lat="46.1790402" lon="13.458739"><ele>436.0</ele><time>2026-05-02T12:04:34.128Z</time></trkpt><trkpt lat="46.1789866" lon="13.4585827"><ele>436.0</ele><time>2026-05-02T12:04:35.128Z</time></trkpt><trkpt lat="46.1789075" lon="13.458474"><ele>436.0</ele><time>2026-05-02T12:04:36.138Z</time></trkpt><trkpt lat="46.1788009" lon="13.4584074"><ele>436.0</ele><time>2026-05-02T12:04:37.125Z</time></trkpt><trkpt lat="46.1786876" lon="13.4583715"><ele>436.0</ele><time>2026-05-02T12:04:38.123Z</time></trkpt><trkpt lat="46.1785864" lon="13.4583317"><ele>436.0</ele><time>2026-05-02T12:04:39.119Z</time></trkpt><trkpt lat="46.1785205" lon="13.4582963"><ele>436.0</ele><time>2026-05-02T12:04:40.139Z</time></trkpt><trkpt lat="46.1785349" lon="13.4581821"><ele>436.0</ele><time>2026-05-02T12:04:42.142Z</time></trkpt><trkpt lat="46.1786631" lon="13.45822"><ele>436.0</ele><time>2026-05-02T12:04:44.134Z</time></trkpt><trkpt lat="46.1787579" lon="13.4582644"><ele>436.0</ele><time>2026-05-02T12:04:45.152Z</time></trkpt><trkpt lat="46.1788633" lon="13.458322"><ele>436.0</ele><time>2026-05-02T12:04:46.129Z</time></trkpt><trkpt lat="46.1789846" lon="13.4583812"><ele>437.5</ele><time>2026-05-02T12:04:47.141Z</time></trkpt><trkpt lat="46.1791134" lon="13.4584552"><ele>439.0</ele><time>2026-05-02T12:04:48.142Z</time></trkpt><trkpt lat="46.1792356" lon="13.4585749"><ele>440.5</ele><time>2026-05-02T12:04:49.131Z</time></trkpt><trkpt lat="46.1793549" lon="13.4587223"><ele>442.0</ele><time>2026-05-02T12:04:50.134Z</time></trkpt><trkpt lat="46.1794743" lon="13.4588749"><ele>442.0</ele><time>2026-05-02T12:04:51.137Z</time></trkpt><trkpt lat="46.179585" lon="13.459015"><ele>442.0</ele><time>2026-05-02T12:04:52.138Z</time></trkpt><trkpt lat="46.1796831" lon="13.4591417"><ele>442.0</ele><time>2026-05-02T12:04:53.142Z</time></trkpt><trkpt lat="46.1797772" lon="13.4592818"><ele>442.0</ele><time>2026-05-02T12:04:54.13Z</time></trkpt><trkpt lat="46.1798541" lon="13.4594308"><ele>445.0</ele><time>2026-05-02T12:04:55.137Z</time></trkpt><trkpt lat="46.1799103" lon="13.4595878"><ele>448.00000000000006</ele><time>2026-05-02T12:04:56.135Z</time></trkpt><trkpt lat="46.1799403" lon="13.459733"><ele>451.00000000000006</ele><time>2026-05-02T12:04:57.136Z</time></trkpt><trkpt lat="46.1799957" lon="13.4598498"><ele>454.0</ele><time>2026-05-02T12:04:58.14Z</time></trkpt><trkpt lat="46.1800695" lon="13.4599597"><ele>457.0</ele><time>2026-05-02T12:04:59.155Z</time></trkpt><trkpt lat="46.1801641" lon="13.4600208"><ele>457.0</ele><time>2026-05-02T12:05:00.136Z</time></trkpt><trkpt lat="46.1802628" lon="13.4600656"><ele>457.00000000000006</ele><time>2026-05-02T12:05:01.131Z</time></trkpt><trkpt lat="46.1803562" lon="13.4601097"><ele>457.00000000000006</ele><time>2026-05-02T12:05:02.146Z</time></trkpt><trkpt lat="46.1804452" lon="13.4601645"><ele>457.0</ele><time>2026-05-02T12:05:03.151Z</time></trkpt><trkpt lat="46.1805359" lon="13.4602469"><ele>457.0</ele><time>2026-05-02T12:05:04.14Z</time></trkpt><trkpt lat="46.1805927" lon="13.4603924"><ele>460.5</ele><time>2026-05-02T12:05:05.14Z</time></trkpt><trkpt lat="46.1806439" lon="13.4605474"><ele>464.0</ele><time>2026-05-02T12:05:06.14Z</time></trkpt><trkpt lat="46.1806975" lon="13.4607035"><ele>467.5</ele><time>2026-05-02T12:05:07.138Z</time></trkpt><trkpt lat="46.1807507" lon="13.4608523"><ele>471.0</ele><time>2026-05-02T12:05:08.146Z</time></trkpt><trkpt lat="46.1808048" lon="13.4609838"><ele>471.0</ele><time>2026-05-02T12:05:09.142Z</time></trkpt><trkpt lat="46.1808698" lon="13.461085"><ele>471.0</ele><time>2026-05-02T12:05:10.147Z</time></trkpt><trkpt lat="46.1809542" lon="13.4611591"><ele>471.0</ele><time>2026-05-02T12:05:11.139Z</time></trkpt><trkpt lat="46.1810428" lon="13.4612148"><ele>471.0</ele><time>2026-05-02T12:05:12.137Z</time></trkpt><trkpt lat="46.1811393" lon="13.461244"><ele>471.0</ele><time>2026-05-02T12:05:13.144Z</time></trkpt><trkpt lat="46.1812162" lon="13.4612373"><ele>471.0</ele><time>2026-05-02T12:05:14.137Z</time></trkpt><trkpt lat="46.181289" lon="13.4612005"><ele>471.0</ele><time>2026-05-02T12:05:15.137Z</time></trkpt><trkpt lat="46.1813727" lon="13.4611639"><ele>471.0</ele><time>2026-05-02T12:05:16.143Z</time></trkpt><trkpt lat="46.1814589" lon="13.4611345"><ele>471.0</ele><time>2026-05-02T12:05:17.141Z</time></trkpt><trkpt lat="46.1815514" lon="13.4611339"><ele>471.0</ele><time>2026-05-02T12:05:18.14Z</time></trkpt><trkpt lat="46.181652" lon="13.4611567"><ele>471.0</ele><time>2026-05-02T12:05:19.142Z</time></trkpt><trkpt lat="46.1817541" lon="13.4611964"><ele>471.0</ele><time>2026-05-02T12:05:20.146Z</time></trkpt><trkpt lat="46.1818577" lon="13.4612485"><ele>471.0</ele><time>2026-05-02T12:05:21.144Z</time></trkpt><trkpt lat="46.1819555" lon="13.4613219"><ele>471.0</ele><time>2026-05-02T12:05:22.14Z</time></trkpt><trkpt lat="46.1820314" lon="13.4614209"><ele>471.0</ele><time>2026-05-02T12:05:23.136Z</time></trkpt><trkpt lat="46.1820879" lon="13.4615316"><ele>471.0</ele><time>2026-05-02T12:05:24.139Z</time></trkpt><trkpt lat="46.1821391" lon="13.4616438"><ele>471.0</ele><time>2026-05-02T12:05:25.13Z</time></trkpt><trkpt lat="46.1821873" lon="13.4617637"><ele>471.0</ele><time>2026-05-02T12:05:26.152Z</time></trkpt><trkpt lat="46.1822323" lon="13.4618843"><ele>471.0</ele><time>2026-05-02T12:05:27.139Z</time></trkpt><trkpt lat="46.1822672" lon="13.462013"><ele>471.0</ele><time>2026-05-02T12:05:28.147Z</time></trkpt><trkpt lat="46.1822836" lon="13.4621506"><ele>471.0</ele><time>2026-05-02T12:05:29.141Z</time></trkpt><trkpt lat="46.1822897" lon="13.4622864"><ele>469.1666666666667</ele><time>2026-05-02T12:05:30.14Z</time></trkpt><trkpt lat="46.1822861" lon="13.462424"><ele>467.33333333333337</ele><time>2026-05-02T12:05:31.142Z</time></trkpt><trkpt lat="46.1822767" lon="13.462554"><ele>465.5</ele><time>2026-05-02T12:05:32.137Z</time></trkpt><trkpt lat="46.1822754" lon="13.4626741"><ele>463.6666666666667</ele><time>2026-05-02T12:05:33.131Z</time></trkpt><trkpt lat="46.1822968" lon="13.4627789"><ele>461.83333333333337</ele><time>2026-05-02T12:05:34.137Z</time></trkpt><trkpt lat="46.1823322" lon="13.4628602"><ele>460.0</ele><time>2026-05-02T12:05:35.139Z</time></trkpt><trkpt lat="46.1823864" lon="13.4629137"><ele>466.4</ele><time>2026-05-02T12:05:36.151Z</time></trkpt><trkpt lat="46.1824747" lon="13.4628496"><ele>472.8</ele><time>2026-05-02T12:05:38.143Z</time></trkpt><trkpt lat="46.1824452" lon="13.4626724"><ele>479.20000000000005</ele><time>2026-05-02T12:05:40.142Z</time></trkpt><trkpt lat="46.182411" lon="13.462551"><ele>485.6</ele><time>2026-05-02T12:05:41.141Z</time></trkpt><trkpt lat="46.1823891" lon="13.4624126"><ele>492.0</ele><time>2026-05-02T12:05:42.138Z</time></trkpt><trkpt lat="46.1823918" lon="13.4622733"><ele>492.0</ele><time>2026-05-02T12:05:43.142Z</time></trkpt><trkpt lat="46.1823974" lon="13.4621216"><ele>492.00000000000006</ele><time>2026-05-02T12:05:44.139Z</time></trkpt><trkpt lat="46.1824028" lon="13.4619735"><ele>492.00000000000006</ele><time>2026-05-02T12:05:45.143Z</time></trkpt><trkpt lat="46.1824297" lon="13.4618165"><ele>492.0</ele><time>2026-05-02T12:05:46.132Z</time></trkpt><trkpt lat="46.1824631" lon="13.4616838"><ele>492.0</ele><time>2026-05-02T12:05:47.138Z</time></trkpt><trkpt lat="46.182472" lon="13.4615766"><ele>491.75</ele><time>2026-05-02T12:05:48.139Z</time></trkpt><trkpt lat="46.1824372" lon="13.4613931"><ele>491.5</ele><time>2026-05-02T12:05:50.133Z</time></trkpt><trkpt lat="46.1823836" lon="13.4612704"><ele>491.25</ele><time>2026-05-02T12:05:51.139Z</time></trkpt><trkpt lat="46.1823222" lon="13.4611374"><ele>491.0</ele><time>2026-05-02T12:05:52.135Z</time></trkpt><trkpt lat="46.1822576" lon="13.4609981"><ele>491.0</ele><time>2026-05-02T12:05:53.138Z</time></trkpt><trkpt lat="46.1821886" lon="13.4608598"><ele>491.0</ele><time>2026-05-02T12:05:54.143Z</time></trkpt><trkpt lat="46.1820938" lon="13.4607397"><ele>491.0</ele><time>2026-05-02T12:05:55.137Z</time></trkpt><trkpt lat="46.1819887" lon="13.4606081"><ele>491.0</ele><time>2026-05-02T12:05:56.144Z</time></trkpt><trkpt lat="46.181885" lon="13.4604901"><ele>489.6</ele><time>2026-05-02T12:05:57.141Z</time></trkpt><trkpt lat="46.1817882" lon="13.4603862"><ele>488.20000000000005</ele><time>2026-05-02T12:05:58.139Z</time></trkpt><trkpt lat="46.1816951" lon="13.4603086"><ele>486.79999999999995</ele><time>2026-05-02T12:05:59.145Z</time></trkpt><trkpt lat="46.1816052" lon="13.460249"><ele>485.4</ele><time>2026-05-02T12:06:00.155Z</time></trkpt><trkpt lat="46.1815278" lon="13.4601763"><ele>484.0</ele><time>2026-05-02T12:06:01.136Z</time></trkpt><trkpt lat="46.1814647" lon="13.4600736"><ele>484.0</ele><time>2026-05-02T12:06:02.142Z</time></trkpt><trkpt lat="46.1814179" lon="13.4599532"><ele>484.0</ele><time>2026-05-02T12:06:03.143Z</time></trkpt><trkpt lat="46.1813875" lon="13.4598225"><ele>484.0</ele><time>2026-05-02T12:06:04.137Z</time></trkpt><trkpt lat="46.1813803" lon="13.4596629"><ele>484.0</ele><time>2026-05-02T12:06:05.142Z</time></trkpt><trkpt lat="46.1813617" lon="13.4595274"><ele>484.0</ele><time>2026-05-02T12:06:06.149Z</time></trkpt><trkpt lat="46.1813219" lon="13.4594003"><ele>486.4</ele><time>2026-05-02T12:06:07.141Z</time></trkpt><trkpt lat="46.1812625" lon="13.4592825"><ele>488.79999999999995</ele><time>2026-05-02T12:06:08.138Z</time></trkpt><trkpt lat="46.1811871" lon="13.4591682"><ele>491.20000000000005</ele><time>2026-05-02T12:06:09.139Z</time></trkpt><trkpt lat="46.1811208" lon="13.4590512"><ele>493.6</ele><time>2026-05-02T12:06:10.138Z</time></trkpt><trkpt lat="46.1810669" lon="13.4589321"><ele>496.0</ele><time>2026-05-02T12:06:11.142Z</time></trkpt><trkpt lat="46.1810165" lon="13.4588017"><ele>498.75</ele><time>2026-05-02T12:06:12.151Z</time></trkpt><trkpt lat="46.1809796" lon="13.4586555"><ele>501.5</ele><time>2026-05-02T12:06:13.148Z</time></trkpt><trkpt lat="46.1809511" lon="13.4584805"><ele>504.25</ele><time>2026-05-02T12:06:14.152Z</time></trkpt><trkpt lat="46.1809265" lon="13.4582916"><ele>507.0</ele><time>2026-05-02T12:06:15.14Z</time></trkpt><trkpt lat="46.1808904" lon="13.4581188"><ele>507.0</ele><time>2026-05-02T12:06:16.138Z</time></trkpt><trkpt lat="46.1808418" lon="13.4579824"><ele>507.0</ele><time>2026-05-02T12:06:17.149Z</time></trkpt><trkpt lat="46.1807774" lon="13.45785"><ele>507.0</ele><time>2026-05-02T12:06:18.153Z</time></trkpt><trkpt lat="46.1806998" lon="13.4577096"><ele>507.0</ele><time>2026-05-02T12:06:19.153Z</time></trkpt><trkpt lat="46.1806142" lon="13.4575776"><ele>506.6</ele><time>2026-05-02T12:06:20.151Z</time></trkpt><trkpt lat="46.180535" lon="13.4574525"><ele>506.20000000000005</ele><time>2026-05-02T12:06:21.14Z</time></trkpt><trkpt lat="46.1804771" lon="13.4573209"><ele>505.8</ele><time>2026-05-02T12:06:22.148Z</time></trkpt><trkpt lat="46.1804261" lon="13.4571818"><ele>505.4</ele><time>2026-05-02T12:06:23.149Z</time></trkpt><trkpt lat="46.1803782" lon="13.4570419"><ele>505.0</ele><time>2026-05-02T12:06:24.147Z</time></trkpt><trkpt lat="46.1803174" lon="13.4568923"><ele>509.75</ele><time>2026-05-02T12:06:25.136Z</time></trkpt><trkpt lat="46.1802441" lon="13.4567399"><ele>514.5</ele><time>2026-05-02T12:06:26.148Z</time></trkpt><trkpt lat="46.1801716" lon="13.4565968"><ele>519.25</ele><time>2026-05-02T12:06:27.141Z</time></trkpt><trkpt lat="46.1801029" lon="13.4564583"><ele>524.0</ele><time>2026-05-02T12:06:28.148Z</time></trkpt><trkpt lat="46.1800469" lon="13.4563074"><ele>527.75</ele><time>2026-05-02T12:06:29.141Z</time></trkpt><trkpt lat="46.1800073" lon="13.4561463"><ele>531.5</ele><time>2026-05-02T12:06:30.133Z</time></trkpt><trkpt lat="46.1799697" lon="13.4559833"><ele>535.25</ele><time>2026-05-02T12:06:31.136Z</time></trkpt><trkpt lat="46.1799493" lon="13.455814"><ele>539.0</ele><time>2026-05-02T12:06:32.143Z</time></trkpt><trkpt lat="46.1799445" lon="13.4556718"><ele>539.0</ele><time>2026-05-02T12:06:33.148Z</time></trkpt><trkpt lat="46.1799762" lon="13.4555487"><ele>539.0</ele><time>2026-05-02T12:06:34.137Z</time></trkpt><trkpt lat="46.1800157" lon="13.4554459"><ele>539.0</ele><time>2026-05-02T12:06:35.139Z</time></trkpt><trkpt lat="46.180032" lon="13.4553442"><ele>539.0</ele><time>2026-05-02T12:06:36.138Z</time></trkpt><trkpt lat="46.1799983" lon="13.4552412"><ele>539.0</ele><time>2026-05-02T12:06:37.136Z</time></trkpt><trkpt lat="46.1799283" lon="13.4551506"><ele>539.0</ele><time>2026-05-02T12:06:38.145Z</time></trkpt><trkpt lat="46.1798395" lon="13.4551037"><ele>535.2</ele><time>2026-05-02T12:06:39.13Z</time></trkpt><trkpt lat="46.1797516" lon="13.4551037"><ele>531.4</ele><time>2026-05-02T12:06:40.128Z</time></trkpt><trkpt lat="46.1796553" lon="13.455117"><ele>527.6</ele><time>2026-05-02T12:06:41.142Z</time></trkpt><trkpt lat="46.1795818" lon="13.455101"><ele>523.8</ele><time>2026-05-02T12:06:42.144Z</time></trkpt><trkpt lat="46.1795117" lon="13.4549756"><ele>520.0</ele><time>2026-05-02T12:06:44.152Z</time></trkpt><trkpt lat="46.1794985" lon="13.4548539"><ele>520.0</ele><time>2026-05-02T12:06:45.122Z</time></trkpt><trkpt lat="46.1794867" lon="13.454712"><ele>520.0</ele><time>2026-05-02T12:06:46.132Z</time></trkpt><trkpt lat="46.1794758" lon="13.4545663"><ele>520.0</ele><time>2026-05-02T12:06:47.126Z</time></trkpt><trkpt lat="46.1794767" lon="13.4544084"><ele>520.0</ele><time>2026-05-02T12:06:48.129Z</time></trkpt><trkpt lat="46.1794752" lon="13.4542491"><ele>520.0</ele><time>2026-05-02T12:06:49.149Z</time></trkpt><trkpt lat="46.1794726" lon="13.4540917"><ele>521.8</ele><time>2026-05-02T12:06:50.147Z</time></trkpt><trkpt lat="46.1794695" lon="13.4539458"><ele>523.6</ele><time>2026-05-02T12:06:51.148Z</time></trkpt><trkpt lat="46.1794543" lon="13.4537979"><ele>525.4</ele><time>2026-05-02T12:06:52.148Z</time></trkpt><trkpt lat="46.1794115" lon="13.4536763"><ele>527.2</ele><time>2026-05-02T12:06:53.139Z</time></trkpt><trkpt lat="46.1793491" lon="13.4535722"><ele>529.0</ele><time>2026-05-02T12:06:54.148Z</time></trkpt><trkpt lat="46.1792821" lon="13.4534619"><ele>532.75</ele><time>2026-05-02T12:06:55.137Z</time></trkpt><trkpt lat="46.1792232" lon="13.4533401"><ele>536.5</ele><time>2026-05-02T12:06:56.151Z</time></trkpt><trkpt lat="46.1791662" lon="13.4532015"><ele>540.25</ele><time>2026-05-02T12:06:57.14Z</time></trkpt><trkpt lat="46.1791239" lon="13.4530437"><ele>544.0</ele><time>2026-05-02T12:06:58.145Z</time></trkpt><trkpt lat="46.1790916" lon="13.4528749"><ele>547.75</ele><time>2026-05-02T12:06:59.137Z</time></trkpt><trkpt lat="46.1790705" lon="13.4526856"><ele>551.5</ele><time>2026-05-02T12:07:00.137Z</time></trkpt><trkpt lat="46.1790524" lon="13.4525124"><ele>555.25</ele><time>2026-05-02T12:07:01.146Z</time></trkpt><trkpt lat="46.1790239" lon="13.4523542"><ele>559.0</ele><time>2026-05-02T12:07:02.138Z</time></trkpt><trkpt lat="46.1789802" lon="13.4522274"><ele>559.0</ele><time>2026-05-02T12:07:03.134Z</time></trkpt><trkpt lat="46.1789397" lon="13.4521298"><ele>559.0</ele><time>2026-05-02T12:07:04.13Z</time></trkpt><trkpt lat="46.1788952" lon="13.4520409"><ele>559.0</ele><time>2026-05-02T12:07:05.139Z</time></trkpt><trkpt lat="46.1789024" lon="13.4519479"><ele>559.0</ele><time>2026-05-02T12:07:06.133Z</time></trkpt><trkpt lat="46.1790047" lon="13.4519499"><ele>559.0</ele><time>2026-05-02T12:07:08.139Z</time></trkpt><trkpt lat="46.1790692" lon="13.4520248"><ele>559.0</ele><time>2026-05-02T12:07:09.131Z</time></trkpt><trkpt lat="46.1791298" lon="13.4521531"><ele>559.0</ele><time>2026-05-02T12:07:10.14Z</time></trkpt><trkpt lat="46.1791931" lon="13.4523075"><ele>559.0</ele><time>2026-05-02T12:07:11.142Z</time></trkpt><trkpt lat="46.1792703" lon="13.4524803"><ele>559.0</ele><time>2026-05-02T12:07:12.133Z</time></trkpt><trkpt lat="46.1793515" lon="13.4526644"><ele>559.0</ele><time>2026-05-02T12:07:13.149Z</time></trkpt><trkpt lat="46.1794351" lon="13.4528584"><ele>554.0</ele><time>2026-05-02T12:07:14.146Z</time></trkpt><trkpt lat="46.1795293" lon="13.4530662"><ele>549.0</ele><time>2026-05-02T12:07:15.137Z</time></trkpt><trkpt lat="46.1796284" lon="13.4532651"><ele>544.0</ele><time>2026-05-02T12:07:16.137Z</time></trkpt><trkpt lat="46.1797232" lon="13.4534481"><ele>544.0</ele><time>2026-05-02T12:07:17.143Z</time></trkpt><trkpt lat="46.1798275" lon="13.453584"><ele>544.0</ele><time>2026-05-02T12:07:18.143Z</time></trkpt><trkpt lat="46.1799148" lon="13.4536976"><ele>544.0</ele><time>2026-05-02T12:07:19.145Z</time></trkpt><trkpt lat="46.1799711" lon="13.4538308"><ele>544.0</ele><time>2026-05-02T12:07:20.149Z</time></trkpt><trkpt lat="46.1800003" lon="13.4539692"><ele>545.8333333333334</ele><time>2026-05-02T12:07:21.15Z</time></trkpt><trkpt lat="46.1800146" lon="13.4540852"><ele>547.6666666666667</ele><time>2026-05-02T12:07:22.143Z</time></trkpt><trkpt lat="46.1800823" lon="13.4541718"><ele>549.5</ele><time>2026-05-02T12:07:24.141Z</time></trkpt><trkpt lat="46.1801648" lon="13.4540768"><ele>551.3333333333334</ele><time>2026-05-02T12:07:26.152Z</time></trkpt><trkpt lat="46.180143" lon="13.4539863"><ele>553.1666666666666</ele><time>2026-05-02T12:07:27.149Z</time></trkpt><trkpt lat="46.1801053" lon="13.4538796"><ele>555.0</ele><time>2026-05-02T12:07:28.147Z</time></trkpt><trkpt lat="46.1800627" lon="13.4537577"><ele>561.25</ele><time>2026-05-02T12:07:29.139Z</time></trkpt><trkpt lat="46.1800206" lon="13.4536262"><ele>567.5</ele><time>2026-05-02T12:07:30.137Z</time></trkpt><trkpt lat="46.1799792" lon="13.4534749"><ele>573.75</ele><time>2026-05-02T12:07:31.147Z</time></trkpt><trkpt lat="46.1799395" lon="13.4533086"><ele>580.0</ele><time>2026-05-02T12:07:32.137Z</time></trkpt><trkpt lat="46.1798991" lon="13.4531312"><ele>574.75</ele><time>2026-05-02T12:07:33.146Z</time></trkpt><trkpt lat="46.1798497" lon="13.4529667"><ele>569.5</ele><time>2026-05-02T12:07:34.146Z</time></trkpt><trkpt lat="46.1797916" lon="13.4528034"><ele>564.25</ele><time>2026-05-02T12:07:35.153Z</time></trkpt><trkpt lat="46.1797362" lon="13.4526393"><ele>559.0</ele><time>2026-05-02T12:07:36.136Z</time></trkpt><trkpt lat="46.1796859" lon="13.4524756"><ele>559.0</ele><time>2026-05-02T12:07:37.138Z</time></trkpt><trkpt lat="46.1796621" lon="13.4523119"><ele>559.0</ele><time>2026-05-02T12:07:38.144Z</time></trkpt><trkpt lat="46.1796599" lon="13.4521448"><ele>559.0</ele><time>2026-05-02T12:07:39.141Z</time></trkpt><trkpt lat="46.1796728" lon="13.4519769"><ele>559.0</ele><time>2026-05-02T12:07:40.147Z</time></trkpt><trkpt lat="46.1796947" lon="13.4518147"><ele>560.3333333333334</ele><time>2026-05-02T12:07:41.131Z</time></trkpt><trkpt lat="46.1797219" lon="13.4516927"><ele>561.6666666666667</ele><time>2026-05-02T12:07:42.143Z</time></trkpt><trkpt lat="46.1797428" lon="13.4516043"><ele>563.0</ele><time>2026-05-02T12:07:43.141Z</time></trkpt><trkpt lat="46.1797421" lon="13.4514761"><ele>564.3333333333334</ele><time>2026-05-02T12:07:46.144Z</time></trkpt><trkpt lat="46.1797549" lon="13.4513353"><ele>565.6666666666666</ele><time>2026-05-02T12:07:49.135Z</time></trkpt><trkpt lat="46.1797516" lon="13.4512065"><ele>567.0</ele><time>2026-05-02T12:07:51.137Z</time></trkpt><trkpt lat="46.1797325" lon="13.4511057"><ele>567.0</ele><time>2026-05-02T12:07:53.136Z</time></trkpt><trkpt lat="46.1796881" lon="13.4509861"><ele>567.0</ele><time>2026-05-02T12:07:55.138Z</time></trkpt><trkpt lat="46.1796201" lon="13.4508392"><ele>567.0</ele><time>2026-05-02T12:07:57.139Z</time></trkpt><trkpt lat="46.1795486" lon="13.4507038"><ele>567.0</ele><time>2026-05-02T12:07:59.138Z</time></trkpt><trkpt lat="46.1794794" lon="13.4505589"><ele>569.3333333333334</ele><time>2026-05-02T12:08:01.138Z</time></trkpt><trkpt lat="46.1794316" lon="13.4504"><ele>571.6666666666666</ele><time>2026-05-02T12:08:03.139Z</time></trkpt><trkpt lat="46.1793953" lon="13.4502368"><ele>574.0</ele><time>2026-05-02T12:08:05.162Z</time></trkpt><trkpt lat="46.1793864" lon="13.4501425"><ele>576.3333333333333</ele><time>2026-05-02T12:08:06.149Z</time></trkpt><trkpt lat="46.1793806" lon="13.4500463"><ele>578.6666666666666</ele><time>2026-05-02T12:08:07.139Z</time></trkpt><trkpt lat="46.1793813" lon="13.4499456"><ele>581.0</ele><time>2026-05-02T12:08:08.143Z</time></trkpt><trkpt lat="46.1793724" lon="13.4497735"><ele>584.4</ele><time>2026-05-02T12:08:10.134Z</time></trkpt><trkpt lat="46.1793423" lon="13.4495893"><ele>587.8</ele><time>2026-05-02T12:08:12.144Z</time></trkpt><trkpt lat="46.179323" lon="13.449499"><ele>591.1999999999999</ele><time>2026-05-02T12:08:13.132Z</time></trkpt><trkpt lat="46.179294" lon="13.4494112"><ele>594.6</ele><time>2026-05-02T12:08:14.151Z</time></trkpt><trkpt lat="46.1792495" lon="13.4492656"><ele>598.0</ele><time>2026-05-02T12:08:16.163Z</time></trkpt><trkpt lat="46.1791851" lon="13.449146"><ele>598.0</ele><time>2026-05-02T12:08:18.14Z</time></trkpt><trkpt lat="46.1791056" lon="13.4491378"><ele>598.0</ele><time>2026-05-02T12:08:20.138Z</time></trkpt><trkpt lat="46.1790477" lon="13.4492327"><ele>598.0</ele><time>2026-05-02T12:08:23.132Z</time></trkpt><trkpt lat="46.1790218" lon="13.4493483"><ele>598.0</ele><time>2026-05-02T12:08:25.134Z</time></trkpt><trkpt lat="46.1789727" lon="13.449516"><ele>598.0</ele><time>2026-05-02T12:08:27.143Z</time></trkpt><trkpt lat="46.1789424" lon="13.4496052"><ele>598.0</ele><time>2026-05-02T12:08:28.139Z</time></trkpt><trkpt lat="46.1789089" lon="13.4497058"><ele>595.6666666666667</ele><time>2026-05-02T12:08:29.136Z</time></trkpt><trkpt lat="46.1788642" lon="13.4497988"><ele>593.3333333333334</ele><time>2026-05-02T12:08:30.137Z</time></trkpt><trkpt lat="46.1788134" lon="13.4498925"><ele>591.0</ele><time>2026-05-02T12:08:31.133Z</time></trkpt><trkpt lat="46.178765" lon="13.4499657"><ele>588.6666666666666</ele><time>2026-05-02T12:08:32.138Z</time></trkpt><trkpt lat="46.1787097" lon="13.4500263"><ele>586.3333333333333</ele><time>2026-05-02T12:08:33.13Z</time></trkpt><trkpt lat="46.1785967" lon="13.4500791"><ele>584.0</ele><time>2026-05-02T12:08:35.129Z</time></trkpt><trkpt lat="46.1784805" lon="13.4500534"><ele>584.0</ele><time>2026-05-02T12:08:37.137Z</time></trkpt><trkpt lat="46.1784099" lon="13.4500256"><ele>584.0</ele><time>2026-05-02T12:08:38.136Z</time></trkpt><trkpt lat="46.1783415" lon="13.4499949"><ele>584.0</ele><time>2026-05-02T12:08:39.132Z</time></trkpt><trkpt lat="46.1782694" lon="13.4499521"><ele>584.0</ele><time>2026-05-02T12:08:40.139Z</time></trkpt><trkpt lat="46.1782036" lon="13.4499027"><ele>584.0</ele><time>2026-05-02T12:08:41.128Z</time></trkpt><trkpt lat="46.1781482" lon="13.4498498"><ele>584.0</ele><time>2026-05-02T12:08:42.129Z</time></trkpt><trkpt lat="46.1781013" lon="13.4497884"><ele>584.0</ele><time>2026-05-02T12:08:43.138Z</time></trkpt><trkpt lat="46.1780725" lon="13.4497026"><ele>588.1666666666666</ele><time>2026-05-02T12:08:44.138Z</time></trkpt><trkpt lat="46.178064" lon="13.4496053"><ele>592.3333333333333</ele><time>2026-05-02T12:08:45.137Z</time></trkpt><trkpt lat="46.1780739" lon="13.4495117"><ele>596.5</ele><time>2026-05-02T12:08:46.13Z</time></trkpt><trkpt lat="46.1780923" lon="13.4494209"><ele>600.6666666666666</ele><time>2026-05-02T12:08:47.134Z</time></trkpt><trkpt lat="46.1781269" lon="13.4492479"><ele>604.8333333333334</ele><time>2026-05-02T12:08:49.131Z</time></trkpt><trkpt lat="46.1781461" lon="13.4491556"><ele>609.0</ele><time>2026-05-02T12:08:50.133Z</time></trkpt><trkpt lat="46.1781589" lon="13.4490535"><ele>609.0</ele><time>2026-05-02T12:08:51.134Z</time></trkpt><trkpt lat="46.1781699" lon="13.4489483"><ele>609.0</ele><time>2026-05-02T12:08:52.143Z</time></trkpt><trkpt lat="46.1781724" lon="13.4488452"><ele>609.0</ele><time>2026-05-02T12:08:53.147Z</time></trkpt><trkpt lat="46.1781494" lon="13.4486812"><ele>609.0</ele><time>2026-05-02T12:08:55.139Z</time></trkpt><trkpt lat="46.1780974" lon="13.4485769"><ele>609.0</ele><time>2026-05-02T12:08:57.139Z</time></trkpt><trkpt lat="46.1780289" lon="13.4485866"><ele>609.0</ele><time>2026-05-02T12:09:00.12Z</time></trkpt><trkpt lat="46.1779853" lon="13.4486711"><ele>609.0</ele><time>2026-05-02T12:09:02.13Z</time></trkpt><trkpt lat="46.1779754" lon="13.4487739"><ele>609.0</ele><time>2026-05-02T12:09:03.132Z</time></trkpt><trkpt lat="46.177954" lon="13.4488694"><ele>609.0</ele><time>2026-05-02T12:09:04.124Z</time></trkpt><trkpt lat="46.1779264" lon="13.4489667"><ele>609.0</ele><time>2026-05-02T12:09:05.143Z</time></trkpt><trkpt lat="46.1778939" lon="13.4490613"><ele>609.0</ele><time>2026-05-02T12:09:06.135Z</time></trkpt><trkpt lat="46.1778556" lon="13.4491438"><ele>609.0</ele><time>2026-05-02T12:09:07.134Z</time></trkpt><trkpt lat="46.1777717" lon="13.4492661"><ele>609.0</ele><time>2026-05-02T12:09:09.134Z</time></trkpt><trkpt lat="46.1776797" lon="13.4493733"><ele>609.0</ele><time>2026-05-02T12:09:11.135Z</time></trkpt><trkpt lat="46.1776262" lon="13.4494328"><ele>609.0</ele><time>2026-05-02T12:09:12.14Z</time></trkpt><trkpt lat="46.1775298" lon="13.4495365"><ele>609.0</ele><time>2026-05-02T12:09:14.134Z</time></trkpt><trkpt lat="46.1774107" lon="13.4495883"><ele>609.0</ele><time>2026-05-02T12:09:16.141Z</time></trkpt><trkpt lat="46.1773461" lon="13.4496197"><ele>612.2</ele><time>2026-05-02T12:09:17.136Z</time></trkpt><trkpt lat="46.1772448" lon="13.4496533"><ele>615.4</ele><time>2026-05-02T12:09:19.143Z</time></trkpt><trkpt lat="46.1771496" lon="13.4497002"><ele>618.6</ele><time>2026-05-02T12:09:21.133Z</time></trkpt><trkpt lat="46.1771052" lon="13.4497796"><ele>621.8</ele><time>2026-05-02T12:09:23.132Z</time></trkpt><trkpt lat="46.1771097" lon="13.4498969"><ele>625.0</ele><time>2026-05-02T12:09:25.133Z</time></trkpt><trkpt lat="46.1771228" lon="13.4500459"><ele>625.0</ele><time>2026-05-02T12:09:27.123Z</time></trkpt><trkpt lat="46.1771137" lon="13.450227"><ele>625.0</ele><time>2026-05-02T12:09:29.122Z</time></trkpt><trkpt lat="46.1770863" lon="13.4503891"><ele>625.0</ele><time>2026-05-02T12:09:31.132Z</time></trkpt><trkpt lat="46.1770649" lon="13.4504807"><ele>625.0</ele><time>2026-05-02T12:09:32.137Z</time></trkpt><trkpt lat="46.1770397" lon="13.4505793"><ele>625.0</ele><time>2026-05-02T12:09:33.126Z</time></trkpt><trkpt lat="46.1770052" lon="13.4506827"><ele>622.5</ele><time>2026-05-02T12:09:34.13Z</time></trkpt><trkpt lat="46.1769592" lon="13.4507854"><ele>620.0</ele><time>2026-05-02T12:09:35.137Z</time></trkpt><trkpt lat="46.1769114" lon="13.4508855"><ele>617.5</ele><time>2026-05-02T12:09:36.137Z</time></trkpt><trkpt lat="46.1768691" lon="13.4509797"><ele>615.0</ele><time>2026-05-02T12:09:37.132Z</time></trkpt><trkpt lat="46.1768253" lon="13.4510644"><ele>612.5</ele><time>2026-05-02T12:09:38.15Z</time></trkpt><trkpt lat="46.1767855" lon="13.4511591"><ele>610.0</ele><time>2026-05-02T12:09:39.135Z</time></trkpt><trkpt lat="46.1767488" lon="13.451254"><ele>608.5</ele><time>2026-05-02T12:09:40.13Z</time></trkpt><trkpt lat="46.1767213" lon="13.4513533"><ele>607.0</ele><time>2026-05-02T12:09:41.144Z</time></trkpt><trkpt lat="46.1767025" lon="13.451449"><ele>605.5</ele><time>2026-05-02T12:09:42.132Z</time></trkpt><trkpt lat="46.1766795" lon="13.4515368"><ele>604.0</ele><time>2026-05-02T12:09:43.136Z</time></trkpt><trkpt lat="46.1766447" lon="13.4516852"><ele>602.5</ele><time>2026-05-02T12:09:45.138Z</time></trkpt><trkpt lat="46.176583" lon="13.4518065"><ele>601.0</ele><time>2026-05-02T12:09:47.128Z</time></trkpt><trkpt lat="46.1765019" lon="13.4518932"><ele>601.0</ele><time>2026-05-02T12:09:49.139Z</time></trkpt><trkpt lat="46.1764206" lon="13.4519644"><ele>601.0</ele><time>2026-05-02T12:09:51.132Z</time></trkpt><trkpt lat="46.1763284" lon="13.452025"><ele>601.0</ele><time>2026-05-02T12:09:53.135Z</time></trkpt><trkpt lat="46.1762228" lon="13.4520814"><ele>601.0</ele><time>2026-05-02T12:09:55.138Z</time></trkpt><trkpt lat="46.1761218" lon="13.4521397"><ele>601.0</ele><time>2026-05-02T12:09:57.146Z</time></trkpt><trkpt lat="46.1760296" lon="13.4521805"><ele>602.2</ele><time>2026-05-02T12:09:59.131Z</time></trkpt><trkpt lat="46.1759572" lon="13.452198"><ele>603.4000000000001</ele><time>2026-05-02T12:10:01.135Z</time></trkpt><trkpt lat="46.1758815" lon="13.4521937"><ele>604.6</ele><time>2026-05-02T12:10:03.123Z</time></trkpt><trkpt lat="46.1757768" lon="13.4521581"><ele>605.8000000000001</ele><time>2026-05-02T12:10:05.13Z</time></trkpt><trkpt lat="46.1756758" lon="13.452104"><ele>607.0</ele><time>2026-05-02T12:10:07.133Z</time></trkpt><trkpt lat="46.1755577" lon="13.45207"><ele>607.0</ele><time>2026-05-02T12:10:09.13Z</time></trkpt><trkpt lat="46.1754542" lon="13.4520103"><ele>607.0</ele><time>2026-05-02T12:10:11.122Z</time></trkpt><trkpt lat="46.1753309" lon="13.4519675"><ele>607.0</ele><time>2026-05-02T12:10:13.13Z</time></trkpt><trkpt lat="46.1752123" lon="13.4519478"><ele>607.0</ele><time>2026-05-02T12:10:15.119Z</time></trkpt><trkpt lat="46.175126" lon="13.4519756"><ele>607.0</ele><time>2026-05-02T12:10:17.133Z</time></trkpt><trkpt lat="46.1750787" lon="13.4520733"><ele>607.4</ele><time>2026-05-02T12:10:19.134Z</time></trkpt><trkpt lat="46.1750775" lon="13.4521879"><ele>607.8000000000001</ele><time>2026-05-02T12:10:21.12Z</time></trkpt><trkpt lat="46.1750967" lon="13.4523463"><ele>608.2</ele><time>2026-05-02T12:10:23.122Z</time></trkpt><trkpt lat="46.1751327" lon="13.4525046"><ele>608.6</ele><time>2026-05-02T12:10:25.12Z</time></trkpt><trkpt lat="46.1751892" lon="13.4526824"><ele>609.0</ele><time>2026-05-02T12:10:27.126Z</time></trkpt><trkpt lat="46.1752286" lon="13.4528092"><ele>609.0</ele><time>2026-05-02T12:10:28.127Z</time></trkpt><trkpt lat="46.1752565" lon="13.4529167"><ele>609.0</ele><time>2026-05-02T12:10:29.126Z</time></trkpt><trkpt lat="46.1752769" lon="13.4530088"><ele>609.0</ele><time>2026-05-02T12:10:30.128Z</time></trkpt><trkpt lat="46.1753116" lon="13.4531007"><ele>609.0</ele><time>2026-05-02T12:10:31.122Z</time></trkpt><trkpt lat="46.1753556" lon="13.4532049"><ele>609.0</ele><time>2026-05-02T12:10:32.142Z</time></trkpt><trkpt lat="46.1753988" lon="13.4533147"><ele>609.0</ele><time>2026-05-02T12:10:33.122Z</time></trkpt><trkpt lat="46.175434" lon="13.4534173"><ele>608.1666666666666</ele><time>2026-05-02T12:10:34.126Z</time></trkpt><trkpt lat="46.1754605" lon="13.4535246"><ele>607.3333333333334</ele><time>2026-05-02T12:10:35.116Z</time></trkpt><trkpt lat="46.1754868" lon="13.4536388"><ele>606.5</ele><time>2026-05-02T12:10:36.124Z</time></trkpt><trkpt lat="46.175521" lon="13.4537472"><ele>605.6666666666667</ele><time>2026-05-02T12:10:37.125Z</time></trkpt><trkpt lat="46.1755586" lon="13.4538487"><ele>604.8333333333334</ele><time>2026-05-02T12:10:38.128Z</time></trkpt><trkpt lat="46.1755773" lon="13.4539604"><ele>604.0</ele><time>2026-05-02T12:10:39.119Z</time></trkpt><trkpt lat="46.1755965" lon="13.4540792"><ele>604.0</ele><time>2026-05-02T12:10:40.12Z</time></trkpt><trkpt lat="46.1756304" lon="13.4542127"><ele>604.0</ele><time>2026-05-02T12:10:41.121Z</time></trkpt><trkpt lat="46.1756721" lon="13.4543213"><ele>604.0</ele><time>2026-05-02T12:10:42.124Z</time></trkpt><trkpt lat="46.1757103" lon="13.4544144"><ele>604.0</ele><time>2026-05-02T12:10:43.133Z</time></trkpt><trkpt lat="46.1757389" lon="13.4545002"><ele>604.0</ele><time>2026-05-02T12:10:44.131Z</time></trkpt><trkpt lat="46.1757652" lon="13.4545913"><ele>604.0</ele><time>2026-05-02T12:10:45.137Z</time></trkpt><trkpt lat="46.1757569" lon="13.4547646"><ele>601.8333333333334</ele><time>2026-05-02T12:10:47.131Z</time></trkpt><trkpt lat="46.1757159" lon="13.4548345"><ele>599.6666666666667</ele><time>2026-05-02T12:10:48.129Z</time></trkpt><trkpt lat="46.1756632" lon="13.4549017"><ele>597.5</ele><time>2026-05-02T12:10:49.135Z</time></trkpt><trkpt lat="46.1755624" lon="13.4549758"><ele>595.3333333333334</ele><time>2026-05-02T12:10:51.143Z</time></trkpt><trkpt lat="46.1754841" lon="13.455006"><ele>593.1666666666666</ele><time>2026-05-02T12:10:52.132Z</time></trkpt><trkpt lat="46.1753973" lon="13.4550211"><ele>591.0</ele><time>2026-05-02T12:10:53.141Z</time></trkpt><trkpt lat="46.17531" lon="13.4550376"><ele>591.0</ele><time>2026-05-02T12:10:54.142Z</time></trkpt><trkpt lat="46.1752353" lon="13.4550531"><ele>591.0</ele><time>2026-05-02T12:10:55.136Z</time></trkpt><trkpt lat="46.1751707" lon="13.4550838"><ele>591.0</ele><time>2026-05-02T12:10:56.145Z</time></trkpt><trkpt lat="46.1751119" lon="13.45512"><ele>591.0</ele><time>2026-05-02T12:10:57.13Z</time></trkpt><trkpt lat="46.1750455" lon="13.4551502"><ele>591.0</ele><time>2026-05-02T12:10:58.141Z</time></trkpt><trkpt lat="46.1749686" lon="13.4551735"><ele>591.0</ele><time>2026-05-02T12:10:59.143Z</time></trkpt><trkpt lat="46.1748969" lon="13.4551814"><ele>591.0</ele><time>2026-05-02T12:11:00.128Z</time></trkpt><trkpt lat="46.1748282" lon="13.455175"><ele>598.25</ele><time>2026-05-02T12:11:01.143Z</time></trkpt><trkpt lat="46.1747144" lon="13.4550859"><ele>605.5</ele><time>2026-05-02T12:11:03.129Z</time></trkpt><trkpt lat="46.1746159" lon="13.455026"><ele>612.75</ele><time>2026-05-02T12:11:05.128Z</time></trkpt><trkpt lat="46.1745121" lon="13.455022"><ele>620.0</ele><time>2026-05-02T12:11:07.132Z</time></trkpt><trkpt lat="46.1743973" lon="13.4551123"><ele>620.0</ele><time>2026-05-02T12:11:09.125Z</time></trkpt><trkpt lat="46.1743467" lon="13.455168"><ele>620.0</ele><time>2026-05-02T12:11:10.13Z</time></trkpt><trkpt lat="46.1742883" lon="13.4552203"><ele>620.0</ele><time>2026-05-02T12:11:11.128Z</time></trkpt><trkpt lat="46.1742169" lon="13.4553251"><ele>620.0</ele><time>2026-05-02T12:11:13.138Z</time></trkpt><trkpt lat="46.1742294" lon="13.4555014"><ele>620.0</ele><time>2026-05-02T12:11:15.135Z</time></trkpt><trkpt lat="46.1742373" lon="13.45562"><ele>620.0</ele><time>2026-05-02T12:11:16.124Z</time></trkpt><trkpt lat="46.1742327" lon="13.4557464"><ele>619.1666666666666</ele><time>2026-05-02T12:11:17.124Z</time></trkpt><trkpt lat="46.1742283" lon="13.4558748"><ele>618.3333333333333</ele><time>2026-05-02T12:11:18.124Z</time></trkpt><trkpt lat="46.1742342" lon="13.4559789"><ele>617.5</ele><time>2026-05-02T12:11:19.13Z</time></trkpt><trkpt lat="46.1742702" lon="13.4560854"><ele>616.6666666666666</ele><time>2026-05-02T12:11:20.12Z</time></trkpt><trkpt lat="46.1743105" lon="13.4561944"><ele>615.8333333333334</ele><time>2026-05-02T12:11:21.134Z</time></trkpt><trkpt lat="46.1743535" lon="13.4562983"><ele>615.0</ele><time>2026-05-02T12:11:22.129Z</time></trkpt><trkpt lat="46.1743985" lon="13.4564129"><ele>617.0</ele><time>2026-05-02T12:11:23.134Z</time></trkpt><trkpt lat="46.1744494" lon="13.4565415"><ele>619.0</ele><time>2026-05-02T12:11:24.131Z</time></trkpt><trkpt lat="46.1745022" lon="13.4566702"><ele>621.0</ele><time>2026-05-02T12:11:25.127Z</time></trkpt><trkpt lat="46.1745488" lon="13.4568062"><ele>623.0</ele><time>2026-05-02T12:11:26.13Z</time></trkpt><trkpt lat="46.1745996" lon="13.4569395"><ele>625.0</ele><time>2026-05-02T12:11:27.134Z</time></trkpt><trkpt lat="46.1746384" lon="13.457062"><ele>628.2</ele><time>2026-05-02T12:11:28.13Z</time></trkpt><trkpt lat="46.1746745" lon="13.4571887"><ele>631.4</ele><time>2026-05-02T12:11:29.138Z</time></trkpt><trkpt lat="46.1746973" lon="13.4573228"><ele>634.5999999999999</ele><time>2026-05-02T12:11:30.136Z</time></trkpt><trkpt lat="46.1747212" lon="13.4574454"><ele>637.8</ele><time>2026-05-02T12:11:31.126Z</time></trkpt><trkpt lat="46.1747418" lon="13.4575727"><ele>641.0</ele><time>2026-05-02T12:11:32.135Z</time></trkpt><trkpt lat="46.1747603" lon="13.4576987"><ele>641.0</ele><time>2026-05-02T12:11:33.138Z</time></trkpt><trkpt lat="46.1747836" lon="13.4578308"><ele>641.0</ele><time>2026-05-02T12:11:34.122Z</time></trkpt><trkpt lat="46.1748063" lon="13.4579632"><ele>641.0</ele><time>2026-05-02T12:11:35.125Z</time></trkpt><trkpt lat="46.1748298" lon="13.4580987"><ele>641.0</ele><time>2026-05-02T12:11:36.129Z</time></trkpt><trkpt lat="46.1748461" lon="13.4582354"><ele>641.0</ele><time>2026-05-02T12:11:37.132Z</time></trkpt><trkpt lat="46.1748599" lon="13.458371"><ele>638.4</ele><time>2026-05-02T12:11:38.137Z</time></trkpt><trkpt lat="46.174864" lon="13.4585148"><ele>635.8</ele><time>2026-05-02T12:11:39.136Z</time></trkpt><trkpt lat="46.1748673" lon="13.4586617"><ele>633.1999999999999</ele><time>2026-05-02T12:11:40.136Z</time></trkpt><trkpt lat="46.1748672" lon="13.4588093"><ele>630.5999999999999</ele><time>2026-05-02T12:11:41.128Z</time></trkpt><trkpt lat="46.1748653" lon="13.4589539"><ele>628.0</ele><time>2026-05-02T12:11:42.129Z</time></trkpt><trkpt lat="46.1748527" lon="13.4590991"><ele>628.0</ele><time>2026-05-02T12:11:43.131Z</time></trkpt><trkpt lat="46.1748496" lon="13.4592426"><ele>628.0</ele><time>2026-05-02T12:11:44.132Z</time></trkpt><trkpt lat="46.174839" lon="13.4593808"><ele>628.0</ele><time>2026-05-02T12:11:45.141Z</time></trkpt><trkpt lat="46.1748353" lon="13.4595133"><ele>628.0</ele><time>2026-05-02T12:11:46.135Z</time></trkpt><trkpt lat="46.1748292" lon="13.4596384"><ele>628.0</ele><time>2026-05-02T12:11:47.142Z</time></trkpt><trkpt lat="46.1748327" lon="13.4597605"><ele>625.8333333333334</ele><time>2026-05-02T12:11:48.154Z</time></trkpt><trkpt lat="46.1748445" lon="13.4598794"><ele>623.6666666666667</ele><time>2026-05-02T12:11:49.139Z</time></trkpt><trkpt lat="46.1748582" lon="13.4599998"><ele>621.5</ele><time>2026-05-02T12:11:50.14Z</time></trkpt><trkpt lat="46.1748722" lon="13.4601204"><ele>619.3333333333334</ele><time>2026-05-02T12:11:51.141Z</time></trkpt><trkpt lat="46.1748927" lon="13.4602358"><ele>617.1666666666666</ele><time>2026-05-02T12:11:52.143Z</time></trkpt><trkpt lat="46.1749135" lon="13.46034"><ele>615.0</ele><time>2026-05-02T12:11:53.137Z</time></trkpt><trkpt lat="46.1749155" lon="13.4604877"><ele>612.6</ele><time>2026-05-02T12:11:55.147Z</time></trkpt><trkpt lat="46.174863" lon="13.4605989"><ele>610.2</ele><time>2026-05-02T12:11:57.142Z</time></trkpt><trkpt lat="46.1747609" lon="13.4606502"><ele>607.8</ele><time>2026-05-02T12:11:59.137Z</time></trkpt><trkpt lat="46.174655" lon="13.4606182"><ele>605.4</ele><time>2026-05-02T12:12:01.14Z</time></trkpt><trkpt lat="46.1745802" lon="13.4605917"><ele>603.0</ele><time>2026-05-02T12:12:02.133Z</time></trkpt><trkpt lat="46.1745036" lon="13.4605807"><ele>602.4285714285714</ele><time>2026-05-02T12:12:03.154Z</time></trkpt><trkpt lat="46.1744324" lon="13.460613"><ele>601.8571428571428</ele><time>2026-05-02T12:12:04.145Z</time></trkpt><trkpt lat="46.17436" lon="13.4606535"><ele>601.2857142857142</ele><time>2026-05-02T12:12:05.13Z</time></trkpt><trkpt lat="46.174289" lon="13.4606978"><ele>600.7142857142858</ele><time>2026-05-02T12:12:06.145Z</time></trkpt><trkpt lat="46.1742232" lon="13.4607383"><ele>600.1428571428571</ele><time>2026-05-02T12:12:07.143Z</time></trkpt><trkpt lat="46.1741538" lon="13.4607683"><ele>599.5714285714286</ele><time>2026-05-02T12:12:08.141Z</time></trkpt><trkpt lat="46.1740883" lon="13.4607836"><ele>599.0</ele><time>2026-05-02T12:12:09.139Z</time></trkpt><trkpt lat="46.1740183" lon="13.46077"><ele>598.1428571428571</ele><time>2026-05-02T12:12:10.141Z</time></trkpt><trkpt lat="46.1739466" lon="13.4607415"><ele>597.2857142857142</ele><time>2026-05-02T12:12:11.137Z</time></trkpt><trkpt lat="46.1738768" lon="13.4607344"><ele>596.4285714285713</ele><time>2026-05-02T12:12:12.137Z</time></trkpt><trkpt lat="46.1738131" lon="13.4607724"><ele>595.5714285714286</ele><time>2026-05-02T12:12:13.146Z</time></trkpt><trkpt lat="46.1737593" lon="13.460827"><ele>594.7142857142857</ele><time>2026-05-02T12:12:14.155Z</time></trkpt><trkpt lat="46.1736992" lon="13.4608837"><ele>593.8571428571428</ele><time>2026-05-02T12:12:15.134Z</time></trkpt><trkpt lat="46.173642" lon="13.4609447"><ele>593.0</ele><time>2026-05-02T12:12:16.142Z</time></trkpt><trkpt lat="46.1735482" lon="13.4610085"><ele>593.0</ele><time>2026-05-02T12:12:18.142Z</time></trkpt><trkpt lat="46.173425" lon="13.4610326"><ele>593.0</ele><time>2026-05-02T12:12:20.142Z</time></trkpt><trkpt lat="46.1733592" lon="13.4610403"><ele>593.0</ele><time>2026-05-02T12:12:21.138Z</time></trkpt><trkpt lat="46.1732903" lon="13.4610409"><ele>593.0</ele><time>2026-05-02T12:12:22.134Z</time></trkpt><trkpt lat="46.1731793" lon="13.460989"><ele>593.0</ele><time>2026-05-02T12:12:24.141Z</time></trkpt><trkpt lat="46.1730828" lon="13.4609014"><ele>593.6</ele><time>2026-05-02T12:12:26.138Z</time></trkpt><trkpt lat="46.1730276" lon="13.4608484"><ele>594.1999999999999</ele><time>2026-05-02T12:12:27.128Z</time></trkpt><trkpt lat="46.1729224" lon="13.4607539"><ele>594.8</ele><time>2026-05-02T12:12:29.142Z</time></trkpt><trkpt lat="46.1728009" lon="13.4607186"><ele>595.4</ele><time>2026-05-02T12:12:31.133Z</time></trkpt><trkpt lat="46.1726967" lon="13.4607767"><ele>596.0</ele><time>2026-05-02T12:12:33.125Z</time></trkpt><trkpt lat="46.1726266" lon="13.4609053"><ele>596.0</ele><time>2026-05-02T12:12:35.126Z</time></trkpt><trkpt lat="46.1725536" lon="13.4610488"><ele>596.0</ele><time>2026-05-02T12:12:37.135Z</time></trkpt><trkpt lat="46.1725082" lon="13.4611223"><ele>596.0</ele><time>2026-05-02T12:12:38.127Z</time></trkpt><trkpt lat="46.172462" lon="13.461195"><ele>596.0</ele><time>2026-05-02T12:12:39.13Z</time></trkpt><trkpt lat="46.1724216" lon="13.4612704"><ele>596.0</ele><time>2026-05-02T12:12:40.13Z</time></trkpt><trkpt lat="46.1723778" lon="13.4613453"><ele>596.0</ele><time>2026-05-02T12:12:41.128Z</time></trkpt><trkpt lat="46.1723361" lon="13.4614336"><ele>596.6666666666666</ele><time>2026-05-02T12:12:42.141Z</time></trkpt><trkpt lat="46.1722929" lon="13.4615323"><ele>597.3333333333333</ele><time>2026-05-02T12:12:43.143Z</time></trkpt><trkpt lat="46.1722505" lon="13.4616206"><ele>598.0</ele><time>2026-05-02T12:12:44.129Z</time></trkpt><trkpt lat="46.1722077" lon="13.4617188"><ele>598.6666666666666</ele><time>2026-05-02T12:12:45.126Z</time></trkpt><trkpt lat="46.1721632" lon="13.4618095"><ele>599.3333333333334</ele><time>2026-05-02T12:12:46.134Z</time></trkpt><trkpt lat="46.1721191" lon="13.4618977"><ele>600.0</ele><time>2026-05-02T12:12:47.139Z</time></trkpt><trkpt lat="46.1720753" lon="13.4619943"><ele>600.0</ele><time>2026-05-02T12:12:48.13Z</time></trkpt><trkpt lat="46.1720186" lon="13.4620868"><ele>600.0</ele><time>2026-05-02T12:12:49.133Z</time></trkpt><trkpt lat="46.1719669" lon="13.4621602"><ele>600.0</ele><time>2026-05-02T12:12:50.139Z</time></trkpt><trkpt lat="46.1719033" lon="13.4622318"><ele>600.0</ele><time>2026-05-02T12:12:51.131Z</time></trkpt><trkpt lat="46.1718383" lon="13.462293"><ele>600.0</ele><time>2026-05-02T12:12:52.13Z</time></trkpt><trkpt lat="46.1717682" lon="13.4623588"><ele>600.0</ele><time>2026-05-02T12:12:53.135Z</time></trkpt><trkpt lat="46.1716975" lon="13.4624213"><ele>601.3333333333334</ele><time>2026-05-02T12:12:54.133Z</time></trkpt><trkpt lat="46.1716293" lon="13.4624919"><ele>602.6666666666666</ele><time>2026-05-02T12:12:55.135Z</time></trkpt><trkpt lat="46.1715656" lon="13.4625591"><ele>604.0</ele><time>2026-05-02T12:12:56.13Z</time></trkpt><trkpt lat="46.171494" lon="13.4626251"><ele>605.3333333333333</ele><time>2026-05-02T12:12:57.132Z</time></trkpt><trkpt lat="46.1714179" lon="13.4626969"><ele>606.6666666666666</ele><time>2026-05-02T12:12:58.132Z</time></trkpt><trkpt lat="46.171333" lon="13.4627711"><ele>608.0</ele><time>2026-05-02T12:12:59.14Z</time></trkpt><trkpt lat="46.1712423" lon="13.4628485"><ele>608.0</ele><time>2026-05-02T12:13:00.143Z</time></trkpt><trkpt lat="46.1711515" lon="13.462931"><ele>608.0</ele><time>2026-05-02T12:13:01.137Z</time></trkpt><trkpt lat="46.1710566" lon="13.4630166"><ele>608.0</ele><time>2026-05-02T12:13:02.129Z</time></trkpt><trkpt lat="46.170962" lon="13.4631062"><ele>608.0</ele><time>2026-05-02T12:13:03.143Z</time></trkpt><trkpt lat="46.1708766" lon="13.4631959"><ele>608.0</ele><time>2026-05-02T12:13:04.131Z</time></trkpt><trkpt lat="46.1707997" lon="13.4632895"><ele>606.6</ele><time>2026-05-02T12:13:05.133Z</time></trkpt><trkpt lat="46.1707266" lon="13.4633783"><ele>605.1999999999999</ele><time>2026-05-02T12:13:06.135Z</time></trkpt><trkpt lat="46.1706691" lon="13.4634864"><ele>603.8</ele><time>2026-05-02T12:13:07.13Z</time></trkpt><trkpt lat="46.1706194" lon="13.4635911"><ele>602.4</ele><time>2026-05-02T12:13:08.132Z</time></trkpt><trkpt lat="46.1705733" lon="13.4637075"><ele>601.0</ele><time>2026-05-02T12:13:09.134Z</time></trkpt><trkpt lat="46.1705221" lon="13.4638325"><ele>601.0</ele><time>2026-05-02T12:13:10.133Z</time></trkpt><trkpt lat="46.1704669" lon="13.4639807"><ele>601.0</ele><time>2026-05-02T12:13:11.135Z</time></trkpt><trkpt lat="46.1703983" lon="13.4641397"><ele>601.0</ele><time>2026-05-02T12:13:12.13Z</time></trkpt><trkpt lat="46.170317" lon="13.4642964"><ele>601.0</ele><time>2026-05-02T12:13:13.134Z</time></trkpt><trkpt lat="46.1702257" lon="13.4644424"><ele>601.0</ele><time>2026-05-02T12:13:14.13Z</time></trkpt><trkpt lat="46.1701321" lon="13.4645832"><ele>601.0</ele><time>2026-05-02T12:13:15.143Z</time></trkpt><trkpt lat="46.1700233" lon="13.4647055"><ele>601.0</ele><time>2026-05-02T12:13:16.133Z</time></trkpt><trkpt lat="46.1699068" lon="13.4648275"><ele>601.0</ele><time>2026-05-02T12:13:17.132Z</time></trkpt><trkpt lat="46.1698189" lon="13.4649706"><ele>597.5</ele><time>2026-05-02T12:13:18.124Z</time></trkpt><trkpt lat="46.1697663" lon="13.465126"><ele>594.0</ele><time>2026-05-02T12:13:19.132Z</time></trkpt><trkpt lat="46.1697361" lon="13.465306"><ele>590.5</ele><time>2026-05-02T12:13:20.122Z</time></trkpt><trkpt lat="46.1697153" lon="13.4654746"><ele>587.0</ele><time>2026-05-02T12:13:21.125Z</time></trkpt><trkpt lat="46.1696795" lon="13.4656097"><ele>584.0</ele><time>2026-05-02T12:13:22.129Z</time></trkpt><trkpt lat="46.1696311" lon="13.4656948"><ele>581.0</ele><time>2026-05-02T12:13:23.134Z</time></trkpt><trkpt lat="46.169574" lon="13.4657478"><ele>578.0</ele><time>2026-05-02T12:13:24.132Z</time></trkpt><trkpt lat="46.1695021" lon="13.4657851"><ele>575.0</ele><time>2026-05-02T12:13:25.13Z</time></trkpt><trkpt lat="46.1694223" lon="13.4657978"><ele>572.0</ele><time>2026-05-02T12:13:26.13Z</time></trkpt><trkpt lat="46.1693195" lon="13.4658022"><ele>569.0</ele><time>2026-05-02T12:13:27.138Z</time></trkpt><trkpt lat="46.1691933" lon="13.4658034"><ele>569.0</ele><time>2026-05-02T12:13:28.131Z</time></trkpt><trkpt lat="46.169068" lon="13.4658076"><ele>569.0</ele><time>2026-05-02T12:13:29.131Z</time></trkpt><trkpt lat="46.168948" lon="13.4658123"><ele>569.0</ele><time>2026-05-02T12:13:30.14Z</time></trkpt><trkpt lat="46.1688301" lon="13.4658089"><ele>569.0</ele><time>2026-05-02T12:13:31.131Z</time></trkpt><trkpt lat="46.1687234" lon="13.4658084"><ele>567.3333333333333</ele><time>2026-05-02T12:13:32.139Z</time></trkpt><trkpt lat="46.1686302" lon="13.4657934"><ele>565.6666666666666</ele><time>2026-05-02T12:13:33.149Z</time></trkpt><trkpt lat="46.1685473" lon="13.465769"><ele>564.0</ele><time>2026-05-02T12:13:34.138Z</time></trkpt><trkpt lat="46.1684768" lon="13.4657385"><ele>562.3333333333334</ele><time>2026-05-02T12:13:35.152Z</time></trkpt><trkpt lat="46.1684197" lon="13.4656965"><ele>560.6666666666667</ele><time>2026-05-02T12:13:36.146Z</time></trkpt><trkpt lat="46.1683658" lon="13.4656388"><ele>559.0</ele><time>2026-05-02T12:13:37.15Z</time></trkpt><trkpt lat="46.1683065" lon="13.4655689"><ele>559.0</ele><time>2026-05-02T12:13:38.148Z</time></trkpt><trkpt lat="46.1682523" lon="13.4654818"><ele>559.0</ele><time>2026-05-02T12:13:39.141Z</time></trkpt><trkpt lat="46.1682052" lon="13.4653813"><ele>559.0</ele><time>2026-05-02T12:13:40.142Z</time></trkpt><trkpt lat="46.1681579" lon="13.4652774"><ele>559.0</ele><time>2026-05-02T12:13:41.142Z</time></trkpt><trkpt lat="46.1681113" lon="13.4651588"><ele>559.0</ele><time>2026-05-02T12:13:42.155Z</time></trkpt><trkpt lat="46.1680685" lon="13.465042"><ele>559.0</ele><time>2026-05-02T12:13:43.147Z</time></trkpt><trkpt lat="46.1680319" lon="13.4649253"><ele>557.3333333333334</ele><time>2026-05-02T12:13:44.147Z</time></trkpt><trkpt lat="46.1680032" lon="13.4647986"><ele>555.6666666666667</ele><time>2026-05-02T12:13:45.142Z</time></trkpt><trkpt lat="46.1679775" lon="13.4646781"><ele>554.0</ele><time>2026-05-02T12:13:46.138Z</time></trkpt><trkpt lat="46.1679494" lon="13.4645603"><ele>552.3333333333334</ele><time>2026-05-02T12:13:47.138Z</time></trkpt><trkpt lat="46.1679229" lon="13.4644494"><ele>550.6666666666666</ele><time>2026-05-02T12:13:48.136Z</time></trkpt><trkpt lat="46.1679066" lon="13.4643415"><ele>549.0</ele><time>2026-05-02T12:13:49.155Z</time></trkpt><trkpt lat="46.1678994" lon="13.4642377"><ele>549.0</ele><time>2026-05-02T12:13:50.147Z</time></trkpt><trkpt lat="46.1679051" lon="13.4641227"><ele>549.0</ele><time>2026-05-02T12:13:51.145Z</time></trkpt><trkpt lat="46.1679183" lon="13.4640144"><ele>549.0</ele><time>2026-05-02T12:13:52.143Z</time></trkpt><trkpt lat="46.1679407" lon="13.4638931"><ele>549.0</ele><time>2026-05-02T12:13:53.141Z</time></trkpt><trkpt lat="46.1679603" lon="13.4637833"><ele>549.0</ele><time>2026-05-02T12:13:54.134Z</time></trkpt><trkpt lat="46.1679616" lon="13.4636745"><ele>549.0</ele><time>2026-05-02T12:13:55.144Z</time></trkpt><trkpt lat="46.1679472" lon="13.4635647"><ele>551.0</ele><time>2026-05-02T12:13:56.149Z</time></trkpt><trkpt lat="46.1679205" lon="13.4634605"><ele>553.0</ele><time>2026-05-02T12:13:57.137Z</time></trkpt><trkpt lat="46.1678955" lon="13.4633547"><ele>555.0</ele><time>2026-05-02T12:13:58.142Z</time></trkpt><trkpt lat="46.1678769" lon="13.4632431"><ele>557.0</ele><time>2026-05-02T12:13:59.141Z</time></trkpt><trkpt lat="46.1678555" lon="13.4631202"><ele>559.0</ele><time>2026-05-02T12:14:00.143Z</time></trkpt><trkpt lat="46.1678428" lon="13.4629948"><ele>561.0</ele><time>2026-05-02T12:14:01.136Z</time></trkpt><trkpt lat="46.1678403" lon="13.4628707"><ele>563.0</ele><time>2026-05-02T12:14:02.146Z</time></trkpt><trkpt lat="46.1678306" lon="13.4627654"><ele>565.0</ele><time>2026-05-02T12:14:03.139Z</time></trkpt><trkpt lat="46.1677935" lon="13.4626416"><ele>567.0</ele><time>2026-05-02T12:14:05.136Z</time></trkpt><trkpt lat="46.1677384" lon="13.4625736"><ele>569.0</ele><time>2026-05-02T12:14:08.135Z</time></trkpt><trkpt lat="46.1676432" lon="13.4625573"><ele>571.0</ele><time>2026-05-02T12:14:35.147Z</time></trkpt><trkpt lat="46.1675705" lon="13.4625826"><ele>573.0</ele><time>2026-05-02T12:14:36.131Z</time></trkpt><trkpt lat="46.1674984" lon="13.462603"><ele>573.0</ele><time>2026-05-02T12:14:37.142Z</time></trkpt><trkpt lat="46.1674336" lon="13.4626243"><ele>573.0</ele><time>2026-05-02T12:14:38.138Z</time></trkpt><trkpt lat="46.1673566" lon="13.4626219"><ele>573.0</ele><time>2026-05-02T12:14:40.144Z</time></trkpt><trkpt lat="46.1674598" lon="13.4625792"><ele>573.0</ele><time>2026-05-02T12:14:43.132Z</time></trkpt><trkpt lat="46.1675682" lon="13.4625832"><ele>573.0</ele><time>2026-05-02T12:14:44.133Z</time></trkpt><trkpt lat="46.1676801" lon="13.4625578"><ele>573.0</ele><time>2026-05-02T12:14:45.13Z</time></trkpt><trkpt lat="46.1677486" lon="13.4625516"><ele>573.0</ele><time>2026-05-02T12:14:46.14Z</time></trkpt><trkpt lat="46.167878" lon="13.4626312"><ele>573.0</ele><time>2026-05-02T12:14:48.139Z</time></trkpt><trkpt lat="46.1679215" lon="13.4627117"><ele>573.0</ele><time>2026-05-02T12:14:49.147Z</time></trkpt><trkpt lat="46.1679645" lon="13.4628056"><ele>573.0</ele><time>2026-05-02T12:14:50.127Z</time></trkpt><trkpt lat="46.1680035" lon="13.4629"><ele>573.0</ele><time>2026-05-02T12:14:51.124Z</time></trkpt><trkpt lat="46.1680465" lon="13.4629948"><ele>571.0</ele><time>2026-05-02T12:14:52.141Z</time></trkpt><trkpt lat="46.1680999" lon="13.4630965"><ele>569.0</ele><time>2026-05-02T12:14:53.139Z</time></trkpt><trkpt lat="46.1681737" lon="13.4631918"><ele>567.0</ele><time>2026-05-02T12:14:54.141Z</time></trkpt><trkpt lat="46.1682479" lon="13.4632789"><ele>565.0</ele><time>2026-05-02T12:14:55.135Z</time></trkpt><trkpt lat="46.1683167" lon="13.4633525"><ele>563.0</ele><time>2026-05-02T12:14:56.146Z</time></trkpt><trkpt lat="46.1683815" lon="13.4634119"><ele>561.0</ele><time>2026-05-02T12:14:57.13Z</time></trkpt><trkpt lat="46.1684521" lon="13.4634345"><ele>565.4</ele><time>2026-05-02T12:14:58.14Z</time></trkpt><trkpt lat="46.1685606" lon="13.463503"><ele>569.8</ele><time>2026-05-02T12:15:00.132Z</time></trkpt><trkpt lat="46.1686171" lon="13.4635972"><ele>574.1999999999999</ele><time>2026-05-02T12:15:01.145Z</time></trkpt><trkpt lat="46.1686893" lon="13.4637265"><ele>578.6</ele><time>2026-05-02T12:15:02.14Z</time></trkpt><trkpt lat="46.1687714" lon="13.4638479"><ele>583.0</ele><time>2026-05-02T12:15:03.141Z</time></trkpt><trkpt lat="46.1688525" lon="13.4639366"><ele>583.0000000000001</ele><time>2026-05-02T12:15:04.145Z</time></trkpt><trkpt lat="46.1689228" lon="13.463982"><ele>583.0</ele><time>2026-05-02T12:15:05.145Z</time></trkpt><trkpt lat="46.1689965" lon="13.4640146"><ele>583.0</ele><time>2026-05-02T12:15:06.147Z</time></trkpt><trkpt lat="46.1690732" lon="13.4640422"><ele>583.0</ele><time>2026-05-02T12:15:07.15Z</time></trkpt><trkpt lat="46.1691526" lon="13.4640599"><ele>583.0</ele><time>2026-05-02T12:15:08.155Z</time></trkpt><trkpt lat="46.1692228" lon="13.464063"><ele>583.0000000000001</ele><time>2026-05-02T12:15:09.144Z</time></trkpt><trkpt lat="46.1692835" lon="13.4640372"><ele>583.0</ele><time>2026-05-02T12:15:10.132Z</time></trkpt><trkpt lat="46.1693459" lon="13.4640008"><ele>586.6666666666667</ele><time>2026-05-02T12:15:11.133Z</time></trkpt><trkpt lat="46.1694213" lon="13.4639596"><ele>590.3333333333334</ele><time>2026-05-02T12:15:12.139Z</time></trkpt><trkpt lat="46.1694988" lon="13.4639258"><ele>594.0</ele><time>2026-05-02T12:15:13.159Z</time></trkpt><trkpt lat="46.169557" lon="13.4638624"><ele>597.6666666666666</ele><time>2026-05-02T12:15:15.14Z</time></trkpt><trkpt lat="46.1694555" lon="13.4637841"><ele>601.3333333333333</ele><time>2026-05-02T12:15:18.142Z</time></trkpt><trkpt lat="46.1693591" lon="13.4637524"><ele>605.0</ele><time>2026-05-02T12:15:19.139Z</time></trkpt><trkpt lat="46.169266" lon="13.46373"><ele>607.1666666666666</ele><time>2026-05-02T12:15:20.129Z</time></trkpt><trkpt lat="46.1691975" lon="13.4636953"><ele>609.3333333333333</ele><time>2026-05-02T12:15:21.142Z</time></trkpt><trkpt lat="46.1691484" lon="13.4635415"><ele>611.5</ele><time>2026-05-02T12:15:23.136Z</time></trkpt><trkpt lat="46.1691427" lon="13.4634334"><ele>613.6666666666666</ele><time>2026-05-02T12:15:24.135Z</time></trkpt><trkpt lat="46.169136" lon="13.4633178"><ele>615.8333333333334</ele><time>2026-05-02T12:15:25.134Z</time></trkpt><trkpt lat="46.1691195" lon="13.4631998"><ele>618.0</ele><time>2026-05-02T12:15:26.143Z</time></trkpt><trkpt lat="46.1690967" lon="13.4630686"><ele>615.5</ele><time>2026-05-02T12:15:27.144Z</time></trkpt><trkpt lat="46.1690637" lon="13.4629391"><ele>613.0</ele><time>2026-05-02T12:15:28.152Z</time></trkpt><trkpt lat="46.1690307" lon="13.4628177"><ele>610.5</ele><time>2026-05-02T12:15:29.144Z</time></trkpt><trkpt lat="46.1690001" lon="13.4627153"><ele>608.0</ele><time>2026-05-02T12:15:30.15Z</time></trkpt><trkpt lat="46.1689859" lon="13.4626173"><ele>605.5</ele><time>2026-05-02T12:15:31.149Z</time></trkpt><trkpt lat="46.168992" lon="13.4625178"><ele>603.0</ele><time>2026-05-02T12:15:32.147Z</time></trkpt><trkpt lat="46.1690089" lon="13.4624137"><ele>603.0</ele><time>2026-05-02T12:15:33.143Z</time></trkpt><trkpt lat="46.1690226" lon="13.4623127"><ele>603.0</ele><time>2026-05-02T12:15:34.151Z</time></trkpt><trkpt lat="46.1690302" lon="13.4622069"><ele>603.0</ele><time>2026-05-02T12:15:35.141Z</time></trkpt><trkpt lat="46.1690209" lon="13.4621106"><ele>603.0</ele><time>2026-05-02T12:15:36.146Z</time></trkpt><trkpt lat="46.1689676" lon="13.4619625"><ele>603.0</ele><time>2026-05-02T12:15:38.133Z</time></trkpt><trkpt lat="46.168938" lon="13.4618545"><ele>603.0</ele><time>2026-05-02T12:15:40.144Z</time></trkpt><trkpt lat="46.1690238" lon="13.461848"><ele>608.3333333333334</ele><time>2026-05-02T12:15:44.135Z</time></trkpt><trkpt lat="46.1690676" lon="13.4619203"><ele>613.6666666666666</ele><time>2026-05-02T12:15:45.136Z</time></trkpt><trkpt lat="46.169125" lon="13.4620208"><ele>619.0</ele><time>2026-05-02T12:15:46.134Z</time></trkpt><trkpt lat="46.1691631" lon="13.4621366"><ele>624.3333333333333</ele><time>2026-05-02T12:15:47.131Z</time></trkpt><trkpt lat="46.1692056" lon="13.4622438"><ele>629.6666666666666</ele><time>2026-05-02T12:15:48.146Z</time></trkpt><trkpt lat="46.1692451" lon="13.4623368"><ele>635.0</ele><time>2026-05-02T12:15:49.143Z</time></trkpt><trkpt lat="46.1693055" lon="13.4624173"><ele>635.0</ele><time>2026-05-02T12:15:50.147Z</time></trkpt><trkpt lat="46.1693777" lon="13.4624937"><ele>635.0</ele><time>2026-05-02T12:15:51.137Z</time></trkpt><trkpt lat="46.1694373" lon="13.462567"><ele>635.0</ele><time>2026-05-02T12:15:52.165Z</time></trkpt><trkpt lat="46.1694875" lon="13.4626244"><ele>635.0</ele><time>2026-05-02T12:15:53.142Z</time></trkpt><trkpt lat="46.1695525" lon="13.4626653"><ele>635.0</ele><time>2026-05-02T12:15:54.144Z</time></trkpt><trkpt lat="46.1696317" lon="13.4626955"><ele>635.0</ele><time>2026-05-02T12:15:55.139Z</time></trkpt><trkpt lat="46.1697149" lon="13.4627287"><ele>635.0</ele><time>2026-05-02T12:15:56.145Z</time></trkpt><trkpt lat="46.1697837" lon="13.4627502"><ele>635.0</ele><time>2026-05-02T12:15:57.145Z</time></trkpt><trkpt lat="46.1698697" lon="13.4627057"><ele>635.0</ele><time>2026-05-02T12:15:59.138Z</time></trkpt><trkpt lat="46.1698627" lon="13.4626042"><ele>635.0</ele><time>2026-05-02T12:16:01.15Z</time></trkpt><trkpt lat="46.169775" lon="13.4624972"><ele>635.0</ele><time>2026-05-02T12:16:03.142Z</time></trkpt><trkpt lat="46.1697137" lon="13.4624223"><ele>635.0</ele><time>2026-05-02T12:16:04.138Z</time></trkpt><trkpt lat="46.1696608" lon="13.4623461"><ele>634.9999999999999</ele><time>2026-05-02T12:16:05.156Z</time></trkpt><trkpt lat="46.1696184" lon="13.4622669"><ele>635.0</ele><time>2026-05-02T12:16:06.153Z</time></trkpt><trkpt lat="46.1695905" lon="13.4621681"><ele>635.0</ele><time>2026-05-02T12:16:07.156Z</time></trkpt><trkpt lat="46.1695729" lon="13.4620617"><ele>635.0</ele><time>2026-05-02T12:16:08.149Z</time></trkpt><trkpt lat="46.1695696" lon="13.4619525"><ele>635.0</ele><time>2026-05-02T12:16:09.141Z</time></trkpt><trkpt lat="46.169558" lon="13.4618509"><ele>634.9999999999999</ele><time>2026-05-02T12:16:10.157Z</time></trkpt><trkpt lat="46.1695431" lon="13.4617615"><ele>635.0</ele><time>2026-05-02T12:16:11.151Z</time></trkpt><trkpt lat="46.1695174" lon="13.4616038"><ele>636.8333333333333</ele><time>2026-05-02T12:16:13.147Z</time></trkpt><trkpt lat="46.1695067" lon="13.4614228"><ele>638.6666666666666</ele><time>2026-05-02T12:16:15.154Z</time></trkpt><trkpt lat="46.1694973" lon="13.4613228"><ele>640.5</ele><time>2026-05-02T12:16:16.147Z</time></trkpt><trkpt lat="46.1694864" lon="13.4612108"><ele>642.3333333333334</ele><time>2026-05-02T12:16:17.143Z</time></trkpt><trkpt lat="46.169464" lon="13.4610946"><ele>644.1666666666667</ele><time>2026-05-02T12:16:18.153Z</time></trkpt><trkpt lat="46.1694409" lon="13.4609765"><ele>646.0</ele><time>2026-05-02T12:16:19.142Z</time></trkpt><trkpt lat="46.1694245" lon="13.4608629"><ele>648.0</ele><time>2026-05-02T12:16:20.147Z</time></trkpt><trkpt lat="46.1694012" lon="13.4607597"><ele>650.0</ele><time>2026-05-02T12:16:21.151Z</time></trkpt><trkpt lat="46.1693768" lon="13.4606514"><ele>652.0</ele><time>2026-05-02T12:16:22.146Z</time></trkpt><trkpt lat="46.1693607" lon="13.4605462"><ele>654.0</ele><time>2026-05-02T12:16:23.15Z</time></trkpt><trkpt lat="46.1693477" lon="13.4603644"><ele>656.0</ele><time>2026-05-02T12:16:25.155Z</time></trkpt><trkpt lat="46.1693497" lon="13.4602547"><ele>658.0</ele><time>2026-05-02T12:16:26.156Z</time></trkpt><trkpt lat="46.1693493" lon="13.460155"><ele>657.0</ele><time>2026-05-02T12:16:27.152Z</time></trkpt><trkpt lat="46.1693304" lon="13.4600635"><ele>656.0</ele><time>2026-05-02T12:16:28.143Z</time></trkpt><trkpt lat="46.1692623" lon="13.4599246"><ele>655.0</ele><time>2026-05-02T12:16:30.134Z</time></trkpt><trkpt lat="46.1692037" lon="13.4598656"><ele>654.0</ele><time>2026-05-02T12:16:31.14Z</time></trkpt><trkpt lat="46.1691437" lon="13.4597981"><ele>653.0</ele><time>2026-05-02T12:16:32.135Z</time></trkpt><trkpt lat="46.1690782" lon="13.4597231"><ele>652.0</ele><time>2026-05-02T12:16:33.139Z</time></trkpt><trkpt lat="46.1690151" lon="13.4596382"><ele>655.1666666666667</ele><time>2026-05-02T12:16:34.145Z</time></trkpt><trkpt lat="46.1689681" lon="13.4595528"><ele>658.3333333333334</ele><time>2026-05-02T12:16:35.146Z</time></trkpt><trkpt lat="46.1689281" lon="13.4594506"><ele>661.5</ele><time>2026-05-02T12:16:36.152Z</time></trkpt><trkpt lat="46.1688919" lon="13.459346"><ele>664.6666666666666</ele><time>2026-05-02T12:16:37.143Z</time></trkpt><trkpt lat="46.168843" lon="13.4592466"><ele>667.8333333333333</ele><time>2026-05-02T12:16:38.138Z</time></trkpt><trkpt lat="46.1688021" lon="13.459159"><ele>671.0</ele><time>2026-05-02T12:16:39.154Z</time></trkpt><trkpt lat="46.1687709" lon="13.4590735"><ele>671.0</ele><time>2026-05-02T12:16:40.155Z</time></trkpt><trkpt lat="46.1687279" lon="13.4589549"><ele>671.0</ele><time>2026-05-02T12:16:42.147Z</time></trkpt><trkpt lat="46.1687501" lon="13.4588603"><ele>671.0</ele><time>2026-05-02T12:16:45.146Z</time></trkpt><trkpt lat="46.1687914" lon="13.4587759"><ele>671.0</ele><time>2026-05-02T12:16:56.133Z</time></trkpt><trkpt lat="46.1688345" lon="13.4586935"><ele>671.0</ele><time>2026-05-02T12:16:58.149Z</time></trkpt><trkpt lat="46.1688407" lon="13.4585323"><ele>671.0</ele><time>2026-05-02T12:17:00.13Z</time></trkpt><trkpt lat="46.1688215" lon="13.4583662"><ele>674.3333333333333</ele><time>2026-05-02T12:17:02.148Z</time></trkpt><trkpt lat="46.1687877" lon="13.4582794"><ele>677.6666666666666</ele><time>2026-05-02T12:17:03.141Z</time></trkpt><trkpt lat="46.1687484" lon="13.4582023"><ele>681.0</ele><time>2026-05-02T12:17:04.133Z</time></trkpt><trkpt lat="46.1686925" lon="13.4581302"><ele>684.3333333333334</ele><time>2026-05-02T12:17:05.146Z</time></trkpt><trkpt lat="46.1686358" lon="13.4580518"><ele>687.6666666666667</ele><time>2026-05-02T12:17:06.139Z</time></trkpt><trkpt lat="46.1685829" lon="13.457965"><ele>691.0</ele><time>2026-05-02T12:17:07.143Z</time></trkpt><trkpt lat="46.1685656" lon="13.4577858"><ele>692.6666666666667</ele><time>2026-05-02T12:17:09.146Z</time></trkpt><trkpt lat="46.1685698" lon="13.4576812"><ele>694.3333333333334</ele><time>2026-05-02T12:17:10.129Z</time></trkpt><trkpt lat="46.1685581" lon="13.4575693"><ele>696.0</ele><time>2026-05-02T12:17:11.133Z</time></trkpt><trkpt lat="46.1685202" lon="13.4574531"><ele>697.6666666666666</ele><time>2026-05-02T12:17:12.142Z</time></trkpt><trkpt lat="46.1684819" lon="13.4573337"><ele>699.3333333333333</ele><time>2026-05-02T12:17:13.155Z</time></trkpt><trkpt lat="46.1684462" lon="13.457208"><ele>701.0</ele><time>2026-05-02T12:17:14.141Z</time></trkpt><trkpt lat="46.1684331" lon="13.457096"><ele>702.6666666666666</ele><time>2026-05-02T12:17:15.142Z</time></trkpt><trkpt lat="46.1684441" lon="13.4569843"><ele>704.3333333333333</ele><time>2026-05-02T12:17:16.14Z</time></trkpt><trkpt lat="46.1684609" lon="13.4568823"><ele>706.0</ele><time>2026-05-02T12:17:17.131Z</time></trkpt><trkpt lat="46.1684653" lon="13.4567484"><ele>707.6666666666666</ele><time>2026-05-02T12:17:19.147Z</time></trkpt><trkpt lat="46.1684277" lon="13.4566689"><ele>709.3333333333334</ele><time>2026-05-02T12:17:21.136Z</time></trkpt><trkpt lat="46.1683624" lon="13.4565861"><ele>711.0</ele><time>2026-05-02T12:17:23.13Z</time></trkpt><trkpt lat="46.1683033" lon="13.4565422"><ele>711.0</ele><time>2026-05-02T12:17:24.135Z</time></trkpt><trkpt lat="46.1682432" lon="13.456485"><ele>711.0</ele><time>2026-05-02T12:17:25.135Z</time></trkpt><trkpt lat="46.168188" lon="13.4564149"><ele>711.0</ele><time>2026-05-02T12:17:26.144Z</time></trkpt><trkpt lat="46.1681317" lon="13.4563374"><ele>711.0</ele><time>2026-05-02T12:17:27.138Z</time></trkpt><trkpt lat="46.1680845" lon="13.4562381"><ele>711.0</ele><time>2026-05-02T12:17:28.138Z</time></trkpt><trkpt lat="46.1680341" lon="13.4561308"><ele>711.0</ele><time>2026-05-02T12:17:29.155Z</time></trkpt><trkpt lat="46.1679882" lon="13.4560093"><ele>710.5</ele><time>2026-05-02T12:17:30.147Z</time></trkpt><trkpt lat="46.1679464" lon="13.4558986"><ele>710.0</ele><time>2026-05-02T12:17:31.146Z</time></trkpt><trkpt lat="46.1679163" lon="13.455785"><ele>709.5</ele><time>2026-05-02T12:17:32.157Z</time></trkpt><trkpt lat="46.1678868" lon="13.4556658"><ele>709.0</ele><time>2026-05-02T12:17:33.148Z</time></trkpt><trkpt lat="46.1678698" lon="13.4555328"><ele>708.5</ele><time>2026-05-02T12:17:34.137Z</time></trkpt><trkpt lat="46.167874" lon="13.4554296"><ele>708.0</ele><time>2026-05-02T12:17:35.143Z</time></trkpt><trkpt lat="46.1678895" lon="13.4553392"><ele>709.1666666666666</ele><time>2026-05-02T12:17:36.141Z</time></trkpt><trkpt lat="46.1679081" lon="13.4552515"><ele>710.3333333333334</ele><time>2026-05-02T12:17:37.149Z</time></trkpt><trkpt lat="46.1679312" lon="13.4551596"><ele>711.5</ele><time>2026-05-02T12:17:38.147Z</time></trkpt><trkpt lat="46.1679543" lon="13.4550727"><ele>712.6666666666667</ele><time>2026-05-02T12:17:39.151Z</time></trkpt><trkpt lat="46.1679734" lon="13.4549091"><ele>713.8333333333334</ele><time>2026-05-02T12:17:41.144Z</time></trkpt><trkpt lat="46.1679337" lon="13.4547938"><ele>715.0</ele><time>2026-05-02T12:17:43.134Z</time></trkpt><trkpt lat="46.1678578" lon="13.4547062"><ele>715.0</ele><time>2026-05-02T12:17:45.143Z</time></trkpt><trkpt lat="46.1677727" lon="13.4546477"><ele>715.0</ele><time>2026-05-02T12:17:46.138Z</time></trkpt><trkpt lat="46.1676882" lon="13.4545814"><ele>715.0</ele><time>2026-05-02T12:17:47.136Z</time></trkpt><trkpt lat="46.1676079" lon="13.4544892"><ele>715.0</ele><time>2026-05-02T12:17:48.142Z</time></trkpt><trkpt lat="46.1675211" lon="13.4543944"><ele>715.0</ele><time>2026-05-02T12:17:49.14Z</time></trkpt><trkpt lat="46.1674399" lon="13.4543012"><ele>715.4</ele><time>2026-05-02T12:17:50.13Z</time></trkpt><trkpt lat="46.1673545" lon="13.4542128"><ele>715.8</ele><time>2026-05-02T12:17:51.136Z</time></trkpt><trkpt lat="46.1672658" lon="13.4541417"><ele>716.2</ele><time>2026-05-02T12:17:52.145Z</time></trkpt><trkpt lat="46.1671758" lon="13.4540774"><ele>716.6</ele><time>2026-05-02T12:17:53.144Z</time></trkpt><trkpt lat="46.1670807" lon="13.454012"><ele>717.0</ele><time>2026-05-02T12:17:54.145Z</time></trkpt><trkpt lat="46.1669868" lon="13.4539625"><ele>717.0</ele><time>2026-05-02T12:17:55.133Z</time></trkpt><trkpt lat="46.1668947" lon="13.4539143"><ele>717.0</ele><time>2026-05-02T12:17:56.146Z</time></trkpt><trkpt lat="46.1668147" lon="13.4538572"><ele>717.0</ele><time>2026-05-02T12:17:57.142Z</time></trkpt><trkpt lat="46.1667539" lon="13.4537973"><ele>717.0</ele><time>2026-05-02T12:17:58.148Z</time></trkpt><trkpt lat="46.1666535" lon="13.4537415"><ele>717.0</ele><time>2026-05-02T12:18:00.137Z</time></trkpt><trkpt lat="46.1665594" lon="13.4537323"><ele>717.8333333333334</ele><time>2026-05-02T12:18:02.14Z</time></trkpt><trkpt lat="46.166447" lon="13.4537823"><ele>718.6666666666666</ele><time>2026-05-02T12:18:04.148Z</time></trkpt><trkpt lat="46.1663897" lon="13.453823"><ele>719.5</ele><time>2026-05-02T12:18:05.14Z</time></trkpt><trkpt lat="46.1663267" lon="13.4538712"><ele>720.3333333333333</ele><time>2026-05-02T12:18:06.145Z</time></trkpt><trkpt lat="46.1662747" lon="13.4539322"><ele>721.1666666666666</ele><time>2026-05-02T12:18:07.144Z</time></trkpt><trkpt lat="46.1662069" lon="13.454023"><ele>722.0</ele><time>2026-05-02T12:18:09.145Z</time></trkpt><trkpt lat="46.1661507" lon="13.4540985"><ele>719.4285714285714</ele><time>2026-05-02T12:18:11.134Z</time></trkpt><trkpt lat="46.1661087" lon="13.4541667"><ele>716.8571428571428</ele><time>2026-05-02T12:18:16.144Z</time></trkpt><trkpt lat="46.1661062" lon="13.45429"><ele>714.2857142857142</ele><time>2026-05-02T12:18:51.143Z</time></trkpt><trkpt lat="46.1660977" lon="13.4543944"><ele>711.7142857142858</ele><time>2026-05-02T12:18:53.138Z</time></trkpt><trkpt lat="46.1661045" lon="13.4544946"><ele>709.1428571428571</ele><time>2026-05-02T12:18:55.15Z</time></trkpt><trkpt lat="46.1661097" lon="13.4545892"><ele>706.5714285714286</ele><time>2026-05-02T12:18:59.14Z</time></trkpt><trkpt lat="46.1661198" lon="13.454679"><ele>704.0</ele><time>2026-05-02T12:19:30.152Z</time></trkpt><trkpt lat="46.1660654" lon="13.4547985"><ele>702.4000000000001</ele><time>2026-05-02T12:19:33.146Z</time></trkpt><trkpt lat="46.1659879" lon="13.4548702"><ele>700.8</ele><time>2026-05-02T12:19:35.141Z</time></trkpt><trkpt lat="46.1659216" lon="13.4548843"><ele>699.2</ele><time>2026-05-02T12:19:36.153Z</time></trkpt><trkpt lat="46.1658038" lon="13.4548014"><ele>697.5999999999999</ele><time>2026-05-02T12:19:38.138Z</time></trkpt><trkpt lat="46.1657382" lon="13.4547072"><ele>696.0</ele><time>2026-05-02T12:19:39.143Z</time></trkpt><trkpt lat="46.1656787" lon="13.4545891"><ele>695.3333333333334</ele><time>2026-05-02T12:19:40.143Z</time></trkpt><trkpt lat="46.1656227" lon="13.4544821"><ele>694.6666666666666</ele><time>2026-05-02T12:19:41.139Z</time></trkpt><trkpt lat="46.1655665" lon="13.4543749"><ele>694.0</ele><time>2026-05-02T12:19:42.157Z</time></trkpt><trkpt lat="46.1655087" lon="13.4542739"><ele>693.3333333333333</ele><time>2026-05-02T12:19:43.16Z</time></trkpt><trkpt lat="46.165445" lon="13.4541944"><ele>692.6666666666666</ele><time>2026-05-02T12:19:44.159Z</time></trkpt><trkpt lat="46.1653704" lon="13.4541321"><ele>692.0</ele><time>2026-05-02T12:19:45.148Z</time></trkpt><trkpt lat="46.1652894" lon="13.4541017"><ele>692.0</ele><time>2026-05-02T12:19:46.156Z</time></trkpt><trkpt lat="46.1652005" lon="13.4540929"><ele>692.0</ele><time>2026-05-02T12:19:47.141Z</time></trkpt><trkpt lat="46.1651068" lon="13.4540902"><ele>692.0</ele><time>2026-05-02T12:19:48.154Z</time></trkpt><trkpt lat="46.1650261" lon="13.4540877"><ele>692.0</ele><time>2026-05-02T12:19:49.154Z</time></trkpt><trkpt lat="46.1649409" lon="13.4540834"><ele>692.0</ele><time>2026-05-02T12:19:50.149Z</time></trkpt><trkpt lat="46.1648623" lon="13.4540666"><ele>692.0</ele><time>2026-05-02T12:19:51.144Z</time></trkpt><trkpt lat="46.1647896" lon="13.4540324"><ele>690.3333333333333</ele><time>2026-05-02T12:19:52.141Z</time></trkpt><trkpt lat="46.1647178" lon="13.4539958"><ele>688.6666666666666</ele><time>2026-05-02T12:19:53.144Z</time></trkpt><trkpt lat="46.1646493" lon="13.4539675"><ele>687.0</ele><time>2026-05-02T12:19:54.147Z</time></trkpt><trkpt lat="46.1645807" lon="13.4539678"><ele>685.3333333333334</ele><time>2026-05-02T12:19:55.152Z</time></trkpt><trkpt lat="46.1645125" lon="13.454003"><ele>683.6666666666667</ele><time>2026-05-02T12:19:56.145Z</time></trkpt><trkpt lat="46.1644533" lon="13.4540374"><ele>682.0</ele><time>2026-05-02T12:19:57.14Z</time></trkpt><trkpt lat="46.1643511" lon="13.4541041"><ele>682.0</ele><time>2026-05-02T12:19:59.143Z</time></trkpt><trkpt lat="46.1642469" lon="13.4541195"><ele>682.0</ele><time>2026-05-02T12:20:01.139Z</time></trkpt><trkpt lat="46.1641385" lon="13.4541245"><ele>682.0</ele><time>2026-05-02T12:20:03.145Z</time></trkpt><trkpt lat="46.1640988" lon="13.4542046"><ele>682.0</ele><time>2026-05-02T12:20:05.144Z</time></trkpt><trkpt lat="46.1641032" lon="13.4543514"><ele>682.0</ele><time>2026-05-02T12:20:07.137Z</time></trkpt><trkpt lat="46.164013" lon="13.4544022"><ele>679.6</ele><time>2026-05-02T12:20:09.138Z</time></trkpt><trkpt lat="46.163908" lon="13.4543367"><ele>677.2</ele><time>2026-05-02T12:20:11.136Z</time></trkpt><trkpt lat="46.163807" lon="13.4542446"><ele>674.8</ele><time>2026-05-02T12:20:13.13Z</time></trkpt><trkpt lat="46.1637211" lon="13.4541455"><ele>672.4</ele><time>2026-05-02T12:20:15.142Z</time></trkpt><trkpt lat="46.1636222" lon="13.4541036"><ele>670.0</ele><time>2026-05-02T12:20:17.135Z</time></trkpt><trkpt lat="46.1635006" lon="13.4541345"><ele>670.0</ele><time>2026-05-02T12:20:19.14Z</time></trkpt><trkpt lat="46.1634309" lon="13.454181"><ele>670.0</ele><time>2026-05-02T12:20:20.143Z</time></trkpt><trkpt lat="46.1633673" lon="13.4542284"><ele>670.0</ele><time>2026-05-02T12:20:21.142Z</time></trkpt><trkpt lat="46.1632727" lon="13.4543098"><ele>670.0</ele><time>2026-05-02T12:20:23.141Z</time></trkpt><trkpt lat="46.1632072" lon="13.4544117"><ele>670.0</ele><time>2026-05-02T12:20:25.142Z</time></trkpt><trkpt lat="46.1631971" lon="13.4545495"><ele>666.3333333333334</ele><time>2026-05-02T12:20:27.135Z</time></trkpt><trkpt lat="46.1632786" lon="13.4547187"><ele>662.6666666666667</ele><time>2026-05-02T12:20:29.123Z</time></trkpt><trkpt lat="46.1633214" lon="13.4548181"><ele>659.0</ele><time>2026-05-02T12:20:30.136Z</time></trkpt><trkpt lat="46.163355" lon="13.4549159"><ele>655.3333333333334</ele><time>2026-05-02T12:20:31.134Z</time></trkpt><trkpt lat="46.1633733" lon="13.4550232"><ele>651.6666666666666</ele><time>2026-05-02T12:20:32.146Z</time></trkpt><trkpt lat="46.163388" lon="13.4551188"><ele>648.0</ele><time>2026-05-02T12:20:33.137Z</time></trkpt><trkpt lat="46.1634294" lon="13.4552259"><ele>648.0</ele><time>2026-05-02T12:20:35.158Z</time></trkpt><trkpt lat="46.1634384" lon="13.4553308"><ele>648.0</ele><time>2026-05-02T12:20:37.151Z</time></trkpt><trkpt lat="46.1633765" lon="13.4554015"><ele>648.0</ele><time>2026-05-02T12:20:40.141Z</time></trkpt><trkpt lat="46.1633114" lon="13.4553919"><ele>648.0</ele><time>2026-05-02T12:20:42.145Z</time></trkpt><trkpt lat="46.1632462" lon="13.4553338"><ele>648.0</ele><time>2026-05-02T12:20:44.144Z</time></trkpt><trkpt lat="46.1631591" lon="13.4551677"><ele>648.0</ele><time>2026-05-02T12:20:46.139Z</time></trkpt><trkpt lat="46.1631163" lon="13.4550762"><ele>646.1666666666666</ele><time>2026-05-02T12:20:47.149Z</time></trkpt><trkpt lat="46.1630548" lon="13.4549986"><ele>644.3333333333334</ele><time>2026-05-02T12:20:48.141Z</time></trkpt><trkpt lat="46.1629772" lon="13.4549401"><ele>642.5</ele><time>2026-05-02T12:20:49.15Z</time></trkpt><trkpt lat="46.1628965" lon="13.4549056"><ele>640.6666666666667</ele><time>2026-05-02T12:20:50.146Z</time></trkpt><trkpt lat="46.1628057" lon="13.4548834"><ele>638.8333333333334</ele><time>2026-05-02T12:20:51.134Z</time></trkpt><trkpt lat="46.1627244" lon="13.4548703"><ele>637.0</ele><time>2026-05-02T12:20:52.153Z</time></trkpt><trkpt lat="46.1626539" lon="13.4548595"><ele>637.0</ele><time>2026-05-02T12:20:53.141Z</time></trkpt><trkpt lat="46.1625344" lon="13.4548399"><ele>637.0</ele><time>2026-05-02T12:20:55.136Z</time></trkpt><trkpt lat="46.1624187" lon="13.4548237"><ele>637.0</ele><time>2026-05-02T12:20:57.143Z</time></trkpt><trkpt lat="46.1622925" lon="13.4548207"><ele>637.0</ele><time>2026-05-02T12:20:59.142Z</time></trkpt><trkpt lat="46.1622159" lon="13.4548166"><ele>637.0</ele><time>2026-05-02T12:21:00.127Z</time></trkpt><trkpt lat="46.1621393" lon="13.4548112"><ele>640.3333333333334</ele><time>2026-05-02T12:21:01.131Z</time></trkpt><trkpt lat="46.1620654" lon="13.4548114"><ele>643.6666666666667</ele><time>2026-05-02T12:21:02.126Z</time></trkpt><trkpt lat="46.1619864" lon="13.4548411"><ele>647.0</ele><time>2026-05-02T12:21:03.142Z</time></trkpt><trkpt lat="46.1619071" lon="13.45489"><ele>650.3333333333334</ele><time>2026-05-02T12:21:04.145Z</time></trkpt><trkpt lat="46.1618304" lon="13.4549458"><ele>653.6666666666666</ele><time>2026-05-02T12:21:05.139Z</time></trkpt><trkpt lat="46.1617503" lon="13.4550064"><ele>657.0</ele><time>2026-05-02T12:21:06.141Z</time></trkpt><trkpt lat="46.1616749" lon="13.4550747"><ele>657.0</ele><time>2026-05-02T12:21:07.135Z</time></trkpt><trkpt lat="46.1615944" lon="13.455127"><ele>657.0</ele><time>2026-05-02T12:21:08.144Z</time></trkpt><trkpt lat="46.1615199" lon="13.4551724"><ele>657.0</ele><time>2026-05-02T12:21:09.142Z</time></trkpt><trkpt lat="46.1614553" lon="13.4552059"><ele>657.0</ele><time>2026-05-02T12:21:10.142Z</time></trkpt><trkpt lat="46.1613822" lon="13.4552364"><ele>657.0</ele><time>2026-05-02T12:21:11.142Z</time></trkpt><trkpt lat="46.1613073" lon="13.4552596"><ele>657.0</ele><time>2026-05-02T12:21:12.137Z</time></trkpt><trkpt lat="46.1612235" lon="13.4552791"><ele>659.0</ele><time>2026-05-02T12:21:13.137Z</time></trkpt><trkpt lat="46.1611335" lon="13.4552972"><ele>661.0</ele><time>2026-05-02T12:21:14.14Z</time></trkpt><trkpt lat="46.1610466" lon="13.4553095"><ele>663.0</ele><time>2026-05-02T12:21:15.137Z</time></trkpt><trkpt lat="46.1609578" lon="13.4553221"><ele>665.0</ele><time>2026-05-02T12:21:16.132Z</time></trkpt><trkpt lat="46.1608687" lon="13.455334"><ele>667.0</ele><time>2026-05-02T12:21:17.129Z</time></trkpt><trkpt lat="46.1607831" lon="13.4553552"><ele>669.0</ele><time>2026-05-02T12:21:18.137Z</time></trkpt><trkpt lat="46.1607058" lon="13.4553744"><ele>668.3333333333334</ele><time>2026-05-02T12:21:19.138Z</time></trkpt><trkpt lat="46.1606378" lon="13.4553912"><ele>667.6666666666666</ele><time>2026-05-02T12:21:20.133Z</time></trkpt><trkpt lat="46.1605635" lon="13.4553885"><ele>667.0</ele><time>2026-05-02T12:21:21.133Z</time></trkpt><trkpt lat="46.1604812" lon="13.4553755"><ele>666.3333333333333</ele><time>2026-05-02T12:21:22.14Z</time></trkpt><trkpt lat="46.1604038" lon="13.4553668"><ele>665.6666666666666</ele><time>2026-05-02T12:21:23.145Z</time></trkpt><trkpt lat="46.1602911" lon="13.4554394"><ele>665.0</ele><time>2026-05-02T12:21:25.145Z</time></trkpt><trkpt lat="46.1602236" lon="13.4554997"><ele>665.0</ele><time>2026-05-02T12:21:26.151Z</time></trkpt><trkpt lat="46.1601399" lon="13.4555682"><ele>665.0</ele><time>2026-05-02T12:21:27.139Z</time></trkpt><trkpt lat="46.1600478" lon="13.4556528"><ele>665.0</ele><time>2026-05-02T12:21:28.147Z</time></trkpt><trkpt lat="46.1599598" lon="13.455737"><ele>665.0</ele><time>2026-05-02T12:21:29.146Z</time></trkpt><trkpt lat="46.1598883" lon="13.4558312"><ele>665.0</ele><time>2026-05-02T12:21:30.151Z</time></trkpt><trkpt lat="46.1598441" lon="13.4559346"><ele>665.0</ele><time>2026-05-02T12:21:31.147Z</time></trkpt><trkpt lat="46.1598254" lon="13.4560599"><ele>665.0</ele><time>2026-05-02T12:21:32.152Z</time></trkpt><trkpt lat="46.1598205" lon="13.4562041"><ele>665.0</ele><time>2026-05-02T12:21:33.13Z</time></trkpt><trkpt lat="46.1598106" lon="13.4563471"><ele>665.0</ele><time>2026-05-02T12:21:34.142Z</time></trkpt><trkpt lat="46.1597895" lon="13.4564809"><ele>665.0</ele><time>2026-05-02T12:21:35.149Z</time></trkpt><trkpt lat="46.1597648" lon="13.4565781"><ele>665.0</ele><time>2026-05-02T12:21:36.147Z</time></trkpt><trkpt lat="46.1596444" lon="13.4566184"><ele>665.0</ele><time>2026-05-02T12:21:38.139Z</time></trkpt><trkpt lat="46.1595682" lon="13.4566141"><ele>665.0</ele><time>2026-05-02T12:21:39.143Z</time></trkpt><trkpt lat="46.1594854" lon="13.4565912"><ele>665.0</ele><time>2026-05-02T12:21:40.144Z</time></trkpt><trkpt lat="46.159396" lon="13.4565558"><ele>665.0</ele><time>2026-05-02T12:21:41.152Z</time></trkpt><trkpt lat="46.1593121" lon="13.4564998"><ele>665.0</ele><time>2026-05-02T12:21:42.143Z</time></trkpt><trkpt lat="46.1592382" lon="13.4564402"><ele>665.0</ele><time>2026-05-02T12:21:43.16Z</time></trkpt><trkpt lat="46.159167" lon="13.4563926"><ele>665.0</ele><time>2026-05-02T12:21:44.162Z</time></trkpt><trkpt lat="46.1590916" lon="13.4563742"><ele>665.0</ele><time>2026-05-02T12:21:45.158Z</time></trkpt><trkpt lat="46.1590054" lon="13.4563626"><ele>665.0</ele><time>2026-05-02T12:21:46.165Z</time></trkpt><trkpt lat="46.158914" lon="13.4563645"><ele>665.0</ele><time>2026-05-02T12:21:47.146Z</time></trkpt><trkpt lat="46.1588326" lon="13.4563529"><ele>665.0</ele><time>2026-05-02T12:21:48.144Z</time></trkpt><trkpt lat="46.1587641" lon="13.4563194"><ele>665.0</ele><time>2026-05-02T12:21:49.158Z</time></trkpt><trkpt lat="46.1587065" lon="13.4562538"><ele>665.0</ele><time>2026-05-02T12:21:50.159Z</time></trkpt><trkpt lat="46.1586459" lon="13.4561571"><ele>665.0</ele><time>2026-05-02T12:21:51.141Z</time></trkpt><trkpt lat="46.158595" lon="13.4560604"><ele>665.0</ele><time>2026-05-02T12:21:52.162Z</time></trkpt><trkpt lat="46.1585552" lon="13.4559546"><ele>665.0</ele><time>2026-05-02T12:21:53.148Z</time></trkpt><trkpt lat="46.158518" lon="13.4558382"><ele>665.0</ele><time>2026-05-02T12:21:54.158Z</time></trkpt><trkpt lat="46.1584807" lon="13.4557287"><ele>665.0</ele><time>2026-05-02T12:21:55.169Z</time></trkpt><trkpt lat="46.1584453" lon="13.4556185"><ele>665.0</ele><time>2026-05-02T12:21:56.161Z</time></trkpt><trkpt lat="46.1584073" lon="13.4555021"><ele>665.0</ele><time>2026-05-02T12:21:57.163Z</time></trkpt><trkpt lat="46.15836" lon="13.4553869"><ele>665.0</ele><time>2026-05-02T12:21:58.153Z</time></trkpt><trkpt lat="46.1583062" lon="13.4552695"><ele>665.0</ele><time>2026-05-02T12:21:59.157Z</time></trkpt><trkpt lat="46.1582604" lon="13.4551498"><ele>667.2</ele><time>2026-05-02T12:22:00.147Z</time></trkpt><trkpt lat="46.1582189" lon="13.4550142"><ele>669.4</ele><time>2026-05-02T12:22:01.148Z</time></trkpt><trkpt lat="46.1581748" lon="13.4548712"><ele>671.5999999999999</ele><time>2026-05-02T12:22:02.146Z</time></trkpt><trkpt lat="46.1581351" lon="13.4547285"><ele>673.8</ele><time>2026-05-02T12:22:03.152Z</time></trkpt><trkpt lat="46.1581029" lon="13.4545883"><ele>676.0</ele><time>2026-05-02T12:22:04.157Z</time></trkpt><trkpt lat="46.1580792" lon="13.4544665"><ele>677.6666666666667</ele><time>2026-05-02T12:22:05.148Z</time></trkpt><trkpt lat="46.1580581" lon="13.4543719"><ele>679.3333333333334</ele><time>2026-05-02T12:22:06.155Z</time></trkpt><trkpt lat="46.1579749" lon="13.4543194"><ele>681.0</ele><time>2026-05-02T12:22:08.158Z</time></trkpt><trkpt lat="46.1578968" lon="13.4543879"><ele>682.6666666666666</ele><time>2026-05-02T12:22:10.146Z</time></trkpt><trkpt lat="46.1578438" lon="13.4544595"><ele>684.3333333333333</ele><time>2026-05-02T12:22:11.136Z</time></trkpt><trkpt lat="46.1577845" lon="13.4545352"><ele>686.0</ele><time>2026-05-02T12:22:12.139Z</time></trkpt><trkpt lat="46.1577296" lon="13.4546204"><ele>684.0</ele><time>2026-05-02T12:22:13.154Z</time></trkpt><trkpt lat="46.1576739" lon="13.4547179"><ele>682.0</ele><time>2026-05-02T12:22:14.14Z</time></trkpt><trkpt lat="46.157621" lon="13.4548224"><ele>680.0</ele><time>2026-05-02T12:22:15.15Z</time></trkpt><trkpt lat="46.1575735" lon="13.4549128"><ele>678.0</ele><time>2026-05-02T12:22:16.15Z</time></trkpt><trkpt lat="46.1574844" lon="13.4549888"><ele>676.0</ele><time>2026-05-02T12:22:18.151Z</time></trkpt><trkpt lat="46.1573829" lon="13.4549462"><ele>675.0</ele><time>2026-05-02T12:22:20.147Z</time></trkpt><trkpt lat="46.1572547" lon="13.4549408"><ele>674.0</ele><time>2026-05-02T12:22:22.154Z</time></trkpt><trkpt lat="46.1571752" lon="13.4549574"><ele>673.0</ele><time>2026-05-02T12:22:23.154Z</time></trkpt><trkpt lat="46.15707" lon="13.4549768"><ele>672.0</ele><time>2026-05-02T12:22:24.147Z</time></trkpt><trkpt lat="46.1569767" lon="13.4549699"><ele>671.0</ele><time>2026-05-02T12:22:25.155Z</time></trkpt><trkpt lat="46.1568726" lon="13.454974"><ele>671.0</ele><time>2026-05-02T12:22:26.147Z</time></trkpt><trkpt lat="46.1567622" lon="13.4549663"><ele>671.0</ele><time>2026-05-02T12:22:27.151Z</time></trkpt><trkpt lat="46.1566642" lon="13.4549426"><ele>671.0</ele><time>2026-05-02T12:22:28.149Z</time></trkpt><trkpt lat="46.1565657" lon="13.4549155"><ele>671.0</ele><time>2026-05-02T12:22:29.159Z</time></trkpt><trkpt lat="46.1564673" lon="13.4548825"><ele>671.0</ele><time>2026-05-02T12:22:30.146Z</time></trkpt><trkpt lat="46.1563657" lon="13.4548479"><ele>671.5</ele><time>2026-05-02T12:22:31.153Z</time></trkpt><trkpt lat="46.1562758" lon="13.4548154"><ele>672.0</ele><time>2026-05-02T12:22:32.149Z</time></trkpt><trkpt lat="46.1562002" lon="13.4548087"><ele>672.5</ele><time>2026-05-02T12:22:33.147Z</time></trkpt><trkpt lat="46.1561204" lon="13.4548156"><ele>673.0</ele><time>2026-05-02T12:22:34.15Z</time></trkpt><trkpt lat="46.1560328" lon="13.4548199"><ele>673.5</ele><time>2026-05-02T12:22:35.151Z</time></trkpt><trkpt lat="46.155931" lon="13.4548024"><ele>674.0</ele><time>2026-05-02T12:22:36.143Z</time></trkpt><trkpt lat="46.1558258" lon="13.4547716"><ele>674.0</ele><time>2026-05-02T12:22:37.149Z</time></trkpt><trkpt lat="46.155721" lon="13.4547181"><ele>674.0</ele><time>2026-05-02T12:22:38.145Z</time></trkpt><trkpt lat="46.1556234" lon="13.4546667"><ele>674.0</ele><time>2026-05-02T12:22:39.142Z</time></trkpt><trkpt lat="46.1555374" lon="13.4546133"><ele>674.0</ele><time>2026-05-02T12:22:40.143Z</time></trkpt><trkpt lat="46.1554582" lon="13.4545718"><ele>674.0</ele><time>2026-05-02T12:22:41.143Z</time></trkpt><trkpt lat="46.1553928" lon="13.4545282"><ele>676.6</ele><time>2026-05-02T12:22:42.149Z</time></trkpt><trkpt lat="46.1552801" lon="13.4545498"><ele>679.2</ele><time>2026-05-02T12:22:44.139Z</time></trkpt><trkpt lat="46.1552428" lon="13.4546319"><ele>681.8000000000001</ele><time>2026-05-02T12:22:45.135Z</time></trkpt><trkpt lat="46.1551909" lon="13.4547583"><ele>684.4000000000001</ele><time>2026-05-02T12:22:46.138Z</time></trkpt><trkpt lat="46.1551389" lon="13.4549157"><ele>687.0</ele><time>2026-05-02T12:22:47.139Z</time></trkpt><trkpt lat="46.1550799" lon="13.4550693"><ele>687.0</ele><time>2026-05-02T12:22:48.135Z</time></trkpt><trkpt lat="46.1550223" lon="13.4552199"><ele>687.0</ele><time>2026-05-02T12:22:49.138Z</time></trkpt><trkpt lat="46.1549609" lon="13.4553668"><ele>687.0</ele><time>2026-05-02T12:22:50.149Z</time></trkpt><trkpt lat="46.1549126" lon="13.4554967"><ele>687.0</ele><time>2026-05-02T12:22:51.127Z</time></trkpt><trkpt lat="46.1548718" lon="13.4556034"><ele>687.0</ele><time>2026-05-02T12:22:52.139Z</time></trkpt><trkpt lat="46.1548311" lon="13.455693"><ele>687.4000000000001</ele><time>2026-05-02T12:22:53.141Z</time></trkpt><trkpt lat="46.1547766" lon="13.4557674"><ele>687.8000000000001</ele><time>2026-05-02T12:22:54.14Z</time></trkpt><trkpt lat="46.154701" lon="13.4558303"><ele>688.2</ele><time>2026-05-02T12:22:55.13Z</time></trkpt><trkpt lat="46.1546114" lon="13.4558825"><ele>688.6</ele><time>2026-05-02T12:22:56.139Z</time></trkpt><trkpt lat="46.1545056" lon="13.4559229"><ele>689.0</ele><time>2026-05-02T12:22:57.143Z</time></trkpt><trkpt lat="46.1543976" lon="13.4559624"><ele>689.0</ele><time>2026-05-02T12:22:58.134Z</time></trkpt><trkpt lat="46.1543055" lon="13.4560121"><ele>689.0</ele><time>2026-05-02T12:22:59.153Z</time></trkpt><trkpt lat="46.1542168" lon="13.4560784"><ele>689.0</ele><time>2026-05-02T12:23:00.151Z</time></trkpt><trkpt lat="46.1541238" lon="13.4561639"><ele>689.0</ele><time>2026-05-02T12:23:01.15Z</time></trkpt><trkpt lat="46.1540422" lon="13.4562432"><ele>689.0</ele><time>2026-05-02T12:23:02.138Z</time></trkpt><trkpt lat="46.1539738" lon="13.4562974"><ele>689.2</ele><time>2026-05-02T12:23:03.144Z</time></trkpt><trkpt lat="46.1539015" lon="13.4563316"><ele>689.4000000000001</ele><time>2026-05-02T12:23:04.148Z</time></trkpt><trkpt lat="46.1538217" lon="13.4563353"><ele>689.6</ele><time>2026-05-02T12:23:05.145Z</time></trkpt><trkpt lat="46.1537183" lon="13.4563228"><ele>689.8</ele><time>2026-05-02T12:23:06.137Z</time></trkpt><trkpt lat="46.1536137" lon="13.4563014"><ele>690.0</ele><time>2026-05-02T12:23:07.139Z</time></trkpt><trkpt lat="46.1535018" lon="13.4562806"><ele>690.0</ele><time>2026-05-02T12:23:08.142Z</time></trkpt><trkpt lat="46.1533829" lon="13.4562555"><ele>690.0</ele><time>2026-05-02T12:23:09.148Z</time></trkpt><trkpt lat="46.1532752" lon="13.4562436"><ele>690.0</ele><time>2026-05-02T12:23:10.148Z</time></trkpt><trkpt lat="46.153189" lon="13.4562425"><ele>690.0</ele><time>2026-05-02T12:23:11.159Z</time></trkpt><trkpt lat="46.1530862" lon="13.4562551"><ele>690.0</ele><time>2026-05-02T12:23:13.161Z</time></trkpt><trkpt lat="46.1529862" lon="13.4562775"><ele>688.0</ele><time>2026-05-02T12:23:15.16Z</time></trkpt><trkpt lat="46.1528845" lon="13.4563564"><ele>686.0</ele><time>2026-05-02T12:23:17.159Z</time></trkpt><trkpt lat="46.1528152" lon="13.456497"><ele>684.0</ele><time>2026-05-02T12:23:19.143Z</time></trkpt><trkpt lat="46.1527725" lon="13.4566037"><ele>682.0</ele><time>2026-05-02T12:23:20.137Z</time></trkpt><trkpt lat="46.1527376" lon="13.4567316"><ele>680.0</ele><time>2026-05-02T12:23:21.147Z</time></trkpt><trkpt lat="46.1526936" lon="13.4568435"><ele>680.0</ele><time>2026-05-02T12:23:22.143Z</time></trkpt><trkpt lat="46.1526481" lon="13.4569556"><ele>680.0</ele><time>2026-05-02T12:23:23.153Z</time></trkpt><trkpt lat="46.1526017" lon="13.4570694"><ele>680.0</ele><time>2026-05-02T12:23:24.156Z</time></trkpt><trkpt lat="46.1525471" lon="13.4571823"><ele>680.0</ele><time>2026-05-02T12:23:25.167Z</time></trkpt><trkpt lat="46.1524931" lon="13.4572807"><ele>680.0</ele><time>2026-05-02T12:23:26.163Z</time></trkpt><trkpt lat="46.1524422" lon="13.4573698"><ele>680.0</ele><time>2026-05-02T12:23:27.147Z</time></trkpt><trkpt lat="46.1523842" lon="13.4574452"><ele>680.2857142857143</ele><time>2026-05-02T12:23:28.145Z</time></trkpt><trkpt lat="46.1523192" lon="13.4575019"><ele>680.5714285714286</ele><time>2026-05-02T12:23:29.146Z</time></trkpt><trkpt lat="46.1522439" lon="13.4575356"><ele>680.8571428571429</ele><time>2026-05-02T12:23:30.15Z</time></trkpt><trkpt lat="46.1521736" lon="13.4575618"><ele>681.1428571428571</ele><time>2026-05-02T12:23:31.145Z</time></trkpt><trkpt lat="46.152103" lon="13.4575869"><ele>681.4285714285714</ele><time>2026-05-02T12:23:32.146Z</time></trkpt><trkpt lat="46.1520353" lon="13.4575929"><ele>681.7142857142857</ele><time>2026-05-02T12:23:33.151Z</time></trkpt><trkpt lat="46.1519712" lon="13.4575918"><ele>682.0</ele><time>2026-05-02T12:23:34.143Z</time></trkpt><trkpt lat="46.1518561" lon="13.4575668"><ele>682.0</ele><time>2026-05-02T12:23:36.156Z</time></trkpt><trkpt lat="46.1517635" lon="13.4574858"><ele>682.0</ele><time>2026-05-02T12:23:38.159Z</time></trkpt><trkpt lat="46.1516835" lon="13.4573936"><ele>682.0</ele><time>2026-05-02T12:23:40.162Z</time></trkpt><trkpt lat="46.1515818" lon="13.4573464"><ele>682.0</ele><time>2026-05-02T12:23:42.148Z</time></trkpt><trkpt lat="46.1514634" lon="13.4573841"><ele>682.0</ele><time>2026-05-02T12:23:44.157Z</time></trkpt><trkpt lat="46.1514004" lon="13.4574361"><ele>682.0</ele><time>2026-05-02T12:23:45.151Z</time></trkpt><trkpt lat="46.1513321" lon="13.4575076"><ele>682.0</ele><time>2026-05-02T12:23:46.164Z</time></trkpt><trkpt lat="46.1512617" lon="13.4575865"><ele>682.0</ele><time>2026-05-02T12:23:47.15Z</time></trkpt><trkpt lat="46.1511934" lon="13.4576122"><ele>682.0</ele><time>2026-05-02T12:23:48.146Z</time></trkpt><trkpt lat="46.1511079" lon="13.457609"><ele>682.0</ele><time>2026-05-02T12:23:49.151Z</time></trkpt><trkpt lat="46.1510283" lon="13.457586"><ele>682.0</ele><time>2026-05-02T12:23:50.139Z</time></trkpt><trkpt lat="46.1509486" lon="13.457572"><ele>682.0</ele><time>2026-05-02T12:23:51.17Z</time></trkpt><trkpt lat="46.1508711" lon="13.4575445"><ele>682.0</ele><time>2026-05-02T12:23:52.161Z</time></trkpt><trkpt lat="46.1507922" lon="13.4575261"><ele>682.0</ele><time>2026-05-02T12:23:53.169Z</time></trkpt><trkpt lat="46.1507128" lon="13.4575143"><ele>682.0</ele><time>2026-05-02T12:23:54.17Z</time></trkpt><trkpt lat="46.1506393" lon="13.4575185"><ele>682.0</ele><time>2026-05-02T12:23:55.172Z</time></trkpt><trkpt lat="46.1505752" lon="13.4575423"><ele>682.0</ele><time>2026-05-02T12:23:56.161Z</time></trkpt><trkpt lat="46.1505069" lon="13.4575591"><ele>682.0</ele><time>2026-05-02T12:23:57.176Z</time></trkpt><trkpt lat="46.1504393" lon="13.4575664"><ele>681.5</ele><time>2026-05-02T12:23:58.161Z</time></trkpt><trkpt lat="46.1503695" lon="13.4575668"><ele>681.0</ele><time>2026-05-02T12:23:59.162Z</time></trkpt><trkpt lat="46.1502984" lon="13.4575629"><ele>680.5</ele><time>2026-05-02T12:24:00.149Z</time></trkpt><trkpt lat="46.1502334" lon="13.4575468"><ele>680.0</ele><time>2026-05-02T12:24:01.173Z</time></trkpt><trkpt lat="46.1501688" lon="13.4575351"><ele>679.5</ele><time>2026-05-02T12:24:02.165Z</time></trkpt><trkpt lat="46.1500564" lon="13.4575387"><ele>679.0</ele><time>2026-05-02T12:24:04.161Z</time></trkpt><trkpt lat="46.1499494" lon="13.4576291"><ele>679.0</ele><time>2026-05-02T12:24:06.167Z</time></trkpt><trkpt lat="46.1498909" lon="13.4576854"><ele>679.0</ele><time>2026-05-02T12:24:07.167Z</time></trkpt><trkpt lat="46.1498298" lon="13.4577465"><ele>679.0</ele><time>2026-05-02T12:24:08.165Z</time></trkpt><trkpt lat="46.1497496" lon="13.4578179"><ele>679.0</ele><time>2026-05-02T12:24:09.157Z</time></trkpt><trkpt lat="46.1496539" lon="13.4579036"><ele>679.0</ele><time>2026-05-02T12:24:10.154Z</time></trkpt><trkpt lat="46.1495626" lon="13.4579839"><ele>677.6</ele><time>2026-05-02T12:24:11.148Z</time></trkpt><trkpt lat="46.1494694" lon="13.4580522"><ele>676.2</ele><time>2026-05-02T12:24:12.147Z</time></trkpt><trkpt lat="46.1493737" lon="13.4581178"><ele>674.8000000000001</ele><time>2026-05-02T12:24:13.148Z</time></trkpt><trkpt lat="46.1492662" lon="13.4581825"><ele>673.4000000000001</ele><time>2026-05-02T12:24:14.138Z</time></trkpt><trkpt lat="46.1491616" lon="13.4582529"><ele>672.0</ele><time>2026-05-02T12:24:15.152Z</time></trkpt><trkpt lat="46.149061" lon="13.458368"><ele>669.5</ele><time>2026-05-02T12:24:16.152Z</time></trkpt><trkpt lat="46.1489956" lon="13.4585128"><ele>667.0</ele><time>2026-05-02T12:24:17.136Z</time></trkpt><trkpt lat="46.1489494" lon="13.4586591"><ele>664.5</ele><time>2026-05-02T12:24:18.144Z</time></trkpt><trkpt lat="46.148927" lon="13.4588226"><ele>662.0</ele><time>2026-05-02T12:24:19.136Z</time></trkpt><trkpt lat="46.1489131" lon="13.4589958"><ele>662.0</ele><time>2026-05-02T12:24:20.134Z</time></trkpt><trkpt lat="46.1488786" lon="13.4591518"><ele>662.0</ele><time>2026-05-02T12:24:21.14Z</time></trkpt><trkpt lat="46.1488056" lon="13.4592501"><ele>662.0</ele><time>2026-05-02T12:24:22.126Z</time></trkpt><trkpt lat="46.1486976" lon="13.4593189"><ele>662.0</ele><time>2026-05-02T12:24:23.119Z</time></trkpt><trkpt lat="46.148573" lon="13.4593933"><ele>662.0</ele><time>2026-05-02T12:24:24.17Z</time></trkpt><trkpt lat="46.1484344" lon="13.4594777"><ele>662.0</ele><time>2026-05-02T12:24:25.122Z</time></trkpt><trkpt lat="46.1482913" lon="13.4595562"><ele>662.0</ele><time>2026-05-02T12:24:26.116Z</time></trkpt><trkpt lat="46.1481452" lon="13.4596397"><ele>663.6666666666666</ele><time>2026-05-02T12:24:27.119Z</time></trkpt><trkpt lat="46.1480034" lon="13.4597301"><ele>665.3333333333334</ele><time>2026-05-02T12:24:28.135Z</time></trkpt><trkpt lat="46.1478586" lon="13.4598231"><ele>667.0</ele><time>2026-05-02T12:24:29.122Z</time></trkpt><trkpt lat="46.147712" lon="13.4599403"><ele>667.0</ele><time>2026-05-02T12:24:30.124Z</time></trkpt><trkpt lat="46.1475949" lon="13.4600795"><ele>667.0</ele><time>2026-05-02T12:24:31.127Z</time></trkpt><trkpt lat="46.1474837" lon="13.4602136"><ele>667.0</ele><time>2026-05-02T12:24:32.18Z</time></trkpt><trkpt lat="46.1473753" lon="13.4603463"><ele>667.0</ele><time>2026-05-02T12:24:33.121Z</time></trkpt><trkpt lat="46.1472602" lon="13.4604682"><ele>666.0</ele><time>2026-05-02T12:24:34.136Z</time></trkpt><trkpt lat="46.1471471" lon="13.4605473"><ele>665.0</ele><time>2026-05-02T12:24:35.131Z</time></trkpt><trkpt lat="46.1470166" lon="13.4605661"><ele>664.0</ele><time>2026-05-02T12:24:36.146Z</time></trkpt><trkpt lat="46.1468849" lon="13.4605651"><ele>663.0</ele><time>2026-05-02T12:24:37.124Z</time></trkpt><trkpt lat="46.1467594" lon="13.4605689"><ele>663.0</ele><time>2026-05-02T12:24:38.139Z</time></trkpt><trkpt lat="46.1466452" lon="13.4605833"><ele>663.0</ele><time>2026-05-02T12:24:39.138Z</time></trkpt><trkpt lat="46.1465368" lon="13.460615"><ele>663.0</ele><time>2026-05-02T12:24:40.133Z</time></trkpt><trkpt lat="46.1464367" lon="13.4606514"><ele>663.0</ele><time>2026-05-02T12:24:41.13Z</time></trkpt><trkpt lat="46.1463382" lon="13.4606946"><ele>663.0</ele><time>2026-05-02T12:24:42.154Z</time></trkpt><trkpt lat="46.1462573" lon="13.4607375"><ele>662.1428571428571</ele><time>2026-05-02T12:24:43.155Z</time></trkpt><trkpt lat="46.1461933" lon="13.4607369"><ele>661.2857142857142</ele><time>2026-05-02T12:24:44.152Z</time></trkpt><trkpt lat="46.1461381" lon="13.4606913"><ele>660.4285714285713</ele><time>2026-05-02T12:24:46.148Z</time></trkpt><trkpt lat="46.1460884" lon="13.460611"><ele>659.5714285714286</ele><time>2026-05-02T12:24:50.156Z</time></trkpt><trkpt lat="46.1460235" lon="13.4605597"><ele>658.7142857142858</ele><time>2026-05-02T12:25:06.165Z</time></trkpt><trkpt lat="46.1459682" lon="13.4605134"><ele>657.8571428571428</ele><time>2026-05-02T12:25:08.146Z</time></trkpt><trkpt lat="46.1458754" lon="13.4604623"><ele>657.0</ele><time>2026-05-02T12:25:10.162Z</time></trkpt><trkpt lat="46.1457546" lon="13.4604079"><ele>655.2857142857142</ele><time>2026-05-02T12:25:12.157Z</time></trkpt><trkpt lat="46.1456942" lon="13.4603747"><ele>653.5714285714287</ele><time>2026-05-02T12:25:13.155Z</time></trkpt><trkpt lat="46.1456317" lon="13.4603375"><ele>651.8571428571429</ele><time>2026-05-02T12:25:14.161Z</time></trkpt><trkpt lat="46.1455706" lon="13.460306"><ele>650.1428571428571</ele><time>2026-05-02T12:25:15.156Z</time></trkpt><trkpt lat="46.1455082" lon="13.4602786"><ele>648.4285714285713</ele><time>2026-05-02T12:25:16.143Z</time></trkpt><trkpt lat="46.1454411" lon="13.4602756"><ele>646.7142857142858</ele><time>2026-05-02T12:25:17.159Z</time></trkpt><trkpt lat="46.1453719" lon="13.4602918"><ele>645.0</ele><time>2026-05-02T12:25:18.142Z</time></trkpt><trkpt lat="46.1453064" lon="13.460309"><ele>645.0</ele><time>2026-05-02T12:25:19.159Z</time></trkpt><trkpt lat="46.1452307" lon="13.4603091"><ele>645.0</ele><time>2026-05-02T12:25:20.158Z</time></trkpt><trkpt lat="46.1451507" lon="13.4602966"><ele>645.0</ele><time>2026-05-02T12:25:21.148Z</time></trkpt><trkpt lat="46.1450678" lon="13.460281"><ele>645.0</ele><time>2026-05-02T12:25:22.155Z</time></trkpt><trkpt lat="46.1449876" lon="13.4602443"><ele>645.0</ele><time>2026-05-02T12:25:23.142Z</time></trkpt><trkpt lat="46.1449137" lon="13.4601925"><ele>645.0</ele><time>2026-05-02T12:25:24.14Z</time></trkpt><trkpt lat="46.1448371" lon="13.460131"><ele>645.8333333333334</ele><time>2026-05-02T12:25:25.151Z</time></trkpt><trkpt lat="46.1447647" lon="13.4600498"><ele>646.6666666666666</ele><time>2026-05-02T12:25:26.151Z</time></trkpt><trkpt lat="46.1446956" lon="13.4599687"><ele>647.5</ele><time>2026-05-02T12:25:27.149Z</time></trkpt><trkpt lat="46.1446273" lon="13.4598899"><ele>648.3333333333333</ele><time>2026-05-02T12:25:28.142Z</time></trkpt><trkpt lat="46.1445824" lon="13.4597885"><ele>649.1666666666666</ele><time>2026-05-02T12:25:29.141Z</time></trkpt><trkpt lat="46.1445448" lon="13.4596837"><ele>650.0</ele><time>2026-05-02T12:25:30.148Z</time></trkpt><trkpt lat="46.1445151" lon="13.4595679"><ele>650.0</ele><time>2026-05-02T12:25:31.144Z</time></trkpt><trkpt lat="46.1444864" lon="13.4594476"><ele>650.0</ele><time>2026-05-02T12:25:32.146Z</time></trkpt><trkpt lat="46.1444469" lon="13.459344"><ele>650.0</ele><time>2026-05-02T12:25:33.151Z</time></trkpt><trkpt lat="46.1444157" lon="13.4592556"><ele>650.0</ele><time>2026-05-02T12:25:34.142Z</time></trkpt><trkpt lat="46.1443645" lon="13.4591147"><ele>650.0</ele><time>2026-05-02T12:25:36.142Z</time></trkpt><trkpt lat="46.1443271" lon="13.4590225"><ele>650.0</ele><time>2026-05-02T12:25:39.135Z</time></trkpt><trkpt lat="46.1442913" lon="13.4589088"><ele>648.3333333333333</ele><time>2026-05-02T12:25:42.144Z</time></trkpt><trkpt lat="46.1442277" lon="13.4587834"><ele>646.6666666666666</ele><time>2026-05-02T12:25:44.146Z</time></trkpt><trkpt lat="46.1441731" lon="13.4586837"><ele>645.0</ele><time>2026-05-02T12:25:45.141Z</time></trkpt><trkpt lat="46.1441158" lon="13.4585935"><ele>643.3333333333334</ele><time>2026-05-02T12:25:46.134Z</time></trkpt><trkpt lat="46.1440615" lon="13.458508"><ele>641.6666666666667</ele><time>2026-05-02T12:25:47.144Z</time></trkpt><trkpt lat="46.1440103" lon="13.4584293"><ele>640.0</ele><time>2026-05-02T12:25:48.136Z</time></trkpt><trkpt lat="46.1439527" lon="13.4583613"><ele>640.0</ele><time>2026-05-02T12:25:49.135Z</time></trkpt><trkpt lat="46.1438929" lon="13.4582969"><ele>640.0</ele><time>2026-05-02T12:25:50.14Z</time></trkpt><trkpt lat="46.1438215" lon="13.458254"><ele>640.0</ele><time>2026-05-02T12:25:51.149Z</time></trkpt><trkpt lat="46.1437451" lon="13.4582085"><ele>640.0</ele><time>2026-05-02T12:25:52.137Z</time></trkpt><trkpt lat="46.1436659" lon="13.4581705"><ele>640.0</ele><time>2026-05-02T12:25:53.14Z</time></trkpt><trkpt lat="46.1435752" lon="13.4581371"><ele>640.0</ele><time>2026-05-02T12:25:54.138Z</time></trkpt><trkpt lat="46.1434788" lon="13.4580859"><ele>640.0</ele><time>2026-05-02T12:25:55.129Z</time></trkpt><trkpt lat="46.1433686" lon="13.458027"><ele>640.0</ele><time>2026-05-02T12:25:56.151Z</time></trkpt><trkpt lat="46.1432483" lon="13.4579698"><ele>640.0</ele><time>2026-05-02T12:25:57.133Z</time></trkpt><trkpt lat="46.1431174" lon="13.4579059"><ele>640.0</ele><time>2026-05-02T12:25:58.13Z</time></trkpt><trkpt lat="46.1429963" lon="13.4578406"><ele>634.6</ele><time>2026-05-02T12:25:59.132Z</time></trkpt><trkpt lat="46.1428777" lon="13.4577652"><ele>629.2</ele><time>2026-05-02T12:26:00.126Z</time></trkpt><trkpt lat="46.1427671" lon="13.4576827"><ele>623.8</ele><time>2026-05-02T12:26:01.135Z</time></trkpt><trkpt lat="46.1426762" lon="13.4576086"><ele>618.4</ele><time>2026-05-02T12:26:02.128Z</time></trkpt><trkpt lat="46.1426018" lon="13.4575377"><ele>613.0</ele><time>2026-05-02T12:26:03.133Z</time></trkpt><trkpt lat="46.1425309" lon="13.4574813"><ele>613.0</ele><time>2026-05-02T12:26:04.131Z</time></trkpt><trkpt lat="46.1424541" lon="13.4574498"><ele>613.0</ele><time>2026-05-02T12:26:05.127Z</time></trkpt><trkpt lat="46.1423889" lon="13.4574702"><ele>613.0</ele><time>2026-05-02T12:26:06.137Z</time></trkpt><trkpt lat="46.1423055" lon="13.4575174"><ele>613.0</ele><time>2026-05-02T12:26:07.143Z</time></trkpt><trkpt lat="46.1422228" lon="13.4575771"><ele>613.0</ele><time>2026-05-02T12:26:08.14Z</time></trkpt><trkpt lat="46.1421483" lon="13.4576321"><ele>613.0</ele><time>2026-05-02T12:26:09.139Z</time></trkpt><trkpt lat="46.142067" lon="13.4576818"><ele>610.0</ele><time>2026-05-02T12:26:10.133Z</time></trkpt><trkpt lat="46.14198" lon="13.457721"><ele>607.0</ele><time>2026-05-02T12:26:11.128Z</time></trkpt><trkpt lat="46.1418849" lon="13.4577545"><ele>604.0</ele><time>2026-05-02T12:26:12.136Z</time></trkpt><trkpt lat="46.14179" lon="13.4577759"><ele>601.0</ele><time>2026-05-02T12:26:13.147Z</time></trkpt><trkpt lat="46.1417006" lon="13.4577868"><ele>598.0</ele><time>2026-05-02T12:26:14.128Z</time></trkpt><trkpt lat="46.141627" lon="13.4578125"><ele>598.0</ele><time>2026-05-02T12:26:15.132Z</time></trkpt><trkpt lat="46.1415682" lon="13.4578645"><ele>598.0</ele><time>2026-05-02T12:26:16.129Z</time></trkpt><trkpt lat="46.1415103" lon="13.4579243"><ele>598.0</ele><time>2026-05-02T12:26:17.134Z</time></trkpt><trkpt lat="46.1414495" lon="13.4579977"><ele>598.0</ele><time>2026-05-02T12:26:18.134Z</time></trkpt><trkpt lat="46.1413821" lon="13.4580471"><ele>598.0</ele><time>2026-05-02T12:26:19.145Z</time></trkpt><trkpt lat="46.1413115" lon="13.4580865"><ele>598.0</ele><time>2026-05-02T12:26:20.127Z</time></trkpt><trkpt lat="46.1412358" lon="13.4581128"><ele>598.0</ele><time>2026-05-02T12:26:21.131Z</time></trkpt><trkpt lat="46.1411623" lon="13.4581283"><ele>599.0</ele><time>2026-05-02T12:26:22.127Z</time></trkpt><trkpt lat="46.1410972" lon="13.4581441"><ele>600.0</ele><time>2026-05-02T12:26:23.134Z</time></trkpt><trkpt lat="46.1410303" lon="13.4581635"><ele>601.0</ele><time>2026-05-02T12:26:24.133Z</time></trkpt><trkpt lat="46.1409665" lon="13.458178"><ele>602.0</ele><time>2026-05-02T12:26:25.131Z</time></trkpt><trkpt lat="46.1409035" lon="13.4581871"><ele>603.0</ele><time>2026-05-02T12:26:26.131Z</time></trkpt><trkpt lat="46.1408362" lon="13.45821"><ele>604.0</ele><time>2026-05-02T12:26:27.144Z</time></trkpt><trkpt lat="46.140765" lon="13.4582243"><ele>605.0</ele><time>2026-05-02T12:26:28.126Z</time></trkpt><trkpt lat="46.140693" lon="13.4582356"><ele>605.0</ele><time>2026-05-02T12:26:29.133Z</time></trkpt><trkpt lat="46.1406255" lon="13.4582388"><ele>605.0</ele><time>2026-05-02T12:26:30.138Z</time></trkpt><trkpt lat="46.1405485" lon="13.4582241"><ele>605.0</ele><time>2026-05-02T12:26:31.134Z</time></trkpt><trkpt lat="46.1404721" lon="13.4581955"><ele>605.0</ele><time>2026-05-02T12:26:32.128Z</time></trkpt><trkpt lat="46.1404047" lon="13.4581692"><ele>605.0</ele><time>2026-05-02T12:26:33.127Z</time></trkpt><trkpt lat="46.140332" lon="13.4581363"><ele>605.0</ele><time>2026-05-02T12:26:34.123Z</time></trkpt><trkpt lat="46.1402605" lon="13.4581157"><ele>605.0</ele><time>2026-05-02T12:26:35.134Z</time></trkpt><trkpt lat="46.1401928" lon="13.4580885"><ele>605.0</ele><time>2026-05-02T12:26:36.131Z</time></trkpt><trkpt lat="46.1401221" lon="13.458071"><ele>605.0</ele><time>2026-05-02T12:26:37.139Z</time></trkpt><trkpt lat="46.1400481" lon="13.4580574"><ele>605.0</ele><time>2026-05-02T12:26:38.133Z</time></trkpt><trkpt lat="46.1399218" lon="13.4580573"><ele>605.0</ele><time>2026-05-02T12:26:40.126Z</time></trkpt><trkpt lat="46.1398476" lon="13.4580522"><ele>605.0</ele><time>2026-05-02T12:26:41.133Z</time></trkpt><trkpt lat="46.1397655" lon="13.4580589"><ele>605.0</ele><time>2026-05-02T12:26:42.139Z</time></trkpt><trkpt lat="46.1396761" lon="13.4580725"><ele>602.0</ele><time>2026-05-02T12:26:43.136Z</time></trkpt><trkpt lat="46.1395951" lon="13.4580904"><ele>599.0</ele><time>2026-05-02T12:26:44.133Z</time></trkpt><trkpt lat="46.1395143" lon="13.4581006"><ele>596.0</ele><time>2026-05-02T12:26:45.135Z</time></trkpt><trkpt lat="46.1394342" lon="13.4581184"><ele>593.0</ele><time>2026-05-02T12:26:46.132Z</time></trkpt><trkpt lat="46.1393567" lon="13.4581368"><ele>590.0</ele><time>2026-05-02T12:26:47.146Z</time></trkpt><trkpt lat="46.1392891" lon="13.4581613"><ele>587.0</ele><time>2026-05-02T12:26:48.129Z</time></trkpt><trkpt lat="46.1391855" lon="13.4582264"><ele>587.0</ele><time>2026-05-02T12:26:50.138Z</time></trkpt><trkpt lat="46.1390948" lon="13.4583228"><ele>587.0</ele><time>2026-05-02T12:26:52.133Z</time></trkpt><trkpt lat="46.1389859" lon="13.4584097"><ele>587.0</ele><time>2026-05-02T12:26:54.135Z</time></trkpt><trkpt lat="46.1389281" lon="13.4584508"><ele>587.0</ele><time>2026-05-02T12:26:55.133Z</time></trkpt><trkpt lat="46.1388706" lon="13.4584927"><ele>587.0</ele><time>2026-05-02T12:26:56.126Z</time></trkpt><trkpt lat="46.1388138" lon="13.4585327"><ele>587.0</ele><time>2026-05-02T12:26:57.133Z</time></trkpt><trkpt lat="46.138707" lon="13.4586051"><ele>583.6666666666666</ele><time>2026-05-02T12:26:59.137Z</time></trkpt><trkpt lat="46.1385918" lon="13.4586355"><ele>580.3333333333333</ele><time>2026-05-02T12:27:01.132Z</time></trkpt><trkpt lat="46.1385273" lon="13.4586262"><ele>577.0</ele><time>2026-05-02T12:27:02.125Z</time></trkpt><trkpt lat="46.1384544" lon="13.4586053"><ele>573.6666666666666</ele><time>2026-05-02T12:27:03.13Z</time></trkpt><trkpt lat="46.1383818" lon="13.4585869"><ele>570.3333333333334</ele><time>2026-05-02T12:27:04.138Z</time></trkpt><trkpt lat="46.1383048" lon="13.4585669"><ele>567.0</ele><time>2026-05-02T12:27:05.13Z</time></trkpt><trkpt lat="46.1382215" lon="13.4585472"><ele>566.1428571428571</ele><time>2026-05-02T12:27:06.131Z</time></trkpt><trkpt lat="46.1381421" lon="13.4585206"><ele>565.2857142857142</ele><time>2026-05-02T12:27:07.141Z</time></trkpt><trkpt lat="46.13807" lon="13.4584871"><ele>564.4285714285714</ele><time>2026-05-02T12:27:08.133Z</time></trkpt><trkpt lat="46.1379965" lon="13.4584685"><ele>563.5714285714286</ele><time>2026-05-02T12:27:09.134Z</time></trkpt><trkpt lat="46.137922" lon="13.4584542"><ele>562.7142857142857</ele><time>2026-05-02T12:27:10.127Z</time></trkpt><trkpt lat="46.1378548" lon="13.4584413"><ele>561.8571428571429</ele><time>2026-05-02T12:27:11.137Z</time></trkpt><trkpt lat="46.1377872" lon="13.4584406"><ele>561.0</ele><time>2026-05-02T12:27:12.134Z</time></trkpt><trkpt lat="46.1377167" lon="13.4584426"><ele>561.0</ele><time>2026-05-02T12:27:13.14Z</time></trkpt><trkpt lat="46.137646" lon="13.4584509"><ele>561.0</ele><time>2026-05-02T12:27:14.14Z</time></trkpt><trkpt lat="46.1375766" lon="13.458465"><ele>561.0</ele><time>2026-05-02T12:27:15.122Z</time></trkpt><trkpt lat="46.1375039" lon="13.4584692"><ele>561.0</ele><time>2026-05-02T12:27:16.145Z</time></trkpt><trkpt lat="46.137439" lon="13.4584861"><ele>561.0</ele><time>2026-05-02T12:27:17.133Z</time></trkpt><trkpt lat="46.1373722" lon="13.458513"><ele>561.0</ele><time>2026-05-02T12:27:18.136Z</time></trkpt><trkpt lat="46.1373095" lon="13.4585348"><ele>561.0</ele><time>2026-05-02T12:27:19.144Z</time></trkpt><trkpt lat="46.1371931" lon="13.4585843"><ele>559.0</ele><time>2026-05-02T12:27:21.141Z</time></trkpt><trkpt lat="46.1370794" lon="13.4586379"><ele>557.0</ele><time>2026-05-02T12:27:23.141Z</time></trkpt><trkpt lat="46.1369672" lon="13.4586784"><ele>555.0</ele><time>2026-05-02T12:27:25.132Z</time></trkpt><trkpt lat="46.1369022" lon="13.4587046"><ele>553.0</ele><time>2026-05-02T12:27:26.134Z</time></trkpt><trkpt lat="46.1368379" lon="13.4587289"><ele>551.0</ele><time>2026-05-02T12:27:27.138Z</time></trkpt><trkpt lat="46.1367672" lon="13.458753"><ele>549.0</ele><time>2026-05-02T12:27:28.143Z</time></trkpt><trkpt lat="46.1367035" lon="13.4587739"><ele>551.0</ele><time>2026-05-02T12:27:29.134Z</time></trkpt><trkpt lat="46.1366357" lon="13.458799"><ele>553.0</ele><time>2026-05-02T12:27:30.136Z</time></trkpt><trkpt lat="46.1365759" lon="13.4588281"><ele>555.0</ele><time>2026-05-02T12:27:31.14Z</time></trkpt><trkpt lat="46.136463" lon="13.458892"><ele>557.0</ele><time>2026-05-02T12:27:33.135Z</time></trkpt><trkpt lat="46.1363988" lon="13.4589372"><ele>559.0</ele><time>2026-05-02T12:27:34.129Z</time></trkpt><trkpt lat="46.1363282" lon="13.4589674"><ele>561.0</ele><time>2026-05-02T12:27:35.137Z</time></trkpt><trkpt lat="46.1362541" lon="13.4589829"><ele>561.0</ele><time>2026-05-02T12:27:36.145Z</time></trkpt><trkpt lat="46.1361792" lon="13.4589907"><ele>561.0</ele><time>2026-05-02T12:27:37.145Z</time></trkpt><trkpt lat="46.1360965" lon="13.4589808"><ele>561.0</ele><time>2026-05-02T12:27:38.149Z</time></trkpt><trkpt lat="46.1360212" lon="13.4589641"><ele>561.0</ele><time>2026-05-02T12:27:39.138Z</time></trkpt><trkpt lat="46.1359555" lon="13.4589383"><ele>561.0</ele><time>2026-05-02T12:27:40.141Z</time></trkpt><trkpt lat="46.1358463" lon="13.4588709"><ele>561.0</ele><time>2026-05-02T12:27:42.141Z</time></trkpt><trkpt lat="46.1357952" lon="13.4587976"><ele>560.8571428571429</ele><time>2026-05-02T12:27:44.138Z</time></trkpt><trkpt lat="46.1357854" lon="13.4586969"><ele>560.7142857142857</ele><time>2026-05-02T12:28:10.133Z</time></trkpt><trkpt lat="46.1358038" lon="13.4586056"><ele>560.5714285714286</ele><time>2026-05-02T12:28:11.139Z</time></trkpt><trkpt lat="46.1358137" lon="13.4585032"><ele>560.4285714285714</ele><time>2026-05-02T12:28:12.138Z</time></trkpt><trkpt lat="46.1358326" lon="13.4584074"><ele>560.2857142857142</ele><time>2026-05-02T12:28:13.145Z</time></trkpt><trkpt lat="46.1358571" lon="13.4583012"><ele>560.1428571428571</ele><time>2026-05-02T12:28:14.142Z</time></trkpt><trkpt lat="46.1358744" lon="13.4581845"><ele>560.0</ele><time>2026-05-02T12:28:15.132Z</time></trkpt><trkpt lat="46.1358868" lon="13.4580603"><ele>560.2</ele><time>2026-05-02T12:28:16.143Z</time></trkpt><trkpt lat="46.1358946" lon="13.4579206"><ele>560.4</ele><time>2026-05-02T12:28:17.15Z</time></trkpt><trkpt lat="46.1359025" lon="13.4577721"><ele>560.6</ele><time>2026-05-02T12:28:18.154Z</time></trkpt><trkpt lat="46.1359076" lon="13.4576186"><ele>560.8</ele><time>2026-05-02T12:28:19.139Z</time></trkpt><trkpt lat="46.1359146" lon="13.4574663"><ele>561.0</ele><time>2026-05-02T12:28:20.139Z</time></trkpt><trkpt lat="46.1359234" lon="13.4573194"><ele>561.0</ele><time>2026-05-02T12:28:21.149Z</time></trkpt><trkpt lat="46.1359313" lon="13.457182"><ele>561.0</ele><time>2026-05-02T12:28:22.141Z</time></trkpt><trkpt lat="46.1359404" lon="13.457052"><ele>561.0</ele><time>2026-05-02T12:28:23.148Z</time></trkpt><trkpt lat="46.1359492" lon="13.4569224"><ele>561.0</ele><time>2026-05-02T12:28:24.143Z</time></trkpt><trkpt lat="46.1359534" lon="13.4567929"><ele>561.0</ele><time>2026-05-02T12:28:25.15Z</time></trkpt><trkpt lat="46.1359542" lon="13.4566643"><ele>560.0</ele><time>2026-05-02T12:28:26.133Z</time></trkpt><trkpt lat="46.1359622" lon="13.4565305"><ele>559.0</ele><time>2026-05-02T12:28:27.134Z</time></trkpt><trkpt lat="46.1359837" lon="13.4563719"><ele>558.0</ele><time>2026-05-02T12:28:28.145Z</time></trkpt><trkpt lat="46.1360065" lon="13.4562157"><ele>557.0</ele><time>2026-05-02T12:28:29.137Z</time></trkpt><trkpt lat="46.1360359" lon="13.4560614"><ele>556.0</ele><time>2026-05-02T12:28:30.141Z</time></trkpt><trkpt lat="46.136065" lon="13.4559283"><ele>555.0</ele><time>2026-05-02T12:28:31.154Z</time></trkpt><trkpt lat="46.1360829" lon="13.4558104"><ele>554.0</ele><time>2026-05-02T12:28:32.143Z</time></trkpt><trkpt lat="46.1360883" lon="13.4556912"><ele>553.0</ele><time>2026-05-02T12:28:33.146Z</time></trkpt><trkpt lat="46.1360795" lon="13.4555868"><ele>552.0</ele><time>2026-05-02T12:28:34.144Z</time></trkpt><trkpt lat="46.1360528" lon="13.4554928"><ele>551.0</ele><time>2026-05-02T12:28:35.156Z</time></trkpt><trkpt lat="46.1360211" lon="13.4554019"><ele>550.0</ele><time>2026-05-02T12:28:36.144Z</time></trkpt><trkpt lat="46.1359661" lon="13.4553101"><ele>548.4</ele><time>2026-05-02T12:28:37.143Z</time></trkpt><trkpt lat="46.1358879" lon="13.4552239"><ele>546.8</ele><time>2026-05-02T12:28:38.142Z</time></trkpt><trkpt lat="46.1358114" lon="13.4551359"><ele>545.2</ele><time>2026-05-02T12:28:39.136Z</time></trkpt><trkpt lat="46.135747" lon="13.4550372"><ele>543.6</ele><time>2026-05-02T12:28:40.136Z</time></trkpt><trkpt lat="46.1356909" lon="13.4549335"><ele>542.0</ele><time>2026-05-02T12:28:41.14Z</time></trkpt><trkpt lat="46.1356393" lon="13.4548308"><ele>542.0</ele><time>2026-05-02T12:28:42.152Z</time></trkpt><trkpt lat="46.1355896" lon="13.4547269"><ele>542.0</ele><time>2026-05-02T12:28:43.141Z</time></trkpt><trkpt lat="46.1355432" lon="13.4546287"><ele>542.0</ele><time>2026-05-02T12:28:44.146Z</time></trkpt><trkpt lat="46.1354993" lon="13.4545167"><ele>542.0</ele><time>2026-05-02T12:28:45.151Z</time></trkpt><trkpt lat="46.135463" lon="13.4544206"><ele>542.0</ele><time>2026-05-02T12:28:46.148Z</time></trkpt><trkpt lat="46.1353967" lon="13.4542866"><ele>542.0</ele><time>2026-05-02T12:28:48.148Z</time></trkpt><trkpt lat="46.135282" lon="13.4542198"><ele>539.6666666666666</ele><time>2026-05-02T12:28:50.164Z</time></trkpt><trkpt lat="46.135193" lon="13.4542074"><ele>537.3333333333333</ele><time>2026-05-02T12:28:51.139Z</time></trkpt><trkpt lat="46.1351047" lon="13.4542015"><ele>535.0</ele><time>2026-05-02T12:28:52.145Z</time></trkpt><trkpt lat="46.1350168" lon="13.4542118"><ele>532.6666666666666</ele><time>2026-05-02T12:28:53.14Z</time></trkpt><trkpt lat="46.1349373" lon="13.4542162"><ele>530.3333333333334</ele><time>2026-05-02T12:28:54.145Z</time></trkpt><trkpt lat="46.134842" lon="13.4542016"><ele>528.0</ele><time>2026-05-02T12:28:56.152Z</time></trkpt><trkpt lat="46.1348441" lon="13.4540247"><ele>528.0</ele><time>2026-05-02T12:28:58.147Z</time></trkpt><trkpt lat="46.1348634" lon="13.4539059"><ele>528.0</ele><time>2026-05-02T12:28:59.141Z</time></trkpt><trkpt lat="46.1349082" lon="13.4537919"><ele>528.0</ele><time>2026-05-02T12:29:00.145Z</time></trkpt><trkpt lat="46.1349656" lon="13.4536738"><ele>528.0</ele><time>2026-05-02T12:29:01.136Z</time></trkpt><trkpt lat="46.1350207" lon="13.4535544"><ele>528.0</ele><time>2026-05-02T12:29:02.141Z</time></trkpt><trkpt lat="46.1350742" lon="13.4534359"><ele>524.6</ele><time>2026-05-02T12:29:03.153Z</time></trkpt><trkpt lat="46.135131" lon="13.453316"><ele>521.1999999999999</ele><time>2026-05-02T12:29:04.146Z</time></trkpt><trkpt lat="46.135185" lon="13.4532026"><ele>517.8</ele><time>2026-05-02T12:29:05.136Z</time></trkpt><trkpt lat="46.1352275" lon="13.4530987"><ele>514.4</ele><time>2026-05-02T12:29:06.142Z</time></trkpt><trkpt lat="46.1352605" lon="13.4529852"><ele>511.0</ele><time>2026-05-02T12:29:07.147Z</time></trkpt><trkpt lat="46.1352777" lon="13.4528634"><ele>510.1666666666667</ele><time>2026-05-02T12:29:08.139Z</time></trkpt><trkpt lat="46.1352821" lon="13.4527365"><ele>509.33333333333337</ele><time>2026-05-02T12:29:09.137Z</time></trkpt><trkpt lat="46.1352893" lon="13.4526226"><ele>508.5</ele><time>2026-05-02T12:29:10.147Z</time></trkpt><trkpt lat="46.1352875" lon="13.452513"><ele>507.66666666666663</ele><time>2026-05-02T12:29:11.148Z</time></trkpt><trkpt lat="46.1352751" lon="13.4524184"><ele>506.8333333333333</ele><time>2026-05-02T12:29:12.156Z</time></trkpt><trkpt lat="46.1351992" lon="13.4522879"><ele>506.0</ele><time>2026-05-02T12:29:14.144Z</time></trkpt><trkpt lat="46.1351413" lon="13.4522456"><ele>505.99999999999994</ele><time>2026-05-02T12:29:15.146Z</time></trkpt><trkpt lat="46.1350356" lon="13.4522279"><ele>506.0</ele><time>2026-05-02T12:29:17.138Z</time></trkpt><trkpt lat="46.1350737" lon="13.4521268"><ele>506.0</ele><time>2026-05-02T12:29:38.156Z</time></trkpt><trkpt lat="46.1351384" lon="13.4520664"><ele>506.0</ele><time>2026-05-02T12:29:40.157Z</time></trkpt><trkpt lat="46.1352227" lon="13.4520121"><ele>505.99999999999994</ele><time>2026-05-02T12:29:42.151Z</time></trkpt><trkpt lat="46.13531" lon="13.4519996"><ele>506.0</ele><time>2026-05-02T12:29:44.157Z</time></trkpt><trkpt lat="46.1354121" lon="13.4520603"><ele>506.0</ele><time>2026-05-02T12:29:46.141Z</time></trkpt><trkpt lat="46.1355139" lon="13.4521985"><ele>506.0</ele><time>2026-05-02T12:29:48.15Z</time></trkpt><trkpt lat="46.1355642" lon="13.4523242"><ele>506.0</ele><time>2026-05-02T12:29:49.141Z</time></trkpt><trkpt lat="46.1355988" lon="13.4524724"><ele>506.0</ele><time>2026-05-02T12:29:50.157Z</time></trkpt><trkpt lat="46.1356374" lon="13.4526207"><ele>505.99999999999994</ele><time>2026-05-02T12:29:51.144Z</time></trkpt><trkpt lat="46.1356633" lon="13.4527665"><ele>506.0</ele><time>2026-05-02T12:29:52.152Z</time></trkpt><trkpt lat="46.1356763" lon="13.4529065"><ele>506.0</ele><time>2026-05-02T12:29:53.147Z</time></trkpt><trkpt lat="46.1356696" lon="13.4530363"><ele>506.0</ele><time>2026-05-02T12:29:54.151Z</time></trkpt><trkpt lat="46.1356581" lon="13.4531607"><ele>505.99999999999994</ele><time>2026-05-02T12:29:55.143Z</time></trkpt><trkpt lat="46.1356313" lon="13.4532536"><ele>506.0</ele><time>2026-05-02T12:29:56.145Z</time></trkpt><trkpt lat="46.1355924" lon="13.4533977"><ele>506.8333333333333</ele><time>2026-05-02T12:29:58.171Z</time></trkpt><trkpt lat="46.1356445" lon="13.4534738"><ele>507.66666666666663</ele><time>2026-05-02T12:30:00.146Z</time></trkpt><trkpt lat="46.1357147" lon="13.4535027"><ele>508.5</ele><time>2026-05-02T12:30:01.137Z</time></trkpt><trkpt lat="46.1358114" lon="13.4535338"><ele>509.33333333333337</ele><time>2026-05-02T12:30:02.134Z</time></trkpt><trkpt lat="46.1358983" lon="13.4535689"><ele>510.1666666666667</ele><time>2026-05-02T12:30:03.142Z</time></trkpt><trkpt lat="46.1359847" lon="13.4536096"><ele>511.0</ele><time>2026-05-02T12:30:04.157Z</time></trkpt><trkpt lat="46.1360765" lon="13.4536659"><ele>509.8</ele><time>2026-05-02T12:30:05.152Z</time></trkpt><trkpt lat="46.1361701" lon="13.4537425"><ele>508.6</ele><time>2026-05-02T12:30:06.139Z</time></trkpt><trkpt lat="46.1362593" lon="13.4538174"><ele>507.4</ele><time>2026-05-02T12:30:07.146Z</time></trkpt><trkpt lat="46.1363399" lon="13.4538861"><ele>506.2</ele><time>2026-05-02T12:30:08.145Z</time></trkpt><trkpt lat="46.1364145" lon="13.4539348"><ele>505.0</ele><time>2026-05-02T12:30:09.145Z</time></trkpt><trkpt lat="46.136481" lon="13.4539498"><ele>501.4</ele><time>2026-05-02T12:30:10.15Z</time></trkpt><trkpt lat="46.1365957" lon="13.4538954"><ele>497.8</ele><time>2026-05-02T12:30:12.144Z</time></trkpt><trkpt lat="46.1367009" lon="13.4538494"><ele>494.20000000000005</ele><time>2026-05-02T12:30:14.142Z</time></trkpt><trkpt lat="46.1367672" lon="13.4539006"><ele>490.6</ele><time>2026-05-02T12:30:15.135Z</time></trkpt><trkpt lat="46.136832" lon="13.4539866"><ele>487.0</ele><time>2026-05-02T12:30:16.136Z</time></trkpt><trkpt lat="46.136893" lon="13.454093"><ele>487.0</ele><time>2026-05-02T12:30:17.133Z</time></trkpt><trkpt lat="46.1369647" lon="13.4541906"><ele>487.00000000000006</ele><time>2026-05-02T12:30:18.137Z</time></trkpt><trkpt lat="46.1370322" lon="13.4542862"><ele>487.00000000000006</ele><time>2026-05-02T12:30:19.134Z</time></trkpt><trkpt lat="46.137097" lon="13.454382"><ele>487.0</ele><time>2026-05-02T12:30:20.145Z</time></trkpt><trkpt lat="46.1371683" lon="13.4544757"><ele>487.0</ele><time>2026-05-02T12:30:21.134Z</time></trkpt><trkpt lat="46.1372417" lon="13.4545554"><ele>490.00000000000006</ele><time>2026-05-02T12:30:22.143Z</time></trkpt><trkpt lat="46.1373114" lon="13.4546265"><ele>493.0</ele><time>2026-05-02T12:30:23.143Z</time></trkpt><trkpt lat="46.1373676" lon="13.4547074"><ele>496.0</ele><time>2026-05-02T12:30:24.158Z</time></trkpt><trkpt lat="46.1374134" lon="13.4548044"><ele>499.0</ele><time>2026-05-02T12:30:25.154Z</time></trkpt><trkpt lat="46.1374473" lon="13.454909"><ele>502.00000000000006</ele><time>2026-05-02T12:30:26.144Z</time></trkpt><trkpt lat="46.1374721" lon="13.4550359"><ele>505.0</ele><time>2026-05-02T12:30:27.142Z</time></trkpt><trkpt lat="46.1374913" lon="13.455161"><ele>499.6666666666667</ele><time>2026-05-02T12:30:28.148Z</time></trkpt><trkpt lat="46.1374835" lon="13.4552761"><ele>494.33333333333337</ele><time>2026-05-02T12:30:29.142Z</time></trkpt><trkpt lat="46.1374713" lon="13.4553901"><ele>489.0</ele><time>2026-05-02T12:30:30.151Z</time></trkpt><trkpt lat="46.1374637" lon="13.4554977"><ele>483.66666666666663</ele><time>2026-05-02T12:30:31.147Z</time></trkpt><trkpt lat="46.1375045" lon="13.4556386"><ele>478.3333333333333</ele><time>2026-05-02T12:30:33.138Z</time></trkpt><trkpt lat="46.1375962" lon="13.4556298"><ele>473.0</ele><time>2026-05-02T12:30:36.138Z</time></trkpt><trkpt lat="46.1376589" lon="13.4555345"><ele>471.4</ele><time>2026-05-02T12:30:37.136Z</time></trkpt><trkpt lat="46.1377229" lon="13.455436"><ele>469.79999999999995</ele><time>2026-05-02T12:30:38.15Z</time></trkpt><trkpt lat="46.137785" lon="13.455315"><ele>468.2</ele><time>2026-05-02T12:30:39.146Z</time></trkpt><trkpt lat="46.1378497" lon="13.4551789"><ele>466.6</ele><time>2026-05-02T12:30:40.135Z</time></trkpt><trkpt lat="46.1379231" lon="13.455047"><ele>465.0</ele><time>2026-05-02T12:30:41.138Z</time></trkpt><trkpt lat="46.1380045" lon="13.4549271"><ele>465.0</ele><time>2026-05-02T12:30:42.134Z</time></trkpt><trkpt lat="46.1380831" lon="13.4548173"><ele>465.0</ele><time>2026-05-02T12:30:43.136Z</time></trkpt><trkpt lat="46.1381673" lon="13.4547282"><ele>465.0</ele><time>2026-05-02T12:30:44.134Z</time></trkpt><trkpt lat="46.1382663" lon="13.4546535"><ele>465.0</ele><time>2026-05-02T12:30:45.134Z</time></trkpt><trkpt lat="46.1383622" lon="13.4545929"><ele>465.0</ele><time>2026-05-02T12:30:46.131Z</time></trkpt><trkpt lat="46.1384524" lon="13.4545485"><ele>460.0</ele><time>2026-05-02T12:30:47.13Z</time></trkpt><trkpt lat="46.1385518" lon="13.4545171"><ele>455.0</ele><time>2026-05-02T12:30:48.127Z</time></trkpt><trkpt lat="46.1386544" lon="13.4544781"><ele>450.0</ele><time>2026-05-02T12:30:49.133Z</time></trkpt><trkpt lat="46.1387555" lon="13.454425"><ele>445.0</ele><time>2026-05-02T12:30:50.134Z</time></trkpt><trkpt lat="46.1388566" lon="13.4543555"><ele>440.0</ele><time>2026-05-02T12:30:51.129Z</time></trkpt><trkpt lat="46.1389639" lon="13.4542748"><ele>441.75</ele><time>2026-05-02T12:30:52.136Z</time></trkpt><trkpt lat="46.1390634" lon="13.4541653"><ele>443.5</ele><time>2026-05-02T12:30:53.13Z</time></trkpt><trkpt lat="46.1391527" lon="13.4540639"><ele>445.25</ele><time>2026-05-02T12:30:54.135Z</time></trkpt><trkpt lat="46.1392506" lon="13.4539751"><ele>447.0</ele><time>2026-05-02T12:30:55.131Z</time></trkpt><trkpt lat="46.13935" lon="13.453889"><ele>447.0</ele><time>2026-05-02T12:30:56.139Z</time></trkpt><trkpt lat="46.1394493" lon="13.4538142"><ele>447.0</ele><time>2026-05-02T12:30:57.144Z</time></trkpt><trkpt lat="46.1395626" lon="13.4537468"><ele>447.0</ele><time>2026-05-02T12:30:58.159Z</time></trkpt><trkpt lat="46.139683" lon="13.4537001"><ele>447.0</ele><time>2026-05-02T12:30:59.147Z</time></trkpt><trkpt lat="46.1398004" lon="13.4536574"><ele>442.75</ele><time>2026-05-02T12:31:00.146Z</time></trkpt><trkpt lat="46.1399313" lon="13.4536299"><ele>438.5</ele><time>2026-05-02T12:31:01.156Z</time></trkpt><trkpt lat="46.1400673" lon="13.4536054"><ele>434.25</ele><time>2026-05-02T12:31:02.137Z</time></trkpt><trkpt lat="46.1401882" lon="13.4535912"><ele>430.0</ele><time>2026-05-02T12:31:03.142Z</time></trkpt><trkpt lat="46.1402873" lon="13.4535866"><ele>430.0</ele><time>2026-05-02T12:31:04.145Z</time></trkpt><trkpt lat="46.1403605" lon="13.4535865"><ele>430.0</ele><time>2026-05-02T12:31:05.161Z</time></trkpt><trkpt lat="46.1404706" lon="13.4535604"><ele>430.0</ele><time>2026-05-02T12:31:07.142Z</time></trkpt><trkpt lat="46.1405795" lon="13.4534641"><ele>430.0</ele><time>2026-05-02T12:31:09.145Z</time></trkpt><trkpt lat="46.1406593" lon="13.4533816"><ele>430.0</ele><time>2026-05-02T12:31:10.131Z</time></trkpt><trkpt lat="46.1407522" lon="13.4532838"><ele>429.5</ele><time>2026-05-02T12:31:11.14Z</time></trkpt><trkpt lat="46.1408515" lon="13.4531795"><ele>429.0</ele><time>2026-05-02T12:31:12.125Z</time></trkpt><trkpt lat="46.1409411" lon="13.4530644"><ele>428.5</ele><time>2026-05-02T12:31:13.135Z</time></trkpt><trkpt lat="46.1410284" lon="13.4529149"><ele>428.0</ele><time>2026-05-02T12:31:14.134Z</time></trkpt><trkpt lat="46.1411086" lon="13.4527455"><ele>428.0</ele><time>2026-05-02T12:31:15.139Z</time></trkpt><trkpt lat="46.1411857" lon="13.4525841"><ele>427.99999999999994</ele><time>2026-05-02T12:31:16.151Z</time></trkpt><trkpt lat="46.1412476" lon="13.4524383"><ele>427.99999999999994</ele><time>2026-05-02T12:31:17.139Z</time></trkpt><trkpt lat="46.141306" lon="13.45232"><ele>428.0</ele><time>2026-05-02T12:31:18.131Z</time></trkpt><trkpt lat="46.1413556" lon="13.4522085"><ele>428.0</ele><time>2026-05-02T12:31:19.141Z</time></trkpt><trkpt lat="46.1413969" lon="13.4521118"><ele>428.0</ele><time>2026-05-02T12:31:20.125Z</time></trkpt><trkpt lat="46.1414359" lon="13.4520291"><ele>427.99999999999994</ele><time>2026-05-02T12:31:21.135Z</time></trkpt><trkpt lat="46.141521" lon="13.4519106"><ele>427.99999999999994</ele><time>2026-05-02T12:31:23.138Z</time></trkpt><trkpt lat="46.1416177" lon="13.4518655"><ele>428.0</ele><time>2026-05-02T12:31:25.13Z</time></trkpt><trkpt lat="46.1417317" lon="13.4518504"><ele>428.0</ele><time>2026-05-02T12:31:27.156Z</time></trkpt><trkpt lat="46.1418315" lon="13.4518224"><ele>427.99999999999994</ele><time>2026-05-02T12:31:29.144Z</time></trkpt><trkpt lat="46.1418897" lon="13.4517834"><ele>428.0</ele><time>2026-05-02T12:31:46.141Z</time></trkpt><trkpt lat="46.1419279" lon="13.451695"><ele>428.0</ele><time>2026-05-02T12:31:49.139Z</time></trkpt><trkpt lat="46.1419903" lon="13.4515849"><ele>428.0</ele><time>2026-05-02T12:31:51.145Z</time></trkpt><trkpt lat="46.1420547" lon="13.4515335"><ele>427.99999999999994</ele><time>2026-05-02T12:31:52.147Z</time></trkpt><trkpt lat="46.1421233" lon="13.4515116"><ele>428.0</ele><time>2026-05-02T12:31:53.133Z</time></trkpt><trkpt lat="46.1422036" lon="13.4514894"><ele>428.0</ele><time>2026-05-02T12:31:54.143Z</time></trkpt><trkpt lat="46.1422874" lon="13.451446"><ele>427.99999999999994</ele><time>2026-05-02T12:31:55.139Z</time></trkpt><trkpt lat="46.1423609" lon="13.4513885"><ele>427.99999999999994</ele><time>2026-05-02T12:31:56.138Z</time></trkpt><trkpt lat="46.1424285" lon="13.4512961"><ele>428.0</ele><time>2026-05-02T12:31:57.145Z</time></trkpt><trkpt lat="46.1424903" lon="13.4511537"><ele>428.0</ele><time>2026-05-02T12:31:58.151Z</time></trkpt><trkpt lat="46.1425574" lon="13.4509953"><ele>426.0</ele><time>2026-05-02T12:31:59.143Z</time></trkpt><trkpt lat="46.1426301" lon="13.4508401"><ele>424.0</ele><time>2026-05-02T12:32:00.145Z</time></trkpt><trkpt lat="46.1426892" lon="13.4506914"><ele>422.0</ele><time>2026-05-02T12:32:01.15Z</time></trkpt><trkpt lat="46.1427456" lon="13.4505503"><ele>420.0</ele><time>2026-05-02T12:32:02.151Z</time></trkpt><trkpt lat="46.1427957" lon="13.4504103"><ele>416.6</ele><time>2026-05-02T12:32:03.14Z</time></trkpt><trkpt lat="46.1428362" lon="13.4502744"><ele>413.2</ele><time>2026-05-02T12:32:04.145Z</time></trkpt><trkpt lat="46.1428825" lon="13.4501385"><ele>409.79999999999995</ele><time>2026-05-02T12:32:05.14Z</time></trkpt><trkpt lat="46.1429244" lon="13.4500135"><ele>406.4</ele><time>2026-05-02T12:32:06.148Z</time></trkpt><trkpt lat="46.1429579" lon="13.4499031"><ele>403.0</ele><time>2026-05-02T12:32:07.155Z</time></trkpt><trkpt lat="46.1430098" lon="13.4498266"><ele>403.00000000000006</ele><time>2026-05-02T12:32:08.15Z</time></trkpt><trkpt lat="46.14306" lon="13.4497633"><ele>403.0</ele><time>2026-05-02T12:32:09.157Z</time></trkpt><trkpt lat="46.1430939" lon="13.4496444"><ele>403.0</ele><time>2026-05-02T12:32:11.154Z</time></trkpt><trkpt lat="46.1429883" lon="13.4495935"><ele>403.0</ele><time>2026-05-02T12:32:13.138Z</time></trkpt><trkpt lat="46.1429261" lon="13.449615"><ele>403.00000000000006</ele><time>2026-05-02T12:32:14.148Z</time></trkpt><trkpt lat="46.1428569" lon="13.4496599"><ele>403.0</ele><time>2026-05-02T12:32:15.135Z</time></trkpt><trkpt lat="46.1427885" lon="13.4497228"><ele>403.0</ele><time>2026-05-02T12:32:16.133Z</time></trkpt><trkpt lat="46.1427286" lon="13.4497942"><ele>403.0</ele><time>2026-05-02T12:32:17.145Z</time></trkpt><trkpt lat="46.1426656" lon="13.4498944"><ele>403.0</ele><time>2026-05-02T12:32:18.137Z</time></trkpt><trkpt lat="46.1426021" lon="13.4500166"><ele>403.0</ele><time>2026-05-02T12:32:19.139Z</time></trkpt><trkpt lat="46.1425398" lon="13.4501442"><ele>403.0</ele><time>2026-05-02T12:32:20.142Z</time></trkpt><trkpt lat="46.1424796" lon="13.4502689"><ele>403.00000000000006</ele><time>2026-05-02T12:32:21.145Z</time></trkpt><trkpt lat="46.1424326" lon="13.450384"><ele>403.0</ele><time>2026-05-02T12:32:22.146Z</time></trkpt><trkpt lat="46.1423996" lon="13.4504709"><ele>403.0</ele><time>2026-05-02T12:32:23.143Z</time></trkpt><trkpt lat="46.1423182" lon="13.4504629"><ele>403.0</ele><time>2026-05-02T12:32:26.141Z</time></trkpt><trkpt lat="46.1423286" lon="13.450345"><ele>403.00000000000006</ele><time>2026-05-02T12:32:29.143Z</time></trkpt><trkpt lat="46.1423718" lon="13.450262"><ele>403.0</ele><time>2026-05-02T12:32:31.145Z</time></trkpt><trkpt lat="46.142389" lon="13.4501726"><ele>403.0</ele><time>2026-05-02T12:32:33.153Z</time></trkpt><trkpt lat="46.1424451" lon="13.4500291"><ele>403.0</ele><time>2026-05-02T12:32:35.148Z</time></trkpt><trkpt lat="46.1424975" lon="13.449874"><ele>403.0</ele><time>2026-05-02T12:32:37.149Z</time></trkpt><trkpt lat="46.1425393" lon="13.4497319"><ele>403.0</ele><time>2026-05-02T12:32:39.146Z</time></trkpt><trkpt lat="46.1425715" lon="13.4496085"><ele>403.0</ele><time>2026-05-02T12:32:41.145Z</time></trkpt><trkpt lat="46.1425955" lon="13.449495"><ele>400.7142857142857</ele><time>2026-05-02T12:34:26.157Z</time></trkpt><trkpt lat="46.1426119" lon="13.4493997"><ele>398.4285714285714</ele><time>2026-05-02T12:34:28.157Z</time></trkpt><trkpt lat="46.1426295" lon="13.4492802"><ele>396.1428571428571</ele><time>2026-05-02T12:34:30.158Z</time></trkpt><trkpt lat="46.142648" lon="13.4491803"><ele>393.8571428571429</ele><time>2026-05-02T12:34:31.164Z</time></trkpt><trkpt lat="46.1426699" lon="13.4490894"><ele>391.57142857142856</ele><time>2026-05-02T12:34:32.158Z</time></trkpt><trkpt lat="46.1427015" lon="13.4490051"><ele>389.2857142857143</ele><time>2026-05-02T12:34:33.158Z</time></trkpt><trkpt lat="46.1427386" lon="13.4489136"><ele>387.0</ele><time>2026-05-02T12:34:34.165Z</time></trkpt><trkpt lat="46.142787" lon="13.4488314"><ele>385.0</ele><time>2026-05-02T12:34:35.16Z</time></trkpt><trkpt lat="46.1428414" lon="13.4487667"><ele>383.0</ele><time>2026-05-02T12:34:36.16Z</time></trkpt><trkpt lat="46.1428992" lon="13.4487094"><ele>381.0</ele><time>2026-05-02T12:34:37.158Z</time></trkpt><trkpt lat="46.1429594" lon="13.448672"><ele>379.0</ele><time>2026-05-02T12:34:38.168Z</time></trkpt><trkpt lat="46.1430172" lon="13.4486302"><ele>377.0</ele><time>2026-05-02T12:34:39.16Z</time></trkpt><trkpt lat="46.1430783" lon="13.4485845"><ele>375.0</ele><time>2026-05-02T12:34:40.165Z</time></trkpt><trkpt lat="46.1431733" lon="13.4484865"><ele>374.6</ele><time>2026-05-02T12:34:42.161Z</time></trkpt><trkpt lat="46.1432291" lon="13.4483424"><ele>374.2</ele><time>2026-05-02T12:34:44.146Z</time></trkpt><trkpt lat="46.1432508" lon="13.4482078"><ele>373.79999999999995</ele><time>2026-05-02T12:34:46.146Z</time></trkpt><trkpt lat="46.1432501" lon="13.4480388"><ele>373.4</ele><time>2026-05-02T12:34:48.154Z</time></trkpt><trkpt lat="46.1432554" lon="13.4479465"><ele>373.0</ele><time>2026-05-02T12:34:49.162Z</time></trkpt><trkpt lat="46.1432594" lon="13.4478474"><ele>373.0</ele><time>2026-05-02T12:34:50.171Z</time></trkpt><trkpt lat="46.1432726" lon="13.4477491"><ele>373.0</ele><time>2026-05-02T12:34:51.157Z</time></trkpt><trkpt lat="46.1432958" lon="13.4476542"><ele>373.0</ele><time>2026-05-02T12:34:52.19Z</time></trkpt><trkpt lat="46.1433291" lon="13.4475695"><ele>373.0</ele><time>2026-05-02T12:34:53.141Z</time></trkpt><trkpt lat="46.1434099" lon="13.4474909"><ele>373.0</ele><time>2026-05-02T12:34:55.144Z</time></trkpt><trkpt lat="46.143486" lon="13.4474696"><ele>373.0</ele><time>2026-05-02T12:34:57.15Z</time></trkpt><trkpt lat="46.1435825" lon="13.4474597"><ele>373.0</ele><time>2026-05-02T12:35:00.162Z</time></trkpt><trkpt lat="46.1436491" lon="13.4474443"><ele>373.0</ele><time>2026-05-02T12:35:02.156Z</time></trkpt><trkpt lat="46.1437189" lon="13.4474085"><ele>373.0</ele><time>2026-05-02T12:35:04.156Z</time></trkpt><trkpt lat="46.1437977" lon="13.4473632"><ele>373.0</ele><time>2026-05-02T12:35:06.156Z</time></trkpt><trkpt lat="46.1438742" lon="13.4473035"><ele>373.0</ele><time>2026-05-02T12:35:08.166Z</time></trkpt><trkpt lat="46.1439651" lon="13.4471947"><ele>373.0</ele><time>2026-05-02T12:35:10.155Z</time></trkpt><trkpt lat="46.1440571" lon="13.4470951"><ele>370.59999999999997</ele><time>2026-05-02T12:35:12.146Z</time></trkpt><trkpt lat="46.1441209" lon="13.4469915"><ele>368.2</ele><time>2026-05-02T12:35:14.149Z</time></trkpt><trkpt lat="46.1442006" lon="13.4468931"><ele>365.8</ele><time>2026-05-02T12:35:16.155Z</time></trkpt><trkpt lat="46.1442859" lon="13.4468271"><ele>363.4</ele><time>2026-05-02T12:35:18.145Z</time></trkpt><trkpt lat="46.1443649" lon="13.4467581"><ele>361.0</ele><time>2026-05-02T12:35:20.147Z</time></trkpt><trkpt lat="46.1443974" lon="13.4466777"><ele>361.0</ele><time>2026-05-02T12:35:22.151Z</time></trkpt><trkpt lat="46.1444356" lon="13.446782"><ele>361.0</ele><time>2026-05-02T12:39:50.167Z</time></trkpt><trkpt lat="46.1444943" lon="13.4468437"><ele>361.0</ele><time>2026-05-02T12:39:51.145Z</time></trkpt><trkpt lat="46.1445499" lon="13.4469092"><ele>361.0</ele><time>2026-05-02T12:39:52.149Z</time></trkpt><trkpt lat="46.144613" lon="13.4469744"><ele>361.0</ele><time>2026-05-02T12:39:53.15Z</time></trkpt><trkpt lat="46.1446752" lon="13.4470288"><ele>361.0</ele><time>2026-05-02T12:39:54.155Z</time></trkpt><trkpt lat="46.1447819" lon="13.4470977"><ele>359.8</ele><time>2026-05-02T12:39:56.157Z</time></trkpt><trkpt lat="46.1448904" lon="13.4471006"><ele>358.6</ele><time>2026-05-02T12:39:58.152Z</time></trkpt><trkpt lat="46.1450169" lon="13.4470751"><ele>357.4</ele><time>2026-05-02T12:40:00.155Z</time></trkpt><trkpt lat="46.1450813" lon="13.4470588"><ele>356.2</ele><time>2026-05-02T12:40:01.149Z</time></trkpt><trkpt lat="46.1451818" lon="13.4470405"><ele>355.0</ele><time>2026-05-02T12:40:03.153Z</time></trkpt><trkpt lat="46.1452854" lon="13.4470334"><ele>355.0</ele><time>2026-05-02T12:40:05.158Z</time></trkpt><trkpt lat="46.145392" lon="13.4470112"><ele>355.0</ele><time>2026-05-02T12:40:07.156Z</time></trkpt><trkpt lat="46.1455107" lon="13.4469789"><ele>355.0</ele><time>2026-05-02T12:40:09.146Z</time></trkpt><trkpt lat="46.1455756" lon="13.4469677"><ele>355.0</ele><time>2026-05-02T12:40:10.146Z</time></trkpt><trkpt lat="46.1456453" lon="13.4469493"><ele>355.0</ele><time>2026-05-02T12:40:11.162Z</time></trkpt><trkpt lat="46.1457108" lon="13.4469262"><ele>355.0</ele><time>2026-05-02T12:40:12.156Z</time></trkpt><trkpt lat="46.1457745" lon="13.4468855"><ele>352.5</ele><time>2026-05-02T12:40:13.152Z</time></trkpt><trkpt lat="46.1458382" lon="13.4468372"><ele>350.0</ele><time>2026-05-02T12:40:14.144Z</time></trkpt><trkpt lat="46.1459029" lon="13.4467813"><ele>347.5</ele><time>2026-05-02T12:40:15.15Z</time></trkpt><trkpt lat="46.1459544" lon="13.4467116"><ele>345.0</ele><time>2026-05-02T12:40:16.145Z</time></trkpt><trkpt lat="46.146001" lon="13.4466298"><ele>342.5</ele><time>2026-05-02T12:40:17.196Z</time></trkpt><trkpt lat="46.1460468" lon="13.4465403"><ele>340.0</ele><time>2026-05-02T12:40:18.146Z</time></trkpt><trkpt lat="46.1460895" lon="13.4464331"><ele>340.0</ele><time>2026-05-02T12:40:19.146Z</time></trkpt><trkpt lat="46.1461361" lon="13.4463173"><ele>340.0</ele><time>2026-05-02T12:40:20.147Z</time></trkpt><trkpt lat="46.1461844" lon="13.4461956"><ele>340.0</ele><time>2026-05-02T12:40:21.148Z</time></trkpt><trkpt lat="46.1462305" lon="13.4460717"><ele>340.0</ele><time>2026-05-02T12:40:22.163Z</time></trkpt><trkpt lat="46.1462683" lon="13.4459419"><ele>340.0</ele><time>2026-05-02T12:40:23.148Z</time></trkpt><trkpt lat="46.1463054" lon="13.4458025"><ele>336.8</ele><time>2026-05-02T12:40:24.152Z</time></trkpt><trkpt lat="46.146336" lon="13.4456608"><ele>333.6</ele><time>2026-05-02T12:40:25.155Z</time></trkpt><trkpt lat="46.1463644" lon="13.4455226"><ele>330.4</ele><time>2026-05-02T12:40:26.148Z</time></trkpt><trkpt lat="46.1463907" lon="13.4453882"><ele>327.2</ele><time>2026-05-02T12:40:27.154Z</time></trkpt><trkpt lat="46.1464141" lon="13.4452604"><ele>324.0</ele><time>2026-05-02T12:40:28.169Z</time></trkpt><trkpt lat="46.1464375" lon="13.4451441"><ele>322.8</ele><time>2026-05-02T12:40:29.155Z</time></trkpt><trkpt lat="46.1464669" lon="13.445045"><ele>321.59999999999997</ele><time>2026-05-02T12:40:30.158Z</time></trkpt><trkpt lat="46.1464992" lon="13.4449593"><ele>320.4</ele><time>2026-05-02T12:40:31.159Z</time></trkpt><trkpt lat="46.1465658" lon="13.4448215"><ele>319.2</ele><time>2026-05-02T12:40:33.163Z</time></trkpt><trkpt lat="46.1465649" lon="13.4446672"><ele>318.0</ele><time>2026-05-02T12:40:35.144Z</time></trkpt><trkpt lat="46.1464576" lon="13.4446128"><ele>315.4</ele><time>2026-05-02T12:40:37.152Z</time></trkpt><trkpt lat="46.1463878" lon="13.444676"><ele>312.8</ele><time>2026-05-02T12:40:38.218Z</time></trkpt><trkpt lat="46.1463265" lon="13.4447733"><ele>310.2</ele><time>2026-05-02T12:40:39.154Z</time></trkpt><trkpt lat="46.1462678" lon="13.4448849"><ele>307.6</ele><time>2026-05-02T12:40:40.154Z</time></trkpt><trkpt lat="46.146206" lon="13.4449926"><ele>305.0</ele><time>2026-05-02T12:40:41.148Z</time></trkpt><trkpt lat="46.1461419" lon="13.4451044"><ele>305.0</ele><time>2026-05-02T12:40:42.153Z</time></trkpt><trkpt lat="46.1460739" lon="13.4452192"><ele>305.0</ele><time>2026-05-02T12:40:43.147Z</time></trkpt><trkpt lat="46.1460074" lon="13.4453212"><ele>305.0</ele><time>2026-05-02T12:40:44.153Z</time></trkpt><trkpt lat="46.1459543" lon="13.4453927"><ele>305.0</ele><time>2026-05-02T12:40:45.142Z</time></trkpt><trkpt lat="46.1458683" lon="13.4454437"><ele>305.0</ele><time>2026-05-02T12:40:47.143Z</time></trkpt><trkpt lat="46.1457894" lon="13.4453267"><ele>305.0</ele><time>2026-05-02T12:40:49.138Z</time></trkpt><trkpt lat="46.1458179" lon="13.4452291"><ele>305.0</ele><time>2026-05-02T12:40:50.136Z</time></trkpt><trkpt lat="46.1458554" lon="13.4451442"><ele>305.0</ele><time>2026-05-02T12:40:51.122Z</time></trkpt><trkpt lat="46.1458768" lon="13.4450537"><ele>305.0</ele><time>2026-05-02T12:40:52.135Z</time></trkpt><trkpt lat="46.1459082" lon="13.4449533"><ele>305.0</ele><time>2026-05-02T12:40:53.14Z</time></trkpt><trkpt lat="46.1459394" lon="13.4448422"><ele>305.0</ele><time>2026-05-02T12:40:54.135Z</time></trkpt><trkpt lat="46.1459674" lon="13.4447135"><ele>299.25</ele><time>2026-05-02T12:40:55.138Z</time></trkpt><trkpt lat="46.1459965" lon="13.4445784"><ele>293.5</ele><time>2026-05-02T12:40:56.139Z</time></trkpt><trkpt lat="46.1460209" lon="13.4444299"><ele>287.75</ele><time>2026-05-02T12:40:57.145Z</time></trkpt><trkpt lat="46.1460531" lon="13.4442492"><ele>282.0</ele><time>2026-05-02T12:40:58.138Z</time></trkpt><trkpt lat="46.1461097" lon="13.4440385"><ele>282.0</ele><time>2026-05-02T12:40:59.136Z</time></trkpt><trkpt lat="46.1461836" lon="13.4438316"><ele>282.0</ele><time>2026-05-02T12:41:00.14Z</time></trkpt><trkpt lat="46.1462708" lon="13.4436521"><ele>282.0</ele><time>2026-05-02T12:41:01.142Z</time></trkpt><trkpt lat="46.1463588" lon="13.4435176"><ele>282.0</ele><time>2026-05-02T12:41:02.141Z</time></trkpt><trkpt lat="46.1464363" lon="13.4434442"><ele>280.4</ele><time>2026-05-02T12:41:03.137Z</time></trkpt><trkpt lat="46.1465064" lon="13.4434369"><ele>278.79999999999995</ele><time>2026-05-02T12:41:04.135Z</time></trkpt><trkpt lat="46.1465799" lon="13.4434783"><ele>277.2</ele><time>2026-05-02T12:41:05.139Z</time></trkpt><trkpt lat="46.1466721" lon="13.4435914"><ele>275.59999999999997</ele><time>2026-05-02T12:41:06.133Z</time></trkpt><trkpt lat="46.1467635" lon="13.4437158"><ele>274.0</ele><time>2026-05-02T12:41:07.134Z</time></trkpt><trkpt lat="46.1468454" lon="13.4438359"><ele>274.0</ele><time>2026-05-02T12:41:08.133Z</time></trkpt><trkpt lat="46.1469087" lon="13.4439207"><ele>274.0</ele><time>2026-05-02T12:41:09.127Z</time></trkpt><trkpt lat="46.1469687" lon="13.4439544"><ele>274.0</ele><time>2026-05-02T12:41:11.13Z</time></trkpt><trkpt lat="46.1469503" lon="13.4438023"><ele>274.0</ele><time>2026-05-02T12:41:14.12Z</time></trkpt><trkpt lat="46.1468757" lon="13.4437099"><ele>274.0</ele><time>2026-05-02T12:41:15.127Z</time></trkpt><trkpt lat="46.1468041" lon="13.4435871"><ele>274.0</ele><time>2026-05-02T12:41:16.131Z</time></trkpt><trkpt lat="46.1467426" lon="13.4434437"><ele>274.0</ele><time>2026-05-02T12:41:17.127Z</time></trkpt><trkpt lat="46.1466972" lon="13.443301"><ele>274.0</ele><time>2026-05-02T12:41:18.128Z</time></trkpt><trkpt lat="46.1466883" lon="13.4431773"><ele>274.0</ele><time>2026-05-02T12:41:19.135Z</time></trkpt><trkpt lat="46.1467111" lon="13.4430474"><ele>274.0</ele><time>2026-05-02T12:41:20.123Z</time></trkpt><trkpt lat="46.1467373" lon="13.4429019"><ele>272.0</ele><time>2026-05-02T12:41:21.122Z</time></trkpt><trkpt lat="46.1467493" lon="13.4427579"><ele>270.0</ele><time>2026-05-02T12:41:22.131Z</time></trkpt><trkpt lat="46.1467138" lon="13.4426182"><ele>268.0</ele><time>2026-05-02T12:41:23.123Z</time></trkpt><trkpt lat="46.1466457" lon="13.4424951"><ele>266.0</ele><time>2026-05-02T12:41:24.129Z</time></trkpt><trkpt lat="46.1465769" lon="13.4423769"><ele>264.0</ele><time>2026-05-02T12:41:25.128Z</time></trkpt><trkpt lat="46.1465264" lon="13.4422608"><ele>262.0</ele><time>2026-05-02T12:41:26.135Z</time></trkpt><trkpt lat="46.146491" lon="13.4421569"><ele>260.0</ele><time>2026-05-02T12:41:27.133Z</time></trkpt><trkpt lat="46.1464274" lon="13.4420891"><ele>258.0</ele><time>2026-05-02T12:41:28.135Z</time></trkpt><trkpt lat="46.1463468" lon="13.4420896"><ele>256.0</ele><time>2026-05-02T12:41:29.135Z</time></trkpt><trkpt lat="46.1462779" lon="13.4421484"><ele>254.0</ele><time>2026-05-02T12:41:30.132Z</time></trkpt><trkpt lat="46.1462222" lon="13.4422539"><ele>252.0</ele><time>2026-05-02T12:41:31.135Z</time></trkpt><trkpt lat="46.146183" lon="13.4423951"><ele>252.0</ele><time>2026-05-02T12:41:32.146Z</time></trkpt><trkpt lat="46.1461464" lon="13.4425512"><ele>252.0</ele><time>2026-05-02T12:41:33.141Z</time></trkpt><trkpt lat="46.1461116" lon="13.4427056"><ele>252.0</ele><time>2026-05-02T12:41:34.147Z</time></trkpt><trkpt lat="46.146057" lon="13.4428508"><ele>252.0</ele><time>2026-05-02T12:41:35.144Z</time></trkpt><trkpt lat="46.1459831" lon="13.4429655"><ele>253.25</ele><time>2026-05-02T12:41:36.14Z</time></trkpt><trkpt lat="46.1458846" lon="13.4430447"><ele>254.5</ele><time>2026-05-02T12:41:37.13Z</time></trkpt><trkpt lat="46.1457682" lon="13.4431074"><ele>255.75</ele><time>2026-05-02T12:41:38.136Z</time></trkpt><trkpt lat="46.1456548" lon="13.4431722"><ele>257.0</ele><time>2026-05-02T12:41:39.129Z</time></trkpt><trkpt lat="46.1455586" lon="13.4432297"><ele>257.0</ele><time>2026-05-02T12:41:40.138Z</time></trkpt><trkpt lat="46.1454651" lon="13.4432621"><ele>257.0</ele><time>2026-05-02T12:41:41.138Z</time></trkpt><trkpt lat="46.145382" lon="13.4432598"><ele>257.0</ele><time>2026-05-02T12:41:42.137Z</time></trkpt><trkpt lat="46.1453173" lon="13.4432051"><ele>257.0</ele><time>2026-05-02T12:41:43.126Z</time></trkpt><trkpt lat="46.1452657" lon="13.4431147"><ele>257.0</ele><time>2026-05-02T12:41:44.129Z</time></trkpt><trkpt lat="46.1452148" lon="13.4430016"><ele>257.0</ele><time>2026-05-02T12:41:45.129Z</time></trkpt><trkpt lat="46.1451507" lon="13.4428909"><ele>253.5</ele><time>2026-05-02T12:41:46.132Z</time></trkpt><trkpt lat="46.1450737" lon="13.4428002"><ele>250.0</ele><time>2026-05-02T12:41:47.139Z</time></trkpt><trkpt lat="46.1449726" lon="13.4427223"><ele>246.5</ele><time>2026-05-02T12:41:48.126Z</time></trkpt><trkpt lat="46.144849" lon="13.4426723"><ele>243.0</ele><time>2026-05-02T12:41:49.127Z</time></trkpt><trkpt lat="46.1447096" lon="13.4426221"><ele>239.0</ele><time>2026-05-02T12:41:50.131Z</time></trkpt><trkpt lat="46.1445682" lon="13.4425589"><ele>235.0</ele><time>2026-05-02T12:41:51.13Z</time></trkpt><trkpt lat="46.1444261" lon="13.4424573"><ele>231.0</ele><time>2026-05-02T12:41:52.127Z</time></trkpt><trkpt lat="46.1442851" lon="13.4423376"><ele>231.0</ele><time>2026-05-02T12:41:53.136Z</time></trkpt><trkpt lat="46.1441447" lon="13.4422306"><ele>231.0</ele><time>2026-05-02T12:41:54.14Z</time></trkpt><trkpt lat="46.1439883" lon="13.4421583"><ele>231.0</ele><time>2026-05-02T12:41:55.146Z</time></trkpt><trkpt lat="46.1438274" lon="13.4421144"><ele>230.75</ele><time>2026-05-02T12:41:56.141Z</time></trkpt><trkpt lat="46.1436744" lon="13.4420875"><ele>230.5</ele><time>2026-05-02T12:41:57.141Z</time></trkpt><trkpt lat="46.1435404" lon="13.4420443"><ele>230.25</ele><time>2026-05-02T12:41:58.154Z</time></trkpt><trkpt lat="46.1434273" lon="13.4419796"><ele>230.0</ele><time>2026-05-02T12:41:59.151Z</time></trkpt><trkpt lat="46.1433346" lon="13.4418782"><ele>230.0</ele><time>2026-05-02T12:42:00.159Z</time></trkpt><trkpt lat="46.1432557" lon="13.4417466"><ele>230.0</ele><time>2026-05-02T12:42:01.143Z</time></trkpt><trkpt lat="46.1431733" lon="13.44162"><ele>230.0</ele><time>2026-05-02T12:42:02.144Z</time></trkpt><trkpt lat="46.1430964" lon="13.4414938"><ele>230.0</ele><time>2026-05-02T12:42:03.142Z</time></trkpt><trkpt lat="46.143017" lon="13.4413771"><ele>229.0</ele><time>2026-05-02T12:42:04.15Z</time></trkpt><trkpt lat="46.1429293" lon="13.4412889"><ele>228.0</ele><time>2026-05-02T12:42:05.149Z</time></trkpt><trkpt lat="46.1428295" lon="13.4412288"><ele>227.0</ele><time>2026-05-02T12:42:06.136Z</time></trkpt><trkpt lat="46.142704" lon="13.4411917"><ele>226.0</ele><time>2026-05-02T12:42:07.14Z</time></trkpt><trkpt lat="46.1425644" lon="13.4411746"><ele>226.0</ele><time>2026-05-02T12:42:08.14Z</time></trkpt><trkpt lat="46.1424094" lon="13.4411688"><ele>226.0</ele><time>2026-05-02T12:42:09.141Z</time></trkpt><trkpt lat="46.1422571" lon="13.4411583"><ele>226.0</ele><time>2026-05-02T12:42:10.162Z</time></trkpt><trkpt lat="46.1421022" lon="13.4411433"><ele>225.25</ele><time>2026-05-02T12:42:11.153Z</time></trkpt><trkpt lat="46.1419532" lon="13.441133"><ele>224.5</ele><time>2026-05-02T12:42:12.152Z</time></trkpt><trkpt lat="46.1418107" lon="13.4411249"><ele>223.75</ele><time>2026-05-02T12:42:13.161Z</time></trkpt><trkpt lat="46.1416731" lon="13.4411181"><ele>223.0</ele><time>2026-05-02T12:42:14.149Z</time></trkpt><trkpt lat="46.1415415" lon="13.4411143"><ele>222.5</ele><time>2026-05-02T12:42:15.148Z</time></trkpt><trkpt lat="46.1414193" lon="13.4411271"><ele>222.0</ele><time>2026-05-02T12:42:16.136Z</time></trkpt><trkpt lat="46.1413001" lon="13.4411619"><ele>221.5</ele><time>2026-05-02T12:42:17.135Z</time></trkpt><trkpt lat="46.1411843" lon="13.4412105"><ele>221.0</ele><time>2026-05-02T12:42:18.145Z</time></trkpt><trkpt lat="46.141076" lon="13.4412688"><ele>220.5</ele><time>2026-05-02T12:42:19.138Z</time></trkpt><trkpt lat="46.1409674" lon="13.4413259"><ele>220.0</ele><time>2026-05-02T12:42:20.132Z</time></trkpt><trkpt lat="46.140859" lon="13.4413716"><ele>219.5</ele><time>2026-05-02T12:42:21.14Z</time></trkpt><trkpt lat="46.140747" lon="13.441401"><ele>219.0</ele><time>2026-05-02T12:42:22.146Z</time></trkpt><trkpt lat="46.140631" lon="13.4414193"><ele>218.75</ele><time>2026-05-02T12:42:23.14Z</time></trkpt><trkpt lat="46.1405083" lon="13.441413"><ele>218.5</ele><time>2026-05-02T12:42:24.143Z</time></trkpt><trkpt lat="46.1403884" lon="13.4413923"><ele>218.25</ele><time>2026-05-02T12:42:25.141Z</time></trkpt><trkpt lat="46.1402632" lon="13.4413597"><ele>218.0</ele><time>2026-05-02T12:42:26.15Z</time></trkpt><trkpt lat="46.1401368" lon="13.4413336"><ele>218.0</ele><time>2026-05-02T12:42:27.139Z</time></trkpt><trkpt lat="46.1400004" lon="13.4413035"><ele>218.0</ele><time>2026-05-02T12:42:28.159Z</time></trkpt><trkpt lat="46.1398599" lon="13.4412744"><ele>218.0</ele><time>2026-05-02T12:42:29.141Z</time></trkpt><trkpt lat="46.1397154" lon="13.4412478"><ele>218.0</ele><time>2026-05-02T12:42:30.137Z</time></trkpt><trkpt lat="46.1395695" lon="13.4412236"><ele>216.5</ele><time>2026-05-02T12:42:31.141Z</time></trkpt><trkpt lat="46.139435" lon="13.4411962"><ele>215.0</ele><time>2026-05-02T12:42:32.135Z</time></trkpt><trkpt lat="46.1393042" lon="13.4411722"><ele>213.5</ele><time>2026-05-02T12:42:33.146Z</time></trkpt><trkpt lat="46.1391707" lon="13.4411419"><ele>212.0</ele><time>2026-05-02T12:42:34.137Z</time></trkpt><trkpt lat="46.1390454" lon="13.4411056"><ele>211.2</ele><time>2026-05-02T12:42:35.136Z</time></trkpt><trkpt lat="46.1389263" lon="13.4410702"><ele>210.39999999999998</ele><time>2026-05-02T12:42:36.142Z</time></trkpt><trkpt lat="46.1388187" lon="13.4410259"><ele>209.60000000000002</ele><time>2026-05-02T12:42:37.138Z</time></trkpt><trkpt lat="46.1387162" lon="13.4409929"><ele>208.8</ele><time>2026-05-02T12:42:38.141Z</time></trkpt><trkpt lat="46.1386149" lon="13.4409669"><ele>208.0</ele><time>2026-05-02T12:42:39.129Z</time></trkpt><trkpt lat="46.1385053" lon="13.4409353"><ele>208.0</ele><time>2026-05-02T12:42:40.137Z</time></trkpt><trkpt lat="46.1384035" lon="13.4408862"><ele>208.0</ele><time>2026-05-02T12:42:41.137Z</time></trkpt><trkpt lat="46.1383166" lon="13.4408157"><ele>208.0</ele><time>2026-05-02T12:42:42.141Z</time></trkpt><trkpt lat="46.1382458" lon="13.440719"><ele>208.0</ele><time>2026-05-02T12:42:43.138Z</time></trkpt><trkpt lat="46.1381906" lon="13.4405978"><ele>208.0</ele><time>2026-05-02T12:42:44.137Z</time></trkpt><trkpt lat="46.1381635" lon="13.4404544"><ele>207.5</ele><time>2026-05-02T12:42:45.132Z</time></trkpt><trkpt lat="46.1381587" lon="13.4402908"><ele>207.0</ele><time>2026-05-02T12:42:46.13Z</time></trkpt><trkpt lat="46.1381673" lon="13.4401158"><ele>206.5</ele><time>2026-05-02T12:42:47.134Z</time></trkpt><trkpt lat="46.1381753" lon="13.4399458"><ele>206.0</ele><time>2026-05-02T12:42:48.144Z</time></trkpt><trkpt lat="46.138182" lon="13.4397664"><ele>206.0</ele><time>2026-05-02T12:42:49.137Z</time></trkpt><trkpt lat="46.1381907" lon="13.4395796"><ele>206.0</ele><time>2026-05-02T12:42:50.139Z</time></trkpt><trkpt lat="46.1381998" lon="13.4394045"><ele>206.0</ele><time>2026-05-02T12:42:51.139Z</time></trkpt><trkpt lat="46.138209" lon="13.4392426"><ele>206.0</ele><time>2026-05-02T12:42:52.137Z</time></trkpt><trkpt lat="46.1382186" lon="13.439095"><ele>206.50000000000003</ele><time>2026-05-02T12:42:53.134Z</time></trkpt><trkpt lat="46.1382259" lon="13.4389639"><ele>207.0</ele><time>2026-05-02T12:42:54.131Z</time></trkpt><trkpt lat="46.1382449" lon="13.4388477"><ele>207.5</ele><time>2026-05-02T12:42:55.134Z</time></trkpt><trkpt lat="46.1382886" lon="13.4387626"><ele>208.0</ele><time>2026-05-02T12:42:56.148Z</time></trkpt><trkpt lat="46.1383508" lon="13.4386953"><ele>208.50000000000003</ele><time>2026-05-02T12:42:57.131Z</time></trkpt><trkpt lat="46.1384411" lon="13.4386422"><ele>209.0</ele><time>2026-05-02T12:42:58.138Z</time></trkpt><trkpt lat="46.1385426" lon="13.4385803"><ele>209.0</ele><time>2026-05-02T12:42:59.143Z</time></trkpt><trkpt lat="46.1386455" lon="13.4385065"><ele>209.0</ele><time>2026-05-02T12:43:00.131Z</time></trkpt><trkpt lat="46.1387434" lon="13.4384321"><ele>209.0</ele><time>2026-05-02T12:43:01.139Z</time></trkpt><trkpt lat="46.1388287" lon="13.4383763"><ele>209.0</ele><time>2026-05-02T12:43:02.136Z</time></trkpt><trkpt lat="46.1389074" lon="13.4383252"><ele>209.0</ele><time>2026-05-02T12:43:03.14Z</time></trkpt><trkpt lat="46.1389562" lon="13.4382617"><ele>209.0</ele><time>2026-05-02T12:43:04.135Z</time></trkpt><trkpt lat="46.1389752" lon="13.4380909"><ele>209.0</ele><time>2026-05-02T12:43:06.138Z</time></trkpt><trkpt lat="46.1389674" lon="13.4379976"><ele>209.0</ele><time>2026-05-02T12:43:07.142Z</time></trkpt><trkpt lat="46.1389579" lon="13.4379049"><ele>209.0</ele><time>2026-05-02T12:43:08.134Z</time></trkpt><trkpt lat="46.1389459" lon="13.4377389"><ele>209.0</ele><time>2026-05-02T12:43:10.138Z</time></trkpt><trkpt lat="46.1389386" lon="13.4375848"><ele>209.71428571428572</ele><time>2026-05-02T12:43:12.132Z</time></trkpt><trkpt lat="46.1389124" lon="13.4374471"><ele>210.42857142857142</ele><time>2026-05-02T12:43:14.129Z</time></trkpt><trkpt lat="46.1388725" lon="13.4373637"><ele>211.14285714285717</ele><time>2026-05-02T12:43:16.145Z</time></trkpt><trkpt lat="46.1388292" lon="13.4372959"><ele>211.85714285714286</ele><time>2026-05-02T12:43:20.143Z</time></trkpt><trkpt lat="46.138859" lon="13.4373763"><ele>212.57142857142858</ele><time>2026-05-02T12:43:49.126Z</time></trkpt><trkpt lat="46.1388871" lon="13.4372845"><ele>213.2857142857143</ele><time>2026-05-02T12:43:52.134Z</time></trkpt><trkpt lat="46.1388502" lon="13.4371946"><ele>214.0</ele><time>2026-05-02T13:05:11.144Z</time></trkpt><trkpt lat="46.138843" lon="13.4370956"><ele>215.66666666666666</ele><time>2026-05-02T13:05:13.148Z</time></trkpt><trkpt lat="46.1388988" lon="13.4370125"><ele>217.33333333333331</ele><time>2026-05-02T13:05:16.15Z</time></trkpt><trkpt lat="46.1389841" lon="13.436984"><ele>219.0</ele><time>2026-05-02T13:05:19.161Z</time></trkpt><trkpt lat="46.1391023" lon="13.4369708"><ele>220.66666666666669</ele><time>2026-05-02T13:05:21.153Z</time></trkpt><trkpt lat="46.139167" lon="13.4369778"><ele>222.33333333333334</ele><time>2026-05-02T13:05:22.154Z</time></trkpt><trkpt lat="46.1392447" lon="13.4370016"><ele>224.0</ele><time>2026-05-02T13:05:23.169Z</time></trkpt><trkpt lat="46.1393301" lon="13.437031"><ele>224.16666666666669</ele><time>2026-05-02T13:05:24.16Z</time></trkpt><trkpt lat="46.1394131" lon="13.4370683"><ele>224.33333333333334</ele><time>2026-05-02T13:05:25.162Z</time></trkpt><trkpt lat="46.1394855" lon="13.4371004"><ele>224.5</ele><time>2026-05-02T13:05:26.161Z</time></trkpt><trkpt lat="46.1395476" lon="13.4371349"><ele>224.66666666666669</ele><time>2026-05-02T13:05:27.167Z</time></trkpt><trkpt lat="46.1396188" lon="13.4372415"><ele>224.83333333333334</ele><time>2026-05-02T13:05:29.153Z</time></trkpt><trkpt lat="46.1396404" lon="13.4373409"><ele>225.0</ele><time>2026-05-02T13:05:30.159Z</time></trkpt><trkpt lat="46.1396698" lon="13.437444"><ele>225.0</ele><time>2026-05-02T13:05:31.161Z</time></trkpt><trkpt lat="46.1396947" lon="13.4375623"><ele>225.0</ele><time>2026-05-02T13:05:32.149Z</time></trkpt><trkpt lat="46.1397264" lon="13.4376559"><ele>225.0</ele><time>2026-05-02T13:05:33.169Z</time></trkpt><trkpt lat="46.139794" lon="13.4377464"><ele>225.0</ele><time>2026-05-02T13:05:35.137Z</time></trkpt><trkpt lat="46.1399219" lon="13.4377335"><ele>225.0</ele><time>2026-05-02T13:05:37.144Z</time></trkpt><trkpt lat="46.1400042" lon="13.4377087"><ele>229.2</ele><time>2026-05-02T13:05:38.142Z</time></trkpt><trkpt lat="46.1400911" lon="13.4376852"><ele>233.4</ele><time>2026-05-02T13:05:39.141Z</time></trkpt><trkpt lat="46.1401826" lon="13.4376591"><ele>237.60000000000002</ele><time>2026-05-02T13:05:40.134Z</time></trkpt><trkpt lat="46.1402863" lon="13.4376312"><ele>241.8</ele><time>2026-05-02T13:05:41.145Z</time></trkpt><trkpt lat="46.1403967" lon="13.4376009"><ele>246.0</ele><time>2026-05-02T13:05:42.132Z</time></trkpt><trkpt lat="46.14051" lon="13.4375723"><ele>246.0</ele><time>2026-05-02T13:05:43.141Z</time></trkpt><trkpt lat="46.1406354" lon="13.4375441"><ele>246.0</ele><time>2026-05-02T13:05:44.138Z</time></trkpt><trkpt lat="46.1407611" lon="13.4375202"><ele>246.0</ele><time>2026-05-02T13:05:45.134Z</time></trkpt><trkpt lat="46.1408809" lon="13.4374967"><ele>246.0</ele><time>2026-05-02T13:05:46.132Z</time></trkpt><trkpt lat="46.1409959" lon="13.4374735"><ele>250.75</ele><time>2026-05-02T13:05:47.14Z</time></trkpt><trkpt lat="46.1411124" lon="13.4374463"><ele>255.5</ele><time>2026-05-02T13:05:48.136Z</time></trkpt><trkpt lat="46.1412252" lon="13.4374331"><ele>260.25</ele><time>2026-05-02T13:05:49.14Z</time></trkpt><trkpt lat="46.1413411" lon="13.437428"><ele>265.0</ele><time>2026-05-02T13:05:50.13Z</time></trkpt><trkpt lat="46.1414569" lon="13.4374269"><ele>266.0</ele><time>2026-05-02T13:05:51.133Z</time></trkpt><trkpt lat="46.1415744" lon="13.4374402"><ele>267.0</ele><time>2026-05-02T13:05:52.134Z</time></trkpt><trkpt lat="46.1416938" lon="13.4374473"><ele>268.0</ele><time>2026-05-02T13:05:53.138Z</time></trkpt><trkpt lat="46.1418171" lon="13.4374575"><ele>269.0</ele><time>2026-05-02T13:05:54.137Z</time></trkpt><trkpt lat="46.1419375" lon="13.4374645"><ele>269.0</ele><time>2026-05-02T13:05:55.134Z</time></trkpt><trkpt lat="46.1420281" lon="13.4374674"><ele>269.0</ele><time>2026-05-02T13:05:56.132Z</time></trkpt><trkpt lat="46.1420923" lon="13.4374649"><ele>269.0</ele><time>2026-05-02T13:05:57.135Z</time></trkpt><trkpt lat="46.1421604" lon="13.4374745"><ele>269.0</ele><time>2026-05-02T13:05:58.126Z</time></trkpt><trkpt lat="46.1422309" lon="13.4374834"><ele>269.0</ele><time>2026-05-02T13:05:59.142Z</time></trkpt><trkpt lat="46.1422995" lon="13.4375046"><ele>269.0</ele><time>2026-05-02T13:06:00.135Z</time></trkpt><trkpt lat="46.1423651" lon="13.4375405"><ele>269.0</ele><time>2026-05-02T13:06:01.133Z</time></trkpt><trkpt lat="46.1424244" lon="13.4375927"><ele>271.8</ele><time>2026-05-02T13:06:02.135Z</time></trkpt><trkpt lat="46.1425272" lon="13.4376662"><ele>274.59999999999997</ele><time>2026-05-02T13:06:04.142Z</time></trkpt><trkpt lat="46.1426348" lon="13.4376815"><ele>277.4</ele><time>2026-05-02T13:06:06.135Z</time></trkpt><trkpt lat="46.1427454" lon="13.4376812"><ele>280.2</ele><time>2026-05-02T13:06:08.127Z</time></trkpt><trkpt lat="46.142834" lon="13.437694"><ele>283.0</ele><time>2026-05-02T13:06:10.131Z</time></trkpt><trkpt lat="46.1429467" lon="13.4376756"><ele>283.0</ele><time>2026-05-02T13:06:12.127Z</time></trkpt><trkpt lat="46.1430075" lon="13.4376517"><ele>283.0</ele><time>2026-05-02T13:06:13.134Z</time></trkpt><trkpt lat="46.1431173" lon="13.4376316"><ele>283.0</ele><time>2026-05-02T13:06:15.133Z</time></trkpt><trkpt lat="46.1432263" lon="13.4376658"><ele>283.0</ele><time>2026-05-02T13:06:17.131Z</time></trkpt><trkpt lat="46.1433162" lon="13.4377205"><ele>283.0</ele><time>2026-05-02T13:06:19.142Z</time></trkpt><trkpt lat="46.1433975" lon="13.4377328"><ele>285.0</ele><time>2026-05-02T13:06:21.138Z</time></trkpt><trkpt lat="46.1435022" lon="13.437729"><ele>287.0</ele><time>2026-05-02T13:06:23.133Z</time></trkpt><trkpt lat="46.1435741" lon="13.4377449"><ele>289.0</ele><time>2026-05-02T13:06:24.135Z</time></trkpt><trkpt lat="46.1436411" lon="13.4377578"><ele>291.0</ele><time>2026-05-02T13:06:25.138Z</time></trkpt><trkpt lat="46.1437659" lon="13.4377136"><ele>293.0</ele><time>2026-05-02T13:06:27.141Z</time></trkpt><trkpt lat="46.1438412" lon="13.4376445"><ele>293.0</ele><time>2026-05-02T13:06:28.127Z</time></trkpt><trkpt lat="46.143917" lon="13.4375697"><ele>293.0</ele><time>2026-05-02T13:06:29.135Z</time></trkpt><trkpt lat="46.1439935" lon="13.4374902"><ele>293.0</ele><time>2026-05-02T13:06:30.14Z</time></trkpt><trkpt lat="46.1440741" lon="13.4374154"><ele>293.0</ele><time>2026-05-02T13:06:31.164Z</time></trkpt><trkpt lat="46.1441547" lon="13.4373451"><ele>293.0</ele><time>2026-05-02T13:06:32.142Z</time></trkpt><trkpt lat="46.14424" lon="13.437286"><ele>292.6</ele><time>2026-05-02T13:06:33.129Z</time></trkpt><trkpt lat="46.1443218" lon="13.4372182"><ele>292.20000000000005</ele><time>2026-05-02T13:06:34.135Z</time></trkpt><trkpt lat="46.1443994" lon="13.4371485"><ele>291.8</ele><time>2026-05-02T13:06:35.139Z</time></trkpt><trkpt lat="46.1444748" lon="13.4370787"><ele>291.40000000000003</ele><time>2026-05-02T13:06:36.137Z</time></trkpt><trkpt lat="46.1445713" lon="13.4370317"><ele>291.0</ele><time>2026-05-02T13:06:37.131Z</time></trkpt><trkpt lat="46.1446647" lon="13.4369895"><ele>294.6666666666667</ele><time>2026-05-02T13:06:38.137Z</time></trkpt><trkpt lat="46.1447586" lon="13.4369436"><ele>298.3333333333333</ele><time>2026-05-02T13:06:39.139Z</time></trkpt><trkpt lat="46.1448484" lon="13.4369098"><ele>302.0</ele><time>2026-05-02T13:06:40.134Z</time></trkpt><trkpt lat="46.1449233" lon="13.4368948"><ele>305.66666666666663</ele><time>2026-05-02T13:06:41.133Z</time></trkpt><trkpt lat="46.1450031" lon="13.4369129"><ele>309.3333333333333</ele><time>2026-05-02T13:06:42.131Z</time></trkpt><trkpt lat="46.1450848" lon="13.4369712"><ele>313.0</ele><time>2026-05-02T13:06:43.124Z</time></trkpt><trkpt lat="46.1451694" lon="13.4370667"><ele>309.3333333333333</ele><time>2026-05-02T13:06:44.131Z</time></trkpt><trkpt lat="46.1452558" lon="13.4371748"><ele>305.66666666666663</ele><time>2026-05-02T13:06:45.132Z</time></trkpt><trkpt lat="46.1453159" lon="13.4372584"><ele>302.0</ele><time>2026-05-02T13:06:46.133Z</time></trkpt><trkpt lat="46.1453743" lon="13.4373"><ele>298.3333333333333</ele><time>2026-05-02T13:06:47.14Z</time></trkpt><trkpt lat="46.1454416" lon="13.4373083"><ele>294.6666666666667</ele><time>2026-05-02T13:06:48.132Z</time></trkpt><trkpt lat="46.1455138" lon="13.4372829"><ele>291.0</ele><time>2026-05-02T13:06:49.142Z</time></trkpt><trkpt lat="46.1455957" lon="13.4372434"><ele>291.0</ele><time>2026-05-02T13:06:50.127Z</time></trkpt><trkpt lat="46.1456853" lon="13.4371819"><ele>291.0</ele><time>2026-05-02T13:06:51.138Z</time></trkpt><trkpt lat="46.145778" lon="13.4371161"><ele>291.0</ele><time>2026-05-02T13:06:52.133Z</time></trkpt><trkpt lat="46.1458677" lon="13.4370475"><ele>291.0</ele><time>2026-05-02T13:06:53.132Z</time></trkpt><trkpt lat="46.145943" lon="13.4369862"><ele>291.0</ele><time>2026-05-02T13:06:54.135Z</time></trkpt><trkpt lat="46.1460052" lon="13.43692"><ele>296.3333333333333</ele><time>2026-05-02T13:06:55.14Z</time></trkpt><trkpt lat="46.1460603" lon="13.4368293"><ele>301.6666666666667</ele><time>2026-05-02T13:06:56.137Z</time></trkpt><trkpt lat="46.1461184" lon="13.4367319"><ele>307.0</ele><time>2026-05-02T13:06:57.134Z</time></trkpt><trkpt lat="46.1461715" lon="13.436627"><ele>312.33333333333337</ele><time>2026-05-02T13:06:58.15Z</time></trkpt><trkpt lat="46.1462231" lon="13.4365129"><ele>317.6666666666667</ele><time>2026-05-02T13:06:59.137Z</time></trkpt><trkpt lat="46.1462657" lon="13.4364006"><ele>323.0</ele><time>2026-05-02T13:07:00.136Z</time></trkpt><trkpt lat="46.1463016" lon="13.436291"><ele>325.0</ele><time>2026-05-02T13:07:01.133Z</time></trkpt><trkpt lat="46.1463382" lon="13.4361976"><ele>327.0</ele><time>2026-05-02T13:07:02.137Z</time></trkpt><trkpt lat="46.1464329" lon="13.4360894"><ele>329.0</ele><time>2026-05-02T13:07:04.149Z</time></trkpt><trkpt lat="46.1465151" lon="13.4360618"><ele>331.0</ele><time>2026-05-02T13:07:05.136Z</time></trkpt><trkpt lat="46.1465995" lon="13.4360379"><ele>333.0</ele><time>2026-05-02T13:07:06.126Z</time></trkpt><trkpt lat="46.1466977" lon="13.4360076"><ele>333.0</ele><time>2026-05-02T13:07:07.132Z</time></trkpt><trkpt lat="46.1468023" lon="13.4359714"><ele>333.0</ele><time>2026-05-02T13:07:08.125Z</time></trkpt><trkpt lat="46.1468974" lon="13.4359279"><ele>333.0</ele><time>2026-05-02T13:07:09.135Z</time></trkpt><trkpt lat="46.1469823" lon="13.4358897"><ele>333.0</ele><time>2026-05-02T13:07:10.133Z</time></trkpt><trkpt lat="46.1470704" lon="13.4358511"><ele>333.0</ele><time>2026-05-02T13:07:11.127Z</time></trkpt><trkpt lat="46.1471604" lon="13.4358022"><ele>333.0</ele><time>2026-05-02T13:07:12.129Z</time></trkpt><trkpt lat="46.1472626" lon="13.4357449"><ele>333.0</ele><time>2026-05-02T13:07:13.132Z</time></trkpt><trkpt lat="46.1473671" lon="13.4356906"><ele>333.0</ele><time>2026-05-02T13:07:14.123Z</time></trkpt><trkpt lat="46.1474766" lon="13.435628"><ele>333.0</ele><time>2026-05-02T13:07:15.125Z</time></trkpt><trkpt lat="46.1475895" lon="13.4355602"><ele>329.75</ele><time>2026-05-02T13:07:16.131Z</time></trkpt><trkpt lat="46.1476979" lon="13.4355007"><ele>326.5</ele><time>2026-05-02T13:07:17.134Z</time></trkpt><trkpt lat="46.1478056" lon="13.4354534"><ele>323.25</ele><time>2026-05-02T13:07:18.13Z</time></trkpt><trkpt lat="46.1479116" lon="13.4354084"><ele>320.0</ele><time>2026-05-02T13:07:19.127Z</time></trkpt><trkpt lat="46.1480303" lon="13.4353867"><ele>327.8</ele><time>2026-05-02T13:07:20.126Z</time></trkpt><trkpt lat="46.1481491" lon="13.4353746"><ele>335.6</ele><time>2026-05-02T13:07:21.123Z</time></trkpt><trkpt lat="46.1482618" lon="13.4353694"><ele>343.4</ele><time>2026-05-02T13:07:22.13Z</time></trkpt><trkpt lat="46.1483729" lon="13.4353526"><ele>351.2</ele><time>2026-05-02T13:07:23.134Z</time></trkpt><trkpt lat="46.1484671" lon="13.4353326"><ele>359.0</ele><time>2026-05-02T13:07:24.131Z</time></trkpt><trkpt lat="46.1485588" lon="13.4352787"><ele>359.0</ele><time>2026-05-02T13:07:25.13Z</time></trkpt><trkpt lat="46.1486543" lon="13.435225"><ele>359.0</ele><time>2026-05-02T13:07:26.143Z</time></trkpt><trkpt lat="46.1487504" lon="13.4351601"><ele>359.0</ele><time>2026-05-02T13:07:27.126Z</time></trkpt><trkpt lat="46.1488454" lon="13.4350916"><ele>359.0</ele><time>2026-05-02T13:07:28.135Z</time></trkpt><trkpt lat="46.1489302" lon="13.4350326"><ele>359.0</ele><time>2026-05-02T13:07:29.128Z</time></trkpt><trkpt lat="46.1489845" lon="13.4349808"><ele>359.4</ele><time>2026-05-02T13:07:30.136Z</time></trkpt><trkpt lat="46.1490552" lon="13.4348472"><ele>359.79999999999995</ele><time>2026-05-02T13:07:32.136Z</time></trkpt><trkpt lat="46.149088" lon="13.4347508"><ele>360.20000000000005</ele><time>2026-05-02T13:07:33.129Z</time></trkpt><trkpt lat="46.1491306" lon="13.4346118"><ele>360.6</ele><time>2026-05-02T13:07:34.134Z</time></trkpt><trkpt lat="46.1491878" lon="13.4344592"><ele>361.0</ele><time>2026-05-02T13:07:35.123Z</time></trkpt><trkpt lat="46.1492399" lon="13.4343277"><ele>361.0</ele><time>2026-05-02T13:07:36.126Z</time></trkpt><trkpt lat="46.1492742" lon="13.4342241"><ele>361.0</ele><time>2026-05-02T13:07:37.13Z</time></trkpt><trkpt lat="46.1492939" lon="13.4341297"><ele>361.0</ele><time>2026-05-02T13:07:38.134Z</time></trkpt><trkpt lat="46.1492937" lon="13.4339543"><ele>361.0</ele><time>2026-05-02T13:07:40.128Z</time></trkpt><trkpt lat="46.1493326" lon="13.4338638"><ele>361.0</ele><time>2026-05-02T13:07:42.131Z</time></trkpt><trkpt lat="46.1494514" lon="13.433877"><ele>361.0</ele><time>2026-05-02T13:07:44.121Z</time></trkpt><trkpt lat="46.1495457" lon="13.4339314"><ele>361.0</ele><time>2026-05-02T13:07:45.134Z</time></trkpt><trkpt lat="46.1496395" lon="13.4339789"><ele>361.0</ele><time>2026-05-02T13:07:46.138Z</time></trkpt><trkpt lat="46.1497325" lon="13.4340117"><ele>361.0</ele><time>2026-05-02T13:07:47.135Z</time></trkpt><trkpt lat="46.149821" lon="13.4340262"><ele>361.0</ele><time>2026-05-02T13:07:48.135Z</time></trkpt><trkpt lat="46.1499032" lon="13.4340236"><ele>358.20000000000005</ele><time>2026-05-02T13:07:49.125Z</time></trkpt><trkpt lat="46.1499791" lon="13.4339925"><ele>355.40000000000003</ele><time>2026-05-02T13:07:50.125Z</time></trkpt><trkpt lat="46.1500547" lon="13.4339288"><ele>352.6</ele><time>2026-05-02T13:07:51.127Z</time></trkpt><trkpt lat="46.1501395" lon="13.4338418"><ele>349.8</ele><time>2026-05-02T13:07:52.125Z</time></trkpt><trkpt lat="46.1502479" lon="13.4337431"><ele>347.0</ele><time>2026-05-02T13:07:53.127Z</time></trkpt><trkpt lat="46.1503528" lon="13.4336545"><ele>354.0</ele><time>2026-05-02T13:07:54.124Z</time></trkpt><trkpt lat="46.1504342" lon="13.4335737"><ele>361.0</ele><time>2026-05-02T13:07:55.132Z</time></trkpt><trkpt lat="46.1505066" lon="13.4334869"><ele>368.0</ele><time>2026-05-02T13:07:56.126Z</time></trkpt><trkpt lat="46.150574" lon="13.4334056"><ele>375.0</ele><time>2026-05-02T13:07:57.14Z</time></trkpt><trkpt lat="46.1506382" lon="13.4333221"><ele>382.0</ele><time>2026-05-02T13:07:58.131Z</time></trkpt><trkpt lat="46.1506918" lon="13.4332316"><ele>381.0</ele><time>2026-05-02T13:07:59.137Z</time></trkpt><trkpt lat="46.150727" lon="13.4331124"><ele>380.0</ele><time>2026-05-02T13:08:00.148Z</time></trkpt><trkpt lat="46.1507574" lon="13.4329759"><ele>379.0</ele><time>2026-05-02T13:08:01.128Z</time></trkpt><trkpt lat="46.1507753" lon="13.432812"><ele>378.0</ele><time>2026-05-02T13:08:02.126Z</time></trkpt><trkpt lat="46.1507828" lon="13.4326104"><ele>377.0</ele><time>2026-05-02T13:08:03.133Z</time></trkpt><trkpt lat="46.1507968" lon="13.4324077"><ele>377.0</ele><time>2026-05-02T13:08:04.126Z</time></trkpt><trkpt lat="46.1508179" lon="13.4322266"><ele>377.0</ele><time>2026-05-02T13:08:05.135Z</time></trkpt><trkpt lat="46.1508451" lon="13.432059"><ele>377.0</ele><time>2026-05-02T13:08:06.128Z</time></trkpt><trkpt lat="46.1508753" lon="13.4319417"><ele>377.0</ele><time>2026-05-02T13:08:07.14Z</time></trkpt><trkpt lat="46.1508981" lon="13.4318549"><ele>377.0</ele><time>2026-05-02T13:08:08.133Z</time></trkpt><trkpt lat="46.1508982" lon="13.4316884"><ele>379.20000000000005</ele><time>2026-05-02T13:08:10.128Z</time></trkpt><trkpt lat="46.1508482" lon="13.4315922"><ele>381.4</ele><time>2026-05-02T13:08:11.124Z</time></trkpt><trkpt lat="46.1507913" lon="13.4314637"><ele>383.6</ele><time>2026-05-02T13:08:12.129Z</time></trkpt><trkpt lat="46.1507514" lon="13.4313258"><ele>385.79999999999995</ele><time>2026-05-02T13:08:13.126Z</time></trkpt><trkpt lat="46.1507268" lon="13.4312101"><ele>388.0</ele><time>2026-05-02T13:08:14.132Z</time></trkpt><trkpt lat="46.1507194" lon="13.4311015"><ele>389.59999999999997</ele><time>2026-05-02T13:08:15.13Z</time></trkpt><trkpt lat="46.1507307" lon="13.4309989"><ele>391.2</ele><time>2026-05-02T13:08:16.128Z</time></trkpt><trkpt lat="46.1507631" lon="13.4308964"><ele>392.8</ele><time>2026-05-02T13:08:17.133Z</time></trkpt><trkpt lat="46.1508198" lon="13.4307703"><ele>394.4</ele><time>2026-05-02T13:08:18.129Z</time></trkpt><trkpt lat="46.1508912" lon="13.4306293"><ele>396.0</ele><time>2026-05-02T13:08:19.125Z</time></trkpt><trkpt lat="46.1509604" lon="13.4304739"><ele>401.0</ele><time>2026-05-02T13:08:20.13Z</time></trkpt><trkpt lat="46.1510365" lon="13.4302901"><ele>406.0</ele><time>2026-05-02T13:08:21.129Z</time></trkpt><trkpt lat="46.1511085" lon="13.430103"><ele>411.0</ele><time>2026-05-02T13:08:22.127Z</time></trkpt><trkpt lat="46.1511745" lon="13.4299235"><ele>416.0</ele><time>2026-05-02T13:08:23.132Z</time></trkpt><trkpt lat="46.1512416" lon="13.4297567"><ele>413.8</ele><time>2026-05-02T13:08:24.142Z</time></trkpt><trkpt lat="46.1513171" lon="13.4296038"><ele>411.6</ele><time>2026-05-02T13:08:25.127Z</time></trkpt><trkpt lat="46.1513906" lon="13.4294718"><ele>409.4</ele><time>2026-05-02T13:08:26.143Z</time></trkpt><trkpt lat="46.1514616" lon="13.4293691"><ele>407.2</ele><time>2026-05-02T13:08:27.127Z</time></trkpt><trkpt lat="46.1515111" lon="13.4293121"><ele>405.0</ele><time>2026-05-02T13:08:28.131Z</time></trkpt><trkpt lat="46.151603" lon="13.4292807"><ele>405.0</ele><time>2026-05-02T13:08:30.12Z</time></trkpt><trkpt lat="46.151655" lon="13.4293331"><ele>405.0</ele><time>2026-05-02T13:08:32.128Z</time></trkpt><trkpt lat="46.1516499" lon="13.4294737"><ele>405.0</ele><time>2026-05-02T13:08:34.117Z</time></trkpt><trkpt lat="46.1516554" lon="13.429568"><ele>405.0</ele><time>2026-05-02T13:08:35.125Z</time></trkpt><trkpt lat="46.1517136" lon="13.4297208"><ele>405.0</ele><time>2026-05-02T13:08:36.122Z</time></trkpt><trkpt lat="46.1517743" lon="13.429879"><ele>401.25</ele><time>2026-05-02T13:08:37.126Z</time></trkpt><trkpt lat="46.151851" lon="13.4300289"><ele>397.5</ele><time>2026-05-02T13:08:38.121Z</time></trkpt><trkpt lat="46.1519565" lon="13.430176"><ele>393.75</ele><time>2026-05-02T13:08:39.133Z</time></trkpt><trkpt lat="46.1520542" lon="13.4303177"><ele>390.0</ele><time>2026-05-02T13:08:40.136Z</time></trkpt><trkpt lat="46.1521345" lon="13.4304406"><ele>388.8</ele><time>2026-05-02T13:08:41.125Z</time></trkpt><trkpt lat="46.1521963" lon="13.4305337"><ele>387.6</ele><time>2026-05-02T13:08:42.132Z</time></trkpt><trkpt lat="46.1523161" lon="13.4305905"><ele>386.4</ele><time>2026-05-02T13:08:44.13Z</time></trkpt><trkpt lat="46.1523988" lon="13.4305618"><ele>385.2</ele><time>2026-05-02T13:08:45.137Z</time></trkpt><trkpt lat="46.1524967" lon="13.4305112"><ele>384.0</ele><time>2026-05-02T13:08:46.132Z</time></trkpt><trkpt lat="46.1526209" lon="13.430461"><ele>390.25</ele><time>2026-05-02T13:08:47.144Z</time></trkpt><trkpt lat="46.1527535" lon="13.4304165"><ele>396.5</ele><time>2026-05-02T13:08:48.129Z</time></trkpt><trkpt lat="46.1528909" lon="13.4303929"><ele>402.75</ele><time>2026-05-02T13:08:49.133Z</time></trkpt><trkpt lat="46.1530231" lon="13.4303838"><ele>409.0</ele><time>2026-05-02T13:08:50.136Z</time></trkpt><trkpt lat="46.1531402" lon="13.430364"><ele>410.00000000000006</ele><time>2026-05-02T13:08:51.134Z</time></trkpt><trkpt lat="46.1532396" lon="13.4303111"><ele>411.0</ele><time>2026-05-02T13:08:52.131Z</time></trkpt><trkpt lat="46.1533329" lon="13.4302597"><ele>412.0</ele><time>2026-05-02T13:08:53.136Z</time></trkpt><trkpt lat="46.1534145" lon="13.4302339"><ele>413.0</ele><time>2026-05-02T13:08:54.137Z</time></trkpt><trkpt lat="46.1534837" lon="13.4302279"><ele>414.00000000000006</ele><time>2026-05-02T13:08:55.137Z</time></trkpt><trkpt lat="46.1535511" lon="13.4302627"><ele>415.0</ele><time>2026-05-02T13:08:56.137Z</time></trkpt><trkpt lat="46.1535943" lon="13.4303504"><ele>410.2</ele><time>2026-05-02T13:08:57.134Z</time></trkpt><trkpt lat="46.1536271" lon="13.4304826"><ele>405.4</ele><time>2026-05-02T13:08:58.155Z</time></trkpt><trkpt lat="46.1536958" lon="13.4306035"><ele>400.6</ele><time>2026-05-02T13:09:00.138Z</time></trkpt><trkpt lat="46.1537796" lon="13.4306242"><ele>395.8</ele><time>2026-05-02T13:09:01.131Z</time></trkpt><trkpt lat="46.1538849" lon="13.4306326"><ele>391.0</ele><time>2026-05-02T13:09:02.124Z</time></trkpt><trkpt lat="46.1539965" lon="13.4306461"><ele>392.1666666666667</ele><time>2026-05-02T13:09:03.142Z</time></trkpt><trkpt lat="46.1540846" lon="13.43064"><ele>393.33333333333337</ele><time>2026-05-02T13:09:04.13Z</time></trkpt><trkpt lat="46.1541477" lon="13.4306201"><ele>394.5</ele><time>2026-05-02T13:09:05.128Z</time></trkpt><trkpt lat="46.1542041" lon="13.4305708"><ele>395.66666666666663</ele><time>2026-05-02T13:09:06.139Z</time></trkpt><trkpt lat="46.1542709" lon="13.4304678"><ele>396.8333333333333</ele><time>2026-05-02T13:09:07.129Z</time></trkpt><trkpt lat="46.1543474" lon="13.4303337"><ele>398.0</ele><time>2026-05-02T13:09:08.127Z</time></trkpt><trkpt lat="46.1544551" lon="13.4301886"><ele>406.66666666666663</ele><time>2026-05-02T13:09:09.144Z</time></trkpt><trkpt lat="46.1545843" lon="13.4300481"><ele>415.33333333333337</ele><time>2026-05-02T13:09:10.132Z</time></trkpt><trkpt lat="46.1547204" lon="13.4299314"><ele>424.0</ele><time>2026-05-02T13:09:11.136Z</time></trkpt><trkpt lat="46.1548505" lon="13.4298146"><ele>422.0</ele><time>2026-05-02T13:09:12.127Z</time></trkpt><trkpt lat="46.1549838" lon="13.4297024"><ele>420.0</ele><time>2026-05-02T13:09:13.129Z</time></trkpt><trkpt lat="46.1551041" lon="13.4296053"><ele>418.0</ele><time>2026-05-02T13:09:14.133Z</time></trkpt><trkpt lat="46.1551999" lon="13.4295466"><ele>416.0</ele><time>2026-05-02T13:09:15.128Z</time></trkpt><trkpt lat="46.1552736" lon="13.4294955"><ele>423.20000000000005</ele><time>2026-05-02T13:09:16.129Z</time></trkpt><trkpt lat="46.1553433" lon="13.4294186"><ele>430.40000000000003</ele><time>2026-05-02T13:09:17.129Z</time></trkpt><trkpt lat="46.155408" lon="13.4293051"><ele>437.6</ele><time>2026-05-02T13:09:18.134Z</time></trkpt><trkpt lat="46.1554672" lon="13.4291575"><ele>444.8</ele><time>2026-05-02T13:09:19.128Z</time></trkpt><trkpt lat="46.1555288" lon="13.4290034"><ele>452.0</ele><time>2026-05-02T13:09:20.147Z</time></trkpt><trkpt lat="46.1555964" lon="13.4288741"><ele>450.8</ele><time>2026-05-02T13:09:21.13Z</time></trkpt><trkpt lat="46.1556667" lon="13.4287523"><ele>449.6</ele><time>2026-05-02T13:09:22.144Z</time></trkpt><trkpt lat="46.1557292" lon="13.4286274"><ele>448.40000000000003</ele><time>2026-05-02T13:09:23.134Z</time></trkpt><trkpt lat="46.1557787" lon="13.4284938"><ele>447.20000000000005</ele><time>2026-05-02T13:09:24.12Z</time></trkpt><trkpt lat="46.155826" lon="13.428357"><ele>446.0</ele><time>2026-05-02T13:09:25.125Z</time></trkpt><trkpt lat="46.1558957" lon="13.4282425"><ele>446.0</ele><time>2026-05-02T13:09:26.137Z</time></trkpt><trkpt lat="46.1559613" lon="13.4281415"><ele>446.0</ele><time>2026-05-02T13:09:27.123Z</time></trkpt><trkpt lat="46.1560184" lon="13.4280725"><ele>446.0</ele><time>2026-05-02T13:09:28.134Z</time></trkpt><trkpt lat="46.1560902" lon="13.4280258"><ele>446.0</ele><time>2026-05-02T13:09:29.125Z</time></trkpt><trkpt lat="46.1561987" lon="13.4280114"><ele>446.0</ele><time>2026-05-02T13:09:30.124Z</time></trkpt><trkpt lat="46.1563269" lon="13.4280175"><ele>446.0</ele><time>2026-05-02T13:09:31.136Z</time></trkpt><trkpt lat="46.156469" lon="13.4280007"><ele>446.0</ele><time>2026-05-02T13:09:32.126Z</time></trkpt><trkpt lat="46.156605" lon="13.4279572"><ele>446.0</ele><time>2026-05-02T13:09:33.117Z</time></trkpt><trkpt lat="46.1567052" lon="13.4278939"><ele>446.0</ele><time>2026-05-02T13:09:34.124Z</time></trkpt><trkpt lat="46.1567675" lon="13.4278249"><ele>448.4</ele><time>2026-05-02T13:09:35.137Z</time></trkpt><trkpt lat="46.1568152" lon="13.4277451"><ele>450.8</ele><time>2026-05-02T13:09:36.119Z</time></trkpt><trkpt lat="46.1568545" lon="13.4276365"><ele>453.19999999999993</ele><time>2026-05-02T13:09:37.124Z</time></trkpt><trkpt lat="46.1569087" lon="13.427501"><ele>455.59999999999997</ele><time>2026-05-02T13:09:38.12Z</time></trkpt><trkpt lat="46.1569735" lon="13.4273626"><ele>458.0</ele><time>2026-05-02T13:09:39.133Z</time></trkpt><trkpt lat="46.15704" lon="13.427233"><ele>461.49999999999994</ele><time>2026-05-02T13:09:40.126Z</time></trkpt><trkpt lat="46.1571012" lon="13.4271308"><ele>465.0</ele><time>2026-05-02T13:09:41.129Z</time></trkpt><trkpt lat="46.1571544" lon="13.4270451"><ele>468.5</ele><time>2026-05-02T13:09:42.136Z</time></trkpt><trkpt lat="46.1572195" lon="13.4269732"><ele>472.0</ele><time>2026-05-02T13:09:43.12Z</time></trkpt><trkpt lat="46.1573009" lon="13.4269293"><ele>475.49999999999994</ele><time>2026-05-02T13:09:44.125Z</time></trkpt><trkpt lat="46.1573964" lon="13.4268852"><ele>479.0</ele><time>2026-05-02T13:09:45.127Z</time></trkpt><trkpt lat="46.1575021" lon="13.4268418"><ele>479.0</ele><time>2026-05-02T13:09:46.135Z</time></trkpt><trkpt lat="46.1576113" lon="13.4267903"><ele>479.0</ele><time>2026-05-02T13:09:47.123Z</time></trkpt><trkpt lat="46.1577189" lon="13.4267309"><ele>479.0</ele><time>2026-05-02T13:09:48.131Z</time></trkpt><trkpt lat="46.1578295" lon="13.4266729"><ele>479.0</ele><time>2026-05-02T13:09:49.129Z</time></trkpt><trkpt lat="46.1579345" lon="13.4266225"><ele>479.0</ele><time>2026-05-02T13:09:50.143Z</time></trkpt><trkpt lat="46.1580367" lon="13.4266164"><ele>479.0</ele><time>2026-05-02T13:09:51.126Z</time></trkpt><trkpt lat="46.158153" lon="13.4266526"><ele>479.0</ele><time>2026-05-02T13:09:52.129Z</time></trkpt><trkpt lat="46.1582861" lon="13.4267299"><ele>479.0</ele><time>2026-05-02T13:09:53.124Z</time></trkpt><trkpt lat="46.1584306" lon="13.4268115"><ele>478.0</ele><time>2026-05-02T13:09:54.138Z</time></trkpt><trkpt lat="46.158561" lon="13.426872"><ele>477.0</ele><time>2026-05-02T13:09:55.152Z</time></trkpt><trkpt lat="46.1586784" lon="13.4269108"><ele>476.0</ele><time>2026-05-02T13:09:56.13Z</time></trkpt><trkpt lat="46.1587713" lon="13.4269269"><ele>475.0</ele><time>2026-05-02T13:09:57.136Z</time></trkpt><trkpt lat="46.1588399" lon="13.4269414"><ele>474.0</ele><time>2026-05-02T13:09:58.141Z</time></trkpt><trkpt lat="46.1589321" lon="13.4268979"><ele>474.0</ele><time>2026-05-02T13:10:00.128Z</time></trkpt><trkpt lat="46.1589704" lon="13.4268251"><ele>474.0</ele><time>2026-05-02T13:10:01.13Z</time></trkpt><trkpt lat="46.1590306" lon="13.4267196"><ele>474.0</ele><time>2026-05-02T13:10:02.126Z</time></trkpt><trkpt lat="46.1590999" lon="13.4265768"><ele>474.0</ele><time>2026-05-02T13:10:03.146Z</time></trkpt><trkpt lat="46.1591667" lon="13.4264205"><ele>474.0</ele><time>2026-05-02T13:10:04.141Z</time></trkpt><trkpt lat="46.1592103" lon="13.4262653"><ele>474.5</ele><time>2026-05-02T13:10:05.124Z</time></trkpt><trkpt lat="46.1592342" lon="13.4261025"><ele>475.0</ele><time>2026-05-02T13:10:06.149Z</time></trkpt><trkpt lat="46.1592497" lon="13.4259168"><ele>475.5</ele><time>2026-05-02T13:10:07.132Z</time></trkpt><trkpt lat="46.1592599" lon="13.4257161"><ele>476.0</ele><time>2026-05-02T13:10:08.135Z</time></trkpt><trkpt lat="46.1592768" lon="13.4255162"><ele>478.0</ele><time>2026-05-02T13:10:09.123Z</time></trkpt><trkpt lat="46.1592948" lon="13.4253303"><ele>480.0</ele><time>2026-05-02T13:10:10.13Z</time></trkpt><trkpt lat="46.1593002" lon="13.4251807"><ele>482.0</ele><time>2026-05-02T13:10:11.132Z</time></trkpt><trkpt lat="46.1592929" lon="13.4250492"><ele>484.0</ele><time>2026-05-02T13:10:12.13Z</time></trkpt><trkpt lat="46.159273" lon="13.4249179"><ele>486.0</ele><time>2026-05-02T13:10:13.132Z</time></trkpt><trkpt lat="46.1592409" lon="13.424787"><ele>486.0</ele><time>2026-05-02T13:10:14.127Z</time></trkpt><trkpt lat="46.15921" lon="13.4246749"><ele>486.0</ele><time>2026-05-02T13:10:15.12Z</time></trkpt><trkpt lat="46.1592339" lon="13.4245383"><ele>486.0</ele><time>2026-05-02T13:10:17.13Z</time></trkpt><trkpt lat="46.159273" lon="13.4244658"><ele>486.0</ele><time>2026-05-02T13:10:18.13Z</time></trkpt><trkpt lat="46.1593138" lon="13.4243959"><ele>486.0</ele><time>2026-05-02T13:10:19.116Z</time></trkpt><trkpt lat="46.1593551" lon="13.4243146"><ele>486.0</ele><time>2026-05-02T13:10:20.124Z</time></trkpt><trkpt lat="46.1593869" lon="13.4241928"><ele>488.3333333333333</ele><time>2026-05-02T13:10:21.122Z</time></trkpt><trkpt lat="46.1594101" lon="13.4240604"><ele>490.66666666666663</ele><time>2026-05-02T13:10:22.126Z</time></trkpt><trkpt lat="46.1594201" lon="13.4239438"><ele>493.0</ele><time>2026-05-02T13:10:23.121Z</time></trkpt><trkpt lat="46.1594168" lon="13.4238333"><ele>495.3333333333333</ele><time>2026-05-02T13:10:24.125Z</time></trkpt><trkpt lat="46.1593943" lon="13.4237092"><ele>497.66666666666663</ele><time>2026-05-02T13:10:25.129Z</time></trkpt><trkpt lat="46.159365" lon="13.4235918"><ele>500.0</ele><time>2026-05-02T13:10:26.123Z</time></trkpt><trkpt lat="46.1593294" lon="13.4234789"><ele>500.3333333333333</ele><time>2026-05-02T13:10:27.121Z</time></trkpt><trkpt lat="46.1592947" lon="13.4233687"><ele>500.66666666666663</ele><time>2026-05-02T13:10:28.129Z</time></trkpt><trkpt lat="46.1592606" lon="13.4232565"><ele>501.0</ele><time>2026-05-02T13:10:29.115Z</time></trkpt><trkpt lat="46.1592181" lon="13.4231393"><ele>501.33333333333337</ele><time>2026-05-02T13:10:30.128Z</time></trkpt><trkpt lat="46.159174" lon="13.4230296"><ele>501.6666666666667</ele><time>2026-05-02T13:10:31.118Z</time></trkpt><trkpt lat="46.1591189" lon="13.4229346"><ele>502.0</ele><time>2026-05-02T13:10:32.118Z</time></trkpt><trkpt lat="46.1590674" lon="13.4228388"><ele>499.6</ele><time>2026-05-02T13:10:33.123Z</time></trkpt><trkpt lat="46.1590409" lon="13.4227227"><ele>497.20000000000005</ele><time>2026-05-02T13:10:34.122Z</time></trkpt><trkpt lat="46.1590341" lon="13.4225866"><ele>494.8</ele><time>2026-05-02T13:10:35.131Z</time></trkpt><trkpt lat="46.1590285" lon="13.4224342"><ele>492.4</ele><time>2026-05-02T13:10:36.111Z</time></trkpt><trkpt lat="46.1590108" lon="13.4222797"><ele>490.0</ele><time>2026-05-02T13:10:37.122Z</time></trkpt><trkpt lat="46.158993" lon="13.4221184"><ele>504.0</ele><time>2026-05-02T13:10:38.121Z</time></trkpt><trkpt lat="46.1589965" lon="13.4219509"><ele>518.0</ele><time>2026-05-02T13:10:39.122Z</time></trkpt><trkpt lat="46.1590237" lon="13.4218063"><ele>532.0</ele><time>2026-05-02T13:10:40.127Z</time></trkpt><trkpt lat="46.1590308" lon="13.4216839"><ele>546.0</ele><time>2026-05-02T13:10:41.125Z</time></trkpt><trkpt lat="46.1590252" lon="13.4214961"><ele>560.0</ele><time>2026-05-02T13:10:43.126Z</time></trkpt><trkpt lat="46.1589864" lon="13.4213907"><ele>559.4</ele><time>2026-05-02T13:10:44.122Z</time></trkpt><trkpt lat="46.1589441" lon="13.4212846"><ele>558.8</ele><time>2026-05-02T13:10:45.12Z</time></trkpt><trkpt lat="46.1589153" lon="13.421202"><ele>558.2</ele><time>2026-05-02T13:10:46.121Z</time></trkpt><trkpt lat="46.1589113" lon="13.4210594"><ele>557.6</ele><time>2026-05-02T13:10:48.127Z</time></trkpt><trkpt lat="46.1590283" lon="13.4209573"><ele>557.0</ele><time>2026-05-02T13:10:50.12Z</time></trkpt><trkpt lat="46.1591165" lon="13.4208975"><ele>550.0</ele><time>2026-05-02T13:10:51.11Z</time></trkpt><trkpt lat="46.1592179" lon="13.4208007"><ele>543.0</ele><time>2026-05-02T13:10:52.125Z</time></trkpt><trkpt lat="46.159308" lon="13.420709"><ele>536.0</ele><time>2026-05-02T13:10:53.112Z</time></trkpt><trkpt lat="46.1593786" lon="13.4205833"><ele>529.0</ele><time>2026-05-02T13:10:54.117Z</time></trkpt><trkpt lat="46.1594484" lon="13.4204178"><ele>529.0</ele><time>2026-05-02T13:10:55.118Z</time></trkpt><trkpt lat="46.1595306" lon="13.420263"><ele>529.0</ele><time>2026-05-02T13:10:56.129Z</time></trkpt><trkpt lat="46.1596085" lon="13.4201165"><ele>529.0</ele><time>2026-05-02T13:10:57.123Z</time></trkpt><trkpt lat="46.1596833" lon="13.4199617"><ele>529.0</ele><time>2026-05-02T13:10:58.119Z</time></trkpt><trkpt lat="46.1597429" lon="13.419808"><ele>529.0</ele><time>2026-05-02T13:10:59.123Z</time></trkpt><trkpt lat="46.1597907" lon="13.4196538"><ele>529.0</ele><time>2026-05-02T13:11:00.122Z</time></trkpt><trkpt lat="46.1598235" lon="13.4194851"><ele>529.0</ele><time>2026-05-02T13:11:01.127Z</time></trkpt><trkpt lat="46.1598423" lon="13.4192864"><ele>529.0</ele><time>2026-05-02T13:11:02.117Z</time></trkpt><trkpt lat="46.159872" lon="13.4190719"><ele>524.25</ele><time>2026-05-02T13:11:03.124Z</time></trkpt><trkpt lat="46.1599102" lon="13.4188542"><ele>519.5</ele><time>2026-05-02T13:11:04.125Z</time></trkpt><trkpt lat="46.1599575" lon="13.4186449"><ele>514.75</ele><time>2026-05-02T13:11:05.122Z</time></trkpt><trkpt lat="46.1600069" lon="13.4184628"><ele>510.0</ele><time>2026-05-02T13:11:06.118Z</time></trkpt><trkpt lat="46.1600463" lon="13.4183184"><ele>510.0</ele><time>2026-05-02T13:11:07.119Z</time></trkpt><trkpt lat="46.1600696" lon="13.4182095"><ele>510.0</ele><time>2026-05-02T13:11:08.124Z</time></trkpt><trkpt lat="46.1601616" lon="13.4181119"><ele>510.0</ele><time>2026-05-02T13:11:10.118Z</time></trkpt><trkpt lat="46.160259" lon="13.4181576"><ele>510.0</ele><time>2026-05-02T13:11:12.118Z</time></trkpt><trkpt lat="46.1602847" lon="13.4183244"><ele>510.0</ele><time>2026-05-02T13:11:14.127Z</time></trkpt><trkpt lat="46.1602783" lon="13.4184721"><ele>510.0</ele><time>2026-05-02T13:11:15.12Z</time></trkpt><trkpt lat="46.1602891" lon="13.4186264"><ele>510.0</ele><time>2026-05-02T13:11:16.116Z</time></trkpt><trkpt lat="46.1603063" lon="13.4187709"><ele>510.0</ele><time>2026-05-02T13:11:17.121Z</time></trkpt><trkpt lat="46.1603373" lon="13.4189182"><ele>510.0</ele><time>2026-05-02T13:11:18.121Z</time></trkpt><trkpt lat="46.1604041" lon="13.4190919"><ele>507.25</ele><time>2026-05-02T13:11:19.127Z</time></trkpt><trkpt lat="46.1604663" lon="13.4192654"><ele>504.5</ele><time>2026-05-02T13:11:20.117Z</time></trkpt><trkpt lat="46.1605187" lon="13.4194196"><ele>501.75</ele><time>2026-05-02T13:11:21.126Z</time></trkpt><trkpt lat="46.160554" lon="13.4195639"><ele>499.0</ele><time>2026-05-02T13:11:22.122Z</time></trkpt><trkpt lat="46.1605508" lon="13.4197081"><ele>498.00000000000006</ele><time>2026-05-02T13:11:23.119Z</time></trkpt><trkpt lat="46.1605345" lon="13.4198493"><ele>497.0</ele><time>2026-05-02T13:11:24.13Z</time></trkpt><trkpt lat="46.1605292" lon="13.4199826"><ele>496.0</ele><time>2026-05-02T13:11:25.125Z</time></trkpt><trkpt lat="46.160549" lon="13.4200948"><ele>495.0</ele><time>2026-05-02T13:11:26.132Z</time></trkpt><trkpt lat="46.1605919" lon="13.4201783"><ele>494.00000000000006</ele><time>2026-05-02T13:11:27.131Z</time></trkpt><trkpt lat="46.1606439" lon="13.4202476"><ele>493.0</ele><time>2026-05-02T13:11:28.134Z</time></trkpt><trkpt lat="46.1607096" lon="13.420338"><ele>493.00000000000006</ele><time>2026-05-02T13:11:29.121Z</time></trkpt><trkpt lat="46.1607658" lon="13.4204308"><ele>493.0</ele><time>2026-05-02T13:11:30.129Z</time></trkpt><trkpt lat="46.1608015" lon="13.4205179"><ele>493.0</ele><time>2026-05-02T13:11:31.132Z</time></trkpt><trkpt lat="46.1608503" lon="13.4206642"><ele>493.0</ele><time>2026-05-02T13:11:33.13Z</time></trkpt><trkpt lat="46.1609234" lon="13.4207407"><ele>493.00000000000006</ele><time>2026-05-02T13:11:35.129Z</time></trkpt><trkpt lat="46.1609842" lon="13.4207923"><ele>493.0</ele><time>2026-05-02T13:12:17.135Z</time></trkpt><trkpt lat="46.1610325" lon="13.4208596"><ele>492.83333333333337</ele><time>2026-05-02T13:12:20.147Z</time></trkpt><trkpt lat="46.1610848" lon="13.4209104"><ele>492.6666666666667</ele><time>2026-05-02T13:12:21.133Z</time></trkpt><trkpt lat="46.161162" lon="13.4209636"><ele>492.5</ele><time>2026-05-02T13:12:22.141Z</time></trkpt><trkpt lat="46.1612549" lon="13.4210117"><ele>492.33333333333337</ele><time>2026-05-02T13:12:23.144Z</time></trkpt><trkpt lat="46.1613364" lon="13.4210571"><ele>492.1666666666667</ele><time>2026-05-02T13:12:24.127Z</time></trkpt><trkpt lat="46.1614123" lon="13.4211153"><ele>492.0</ele><time>2026-05-02T13:12:25.133Z</time></trkpt><trkpt lat="46.161508" lon="13.4212068"><ele>495.0</ele><time>2026-05-02T13:12:26.137Z</time></trkpt><trkpt lat="46.1615974" lon="13.4213508"><ele>498.0</ele><time>2026-05-02T13:12:27.135Z</time></trkpt><trkpt lat="46.1616526" lon="13.4215456"><ele>501.0</ele><time>2026-05-02T13:12:28.134Z</time></trkpt><trkpt lat="46.1616781" lon="13.4217689"><ele>504.0</ele><time>2026-05-02T13:12:29.14Z</time></trkpt><trkpt lat="46.1617195" lon="13.4219828"><ele>499.25</ele><time>2026-05-02T13:12:30.141Z</time></trkpt><trkpt lat="46.1617773" lon="13.422187"><ele>494.5</ele><time>2026-05-02T13:12:31.131Z</time></trkpt><trkpt lat="46.1618471" lon="13.4223602"><ele>489.75</ele><time>2026-05-02T13:12:32.132Z</time></trkpt><trkpt lat="46.1619226" lon="13.4225129"><ele>485.0</ele><time>2026-05-02T13:12:33.135Z</time></trkpt><trkpt lat="46.1619946" lon="13.4226507"><ele>485.0</ele><time>2026-05-02T13:12:34.14Z</time></trkpt><trkpt lat="46.162065" lon="13.4227672"><ele>485.0</ele><time>2026-05-02T13:12:35.13Z</time></trkpt><trkpt lat="46.162124" lon="13.4228774"><ele>485.0</ele><time>2026-05-02T13:12:36.136Z</time></trkpt><trkpt lat="46.1621711" lon="13.422967"><ele>485.0</ele><time>2026-05-02T13:12:37.139Z</time></trkpt><trkpt lat="46.1622416" lon="13.4231102"><ele>485.0</ele><time>2026-05-02T13:12:39.131Z</time></trkpt><trkpt lat="46.1623052" lon="13.4232085"><ele>481.8333333333333</ele><time>2026-05-02T13:12:41.138Z</time></trkpt><trkpt lat="46.162359" lon="13.4232622"><ele>478.66666666666663</ele><time>2026-05-02T13:12:43.131Z</time></trkpt><trkpt lat="46.1624408" lon="13.4233142"><ele>475.5</ele><time>2026-05-02T13:12:46.135Z</time></trkpt><trkpt lat="46.162523" lon="13.42339"><ele>472.33333333333337</ele><time>2026-05-02T13:12:49.135Z</time></trkpt><trkpt lat="46.1625073" lon="13.423536"><ele>469.1666666666667</ele><time>2026-05-02T13:12:51.142Z</time></trkpt><trkpt lat="46.1624833" lon="13.4236241"><ele>466.0</ele><time>2026-05-02T13:12:52.125Z</time></trkpt><trkpt lat="46.162454" lon="13.4237152"><ele>466.33333333333337</ele><time>2026-05-02T13:12:53.132Z</time></trkpt><trkpt lat="46.162432" lon="13.4238022"><ele>466.6666666666667</ele><time>2026-05-02T13:12:54.133Z</time></trkpt><trkpt lat="46.1624051" lon="13.4239425"><ele>467.0</ele><time>2026-05-02T13:12:56.126Z</time></trkpt><trkpt lat="46.1623939" lon="13.4240476"><ele>467.33333333333337</ele><time>2026-05-02T13:12:58.141Z</time></trkpt><trkpt lat="46.1623837" lon="13.4241642"><ele>467.6666666666667</ele><time>2026-05-02T13:13:00.129Z</time></trkpt><trkpt lat="46.162373" lon="13.4242767"><ele>468.0</ele><time>2026-05-02T13:13:02.135Z</time></trkpt><trkpt lat="46.1623543" lon="13.4244173"><ele>468.0</ele><time>2026-05-02T13:13:04.134Z</time></trkpt><trkpt lat="46.1623329" lon="13.4245782"><ele>468.0</ele><time>2026-05-02T13:13:06.139Z</time></trkpt><trkpt lat="46.1623227" lon="13.4247416"><ele>468.0</ele><time>2026-05-02T13:13:08.134Z</time></trkpt><trkpt lat="46.1623077" lon="13.4249034"><ele>468.0</ele><time>2026-05-02T13:13:10.188Z</time></trkpt><trkpt lat="46.162303" lon="13.4250731"><ele>468.75</ele><time>2026-05-02T13:13:12.143Z</time></trkpt><trkpt lat="46.16229" lon="13.425253"><ele>469.5</ele><time>2026-05-02T13:13:14.139Z</time></trkpt><trkpt lat="46.1622867" lon="13.4254283"><ele>470.25</ele><time>2026-05-02T13:13:16.137Z</time></trkpt><trkpt lat="46.1622938" lon="13.4255821"><ele>471.0</ele><time>2026-05-02T13:13:18.145Z</time></trkpt><trkpt lat="46.1623012" lon="13.425728"><ele>471.6666666666667</ele><time>2026-05-02T13:13:20.133Z</time></trkpt><trkpt lat="46.162332" lon="13.4258297"><ele>472.33333333333337</ele><time>2026-05-02T13:13:22.143Z</time></trkpt><trkpt lat="46.1624027" lon="13.4257887"><ele>473.0</ele><time>2026-05-02T13:13:24.166Z</time></trkpt><trkpt lat="46.1624095" lon="13.4256445"><ele>473.6666666666667</ele><time>2026-05-02T13:13:26.144Z</time></trkpt><trkpt lat="46.16238" lon="13.4254698"><ele>474.33333333333337</ele><time>2026-05-02T13:13:28.138Z</time></trkpt><trkpt lat="46.1623843" lon="13.4253692"><ele>475.0</ele><time>2026-05-02T13:13:29.15Z</time></trkpt><trkpt lat="46.1623994" lon="13.4252661"><ele>483.6666666666667</ele><time>2026-05-02T13:13:30.134Z</time></trkpt><trkpt lat="46.1624255" lon="13.4251628"><ele>492.33333333333337</ele><time>2026-05-02T13:13:31.146Z</time></trkpt><trkpt lat="46.1624546" lon="13.4250472"><ele>501.0</ele><time>2026-05-02T13:13:32.147Z</time></trkpt><trkpt lat="46.1624786" lon="13.424932"><ele>509.66666666666663</ele><time>2026-05-02T13:13:33.137Z</time></trkpt><trkpt lat="46.1624978" lon="13.4248181"><ele>518.3333333333333</ele><time>2026-05-02T13:13:34.135Z</time></trkpt><trkpt lat="46.1625208" lon="13.4247081"><ele>527.0</ele><time>2026-05-02T13:13:35.144Z</time></trkpt><trkpt lat="46.1625403" lon="13.4246179"><ele>527.0</ele><time>2026-05-02T13:13:36.14Z</time></trkpt><trkpt lat="46.1625706" lon="13.424517"><ele>527.0</ele><time>2026-05-02T13:13:38.142Z</time></trkpt><trkpt lat="46.1625967" lon="13.4243839"><ele>527.0</ele><time>2026-05-02T13:13:50.134Z</time></trkpt><trkpt lat="46.162654" lon="13.4242182"><ele>527.0</ele><time>2026-05-02T13:13:52.131Z</time></trkpt><trkpt lat="46.1626937" lon="13.4241227"><ele>527.0</ele><time>2026-05-02T13:13:53.138Z</time></trkpt><trkpt lat="46.1627426" lon="13.4240044"><ele>527.0</ele><time>2026-05-02T13:13:54.131Z</time></trkpt><trkpt lat="46.162794" lon="13.4238845"><ele>527.0</ele><time>2026-05-02T13:13:55.132Z</time></trkpt><trkpt lat="46.1628436" lon="13.4237728"><ele>527.0</ele><time>2026-05-02T13:13:56.127Z</time></trkpt><trkpt lat="46.1628873" lon="13.4236747"><ele>527.0</ele><time>2026-05-02T13:13:57.133Z</time></trkpt><trkpt lat="46.1629278" lon="13.4235922"><ele>527.0</ele><time>2026-05-02T13:13:58.136Z</time></trkpt><trkpt lat="46.1629642" lon="13.4235146"><ele>527.0</ele><time>2026-05-02T13:13:59.128Z</time></trkpt><trkpt lat="46.1630045" lon="13.4234401"><ele>524.8000000000001</ele><time>2026-05-02T13:14:00.139Z</time></trkpt><trkpt lat="46.1630599" lon="13.4233161"><ele>522.6</ele><time>2026-05-02T13:14:02.134Z</time></trkpt><trkpt lat="46.1630777" lon="13.4231821"><ele>520.4000000000001</ele><time>2026-05-02T13:14:05.143Z</time></trkpt><trkpt lat="46.1630418" lon="13.4230818"><ele>518.2</ele><time>2026-05-02T13:14:07.133Z</time></trkpt><trkpt lat="46.16297" lon="13.422976"><ele>516.0</ele><time>2026-05-02T13:14:09.131Z</time></trkpt><trkpt lat="46.1628908" lon="13.4228773"><ele>516.0</ele><time>2026-05-02T13:14:11.138Z</time></trkpt><trkpt lat="46.1628182" lon="13.4227744"><ele>516.0</ele><time>2026-05-02T13:14:13.136Z</time></trkpt><trkpt lat="46.1627527" lon="13.4226832"><ele>516.0</ele><time>2026-05-02T13:14:15.152Z</time></trkpt><trkpt lat="46.1627041" lon="13.422578"><ele>516.0</ele><time>2026-05-02T13:14:17.133Z</time></trkpt><trkpt lat="46.162662" lon="13.4224792"><ele>516.0</ele><time>2026-05-02T13:14:19.135Z</time></trkpt><trkpt lat="46.1626302" lon="13.4223622"><ele>516.0</ele><time>2026-05-02T13:14:21.133Z</time></trkpt><trkpt lat="46.1626097" lon="13.4222151"><ele>516.0</ele><time>2026-05-02T13:14:23.146Z</time></trkpt><trkpt lat="46.1626033" lon="13.4220718"><ele>516.0</ele><time>2026-05-02T13:14:25.139Z</time></trkpt><trkpt lat="46.1626037" lon="13.4219233"><ele>516.0</ele><time>2026-05-02T13:14:27.139Z</time></trkpt><trkpt lat="46.1626057" lon="13.4217667"><ele>516.0</ele><time>2026-05-02T13:14:29.143Z</time></trkpt><trkpt lat="46.1626079" lon="13.4215945"><ele>516.0</ele><time>2026-05-02T13:14:31.146Z</time></trkpt><trkpt lat="46.1626187" lon="13.4214185"><ele>522.4</ele><time>2026-05-02T13:14:33.15Z</time></trkpt><trkpt lat="46.1626347" lon="13.4212529"><ele>528.8</ele><time>2026-05-02T13:14:35.136Z</time></trkpt><trkpt lat="46.1626531" lon="13.4210979"><ele>535.1999999999999</ele><time>2026-05-02T13:14:37.146Z</time></trkpt><trkpt lat="46.1626798" lon="13.4209284"><ele>541.6</ele><time>2026-05-02T13:14:39.137Z</time></trkpt><trkpt lat="46.1626979" lon="13.4208366"><ele>548.0</ele><time>2026-05-02T13:14:40.145Z</time></trkpt><trkpt lat="46.1627185" lon="13.420747"><ele>548.0000000000001</ele><time>2026-05-02T13:14:41.15Z</time></trkpt><trkpt lat="46.1627409" lon="13.4206413"><ele>548.0</ele><time>2026-05-02T13:14:42.136Z</time></trkpt><trkpt lat="46.162762" lon="13.4205424"><ele>548.0</ele><time>2026-05-02T13:14:43.145Z</time></trkpt><trkpt lat="46.162778" lon="13.4204492"><ele>548.0</ele><time>2026-05-02T13:14:44.138Z</time></trkpt><trkpt lat="46.162791" lon="13.4203574"><ele>548.0</ele><time>2026-05-02T13:14:45.15Z</time></trkpt><trkpt lat="46.1628065" lon="13.4202646"><ele>548.0000000000001</ele><time>2026-05-02T13:14:46.168Z</time></trkpt><trkpt lat="46.162821" lon="13.4201699"><ele>548.0</ele><time>2026-05-02T13:14:47.142Z</time></trkpt><trkpt lat="46.1628378" lon="13.4200793"><ele>548.4285714285714</ele><time>2026-05-02T13:14:48.143Z</time></trkpt><trkpt lat="46.1628546" lon="13.4199889"><ele>548.8571428571429</ele><time>2026-05-02T13:14:49.137Z</time></trkpt><trkpt lat="46.1628666" lon="13.4198931"><ele>549.2857142857142</ele><time>2026-05-02T13:14:50.153Z</time></trkpt><trkpt lat="46.1628736" lon="13.4197935"><ele>549.7142857142858</ele><time>2026-05-02T13:14:51.146Z</time></trkpt><trkpt lat="46.1628716" lon="13.4196922"><ele>550.1428571428571</ele><time>2026-05-02T13:14:52.146Z</time></trkpt><trkpt lat="46.1628633" lon="13.419589"><ele>550.5714285714286</ele><time>2026-05-02T13:14:53.137Z</time></trkpt><trkpt lat="46.1628445" lon="13.4194776"><ele>551.0</ele><time>2026-05-02T13:14:54.15Z</time></trkpt><trkpt lat="46.1628293" lon="13.419362"><ele>556.5</ele><time>2026-05-02T13:14:55.142Z</time></trkpt><trkpt lat="46.1628067" lon="13.4192196"><ele>562.0</ele><time>2026-05-02T13:14:56.141Z</time></trkpt><trkpt lat="46.1627801" lon="13.419051"><ele>567.5</ele><time>2026-05-02T13:14:57.143Z</time></trkpt><trkpt lat="46.1627704" lon="13.418868"><ele>573.0</ele><time>2026-05-02T13:14:58.142Z</time></trkpt><trkpt lat="46.1627781" lon="13.4186851"><ele>574.75</ele><time>2026-05-02T13:14:59.142Z</time></trkpt><trkpt lat="46.1628128" lon="13.4184769"><ele>576.5</ele><time>2026-05-02T13:15:00.143Z</time></trkpt><trkpt lat="46.1628488" lon="13.4182682"><ele>578.25</ele><time>2026-05-02T13:15:01.144Z</time></trkpt><trkpt lat="46.1628881" lon="13.4180639"><ele>580.0</ele><time>2026-05-02T13:15:02.135Z</time></trkpt><trkpt lat="46.1629286" lon="13.4178722"><ele>580.0</ele><time>2026-05-02T13:15:03.136Z</time></trkpt><trkpt lat="46.1629809" lon="13.4176887"><ele>580.0</ele><time>2026-05-02T13:15:04.133Z</time></trkpt><trkpt lat="46.1630433" lon="13.4175157"><ele>580.0</ele><time>2026-05-02T13:15:05.134Z</time></trkpt><trkpt lat="46.1631105" lon="13.4173554"><ele>580.0</ele><time>2026-05-02T13:15:06.149Z</time></trkpt><trkpt lat="46.1631809" lon="13.4172206"><ele>586.25</ele><time>2026-05-02T13:15:07.143Z</time></trkpt><trkpt lat="46.163258" lon="13.417107"><ele>592.5</ele><time>2026-05-02T13:15:08.139Z</time></trkpt><trkpt lat="46.1633613" lon="13.4170286"><ele>598.75</ele><time>2026-05-02T13:15:09.145Z</time></trkpt><trkpt lat="46.163496" lon="13.4169813"><ele>605.0</ele><time>2026-05-02T13:15:10.13Z</time></trkpt><trkpt lat="46.1636257" lon="13.4169344"><ele>605.0</ele><time>2026-05-02T13:15:11.127Z</time></trkpt><trkpt lat="46.1637481" lon="13.416885"><ele>605.0</ele><time>2026-05-02T13:15:12.126Z</time></trkpt><trkpt lat="46.1638629" lon="13.4168112"><ele>605.0</ele><time>2026-05-02T13:15:13.129Z</time></trkpt><trkpt lat="46.1639633" lon="13.4167186"><ele>605.0</ele><time>2026-05-02T13:15:14.129Z</time></trkpt><trkpt lat="46.1640531" lon="13.4166293"><ele>613.0</ele><time>2026-05-02T13:15:15.137Z</time></trkpt><trkpt lat="46.1641272" lon="13.4165356"><ele>621.0</ele><time>2026-05-02T13:15:16.13Z</time></trkpt><trkpt lat="46.1641772" lon="13.4164472"><ele>629.0</ele><time>2026-05-02T13:15:17.143Z</time></trkpt><trkpt lat="46.1641871" lon="13.4163397"><ele>637.0</ele><time>2026-05-02T13:15:18.126Z</time></trkpt><trkpt lat="46.1641476" lon="13.4162255"><ele>645.0</ele><time>2026-05-02T13:15:19.13Z</time></trkpt><trkpt lat="46.1640761" lon="13.4161022"><ele>634.5</ele><time>2026-05-02T13:15:20.126Z</time></trkpt><trkpt lat="46.1639837" lon="13.4159918"><ele>624.0</ele><time>2026-05-02T13:15:21.123Z</time></trkpt><trkpt lat="46.1638917" lon="13.4158936"><ele>613.5</ele><time>2026-05-02T13:15:22.124Z</time></trkpt><trkpt lat="46.1637957" lon="13.415762"><ele>603.0</ele><time>2026-05-02T13:15:23.134Z</time></trkpt><trkpt lat="46.1637144" lon="13.4156086"><ele>603.0</ele><time>2026-05-02T13:15:24.12Z</time></trkpt><trkpt lat="46.1636248" lon="13.4154771"><ele>603.0</ele><time>2026-05-02T13:15:25.124Z</time></trkpt><trkpt lat="46.163529" lon="13.4153757"><ele>603.0</ele><time>2026-05-02T13:15:26.124Z</time></trkpt><trkpt lat="46.1634506" lon="13.4152748"><ele>603.0</ele><time>2026-05-02T13:15:27.135Z</time></trkpt><trkpt lat="46.1634064" lon="13.4151526"><ele>603.0</ele><time>2026-05-02T13:15:28.128Z</time></trkpt><trkpt lat="46.1633528" lon="13.4150288"><ele>602.8</ele><time>2026-05-02T13:15:29.13Z</time></trkpt><trkpt lat="46.1632761" lon="13.4149451"><ele>602.5999999999999</ele><time>2026-05-02T13:15:30.131Z</time></trkpt><trkpt lat="46.1631883" lon="13.4148666"><ele>602.4000000000001</ele><time>2026-05-02T13:15:31.132Z</time></trkpt><trkpt lat="46.1631365" lon="13.4147727"><ele>602.2</ele><time>2026-05-02T13:15:32.138Z</time></trkpt><trkpt lat="46.1631421" lon="13.4146479"><ele>602.0</ele><time>2026-05-02T13:15:33.142Z</time></trkpt><trkpt lat="46.1631611" lon="13.414514"><ele>608.0</ele><time>2026-05-02T13:15:34.13Z</time></trkpt><trkpt lat="46.1631613" lon="13.4143886"><ele>614.0</ele><time>2026-05-02T13:15:35.129Z</time></trkpt><trkpt lat="46.1631256" lon="13.414275"><ele>620.0</ele><time>2026-05-02T13:15:36.138Z</time></trkpt><trkpt lat="46.1630514" lon="13.4141712"><ele>626.0</ele><time>2026-05-02T13:15:37.125Z</time></trkpt><trkpt lat="46.1629477" lon="13.4140836"><ele>632.0</ele><time>2026-05-02T13:15:38.129Z</time></trkpt><trkpt lat="46.1628283" lon="13.4139992"><ele>632.0</ele><time>2026-05-02T13:15:39.135Z</time></trkpt><trkpt lat="46.1627073" lon="13.4139057"><ele>632.0</ele><time>2026-05-02T13:15:40.134Z</time></trkpt><trkpt lat="46.1625972" lon="13.4137943"><ele>632.0</ele><time>2026-05-02T13:15:41.136Z</time></trkpt><trkpt lat="46.1624939" lon="13.4136857"><ele>632.0</ele><time>2026-05-02T13:15:42.136Z</time></trkpt><trkpt lat="46.1623976" lon="13.4135912"><ele>632.0</ele><time>2026-05-02T13:15:43.136Z</time></trkpt><trkpt lat="46.16231" lon="13.413492"><ele>632.0</ele><time>2026-05-02T13:15:44.137Z</time></trkpt><trkpt lat="46.1622216" lon="13.4133924"><ele>632.0</ele><time>2026-05-02T13:15:45.146Z</time></trkpt><trkpt lat="46.1621333" lon="13.4133016"><ele>632.0</ele><time>2026-05-02T13:15:46.141Z</time></trkpt><trkpt lat="46.1620495" lon="13.4132172"><ele>632.0</ele><time>2026-05-02T13:15:47.144Z</time></trkpt><trkpt lat="46.1619644" lon="13.4131333"><ele>632.0</ele><time>2026-05-02T13:15:48.143Z</time></trkpt><trkpt lat="46.1618973" lon="13.4130272"><ele>632.0</ele><time>2026-05-02T13:15:49.14Z</time></trkpt><trkpt lat="46.161853" lon="13.4128804"><ele>632.0</ele><time>2026-05-02T13:15:50.128Z</time></trkpt><trkpt lat="46.161831" lon="13.412704"><ele>632.0</ele><time>2026-05-02T13:15:51.134Z</time></trkpt><trkpt lat="46.1618203" lon="13.4125177"><ele>634.0</ele><time>2026-05-02T13:15:52.137Z</time></trkpt><trkpt lat="46.16182" lon="13.4123319"><ele>636.0</ele><time>2026-05-02T13:15:53.148Z</time></trkpt><trkpt lat="46.161813" lon="13.4121605"><ele>638.0</ele><time>2026-05-02T13:15:54.141Z</time></trkpt><trkpt lat="46.1618151" lon="13.4120017"><ele>640.0</ele><time>2026-05-02T13:15:55.143Z</time></trkpt><trkpt lat="46.1618373" lon="13.4118442"><ele>640.0</ele><time>2026-05-02T13:15:56.142Z</time></trkpt><trkpt lat="46.1618756" lon="13.4116808"><ele>640.0</ele><time>2026-05-02T13:15:57.146Z</time></trkpt><trkpt lat="46.1619272" lon="13.4115087"><ele>640.0</ele><time>2026-05-02T13:15:58.144Z</time></trkpt><trkpt lat="46.161986" lon="13.411319"><ele>640.0</ele><time>2026-05-02T13:15:59.132Z</time></trkpt><trkpt lat="46.1620416" lon="13.4111296"><ele>641.0</ele><time>2026-05-02T13:16:00.142Z</time></trkpt><trkpt lat="46.1620847" lon="13.4109494"><ele>642.0</ele><time>2026-05-02T13:16:01.136Z</time></trkpt><trkpt lat="46.1621043" lon="13.4107922"><ele>643.0</ele><time>2026-05-02T13:16:02.139Z</time></trkpt><trkpt lat="46.1620966" lon="13.410643"><ele>644.0</ele><time>2026-05-02T13:16:03.139Z</time></trkpt><trkpt lat="46.1620611" lon="13.4104956"><ele>644.8000000000001</ele><time>2026-05-02T13:16:04.13Z</time></trkpt><trkpt lat="46.1620205" lon="13.4103516"><ele>645.6</ele><time>2026-05-02T13:16:05.135Z</time></trkpt><trkpt lat="46.1619969" lon="13.410203"><ele>646.4</ele><time>2026-05-02T13:16:06.141Z</time></trkpt><trkpt lat="46.1619985" lon="13.4100496"><ele>647.2</ele><time>2026-05-02T13:16:07.154Z</time></trkpt><trkpt lat="46.1620218" lon="13.4098797"><ele>648.0</ele><time>2026-05-02T13:16:08.134Z</time></trkpt><trkpt lat="46.1620629" lon="13.409698"><ele>650.25</ele><time>2026-05-02T13:16:09.137Z</time></trkpt><trkpt lat="46.1621171" lon="13.4095142"><ele>652.5</ele><time>2026-05-02T13:16:10.14Z</time></trkpt><trkpt lat="46.1621831" lon="13.4093298"><ele>654.75</ele><time>2026-05-02T13:16:11.15Z</time></trkpt><trkpt lat="46.1622567" lon="13.4091468"><ele>657.0</ele><time>2026-05-02T13:16:12.138Z</time></trkpt><trkpt lat="46.1623347" lon="13.4089869"><ele>663.2</ele><time>2026-05-02T13:16:13.144Z</time></trkpt><trkpt lat="46.1624082" lon="13.4088333"><ele>669.4000000000001</ele><time>2026-05-02T13:16:14.144Z</time></trkpt><trkpt lat="46.1624724" lon="13.4087011"><ele>675.5999999999999</ele><time>2026-05-02T13:16:15.131Z</time></trkpt><trkpt lat="46.1625289" lon="13.4085881"><ele>681.8</ele><time>2026-05-02T13:16:16.138Z</time></trkpt><trkpt lat="46.1625836" lon="13.4084825"><ele>688.0</ele><time>2026-05-02T13:16:17.134Z</time></trkpt><trkpt lat="46.1626272" lon="13.4083963"><ele>688.0</ele><time>2026-05-02T13:16:18.136Z</time></trkpt><trkpt lat="46.1626525" lon="13.4083094"><ele>688.0</ele><time>2026-05-02T13:16:19.139Z</time></trkpt><trkpt lat="46.1626498" lon="13.4081542"><ele>688.0</ele><time>2026-05-02T13:16:21.125Z</time></trkpt><trkpt lat="46.1625762" lon="13.408043"><ele>688.0</ele><time>2026-05-02T13:16:23.13Z</time></trkpt><trkpt lat="46.1624711" lon="13.4079848"><ele>688.0</ele><time>2026-05-02T13:16:25.13Z</time></trkpt><trkpt lat="46.1623979" lon="13.4078677"><ele>687.3333333333334</ele><time>2026-05-02T13:16:27.13Z</time></trkpt><trkpt lat="46.1623734" lon="13.4077839"><ele>686.6666666666667</ele><time>2026-05-02T13:16:28.132Z</time></trkpt><trkpt lat="46.1623105" lon="13.4077202"><ele>686.0</ele><time>2026-05-02T13:16:30.137Z</time></trkpt><trkpt lat="46.1622203" lon="13.4077766"><ele>685.3333333333334</ele><time>2026-05-02T13:16:32.133Z</time></trkpt><trkpt lat="46.1621388" lon="13.4078412"><ele>684.6666666666666</ele><time>2026-05-02T13:16:33.125Z</time></trkpt><trkpt lat="46.162044" lon="13.4079254"><ele>684.0</ele><time>2026-05-02T13:16:34.136Z</time></trkpt><trkpt lat="46.1619435" lon="13.4080242"><ele>684.0</ele><time>2026-05-02T13:16:35.133Z</time></trkpt><trkpt lat="46.161865" lon="13.4080967"><ele>684.0</ele><time>2026-05-02T13:16:36.141Z</time></trkpt><trkpt lat="46.1617888" lon="13.4081287"><ele>684.0</ele><time>2026-05-02T13:16:37.144Z</time></trkpt><trkpt lat="46.161706" lon="13.4081382"><ele>684.0</ele><time>2026-05-02T13:16:38.139Z</time></trkpt><trkpt lat="46.1616093" lon="13.408131"><ele>684.0</ele><time>2026-05-02T13:16:39.129Z</time></trkpt><trkpt lat="46.1615235" lon="13.4081184"><ele>684.0</ele><time>2026-05-02T13:16:40.141Z</time></trkpt><trkpt lat="46.1614436" lon="13.4081011"><ele>685.8000000000001</ele><time>2026-05-02T13:16:41.142Z</time></trkpt><trkpt lat="46.1613788" lon="13.4080882"><ele>687.6</ele><time>2026-05-02T13:16:42.138Z</time></trkpt><trkpt lat="46.1612997" lon="13.4080879"><ele>689.4</ele><time>2026-05-02T13:16:44.134Z</time></trkpt><trkpt lat="46.1612184" lon="13.4081284"><ele>691.2</ele><time>2026-05-02T13:16:47.133Z</time></trkpt><trkpt lat="46.1610775" lon="13.4081982"><ele>693.0</ele><time>2026-05-02T13:16:49.146Z</time></trkpt><trkpt lat="46.1609712" lon="13.4082887"><ele>693.0</ele><time>2026-05-02T13:16:50.138Z</time></trkpt><trkpt lat="46.1608816" lon="13.4083891"><ele>693.0</ele><time>2026-05-02T13:16:51.136Z</time></trkpt><trkpt lat="46.1608092" lon="13.4084948"><ele>693.0</ele><time>2026-05-02T13:16:52.121Z</time></trkpt><trkpt lat="46.1607405" lon="13.4085847"><ele>693.0</ele><time>2026-05-02T13:16:53.134Z</time></trkpt><trkpt lat="46.1606895" lon="13.4086826"><ele>693.0</ele><time>2026-05-02T13:16:54.133Z</time></trkpt><trkpt lat="46.1606527" lon="13.4087893"><ele>695.8</ele><time>2026-05-02T13:16:55.136Z</time></trkpt><trkpt lat="46.160648" lon="13.4089281"><ele>698.5999999999999</ele><time>2026-05-02T13:16:56.134Z</time></trkpt><trkpt lat="46.1606653" lon="13.4090926"><ele>701.4000000000001</ele><time>2026-05-02T13:16:57.126Z</time></trkpt><trkpt lat="46.1606916" lon="13.4092769"><ele>704.2</ele><time>2026-05-02T13:16:58.116Z</time></trkpt><trkpt lat="46.1606856" lon="13.409413"><ele>707.0</ele><time>2026-05-02T13:16:59.139Z</time></trkpt><trkpt lat="46.160666" lon="13.4095374"><ele>707.0</ele><time>2026-05-02T13:17:00.136Z</time></trkpt><trkpt lat="46.1606357" lon="13.4096502"><ele>707.0</ele><time>2026-05-02T13:17:01.133Z</time></trkpt><trkpt lat="46.160591" lon="13.4097668"><ele>707.0</ele><time>2026-05-02T13:17:02.135Z</time></trkpt><trkpt lat="46.1605376" lon="13.4098705"><ele>707.0</ele><time>2026-05-02T13:17:03.139Z</time></trkpt><trkpt lat="46.1604713" lon="13.4099691"><ele>707.0</ele><time>2026-05-02T13:17:04.132Z</time></trkpt><trkpt lat="46.1603958" lon="13.4100516"><ele>702.8</ele><time>2026-05-02T13:17:05.137Z</time></trkpt><trkpt lat="46.1602971" lon="13.41013"><ele>698.6</ele><time>2026-05-02T13:17:06.139Z</time></trkpt><trkpt lat="46.160209" lon="13.4102198"><ele>694.4</ele><time>2026-05-02T13:17:07.132Z</time></trkpt><trkpt lat="46.160131" lon="13.4103325"><ele>690.1999999999999</ele><time>2026-05-02T13:17:08.139Z</time></trkpt><trkpt lat="46.1600668" lon="13.4104365"><ele>686.0</ele><time>2026-05-02T13:17:09.145Z</time></trkpt><trkpt lat="46.160002" lon="13.410532"><ele>683.0</ele><time>2026-05-02T13:17:10.133Z</time></trkpt><trkpt lat="46.159929" lon="13.4106006"><ele>680.0</ele><time>2026-05-02T13:17:11.132Z</time></trkpt><trkpt lat="46.15985" lon="13.4106501"><ele>677.0</ele><time>2026-05-02T13:17:12.136Z</time></trkpt><trkpt lat="46.1597836" lon="13.4107102"><ele>674.0</ele><time>2026-05-02T13:17:13.134Z</time></trkpt><trkpt lat="46.1597446" lon="13.4107845"><ele>671.0</ele><time>2026-05-02T13:17:14.136Z</time></trkpt><trkpt lat="46.1597232" lon="13.4108879"><ele>668.0</ele><time>2026-05-02T13:17:15.135Z</time></trkpt><trkpt lat="46.1597154" lon="13.4110179"><ele>675.75</ele><time>2026-05-02T13:17:16.127Z</time></trkpt><trkpt lat="46.1597089" lon="13.4112063"><ele>683.5</ele><time>2026-05-02T13:17:17.122Z</time></trkpt><trkpt lat="46.1597087" lon="13.411402"><ele>691.25</ele><time>2026-05-02T13:17:18.126Z</time></trkpt><trkpt lat="46.1596859" lon="13.4115606"><ele>699.0</ele><time>2026-05-02T13:17:19.127Z</time></trkpt><trkpt lat="46.1596418" lon="13.4117186"><ele>699.0</ele><time>2026-05-02T13:17:20.141Z</time></trkpt><trkpt lat="46.1595886" lon="13.4118807"><ele>699.0</ele><time>2026-05-02T13:17:21.131Z</time></trkpt><trkpt lat="46.159542" lon="13.4120797"><ele>699.0</ele><time>2026-05-02T13:17:22.14Z</time></trkpt><trkpt lat="46.1594913" lon="13.4122864"><ele>699.0</ele><time>2026-05-02T13:17:23.135Z</time></trkpt><trkpt lat="46.1594378" lon="13.4124688"><ele>694.6666666666666</ele><time>2026-05-02T13:17:24.139Z</time></trkpt><trkpt lat="46.1593969" lon="13.4125941"><ele>690.3333333333334</ele><time>2026-05-02T13:17:25.128Z</time></trkpt><trkpt lat="46.1593546" lon="13.4126848"><ele>686.0</ele><time>2026-05-02T13:17:26.139Z</time></trkpt><trkpt lat="46.1593095" lon="13.4127551"><ele>681.6666666666667</ele><time>2026-05-02T13:17:27.144Z</time></trkpt><trkpt lat="46.159244" lon="13.4128074"><ele>677.3333333333334</ele><time>2026-05-02T13:17:28.136Z</time></trkpt><trkpt lat="46.1591538" lon="13.4128421"><ele>673.0</ele><time>2026-05-02T13:17:29.125Z</time></trkpt><trkpt lat="46.1590371" lon="13.4128887"><ele>671.25</ele><time>2026-05-02T13:17:30.136Z</time></trkpt><trkpt lat="46.1589157" lon="13.4129549"><ele>669.5</ele><time>2026-05-02T13:17:31.144Z</time></trkpt><trkpt lat="46.1588083" lon="13.4130198"><ele>667.75</ele><time>2026-05-02T13:17:32.14Z</time></trkpt><trkpt lat="46.1586959" lon="13.4130749"><ele>666.0</ele><time>2026-05-02T13:17:33.15Z</time></trkpt><trkpt lat="46.1585815" lon="13.413098"><ele>666.0</ele><time>2026-05-02T13:17:34.133Z</time></trkpt><trkpt lat="46.1584687" lon="13.4131064"><ele>666.0</ele><time>2026-05-02T13:17:35.141Z</time></trkpt><trkpt lat="46.1583607" lon="13.4131067"><ele>666.0</ele><time>2026-05-02T13:17:36.134Z</time></trkpt><trkpt lat="46.1582725" lon="13.41313"><ele>666.0</ele><time>2026-05-02T13:17:37.138Z</time></trkpt><trkpt lat="46.1582083" lon="13.413166"><ele>666.0</ele><time>2026-05-02T13:17:38.14Z</time></trkpt><trkpt lat="46.1581619" lon="13.4132447"><ele>668.5999999999999</ele><time>2026-05-02T13:17:39.129Z</time></trkpt><trkpt lat="46.1581204" lon="13.4133502"><ele>671.2</ele><time>2026-05-02T13:17:40.124Z</time></trkpt><trkpt lat="46.1580782" lon="13.4134774"><ele>673.8</ele><time>2026-05-02T13:17:41.126Z</time></trkpt><trkpt lat="46.1580288" lon="13.4136027"><ele>676.4000000000001</ele><time>2026-05-02T13:17:42.122Z</time></trkpt><trkpt lat="46.1579772" lon="13.4137322"><ele>679.0</ele><time>2026-05-02T13:17:43.138Z</time></trkpt><trkpt lat="46.1579395" lon="13.4138652"><ele>679.0</ele><time>2026-05-02T13:17:44.132Z</time></trkpt><trkpt lat="46.1579237" lon="13.414011"><ele>679.0</ele><time>2026-05-02T13:17:45.131Z</time></trkpt><trkpt lat="46.1579245" lon="13.4141768"><ele>679.0</ele><time>2026-05-02T13:17:46.127Z</time></trkpt><trkpt lat="46.1579204" lon="13.4143479"><ele>679.0</ele><time>2026-05-02T13:17:47.123Z</time></trkpt><trkpt lat="46.1579246" lon="13.4144856"><ele>679.0</ele><time>2026-05-02T13:17:48.135Z</time></trkpt><trkpt lat="46.1579076" lon="13.4145851"><ele>675.8000000000001</ele><time>2026-05-02T13:17:49.123Z</time></trkpt><trkpt lat="46.1578618" lon="13.4146962"><ele>672.6</ele><time>2026-05-02T13:17:50.13Z</time></trkpt><trkpt lat="46.1577913" lon="13.4147959"><ele>669.4</ele><time>2026-05-02T13:17:51.117Z</time></trkpt><trkpt lat="46.1577106" lon="13.4149168"><ele>666.2</ele><time>2026-05-02T13:17:52.128Z</time></trkpt><trkpt lat="46.1576175" lon="13.4150581"><ele>663.0</ele><time>2026-05-02T13:17:53.123Z</time></trkpt><trkpt lat="46.1575181" lon="13.4152222"><ele>663.0</ele><time>2026-05-02T13:17:54.127Z</time></trkpt><trkpt lat="46.1574355" lon="13.4153825"><ele>663.0</ele><time>2026-05-02T13:17:55.132Z</time></trkpt><trkpt lat="46.1573719" lon="13.4155342"><ele>663.0</ele><time>2026-05-02T13:17:56.123Z</time></trkpt><trkpt lat="46.1573182" lon="13.4156884"><ele>663.0</ele><time>2026-05-02T13:17:57.127Z</time></trkpt><trkpt lat="46.1572937" lon="13.4158229"><ele>662.8</ele><time>2026-05-02T13:17:58.128Z</time></trkpt><trkpt lat="46.157307" lon="13.4159455"><ele>662.5999999999999</ele><time>2026-05-02T13:17:59.129Z</time></trkpt><trkpt lat="46.157342" lon="13.4160892"><ele>662.4000000000001</ele><time>2026-05-02T13:18:00.121Z</time></trkpt><trkpt lat="46.1573866" lon="13.416243"><ele>662.2</ele><time>2026-05-02T13:18:01.118Z</time></trkpt><trkpt lat="46.1574197" lon="13.4163777"><ele>662.0</ele><time>2026-05-02T13:18:02.116Z</time></trkpt><trkpt lat="46.1574524" lon="13.4165494"><ele>664.0</ele><time>2026-05-02T13:18:03.133Z</time></trkpt><trkpt lat="46.1574556" lon="13.4166928"><ele>666.0</ele><time>2026-05-02T13:18:04.122Z</time></trkpt><trkpt lat="46.1574784" lon="13.4168132"><ele>668.0</ele><time>2026-05-02T13:18:05.128Z</time></trkpt><trkpt lat="46.1575197" lon="13.4169029"><ele>670.0</ele><time>2026-05-02T13:18:06.129Z</time></trkpt><trkpt lat="46.1575822" lon="13.416994"><ele>672.0</ele><time>2026-05-02T13:18:07.13Z</time></trkpt><trkpt lat="46.1576854" lon="13.4170789"><ele>673.3333333333334</ele><time>2026-05-02T13:18:08.121Z</time></trkpt><trkpt lat="46.1577776" lon="13.4171797"><ele>674.6666666666666</ele><time>2026-05-02T13:18:09.129Z</time></trkpt><trkpt lat="46.1578656" lon="13.4172291"><ele>676.0</ele><time>2026-05-02T13:18:10.145Z</time></trkpt><trkpt lat="46.1579348" lon="13.4172671"><ele>677.3333333333333</ele><time>2026-05-02T13:18:11.137Z</time></trkpt><trkpt lat="46.1580284" lon="13.41732"><ele>678.6666666666666</ele><time>2026-05-02T13:18:13.133Z</time></trkpt><trkpt lat="46.1580856" lon="13.4173626"><ele>680.0</ele><time>2026-05-02T13:18:16.131Z</time></trkpt><trkpt lat="46.1581595" lon="13.4174014"><ele>674.3333333333333</ele><time>2026-05-02T13:18:34.15Z</time></trkpt><trkpt lat="46.1582077" lon="13.4174657"><ele>668.6666666666666</ele><time>2026-05-02T13:18:36.146Z</time></trkpt><trkpt lat="46.158239" lon="13.4176257"><ele>663.0</ele><time>2026-05-02T13:18:38.135Z</time></trkpt><trkpt lat="46.1582461" lon="13.4177318"><ele>657.3333333333334</ele><time>2026-05-02T13:18:39.139Z</time></trkpt><trkpt lat="46.1582494" lon="13.4178544"><ele>651.6666666666667</ele><time>2026-05-02T13:18:40.133Z</time></trkpt><trkpt lat="46.1582367" lon="13.4179942"><ele>646.0</ele><time>2026-05-02T13:18:41.132Z</time></trkpt><trkpt lat="46.1582178" lon="13.4181425"><ele>650.5999999999999</ele><time>2026-05-02T13:18:42.133Z</time></trkpt><trkpt lat="46.1581857" lon="13.4182887"><ele>655.2</ele><time>2026-05-02T13:18:43.139Z</time></trkpt><trkpt lat="46.1581596" lon="13.4184303"><ele>659.8</ele><time>2026-05-02T13:18:44.129Z</time></trkpt><trkpt lat="46.1581297" lon="13.4185732"><ele>664.4000000000001</ele><time>2026-05-02T13:18:45.136Z</time></trkpt><trkpt lat="46.1580884" lon="13.4186985"><ele>669.0</ele><time>2026-05-02T13:18:46.125Z</time></trkpt><trkpt lat="46.1580367" lon="13.4188057"><ele>663.4000000000001</ele><time>2026-05-02T13:18:47.133Z</time></trkpt><trkpt lat="46.1579888" lon="13.4189085"><ele>657.8</ele><time>2026-05-02T13:18:48.143Z</time></trkpt><trkpt lat="46.1579351" lon="13.4190053"><ele>652.2</ele><time>2026-05-02T13:18:49.13Z</time></trkpt><trkpt lat="46.1578746" lon="13.419095"><ele>646.5999999999999</ele><time>2026-05-02T13:18:50.135Z</time></trkpt><trkpt lat="46.1577992" lon="13.4191882"><ele>641.0</ele><time>2026-05-02T13:18:51.13Z</time></trkpt><trkpt lat="46.15771" lon="13.419264"><ele>641.0</ele><time>2026-05-02T13:18:52.124Z</time></trkpt><trkpt lat="46.1576064" lon="13.4193356"><ele>641.0</ele><time>2026-05-02T13:18:53.132Z</time></trkpt><trkpt lat="46.1574941" lon="13.4194002"><ele>641.0</ele><time>2026-05-02T13:18:54.135Z</time></trkpt><trkpt lat="46.1573888" lon="13.4194686"><ele>641.0</ele><time>2026-05-02T13:18:55.137Z</time></trkpt><trkpt lat="46.1572742" lon="13.4195093"><ele>640.0</ele><time>2026-05-02T13:18:56.134Z</time></trkpt><trkpt lat="46.1571632" lon="13.4195613"><ele>639.0</ele><time>2026-05-02T13:18:57.129Z</time></trkpt><trkpt lat="46.1570507" lon="13.4196419"><ele>638.0</ele><time>2026-05-02T13:18:58.138Z</time></trkpt><trkpt lat="46.1569409" lon="13.4197314"><ele>637.0</ele><time>2026-05-02T13:18:59.131Z</time></trkpt><trkpt lat="46.1568297" lon="13.4198127"><ele>637.0</ele><time>2026-05-02T13:19:00.129Z</time></trkpt><trkpt lat="46.1567226" lon="13.4198892"><ele>637.0</ele><time>2026-05-02T13:19:01.133Z</time></trkpt><trkpt lat="46.1566229" lon="13.419958"><ele>637.0</ele><time>2026-05-02T13:19:02.137Z</time></trkpt><trkpt lat="46.1565372" lon="13.4200234"><ele>637.0</ele><time>2026-05-02T13:19:03.132Z</time></trkpt><trkpt lat="46.1564703" lon="13.4201036"><ele>637.0</ele><time>2026-05-02T13:19:04.128Z</time></trkpt><trkpt lat="46.1564238" lon="13.420207"><ele>637.0</ele><time>2026-05-02T13:19:05.132Z</time></trkpt><trkpt lat="46.156398" lon="13.4203126"><ele>637.0</ele><time>2026-05-02T13:19:06.127Z</time></trkpt><trkpt lat="46.1564201" lon="13.420416"><ele>637.0</ele><time>2026-05-02T13:19:07.12Z</time></trkpt><trkpt lat="46.1564542" lon="13.4205262"><ele>637.0</ele><time>2026-05-02T13:19:08.123Z</time></trkpt><trkpt lat="46.1564963" lon="13.4206547"><ele>637.0</ele><time>2026-05-02T13:19:09.125Z</time></trkpt><trkpt lat="46.1565574" lon="13.420776"><ele>637.0</ele><time>2026-05-02T13:19:10.128Z</time></trkpt><trkpt lat="46.1566285" lon="13.4209067"><ele>637.0</ele><time>2026-05-02T13:19:11.125Z</time></trkpt><trkpt lat="46.1567012" lon="13.4210199"><ele>637.0</ele><time>2026-05-02T13:19:12.12Z</time></trkpt><trkpt lat="46.1567526" lon="13.4210949"><ele>637.0</ele><time>2026-05-02T13:19:13.132Z</time></trkpt><trkpt lat="46.1568119" lon="13.4211535"><ele>637.0</ele><time>2026-05-02T13:19:14.125Z</time></trkpt><trkpt lat="46.1568808" lon="13.4211733"><ele>637.0</ele><time>2026-05-02T13:19:15.126Z</time></trkpt><trkpt lat="46.1569472" lon="13.4211995"><ele>637.0</ele><time>2026-05-02T13:19:16.122Z</time></trkpt><trkpt lat="46.1570154" lon="13.4212386"><ele>639.1666666666667</ele><time>2026-05-02T13:19:17.128Z</time></trkpt><trkpt lat="46.1570748" lon="13.4213194"><ele>641.3333333333334</ele><time>2026-05-02T13:19:18.133Z</time></trkpt><trkpt lat="46.1571217" lon="13.4214114"><ele>643.5</ele><time>2026-05-02T13:19:19.133Z</time></trkpt><trkpt lat="46.1571512" lon="13.4215274"><ele>645.6666666666666</ele><time>2026-05-02T13:19:20.122Z</time></trkpt><trkpt lat="46.1571657" lon="13.4216483"><ele>647.8333333333333</ele><time>2026-05-02T13:19:21.119Z</time></trkpt><trkpt lat="46.1571777" lon="13.4217526"><ele>650.0</ele><time>2026-05-02T13:19:22.131Z</time></trkpt><trkpt lat="46.1572581" lon="13.4218581"><ele>650.0</ele><time>2026-05-02T13:19:24.136Z</time></trkpt><trkpt lat="46.1573277" lon="13.4218778"><ele>650.0</ele><time>2026-05-02T13:19:25.125Z</time></trkpt><trkpt lat="46.1574118" lon="13.4218763"><ele>650.0</ele><time>2026-05-02T13:19:26.127Z</time></trkpt><trkpt lat="46.1574914" lon="13.4218882"><ele>650.0</ele><time>2026-05-02T13:19:27.127Z</time></trkpt><trkpt lat="46.1575783" lon="13.4219228"><ele>650.0</ele><time>2026-05-02T13:19:28.131Z</time></trkpt><trkpt lat="46.1576684" lon="13.4219833"><ele>650.0</ele><time>2026-05-02T13:19:29.142Z</time></trkpt><trkpt lat="46.1577234" lon="13.4220995"><ele>645.2</ele><time>2026-05-02T13:19:30.142Z</time></trkpt><trkpt lat="46.1577361" lon="13.4222195"><ele>640.4</ele><time>2026-05-02T13:19:31.128Z</time></trkpt><trkpt lat="46.157739" lon="13.4223552"><ele>635.6</ele><time>2026-05-02T13:19:32.127Z</time></trkpt><trkpt lat="46.1577379" lon="13.4224913"><ele>630.8</ele><time>2026-05-02T13:19:33.133Z</time></trkpt><trkpt lat="46.1577163" lon="13.4226445"><ele>626.0</ele><time>2026-05-02T13:19:34.124Z</time></trkpt><trkpt lat="46.1576918" lon="13.4228"><ele>626.0</ele><time>2026-05-02T13:19:35.137Z</time></trkpt><trkpt lat="46.1576801" lon="13.4229472"><ele>626.0</ele><time>2026-05-02T13:19:36.133Z</time></trkpt><trkpt lat="46.1576483" lon="13.4230718"><ele>626.0</ele><time>2026-05-02T13:19:37.134Z</time></trkpt><trkpt lat="46.1576092" lon="13.4231899"><ele>626.0</ele><time>2026-05-02T13:19:38.135Z</time></trkpt><trkpt lat="46.1575558" lon="13.4233092"><ele>626.0</ele><time>2026-05-02T13:19:39.14Z</time></trkpt><trkpt lat="46.1574922" lon="13.4234588"><ele>625.2</ele><time>2026-05-02T13:19:40.145Z</time></trkpt><trkpt lat="46.1574232" lon="13.4236228"><ele>624.4000000000001</ele><time>2026-05-02T13:19:41.144Z</time></trkpt><trkpt lat="46.1573574" lon="13.4237808"><ele>623.6</ele><time>2026-05-02T13:19:42.128Z</time></trkpt><trkpt lat="46.1572966" lon="13.4238963"><ele>622.8000000000001</ele><time>2026-05-02T13:19:43.154Z</time></trkpt><trkpt lat="46.1572279" lon="13.4239574"><ele>622.0</ele><time>2026-05-02T13:19:44.131Z</time></trkpt><trkpt lat="46.157118" lon="13.4240293"><ele>622.0</ele><time>2026-05-02T13:19:46.141Z</time></trkpt><trkpt lat="46.1570518" lon="13.4240215"><ele>622.0</ele><time>2026-05-02T13:19:47.146Z</time></trkpt><trkpt lat="46.1569683" lon="13.4239729"><ele>622.0</ele><time>2026-05-02T13:19:48.135Z</time></trkpt><trkpt lat="46.1568665" lon="13.423907"><ele>622.0</ele><time>2026-05-02T13:19:49.144Z</time></trkpt><trkpt lat="46.1567691" lon="13.4238295"><ele>622.0</ele><time>2026-05-02T13:19:50.128Z</time></trkpt><trkpt lat="46.1566709" lon="13.4237627"><ele>622.0</ele><time>2026-05-02T13:19:51.14Z</time></trkpt><trkpt lat="46.1565896" lon="13.4237249"><ele>622.0</ele><time>2026-05-02T13:19:52.135Z</time></trkpt><trkpt lat="46.156511" lon="13.4237141"><ele>622.0</ele><time>2026-05-02T13:19:53.137Z</time></trkpt><trkpt lat="46.1564221" lon="13.4237328"><ele>622.0</ele><time>2026-05-02T13:19:54.137Z</time></trkpt><trkpt lat="46.1563212" lon="13.423762"><ele>622.0</ele><time>2026-05-02T13:19:55.128Z</time></trkpt><trkpt lat="46.1562153" lon="13.4238064"><ele>616.25</ele><time>2026-05-02T13:19:56.141Z</time></trkpt><trkpt lat="46.1561058" lon="13.4238663"><ele>610.5</ele><time>2026-05-02T13:19:57.139Z</time></trkpt><trkpt lat="46.1559947" lon="13.4239413"><ele>604.75</ele><time>2026-05-02T13:19:58.145Z</time></trkpt><trkpt lat="46.1558848" lon="13.4240431"><ele>599.0</ele><time>2026-05-02T13:19:59.134Z</time></trkpt><trkpt lat="46.15578" lon="13.4241234"><ele>597.8</ele><time>2026-05-02T13:20:00.138Z</time></trkpt><trkpt lat="46.1556842" lon="13.4242119"><ele>596.5999999999999</ele><time>2026-05-02T13:20:01.137Z</time></trkpt><trkpt lat="46.1556057" lon="13.4242857"><ele>595.4</ele><time>2026-05-02T13:20:02.132Z</time></trkpt><trkpt lat="46.155539" lon="13.4243552"><ele>594.1999999999999</ele><time>2026-05-02T13:20:03.131Z</time></trkpt><trkpt lat="46.1554574" lon="13.4244328"><ele>593.0</ele><time>2026-05-02T13:20:05.132Z</time></trkpt><trkpt lat="46.155462" lon="13.424544"><ele>593.0</ele><time>2026-05-02T13:20:08.128Z</time></trkpt><trkpt lat="46.1555478" lon="13.4245494"><ele>593.0</ele><time>2026-05-02T13:20:10.132Z</time></trkpt><trkpt lat="46.1556082" lon="13.4245174"><ele>593.0</ele><time>2026-05-02T13:20:11.137Z</time></trkpt><trkpt lat="46.1556877" lon="13.4244852"><ele>593.0</ele><time>2026-05-02T13:20:12.138Z</time></trkpt><trkpt lat="46.1557817" lon="13.424465"><ele>593.0</ele><time>2026-05-02T13:20:13.132Z</time></trkpt><trkpt lat="46.1558757" lon="13.4244314"><ele>593.0</ele><time>2026-05-02T13:20:14.146Z</time></trkpt><trkpt lat="46.1559888" lon="13.4243954"><ele>594.1999999999999</ele><time>2026-05-02T13:20:15.14Z</time></trkpt><trkpt lat="46.1560947" lon="13.424362"><ele>595.4</ele><time>2026-05-02T13:20:16.136Z</time></trkpt><trkpt lat="46.1561869" lon="13.4243504"><ele>596.5999999999999</ele><time>2026-05-02T13:20:17.134Z</time></trkpt><trkpt lat="46.1562849" lon="13.424382"><ele>597.8</ele><time>2026-05-02T13:20:18.136Z</time></trkpt><trkpt lat="46.1563612" lon="13.424431"><ele>599.0</ele><time>2026-05-02T13:20:19.127Z</time></trkpt><trkpt lat="46.1564283" lon="13.4245232"><ele>599.0</ele><time>2026-05-02T13:20:20.129Z</time></trkpt><trkpt lat="46.156463" lon="13.424607"><ele>599.0</ele><time>2026-05-02T13:20:21.127Z</time></trkpt><trkpt lat="46.1564932" lon="13.4247403"><ele>599.0</ele><time>2026-05-02T13:20:23.132Z</time></trkpt><trkpt lat="46.1564381" lon="13.4247919"><ele>599.0</ele><time>2026-05-02T13:20:25.13Z</time></trkpt><trkpt lat="46.1563695" lon="13.4246976"><ele>599.0</ele><time>2026-05-02T13:20:27.123Z</time></trkpt><trkpt lat="46.156288" lon="13.4245773"><ele>599.0</ele><time>2026-05-02T13:20:29.123Z</time></trkpt><trkpt lat="46.1562241" lon="13.4245565"><ele>599.0</ele><time>2026-05-02T13:20:30.136Z</time></trkpt><trkpt lat="46.1561559" lon="13.4245865"><ele>599.0</ele><time>2026-05-02T13:20:31.135Z</time></trkpt><trkpt lat="46.1560711" lon="13.424641"><ele>599.0</ele><time>2026-05-02T13:20:32.126Z</time></trkpt><trkpt lat="46.1559684" lon="13.4247339"><ele>599.0</ele><time>2026-05-02T13:20:33.125Z</time></trkpt><trkpt lat="46.1558598" lon="13.4248226"><ele>599.0</ele><time>2026-05-02T13:20:34.127Z</time></trkpt><trkpt lat="46.1557551" lon="13.4249072"><ele>590.0</ele><time>2026-05-02T13:20:35.133Z</time></trkpt><trkpt lat="46.1556409" lon="13.4249765"><ele>581.0</ele><time>2026-05-02T13:20:36.142Z</time></trkpt><trkpt lat="46.155522" lon="13.4250256"><ele>572.0</ele><time>2026-05-02T13:20:37.13Z</time></trkpt><trkpt lat="46.1554068" lon="13.4250639"><ele>563.0</ele><time>2026-05-02T13:20:38.143Z</time></trkpt><trkpt lat="46.1553041" lon="13.4250895"><ele>563.0</ele><time>2026-05-02T13:20:39.137Z</time></trkpt><trkpt lat="46.1552117" lon="13.4251137"><ele>563.0</ele><time>2026-05-02T13:20:40.131Z</time></trkpt><trkpt lat="46.1551234" lon="13.4251276"><ele>563.0</ele><time>2026-05-02T13:20:41.126Z</time></trkpt><trkpt lat="46.1550318" lon="13.4251247"><ele>563.0</ele><time>2026-05-02T13:20:42.126Z</time></trkpt><trkpt lat="46.1549372" lon="13.4251116"><ele>563.0</ele><time>2026-05-02T13:20:43.131Z</time></trkpt><trkpt lat="46.1548407" lon="13.4250839"><ele>561.1999999999999</ele><time>2026-05-02T13:20:44.138Z</time></trkpt><trkpt lat="46.1547581" lon="13.4250356"><ele>559.4</ele><time>2026-05-02T13:20:45.133Z</time></trkpt><trkpt lat="46.1546717" lon="13.4249768"><ele>557.5999999999999</ele><time>2026-05-02T13:20:46.127Z</time></trkpt><trkpt lat="46.1545842" lon="13.4249129"><ele>555.8</ele><time>2026-05-02T13:20:47.131Z</time></trkpt><trkpt lat="46.1544966" lon="13.4248728"><ele>554.0</ele><time>2026-05-02T13:20:48.123Z</time></trkpt><trkpt lat="46.1544173" lon="13.424854"><ele>554.0</ele><time>2026-05-02T13:20:49.131Z</time></trkpt><trkpt lat="46.1543497" lon="13.4248227"><ele>554.0</ele><time>2026-05-02T13:20:50.13Z</time></trkpt><trkpt lat="46.1542563" lon="13.4247196"><ele>554.0</ele><time>2026-05-02T13:20:52.135Z</time></trkpt><trkpt lat="46.1541786" lon="13.4245847"><ele>554.0</ele><time>2026-05-02T13:20:54.136Z</time></trkpt><trkpt lat="46.1540918" lon="13.424623"><ele>554.0</ele><time>2026-05-02T13:20:56.132Z</time></trkpt><trkpt lat="46.1540527" lon="13.4247048"><ele>554.2</ele><time>2026-05-02T13:20:57.129Z</time></trkpt><trkpt lat="46.1540232" lon="13.4248123"><ele>554.4</ele><time>2026-05-02T13:20:58.134Z</time></trkpt><trkpt lat="46.1539876" lon="13.4249222"><ele>554.6</ele><time>2026-05-02T13:20:59.132Z</time></trkpt><trkpt lat="46.153949" lon="13.4250377"><ele>554.8</ele><time>2026-05-02T13:21:00.131Z</time></trkpt><trkpt lat="46.1538882" lon="13.4251536"><ele>555.0</ele><time>2026-05-02T13:21:01.143Z</time></trkpt><trkpt lat="46.1538125" lon="13.4252662"><ele>555.0</ele><time>2026-05-02T13:21:02.144Z</time></trkpt><trkpt lat="46.1537375" lon="13.4253791"><ele>555.0</ele><time>2026-05-02T13:21:03.131Z</time></trkpt><trkpt lat="46.1536644" lon="13.4254904"><ele>555.0</ele><time>2026-05-02T13:21:04.132Z</time></trkpt><trkpt lat="46.1536055" lon="13.4256002"><ele>555.0</ele><time>2026-05-02T13:21:05.136Z</time></trkpt><trkpt lat="46.1535533" lon="13.4256934"><ele>555.0</ele><time>2026-05-02T13:21:06.136Z</time></trkpt><trkpt lat="46.1534994" lon="13.4257639"><ele>555.0</ele><time>2026-05-02T13:21:07.13Z</time></trkpt><trkpt lat="46.1534098" lon="13.4258516"><ele>555.0</ele><time>2026-05-02T13:21:09.142Z</time></trkpt><trkpt lat="46.1533233" lon="13.4257869"><ele>555.0</ele><time>2026-05-02T13:21:11.13Z</time></trkpt><trkpt lat="46.1532977" lon="13.4256308"><ele>555.0</ele><time>2026-05-02T13:21:13.137Z</time></trkpt><trkpt lat="46.153299" lon="13.4255091"><ele>555.0</ele><time>2026-05-02T13:21:14.137Z</time></trkpt><trkpt lat="46.1532941" lon="13.4253946"><ele>555.0</ele><time>2026-05-02T13:21:15.134Z</time></trkpt><trkpt lat="46.153278" lon="13.4252862"><ele>555.0</ele><time>2026-05-02T13:21:16.126Z</time></trkpt><trkpt lat="46.153251" lon="13.4251776"><ele>555.0</ele><time>2026-05-02T13:21:17.129Z</time></trkpt><trkpt lat="46.1532102" lon="13.4250622"><ele>555.0</ele><time>2026-05-02T13:21:18.142Z</time></trkpt><trkpt lat="46.1531467" lon="13.4249731"><ele>555.0</ele><time>2026-05-02T13:21:19.133Z</time></trkpt><trkpt lat="46.1530813" lon="13.4249061"><ele>555.0</ele><time>2026-05-02T13:21:20.123Z</time></trkpt><trkpt lat="46.1530047" lon="13.4248704"><ele>548.2</ele><time>2026-05-02T13:21:21.127Z</time></trkpt><trkpt lat="46.1529168" lon="13.4248626"><ele>541.4</ele><time>2026-05-02T13:21:22.136Z</time></trkpt><trkpt lat="46.1528283" lon="13.424873"><ele>534.6</ele><time>2026-05-02T13:21:23.128Z</time></trkpt><trkpt lat="46.1527226" lon="13.4248895"><ele>527.8</ele><time>2026-05-02T13:21:24.137Z</time></trkpt><trkpt lat="46.1526163" lon="13.4248985"><ele>521.0</ele><time>2026-05-02T13:21:25.137Z</time></trkpt><trkpt lat="46.1525206" lon="13.4249058"><ele>521.0</ele><time>2026-05-02T13:21:26.144Z</time></trkpt><trkpt lat="46.1524211" lon="13.4249228"><ele>521.0</ele><time>2026-05-02T13:21:27.133Z</time></trkpt><trkpt lat="46.1523268" lon="13.4249517"><ele>521.0</ele><time>2026-05-02T13:21:28.148Z</time></trkpt><trkpt lat="46.1522549" lon="13.4249671"><ele>521.0</ele><time>2026-05-02T13:21:29.14Z</time></trkpt><trkpt lat="46.1521578" lon="13.4249222"><ele>521.0</ele><time>2026-05-02T13:21:31.127Z</time></trkpt><trkpt lat="46.1520668" lon="13.4247729"><ele>521.0</ele><time>2026-05-02T13:21:33.142Z</time></trkpt><trkpt lat="46.1520068" lon="13.4246852"><ele>521.0</ele><time>2026-05-02T13:21:34.137Z</time></trkpt><trkpt lat="46.1519311" lon="13.4246352"><ele>521.0</ele><time>2026-05-02T13:21:35.138Z</time></trkpt><trkpt lat="46.151861" lon="13.4246199"><ele>521.0</ele><time>2026-05-02T13:21:36.159Z</time></trkpt><trkpt lat="46.1517994" lon="13.4246422"><ele>521.0</ele><time>2026-05-02T13:21:37.127Z</time></trkpt><trkpt lat="46.1517332" lon="13.4246791"><ele>521.0</ele><time>2026-05-02T13:21:38.125Z</time></trkpt><trkpt lat="46.1516569" lon="13.4247488"><ele>521.0</ele><time>2026-05-02T13:21:39.132Z</time></trkpt><trkpt lat="46.1515626" lon="13.4248413"><ele>521.0</ele><time>2026-05-02T13:21:40.121Z</time></trkpt><trkpt lat="46.1514594" lon="13.4249167"><ele>521.0</ele><time>2026-05-02T13:21:41.131Z</time></trkpt><trkpt lat="46.1513537" lon="13.4249884"><ele>521.0</ele><time>2026-05-02T13:21:42.124Z</time></trkpt><trkpt lat="46.1512381" lon="13.4250613"><ele>530.8</ele><time>2026-05-02T13:21:43.123Z</time></trkpt><trkpt lat="46.1511358" lon="13.4251289"><ele>540.6</ele><time>2026-05-02T13:21:44.125Z</time></trkpt><trkpt lat="46.1510407" lon="13.4251681"><ele>550.4</ele><time>2026-05-02T13:21:45.119Z</time></trkpt><trkpt lat="46.1509418" lon="13.4251994"><ele>560.2</ele><time>2026-05-02T13:21:46.124Z</time></trkpt><trkpt lat="46.150844" lon="13.4252322"><ele>570.0</ele><time>2026-05-02T13:21:47.127Z</time></trkpt><trkpt lat="46.1507664" lon="13.4252547"><ele>573.8333333333334</ele><time>2026-05-02T13:21:48.12Z</time></trkpt><trkpt lat="46.150697" lon="13.4252755"><ele>577.6666666666666</ele><time>2026-05-02T13:21:49.121Z</time></trkpt><trkpt lat="46.1505966" lon="13.4253433"><ele>581.5</ele><time>2026-05-02T13:21:51.112Z</time></trkpt><trkpt lat="46.1505777" lon="13.4255025"><ele>585.3333333333333</ele><time>2026-05-02T13:21:53.114Z</time></trkpt><trkpt lat="46.1505951" lon="13.4256028"><ele>589.1666666666666</ele><time>2026-05-02T13:21:54.11Z</time></trkpt><trkpt lat="46.1506072" lon="13.4257178"><ele>593.0</ele><time>2026-05-02T13:21:55.115Z</time></trkpt><trkpt lat="46.1506133" lon="13.4258366"><ele>593.0</ele><time>2026-05-02T13:21:56.119Z</time></trkpt><trkpt lat="46.150618" lon="13.4259724"><ele>593.0</ele><time>2026-05-02T13:21:57.124Z</time></trkpt><trkpt lat="46.1506115" lon="13.4261113"><ele>593.0</ele><time>2026-05-02T13:21:58.119Z</time></trkpt><trkpt lat="46.150601" lon="13.4262715"><ele>593.0</ele><time>2026-05-02T13:21:59.119Z</time></trkpt><trkpt lat="46.1505845" lon="13.4264393"><ele>593.0</ele><time>2026-05-02T13:22:00.111Z</time></trkpt><trkpt lat="46.1505568" lon="13.4265957"><ele>591.1999999999999</ele><time>2026-05-02T13:22:01.119Z</time></trkpt><trkpt lat="46.1505346" lon="13.4267551"><ele>589.4</ele><time>2026-05-02T13:22:02.122Z</time></trkpt><trkpt lat="46.1505118" lon="13.4269081"><ele>587.5999999999999</ele><time>2026-05-02T13:22:03.118Z</time></trkpt><trkpt lat="46.1504938" lon="13.4270617"><ele>585.8</ele><time>2026-05-02T13:22:04.109Z</time></trkpt><trkpt lat="46.1504825" lon="13.4272175"><ele>584.0</ele><time>2026-05-02T13:22:05.12Z</time></trkpt><trkpt lat="46.1504724" lon="13.42737"><ele>580.6666666666666</ele><time>2026-05-02T13:22:06.121Z</time></trkpt><trkpt lat="46.1504716" lon="13.4275133"><ele>577.3333333333333</ele><time>2026-05-02T13:22:07.109Z</time></trkpt><trkpt lat="46.1504745" lon="13.4276489"><ele>574.0</ele><time>2026-05-02T13:22:08.112Z</time></trkpt><trkpt lat="46.150482" lon="13.4277811"><ele>570.6666666666666</ele><time>2026-05-02T13:22:09.123Z</time></trkpt><trkpt lat="46.150476" lon="13.4278987"><ele>567.3333333333334</ele><time>2026-05-02T13:22:10.117Z</time></trkpt><trkpt lat="46.1504641" lon="13.4280094"><ele>564.0</ele><time>2026-05-02T13:22:11.12Z</time></trkpt><trkpt lat="46.1504411" lon="13.4281251"><ele>558.8</ele><time>2026-05-02T13:22:12.119Z</time></trkpt><trkpt lat="46.1504152" lon="13.4282449"><ele>553.5999999999999</ele><time>2026-05-02T13:22:13.116Z</time></trkpt><trkpt lat="46.150389" lon="13.4283726"><ele>548.4</ele><time>2026-05-02T13:22:14.118Z</time></trkpt><trkpt lat="46.1503575" lon="13.4285035"><ele>543.1999999999999</ele><time>2026-05-02T13:22:15.118Z</time></trkpt><trkpt lat="46.1503284" lon="13.4286197"><ele>538.0</ele><time>2026-05-02T13:22:16.119Z</time></trkpt><trkpt lat="46.1502819" lon="13.4287383"><ele>530.8</ele><time>2026-05-02T13:22:17.122Z</time></trkpt><trkpt lat="46.1502295" lon="13.4288634"><ele>523.5999999999999</ele><time>2026-05-02T13:22:18.123Z</time></trkpt><trkpt lat="46.1501693" lon="13.4289942"><ele>516.4000000000001</ele><time>2026-05-02T13:22:19.109Z</time></trkpt><trkpt lat="46.1501153" lon="13.4291202"><ele>509.20000000000005</ele><time>2026-05-02T13:22:20.123Z</time></trkpt><trkpt lat="46.1500571" lon="13.4292343"><ele>502.0</ele><time>2026-05-02T13:22:21.124Z</time></trkpt><trkpt lat="46.1499927" lon="13.429344"><ele>502.0</ele><time>2026-05-02T13:22:22.128Z</time></trkpt><trkpt lat="46.1499247" lon="13.4294403"><ele>502.00000000000006</ele><time>2026-05-02T13:22:23.123Z</time></trkpt><trkpt lat="46.1498576" lon="13.4295268"><ele>502.00000000000006</ele><time>2026-05-02T13:22:24.123Z</time></trkpt><trkpt lat="46.1497889" lon="13.4295932"><ele>502.0</ele><time>2026-05-02T13:22:25.136Z</time></trkpt><trkpt lat="46.1497053" lon="13.4296493"><ele>502.0</ele><time>2026-05-02T13:22:26.131Z</time></trkpt><trkpt lat="46.1496182" lon="13.4297003"><ele>502.6</ele><time>2026-05-02T13:22:27.127Z</time></trkpt><trkpt lat="46.1495459" lon="13.4297534"><ele>503.20000000000005</ele><time>2026-05-02T13:22:28.128Z</time></trkpt><trkpt lat="46.1494683" lon="13.4298881"><ele>503.8</ele><time>2026-05-02T13:22:30.128Z</time></trkpt><trkpt lat="46.149408" lon="13.4300277"><ele>504.4</ele><time>2026-05-02T13:22:32.126Z</time></trkpt><trkpt lat="46.1493237" lon="13.4301509"><ele>505.0</ele><time>2026-05-02T13:22:34.132Z</time></trkpt><trkpt lat="46.1492636" lon="13.4302033"><ele>505.00000000000006</ele><time>2026-05-02T13:22:35.135Z</time></trkpt><trkpt lat="46.1491885" lon="13.4302514"><ele>505.0</ele><time>2026-05-02T13:22:36.133Z</time></trkpt><trkpt lat="46.1491021" lon="13.430288"><ele>505.0</ele><time>2026-05-02T13:22:37.135Z</time></trkpt><trkpt lat="46.1490243" lon="13.43031"><ele>505.0</ele><time>2026-05-02T13:22:38.133Z</time></trkpt><trkpt lat="46.1489405" lon="13.4303199"><ele>505.00000000000006</ele><time>2026-05-02T13:22:39.135Z</time></trkpt><trkpt lat="46.1488591" lon="13.4303352"><ele>505.0</ele><time>2026-05-02T13:22:40.136Z</time></trkpt><trkpt lat="46.1487773" lon="13.4303537"><ele>501.6</ele><time>2026-05-02T13:22:41.133Z</time></trkpt><trkpt lat="46.1487081" lon="13.4303827"><ele>498.2</ele><time>2026-05-02T13:22:42.132Z</time></trkpt><trkpt lat="46.1486025" lon="13.4304593"><ele>494.79999999999995</ele><time>2026-05-02T13:22:44.13Z</time></trkpt><trkpt lat="46.1485254" lon="13.4306056"><ele>491.4</ele><time>2026-05-02T13:22:46.146Z</time></trkpt><trkpt lat="46.1484869" lon="13.4306918"><ele>488.0</ele><time>2026-05-02T13:22:47.141Z</time></trkpt><trkpt lat="46.1484429" lon="13.4307673"><ele>488.0</ele><time>2026-05-02T13:22:48.126Z</time></trkpt><trkpt lat="46.1483893" lon="13.4308543"><ele>487.99999999999994</ele><time>2026-05-02T13:22:49.13Z</time></trkpt><trkpt lat="46.1483139" lon="13.4309287"><ele>487.99999999999994</ele><time>2026-05-02T13:22:50.135Z</time></trkpt><trkpt lat="46.1482411" lon="13.4310074"><ele>488.0</ele><time>2026-05-02T13:22:51.127Z</time></trkpt><trkpt lat="46.1481544" lon="13.4310888"><ele>488.0</ele><time>2026-05-02T13:22:52.129Z</time></trkpt><trkpt lat="46.1480664" lon="13.4311661"><ele>487.79999999999995</ele><time>2026-05-02T13:22:53.133Z</time></trkpt><trkpt lat="46.1479762" lon="13.4312477"><ele>487.59999999999997</ele><time>2026-05-02T13:22:54.132Z</time></trkpt><trkpt lat="46.1478873" lon="13.4313213"><ele>487.40000000000003</ele><time>2026-05-02T13:22:55.136Z</time></trkpt><trkpt lat="46.1477944" lon="13.4314114"><ele>487.20000000000005</ele><time>2026-05-02T13:22:56.136Z</time></trkpt><trkpt lat="46.1477175" lon="13.4314946"><ele>487.0</ele><time>2026-05-02T13:22:57.135Z</time></trkpt><trkpt lat="46.1476437" lon="13.4315921"><ele>487.00000000000006</ele><time>2026-05-02T13:22:58.13Z</time></trkpt><trkpt lat="46.1475808" lon="13.4316793"><ele>487.0</ele><time>2026-05-02T13:22:59.137Z</time></trkpt><trkpt lat="46.1475142" lon="13.431763"><ele>487.0</ele><time>2026-05-02T13:23:00.13Z</time></trkpt><trkpt lat="46.1474483" lon="13.4318329"><ele>487.0</ele><time>2026-05-02T13:23:01.144Z</time></trkpt><trkpt lat="46.1473822" lon="13.431888"><ele>487.00000000000006</ele><time>2026-05-02T13:23:02.139Z</time></trkpt><trkpt lat="46.1473201" lon="13.4319279"><ele>487.0</ele><time>2026-05-02T13:23:03.131Z</time></trkpt><trkpt lat="46.1472592" lon="13.4319574"><ele>488.14285714285717</ele><time>2026-05-02T13:23:04.129Z</time></trkpt><trkpt lat="46.1471941" lon="13.4319611"><ele>489.2857142857142</ele><time>2026-05-02T13:23:05.135Z</time></trkpt><trkpt lat="46.1471195" lon="13.4319473"><ele>490.4285714285714</ele><time>2026-05-02T13:23:06.135Z</time></trkpt><trkpt lat="46.1470434" lon="13.4319395"><ele>491.57142857142856</ele><time>2026-05-02T13:23:07.138Z</time></trkpt><trkpt lat="46.1469706" lon="13.4319454"><ele>492.71428571428567</ele><time>2026-05-02T13:23:08.15Z</time></trkpt><trkpt lat="46.1469057" lon="13.431975"><ele>493.8571428571428</ele><time>2026-05-02T13:23:09.146Z</time></trkpt><trkpt lat="46.146836" lon="13.4320031"><ele>494.99999999999994</ele><time>2026-05-02T13:23:10.15Z</time></trkpt><trkpt lat="46.1467679" lon="13.4320448"><ele>495.0</ele><time>2026-05-02T13:23:11.139Z</time></trkpt><trkpt lat="46.1467001" lon="13.4321065"><ele>495.0</ele><time>2026-05-02T13:23:12.146Z</time></trkpt><trkpt lat="46.1466291" lon="13.4321774"><ele>495.0</ele><time>2026-05-02T13:23:13.139Z</time></trkpt><trkpt lat="46.1465524" lon="13.4322561"><ele>495.0</ele><time>2026-05-02T13:23:14.136Z</time></trkpt><trkpt lat="46.1464696" lon="13.4323429"><ele>495.0</ele><time>2026-05-02T13:23:15.142Z</time></trkpt><trkpt lat="46.146397" lon="13.4324236"><ele>492.2</ele><time>2026-05-02T13:23:16.135Z</time></trkpt><trkpt lat="46.1463217" lon="13.4324966"><ele>489.4</ele><time>2026-05-02T13:23:17.135Z</time></trkpt><trkpt lat="46.1462395" lon="13.4325537"><ele>486.6</ele><time>2026-05-02T13:23:18.137Z</time></trkpt><trkpt lat="46.1461482" lon="13.4325929"><ele>483.8</ele><time>2026-05-02T13:23:19.147Z</time></trkpt><trkpt lat="46.1460613" lon="13.4326286"><ele>481.0</ele><time>2026-05-02T13:23:20.142Z</time></trkpt><trkpt lat="46.1459661" lon="13.432662"><ele>481.0</ele><time>2026-05-02T13:23:21.138Z</time></trkpt><trkpt lat="46.1458605" lon="13.432713"><ele>481.0</ele><time>2026-05-02T13:23:22.139Z</time></trkpt><trkpt lat="46.1457516" lon="13.4327608"><ele>481.0</ele><time>2026-05-02T13:23:23.134Z</time></trkpt><trkpt lat="46.1456434" lon="13.4328079"><ele>481.0</ele><time>2026-05-02T13:23:24.143Z</time></trkpt><trkpt lat="46.1455332" lon="13.4328503"><ele>481.20000000000005</ele><time>2026-05-02T13:23:25.134Z</time></trkpt><trkpt lat="46.1454299" lon="13.432877"><ele>481.40000000000003</ele><time>2026-05-02T13:23:26.137Z</time></trkpt><trkpt lat="46.145323" lon="13.4329041"><ele>481.6</ele><time>2026-05-02T13:23:27.131Z</time></trkpt><trkpt lat="46.1452154" lon="13.4329328"><ele>481.8</ele><time>2026-05-02T13:23:28.136Z</time></trkpt><trkpt lat="46.1451056" lon="13.4329591"><ele>482.0</ele><time>2026-05-02T13:23:29.141Z</time></trkpt><trkpt lat="46.1449993" lon="13.4329864"><ele>477.66666666666663</ele><time>2026-05-02T13:23:30.135Z</time></trkpt><trkpt lat="46.1449009" lon="13.4330157"><ele>473.3333333333333</ele><time>2026-05-02T13:23:31.136Z</time></trkpt><trkpt lat="46.1448011" lon="13.4330407"><ele>469.0</ele><time>2026-05-02T13:23:32.132Z</time></trkpt><trkpt lat="46.1447166" lon="13.4330591"><ele>464.66666666666663</ele><time>2026-05-02T13:23:33.14Z</time></trkpt><trkpt lat="46.1446441" lon="13.4330662"><ele>460.3333333333333</ele><time>2026-05-02T13:23:34.135Z</time></trkpt><trkpt lat="46.1445785" lon="13.4330614"><ele>456.0</ele><time>2026-05-02T13:23:35.141Z</time></trkpt><trkpt lat="46.1445107" lon="13.4330283"><ele>456.0</ele><time>2026-05-02T13:23:36.144Z</time></trkpt><trkpt lat="46.1444434" lon="13.4329837"><ele>456.0</ele><time>2026-05-02T13:23:37.138Z</time></trkpt><trkpt lat="46.1443725" lon="13.4329226"><ele>456.0</ele><time>2026-05-02T13:23:38.15Z</time></trkpt><trkpt lat="46.144319" lon="13.4328603"><ele>456.0</ele><time>2026-05-02T13:23:39.139Z</time></trkpt><trkpt lat="46.1442784" lon="13.4327885"><ele>456.0</ele><time>2026-05-02T13:23:40.134Z</time></trkpt><trkpt lat="46.1442396" lon="13.4326276"><ele>456.0</ele><time>2026-05-02T13:23:42.132Z</time></trkpt><trkpt lat="46.1442423" lon="13.4325167"><ele>457.0</ele><time>2026-05-02T13:23:43.133Z</time></trkpt><trkpt lat="46.1442347" lon="13.4323968"><ele>458.0</ele><time>2026-05-02T13:23:44.13Z</time></trkpt><trkpt lat="46.1441697" lon="13.4322432"><ele>459.0</ele><time>2026-05-02T13:23:46.141Z</time></trkpt><trkpt lat="46.1440727" lon="13.4321632"><ele>460.0</ele><time>2026-05-02T13:23:48.13Z</time></trkpt><trkpt lat="46.1440086" lon="13.4321217"><ele>461.0</ele><time>2026-05-02T13:23:49.145Z</time></trkpt><trkpt lat="46.1439351" lon="13.4320745"><ele>461.0</ele><time>2026-05-02T13:23:50.138Z</time></trkpt><trkpt lat="46.1438472" lon="13.432014"><ele>461.0</ele><time>2026-05-02T13:23:51.139Z</time></trkpt><trkpt lat="46.1437479" lon="13.43194"><ele>461.0</ele><time>2026-05-02T13:23:52.14Z</time></trkpt><trkpt lat="46.1436568" lon="13.4318558"><ele>461.0</ele><time>2026-05-02T13:23:53.157Z</time></trkpt><trkpt lat="46.1435912" lon="13.4317675"><ele>461.0</ele><time>2026-05-02T13:23:54.141Z</time></trkpt><trkpt lat="46.1435451" lon="13.4316892"><ele>461.0</ele><time>2026-05-02T13:23:55.141Z</time></trkpt><trkpt lat="46.1435312" lon="13.4315495"><ele>461.00000000000006</ele><time>2026-05-02T13:23:57.141Z</time></trkpt><trkpt lat="46.1435514" lon="13.4314602"><ele>461.0</ele><time>2026-05-02T13:23:58.127Z</time></trkpt><trkpt lat="46.1435913" lon="13.4313779"><ele>461.0</ele><time>2026-05-02T13:23:59.131Z</time></trkpt><trkpt lat="46.1436216" lon="13.4312919"><ele>461.00000000000006</ele><time>2026-05-02T13:24:00.133Z</time></trkpt><trkpt lat="46.1435741" lon="13.4311973"><ele>461.0</ele><time>2026-05-02T13:24:02.133Z</time></trkpt><trkpt lat="46.1435118" lon="13.4311626"><ele>461.0</ele><time>2026-05-02T13:24:03.131Z</time></trkpt><trkpt lat="46.143409" lon="13.4310821"><ele>460.75</ele><time>2026-05-02T13:24:05.134Z</time></trkpt><trkpt lat="46.1432944" lon="13.4309899"><ele>460.5</ele><time>2026-05-02T13:24:07.137Z</time></trkpt><trkpt lat="46.1431968" lon="13.4309858"><ele>460.25</ele><time>2026-05-02T13:24:08.148Z</time></trkpt><trkpt lat="46.1430842" lon="13.43097"><ele>460.0</ele><time>2026-05-02T13:24:09.139Z</time></trkpt><trkpt lat="46.1429743" lon="13.4309443"><ele>460.00000000000006</ele><time>2026-05-02T13:24:10.139Z</time></trkpt><trkpt lat="46.1428915" lon="13.4308893"><ele>460.0</ele><time>2026-05-02T13:24:11.137Z</time></trkpt><trkpt lat="46.1428221" lon="13.4308252"><ele>460.0</ele><time>2026-05-02T13:24:12.15Z</time></trkpt><trkpt lat="46.1427803" lon="13.4307447"><ele>460.0</ele><time>2026-05-02T13:24:13.139Z</time></trkpt><trkpt lat="46.1427666" lon="13.4306354"><ele>460.00000000000006</ele><time>2026-05-02T13:24:14.136Z</time></trkpt><trkpt lat="46.1427632" lon="13.4305151"><ele>460.0</ele><time>2026-05-02T13:24:15.141Z</time></trkpt><trkpt lat="46.1427561" lon="13.4304036"><ele>460.6666666666667</ele><time>2026-05-02T13:24:16.135Z</time></trkpt><trkpt lat="46.1427407" lon="13.4303113"><ele>461.33333333333337</ele><time>2026-05-02T13:24:17.138Z</time></trkpt><trkpt lat="46.1426356" lon="13.4302675"><ele>462.0</ele><time>2026-05-02T13:24:19.143Z</time></trkpt><trkpt lat="46.1425657" lon="13.4302768"><ele>462.66666666666663</ele><time>2026-05-02T13:24:20.13Z</time></trkpt><trkpt lat="46.142497" lon="13.4302665"><ele>463.3333333333333</ele><time>2026-05-02T13:24:21.14Z</time></trkpt><trkpt lat="46.1424332" lon="13.4302124"><ele>464.0</ele><time>2026-05-02T13:24:22.147Z</time></trkpt><trkpt lat="46.1423462" lon="13.4301316"><ele>464.0</ele><time>2026-05-02T13:24:23.155Z</time></trkpt><trkpt lat="46.14226" lon="13.4300198"><ele>464.0</ele><time>2026-05-02T13:24:24.143Z</time></trkpt><trkpt lat="46.1421861" lon="13.4299043"><ele>464.0</ele><time>2026-05-02T13:24:25.137Z</time></trkpt><trkpt lat="46.1421234" lon="13.4297717"><ele>464.0</ele><time>2026-05-02T13:24:26.155Z</time></trkpt><trkpt lat="46.1420692" lon="13.4296221"><ele>465.6</ele><time>2026-05-02T13:24:27.137Z</time></trkpt><trkpt lat="46.1420185" lon="13.4294805"><ele>467.2</ele><time>2026-05-02T13:24:28.136Z</time></trkpt><trkpt lat="46.1420031" lon="13.4293586"><ele>468.80000000000007</ele><time>2026-05-02T13:24:29.137Z</time></trkpt><trkpt lat="46.1420179" lon="13.4292496"><ele>470.40000000000003</ele><time>2026-05-02T13:24:30.137Z</time></trkpt><trkpt lat="46.1420473" lon="13.4291244"><ele>472.0</ele><time>2026-05-02T13:24:31.147Z</time></trkpt><trkpt lat="46.1420671" lon="13.4290046"><ele>472.0</ele><time>2026-05-02T13:24:32.136Z</time></trkpt><trkpt lat="46.1420747" lon="13.4288654"><ele>472.00000000000006</ele><time>2026-05-02T13:24:33.143Z</time></trkpt><trkpt lat="46.1420791" lon="13.4287259"><ele>472.00000000000006</ele><time>2026-05-02T13:24:34.146Z</time></trkpt><trkpt lat="46.1420604" lon="13.4285891"><ele>472.0</ele><time>2026-05-02T13:24:35.142Z</time></trkpt><trkpt lat="46.1420314" lon="13.4284498"><ele>472.0</ele><time>2026-05-02T13:24:36.147Z</time></trkpt><trkpt lat="46.1419722" lon="13.4283116"><ele>473.20000000000005</ele><time>2026-05-02T13:24:37.137Z</time></trkpt><trkpt lat="46.1418978" lon="13.4282063"><ele>474.40000000000003</ele><time>2026-05-02T13:24:38.133Z</time></trkpt><trkpt lat="46.1418235" lon="13.428116"><ele>475.59999999999997</ele><time>2026-05-02T13:24:39.134Z</time></trkpt><trkpt lat="46.1417528" lon="13.4280235"><ele>476.79999999999995</ele><time>2026-05-02T13:24:40.135Z</time></trkpt><trkpt lat="46.1417054" lon="13.427917"><ele>478.0</ele><time>2026-05-02T13:24:41.144Z</time></trkpt><trkpt lat="46.1416794" lon="13.4277801"><ele>479.79999999999995</ele><time>2026-05-02T13:24:42.138Z</time></trkpt><trkpt lat="46.1416614" lon="13.4276334"><ele>481.59999999999997</ele><time>2026-05-02T13:24:43.13Z</time></trkpt><trkpt lat="46.1416427" lon="13.4275171"><ele>483.40000000000003</ele><time>2026-05-02T13:24:44.126Z</time></trkpt><trkpt lat="46.1416138" lon="13.4274273"><ele>485.20000000000005</ele><time>2026-05-02T13:24:45.139Z</time></trkpt><trkpt lat="46.1415101" lon="13.4273399"><ele>487.0</ele><time>2026-05-02T13:24:47.133Z</time></trkpt><trkpt lat="46.1414232" lon="13.4273442"><ele>487.0</ele><time>2026-05-02T13:24:48.129Z</time></trkpt><trkpt lat="46.1413177" lon="13.4273656"><ele>487.0</ele><time>2026-05-02T13:24:49.139Z</time></trkpt><trkpt lat="46.1412033" lon="13.4274024"><ele>487.0</ele><time>2026-05-02T13:24:50.13Z</time></trkpt><trkpt lat="46.141083" lon="13.4274639"><ele>487.0</ele><time>2026-05-02T13:24:51.127Z</time></trkpt><trkpt lat="46.1409676" lon="13.4275218"><ele>487.0</ele><time>2026-05-02T13:24:52.135Z</time></trkpt><trkpt lat="46.1408662" lon="13.4275715"><ele>487.00000000000006</ele><time>2026-05-02T13:24:53.13Z</time></trkpt><trkpt lat="46.1407722" lon="13.4275831"><ele>487.00000000000006</ele><time>2026-05-02T13:24:54.137Z</time></trkpt><trkpt lat="46.1406807" lon="13.4275605"><ele>487.0</ele><time>2026-05-02T13:24:55.132Z</time></trkpt><trkpt lat="46.140596" lon="13.4275286"><ele>487.0</ele><time>2026-05-02T13:24:56.132Z</time></trkpt><trkpt lat="46.1405136" lon="13.4274718"><ele>485.20000000000005</ele><time>2026-05-02T13:24:57.148Z</time></trkpt><trkpt lat="46.1404332" lon="13.4274003"><ele>483.40000000000003</ele><time>2026-05-02T13:24:58.154Z</time></trkpt><trkpt lat="46.140377" lon="13.4273121"><ele>481.59999999999997</ele><time>2026-05-02T13:24:59.136Z</time></trkpt><trkpt lat="46.1403326" lon="13.4272172"><ele>479.79999999999995</ele><time>2026-05-02T13:25:00.137Z</time></trkpt><trkpt lat="46.1403128" lon="13.4270781"><ele>478.0</ele><time>2026-05-02T13:25:01.138Z</time></trkpt><trkpt lat="46.1403069" lon="13.426926"><ele>478.0</ele><time>2026-05-02T13:25:02.134Z</time></trkpt><trkpt lat="46.1402967" lon="13.4267601"><ele>477.99999999999994</ele><time>2026-05-02T13:25:03.138Z</time></trkpt><trkpt lat="46.1402832" lon="13.4266283"><ele>477.99999999999994</ele><time>2026-05-02T13:25:04.145Z</time></trkpt><trkpt lat="46.1402899" lon="13.4265047"><ele>478.0</ele><time>2026-05-02T13:25:05.145Z</time></trkpt><trkpt lat="46.1403158" lon="13.4263987"><ele>478.0</ele><time>2026-05-02T13:25:06.134Z</time></trkpt><trkpt lat="46.1403472" lon="13.4262923"><ele>479.33333333333337</ele><time>2026-05-02T13:25:07.142Z</time></trkpt><trkpt lat="46.1403895" lon="13.426207"><ele>480.6666666666667</ele><time>2026-05-02T13:25:08.135Z</time></trkpt><trkpt lat="46.1404459" lon="13.4261359"><ele>482.0</ele><time>2026-05-02T13:25:09.133Z</time></trkpt><trkpt lat="46.1404978" lon="13.4260646"><ele>483.33333333333337</ele><time>2026-05-02T13:25:10.15Z</time></trkpt><trkpt lat="46.1405256" lon="13.425953"><ele>484.6666666666667</ele><time>2026-05-02T13:25:12.163Z</time></trkpt><trkpt lat="46.140461" lon="13.4258754"><ele>486.0</ele><time>2026-05-02T13:25:14.13Z</time></trkpt><trkpt lat="46.1403651" lon="13.4258339"><ele>486.0</ele><time>2026-05-02T13:25:15.129Z</time></trkpt><trkpt lat="46.1402235" lon="13.4257987"><ele>486.0</ele><time>2026-05-02T13:25:16.131Z</time></trkpt><trkpt lat="46.1401063" lon="13.425765"><ele>486.0</ele><time>2026-05-02T13:25:17.144Z</time></trkpt><trkpt lat="46.1400083" lon="13.4257243"><ele>486.0</ele><time>2026-05-02T13:25:18.144Z</time></trkpt><trkpt lat="46.1399127" lon="13.4256717"><ele>482.75</ele><time>2026-05-02T13:25:19.138Z</time></trkpt><trkpt lat="46.139826" lon="13.4255798"><ele>479.5</ele><time>2026-05-02T13:25:20.147Z</time></trkpt><trkpt lat="46.1397393" lon="13.4254647"><ele>476.25</ele><time>2026-05-02T13:25:21.141Z</time></trkpt><trkpt lat="46.1396469" lon="13.4253397"><ele>473.0</ele><time>2026-05-02T13:25:22.139Z</time></trkpt><trkpt lat="46.1395728" lon="13.4252271"><ele>472.99999999999994</ele><time>2026-05-02T13:25:23.145Z</time></trkpt><trkpt lat="46.1395153" lon="13.4251299"><ele>473.0</ele><time>2026-05-02T13:25:24.138Z</time></trkpt><trkpt lat="46.1394895" lon="13.4250293"><ele>473.0</ele><time>2026-05-02T13:25:25.143Z</time></trkpt><trkpt lat="46.139478" lon="13.4249254"><ele>473.0</ele><time>2026-05-02T13:25:26.132Z</time></trkpt><trkpt lat="46.1394891" lon="13.4248013"><ele>472.99999999999994</ele><time>2026-05-02T13:25:27.145Z</time></trkpt><trkpt lat="46.139521" lon="13.4246974"><ele>473.0</ele><time>2026-05-02T13:25:28.137Z</time></trkpt><trkpt lat="46.139578" lon="13.4245792"><ele>473.8333333333333</ele><time>2026-05-02T13:25:29.139Z</time></trkpt><trkpt lat="46.1396242" lon="13.4244713"><ele>474.66666666666663</ele><time>2026-05-02T13:25:30.124Z</time></trkpt><trkpt lat="46.1396441" lon="13.4243726"><ele>475.5</ele><time>2026-05-02T13:25:31.133Z</time></trkpt><trkpt lat="46.1396266" lon="13.4242721"><ele>476.33333333333337</ele><time>2026-05-02T13:25:32.145Z</time></trkpt><trkpt lat="46.1395781" lon="13.4241671"><ele>477.1666666666667</ele><time>2026-05-02T13:25:33.138Z</time></trkpt><trkpt lat="46.1395165" lon="13.4240362"><ele>478.0</ele><time>2026-05-02T13:25:34.141Z</time></trkpt><trkpt lat="46.1394707" lon="13.4239023"><ele>479.0</ele><time>2026-05-02T13:25:35.137Z</time></trkpt><trkpt lat="46.1394605" lon="13.4237594"><ele>479.99999999999994</ele><time>2026-05-02T13:25:36.144Z</time></trkpt><trkpt lat="46.1394511" lon="13.4236137"><ele>480.99999999999994</ele><time>2026-05-02T13:25:37.133Z</time></trkpt><trkpt lat="46.1394346" lon="13.4234471"><ele>482.0</ele><time>2026-05-02T13:25:38.142Z</time></trkpt><trkpt lat="46.1394009" lon="13.4232843"><ele>483.0</ele><time>2026-05-02T13:25:39.134Z</time></trkpt><trkpt lat="46.1393654" lon="13.4231211"><ele>485.2</ele><time>2026-05-02T13:25:40.14Z</time></trkpt><trkpt lat="46.1393378" lon="13.4229675"><ele>487.4</ele><time>2026-05-02T13:25:41.145Z</time></trkpt><trkpt lat="46.1393174" lon="13.4228202"><ele>489.59999999999997</ele><time>2026-05-02T13:25:42.13Z</time></trkpt><trkpt lat="46.1393011" lon="13.4226921"><ele>491.79999999999995</ele><time>2026-05-02T13:25:43.134Z</time></trkpt><trkpt lat="46.1392686" lon="13.4225867"><ele>494.0</ele><time>2026-05-02T13:25:44.126Z</time></trkpt><trkpt lat="46.1392145" lon="13.4224948"><ele>493.99999999999994</ele><time>2026-05-02T13:25:45.139Z</time></trkpt><trkpt lat="46.1391414" lon="13.422413"><ele>494.0</ele><time>2026-05-02T13:25:46.131Z</time></trkpt><trkpt lat="46.13906" lon="13.4223342"><ele>494.0</ele><time>2026-05-02T13:25:47.118Z</time></trkpt><trkpt lat="46.1389885" lon="13.4222545"><ele>494.0</ele><time>2026-05-02T13:25:48.139Z</time></trkpt><trkpt lat="46.138934" lon="13.4221668"><ele>493.99999999999994</ele><time>2026-05-02T13:25:49.132Z</time></trkpt><trkpt lat="46.1389115" lon="13.4220718"><ele>494.0</ele><time>2026-05-02T13:25:50.133Z</time></trkpt><trkpt lat="46.1388556" lon="13.4219219"><ele>495.6</ele><time>2026-05-02T13:25:52.136Z</time></trkpt><trkpt lat="46.1387448" lon="13.4218763"><ele>497.2</ele><time>2026-05-02T13:25:54.134Z</time></trkpt><trkpt lat="46.1386495" lon="13.4219019"><ele>498.80000000000007</ele><time>2026-05-02T13:25:55.135Z</time></trkpt><trkpt lat="46.1385488" lon="13.4219426"><ele>500.40000000000003</ele><time>2026-05-02T13:25:56.14Z</time></trkpt><trkpt lat="46.1384483" lon="13.421991"><ele>502.0</ele><time>2026-05-02T13:25:57.122Z</time></trkpt><trkpt lat="46.1383557" lon="13.4220343"><ele>502.0</ele><time>2026-05-02T13:25:58.133Z</time></trkpt><trkpt lat="46.1382762" lon="13.4220472"><ele>502.00000000000006</ele><time>2026-05-02T13:25:59.127Z</time></trkpt><trkpt lat="46.1381955" lon="13.4220339"><ele>502.00000000000006</ele><time>2026-05-02T13:26:00.126Z</time></trkpt><trkpt lat="46.1381022" lon="13.4220135"><ele>502.0</ele><time>2026-05-02T13:26:01.117Z</time></trkpt><trkpt lat="46.1379882" lon="13.4220013"><ele>502.0</ele><time>2026-05-02T13:26:02.13Z</time></trkpt><trkpt lat="46.1378673" lon="13.4220111"><ele>499.20000000000005</ele><time>2026-05-02T13:26:03.137Z</time></trkpt><trkpt lat="46.1377408" lon="13.4220391"><ele>496.40000000000003</ele><time>2026-05-02T13:26:04.126Z</time></trkpt><trkpt lat="46.1376307" lon="13.4220528"><ele>493.59999999999997</ele><time>2026-05-02T13:26:05.129Z</time></trkpt><trkpt lat="46.137541" lon="13.4220513"><ele>490.79999999999995</ele><time>2026-05-02T13:26:06.128Z</time></trkpt><trkpt lat="46.137436" lon="13.4220181"><ele>488.0</ele><time>2026-05-02T13:26:08.131Z</time></trkpt><trkpt lat="46.1374176" lon="13.4218873"><ele>487.99999999999994</ele><time>2026-05-02T13:26:10.131Z</time></trkpt><trkpt lat="46.1374199" lon="13.4217089"><ele>488.0</ele><time>2026-05-02T13:26:12.139Z</time></trkpt><trkpt lat="46.1374153" lon="13.4216137"><ele>488.0</ele><time>2026-05-02T13:26:13.135Z</time></trkpt><trkpt lat="46.1373908" lon="13.421522"><ele>488.0</ele><time>2026-05-02T13:26:14.132Z</time></trkpt><trkpt lat="46.1373367" lon="13.4214345"><ele>487.99999999999994</ele><time>2026-05-02T13:26:15.137Z</time></trkpt><trkpt lat="46.1372751" lon="13.4213414"><ele>488.0</ele><time>2026-05-02T13:26:16.127Z</time></trkpt><trkpt lat="46.1372133" lon="13.4212475"><ele>484.49999999999994</ele><time>2026-05-02T13:26:17.131Z</time></trkpt><trkpt lat="46.1371749" lon="13.4211532"><ele>481.0</ele><time>2026-05-02T13:26:18.144Z</time></trkpt><trkpt lat="46.1371607" lon="13.4210498"><ele>477.5</ele><time>2026-05-02T13:26:19.126Z</time></trkpt><trkpt lat="46.1371604" lon="13.4209252"><ele>474.0</ele><time>2026-05-02T13:26:20.128Z</time></trkpt><trkpt lat="46.1371636" lon="13.4207947"><ele>470.49999999999994</ele><time>2026-05-02T13:26:21.138Z</time></trkpt><trkpt lat="46.137173" lon="13.4206545"><ele>467.0</ele><time>2026-05-02T13:26:22.13Z</time></trkpt><trkpt lat="46.1371825" lon="13.4205305"><ele>469.99999999999994</ele><time>2026-05-02T13:26:23.13Z</time></trkpt><trkpt lat="46.1371943" lon="13.4204185"><ele>473.0</ele><time>2026-05-02T13:26:24.127Z</time></trkpt><trkpt lat="46.1371778" lon="13.4203297"><ele>476.0</ele><time>2026-05-02T13:26:25.132Z</time></trkpt><trkpt lat="46.137138" lon="13.4202546"><ele>479.0</ele><time>2026-05-02T13:26:26.137Z</time></trkpt><trkpt lat="46.1370681" lon="13.4201944"><ele>481.99999999999994</ele><time>2026-05-02T13:26:27.131Z</time></trkpt><trkpt lat="46.1369758" lon="13.4201249"><ele>485.0</ele><time>2026-05-02T13:26:28.13Z</time></trkpt><trkpt lat="46.1368727" lon="13.4200609"><ele>485.0</ele><time>2026-05-02T13:26:29.135Z</time></trkpt><trkpt lat="46.1367607" lon="13.4199954"><ele>485.0</ele><time>2026-05-02T13:26:30.128Z</time></trkpt><trkpt lat="46.13665" lon="13.4199134"><ele>485.0</ele><time>2026-05-02T13:26:31.137Z</time></trkpt><trkpt lat="46.136535" lon="13.4198165"><ele>485.0</ele><time>2026-05-02T13:26:32.124Z</time></trkpt><trkpt lat="46.1364324" lon="13.4197296"><ele>484.3333333333333</ele><time>2026-05-02T13:26:33.127Z</time></trkpt><trkpt lat="46.1363636" lon="13.4196624"><ele>483.66666666666663</ele><time>2026-05-02T13:26:34.133Z</time></trkpt><trkpt lat="46.1363037" lon="13.4195544"><ele>483.0</ele><time>2026-05-02T13:26:36.138Z</time></trkpt><trkpt lat="46.1362789" lon="13.4194197"><ele>482.33333333333337</ele><time>2026-05-02T13:26:38.135Z</time></trkpt><trkpt lat="46.1362553" lon="13.4193344"><ele>481.6666666666667</ele><time>2026-05-02T13:26:39.135Z</time></trkpt><trkpt lat="46.1362035" lon="13.4192074"><ele>481.0</ele><time>2026-05-02T13:26:41.134Z</time></trkpt><trkpt lat="46.1361281" lon="13.4192589"><ele>481.0</ele><time>2026-05-02T13:26:44.142Z</time></trkpt><trkpt lat="46.1360844" lon="13.4194485"><ele>481.0</ele><time>2026-05-02T13:26:46.126Z</time></trkpt><trkpt lat="46.1360486" lon="13.4195558"><ele>481.0</ele><time>2026-05-02T13:26:47.132Z</time></trkpt><trkpt lat="46.136005" lon="13.419654"><ele>481.0</ele><time>2026-05-02T13:26:48.136Z</time></trkpt><trkpt lat="46.1359547" lon="13.419752"><ele>481.0</ele><time>2026-05-02T13:26:49.141Z</time></trkpt><trkpt lat="46.1358888" lon="13.4198524"><ele>481.00000000000006</ele><time>2026-05-02T13:26:50.136Z</time></trkpt><trkpt lat="46.1358256" lon="13.4199118"><ele>481.0</ele><time>2026-05-02T13:26:51.138Z</time></trkpt><trkpt lat="46.1357584" lon="13.4199311"><ele>481.0</ele><time>2026-05-02T13:26:52.148Z</time></trkpt><trkpt lat="46.1356705" lon="13.4199381"><ele>481.0</ele><time>2026-05-02T13:26:53.125Z</time></trkpt><trkpt lat="46.1355805" lon="13.419943"><ele>481.00000000000006</ele><time>2026-05-02T13:26:54.124Z</time></trkpt><trkpt lat="46.135489" lon="13.4199479"><ele>481.0</ele><time>2026-05-02T13:26:55.138Z</time></trkpt><trkpt lat="46.1353958" lon="13.4199726"><ele>482.6</ele><time>2026-05-02T13:26:56.129Z</time></trkpt><trkpt lat="46.1353109" lon="13.4200066"><ele>484.20000000000005</ele><time>2026-05-02T13:26:57.134Z</time></trkpt><trkpt lat="46.1352274" lon="13.4200514"><ele>485.79999999999995</ele><time>2026-05-02T13:26:58.142Z</time></trkpt><trkpt lat="46.1351414" lon="13.4201039"><ele>487.4</ele><time>2026-05-02T13:26:59.135Z</time></trkpt><trkpt lat="46.135057" lon="13.4201593"><ele>489.0</ele><time>2026-05-02T13:27:00.141Z</time></trkpt><trkpt lat="46.1349658" lon="13.4202441"><ele>488.79999999999995</ele><time>2026-05-02T13:27:01.131Z</time></trkpt><trkpt lat="46.1348726" lon="13.4203483"><ele>488.59999999999997</ele><time>2026-05-02T13:27:02.129Z</time></trkpt><trkpt lat="46.1347845" lon="13.4204543"><ele>488.4</ele><time>2026-05-02T13:27:03.129Z</time></trkpt><trkpt lat="46.1347052" lon="13.4205609"><ele>488.2</ele><time>2026-05-02T13:27:04.131Z</time></trkpt><trkpt lat="46.1346285" lon="13.4206581"><ele>488.0</ele><time>2026-05-02T13:27:05.127Z</time></trkpt><trkpt lat="46.1345633" lon="13.4207403"><ele>483.59999999999997</ele><time>2026-05-02T13:27:06.134Z</time></trkpt><trkpt lat="46.1344838" lon="13.4207974"><ele>479.19999999999993</ele><time>2026-05-02T13:27:07.133Z</time></trkpt><trkpt lat="46.1343929" lon="13.4208357"><ele>474.8</ele><time>2026-05-02T13:27:08.126Z</time></trkpt><trkpt lat="46.1343054" lon="13.420886"><ele>470.4</ele><time>2026-05-02T13:27:09.136Z</time></trkpt><trkpt lat="46.1342132" lon="13.4209402"><ele>466.0</ele><time>2026-05-02T13:27:10.136Z</time></trkpt><trkpt lat="46.1341282" lon="13.4209985"><ele>462.25</ele><time>2026-05-02T13:27:11.139Z</time></trkpt><trkpt lat="46.1340277" lon="13.421091"><ele>458.5</ele><time>2026-05-02T13:27:12.123Z</time></trkpt><trkpt lat="46.1339291" lon="13.4212008"><ele>454.75</ele><time>2026-05-02T13:27:13.134Z</time></trkpt><trkpt lat="46.1338317" lon="13.421305"><ele>451.0</ele><time>2026-05-02T13:27:14.126Z</time></trkpt><trkpt lat="46.1337371" lon="13.4214074"><ele>448.8</ele><time>2026-05-02T13:27:15.125Z</time></trkpt><trkpt lat="46.1336447" lon="13.421507"><ele>446.6</ele><time>2026-05-02T13:27:16.134Z</time></trkpt><trkpt lat="46.1335664" lon="13.4215802"><ele>444.4</ele><time>2026-05-02T13:27:17.14Z</time></trkpt><trkpt lat="46.1334975" lon="13.4216334"><ele>442.2</ele><time>2026-05-02T13:27:18.129Z</time></trkpt><trkpt lat="46.1334154" lon="13.421666"><ele>440.0</ele><time>2026-05-02T13:27:19.139Z</time></trkpt><trkpt lat="46.1333303" lon="13.4216914"><ele>439.99999999999994</ele><time>2026-05-02T13:27:20.133Z</time></trkpt><trkpt lat="46.133251" lon="13.4216965"><ele>440.0</ele><time>2026-05-02T13:27:21.134Z</time></trkpt><trkpt lat="46.1331911" lon="13.4216486"><ele>440.0</ele><time>2026-05-02T13:27:22.14Z</time></trkpt><trkpt lat="46.133151" lon="13.4215728"><ele>440.0</ele><time>2026-05-02T13:27:23.134Z</time></trkpt><trkpt lat="46.1331314" lon="13.4214793"><ele>439.99999999999994</ele><time>2026-05-02T13:27:24.128Z</time></trkpt><trkpt lat="46.1331209" lon="13.4213764"><ele>440.0</ele><time>2026-05-02T13:27:25.134Z</time></trkpt><trkpt lat="46.133113" lon="13.421227"><ele>434.0</ele><time>2026-05-02T13:27:26.128Z</time></trkpt><trkpt lat="46.1331167" lon="13.4210782"><ele>428.0</ele><time>2026-05-02T13:27:27.136Z</time></trkpt><trkpt lat="46.133106" lon="13.4209269"><ele>422.0</ele><time>2026-05-02T13:27:28.136Z</time></trkpt><trkpt lat="46.1330932" lon="13.4207934"><ele>416.0</ele><time>2026-05-02T13:27:29.135Z</time></trkpt><trkpt lat="46.1330728" lon="13.4206963"><ele>410.0</ele><time>2026-05-02T13:27:30.139Z</time></trkpt><trkpt lat="46.1329732" lon="13.4205897"><ele>409.99999999999994</ele><time>2026-05-02T13:27:32.129Z</time></trkpt><trkpt lat="46.1329106" lon="13.4205496"><ele>410.0</ele><time>2026-05-02T13:27:33.136Z</time></trkpt><trkpt lat="46.132835" lon="13.42056"><ele>410.0</ele><time>2026-05-02T13:27:34.14Z</time></trkpt><trkpt lat="46.132746" lon="13.4206006"><ele>410.0</ele><time>2026-05-02T13:27:35.134Z</time></trkpt><trkpt lat="46.1326621" lon="13.4206505"><ele>409.99999999999994</ele><time>2026-05-02T13:27:36.135Z</time></trkpt><trkpt lat="46.1325952" lon="13.4206699"><ele>410.0</ele><time>2026-05-02T13:27:37.144Z</time></trkpt><trkpt lat="46.1324965" lon="13.4205849"><ele>410.8</ele><time>2026-05-02T13:27:39.137Z</time></trkpt><trkpt lat="46.1324455" lon="13.4204562"><ele>411.6</ele><time>2026-05-02T13:27:40.13Z</time></trkpt><trkpt lat="46.1324077" lon="13.4203226"><ele>412.4</ele><time>2026-05-02T13:27:41.128Z</time></trkpt><trkpt lat="46.1323806" lon="13.4201919"><ele>413.2</ele><time>2026-05-02T13:27:42.14Z</time></trkpt><trkpt lat="46.1323666" lon="13.4200573"><ele>414.0</ele><time>2026-05-02T13:27:43.137Z</time></trkpt><trkpt lat="46.1323633" lon="13.4199087"><ele>404.4</ele><time>2026-05-02T13:27:44.139Z</time></trkpt><trkpt lat="46.132357" lon="13.4197608"><ele>394.79999999999995</ele><time>2026-05-02T13:27:45.137Z</time></trkpt><trkpt lat="46.1323555" lon="13.4196081"><ele>385.20000000000005</ele><time>2026-05-02T13:27:46.133Z</time></trkpt><trkpt lat="46.1323653" lon="13.4194501"><ele>375.6</ele><time>2026-05-02T13:27:47.141Z</time></trkpt><trkpt lat="46.132383" lon="13.419294"><ele>366.0</ele><time>2026-05-02T13:27:48.135Z</time></trkpt><trkpt lat="46.1323878" lon="13.4191421"><ele>363.75</ele><time>2026-05-02T13:27:49.128Z</time></trkpt><trkpt lat="46.1323814" lon="13.4189766"><ele>361.5</ele><time>2026-05-02T13:27:50.122Z</time></trkpt><trkpt lat="46.1323604" lon="13.4188064"><ele>359.25</ele><time>2026-05-02T13:27:51.136Z</time></trkpt><trkpt lat="46.1323325" lon="13.4186398"><ele>357.0</ele><time>2026-05-02T13:27:52.138Z</time></trkpt><trkpt lat="46.1322984" lon="13.4184724"><ele>356.5</ele><time>2026-05-02T13:27:53.135Z</time></trkpt><trkpt lat="46.1322616" lon="13.4183054"><ele>356.0</ele><time>2026-05-02T13:27:54.136Z</time></trkpt><trkpt lat="46.1322322" lon="13.4181523"><ele>355.5</ele><time>2026-05-02T13:27:55.126Z</time></trkpt><trkpt lat="46.132207" lon="13.4179897"><ele>355.0</ele><time>2026-05-02T13:27:56.133Z</time></trkpt><trkpt lat="46.1321788" lon="13.4178435"><ele>357.2</ele><time>2026-05-02T13:27:57.137Z</time></trkpt><trkpt lat="46.1321462" lon="13.4176887"><ele>359.4</ele><time>2026-05-02T13:27:58.146Z</time></trkpt><trkpt lat="46.1321182" lon="13.4175393"><ele>361.6</ele><time>2026-05-02T13:27:59.133Z</time></trkpt><trkpt lat="46.1320891" lon="13.417399"><ele>363.8</ele><time>2026-05-02T13:28:00.139Z</time></trkpt><trkpt lat="46.1320592" lon="13.4172809"><ele>366.0</ele><time>2026-05-02T13:28:01.131Z</time></trkpt><trkpt lat="46.13203" lon="13.4171855"><ele>366.0</ele><time>2026-05-02T13:28:02.135Z</time></trkpt><trkpt lat="46.1319271" lon="13.4171258"><ele>366.0</ele><time>2026-05-02T13:28:04.123Z</time></trkpt><trkpt lat="46.1318412" lon="13.4171468"><ele>366.0</ele><time>2026-05-02T13:28:05.132Z</time></trkpt><trkpt lat="46.1317288" lon="13.4171893"><ele>366.0</ele><time>2026-05-02T13:28:06.14Z</time></trkpt><trkpt lat="46.131603" lon="13.4172427"><ele>366.0</ele><time>2026-05-02T13:28:07.136Z</time></trkpt><trkpt lat="46.1314905" lon="13.4173034"><ele>362.0</ele><time>2026-05-02T13:28:08.134Z</time></trkpt><trkpt lat="46.1313706" lon="13.4173545"><ele>358.0</ele><time>2026-05-02T13:28:09.129Z</time></trkpt><trkpt lat="46.1312579" lon="13.4174146"><ele>354.0</ele><time>2026-05-02T13:28:10.124Z</time></trkpt><trkpt lat="46.1311448" lon="13.4174896"><ele>350.0</ele><time>2026-05-02T13:28:11.127Z</time></trkpt><trkpt lat="46.1310383" lon="13.417572"><ele>350.0</ele><time>2026-05-02T13:28:12.126Z</time></trkpt><trkpt lat="46.1309455" lon="13.4176543"><ele>350.0</ele><time>2026-05-02T13:28:13.131Z</time></trkpt><trkpt lat="46.1308495" lon="13.4177313"><ele>350.0</ele><time>2026-05-02T13:28:14.136Z</time></trkpt><trkpt lat="46.1307622" lon="13.417797"><ele>350.0</ele><time>2026-05-02T13:28:15.149Z</time></trkpt><trkpt lat="46.130686" lon="13.4178412"><ele>350.0</ele><time>2026-05-02T13:28:16.13Z</time></trkpt><trkpt lat="46.1305905" lon="13.4178551"><ele>343.6</ele><time>2026-05-02T13:28:18.132Z</time></trkpt><trkpt lat="46.1305584" lon="13.4176826"><ele>337.2</ele><time>2026-05-02T13:28:20.137Z</time></trkpt><trkpt lat="46.1305684" lon="13.4175762"><ele>330.8</ele><time>2026-05-02T13:28:21.132Z</time></trkpt><trkpt lat="46.1305683" lon="13.4174612"><ele>324.4</ele><time>2026-05-02T13:28:22.128Z</time></trkpt><trkpt lat="46.1305364" lon="13.4173449"><ele>318.0</ele><time>2026-05-02T13:28:23.144Z</time></trkpt><trkpt lat="46.130471" lon="13.4172425"><ele>318.0</ele><time>2026-05-02T13:28:24.129Z</time></trkpt><trkpt lat="46.1303994" lon="13.4171551"><ele>318.0</ele><time>2026-05-02T13:28:25.134Z</time></trkpt><trkpt lat="46.1303294" lon="13.4170767"><ele>318.0</ele><time>2026-05-02T13:28:26.149Z</time></trkpt><trkpt lat="46.1302686" lon="13.4170376"><ele>318.0</ele><time>2026-05-02T13:28:27.131Z</time></trkpt><trkpt lat="46.1302039" lon="13.4170379"><ele>318.0</ele><time>2026-05-02T13:28:28.132Z</time></trkpt><trkpt lat="46.13013" lon="13.4170532"><ele>318.0</ele><time>2026-05-02T13:28:29.14Z</time></trkpt><trkpt lat="46.1300638" lon="13.4170961"><ele>318.0</ele><time>2026-05-02T13:28:30.131Z</time></trkpt><trkpt lat="46.129967" lon="13.4171562"><ele>318.0</ele><time>2026-05-02T13:28:32.131Z</time></trkpt><trkpt lat="46.1298864" lon="13.4171102"><ele>318.0</ele><time>2026-05-02T13:28:34.13Z</time></trkpt><trkpt lat="46.1298276" lon="13.4169353"><ele>318.0</ele><time>2026-05-02T13:28:36.147Z</time></trkpt><trkpt lat="46.1298086" lon="13.4168162"><ele>318.0</ele><time>2026-05-02T13:28:37.131Z</time></trkpt><trkpt lat="46.1298015" lon="13.4167017"><ele>314.5</ele><time>2026-05-02T13:28:38.129Z</time></trkpt><trkpt lat="46.1297998" lon="13.4165926"><ele>311.0</ele><time>2026-05-02T13:28:39.142Z</time></trkpt><trkpt lat="46.1298157" lon="13.4164818"><ele>307.5</ele><time>2026-05-02T13:28:40.138Z</time></trkpt><trkpt lat="46.1298301" lon="13.41636"><ele>304.0</ele><time>2026-05-02T13:28:41.132Z</time></trkpt><trkpt lat="46.1298399" lon="13.4162407"><ele>300.5</ele><time>2026-05-02T13:28:42.136Z</time></trkpt><trkpt lat="46.1298371" lon="13.4161139"><ele>297.0</ele><time>2026-05-02T13:28:43.13Z</time></trkpt><trkpt lat="46.1298218" lon="13.4159898"><ele>297.0</ele><time>2026-05-02T13:28:44.13Z</time></trkpt><trkpt lat="46.1297946" lon="13.4158632"><ele>297.0</ele><time>2026-05-02T13:28:45.13Z</time></trkpt><trkpt lat="46.1297662" lon="13.4157414"><ele>297.0</ele><time>2026-05-02T13:28:46.127Z</time></trkpt><trkpt lat="46.1297301" lon="13.4156132"><ele>297.0</ele><time>2026-05-02T13:28:47.132Z</time></trkpt><trkpt lat="46.1296814" lon="13.4154956"><ele>297.0</ele><time>2026-05-02T13:28:48.132Z</time></trkpt><trkpt lat="46.1296194" lon="13.4153965"><ele>300.6666666666667</ele><time>2026-05-02T13:28:49.125Z</time></trkpt><trkpt lat="46.1295571" lon="13.4153298"><ele>304.3333333333333</ele><time>2026-05-02T13:28:50.125Z</time></trkpt><trkpt lat="46.129485" lon="13.415292"><ele>308.0</ele><time>2026-05-02T13:28:51.132Z</time></trkpt><trkpt lat="46.1294097" lon="13.4152887"><ele>311.66666666666663</ele><time>2026-05-02T13:28:52.134Z</time></trkpt><trkpt lat="46.1293299" lon="13.4153308"><ele>315.3333333333333</ele><time>2026-05-02T13:28:53.138Z</time></trkpt><trkpt lat="46.1292441" lon="13.4153771"><ele>319.0</ele><time>2026-05-02T13:28:54.126Z</time></trkpt><trkpt lat="46.1291507" lon="13.4154229"><ele>320.0</ele><time>2026-05-02T13:28:55.126Z</time></trkpt><trkpt lat="46.1290517" lon="13.415462"><ele>321.0</ele><time>2026-05-02T13:28:56.131Z</time></trkpt><trkpt lat="46.1289443" lon="13.415496"><ele>322.0</ele><time>2026-05-02T13:28:57.14Z</time></trkpt><trkpt lat="46.1288339" lon="13.4155194"><ele>323.0</ele><time>2026-05-02T13:28:58.138Z</time></trkpt><trkpt lat="46.1287262" lon="13.4155327"><ele>324.0</ele><time>2026-05-02T13:28:59.13Z</time></trkpt><trkpt lat="46.1286284" lon="13.4155645"><ele>318.2</ele><time>2026-05-02T13:29:00.13Z</time></trkpt><trkpt lat="46.1285451" lon="13.4156183"><ele>312.4</ele><time>2026-05-02T13:29:01.142Z</time></trkpt><trkpt lat="46.1284602" lon="13.4156882"><ele>306.6</ele><time>2026-05-02T13:29:02.135Z</time></trkpt><trkpt lat="46.1283757" lon="13.4157638"><ele>300.8</ele><time>2026-05-02T13:29:03.132Z</time></trkpt><trkpt lat="46.1282875" lon="13.4158301"><ele>295.0</ele><time>2026-05-02T13:29:04.137Z</time></trkpt><trkpt lat="46.1281945" lon="13.4158866"><ele>294.8</ele><time>2026-05-02T13:29:05.139Z</time></trkpt><trkpt lat="46.1280963" lon="13.4159514"><ele>294.6</ele><time>2026-05-02T13:29:06.137Z</time></trkpt><trkpt lat="46.1280012" lon="13.4160278"><ele>294.4</ele><time>2026-05-02T13:29:07.135Z</time></trkpt><trkpt lat="46.1279125" lon="13.4161043"><ele>294.2</ele><time>2026-05-02T13:29:08.132Z</time></trkpt><trkpt lat="46.1278166" lon="13.4161758"><ele>294.0</ele><time>2026-05-02T13:29:09.141Z</time></trkpt><trkpt lat="46.1277125" lon="13.4162371"><ele>294.0</ele><time>2026-05-02T13:29:10.131Z</time></trkpt><trkpt lat="46.1276167" lon="13.4162969"><ele>294.0</ele><time>2026-05-02T13:29:11.14Z</time></trkpt><trkpt lat="46.1275229" lon="13.4163485"><ele>294.0</ele><time>2026-05-02T13:29:12.139Z</time></trkpt><trkpt lat="46.1274239" lon="13.4163781"><ele>294.0</ele><time>2026-05-02T13:29:13.132Z</time></trkpt><trkpt lat="46.1273237" lon="13.4163929"><ele>294.0</ele><time>2026-05-02T13:29:14.132Z</time></trkpt><trkpt lat="46.1272374" lon="13.4163876"><ele>289.0</ele><time>2026-05-02T13:29:15.138Z</time></trkpt><trkpt lat="46.1271714" lon="13.4163441"><ele>284.0</ele><time>2026-05-02T13:29:16.139Z</time></trkpt><trkpt lat="46.1271236" lon="13.416275"><ele>279.0</ele><time>2026-05-02T13:29:17.132Z</time></trkpt><trkpt lat="46.1270745" lon="13.4161797"><ele>274.0</ele><time>2026-05-02T13:29:18.131Z</time></trkpt><trkpt lat="46.1270111" lon="13.4160858"><ele>269.0</ele><time>2026-05-02T13:29:19.141Z</time></trkpt><trkpt lat="46.1269333" lon="13.4159882"><ele>264.0</ele><time>2026-05-02T13:29:20.155Z</time></trkpt><trkpt lat="46.1268379" lon="13.4159192"><ele>264.0</ele><time>2026-05-02T13:29:21.138Z</time></trkpt><trkpt lat="46.1267406" lon="13.4158544"><ele>264.0</ele><time>2026-05-02T13:29:22.133Z</time></trkpt><trkpt lat="46.126658" lon="13.4157834"><ele>264.0</ele><time>2026-05-02T13:29:23.14Z</time></trkpt><trkpt lat="46.1265787" lon="13.4157282"><ele>264.0</ele><time>2026-05-02T13:29:24.139Z</time></trkpt><trkpt lat="46.126506" lon="13.4157104"><ele>264.0</ele><time>2026-05-02T13:29:25.145Z</time></trkpt><trkpt lat="46.1264373" lon="13.4157156"><ele>264.0</ele><time>2026-05-02T13:29:26.131Z</time></trkpt><trkpt lat="46.126359" lon="13.4157499"><ele>259.5</ele><time>2026-05-02T13:29:27.137Z</time></trkpt><trkpt lat="46.1262678" lon="13.4157932"><ele>255.0</ele><time>2026-05-02T13:29:28.127Z</time></trkpt><trkpt lat="46.1261751" lon="13.4158238"><ele>250.5</ele><time>2026-05-02T13:29:29.142Z</time></trkpt><trkpt lat="46.126096" lon="13.4158435"><ele>246.0</ele><time>2026-05-02T13:29:30.134Z</time></trkpt><trkpt lat="46.12603" lon="13.4158313"><ele>241.5</ele><time>2026-05-02T13:29:31.139Z</time></trkpt><trkpt lat="46.1259836" lon="13.4157107"><ele>237.0</ele><time>2026-05-02T13:29:33.137Z</time></trkpt><trkpt lat="46.1259945" lon="13.4155323"><ele>235.85714285714283</ele><time>2026-05-02T13:29:35.136Z</time></trkpt><trkpt lat="46.1259997" lon="13.4154193"><ele>234.71428571428572</ele><time>2026-05-02T13:29:36.143Z</time></trkpt><trkpt lat="46.1259894" lon="13.415326"><ele>233.57142857142856</ele><time>2026-05-02T13:29:37.137Z</time></trkpt><trkpt lat="46.125954" lon="13.4152499"><ele>232.42857142857142</ele><time>2026-05-02T13:29:38.137Z</time></trkpt><trkpt lat="46.1259058" lon="13.4151759"><ele>231.28571428571428</ele><time>2026-05-02T13:29:39.133Z</time></trkpt><trkpt lat="46.1258463" lon="13.4150958"><ele>230.14285714285714</ele><time>2026-05-02T13:29:40.128Z</time></trkpt><trkpt lat="46.1257821" lon="13.4150304"><ele>229.0</ele><time>2026-05-02T13:29:41.141Z</time></trkpt><trkpt lat="46.1257156" lon="13.4149738"><ele>228.99999999999997</ele><time>2026-05-02T13:29:42.133Z</time></trkpt><trkpt lat="46.125637" lon="13.4149308"><ele>229.0</ele><time>2026-05-02T13:29:43.135Z</time></trkpt><trkpt lat="46.1255538" lon="13.4148896"><ele>229.0</ele><time>2026-05-02T13:29:44.134Z</time></trkpt><trkpt lat="46.1254756" lon="13.4148458"><ele>229.0</ele><time>2026-05-02T13:29:45.14Z</time></trkpt><trkpt lat="46.1253949" lon="13.4148044"><ele>228.99999999999997</ele><time>2026-05-02T13:29:46.132Z</time></trkpt><trkpt lat="46.1253147" lon="13.4147749"><ele>229.0</ele><time>2026-05-02T13:29:47.138Z</time></trkpt><trkpt lat="46.1252338" lon="13.414764"><ele>228.99999999999997</ele><time>2026-05-02T13:29:48.129Z</time></trkpt><trkpt lat="46.1251526" lon="13.414764"><ele>229.0</ele><time>2026-05-02T13:29:49.14Z</time></trkpt><trkpt lat="46.1250741" lon="13.4147816"><ele>229.0</ele><time>2026-05-02T13:29:50.148Z</time></trkpt><trkpt lat="46.124989" lon="13.4148106"><ele>229.0</ele><time>2026-05-02T13:29:51.136Z</time></trkpt><trkpt lat="46.1249031" lon="13.4148175"><ele>228.99999999999997</ele><time>2026-05-02T13:29:52.136Z</time></trkpt><trkpt lat="46.1248222" lon="13.414793"><ele>229.0</ele><time>2026-05-02T13:29:53.131Z</time></trkpt><trkpt lat="46.1247364" lon="13.4147329"><ele>229.0</ele><time>2026-05-02T13:29:54.13Z</time></trkpt><trkpt lat="46.1246189" lon="13.4146423"><ele>229.0</ele><time>2026-05-02T13:29:55.13Z</time></trkpt><trkpt lat="46.1244943" lon="13.4145205"><ele>229.0</ele><time>2026-05-02T13:29:56.132Z</time></trkpt><trkpt lat="46.1243848" lon="13.4144039"><ele>229.0</ele><time>2026-05-02T13:29:57.143Z</time></trkpt><trkpt lat="46.1242987" lon="13.4143051"><ele>229.0</ele><time>2026-05-02T13:29:58.135Z</time></trkpt><trkpt lat="46.1242312" lon="13.4142102"><ele>228.99999999999997</ele><time>2026-05-02T13:29:59.139Z</time></trkpt><trkpt lat="46.1241601" lon="13.4141055"><ele>228.99999999999997</ele><time>2026-05-02T13:30:00.134Z</time></trkpt><trkpt lat="46.1240909" lon="13.4140002"><ele>229.0</ele><time>2026-05-02T13:30:01.146Z</time></trkpt><trkpt lat="46.124018" lon="13.4139005"><ele>229.0</ele><time>2026-05-02T13:30:02.141Z</time></trkpt><trkpt lat="46.1239459" lon="13.4138144"><ele>226.16666666666666</ele><time>2026-05-02T13:30:03.143Z</time></trkpt><trkpt lat="46.1238716" lon="13.4137333"><ele>223.33333333333331</ele><time>2026-05-02T13:30:04.143Z</time></trkpt><trkpt lat="46.1237996" lon="13.4136602"><ele>220.5</ele><time>2026-05-02T13:30:05.145Z</time></trkpt><trkpt lat="46.1237229" lon="13.4136211"><ele>217.66666666666669</ele><time>2026-05-02T13:30:06.139Z</time></trkpt><trkpt lat="46.1236337" lon="13.4136028"><ele>214.83333333333334</ele><time>2026-05-02T13:30:07.144Z</time></trkpt><trkpt lat="46.123537" lon="13.4136035"><ele>212.0</ele><time>2026-05-02T13:30:08.143Z</time></trkpt><trkpt lat="46.123426" lon="13.4136246"><ele>212.0</ele><time>2026-05-02T13:30:09.138Z</time></trkpt><trkpt lat="46.1233026" lon="13.4136756"><ele>212.0</ele><time>2026-05-02T13:30:10.134Z</time></trkpt><trkpt lat="46.1231835" lon="13.4137298"><ele>212.0</ele><time>2026-05-02T13:30:11.132Z</time></trkpt><trkpt lat="46.1230669" lon="13.4137749"><ele>212.0</ele><time>2026-05-02T13:30:12.148Z</time></trkpt><trkpt lat="46.1229565" lon="13.4138061"><ele>209.00000000000003</ele><time>2026-05-02T13:30:13.156Z</time></trkpt><trkpt lat="46.1228544" lon="13.4138201"><ele>206.0</ele><time>2026-05-02T13:30:14.149Z</time></trkpt><trkpt lat="46.1227786" lon="13.4138179"><ele>203.0</ele><time>2026-05-02T13:30:15.154Z</time></trkpt><trkpt lat="46.1227066" lon="13.4137634"><ele>200.0</ele><time>2026-05-02T13:30:17.153Z</time></trkpt><trkpt lat="46.122738" lon="13.413651"><ele>197.00000000000003</ele><time>2026-05-02T13:30:19.148Z</time></trkpt><trkpt lat="46.1227922" lon="13.4135942"><ele>194.0</ele><time>2026-05-02T13:30:20.138Z</time></trkpt><trkpt lat="46.1228464" lon="13.4135316"><ele>194.00000000000003</ele><time>2026-05-02T13:30:21.148Z</time></trkpt><trkpt lat="46.1229092" lon="13.4134437"><ele>194.0</ele><time>2026-05-02T13:30:22.143Z</time></trkpt><trkpt lat="46.1229692" lon="13.4133465"><ele>194.0</ele><time>2026-05-02T13:30:23.145Z</time></trkpt><trkpt lat="46.123028" lon="13.4132669"><ele>194.0</ele><time>2026-05-02T13:30:24.142Z</time></trkpt><trkpt lat="46.1230977" lon="13.4132029"><ele>194.00000000000003</ele><time>2026-05-02T13:30:25.153Z</time></trkpt><trkpt lat="46.1231717" lon="13.41315"><ele>194.0</ele><time>2026-05-02T13:30:26.144Z</time></trkpt><trkpt lat="46.1232542" lon="13.4130994"><ele>195.00000000000003</ele><time>2026-05-02T13:30:27.139Z</time></trkpt><trkpt lat="46.123333" lon="13.413051"><ele>196.0</ele><time>2026-05-02T13:30:28.143Z</time></trkpt><trkpt lat="46.1234014" lon="13.4129934"><ele>197.0</ele><time>2026-05-02T13:30:29.136Z</time></trkpt><trkpt lat="46.1234592" lon="13.4129231"><ele>198.0</ele><time>2026-05-02T13:30:30.137Z</time></trkpt><trkpt lat="46.123501" lon="13.4128492"><ele>199.00000000000003</ele><time>2026-05-02T13:30:31.138Z</time></trkpt><trkpt lat="46.1235375" lon="13.4127053"><ele>200.0</ele><time>2026-05-02T13:30:33.14Z</time></trkpt><trkpt lat="46.123495" lon="13.4125393"><ele>200.00000000000003</ele><time>2026-05-02T13:30:35.132Z</time></trkpt><trkpt lat="46.1234427" lon="13.4124164"><ele>200.0</ele><time>2026-05-02T13:30:36.133Z</time></trkpt><trkpt lat="46.1233949" lon="13.4122987"><ele>200.0</ele><time>2026-05-02T13:30:37.126Z</time></trkpt><trkpt lat="46.1233542" lon="13.4122185"><ele>200.0</ele><time>2026-05-02T13:30:38.154Z</time></trkpt><trkpt lat="46.1233085" lon="13.4121134"><ele>200.00000000000003</ele><time>2026-05-02T13:30:40.14Z</time></trkpt><trkpt lat="46.1232536" lon="13.4120297"><ele>200.0</ele><time>2026-05-02T13:30:43.149Z</time></trkpt><trkpt lat="46.1232037" lon="13.4119614"><ele>195.0</ele><time>2026-05-02T13:30:46.137Z</time></trkpt><trkpt lat="46.1231231" lon="13.4118463"><ele>190.0</ele><time>2026-05-02T13:30:49.156Z</time></trkpt><trkpt lat="46.1230327" lon="13.4117588"><ele>185.0</ele><time>2026-05-02T13:30:51.136Z</time></trkpt><trkpt lat="46.1229359" lon="13.4117276"><ele>180.0</ele><time>2026-05-02T13:30:53.147Z</time></trkpt><trkpt lat="46.1228652" lon="13.4117165"><ele>175.0</ele><time>2026-05-02T13:30:56.144Z</time></trkpt><trkpt lat="46.1227739" lon="13.4117039"><ele>175.0</ele><time>2026-05-02T13:31:00.139Z</time></trkpt><trkpt lat="46.1227057" lon="13.411671"><ele>175.0</ele><time>2026-05-02T13:31:02.147Z</time></trkpt><trkpt lat="46.1226222" lon="13.4116336"><ele>175.0</ele><time>2026-05-02T13:31:04.142Z</time></trkpt><trkpt lat="46.122556" lon="13.4115876"><ele>175.0</ele><time>2026-05-02T13:31:06.134Z</time></trkpt><trkpt lat="46.1224686" lon="13.4115368"><ele>175.0</ele><time>2026-05-02T13:31:09.146Z</time></trkpt><trkpt lat="46.1224027" lon="13.4114974"><ele>175.0</ele><time>2026-05-02T13:31:11.15Z</time></trkpt><trkpt lat="46.1223396" lon="13.4114456"><ele>172.66666666666669</ele><time>2026-05-02T13:31:13.146Z</time></trkpt><trkpt lat="46.1222889" lon="13.4113898"><ele>170.33333333333334</ele><time>2026-05-02T13:31:15.141Z</time></trkpt><trkpt lat="46.1222297" lon="13.4113264"><ele>168.0</ele><time>2026-05-02T13:31:17.144Z</time></trkpt><trkpt lat="46.1221435" lon="13.4112312"><ele>165.66666666666666</ele><time>2026-05-02T13:31:19.151Z</time></trkpt><trkpt lat="46.12209" lon="13.4111823"><ele>163.33333333333331</ele><time>2026-05-02T13:31:20.138Z</time></trkpt><trkpt lat="46.1219958" lon="13.4110864"><ele>161.0</ele><time>2026-05-02T13:31:22.146Z</time></trkpt><trkpt lat="46.1219139" lon="13.4109924"><ele>161.0</ele><time>2026-05-02T13:31:24.145Z</time></trkpt><trkpt lat="46.1218426" lon="13.4109161"><ele>161.0</ele><time>2026-05-02T13:31:26.148Z</time></trkpt><trkpt lat="46.1217938" lon="13.4108476"><ele>161.0</ele><time>2026-05-02T13:31:28.151Z</time></trkpt><trkpt lat="46.1217335" lon="13.410792"><ele>161.0</ele><time>2026-05-02T13:31:48.14Z</time></trkpt><trkpt lat="46.1216804" lon="13.4107235"><ele>161.0</ele><time>2026-05-02T13:31:55.135Z</time></trkpt><trkpt lat="46.1216134" lon="13.4106526"><ele>161.0</ele><time>2026-05-02T13:49:10.119Z</time></trkpt><trkpt lat="46.1215429" lon="13.4105987"><ele>161.0</ele><time>2026-05-02T13:49:12.127Z</time></trkpt><trkpt lat="46.1214719" lon="13.4105442"><ele>161.0</ele><time>2026-05-02T13:49:15.134Z</time></trkpt><trkpt lat="46.1214017" lon="13.4104834"><ele>161.0</ele><time>2026-05-02T13:49:18.123Z</time></trkpt><trkpt lat="46.1213134" lon="13.4104283"><ele>161.0</ele><time>2026-05-02T13:49:21.133Z</time></trkpt><trkpt lat="46.1212342" lon="13.4103709"><ele>161.0</ele><time>2026-05-02T13:49:24.132Z</time></trkpt><trkpt lat="46.1211726" lon="13.4103301"><ele>161.0</ele><time>2026-05-02T13:49:26.132Z</time></trkpt><trkpt lat="46.1211124" lon="13.4102818"><ele>161.0</ele><time>2026-05-02T13:49:28.133Z</time></trkpt><trkpt lat="46.1210498" lon="13.4102387"><ele>161.0</ele><time>2026-05-02T13:49:30.136Z</time></trkpt><trkpt lat="46.1209691" lon="13.4101745"><ele>161.0</ele><time>2026-05-02T13:49:32.138Z</time></trkpt><trkpt lat="46.1208573" lon="13.4100745"><ele>161.0</ele><time>2026-05-02T13:49:34.133Z</time></trkpt><trkpt lat="46.1207807" lon="13.4099986"><ele>161.0</ele><time>2026-05-02T13:49:35.14Z</time></trkpt><trkpt lat="46.120713" lon="13.409917"><ele>160.5</ele><time>2026-05-02T13:49:36.143Z</time></trkpt><trkpt lat="46.1206437" lon="13.4098214"><ele>160.0</ele><time>2026-05-02T13:49:37.138Z</time></trkpt><trkpt lat="46.1205804" lon="13.4097262"><ele>159.5</ele><time>2026-05-02T13:49:38.147Z</time></trkpt><trkpt lat="46.1205312" lon="13.4096281"><ele>159.0</ele><time>2026-05-02T13:49:39.136Z</time></trkpt><trkpt lat="46.1204916" lon="13.40953"><ele>158.5</ele><time>2026-05-02T13:49:40.145Z</time></trkpt><trkpt lat="46.1204622" lon="13.4094069"><ele>158.0</ele><time>2026-05-02T13:49:41.15Z</time></trkpt><trkpt lat="46.1204325" lon="13.4092844"><ele>158.0</ele><time>2026-05-02T13:49:42.146Z</time></trkpt><trkpt lat="46.1203939" lon="13.4091379"><ele>158.0</ele><time>2026-05-02T13:49:43.154Z</time></trkpt><trkpt lat="46.12035" lon="13.4089783"><ele>158.0</ele><time>2026-05-02T13:49:44.137Z</time></trkpt><trkpt lat="46.1202878" lon="13.4088354"><ele>158.0</ele><time>2026-05-02T13:49:45.148Z</time></trkpt><trkpt lat="46.1201897" lon="13.4087328"><ele>156.4</ele><time>2026-05-02T13:49:46.154Z</time></trkpt><trkpt lat="46.1200789" lon="13.4086617"><ele>154.8</ele><time>2026-05-02T13:49:47.143Z</time></trkpt><trkpt lat="46.1199759" lon="13.4086228"><ele>153.2</ele><time>2026-05-02T13:49:48.139Z</time></trkpt><trkpt lat="46.1198822" lon="13.4086201"><ele>151.6</ele><time>2026-05-02T13:49:49.138Z</time></trkpt><trkpt lat="46.1197861" lon="13.4086727"><ele>150.0</ele><time>2026-05-02T13:49:50.145Z</time></trkpt><trkpt lat="46.1196817" lon="13.4087569"><ele>150.2</ele><time>2026-05-02T13:49:51.141Z</time></trkpt><trkpt lat="46.1195777" lon="13.408847"><ele>150.4</ele><time>2026-05-02T13:49:52.137Z</time></trkpt><trkpt lat="46.1194804" lon="13.408929"><ele>150.6</ele><time>2026-05-02T13:49:53.144Z</time></trkpt><trkpt lat="46.1193854" lon="13.4090079"><ele>150.8</ele><time>2026-05-02T13:49:54.14Z</time></trkpt><trkpt lat="46.1192974" lon="13.4090826"><ele>151.0</ele><time>2026-05-02T13:49:55.134Z</time></trkpt><trkpt lat="46.1192189" lon="13.4091457"><ele>151.0</ele><time>2026-05-02T13:49:56.136Z</time></trkpt><trkpt lat="46.1191562" lon="13.4092001"><ele>151.0</ele><time>2026-05-02T13:49:57.139Z</time></trkpt><trkpt lat="46.1190899" lon="13.4092569"><ele>151.0</ele><time>2026-05-02T13:50:00.141Z</time></trkpt><trkpt lat="46.1190819" lon="13.4094077"><ele>151.0</ele><time>2026-05-02T13:50:04.14Z</time></trkpt><trkpt lat="46.1191205" lon="13.4095035"><ele>151.0</ele><time>2026-05-02T13:50:05.137Z</time></trkpt><trkpt lat="46.1191504" lon="13.40963"><ele>151.0</ele><time>2026-05-02T13:50:06.13Z</time></trkpt><trkpt lat="46.119163" lon="13.4097918"><ele>152.25</ele><time>2026-05-02T13:50:07.139Z</time></trkpt><trkpt lat="46.1191573" lon="13.4099626"><ele>153.5</ele><time>2026-05-02T13:50:08.136Z</time></trkpt><trkpt lat="46.1191202" lon="13.4101527"><ele>154.75</ele><time>2026-05-02T13:50:09.14Z</time></trkpt><trkpt lat="46.1190902" lon="13.4103681"><ele>156.0</ele><time>2026-05-02T13:50:10.138Z</time></trkpt><trkpt lat="46.1190643" lon="13.4106059"><ele>154.5</ele><time>2026-05-02T13:50:11.148Z</time></trkpt><trkpt lat="46.1190536" lon="13.4108225"><ele>153.0</ele><time>2026-05-02T13:50:12.146Z</time></trkpt><trkpt lat="46.1190592" lon="13.4110255"><ele>151.5</ele><time>2026-05-02T13:50:13.147Z</time></trkpt><trkpt lat="46.1190732" lon="13.4112303"><ele>150.0</ele><time>2026-05-02T13:50:14.138Z</time></trkpt><trkpt lat="46.1190982" lon="13.4114421"><ele>149.66666666666666</ele><time>2026-05-02T13:50:15.145Z</time></trkpt><trkpt lat="46.1191383" lon="13.4116653"><ele>149.33333333333331</ele><time>2026-05-02T13:50:16.14Z</time></trkpt><trkpt lat="46.1191796" lon="13.4118844"><ele>149.0</ele><time>2026-05-02T13:50:17.143Z</time></trkpt><trkpt lat="46.1192187" lon="13.4121034"><ele>149.0</ele><time>2026-05-02T13:50:18.149Z</time></trkpt><trkpt lat="46.119259" lon="13.4123216"><ele>149.0</ele><time>2026-05-02T13:50:19.146Z</time></trkpt><trkpt lat="46.119299" lon="13.4125382"><ele>149.0</ele><time>2026-05-02T13:50:20.143Z</time></trkpt><trkpt lat="46.1193373" lon="13.4127542"><ele>149.0</ele><time>2026-05-02T13:50:21.145Z</time></trkpt><trkpt lat="46.1193681" lon="13.4129709"><ele>149.0</ele><time>2026-05-02T13:50:22.143Z</time></trkpt><trkpt lat="46.1193856" lon="13.4131912"><ele>149.0</ele><time>2026-05-02T13:50:23.152Z</time></trkpt><trkpt lat="46.1193933" lon="13.4134132"><ele>148.0</ele><time>2026-05-02T13:50:24.148Z</time></trkpt><trkpt lat="46.1194016" lon="13.4136368"><ele>147.0</ele><time>2026-05-02T13:50:25.147Z</time></trkpt><trkpt lat="46.1194147" lon="13.4138524"><ele>146.0</ele><time>2026-05-02T13:50:26.135Z</time></trkpt><trkpt lat="46.1194357" lon="13.4140712"><ele>146.0</ele><time>2026-05-02T13:50:27.146Z</time></trkpt><trkpt lat="46.1194609" lon="13.4142871"><ele>146.0</ele><time>2026-05-02T13:50:28.132Z</time></trkpt><trkpt lat="46.119488" lon="13.414499"><ele>146.0</ele><time>2026-05-02T13:50:29.141Z</time></trkpt><trkpt lat="46.1195149" lon="13.4147132"><ele>146.0</ele><time>2026-05-02T13:50:30.14Z</time></trkpt><trkpt lat="46.1195392" lon="13.4149241"><ele>146.0</ele><time>2026-05-02T13:50:31.144Z</time></trkpt><trkpt lat="46.1195611" lon="13.4151342"><ele>146.0</ele><time>2026-05-02T13:50:32.134Z</time></trkpt><trkpt lat="46.1195839" lon="13.4153457"><ele>146.0</ele><time>2026-05-02T13:50:33.152Z</time></trkpt><trkpt lat="46.1196074" lon="13.4155609"><ele>146.33333333333331</ele><time>2026-05-02T13:50:34.131Z</time></trkpt><trkpt lat="46.119638" lon="13.4157715"><ele>146.66666666666666</ele><time>2026-05-02T13:50:35.136Z</time></trkpt><trkpt lat="46.1196778" lon="13.4159765"><ele>147.0</ele><time>2026-05-02T13:50:36.134Z</time></trkpt><trkpt lat="46.1197251" lon="13.4161887"><ele>146.0</ele><time>2026-05-02T13:50:37.143Z</time></trkpt><trkpt lat="46.1197746" lon="13.4163993"><ele>145.0</ele><time>2026-05-02T13:50:38.134Z</time></trkpt><trkpt lat="46.11983" lon="13.4166107"><ele>144.0</ele><time>2026-05-02T13:50:39.146Z</time></trkpt><trkpt lat="46.1198862" lon="13.4168236"><ele>145.66666666666666</ele><time>2026-05-02T13:50:40.146Z</time></trkpt><trkpt lat="46.1199461" lon="13.4170316"><ele>147.33333333333331</ele><time>2026-05-02T13:50:41.14Z</time></trkpt><trkpt lat="46.1200039" lon="13.4172357"><ele>149.0</ele><time>2026-05-02T13:50:42.144Z</time></trkpt><trkpt lat="46.1200516" lon="13.4174384"><ele>149.0</ele><time>2026-05-02T13:50:43.144Z</time></trkpt><trkpt lat="46.1200978" lon="13.4176348"><ele>149.0</ele><time>2026-05-02T13:50:44.134Z</time></trkpt><trkpt lat="46.1201387" lon="13.4178243"><ele>149.0</ele><time>2026-05-02T13:50:45.141Z</time></trkpt><trkpt lat="46.1201805" lon="13.4180031"><ele>149.0</ele><time>2026-05-02T13:50:46.139Z</time></trkpt><trkpt lat="46.1202235" lon="13.4181782"><ele>149.5</ele><time>2026-05-02T13:50:47.149Z</time></trkpt><trkpt lat="46.1202637" lon="13.4183533"><ele>150.0</ele><time>2026-05-02T13:50:48.141Z</time></trkpt><trkpt lat="46.1203032" lon="13.4185289"><ele>150.5</ele><time>2026-05-02T13:50:49.149Z</time></trkpt><trkpt lat="46.1203465" lon="13.4187163"><ele>151.0</ele><time>2026-05-02T13:50:50.137Z</time></trkpt><trkpt lat="46.120391" lon="13.4188997"><ele>152.0</ele><time>2026-05-02T13:50:51.14Z</time></trkpt><trkpt lat="46.1204224" lon="13.4190746"><ele>153.0</ele><time>2026-05-02T13:50:52.14Z</time></trkpt><trkpt lat="46.120443" lon="13.4192367"><ele>154.0</ele><time>2026-05-02T13:50:53.132Z</time></trkpt><trkpt lat="46.1204583" lon="13.4193913"><ele>155.0</ele><time>2026-05-02T13:50:54.14Z</time></trkpt><trkpt lat="46.1204631" lon="13.4195399"><ele>155.0</ele><time>2026-05-02T13:50:55.138Z</time></trkpt><trkpt lat="46.1204512" lon="13.4196797"><ele>155.0</ele><time>2026-05-02T13:50:56.133Z</time></trkpt><trkpt lat="46.1204468" lon="13.4198206"><ele>155.0</ele><time>2026-05-02T13:50:57.135Z</time></trkpt><trkpt lat="46.1204372" lon="13.4199533"><ele>155.0</ele><time>2026-05-02T13:50:58.141Z</time></trkpt><trkpt lat="46.1204133" lon="13.4200921"><ele>155.0</ele><time>2026-05-02T13:50:59.136Z</time></trkpt><trkpt lat="46.1203712" lon="13.4202205"><ele>155.0</ele><time>2026-05-02T13:51:00.137Z</time></trkpt><trkpt lat="46.1203039" lon="13.4203569"><ele>155.0</ele><time>2026-05-02T13:51:01.13Z</time></trkpt><trkpt lat="46.1202266" lon="13.4205"><ele>155.0</ele><time>2026-05-02T13:51:02.131Z</time></trkpt><trkpt lat="46.1201594" lon="13.4206435"><ele>155.0</ele><time>2026-05-02T13:51:03.135Z</time></trkpt><trkpt lat="46.1200995" lon="13.420775"><ele>155.0</ele><time>2026-05-02T13:51:04.139Z</time></trkpt><trkpt lat="46.1200408" lon="13.4209018"><ele>155.0</ele><time>2026-05-02T13:51:05.135Z</time></trkpt><trkpt lat="46.1199912" lon="13.4210169"><ele>155.0</ele><time>2026-05-02T13:51:06.139Z</time></trkpt><trkpt lat="46.1199441" lon="13.4211116"><ele>155.0</ele><time>2026-05-02T13:51:07.136Z</time></trkpt><trkpt lat="46.1199028" lon="13.4211909"><ele>155.0</ele><time>2026-05-02T13:51:08.138Z</time></trkpt><trkpt lat="46.1198571" lon="13.4212728"><ele>155.0</ele><time>2026-05-02T13:51:10.132Z</time></trkpt><trkpt lat="46.1197894" lon="13.4213379"><ele>155.0</ele><time>2026-05-02T13:51:13.137Z</time></trkpt><trkpt lat="46.1197944" lon="13.4214525"><ele>155.0</ele><time>2026-05-02T13:51:16.136Z</time></trkpt><trkpt lat="46.119907" lon="13.4215212"><ele>155.0</ele><time>2026-05-02T13:51:18.138Z</time></trkpt><trkpt lat="46.1199593" lon="13.4215875"><ele>155.0</ele><time>2026-05-02T13:51:19.147Z</time></trkpt><trkpt lat="46.1200192" lon="13.4216726"><ele>155.0</ele><time>2026-05-02T13:51:20.151Z</time></trkpt><trkpt lat="46.1200595" lon="13.421745"><ele>155.0</ele><time>2026-05-02T13:51:21.138Z</time></trkpt><trkpt lat="46.1200744" lon="13.4218483"><ele>155.0</ele><time>2026-05-02T13:51:23.147Z</time></trkpt><trkpt lat="46.1200104" lon="13.4218723"><ele>155.0</ele><time>2026-05-02T13:51:25.154Z</time></trkpt><trkpt lat="46.1199477" lon="13.4217525"><ele>155.0</ele><time>2026-05-02T13:51:27.154Z</time></trkpt><trkpt lat="46.1199113" lon="13.4216784"><ele>155.0</ele><time>2026-05-02T13:51:28.144Z</time></trkpt><trkpt lat="46.1198603" lon="13.4216184"><ele>155.0</ele><time>2026-05-02T13:51:29.152Z</time></trkpt><trkpt lat="46.1198055" lon="13.4215669"><ele>155.0</ele><time>2026-05-02T13:51:30.142Z</time></trkpt><trkpt lat="46.1197079" lon="13.4215565"><ele>154.4</ele><time>2026-05-02T13:51:32.142Z</time></trkpt><trkpt lat="46.1196537" lon="13.4216205"><ele>153.8</ele><time>2026-05-02T13:51:34.139Z</time></trkpt><trkpt lat="46.1195897" lon="13.421738"><ele>153.2</ele><time>2026-05-02T13:51:36.141Z</time></trkpt><trkpt lat="46.1195237" lon="13.4218756"><ele>152.6</ele><time>2026-05-02T13:51:38.151Z</time></trkpt><trkpt lat="46.1194995" lon="13.4220375"><ele>152.0</ele><time>2026-05-02T13:51:40.128Z</time></trkpt><trkpt lat="46.1195356" lon="13.4221182"><ele>151.83333333333331</ele><time>2026-05-02T13:51:42.127Z</time></trkpt><trkpt lat="46.1196291" lon="13.4221772"><ele>151.66666666666666</ele><time>2026-05-02T13:51:44.144Z</time></trkpt><trkpt lat="46.1196914" lon="13.4222135"><ele>151.5</ele><time>2026-05-02T13:51:45.143Z</time></trkpt><trkpt lat="46.119758" lon="13.422268"><ele>151.33333333333334</ele><time>2026-05-02T13:51:46.138Z</time></trkpt><trkpt lat="46.1198201" lon="13.4223312"><ele>151.16666666666669</ele><time>2026-05-02T13:51:47.142Z</time></trkpt><trkpt lat="46.119883" lon="13.4224106"><ele>151.0</ele><time>2026-05-02T13:51:48.142Z</time></trkpt><trkpt lat="46.1199381" lon="13.4225094"><ele>151.66666666666669</ele><time>2026-05-02T13:51:49.152Z</time></trkpt><trkpt lat="46.1199857" lon="13.4226164"><ele>152.33333333333334</ele><time>2026-05-02T13:51:50.143Z</time></trkpt><trkpt lat="46.1200292" lon="13.4227347"><ele>153.0</ele><time>2026-05-02T13:51:51.136Z</time></trkpt><trkpt lat="46.12006" lon="13.4228433"><ele>153.66666666666666</ele><time>2026-05-02T13:51:52.138Z</time></trkpt><trkpt lat="46.1200774" lon="13.422949"><ele>154.33333333333331</ele><time>2026-05-02T13:51:53.14Z</time></trkpt><trkpt lat="46.1200792" lon="13.4230496"><ele>155.0</ele><time>2026-05-02T13:51:54.134Z</time></trkpt><trkpt lat="46.1200636" lon="13.4231413"><ele>155.16666666666666</ele><time>2026-05-02T13:51:55.139Z</time></trkpt><trkpt lat="46.1199948" lon="13.4232785"><ele>155.33333333333331</ele><time>2026-05-02T13:51:57.141Z</time></trkpt><trkpt lat="46.1199428" lon="13.4233326"><ele>155.5</ele><time>2026-05-02T13:51:58.139Z</time></trkpt><trkpt lat="46.1198839" lon="13.4233787"><ele>155.66666666666666</ele><time>2026-05-02T13:51:59.136Z</time></trkpt><trkpt lat="46.1198219" lon="13.4234283"><ele>155.83333333333334</ele><time>2026-05-02T13:52:00.135Z</time></trkpt><trkpt lat="46.1197667" lon="13.4234825"><ele>156.0</ele><time>2026-05-02T13:52:01.144Z</time></trkpt><trkpt lat="46.1197213" lon="13.4235479"><ele>155.6</ele><time>2026-05-02T13:52:02.142Z</time></trkpt><trkpt lat="46.1196677" lon="13.4237132"><ele>155.2</ele><time>2026-05-02T13:52:04.138Z</time></trkpt><trkpt lat="46.1196635" lon="13.4238193"><ele>154.8</ele><time>2026-05-02T13:52:05.142Z</time></trkpt><trkpt lat="46.1196668" lon="13.423954"><ele>154.4</ele><time>2026-05-02T13:52:06.142Z</time></trkpt><trkpt lat="46.1196684" lon="13.4240994"><ele>154.0</ele><time>2026-05-02T13:52:07.169Z</time></trkpt><trkpt lat="46.1196683" lon="13.4242513"><ele>154.0</ele><time>2026-05-02T13:52:08.141Z</time></trkpt><trkpt lat="46.1196688" lon="13.4244078"><ele>154.0</ele><time>2026-05-02T13:52:09.143Z</time></trkpt><trkpt lat="46.1196617" lon="13.4245628"><ele>154.0</ele><time>2026-05-02T13:52:10.136Z</time></trkpt><trkpt lat="46.1196416" lon="13.4247205"><ele>154.0</ele><time>2026-05-02T13:52:11.138Z</time></trkpt><trkpt lat="46.119616" lon="13.4248745"><ele>154.0</ele><time>2026-05-02T13:52:12.137Z</time></trkpt><trkpt lat="46.1195864" lon="13.425028"><ele>154.2</ele><time>2026-05-02T13:52:13.143Z</time></trkpt><trkpt lat="46.1195577" lon="13.4251765"><ele>154.4</ele><time>2026-05-02T13:52:14.133Z</time></trkpt><trkpt lat="46.119536" lon="13.4253092"><ele>154.6</ele><time>2026-05-02T13:52:15.139Z</time></trkpt><trkpt lat="46.1195148" lon="13.4254359"><ele>154.8</ele><time>2026-05-02T13:52:16.152Z</time></trkpt><trkpt lat="46.1194931" lon="13.4255361"><ele>155.0</ele><time>2026-05-02T13:52:17.137Z</time></trkpt><trkpt lat="46.1194129" lon="13.4256641"><ele>155.16666666666666</ele><time>2026-05-02T13:52:19.146Z</time></trkpt><trkpt lat="46.1193434" lon="13.4257147"><ele>155.33333333333331</ele><time>2026-05-02T13:52:20.138Z</time></trkpt><trkpt lat="46.1192805" lon="13.4257582"><ele>155.5</ele><time>2026-05-02T13:52:21.136Z</time></trkpt><trkpt lat="46.1192439" lon="13.4258965"><ele>155.66666666666666</ele><time>2026-05-02T13:52:23.137Z</time></trkpt><trkpt lat="46.1192588" lon="13.4259854"><ele>155.83333333333334</ele><time>2026-05-02T13:52:24.131Z</time></trkpt><trkpt lat="46.1192923" lon="13.4260848"><ele>156.0</ele><time>2026-05-02T13:52:25.137Z</time></trkpt><trkpt lat="46.1193419" lon="13.4261948"><ele>156.0</ele><time>2026-05-02T13:52:26.139Z</time></trkpt><trkpt lat="46.1194025" lon="13.4263121"><ele>156.0</ele><time>2026-05-02T13:52:27.147Z</time></trkpt><trkpt lat="46.1194787" lon="13.4264349"><ele>156.0</ele><time>2026-05-02T13:52:28.132Z</time></trkpt><trkpt lat="46.1195607" lon="13.42657"><ele>156.0</ele><time>2026-05-02T13:52:29.132Z</time></trkpt><trkpt lat="46.1196504" lon="13.4267107"><ele>156.0</ele><time>2026-05-02T13:52:30.134Z</time></trkpt><trkpt lat="46.1197446" lon="13.4268569"><ele>156.0</ele><time>2026-05-02T13:52:31.139Z</time></trkpt><trkpt lat="46.1198373" lon="13.4270023"><ele>156.0</ele><time>2026-05-02T13:52:32.128Z</time></trkpt><trkpt lat="46.1199323" lon="13.427146"><ele>156.0</ele><time>2026-05-02T13:52:33.134Z</time></trkpt><trkpt lat="46.1200244" lon="13.4272897"><ele>156.5</ele><time>2026-05-02T13:52:34.136Z</time></trkpt><trkpt lat="46.1201144" lon="13.4274305"><ele>157.0</ele><time>2026-05-02T13:52:35.139Z</time></trkpt><trkpt lat="46.1202028" lon="13.4275696"><ele>157.5</ele><time>2026-05-02T13:52:36.137Z</time></trkpt><trkpt lat="46.1202911" lon="13.4277117"><ele>158.0</ele><time>2026-05-02T13:52:37.14Z</time></trkpt><trkpt lat="46.1203732" lon="13.4278487"><ele>158.0</ele><time>2026-05-02T13:52:38.142Z</time></trkpt><trkpt lat="46.1204488" lon="13.4279717"><ele>158.0</ele><time>2026-05-02T13:52:39.132Z</time></trkpt><trkpt lat="46.120518" lon="13.4280847"><ele>158.0</ele><time>2026-05-02T13:52:40.137Z</time></trkpt><trkpt lat="46.1205776" lon="13.4281702"><ele>158.0</ele><time>2026-05-02T13:52:41.141Z</time></trkpt><trkpt lat="46.1206804" lon="13.4282509"><ele>158.0</ele><time>2026-05-02T13:52:43.139Z</time></trkpt><trkpt lat="46.1207475" lon="13.4282525"><ele>158.60000000000002</ele><time>2026-05-02T13:52:45.138Z</time></trkpt><trkpt lat="46.1208175" lon="13.4281911"><ele>159.20000000000002</ele><time>2026-05-02T13:52:47.141Z</time></trkpt><trkpt lat="46.1209069" lon="13.4281717"><ele>159.8</ele><time>2026-05-02T13:52:48.138Z</time></trkpt><trkpt lat="46.1210316" lon="13.4281694"><ele>160.4</ele><time>2026-05-02T13:52:49.142Z</time></trkpt><trkpt lat="46.1211589" lon="13.4281742"><ele>161.0</ele><time>2026-05-02T13:52:50.136Z</time></trkpt><trkpt lat="46.1212996" lon="13.4281746"><ele>161.0</ele><time>2026-05-02T13:52:51.125Z</time></trkpt><trkpt lat="46.1214475" lon="13.4281688"><ele>161.0</ele><time>2026-05-02T13:52:52.136Z</time></trkpt><trkpt lat="46.1215934" lon="13.4281657"><ele>161.0</ele><time>2026-05-02T13:52:53.134Z</time></trkpt><trkpt lat="46.1217283" lon="13.4281619"><ele>161.0</ele><time>2026-05-02T13:52:54.135Z</time></trkpt><trkpt lat="46.1218562" lon="13.4281668"><ele>161.0</ele><time>2026-05-02T13:52:55.144Z</time></trkpt><trkpt lat="46.1219784" lon="13.4281747"><ele>161.0</ele><time>2026-05-02T13:52:56.128Z</time></trkpt><trkpt lat="46.1220959" lon="13.4281966"><ele>161.0</ele><time>2026-05-02T13:52:57.137Z</time></trkpt><trkpt lat="46.1222036" lon="13.4282326"><ele>161.0</ele><time>2026-05-02T13:52:58.137Z</time></trkpt><trkpt lat="46.1223103" lon="13.428271"><ele>161.0</ele><time>2026-05-02T13:52:59.135Z</time></trkpt><trkpt lat="46.1224148" lon="13.4283077"><ele>161.0</ele><time>2026-05-02T13:53:00.147Z</time></trkpt><trkpt lat="46.1225043" lon="13.4283506"><ele>161.0</ele><time>2026-05-02T13:53:01.143Z</time></trkpt><trkpt lat="46.12258" lon="13.428435"><ele>161.0</ele><time>2026-05-02T13:53:02.141Z</time></trkpt><trkpt lat="46.1226574" lon="13.428557"><ele>161.0</ele><time>2026-05-02T13:53:03.136Z</time></trkpt><trkpt lat="46.1227424" lon="13.428691"><ele>161.25</ele><time>2026-05-02T13:53:04.13Z</time></trkpt><trkpt lat="46.1228391" lon="13.4288297"><ele>161.5</ele><time>2026-05-02T13:53:05.138Z</time></trkpt><trkpt lat="46.122934" lon="13.4289736"><ele>161.75</ele><time>2026-05-02T13:53:06.135Z</time></trkpt><trkpt lat="46.123028" lon="13.4291191"><ele>162.0</ele><time>2026-05-02T13:53:07.142Z</time></trkpt><trkpt lat="46.1231242" lon="13.4292528"><ele>162.0</ele><time>2026-05-02T13:53:08.134Z</time></trkpt><trkpt lat="46.1232208" lon="13.4293785"><ele>162.0</ele><time>2026-05-02T13:53:09.133Z</time></trkpt><trkpt lat="46.1233259" lon="13.429499"><ele>162.0</ele><time>2026-05-02T13:53:10.139Z</time></trkpt><trkpt lat="46.1234309" lon="13.4296218"><ele>162.0</ele><time>2026-05-02T13:53:11.141Z</time></trkpt><trkpt lat="46.1235264" lon="13.4297588"><ele>163.0</ele><time>2026-05-02T13:53:12.151Z</time></trkpt><trkpt lat="46.1236061" lon="13.4298692"><ele>164.0</ele><time>2026-05-02T13:53:13.148Z</time></trkpt><trkpt lat="46.1236942" lon="13.4299571"><ele>165.0</ele><time>2026-05-02T13:53:14.133Z</time></trkpt><trkpt lat="46.1237996" lon="13.430009"><ele>166.0</ele><time>2026-05-02T13:53:15.137Z</time></trkpt><trkpt lat="46.1239224" lon="13.4300463"><ele>166.0</ele><time>2026-05-02T13:53:16.139Z</time></trkpt><trkpt lat="46.1240387" lon="13.4300515"><ele>166.0</ele><time>2026-05-02T13:53:17.143Z</time></trkpt><trkpt lat="46.1241532" lon="13.430023"><ele>166.0</ele><time>2026-05-02T13:53:18.138Z</time></trkpt><trkpt lat="46.1242642" lon="13.4299663"><ele>166.0</ele><time>2026-05-02T13:53:19.135Z</time></trkpt><trkpt lat="46.1243585" lon="13.4298789"><ele>166.20000000000002</ele><time>2026-05-02T13:53:20.142Z</time></trkpt><trkpt lat="46.1244459" lon="13.4297706"><ele>166.4</ele><time>2026-05-02T13:53:21.131Z</time></trkpt><trkpt lat="46.1245237" lon="13.4296604"><ele>166.6</ele><time>2026-05-02T13:53:22.148Z</time></trkpt><trkpt lat="46.1245938" lon="13.4295738"><ele>166.8</ele><time>2026-05-02T13:53:23.144Z</time></trkpt><trkpt lat="46.1246507" lon="13.4295136"><ele>167.0</ele><time>2026-05-02T13:53:24.139Z</time></trkpt><trkpt lat="46.1247361" lon="13.4294317"><ele>167.0</ele><time>2026-05-02T13:53:26.142Z</time></trkpt><trkpt lat="46.1248346" lon="13.4294055"><ele>167.0</ele><time>2026-05-02T13:53:28.134Z</time></trkpt><trkpt lat="46.1249362" lon="13.4295284"><ele>167.0</ele><time>2026-05-02T13:53:30.138Z</time></trkpt><trkpt lat="46.1249976" lon="13.4296198"><ele>167.0</ele><time>2026-05-02T13:53:31.142Z</time></trkpt><trkpt lat="46.1250619" lon="13.4297069"><ele>167.0</ele><time>2026-05-02T13:53:32.149Z</time></trkpt><trkpt lat="46.1251297" lon="13.4297948"><ele>167.5</ele><time>2026-05-02T13:53:33.134Z</time></trkpt><trkpt lat="46.1251997" lon="13.4298796"><ele>168.0</ele><time>2026-05-02T13:53:34.138Z</time></trkpt><trkpt lat="46.125263" lon="13.4299551"><ele>168.5</ele><time>2026-05-02T13:53:35.147Z</time></trkpt><trkpt lat="46.1253194" lon="13.4300259"><ele>169.0</ele><time>2026-05-02T13:53:36.161Z</time></trkpt><trkpt lat="46.1253706" lon="13.4300867"><ele>169.5</ele><time>2026-05-02T13:53:37.148Z</time></trkpt><trkpt lat="46.1254526" lon="13.4301357"><ele>170.0</ele><time>2026-05-02T13:53:39.148Z</time></trkpt><trkpt lat="46.1255352" lon="13.4300501"><ele>170.0</ele><time>2026-05-02T13:53:41.134Z</time></trkpt><trkpt lat="46.1255855" lon="13.4299546"><ele>170.0</ele><time>2026-05-02T13:53:42.134Z</time></trkpt><trkpt lat="46.125649" lon="13.4298615"><ele>170.0</ele><time>2026-05-02T13:53:43.136Z</time></trkpt><trkpt lat="46.1257259" lon="13.42976"><ele>170.0</ele><time>2026-05-02T13:53:44.136Z</time></trkpt><trkpt lat="46.1258059" lon="13.4296573"><ele>170.0</ele><time>2026-05-02T13:53:45.129Z</time></trkpt><trkpt lat="46.1258869" lon="13.4295572"><ele>170.2</ele><time>2026-05-02T13:53:46.142Z</time></trkpt><trkpt lat="46.1259677" lon="13.4294802"><ele>170.4</ele><time>2026-05-02T13:53:47.143Z</time></trkpt><trkpt lat="46.1260404" lon="13.4294247"><ele>170.60000000000002</ele><time>2026-05-02T13:53:48.139Z</time></trkpt><trkpt lat="46.1261187" lon="13.4293898"><ele>170.8</ele><time>2026-05-02T13:53:49.131Z</time></trkpt><trkpt lat="46.1261865" lon="13.4293847"><ele>171.0</ele><time>2026-05-02T13:53:50.143Z</time></trkpt><trkpt lat="46.1263076" lon="13.4294334"><ele>171.0</ele><time>2026-05-02T13:53:52.129Z</time></trkpt><trkpt lat="46.1263789" lon="13.4295122"><ele>171.0</ele><time>2026-05-02T13:53:53.135Z</time></trkpt><trkpt lat="46.1264499" lon="13.4296234"><ele>171.0</ele><time>2026-05-02T13:53:54.133Z</time></trkpt><trkpt lat="46.1265456" lon="13.4297391"><ele>171.0</ele><time>2026-05-02T13:53:55.134Z</time></trkpt><trkpt lat="46.1266642" lon="13.4298432"><ele>171.5</ele><time>2026-05-02T13:53:56.128Z</time></trkpt><trkpt lat="46.1267815" lon="13.4299405"><ele>172.0</ele><time>2026-05-02T13:53:57.134Z</time></trkpt><trkpt lat="46.1269108" lon="13.4300354"><ele>172.5</ele><time>2026-05-02T13:53:58.132Z</time></trkpt><trkpt lat="46.1270442" lon="13.430122"><ele>173.0</ele><time>2026-05-02T13:53:59.136Z</time></trkpt><trkpt lat="46.1271736" lon="13.4302144"><ele>173.0</ele><time>2026-05-02T13:54:00.131Z</time></trkpt><trkpt lat="46.1272983" lon="13.4303026"><ele>173.0</ele><time>2026-05-02T13:54:01.138Z</time></trkpt><trkpt lat="46.1274171" lon="13.4303966"><ele>173.0</ele><time>2026-05-02T13:54:02.134Z</time></trkpt><trkpt lat="46.1275388" lon="13.4305221"><ele>173.0</ele><time>2026-05-02T13:54:03.129Z</time></trkpt><trkpt lat="46.1276544" lon="13.4306657"><ele>174.0</ele><time>2026-05-02T13:54:04.136Z</time></trkpt><trkpt lat="46.1277718" lon="13.4308176"><ele>175.0</ele><time>2026-05-02T13:54:05.126Z</time></trkpt><trkpt lat="46.1278921" lon="13.4309677"><ele>176.0</ele><time>2026-05-02T13:54:06.127Z</time></trkpt><trkpt lat="46.1280116" lon="13.4311205"><ele>176.0</ele><time>2026-05-02T13:54:07.134Z</time></trkpt><trkpt lat="46.1281358" lon="13.4312731"><ele>176.0</ele><time>2026-05-02T13:54:08.129Z</time></trkpt><trkpt lat="46.1282545" lon="13.4314294"><ele>176.0</ele><time>2026-05-02T13:54:09.133Z</time></trkpt><trkpt lat="46.1283722" lon="13.4315821"><ele>176.25</ele><time>2026-05-02T13:54:10.13Z</time></trkpt><trkpt lat="46.1284892" lon="13.4317282"><ele>176.5</ele><time>2026-05-02T13:54:11.135Z</time></trkpt><trkpt lat="46.1285992" lon="13.4318722"><ele>176.75</ele><time>2026-05-02T13:54:12.136Z</time></trkpt><trkpt lat="46.1287152" lon="13.4319971"><ele>177.0</ele><time>2026-05-02T13:54:13.138Z</time></trkpt><trkpt lat="46.128848" lon="13.4320967"><ele>177.33333333333334</ele><time>2026-05-02T13:54:14.127Z</time></trkpt><trkpt lat="46.1289844" lon="13.4321795"><ele>177.66666666666669</ele><time>2026-05-02T13:54:15.135Z</time></trkpt><trkpt lat="46.1291399" lon="13.4322479"><ele>178.0</ele><time>2026-05-02T13:54:16.129Z</time></trkpt><trkpt lat="46.129291" lon="13.4323184"><ele>179.66666666666669</ele><time>2026-05-02T13:54:17.132Z</time></trkpt><trkpt lat="46.1294455" lon="13.4323982"><ele>181.33333333333334</ele><time>2026-05-02T13:54:18.127Z</time></trkpt><trkpt lat="46.1296034" lon="13.4324769"><ele>183.0</ele><time>2026-05-02T13:54:19.141Z</time></trkpt><trkpt lat="46.1297615" lon="13.432556"><ele>183.0</ele><time>2026-05-02T13:54:20.134Z</time></trkpt><trkpt lat="46.1299217" lon="13.4326281"><ele>183.0</ele><time>2026-05-02T13:54:21.132Z</time></trkpt><trkpt lat="46.1300792" lon="13.4327048"><ele>183.0</ele><time>2026-05-02T13:54:22.144Z</time></trkpt><trkpt lat="46.1302387" lon="13.4327918"><ele>183.0</ele><time>2026-05-02T13:54:23.134Z</time></trkpt><trkpt lat="46.1303905" lon="13.4328622"><ele>183.0</ele><time>2026-05-02T13:54:24.139Z</time></trkpt><trkpt lat="46.1305307" lon="13.4329191"><ele>183.0</ele><time>2026-05-02T13:54:25.135Z</time></trkpt><trkpt lat="46.1306631" lon="13.4329733"><ele>183.0</ele><time>2026-05-02T13:54:26.132Z</time></trkpt><trkpt lat="46.1307848" lon="13.4330427"><ele>184.5</ele><time>2026-05-02T13:54:27.142Z</time></trkpt><trkpt lat="46.1309085" lon="13.4331313"><ele>186.0</ele><time>2026-05-02T13:54:28.134Z</time></trkpt><trkpt lat="46.1310283" lon="13.4332367"><ele>187.5</ele><time>2026-05-02T13:54:29.134Z</time></trkpt><trkpt lat="46.1311369" lon="13.4333507"><ele>189.0</ele><time>2026-05-02T13:54:30.134Z</time></trkpt><trkpt lat="46.1312582" lon="13.4334589"><ele>189.0</ele><time>2026-05-02T13:54:31.143Z</time></trkpt><trkpt lat="46.1313785" lon="13.4335614"><ele>189.0</ele><time>2026-05-02T13:54:32.132Z</time></trkpt><trkpt lat="46.1315018" lon="13.4336699"><ele>189.0</ele><time>2026-05-02T13:54:33.136Z</time></trkpt><trkpt lat="46.1316205" lon="13.4337794"><ele>189.0</ele><time>2026-05-02T13:54:34.119Z</time></trkpt><trkpt lat="46.1317306" lon="13.4338778"><ele>189.2</ele><time>2026-05-02T13:54:35.13Z</time></trkpt><trkpt lat="46.1318325" lon="13.4339678"><ele>189.39999999999998</ele><time>2026-05-02T13:54:36.136Z</time></trkpt><trkpt lat="46.1319373" lon="13.4340557"><ele>189.6</ele><time>2026-05-02T13:54:37.136Z</time></trkpt><trkpt lat="46.1320271" lon="13.4341392"><ele>189.8</ele><time>2026-05-02T13:54:38.13Z</time></trkpt><trkpt lat="46.1321115" lon="13.4342153"><ele>190.0</ele><time>2026-05-02T13:54:39.132Z</time></trkpt><trkpt lat="46.1321743" lon="13.4343164"><ele>190.0</ele><time>2026-05-02T13:54:40.136Z</time></trkpt><trkpt lat="46.1322377" lon="13.4344574"><ele>190.0</ele><time>2026-05-02T13:54:41.125Z</time></trkpt><trkpt lat="46.132297" lon="13.4346171"><ele>190.0</ele><time>2026-05-02T13:54:42.134Z</time></trkpt><trkpt lat="46.1323629" lon="13.4347851"><ele>190.0</ele><time>2026-05-02T13:54:43.132Z</time></trkpt><trkpt lat="46.1324259" lon="13.4349563"><ele>190.25</ele><time>2026-05-02T13:54:44.128Z</time></trkpt><trkpt lat="46.1324882" lon="13.4351351"><ele>190.5</ele><time>2026-05-02T13:54:45.132Z</time></trkpt><trkpt lat="46.1325568" lon="13.4352771"><ele>190.75</ele><time>2026-05-02T13:54:46.139Z</time></trkpt><trkpt lat="46.1326348" lon="13.4353916"><ele>191.0</ele><time>2026-05-02T13:54:47.129Z</time></trkpt><trkpt lat="46.1327128" lon="13.4354853"><ele>191.0</ele><time>2026-05-02T13:54:48.133Z</time></trkpt><trkpt lat="46.1327695" lon="13.4355618"><ele>191.0</ele><time>2026-05-02T13:54:49.133Z</time></trkpt><trkpt lat="46.1327718" lon="13.4356932"><ele>191.0</ele><time>2026-05-02T13:54:52.131Z</time></trkpt><trkpt lat="46.1326849" lon="13.4358341"><ele>191.0</ele><time>2026-05-02T13:54:54.12Z</time></trkpt><trkpt lat="46.1326453" lon="13.4359203"><ele>191.0</ele><time>2026-05-02T13:54:55.125Z</time></trkpt><trkpt lat="46.132605" lon="13.4360088"><ele>191.0</ele><time>2026-05-02T13:54:56.124Z</time></trkpt><trkpt lat="46.1325521" lon="13.4361044"><ele>191.0</ele><time>2026-05-02T13:54:57.12Z</time></trkpt><trkpt lat="46.1325019" lon="13.4362164"><ele>191.0</ele><time>2026-05-02T13:54:58.125Z</time></trkpt><trkpt lat="46.1324548" lon="13.4363242"><ele>191.0</ele><time>2026-05-02T13:54:59.126Z</time></trkpt><trkpt lat="46.1324062" lon="13.4364239"><ele>191.0</ele><time>2026-05-02T13:55:00.138Z</time></trkpt><trkpt lat="46.1323528" lon="13.4365235"><ele>191.0</ele><time>2026-05-02T13:55:01.126Z</time></trkpt><trkpt lat="46.1322996" lon="13.4366161"><ele>191.0</ele><time>2026-05-02T13:55:02.132Z</time></trkpt><trkpt lat="46.1322367" lon="13.4367011"><ele>193.60000000000002</ele><time>2026-05-02T13:55:03.117Z</time></trkpt><trkpt lat="46.13218" lon="13.4367782"><ele>196.2</ele><time>2026-05-02T13:55:04.123Z</time></trkpt><trkpt lat="46.1320831" lon="13.4368396"><ele>198.8</ele><time>2026-05-02T13:55:06.124Z</time></trkpt><trkpt lat="46.1319401" lon="13.4367817"><ele>201.39999999999998</ele><time>2026-05-02T13:55:08.121Z</time></trkpt><trkpt lat="46.1318327" lon="13.4367408"><ele>204.0</ele><time>2026-05-02T13:55:09.128Z</time></trkpt><trkpt lat="46.131738" lon="13.4367188"><ele>204.0</ele><time>2026-05-02T13:55:10.121Z</time></trkpt><trkpt lat="46.1316297" lon="13.4367347"><ele>204.0</ele><time>2026-05-02T13:55:11.125Z</time></trkpt><trkpt lat="46.1315187" lon="13.436762"><ele>204.0</ele><time>2026-05-02T13:55:12.119Z</time></trkpt><trkpt lat="46.1314263" lon="13.4367954"><ele>204.0</ele><time>2026-05-02T13:55:13.121Z</time></trkpt><trkpt lat="46.1313542" lon="13.436844"><ele>204.0</ele><time>2026-05-02T13:55:14.121Z</time></trkpt><trkpt lat="46.131293" lon="13.4368772"><ele>204.5</ele><time>2026-05-02T13:55:15.122Z</time></trkpt><trkpt lat="46.1311864" lon="13.4368903"><ele>205.0</ele><time>2026-05-02T13:55:17.12Z</time></trkpt><trkpt lat="46.1310963" lon="13.4368998"><ele>205.5</ele><time>2026-05-02T13:55:19.114Z</time></trkpt><trkpt lat="46.1311177" lon="13.4370141"><ele>206.0</ele><time>2026-05-02T13:55:22.117Z</time></trkpt><trkpt lat="46.1311932" lon="13.4370469"><ele>206.5</ele><time>2026-05-02T13:55:23.127Z</time></trkpt><trkpt lat="46.1312714" lon="13.4370778"><ele>207.0</ele><time>2026-05-02T13:55:24.118Z</time></trkpt><trkpt lat="46.1313587" lon="13.4371199"><ele>210.2</ele><time>2026-05-02T13:55:25.108Z</time></trkpt><trkpt lat="46.1314486" lon="13.4371463"><ele>213.39999999999998</ele><time>2026-05-02T13:55:26.115Z</time></trkpt><trkpt lat="46.1315361" lon="13.4371888"><ele>216.60000000000002</ele><time>2026-05-02T13:55:27.116Z</time></trkpt><trkpt lat="46.1316179" lon="13.4372691"><ele>219.8</ele><time>2026-05-02T13:55:28.125Z</time></trkpt><trkpt lat="46.1316814" lon="13.4373602"><ele>223.0</ele><time>2026-05-02T13:55:29.113Z</time></trkpt><trkpt lat="46.1317286" lon="13.4374534"><ele>223.0</ele><time>2026-05-02T13:55:30.118Z</time></trkpt><trkpt lat="46.1317736" lon="13.4375492"><ele>223.0</ele><time>2026-05-02T13:55:31.116Z</time></trkpt><trkpt lat="46.1318232" lon="13.4376554"><ele>223.0</ele><time>2026-05-02T13:55:32.123Z</time></trkpt><trkpt lat="46.1318765" lon="13.4377664"><ele>223.0</ele><time>2026-05-02T13:55:33.12Z</time></trkpt><trkpt lat="46.1319298" lon="13.4378909"><ele>223.0</ele><time>2026-05-02T13:55:34.122Z</time></trkpt><trkpt lat="46.131984" lon="13.4380157"><ele>227.2</ele><time>2026-05-02T13:55:35.125Z</time></trkpt><trkpt lat="46.1320354" lon="13.4381407"><ele>231.4</ele><time>2026-05-02T13:55:36.121Z</time></trkpt><trkpt lat="46.1320807" lon="13.4382631"><ele>235.59999999999997</ele><time>2026-05-02T13:55:37.127Z</time></trkpt><trkpt lat="46.1321331" lon="13.4383943"><ele>239.79999999999998</ele><time>2026-05-02T13:55:38.121Z</time></trkpt><trkpt lat="46.1321952" lon="13.4385315"><ele>244.0</ele><time>2026-05-02T13:55:39.124Z</time></trkpt><trkpt lat="46.1322638" lon="13.4386901"><ele>247.0</ele><time>2026-05-02T13:55:40.12Z</time></trkpt><trkpt lat="46.1323467" lon="13.4388408"><ele>250.0</ele><time>2026-05-02T13:55:41.12Z</time></trkpt><trkpt lat="46.1324269" lon="13.4389726"><ele>253.0</ele><time>2026-05-02T13:55:42.126Z</time></trkpt><trkpt lat="46.1325022" lon="13.4390804"><ele>256.0</ele><time>2026-05-02T13:55:43.129Z</time></trkpt><trkpt lat="46.1325809" lon="13.439179"><ele>256.0</ele><time>2026-05-02T13:55:44.123Z</time></trkpt><trkpt lat="46.1326544" lon="13.4392763"><ele>256.0</ele><time>2026-05-02T13:55:45.124Z</time></trkpt><trkpt lat="46.1327224" lon="13.4393892"><ele>256.0</ele><time>2026-05-02T13:55:46.125Z</time></trkpt><trkpt lat="46.1327833" lon="13.4395"><ele>256.0</ele><time>2026-05-02T13:55:47.132Z</time></trkpt><trkpt lat="46.1328439" lon="13.4396091"><ele>256.0</ele><time>2026-05-02T13:55:48.132Z</time></trkpt><trkpt lat="46.1328952" lon="13.4397124"><ele>259.66666666666663</ele><time>2026-05-02T13:55:49.128Z</time></trkpt><trkpt lat="46.1329504" lon="13.4397994"><ele>263.3333333333333</ele><time>2026-05-02T13:55:50.133Z</time></trkpt><trkpt lat="46.1330075" lon="13.4398734"><ele>267.0</ele><time>2026-05-02T13:55:51.124Z</time></trkpt><trkpt lat="46.1330301" lon="13.439963"><ele>270.6666666666667</ele><time>2026-05-02T13:55:53.133Z</time></trkpt><trkpt lat="46.1329242" lon="13.4399232"><ele>274.33333333333337</ele><time>2026-05-02T13:55:56.119Z</time></trkpt><trkpt lat="46.1328671" lon="13.4398803"><ele>278.0</ele><time>2026-05-02T13:55:57.123Z</time></trkpt><trkpt lat="46.132791" lon="13.4398159"><ele>278.0</ele><time>2026-05-02T13:55:58.126Z</time></trkpt><trkpt lat="46.1327049" lon="13.4397533"><ele>278.0</ele><time>2026-05-02T13:55:59.136Z</time></trkpt><trkpt lat="46.132611" lon="13.4396828"><ele>278.0</ele><time>2026-05-02T13:56:00.136Z</time></trkpt><trkpt lat="46.1325146" lon="13.43961"><ele>278.0</ele><time>2026-05-02T13:56:01.135Z</time></trkpt><trkpt lat="46.1324149" lon="13.4395318"><ele>278.0</ele><time>2026-05-02T13:56:02.121Z</time></trkpt><trkpt lat="46.132302" lon="13.4394627"><ele>275.0</ele><time>2026-05-02T13:56:03.142Z</time></trkpt><trkpt lat="46.1321853" lon="13.4394178"><ele>272.0</ele><time>2026-05-02T13:56:04.128Z</time></trkpt><trkpt lat="46.1320699" lon="13.439375"><ele>269.0</ele><time>2026-05-02T13:56:05.137Z</time></trkpt><trkpt lat="46.1319632" lon="13.4393281"><ele>266.0</ele><time>2026-05-02T13:56:06.122Z</time></trkpt><trkpt lat="46.1318643" lon="13.4392975"><ele>266.0</ele><time>2026-05-02T13:56:07.13Z</time></trkpt><trkpt lat="46.1317719" lon="13.4392794"><ele>266.0</ele><time>2026-05-02T13:56:08.141Z</time></trkpt><trkpt lat="46.1316676" lon="13.439295"><ele>266.0</ele><time>2026-05-02T13:56:09.127Z</time></trkpt><trkpt lat="46.131569" lon="13.4393256"><ele>266.0</ele><time>2026-05-02T13:56:10.135Z</time></trkpt><trkpt lat="46.1314808" lon="13.4393694"><ele>266.0</ele><time>2026-05-02T13:56:11.131Z</time></trkpt><trkpt lat="46.1313968" lon="13.4394091"><ele>270.0</ele><time>2026-05-02T13:56:12.133Z</time></trkpt><trkpt lat="46.1313181" lon="13.439457"><ele>274.0</ele><time>2026-05-02T13:56:13.125Z</time></trkpt><trkpt lat="46.1312633" lon="13.4395083"><ele>278.0</ele><time>2026-05-02T13:56:14.134Z</time></trkpt><trkpt lat="46.1312681" lon="13.4396362"><ele>282.0</ele><time>2026-05-02T13:56:16.118Z</time></trkpt><trkpt lat="46.1314042" lon="13.4396651"><ele>286.0</ele><time>2026-05-02T13:56:18.12Z</time></trkpt><trkpt lat="46.1315081" lon="13.4396539"><ele>286.8</ele><time>2026-05-02T13:56:19.113Z</time></trkpt><trkpt lat="46.1316043" lon="13.4396499"><ele>287.6</ele><time>2026-05-02T13:56:20.122Z</time></trkpt><trkpt lat="46.1317068" lon="13.4396542"><ele>288.4</ele><time>2026-05-02T13:56:21.117Z</time></trkpt><trkpt lat="46.1318071" lon="13.4396812"><ele>289.2</ele><time>2026-05-02T13:56:22.123Z</time></trkpt><trkpt lat="46.131907" lon="13.4397269"><ele>290.0</ele><time>2026-05-02T13:56:23.128Z</time></trkpt><trkpt lat="46.1319985" lon="13.4397831"><ele>290.0</ele><time>2026-05-02T13:56:24.126Z</time></trkpt><trkpt lat="46.1320961" lon="13.439877"><ele>290.0</ele><time>2026-05-02T13:56:25.127Z</time></trkpt><trkpt lat="46.1321872" lon="13.4399715"><ele>290.0</ele><time>2026-05-02T13:56:26.119Z</time></trkpt><trkpt lat="46.1322727" lon="13.4400745"><ele>290.0</ele><time>2026-05-02T13:56:27.131Z</time></trkpt><trkpt lat="46.1323369" lon="13.4401781"><ele>290.0</ele><time>2026-05-02T13:56:28.128Z</time></trkpt><trkpt lat="46.1323866" lon="13.4402861"><ele>290.8</ele><time>2026-05-02T13:56:29.145Z</time></trkpt><trkpt lat="46.1324317" lon="13.440402"><ele>291.6</ele><time>2026-05-02T13:56:30.142Z</time></trkpt><trkpt lat="46.1324738" lon="13.4405377"><ele>292.4</ele><time>2026-05-02T13:56:31.131Z</time></trkpt><trkpt lat="46.132515" lon="13.4406781"><ele>293.2</ele><time>2026-05-02T13:56:32.133Z</time></trkpt><trkpt lat="46.132548" lon="13.4408054"><ele>294.0</ele><time>2026-05-02T13:56:33.13Z</time></trkpt><trkpt lat="46.1325735" lon="13.4409261"><ele>294.0</ele><time>2026-05-02T13:56:34.125Z</time></trkpt><trkpt lat="46.132578" lon="13.4410401"><ele>294.0</ele><time>2026-05-02T13:56:35.129Z</time></trkpt><trkpt lat="46.13256" lon="13.4411527"><ele>294.0</ele><time>2026-05-02T13:56:36.131Z</time></trkpt><trkpt lat="46.1325287" lon="13.4412619"><ele>294.0</ele><time>2026-05-02T13:56:37.119Z</time></trkpt><trkpt lat="46.1324941" lon="13.4413782"><ele>294.0</ele><time>2026-05-02T13:56:38.12Z</time></trkpt><trkpt lat="46.1324508" lon="13.4415038"><ele>294.0</ele><time>2026-05-02T13:56:39.129Z</time></trkpt><trkpt lat="46.1324083" lon="13.4416392"><ele>301.8333333333333</ele><time>2026-05-02T13:56:40.131Z</time></trkpt><trkpt lat="46.1323722" lon="13.4417736"><ele>309.6666666666667</ele><time>2026-05-02T13:56:41.131Z</time></trkpt><trkpt lat="46.1323408" lon="13.4419013"><ele>317.5</ele><time>2026-05-02T13:56:42.121Z</time></trkpt><trkpt lat="46.1323237" lon="13.4420173"><ele>325.33333333333337</ele><time>2026-05-02T13:56:43.138Z</time></trkpt><trkpt lat="46.1323143" lon="13.4421286"><ele>333.1666666666667</ele><time>2026-05-02T13:56:44.123Z</time></trkpt><trkpt lat="46.1323232" lon="13.4422296"><ele>341.0</ele><time>2026-05-02T13:56:45.124Z</time></trkpt><trkpt lat="46.1323609" lon="13.442335"><ele>336.6</ele><time>2026-05-02T13:56:46.122Z</time></trkpt><trkpt lat="46.1324186" lon="13.4424415"><ele>332.20000000000005</ele><time>2026-05-02T13:56:47.127Z</time></trkpt><trkpt lat="46.1324674" lon="13.4425643"><ele>327.79999999999995</ele><time>2026-05-02T13:56:48.119Z</time></trkpt><trkpt lat="46.1325097" lon="13.4427149"><ele>323.4</ele><time>2026-05-02T13:56:49.117Z</time></trkpt><trkpt lat="46.1325453" lon="13.4428609"><ele>319.0</ele><time>2026-05-02T13:56:50.118Z</time></trkpt><trkpt lat="46.1325781" lon="13.4430147"><ele>319.0</ele><time>2026-05-02T13:56:51.128Z</time></trkpt><trkpt lat="46.1325897" lon="13.4431442"><ele>319.0</ele><time>2026-05-02T13:56:52.124Z</time></trkpt><trkpt lat="46.1325884" lon="13.4432569"><ele>319.0</ele><time>2026-05-02T13:56:53.12Z</time></trkpt><trkpt lat="46.1325635" lon="13.4433709"><ele>319.0</ele><time>2026-05-02T13:56:54.12Z</time></trkpt><trkpt lat="46.1325433" lon="13.4434867"><ele>319.0</ele><time>2026-05-02T13:56:55.115Z</time></trkpt><trkpt lat="46.1325276" lon="13.4435876"><ele>319.0</ele><time>2026-05-02T13:56:56.113Z</time></trkpt><trkpt lat="46.1325331" lon="13.443742"><ele>319.0</ele><time>2026-05-02T13:56:58.115Z</time></trkpt><trkpt lat="46.1326483" lon="13.4437643"><ele>319.0</ele><time>2026-05-02T13:57:00.112Z</time></trkpt><trkpt lat="46.1327205" lon="13.4437479"><ele>319.0</ele><time>2026-05-02T13:57:01.127Z</time></trkpt><trkpt lat="46.1328016" lon="13.443714"><ele>319.0</ele><time>2026-05-02T13:57:02.118Z</time></trkpt><trkpt lat="46.1328967" lon="13.4436734"><ele>319.0</ele><time>2026-05-02T13:57:03.127Z</time></trkpt><trkpt lat="46.13298" lon="13.4436524"><ele>319.0</ele><time>2026-05-02T13:57:04.126Z</time></trkpt><trkpt lat="46.1330473" lon="13.4436788"><ele>319.0</ele><time>2026-05-02T13:57:05.129Z</time></trkpt><trkpt lat="46.1331123" lon="13.4437165"><ele>319.0</ele><time>2026-05-02T13:57:06.123Z</time></trkpt><trkpt lat="46.1331691" lon="13.4437867"><ele>319.0</ele><time>2026-05-02T13:57:07.133Z</time></trkpt><trkpt lat="46.1332271" lon="13.4439103"><ele>319.0</ele><time>2026-05-02T13:57:08.118Z</time></trkpt><trkpt lat="46.1332915" lon="13.4440515"><ele>319.0</ele><time>2026-05-02T13:57:09.12Z</time></trkpt><trkpt lat="46.1333516" lon="13.4441769"><ele>318.8333333333333</ele><time>2026-05-02T13:57:10.135Z</time></trkpt><trkpt lat="46.1334038" lon="13.4442991"><ele>318.66666666666663</ele><time>2026-05-02T13:57:11.125Z</time></trkpt><trkpt lat="46.1334415" lon="13.4444256"><ele>318.5</ele><time>2026-05-02T13:57:12.123Z</time></trkpt><trkpt lat="46.1334724" lon="13.4445418"><ele>318.3333333333333</ele><time>2026-05-02T13:57:13.116Z</time></trkpt><trkpt lat="46.1334993" lon="13.4446393"><ele>318.1666666666667</ele><time>2026-05-02T13:57:14.117Z</time></trkpt><trkpt lat="46.1335309" lon="13.4447312"><ele>318.0</ele><time>2026-05-02T13:57:15.129Z</time></trkpt><trkpt lat="46.1335784" lon="13.4448022"><ele>316.5</ele><time>2026-05-02T13:57:16.134Z</time></trkpt><trkpt lat="46.1336425" lon="13.4448397"><ele>315.0</ele><time>2026-05-02T13:57:17.125Z</time></trkpt><trkpt lat="46.1337135" lon="13.4448478"><ele>313.5</ele><time>2026-05-02T13:57:18.125Z</time></trkpt><trkpt lat="46.1337941" lon="13.4448056"><ele>312.0</ele><time>2026-05-02T13:57:19.115Z</time></trkpt><trkpt lat="46.1338811" lon="13.4447425"><ele>310.5</ele><time>2026-05-02T13:57:20.122Z</time></trkpt><trkpt lat="46.1339915" lon="13.4446748"><ele>309.0</ele><time>2026-05-02T13:57:21.111Z</time></trkpt><trkpt lat="46.1341075" lon="13.4446127"><ele>309.0</ele><time>2026-05-02T13:57:22.12Z</time></trkpt><trkpt lat="46.1342219" lon="13.4445487"><ele>309.0</ele><time>2026-05-02T13:57:23.118Z</time></trkpt><trkpt lat="46.1343417" lon="13.4444691"><ele>309.0</ele><time>2026-05-02T13:57:24.122Z</time></trkpt><trkpt lat="46.1344497" lon="13.4443751"><ele>309.0</ele><time>2026-05-02T13:57:25.121Z</time></trkpt><trkpt lat="46.1345422" lon="13.4442795"><ele>309.0</ele><time>2026-05-02T13:57:26.128Z</time></trkpt><trkpt lat="46.1346127" lon="13.4441803"><ele>309.0</ele><time>2026-05-02T13:57:27.131Z</time></trkpt><trkpt lat="46.1346563" lon="13.4440648"><ele>309.0</ele><time>2026-05-02T13:57:28.128Z</time></trkpt><trkpt lat="46.1346784" lon="13.4439377"><ele>309.0</ele><time>2026-05-02T13:57:29.127Z</time></trkpt><trkpt lat="46.1346967" lon="13.4438372"><ele>309.0</ele><time>2026-05-02T13:57:30.125Z</time></trkpt><trkpt lat="46.1347118" lon="13.4437288"><ele>309.0</ele><time>2026-05-02T13:57:31.142Z</time></trkpt><trkpt lat="46.1347294" lon="13.4436083"><ele>308.0</ele><time>2026-05-02T13:57:32.14Z</time></trkpt><trkpt lat="46.1347405" lon="13.4434734"><ele>307.0</ele><time>2026-05-02T13:57:33.143Z</time></trkpt><trkpt lat="46.134742" lon="13.4433322"><ele>306.0</ele><time>2026-05-02T13:57:34.138Z</time></trkpt><trkpt lat="46.1347548" lon="13.4431984"><ele>305.0</ele><time>2026-05-02T13:57:35.138Z</time></trkpt><trkpt lat="46.1347751" lon="13.4430888"><ele>304.0</ele><time>2026-05-02T13:57:36.134Z</time></trkpt><trkpt lat="46.1348055" lon="13.4430041"><ele>303.0</ele><time>2026-05-02T13:57:37.146Z</time></trkpt><trkpt lat="46.1348896" lon="13.4429217"><ele>303.8333333333333</ele><time>2026-05-02T13:57:39.13Z</time></trkpt><trkpt lat="46.1349876" lon="13.4429715"><ele>304.6666666666667</ele><time>2026-05-02T13:57:41.136Z</time></trkpt><trkpt lat="46.1350246" lon="13.4430461"><ele>305.5</ele><time>2026-05-02T13:57:42.124Z</time></trkpt><trkpt lat="46.1350519" lon="13.4431479"><ele>306.33333333333337</ele><time>2026-05-02T13:57:43.129Z</time></trkpt><trkpt lat="46.1350726" lon="13.4432734"><ele>307.1666666666667</ele><time>2026-05-02T13:57:44.128Z</time></trkpt><trkpt lat="46.1350804" lon="13.4434074"><ele>308.0</ele><time>2026-05-02T13:57:45.131Z</time></trkpt><trkpt lat="46.1350793" lon="13.4435317"><ele>308.0</ele><time>2026-05-02T13:57:46.136Z</time></trkpt><trkpt lat="46.1350616" lon="13.4436501"><ele>308.0</ele><time>2026-05-02T13:57:47.131Z</time></trkpt><trkpt lat="46.1350347" lon="13.443774"><ele>308.0</ele><time>2026-05-02T13:57:48.127Z</time></trkpt><trkpt lat="46.1349956" lon="13.443901"><ele>308.0</ele><time>2026-05-02T13:57:49.13Z</time></trkpt><trkpt lat="46.1349659" lon="13.4440181"><ele>308.0</ele><time>2026-05-02T13:57:50.133Z</time></trkpt><trkpt lat="46.1349586" lon="13.4441337"><ele>308.0</ele><time>2026-05-02T13:57:51.14Z</time></trkpt><trkpt lat="46.1349741" lon="13.4442603"><ele>309.2</ele><time>2026-05-02T13:57:52.137Z</time></trkpt><trkpt lat="46.134994" lon="13.4444025"><ele>310.4</ele><time>2026-05-02T13:57:53.128Z</time></trkpt><trkpt lat="46.1350135" lon="13.4445625"><ele>311.59999999999997</ele><time>2026-05-02T13:57:54.137Z</time></trkpt><trkpt lat="46.1350196" lon="13.4447298"><ele>312.8</ele><time>2026-05-02T13:57:55.126Z</time></trkpt><trkpt lat="46.135008" lon="13.444897"><ele>314.0</ele><time>2026-05-02T13:57:56.138Z</time></trkpt><trkpt lat="46.1349965" lon="13.4450464"><ele>315.6666666666667</ele><time>2026-05-02T13:57:57.134Z</time></trkpt><trkpt lat="46.1349973" lon="13.4451763"><ele>317.33333333333337</ele><time>2026-05-02T13:57:58.12Z</time></trkpt><trkpt lat="46.1350079" lon="13.4452981"><ele>319.0</ele><time>2026-05-02T13:57:59.135Z</time></trkpt><trkpt lat="46.1350237" lon="13.4453984"><ele>320.6666666666667</ele><time>2026-05-02T13:58:00.131Z</time></trkpt><trkpt lat="46.135121" lon="13.4455217"><ele>322.3333333333333</ele><time>2026-05-02T13:58:02.134Z</time></trkpt><trkpt lat="46.1351874" lon="13.4455524"><ele>324.0</ele><time>2026-05-02T13:58:03.12Z</time></trkpt><trkpt lat="46.1352651" lon="13.4455712"><ele>327.2</ele><time>2026-05-02T13:58:04.118Z</time></trkpt><trkpt lat="46.1353484" lon="13.445604"><ele>330.4</ele><time>2026-05-02T13:58:05.126Z</time></trkpt><trkpt lat="46.1354262" lon="13.4456615"><ele>333.6</ele><time>2026-05-02T13:58:06.137Z</time></trkpt><trkpt lat="46.1355041" lon="13.4457552"><ele>336.8</ele><time>2026-05-02T13:58:07.131Z</time></trkpt><trkpt lat="46.135599" lon="13.4458856"><ele>340.0</ele><time>2026-05-02T13:58:08.122Z</time></trkpt><trkpt lat="46.1356952" lon="13.4460238"><ele>339.5</ele><time>2026-05-02T13:58:09.129Z</time></trkpt><trkpt lat="46.135785" lon="13.446169"><ele>339.0</ele><time>2026-05-02T13:58:10.117Z</time></trkpt><trkpt lat="46.1358522" lon="13.4463196"><ele>338.5</ele><time>2026-05-02T13:58:11.126Z</time></trkpt><trkpt lat="46.1359164" lon="13.4464678"><ele>338.0</ele><time>2026-05-02T13:58:12.13Z</time></trkpt><trkpt lat="46.1359507" lon="13.4466152"><ele>342.0</ele><time>2026-05-02T13:58:13.128Z</time></trkpt><trkpt lat="46.1359632" lon="13.4467661"><ele>346.0</ele><time>2026-05-02T13:58:14.123Z</time></trkpt><trkpt lat="46.1359584" lon="13.4469303"><ele>350.0</ele><time>2026-05-02T13:58:15.119Z</time></trkpt><trkpt lat="46.1359314" lon="13.447079"><ele>354.0</ele><time>2026-05-02T13:58:16.114Z</time></trkpt><trkpt lat="46.1359011" lon="13.4471864"><ele>358.0</ele><time>2026-05-02T13:58:17.12Z</time></trkpt><trkpt lat="46.1358646" lon="13.447268"><ele>361.0</ele><time>2026-05-02T13:58:18.12Z</time></trkpt><trkpt lat="46.1358415" lon="13.4474158"><ele>364.0</ele><time>2026-05-02T13:58:20.119Z</time></trkpt><trkpt lat="46.1359383" lon="13.4474478"><ele>367.0</ele><time>2026-05-02T13:58:22.12Z</time></trkpt><trkpt lat="46.1360189" lon="13.4473936"><ele>370.0</ele><time>2026-05-02T13:58:23.115Z</time></trkpt><trkpt lat="46.1361212" lon="13.4473213"><ele>373.0</ele><time>2026-05-02T13:58:24.124Z</time></trkpt><trkpt lat="46.1362236" lon="13.4472382"><ele>373.0</ele><time>2026-05-02T13:58:25.123Z</time></trkpt><trkpt lat="46.1363081" lon="13.4471539"><ele>373.0</ele><time>2026-05-02T13:58:26.128Z</time></trkpt><trkpt lat="46.13639" lon="13.4470734"><ele>373.0</ele><time>2026-05-02T13:58:27.121Z</time></trkpt><trkpt lat="46.1364633" lon="13.4470407"><ele>373.0</ele><time>2026-05-02T13:58:28.123Z</time></trkpt><trkpt lat="46.1365313" lon="13.4470835"><ele>373.0</ele><time>2026-05-02T13:58:29.128Z</time></trkpt><trkpt lat="46.136591" lon="13.4471493"><ele>373.0</ele><time>2026-05-02T13:58:30.129Z</time></trkpt><trkpt lat="46.1366648" lon="13.4472582"><ele>373.59999999999997</ele><time>2026-05-02T13:58:31.13Z</time></trkpt><trkpt lat="46.1367341" lon="13.4473906"><ele>374.2</ele><time>2026-05-02T13:58:32.132Z</time></trkpt><trkpt lat="46.136781" lon="13.4475187"><ele>374.8</ele><time>2026-05-02T13:58:33.142Z</time></trkpt><trkpt lat="46.1368217" lon="13.447651"><ele>375.4</ele><time>2026-05-02T13:58:34.134Z</time></trkpt><trkpt lat="46.1368557" lon="13.4478016"><ele>376.0</ele><time>2026-05-02T13:58:35.122Z</time></trkpt><trkpt lat="46.136882" lon="13.447967"><ele>376.0</ele><time>2026-05-02T13:58:36.134Z</time></trkpt><trkpt lat="46.1368947" lon="13.4481539"><ele>376.0</ele><time>2026-05-02T13:58:37.131Z</time></trkpt><trkpt lat="46.136909" lon="13.4483222"><ele>376.0</ele><time>2026-05-02T13:58:38.127Z</time></trkpt><trkpt lat="46.1369174" lon="13.4484889"><ele>376.0</ele><time>2026-05-02T13:58:39.132Z</time></trkpt><trkpt lat="46.1369169" lon="13.4486553"><ele>378.8</ele><time>2026-05-02T13:58:40.12Z</time></trkpt><trkpt lat="46.1369101" lon="13.4488068"><ele>381.6</ele><time>2026-05-02T13:58:41.126Z</time></trkpt><trkpt lat="46.1369064" lon="13.4489381"><ele>384.4</ele><time>2026-05-02T13:58:42.124Z</time></trkpt><trkpt lat="46.1368903" lon="13.4490718"><ele>387.2</ele><time>2026-05-02T13:58:43.129Z</time></trkpt><trkpt lat="46.1368631" lon="13.4492065"><ele>390.0</ele><time>2026-05-02T13:58:44.129Z</time></trkpt><trkpt lat="46.1368263" lon="13.4493401"><ele>390.0</ele><time>2026-05-02T13:58:45.119Z</time></trkpt><trkpt lat="46.1367873" lon="13.4494625"><ele>390.0</ele><time>2026-05-02T13:58:46.126Z</time></trkpt><trkpt lat="46.1367427" lon="13.4495569"><ele>390.0</ele><time>2026-05-02T13:58:47.119Z</time></trkpt><trkpt lat="46.1367091" lon="13.4496895"><ele>390.0</ele><time>2026-05-02T13:58:49.127Z</time></trkpt><trkpt lat="46.1367364" lon="13.4497859"><ele>390.0</ele><time>2026-05-02T13:58:51.132Z</time></trkpt><trkpt lat="46.1368452" lon="13.4498437"><ele>393.0</ele><time>2026-05-02T13:58:53.119Z</time></trkpt><trkpt lat="46.1369596" lon="13.44987"><ele>396.0</ele><time>2026-05-02T13:58:54.11Z</time></trkpt><trkpt lat="46.1370672" lon="13.4499099"><ele>399.0</ele><time>2026-05-02T13:58:55.118Z</time></trkpt><trkpt lat="46.1371384" lon="13.4499819"><ele>402.0</ele><time>2026-05-02T13:58:56.13Z</time></trkpt><trkpt lat="46.1371709" lon="13.4501087"><ele>405.0</ele><time>2026-05-02T13:58:57.123Z</time></trkpt><trkpt lat="46.1371692" lon="13.450245"><ele>405.0</ele><time>2026-05-02T13:58:58.132Z</time></trkpt><trkpt lat="46.1371436" lon="13.4503806"><ele>405.0</ele><time>2026-05-02T13:58:59.12Z</time></trkpt><trkpt lat="46.1371051" lon="13.4505274"><ele>405.0</ele><time>2026-05-02T13:59:00.119Z</time></trkpt><trkpt lat="46.1370433" lon="13.4506764"><ele>405.0</ele><time>2026-05-02T13:59:01.125Z</time></trkpt><trkpt lat="46.1369756" lon="13.4508147"><ele>405.0</ele><time>2026-05-02T13:59:02.129Z</time></trkpt><trkpt lat="46.1369316" lon="13.4509474"><ele>408.0</ele><time>2026-05-02T13:59:03.121Z</time></trkpt><trkpt lat="46.1369084" lon="13.4510416"><ele>411.0</ele><time>2026-05-02T13:59:04.122Z</time></trkpt><trkpt lat="46.1369608" lon="13.4511742"><ele>414.0</ele><time>2026-05-02T13:59:06.126Z</time></trkpt><trkpt lat="46.1371002" lon="13.4512682"><ele>417.0</ele><time>2026-05-02T13:59:08.12Z</time></trkpt><trkpt lat="46.1371902" lon="13.4513629"><ele>420.0</ele><time>2026-05-02T13:59:10.122Z</time></trkpt><trkpt lat="46.1371267" lon="13.4514513"><ele>420.0</ele><time>2026-05-02T13:59:13.121Z</time></trkpt><trkpt lat="46.1370526" lon="13.4514487"><ele>420.0</ele><time>2026-05-02T13:59:14.118Z</time></trkpt><trkpt lat="46.1369621" lon="13.4514273"><ele>420.0</ele><time>2026-05-02T13:59:15.121Z</time></trkpt><trkpt lat="46.1368713" lon="13.4513881"><ele>420.0</ele><time>2026-05-02T13:59:16.114Z</time></trkpt><trkpt lat="46.1367934" lon="13.4513395"><ele>420.0</ele><time>2026-05-02T13:59:17.122Z</time></trkpt><trkpt lat="46.1367558" lon="13.4512537"><ele>420.0</ele><time>2026-05-02T13:59:18.112Z</time></trkpt><trkpt lat="46.1367397" lon="13.4511484"><ele>420.0</ele><time>2026-05-02T13:59:19.112Z</time></trkpt><trkpt lat="46.1367289" lon="13.4510218"><ele>420.0</ele><time>2026-05-02T13:59:20.115Z</time></trkpt><trkpt lat="46.1367181" lon="13.4508968"><ele>420.0</ele><time>2026-05-02T13:59:21.116Z</time></trkpt><trkpt lat="46.136675" lon="13.450777"><ele>420.0</ele><time>2026-05-02T13:59:22.116Z</time></trkpt><trkpt lat="46.1366034" lon="13.4506594"><ele>420.0</ele><time>2026-05-02T13:59:23.114Z</time></trkpt><trkpt lat="46.136518" lon="13.4505481"><ele>424.0</ele><time>2026-05-02T13:59:24.122Z</time></trkpt><trkpt lat="46.1364287" lon="13.4504344"><ele>428.0</ele><time>2026-05-02T13:59:25.117Z</time></trkpt><trkpt lat="46.1363393" lon="13.4503122"><ele>432.0</ele><time>2026-05-02T13:59:26.118Z</time></trkpt><trkpt lat="46.1362448" lon="13.4501959"><ele>436.0</ele><time>2026-05-02T13:59:27.125Z</time></trkpt><trkpt lat="46.1361582" lon="13.4500738"><ele>436.0</ele><time>2026-05-02T13:59:28.127Z</time></trkpt><trkpt lat="46.1360882" lon="13.4499332"><ele>436.0</ele><time>2026-05-02T13:59:29.128Z</time></trkpt><trkpt lat="46.136033" lon="13.4497845"><ele>436.0</ele><time>2026-05-02T13:59:30.117Z</time></trkpt><trkpt lat="46.1359772" lon="13.4496463"><ele>436.0</ele><time>2026-05-02T13:59:31.123Z</time></trkpt><trkpt lat="46.1359277" lon="13.4495433"><ele>436.0</ele><time>2026-05-02T13:59:32.129Z</time></trkpt><trkpt lat="46.1358528" lon="13.449466"><ele>436.25</ele><time>2026-05-02T13:59:33.128Z</time></trkpt><trkpt lat="46.1357623" lon="13.4494014"><ele>436.5</ele><time>2026-05-02T13:59:34.124Z</time></trkpt><trkpt lat="46.1356334" lon="13.4493481"><ele>436.75</ele><time>2026-05-02T13:59:35.119Z</time></trkpt><trkpt lat="46.1354916" lon="13.4492959"><ele>437.0</ele><time>2026-05-02T13:59:36.124Z</time></trkpt><trkpt lat="46.1353544" lon="13.4492323"><ele>437.0</ele><time>2026-05-02T13:59:37.112Z</time></trkpt><trkpt lat="46.1352305" lon="13.4491805"><ele>437.00000000000006</ele><time>2026-05-02T13:59:38.13Z</time></trkpt><trkpt lat="46.1351181" lon="13.449138"><ele>437.00000000000006</ele><time>2026-05-02T13:59:39.125Z</time></trkpt><trkpt lat="46.1350313" lon="13.4491075"><ele>437.0</ele><time>2026-05-02T13:59:40.123Z</time></trkpt><trkpt lat="46.1349674" lon="13.4490618"><ele>437.0</ele><time>2026-05-02T13:59:41.116Z</time></trkpt><trkpt lat="46.1349169" lon="13.4489845"><ele>437.20000000000005</ele><time>2026-05-02T13:59:42.119Z</time></trkpt><trkpt lat="46.1348704" lon="13.4488925"><ele>437.40000000000003</ele><time>2026-05-02T13:59:43.114Z</time></trkpt><trkpt lat="46.1348115" lon="13.4487748"><ele>437.59999999999997</ele><time>2026-05-02T13:59:44.12Z</time></trkpt><trkpt lat="46.1347319" lon="13.4486552"><ele>437.79999999999995</ele><time>2026-05-02T13:59:45.124Z</time></trkpt><trkpt lat="46.1346366" lon="13.4485531"><ele>438.0</ele><time>2026-05-02T13:59:46.126Z</time></trkpt><trkpt lat="46.1345348" lon="13.4484599"><ele>438.0</ele><time>2026-05-02T13:59:47.121Z</time></trkpt><trkpt lat="46.1344236" lon="13.4483769"><ele>438.0</ele><time>2026-05-02T13:59:48.134Z</time></trkpt><trkpt lat="46.1342998" lon="13.4483144"><ele>438.0</ele><time>2026-05-02T13:59:49.125Z</time></trkpt><trkpt lat="46.1341439" lon="13.4482362"><ele>438.0</ele><time>2026-05-02T13:59:50.117Z</time></trkpt><trkpt lat="46.1339789" lon="13.4481689"><ele>440.0</ele><time>2026-05-02T13:59:51.121Z</time></trkpt><trkpt lat="46.1338286" lon="13.4481055"><ele>442.0</ele><time>2026-05-02T13:59:52.135Z</time></trkpt><trkpt lat="46.1336981" lon="13.4480619"><ele>444.0</ele><time>2026-05-02T13:59:53.121Z</time></trkpt><trkpt lat="46.1335819" lon="13.4480358"><ele>446.0</ele><time>2026-05-02T13:59:54.13Z</time></trkpt><trkpt lat="46.1334812" lon="13.4480096"><ele>446.0</ele><time>2026-05-02T13:59:55.127Z</time></trkpt><trkpt lat="46.1334025" lon="13.4480072"><ele>446.0</ele><time>2026-05-02T13:59:56.135Z</time></trkpt><trkpt lat="46.1333304" lon="13.4480496"><ele>446.0</ele><time>2026-05-02T13:59:57.126Z</time></trkpt><trkpt lat="46.1332603" lon="13.4481385"><ele>446.0</ele><time>2026-05-02T13:59:58.13Z</time></trkpt><trkpt lat="46.1331794" lon="13.4482383"><ele>446.0</ele><time>2026-05-02T13:59:59.131Z</time></trkpt><trkpt lat="46.1330914" lon="13.4483394"><ele>447.99999999999994</ele><time>2026-05-02T14:00:00.129Z</time></trkpt><trkpt lat="46.1330167" lon="13.448448"><ele>450.0</ele><time>2026-05-02T14:00:01.129Z</time></trkpt><trkpt lat="46.13295" lon="13.4485278"><ele>452.0</ele><time>2026-05-02T14:00:02.131Z</time></trkpt><trkpt lat="46.13289" lon="13.4485616"><ele>454.0</ele><time>2026-05-02T14:00:03.127Z</time></trkpt><trkpt lat="46.1328281" lon="13.4485382"><ele>455.99999999999994</ele><time>2026-05-02T14:00:04.127Z</time></trkpt><trkpt lat="46.1327705" lon="13.4484666"><ele>458.0</ele><time>2026-05-02T14:00:05.127Z</time></trkpt><trkpt lat="46.1327119" lon="13.4483665"><ele>458.0</ele><time>2026-05-02T14:00:06.124Z</time></trkpt><trkpt lat="46.1326468" lon="13.4482276"><ele>458.0</ele><time>2026-05-02T14:00:07.123Z</time></trkpt><trkpt lat="46.1325732" lon="13.4480671"><ele>458.0</ele><time>2026-05-02T14:00:08.129Z</time></trkpt><trkpt lat="46.1324786" lon="13.4479156"><ele>458.0</ele><time>2026-05-02T14:00:09.125Z</time></trkpt><trkpt lat="46.1323698" lon="13.4477663"><ele>457.0</ele><time>2026-05-02T14:00:10.134Z</time></trkpt><trkpt lat="46.1322563" lon="13.4476376"><ele>456.0</ele><time>2026-05-02T14:00:11.13Z</time></trkpt><trkpt lat="46.1321384" lon="13.4475354"><ele>455.0</ele><time>2026-05-02T14:00:12.124Z</time></trkpt><trkpt lat="46.1320128" lon="13.4474365"><ele>454.0</ele><time>2026-05-02T14:00:13.123Z</time></trkpt><trkpt lat="46.1318903" lon="13.447353"><ele>454.0</ele><time>2026-05-02T14:00:14.123Z</time></trkpt><trkpt lat="46.1317941" lon="13.4473086"><ele>454.0</ele><time>2026-05-02T14:00:15.126Z</time></trkpt><trkpt lat="46.1317156" lon="13.4472954"><ele>454.0</ele><time>2026-05-02T14:00:16.122Z</time></trkpt><trkpt lat="46.1316282" lon="13.4472935"><ele>454.0</ele><time>2026-05-02T14:00:17.124Z</time></trkpt><trkpt lat="46.1315415" lon="13.447316"><ele>454.0</ele><time>2026-05-02T14:00:18.124Z</time></trkpt><trkpt lat="46.1314457" lon="13.4473624"><ele>454.2</ele><time>2026-05-02T14:00:19.129Z</time></trkpt><trkpt lat="46.1313422" lon="13.4474437"><ele>454.4</ele><time>2026-05-02T14:00:20.131Z</time></trkpt><trkpt lat="46.1312395" lon="13.4475427"><ele>454.6</ele><time>2026-05-02T14:00:21.119Z</time></trkpt><trkpt lat="46.131145" lon="13.4476199"><ele>454.8</ele><time>2026-05-02T14:00:22.119Z</time></trkpt><trkpt lat="46.1310599" lon="13.4476741"><ele>455.0</ele><time>2026-05-02T14:00:23.123Z</time></trkpt><trkpt lat="46.1309831" lon="13.4476998"><ele>454.99999999999994</ele><time>2026-05-02T14:00:24.126Z</time></trkpt><trkpt lat="46.1309069" lon="13.4477275"><ele>455.0</ele><time>2026-05-02T14:00:25.116Z</time></trkpt><trkpt lat="46.1308183" lon="13.4477423"><ele>455.0</ele><time>2026-05-02T14:00:26.155Z</time></trkpt><trkpt lat="46.130735" lon="13.4477536"><ele>455.0</ele><time>2026-05-02T14:00:27.131Z</time></trkpt><trkpt lat="46.1306677" lon="13.4477665"><ele>454.99999999999994</ele><time>2026-05-02T14:00:28.118Z</time></trkpt><trkpt lat="46.1305713" lon="13.4476747"><ele>455.0</ele><time>2026-05-02T14:00:30.121Z</time></trkpt><trkpt lat="46.1305402" lon="13.4475819"><ele>456.16666666666663</ele><time>2026-05-02T14:00:31.129Z</time></trkpt><trkpt lat="46.1305179" lon="13.4474766"><ele>457.3333333333333</ele><time>2026-05-02T14:00:32.113Z</time></trkpt><trkpt lat="46.1305029" lon="13.447363"><ele>458.5</ele><time>2026-05-02T14:00:33.129Z</time></trkpt><trkpt lat="46.1304972" lon="13.4472484"><ele>459.66666666666663</ele><time>2026-05-02T14:00:34.121Z</time></trkpt><trkpt lat="46.1304979" lon="13.4471259"><ele>460.8333333333333</ele><time>2026-05-02T14:00:35.132Z</time></trkpt><trkpt lat="46.1304913" lon="13.4469982"><ele>462.0</ele><time>2026-05-02T14:00:36.123Z</time></trkpt><trkpt lat="46.1304744" lon="13.4468688"><ele>462.0</ele><time>2026-05-02T14:00:37.137Z</time></trkpt><trkpt lat="46.1304537" lon="13.4467329"><ele>462.0</ele><time>2026-05-02T14:00:38.124Z</time></trkpt><trkpt lat="46.130433" lon="13.446617"><ele>462.0</ele><time>2026-05-02T14:00:39.13Z</time></trkpt><trkpt lat="46.1304143" lon="13.4465093"><ele>462.0</ele><time>2026-05-02T14:00:40.129Z</time></trkpt><trkpt lat="46.1303951" lon="13.4464041"><ele>462.0</ele><time>2026-05-02T14:00:41.13Z</time></trkpt><trkpt lat="46.1303682" lon="13.4463171"><ele>462.0</ele><time>2026-05-02T14:00:42.126Z</time></trkpt><trkpt lat="46.130318" lon="13.4462202"><ele>458.5</ele><time>2026-05-02T14:00:43.123Z</time></trkpt><trkpt lat="46.1302586" lon="13.446146"><ele>455.0</ele><time>2026-05-02T14:00:44.136Z</time></trkpt><trkpt lat="46.1301901" lon="13.4460943"><ele>451.5</ele><time>2026-05-02T14:00:45.127Z</time></trkpt><trkpt lat="46.1301099" lon="13.4460582"><ele>448.0</ele><time>2026-05-02T14:00:46.129Z</time></trkpt><trkpt lat="46.1300284" lon="13.4460137"><ele>444.5</ele><time>2026-05-02T14:00:47.125Z</time></trkpt><trkpt lat="46.1299456" lon="13.4459631"><ele>441.0</ele><time>2026-05-02T14:00:48.128Z</time></trkpt><trkpt lat="46.1298533" lon="13.4459224"><ele>440.4</ele><time>2026-05-02T14:00:49.123Z</time></trkpt><trkpt lat="46.1297614" lon="13.4458749"><ele>439.8</ele><time>2026-05-02T14:00:50.124Z</time></trkpt><trkpt lat="46.1296635" lon="13.4458383"><ele>439.19999999999993</ele><time>2026-05-02T14:00:51.134Z</time></trkpt><trkpt lat="46.1295642" lon="13.4458139"><ele>438.59999999999997</ele><time>2026-05-02T14:00:52.122Z</time></trkpt><trkpt lat="46.1294636" lon="13.4457933"><ele>438.0</ele><time>2026-05-02T14:00:53.135Z</time></trkpt><trkpt lat="46.1293638" lon="13.4457852"><ele>438.0</ele><time>2026-05-02T14:00:54.127Z</time></trkpt><trkpt lat="46.1292602" lon="13.4457873"><ele>437.99999999999994</ele><time>2026-05-02T14:00:55.127Z</time></trkpt><trkpt lat="46.1291503" lon="13.4457897"><ele>437.99999999999994</ele><time>2026-05-02T14:00:56.129Z</time></trkpt><trkpt lat="46.1290385" lon="13.4457902"><ele>438.0</ele><time>2026-05-02T14:00:57.128Z</time></trkpt><trkpt lat="46.128931" lon="13.4457845"><ele>438.0</ele><time>2026-05-02T14:00:58.128Z</time></trkpt><trkpt lat="46.128829" lon="13.4457731"><ele>437.79999999999995</ele><time>2026-05-02T14:00:59.137Z</time></trkpt><trkpt lat="46.1287222" lon="13.4457583"><ele>437.59999999999997</ele><time>2026-05-02T14:01:00.128Z</time></trkpt><trkpt lat="46.1286208" lon="13.4457371"><ele>437.40000000000003</ele><time>2026-05-02T14:01:01.125Z</time></trkpt><trkpt lat="46.1285331" lon="13.445722"><ele>437.20000000000005</ele><time>2026-05-02T14:01:02.14Z</time></trkpt><trkpt lat="46.1284552" lon="13.4457151"><ele>437.0</ele><time>2026-05-02T14:01:03.129Z</time></trkpt><trkpt lat="46.1283665" lon="13.445685"><ele>436.99999999999994</ele><time>2026-05-02T14:01:04.131Z</time></trkpt><trkpt lat="46.128282" lon="13.4456629"><ele>437.0</ele><time>2026-05-02T14:01:05.123Z</time></trkpt><trkpt lat="46.1281977" lon="13.4456364"><ele>437.0</ele><time>2026-05-02T14:01:06.13Z</time></trkpt><trkpt lat="46.1281131" lon="13.4456084"><ele>437.0</ele><time>2026-05-02T14:01:07.137Z</time></trkpt><trkpt lat="46.1280344" lon="13.4455802"><ele>436.99999999999994</ele><time>2026-05-02T14:01:08.137Z</time></trkpt><trkpt lat="46.1279613" lon="13.4455479"><ele>437.0</ele><time>2026-05-02T14:01:09.128Z</time></trkpt><trkpt lat="46.1278896" lon="13.4454972"><ele>433.66666666666663</ele><time>2026-05-02T14:01:10.126Z</time></trkpt><trkpt lat="46.12783" lon="13.4454318"><ele>430.3333333333333</ele><time>2026-05-02T14:01:11.131Z</time></trkpt><trkpt lat="46.1277555" lon="13.4453655"><ele>427.0</ele><time>2026-05-02T14:01:12.136Z</time></trkpt><trkpt lat="46.1276757" lon="13.4453281"><ele>423.66666666666663</ele><time>2026-05-02T14:01:13.128Z</time></trkpt><trkpt lat="46.1276033" lon="13.4453007"><ele>420.3333333333333</ele><time>2026-05-02T14:01:14.122Z</time></trkpt><trkpt lat="46.127532" lon="13.445255"><ele>417.0</ele><time>2026-05-02T14:01:15.122Z</time></trkpt><trkpt lat="46.1274606" lon="13.4452064"><ele>417.0</ele><time>2026-05-02T14:01:16.122Z</time></trkpt><trkpt lat="46.1274034" lon="13.4451546"><ele>417.0</ele><time>2026-05-02T14:01:17.125Z</time></trkpt><trkpt lat="46.1273488" lon="13.4450972"><ele>417.0</ele><time>2026-05-02T14:01:18.125Z</time></trkpt><trkpt lat="46.1272891" lon="13.4450371"><ele>417.0</ele><time>2026-05-02T14:01:19.133Z</time></trkpt><trkpt lat="46.1272317" lon="13.4449702"><ele>417.0</ele><time>2026-05-02T14:01:20.125Z</time></trkpt><trkpt lat="46.127176" lon="13.4448999"><ele>417.0</ele><time>2026-05-02T14:01:21.123Z</time></trkpt><trkpt lat="46.1271269" lon="13.4448146"><ele>417.0</ele><time>2026-05-02T14:01:22.129Z</time></trkpt><trkpt lat="46.1270765" lon="13.4447253"><ele>417.1666666666667</ele><time>2026-05-02T14:01:23.127Z</time></trkpt><trkpt lat="46.1270346" lon="13.4446309"><ele>417.33333333333337</ele><time>2026-05-02T14:01:24.125Z</time></trkpt><trkpt lat="46.1269958" lon="13.4445377"><ele>417.5</ele><time>2026-05-02T14:01:25.127Z</time></trkpt><trkpt lat="46.1269545" lon="13.4444451"><ele>417.6666666666667</ele><time>2026-05-02T14:01:26.137Z</time></trkpt><trkpt lat="46.1269149" lon="13.4443532"><ele>417.83333333333337</ele><time>2026-05-02T14:01:27.137Z</time></trkpt><trkpt lat="46.1268753" lon="13.4442669"><ele>418.0</ele><time>2026-05-02T14:01:28.143Z</time></trkpt><trkpt lat="46.1268269" lon="13.4441843"><ele>416.00000000000006</ele><time>2026-05-02T14:01:29.139Z</time></trkpt><trkpt lat="46.1267815" lon="13.4441152"><ele>414.0</ele><time>2026-05-02T14:01:30.127Z</time></trkpt><trkpt lat="46.1267287" lon="13.4440484"><ele>412.0</ele><time>2026-05-02T14:01:31.128Z</time></trkpt><trkpt lat="46.1266644" lon="13.4439984"><ele>410.0</ele><time>2026-05-02T14:01:32.13Z</time></trkpt><trkpt lat="46.1265865" lon="13.4439535"><ele>408.00000000000006</ele><time>2026-05-02T14:01:33.124Z</time></trkpt><trkpt lat="46.1265114" lon="13.4439132"><ele>406.0</ele><time>2026-05-02T14:01:34.146Z</time></trkpt><trkpt lat="46.1264347" lon="13.4438659"><ele>406.00000000000006</ele><time>2026-05-02T14:01:35.138Z</time></trkpt><trkpt lat="46.1263545" lon="13.4438212"><ele>406.0</ele><time>2026-05-02T14:01:36.147Z</time></trkpt><trkpt lat="46.1262749" lon="13.4437789"><ele>406.0</ele><time>2026-05-02T14:01:37.137Z</time></trkpt><trkpt lat="46.1262123" lon="13.4437358"><ele>406.0</ele><time>2026-05-02T14:01:38.139Z</time></trkpt><trkpt lat="46.1261545" lon="13.4436819"><ele>406.00000000000006</ele><time>2026-05-02T14:01:39.137Z</time></trkpt><trkpt lat="46.1261005" lon="13.4436238"><ele>406.0</ele><time>2026-05-02T14:01:40.136Z</time></trkpt><trkpt lat="46.1260397" lon="13.4435504"><ele>404.50000000000006</ele><time>2026-05-02T14:01:41.139Z</time></trkpt><trkpt lat="46.1259845" lon="13.4434902"><ele>403.0</ele><time>2026-05-02T14:01:42.137Z</time></trkpt><trkpt lat="46.1259242" lon="13.4434284"><ele>401.5</ele><time>2026-05-02T14:01:43.131Z</time></trkpt><trkpt lat="46.1258608" lon="13.4433638"><ele>400.0</ele><time>2026-05-02T14:01:44.127Z</time></trkpt><trkpt lat="46.1258045" lon="13.4433065"><ele>398.50000000000006</ele><time>2026-05-02T14:01:45.127Z</time></trkpt><trkpt lat="46.1257532" lon="13.4432527"><ele>397.0</ele><time>2026-05-02T14:01:46.128Z</time></trkpt><trkpt lat="46.1256753" lon="13.443121"><ele>398.0</ele><time>2026-05-02T14:01:48.141Z</time></trkpt><trkpt lat="46.1256025" lon="13.4429561"><ele>399.0</ele><time>2026-05-02T14:01:50.123Z</time></trkpt><trkpt lat="46.1255614" lon="13.4428407"><ele>400.0</ele><time>2026-05-02T14:01:51.133Z</time></trkpt><trkpt lat="46.1255204" lon="13.442712"><ele>401.0</ele><time>2026-05-02T14:01:52.123Z</time></trkpt><trkpt lat="46.1254878" lon="13.4425998"><ele>402.0</ele><time>2026-05-02T14:01:53.133Z</time></trkpt><trkpt lat="46.1254607" lon="13.4424812"><ele>402.0</ele><time>2026-05-02T14:01:54.123Z</time></trkpt><trkpt lat="46.1254272" lon="13.4423665"><ele>402.0</ele><time>2026-05-02T14:01:55.127Z</time></trkpt><trkpt lat="46.1254067" lon="13.4422689"><ele>402.0</ele><time>2026-05-02T14:01:56.13Z</time></trkpt><trkpt lat="46.1254012" lon="13.4421754"><ele>402.0</ele><time>2026-05-02T14:01:57.137Z</time></trkpt><trkpt lat="46.1254095" lon="13.4420295"><ele>402.0</ele><time>2026-05-02T14:01:59.136Z</time></trkpt><trkpt lat="46.125385" lon="13.4419269"><ele>402.0</ele><time>2026-05-02T14:02:31.131Z</time></trkpt><trkpt lat="46.1253656" lon="13.4417962"><ele>402.6</ele><time>2026-05-02T14:02:34.131Z</time></trkpt><trkpt lat="46.1253469" lon="13.4416763"><ele>403.20000000000005</ele><time>2026-05-02T14:02:36.134Z</time></trkpt><trkpt lat="46.1253253" lon="13.4415307"><ele>403.8</ele><time>2026-05-02T14:02:38.132Z</time></trkpt><trkpt lat="46.1252857" lon="13.441363"><ele>404.4</ele><time>2026-05-02T14:02:40.135Z</time></trkpt><trkpt lat="46.1252668" lon="13.4412685"><ele>405.0</ele><time>2026-05-02T14:02:41.131Z</time></trkpt><trkpt lat="46.1252532" lon="13.4411219"><ele>402.8</ele><time>2026-05-02T14:02:42.124Z</time></trkpt><trkpt lat="46.125262" lon="13.4410005"><ele>400.6</ele><time>2026-05-02T14:02:43.125Z</time></trkpt><trkpt lat="46.1252752" lon="13.4408674"><ele>398.4</ele><time>2026-05-02T14:02:44.125Z</time></trkpt><trkpt lat="46.125291" lon="13.4407308"><ele>396.2</ele><time>2026-05-02T14:02:45.124Z</time></trkpt><trkpt lat="46.1253078" lon="13.4406012"><ele>394.0</ele><time>2026-05-02T14:02:46.12Z</time></trkpt><trkpt lat="46.1253239" lon="13.4404715"><ele>392.1666666666667</ele><time>2026-05-02T14:02:47.12Z</time></trkpt><trkpt lat="46.1253441" lon="13.4403354"><ele>390.33333333333337</ele><time>2026-05-02T14:02:48.132Z</time></trkpt><trkpt lat="46.125358" lon="13.4402102"><ele>388.5</ele><time>2026-05-02T14:02:49.124Z</time></trkpt><trkpt lat="46.1253654" lon="13.4400904"><ele>386.6666666666667</ele><time>2026-05-02T14:02:50.124Z</time></trkpt><trkpt lat="46.1253614" lon="13.439988"><ele>384.83333333333337</ele><time>2026-05-02T14:02:51.123Z</time></trkpt><trkpt lat="46.1253379" lon="13.4398954"><ele>383.0</ele><time>2026-05-02T14:02:52.127Z</time></trkpt><trkpt lat="46.1253024" lon="13.4398138"><ele>383.0</ele><time>2026-05-02T14:02:53.134Z</time></trkpt><trkpt lat="46.1252251" lon="13.4397172"><ele>383.0</ele><time>2026-05-02T14:02:54.123Z</time></trkpt><trkpt lat="46.1251459" lon="13.439608"><ele>383.0</ele><time>2026-05-02T14:02:55.118Z</time></trkpt><trkpt lat="46.1250808" lon="13.4395089"><ele>383.0</ele><time>2026-05-02T14:02:56.123Z</time></trkpt><trkpt lat="46.1250208" lon="13.4394271"><ele>383.0</ele><time>2026-05-02T14:02:57.132Z</time></trkpt><trkpt lat="46.1249657" lon="13.4393448"><ele>380.5</ele><time>2026-05-02T14:02:58.132Z</time></trkpt><trkpt lat="46.1249159" lon="13.4392473"><ele>378.0</ele><time>2026-05-02T14:02:59.133Z</time></trkpt><trkpt lat="46.1248709" lon="13.4391547"><ele>375.5</ele><time>2026-05-02T14:03:00.135Z</time></trkpt><trkpt lat="46.1248303" lon="13.4390721"><ele>373.0</ele><time>2026-05-02T14:03:01.131Z</time></trkpt><trkpt lat="46.1248014" lon="13.4389856"><ele>370.5</ele><time>2026-05-02T14:03:02.127Z</time></trkpt><trkpt lat="46.1247753" lon="13.4388979"><ele>368.0</ele><time>2026-05-02T14:03:03.131Z</time></trkpt><trkpt lat="46.1247379" lon="13.4387267"><ele>363.4</ele><time>2026-05-02T14:03:05.135Z</time></trkpt><trkpt lat="46.1246682" lon="13.4385983"><ele>358.79999999999995</ele><time>2026-05-02T14:03:07.129Z</time></trkpt><trkpt lat="46.1245609" lon="13.4385492"><ele>354.2</ele><time>2026-05-02T14:03:09.139Z</time></trkpt><trkpt lat="46.1244352" lon="13.4385557"><ele>349.6</ele><time>2026-05-02T14:03:11.125Z</time></trkpt><trkpt lat="46.1243636" lon="13.4385759"><ele>345.0</ele><time>2026-05-02T14:03:12.122Z</time></trkpt><trkpt lat="46.1242821" lon="13.438611"><ele>345.0</ele><time>2026-05-02T14:03:13.124Z</time></trkpt><trkpt lat="46.1241949" lon="13.4386676"><ele>345.0</ele><time>2026-05-02T14:03:14.137Z</time></trkpt><trkpt lat="46.12412" lon="13.4387238"><ele>345.0</ele><time>2026-05-02T14:03:15.136Z</time></trkpt><trkpt lat="46.124054" lon="13.4387821"><ele>345.0</ele><time>2026-05-02T14:03:16.134Z</time></trkpt><trkpt lat="46.1239915" lon="13.4388398"><ele>345.0</ele><time>2026-05-02T14:03:17.122Z</time></trkpt><trkpt lat="46.1239342" lon="13.4388886"><ele>345.0</ele><time>2026-05-02T14:03:18.13Z</time></trkpt><trkpt lat="46.123877" lon="13.4389297"><ele>346.3333333333333</ele><time>2026-05-02T14:03:19.132Z</time></trkpt><trkpt lat="46.1237556" lon="13.4389943"><ele>347.6666666666667</ele><time>2026-05-02T14:03:21.122Z</time></trkpt><trkpt lat="46.1236838" lon="13.4390022"><ele>349.0</ele><time>2026-05-02T14:03:22.12Z</time></trkpt><trkpt lat="46.1236077" lon="13.4390022"><ele>350.33333333333337</ele><time>2026-05-02T14:03:23.13Z</time></trkpt><trkpt lat="46.1235322" lon="13.4389985"><ele>351.6666666666667</ele><time>2026-05-02T14:03:24.127Z</time></trkpt><trkpt lat="46.1234545" lon="13.4389886"><ele>353.0</ele><time>2026-05-02T14:03:25.132Z</time></trkpt><trkpt lat="46.1233713" lon="13.4389762"><ele>353.0</ele><time>2026-05-02T14:03:26.119Z</time></trkpt><trkpt lat="46.1232878" lon="13.4389699"><ele>353.0</ele><time>2026-05-02T14:03:27.126Z</time></trkpt><trkpt lat="46.1232098" lon="13.4389642"><ele>353.0</ele><time>2026-05-02T14:03:28.122Z</time></trkpt><trkpt lat="46.1231303" lon="13.4389582"><ele>353.0</ele><time>2026-05-02T14:03:29.131Z</time></trkpt><trkpt lat="46.1230542" lon="13.4389568"><ele>353.0</ele><time>2026-05-02T14:03:30.119Z</time></trkpt><trkpt lat="46.1229278" lon="13.438935"><ele>353.0</ele><time>2026-05-02T14:03:32.128Z</time></trkpt><trkpt lat="46.1228616" lon="13.4389114"><ele>353.33333333333337</ele><time>2026-05-02T14:03:33.127Z</time></trkpt><trkpt lat="46.1227887" lon="13.4388931"><ele>353.6666666666667</ele><time>2026-05-02T14:03:34.125Z</time></trkpt><trkpt lat="46.1227195" lon="13.4388827"><ele>354.0</ele><time>2026-05-02T14:03:35.122Z</time></trkpt><trkpt lat="46.1226439" lon="13.4388718"><ele>354.3333333333333</ele><time>2026-05-02T14:03:36.119Z</time></trkpt><trkpt lat="46.1225637" lon="13.4388628"><ele>354.66666666666663</ele><time>2026-05-02T14:03:37.128Z</time></trkpt><trkpt lat="46.1224812" lon="13.4388504"><ele>355.0</ele><time>2026-05-02T14:03:38.116Z</time></trkpt><trkpt lat="46.1224001" lon="13.4388428"><ele>355.16666666666663</ele><time>2026-05-02T14:03:39.132Z</time></trkpt><trkpt lat="46.1223199" lon="13.4388234"><ele>355.3333333333333</ele><time>2026-05-02T14:03:40.12Z</time></trkpt><trkpt lat="46.1222425" lon="13.4388033"><ele>355.5</ele><time>2026-05-02T14:03:41.119Z</time></trkpt><trkpt lat="46.122175" lon="13.4387779"><ele>355.6666666666667</ele><time>2026-05-02T14:03:42.121Z</time></trkpt><trkpt lat="46.1220967" lon="13.4387605"><ele>355.83333333333337</ele><time>2026-05-02T14:03:43.125Z</time></trkpt><trkpt lat="46.1220221" lon="13.438747"><ele>356.0</ele><time>2026-05-02T14:03:44.123Z</time></trkpt><trkpt lat="46.1219481" lon="13.4387385"><ele>352.85714285714283</ele><time>2026-05-02T14:03:45.116Z</time></trkpt><trkpt lat="46.1218708" lon="13.4387415"><ele>349.7142857142857</ele><time>2026-05-02T14:03:46.126Z</time></trkpt><trkpt lat="46.121795" lon="13.4387422"><ele>346.57142857142856</ele><time>2026-05-02T14:03:47.119Z</time></trkpt><trkpt lat="46.121723" lon="13.438751"><ele>343.42857142857144</ele><time>2026-05-02T14:03:48.122Z</time></trkpt><trkpt lat="46.1216573" lon="13.4387362"><ele>340.2857142857143</ele><time>2026-05-02T14:03:49.115Z</time></trkpt><trkpt lat="46.1215854" lon="13.438694"><ele>337.1428571428571</ele><time>2026-05-02T14:03:50.117Z</time></trkpt><trkpt lat="46.1215236" lon="13.4386422"><ele>334.0</ele><time>2026-05-02T14:03:51.117Z</time></trkpt><trkpt lat="46.1214658" lon="13.4385985"><ele>334.0</ele><time>2026-05-02T14:03:52.118Z</time></trkpt><trkpt lat="46.1214006" lon="13.4385656"><ele>334.0</ele><time>2026-05-02T14:03:53.121Z</time></trkpt><trkpt lat="46.1213303" lon="13.4385539"><ele>334.0</ele><time>2026-05-02T14:03:54.113Z</time></trkpt><trkpt lat="46.1212568" lon="13.4385531"><ele>334.0</ele><time>2026-05-02T14:03:55.123Z</time></trkpt><trkpt lat="46.1211539" lon="13.4385266"><ele>334.0</ele><time>2026-05-02T14:03:57.121Z</time></trkpt><trkpt lat="46.1210602" lon="13.43843"><ele>334.0</ele><time>2026-05-02T14:03:59.126Z</time></trkpt><trkpt lat="46.121028" lon="13.4383437"><ele>334.0</ele><time>2026-05-02T14:04:00.106Z</time></trkpt><trkpt lat="46.1209959" lon="13.4382615"><ele>334.0</ele><time>2026-05-02T14:04:01.119Z</time></trkpt><trkpt lat="46.1209081" lon="13.4381509"><ele>334.0</ele><time>2026-05-02T14:04:03.115Z</time></trkpt><trkpt lat="46.1208483" lon="13.4381208"><ele>334.0</ele><time>2026-05-02T14:04:04.117Z</time></trkpt><trkpt lat="46.1207297" lon="13.4380982"><ele>334.0</ele><time>2026-05-02T14:04:06.116Z</time></trkpt><trkpt lat="46.1206076" lon="13.4380619"><ele>334.3333333333333</ele><time>2026-05-02T14:04:08.121Z</time></trkpt><trkpt lat="46.1205463" lon="13.4379432"><ele>334.66666666666663</ele><time>2026-05-02T14:04:10.116Z</time></trkpt><trkpt lat="46.1205489" lon="13.4378484"><ele>335.0</ele><time>2026-05-02T14:04:11.116Z</time></trkpt><trkpt lat="46.1205549" lon="13.4377564"><ele>335.3333333333333</ele><time>2026-05-02T14:04:12.114Z</time></trkpt><trkpt lat="46.1205512" lon="13.4375663"><ele>335.6666666666667</ele><time>2026-05-02T14:04:14.12Z</time></trkpt><trkpt lat="46.1205411" lon="13.4374607"><ele>336.0</ele><time>2026-05-02T14:04:15.119Z</time></trkpt><trkpt lat="46.1205336" lon="13.4373612"><ele>336.0</ele><time>2026-05-02T14:04:16.119Z</time></trkpt><trkpt lat="46.120519" lon="13.4372628"><ele>336.0</ele><time>2026-05-02T14:04:17.13Z</time></trkpt><trkpt lat="46.1204927" lon="13.4370925"><ele>336.0</ele><time>2026-05-02T14:04:19.12Z</time></trkpt><trkpt lat="46.1204644" lon="13.4370077"><ele>336.0</ele><time>2026-05-02T14:04:20.121Z</time></trkpt><trkpt lat="46.1204307" lon="13.4369278"><ele>336.0</ele><time>2026-05-02T14:04:21.127Z</time></trkpt><trkpt lat="46.1204078" lon="13.436838"><ele>336.0</ele><time>2026-05-02T14:04:22.135Z</time></trkpt><trkpt lat="46.120391" lon="13.4367491"><ele>332.6</ele><time>2026-05-02T14:04:23.118Z</time></trkpt><trkpt lat="46.1203738" lon="13.4366561"><ele>329.20000000000005</ele><time>2026-05-02T14:04:24.125Z</time></trkpt><trkpt lat="46.1203488" lon="13.4364945"><ele>325.79999999999995</ele><time>2026-05-02T14:04:26.122Z</time></trkpt><trkpt lat="46.1202979" lon="13.4363442"><ele>322.4</ele><time>2026-05-02T14:04:28.129Z</time></trkpt><trkpt lat="46.1202606" lon="13.4362702"><ele>319.0</ele><time>2026-05-02T14:04:29.137Z</time></trkpt><trkpt lat="46.120175" lon="13.4361542"><ele>314.4</ele><time>2026-05-02T14:04:31.138Z</time></trkpt><trkpt lat="46.1200814" lon="13.4360385"><ele>309.79999999999995</ele><time>2026-05-02T14:04:33.128Z</time></trkpt><trkpt lat="46.119975" lon="13.4359607"><ele>305.20000000000005</ele><time>2026-05-02T14:04:35.135Z</time></trkpt><trkpt lat="46.1199088" lon="13.4359535"><ele>300.6</ele><time>2026-05-02T14:04:36.126Z</time></trkpt><trkpt lat="46.1198337" lon="13.4359704"><ele>296.0</ele><time>2026-05-02T14:04:37.116Z</time></trkpt><trkpt lat="46.1197546" lon="13.4360031"><ele>293.8</ele><time>2026-05-02T14:04:38.119Z</time></trkpt><trkpt lat="46.1196702" lon="13.4360471"><ele>291.6</ele><time>2026-05-02T14:04:39.125Z</time></trkpt><trkpt lat="46.1195795" lon="13.4360858"><ele>289.4</ele><time>2026-05-02T14:04:40.148Z</time></trkpt><trkpt lat="46.1194934" lon="13.4361253"><ele>287.2</ele><time>2026-05-02T14:04:41.13Z</time></trkpt><trkpt lat="46.1194091" lon="13.4361682"><ele>285.0</ele><time>2026-05-02T14:04:42.126Z</time></trkpt><trkpt lat="46.1193226" lon="13.4362109"><ele>285.0</ele><time>2026-05-02T14:04:43.13Z</time></trkpt><trkpt lat="46.119239" lon="13.4362516"><ele>285.0</ele><time>2026-05-02T14:04:44.125Z</time></trkpt><trkpt lat="46.1191635" lon="13.436288"><ele>285.0</ele><time>2026-05-02T14:04:45.125Z</time></trkpt><trkpt lat="46.119089" lon="13.4363194"><ele>285.0</ele><time>2026-05-02T14:04:46.124Z</time></trkpt><trkpt lat="46.1190111" lon="13.4363541"><ele>285.0</ele><time>2026-05-02T14:04:47.121Z</time></trkpt><trkpt lat="46.1189403" lon="13.4363845"><ele>285.0</ele><time>2026-05-02T14:04:48.122Z</time></trkpt><trkpt lat="46.1188679" lon="13.436418"><ele>286.4</ele><time>2026-05-02T14:04:49.131Z</time></trkpt><trkpt lat="46.1187941" lon="13.4364549"><ele>287.8</ele><time>2026-05-02T14:04:50.119Z</time></trkpt><trkpt lat="46.1187254" lon="13.4364903"><ele>289.2</ele><time>2026-05-02T14:04:51.129Z</time></trkpt><trkpt lat="46.1186125" lon="13.4365598"><ele>290.6</ele><time>2026-05-02T14:04:53.128Z</time></trkpt><trkpt lat="46.1185019" lon="13.4366082"><ele>292.0</ele><time>2026-05-02T14:04:55.124Z</time></trkpt><trkpt lat="46.1183869" lon="13.4366098"><ele>292.0</ele><time>2026-05-02T14:04:57.12Z</time></trkpt><trkpt lat="46.1182719" lon="13.4365833"><ele>292.0</ele><time>2026-05-02T14:04:59.123Z</time></trkpt><trkpt lat="46.1181512" lon="13.4365151"><ele>292.0</ele><time>2026-05-02T14:05:01.128Z</time></trkpt><trkpt lat="46.1180832" lon="13.4364753"><ele>292.0</ele><time>2026-05-02T14:05:02.127Z</time></trkpt><trkpt lat="46.1180086" lon="13.4364401"><ele>292.0</ele><time>2026-05-02T14:05:03.132Z</time></trkpt><trkpt lat="46.117933" lon="13.4363951"><ele>291.8333333333333</ele><time>2026-05-02T14:05:04.127Z</time></trkpt><trkpt lat="46.1178578" lon="13.4363539"><ele>291.66666666666663</ele><time>2026-05-02T14:05:05.129Z</time></trkpt><trkpt lat="46.1177843" lon="13.4363144"><ele>291.5</ele><time>2026-05-02T14:05:06.13Z</time></trkpt><trkpt lat="46.1177103" lon="13.4362852"><ele>291.3333333333333</ele><time>2026-05-02T14:05:07.129Z</time></trkpt><trkpt lat="46.1176312" lon="13.4362837"><ele>291.1666666666667</ele><time>2026-05-02T14:05:08.127Z</time></trkpt><trkpt lat="46.1175422" lon="13.4362898"><ele>291.0</ele><time>2026-05-02T14:05:09.129Z</time></trkpt><trkpt lat="46.1174602" lon="13.4362904"><ele>291.1666666666667</ele><time>2026-05-02T14:05:10.123Z</time></trkpt><trkpt lat="46.1173856" lon="13.4362648"><ele>291.3333333333333</ele><time>2026-05-02T14:05:11.13Z</time></trkpt><trkpt lat="46.1173195" lon="13.4362238"><ele>291.5</ele><time>2026-05-02T14:05:12.128Z</time></trkpt><trkpt lat="46.1172508" lon="13.4361775"><ele>291.66666666666663</ele><time>2026-05-02T14:05:13.123Z</time></trkpt><trkpt lat="46.1171909" lon="13.436108"><ele>291.8333333333333</ele><time>2026-05-02T14:05:14.129Z</time></trkpt><trkpt lat="46.1171271" lon="13.4360122"><ele>292.0</ele><time>2026-05-02T14:05:15.12Z</time></trkpt><trkpt lat="46.1170739" lon="13.4359123"><ele>292.0</ele><time>2026-05-02T14:05:16.115Z</time></trkpt><trkpt lat="46.1170209" lon="13.4358173"><ele>292.0</ele><time>2026-05-02T14:05:17.119Z</time></trkpt><trkpt lat="46.1169614" lon="13.435726"><ele>292.0</ele><time>2026-05-02T14:05:18.118Z</time></trkpt><trkpt lat="46.1169072" lon="13.4356433"><ele>292.0</ele><time>2026-05-02T14:05:19.117Z</time></trkpt><trkpt lat="46.1168364" lon="13.4355594"><ele>292.0</ele><time>2026-05-02T14:05:20.112Z</time></trkpt><trkpt lat="46.1167639" lon="13.4354806"><ele>292.0</ele><time>2026-05-02T14:05:21.126Z</time></trkpt><trkpt lat="46.1166866" lon="13.4354137"><ele>292.6</ele><time>2026-05-02T14:05:22.132Z</time></trkpt><trkpt lat="46.1166106" lon="13.4353488"><ele>293.2</ele><time>2026-05-02T14:05:23.125Z</time></trkpt><trkpt lat="46.116527" lon="13.4352793"><ele>293.8</ele><time>2026-05-02T14:05:24.123Z</time></trkpt><trkpt lat="46.1164457" lon="13.4352151"><ele>294.4</ele><time>2026-05-02T14:05:25.124Z</time></trkpt><trkpt lat="46.116367" lon="13.4351567"><ele>295.0</ele><time>2026-05-02T14:05:26.119Z</time></trkpt><trkpt lat="46.1162844" lon="13.4351032"><ele>295.0</ele><time>2026-05-02T14:05:27.127Z</time></trkpt><trkpt lat="46.11619" lon="13.4350515"><ele>295.0</ele><time>2026-05-02T14:05:28.13Z</time></trkpt><trkpt lat="46.1161025" lon="13.4349979"><ele>295.0</ele><time>2026-05-02T14:05:29.122Z</time></trkpt><trkpt lat="46.1160289" lon="13.4349349"><ele>295.0</ele><time>2026-05-02T14:05:30.127Z</time></trkpt><trkpt lat="46.1159662" lon="13.4348709"><ele>295.0</ele><time>2026-05-02T14:05:31.137Z</time></trkpt><trkpt lat="46.1159013" lon="13.4347916"><ele>295.0</ele><time>2026-05-02T14:05:32.127Z</time></trkpt><trkpt lat="46.115843" lon="13.4346868"><ele>292.6</ele><time>2026-05-02T14:05:33.124Z</time></trkpt><trkpt lat="46.1157967" lon="13.4345623"><ele>290.2</ele><time>2026-05-02T14:05:34.136Z</time></trkpt><trkpt lat="46.1157648" lon="13.4344318"><ele>287.8</ele><time>2026-05-02T14:05:35.121Z</time></trkpt><trkpt lat="46.1157328" lon="13.4342828"><ele>285.4</ele><time>2026-05-02T14:05:36.126Z</time></trkpt><trkpt lat="46.1156994" lon="13.4341152"><ele>283.0</ele><time>2026-05-02T14:05:37.124Z</time></trkpt><trkpt lat="46.1156696" lon="13.4339477"><ele>285.8</ele><time>2026-05-02T14:05:38.119Z</time></trkpt><trkpt lat="46.1156399" lon="13.4337854"><ele>288.6</ele><time>2026-05-02T14:05:39.123Z</time></trkpt><trkpt lat="46.1156108" lon="13.4336434"><ele>291.4</ele><time>2026-05-02T14:05:40.126Z</time></trkpt><trkpt lat="46.1155758" lon="13.4335282"><ele>294.2</ele><time>2026-05-02T14:05:41.117Z</time></trkpt><trkpt lat="46.1155291" lon="13.4334485"><ele>297.0</ele><time>2026-05-02T14:05:42.126Z</time></trkpt><trkpt lat="46.1154588" lon="13.4333981"><ele>297.0</ele><time>2026-05-02T14:05:43.118Z</time></trkpt><trkpt lat="46.1153789" lon="13.4333626"><ele>297.0</ele><time>2026-05-02T14:05:44.126Z</time></trkpt><trkpt lat="46.1152943" lon="13.433328"><ele>297.0</ele><time>2026-05-02T14:05:45.121Z</time></trkpt><trkpt lat="46.1152239" lon="13.4332902"><ele>297.0</ele><time>2026-05-02T14:05:46.118Z</time></trkpt><trkpt lat="46.1151645" lon="13.4332263"><ele>297.0</ele><time>2026-05-02T14:05:47.122Z</time></trkpt><trkpt lat="46.1151092" lon="13.4331464"><ele>297.0</ele><time>2026-05-02T14:05:48.125Z</time></trkpt><trkpt lat="46.1150637" lon="13.4330554"><ele>293.8333333333333</ele><time>2026-05-02T14:05:49.132Z</time></trkpt><trkpt lat="46.1150435" lon="13.4329421"><ele>290.6666666666667</ele><time>2026-05-02T14:05:50.12Z</time></trkpt><trkpt lat="46.1150269" lon="13.4328231"><ele>287.5</ele><time>2026-05-02T14:05:51.119Z</time></trkpt><trkpt lat="46.1150138" lon="13.4327015"><ele>284.33333333333337</ele><time>2026-05-02T14:05:52.122Z</time></trkpt><trkpt lat="46.1150039" lon="13.4325923"><ele>281.1666666666667</ele><time>2026-05-02T14:05:53.129Z</time></trkpt><trkpt lat="46.1149954" lon="13.4324953"><ele>278.0</ele><time>2026-05-02T14:05:54.116Z</time></trkpt><trkpt lat="46.1149805" lon="13.4323989"><ele>278.0</ele><time>2026-05-02T14:05:55.123Z</time></trkpt><trkpt lat="46.1149649" lon="13.4323006"><ele>278.0</ele><time>2026-05-02T14:05:56.116Z</time></trkpt><trkpt lat="46.1149384" lon="13.4322001"><ele>278.0</ele><time>2026-05-02T14:05:57.126Z</time></trkpt><trkpt lat="46.1149133" lon="13.4320867"><ele>278.0</ele><time>2026-05-02T14:05:58.125Z</time></trkpt><trkpt lat="46.1148905" lon="13.4319661"><ele>278.0</ele><time>2026-05-02T14:05:59.121Z</time></trkpt><trkpt lat="46.1148662" lon="13.4318437"><ele>278.0</ele><time>2026-05-02T14:06:00.119Z</time></trkpt><trkpt lat="46.1148494" lon="13.4317288"><ele>279.6</ele><time>2026-05-02T14:06:01.123Z</time></trkpt><trkpt lat="46.1148342" lon="13.431631"><ele>281.20000000000005</ele><time>2026-05-02T14:06:02.121Z</time></trkpt><trkpt lat="46.1148431" lon="13.4314598"><ele>282.8</ele><time>2026-05-02T14:06:04.125Z</time></trkpt><trkpt lat="46.1148797" lon="13.4312893"><ele>284.40000000000003</ele><time>2026-05-02T14:06:06.123Z</time></trkpt><trkpt lat="46.1149015" lon="13.4311873"><ele>286.0</ele><time>2026-05-02T14:06:07.116Z</time></trkpt><trkpt lat="46.1149197" lon="13.431073"><ele>282.8333333333333</ele><time>2026-05-02T14:06:08.12Z</time></trkpt><trkpt lat="46.1149331" lon="13.4309464"><ele>279.66666666666663</ele><time>2026-05-02T14:06:09.119Z</time></trkpt><trkpt lat="46.114952" lon="13.4308108"><ele>276.5</ele><time>2026-05-02T14:06:10.124Z</time></trkpt><trkpt lat="46.1149735" lon="13.4306733"><ele>273.3333333333333</ele><time>2026-05-02T14:06:11.124Z</time></trkpt><trkpt lat="46.1149886" lon="13.4305617"><ele>270.1666666666667</ele><time>2026-05-02T14:06:12.133Z</time></trkpt><trkpt lat="46.1149983" lon="13.4304569"><ele>267.0</ele><time>2026-05-02T14:06:13.131Z</time></trkpt><trkpt lat="46.115" lon="13.4303655"><ele>266.0</ele><time>2026-05-02T14:06:14.127Z</time></trkpt><trkpt lat="46.1149605" lon="13.4302002"><ele>265.0</ele><time>2026-05-02T14:06:16.131Z</time></trkpt><trkpt lat="46.1148262" lon="13.4301444"><ele>264.0</ele><time>2026-05-02T14:06:18.133Z</time></trkpt><trkpt lat="46.1147329" lon="13.4301546"><ele>263.0</ele><time>2026-05-02T14:06:19.129Z</time></trkpt><trkpt lat="46.1146319" lon="13.4301793"><ele>263.83333333333337</ele><time>2026-05-02T14:06:20.122Z</time></trkpt><trkpt lat="46.1145406" lon="13.4302006"><ele>264.6666666666667</ele><time>2026-05-02T14:06:21.121Z</time></trkpt><trkpt lat="46.1144617" lon="13.4302307"><ele>265.5</ele><time>2026-05-02T14:06:22.125Z</time></trkpt><trkpt lat="46.1143951" lon="13.4302719"><ele>266.3333333333333</ele><time>2026-05-02T14:06:23.127Z</time></trkpt><trkpt lat="46.1143325" lon="13.4303242"><ele>267.16666666666663</ele><time>2026-05-02T14:06:24.133Z</time></trkpt><trkpt lat="46.1142405" lon="13.430425"><ele>268.0</ele><time>2026-05-02T14:06:26.145Z</time></trkpt><trkpt lat="46.1141618" lon="13.4305557"><ele>268.0</ele><time>2026-05-02T14:06:28.131Z</time></trkpt><trkpt lat="46.1140899" lon="13.430702"><ele>268.0</ele><time>2026-05-02T14:06:30.131Z</time></trkpt><trkpt lat="46.1140519" lon="13.4307819"><ele>268.0</ele><time>2026-05-02T14:06:31.135Z</time></trkpt><trkpt lat="46.1140099" lon="13.4308593"><ele>268.0</ele><time>2026-05-02T14:06:32.124Z</time></trkpt><trkpt lat="46.1139207" lon="13.430976"><ele>268.0</ele><time>2026-05-02T14:06:34.141Z</time></trkpt><trkpt lat="46.1138028" lon="13.4310522"><ele>265.16666666666663</ele><time>2026-05-02T14:06:36.126Z</time></trkpt><trkpt lat="46.1137293" lon="13.4310835"><ele>262.3333333333333</ele><time>2026-05-02T14:06:37.124Z</time></trkpt><trkpt lat="46.1136606" lon="13.4311095"><ele>259.5</ele><time>2026-05-02T14:06:38.15Z</time></trkpt><trkpt lat="46.1135964" lon="13.4311428"><ele>256.6666666666667</ele><time>2026-05-02T14:06:39.122Z</time></trkpt><trkpt lat="46.1135352" lon="13.4311824"><ele>253.83333333333334</ele><time>2026-05-02T14:06:40.123Z</time></trkpt><trkpt lat="46.1134716" lon="13.4312113"><ele>251.0</ele><time>2026-05-02T14:06:41.124Z</time></trkpt><trkpt lat="46.1133472" lon="13.4312082"><ele>250.99999999999997</ele><time>2026-05-02T14:06:43.121Z</time></trkpt><trkpt lat="46.1132864" lon="13.431173"><ele>251.0</ele><time>2026-05-02T14:06:44.122Z</time></trkpt><trkpt lat="46.1132345" lon="13.4311165"><ele>250.99999999999997</ele><time>2026-05-02T14:06:45.118Z</time></trkpt><trkpt lat="46.1131782" lon="13.4310492"><ele>250.99999999999997</ele><time>2026-05-02T14:06:46.118Z</time></trkpt><trkpt lat="46.1131136" lon="13.4309855"><ele>251.0</ele><time>2026-05-02T14:06:47.122Z</time></trkpt><trkpt lat="46.1130483" lon="13.4309356"><ele>250.99999999999997</ele><time>2026-05-02T14:06:48.123Z</time></trkpt><trkpt lat="46.112965" lon="13.4309035"><ele>250.99999999999997</ele><time>2026-05-02T14:06:49.127Z</time></trkpt><trkpt lat="46.1128771" lon="13.4308931"><ele>250.85714285714283</ele><time>2026-05-02T14:06:50.126Z</time></trkpt><trkpt lat="46.1127911" lon="13.4309022"><ele>250.71428571428572</ele><time>2026-05-02T14:06:51.134Z</time></trkpt><trkpt lat="46.1127217" lon="13.4309109"><ele>250.57142857142856</ele><time>2026-05-02T14:06:52.126Z</time></trkpt><trkpt lat="46.1126561" lon="13.4309184"><ele>250.42857142857142</ele><time>2026-05-02T14:06:53.131Z</time></trkpt><trkpt lat="46.1125916" lon="13.4309115"><ele>250.28571428571428</ele><time>2026-05-02T14:06:54.128Z</time></trkpt><trkpt lat="46.1125263" lon="13.4308771"><ele>250.14285714285714</ele><time>2026-05-02T14:06:55.118Z</time></trkpt><trkpt lat="46.1124696" lon="13.4308274"><ele>250.0</ele><time>2026-05-02T14:06:56.122Z</time></trkpt><trkpt lat="46.1124193" lon="13.4307725"><ele>249.14285714285714</ele><time>2026-05-02T14:06:57.117Z</time></trkpt><trkpt lat="46.1123741" lon="13.4307014"><ele>248.28571428571428</ele><time>2026-05-02T14:06:58.127Z</time></trkpt><trkpt lat="46.1123332" lon="13.4306112"><ele>247.42857142857142</ele><time>2026-05-02T14:06:59.12Z</time></trkpt><trkpt lat="46.1122923" lon="13.4305278"><ele>246.57142857142856</ele><time>2026-05-02T14:07:00.126Z</time></trkpt><trkpt lat="46.1122417" lon="13.4304472"><ele>245.71428571428572</ele><time>2026-05-02T14:07:01.127Z</time></trkpt><trkpt lat="46.1121795" lon="13.4303853"><ele>244.85714285714283</ele><time>2026-05-02T14:07:02.124Z</time></trkpt><trkpt lat="46.1121252" lon="13.430335"><ele>243.99999999999997</ele><time>2026-05-02T14:07:03.119Z</time></trkpt><trkpt lat="46.1120247" lon="13.4302234"><ele>243.99999999999997</ele><time>2026-05-02T14:07:05.135Z</time></trkpt><trkpt lat="46.1119727" lon="13.4301556"><ele>244.0</ele><time>2026-05-02T14:07:06.136Z</time></trkpt><trkpt lat="46.1119182" lon="13.4300841"><ele>244.0</ele><time>2026-05-02T14:07:07.135Z</time></trkpt><trkpt lat="46.1118636" lon="13.4300209"><ele>244.0</ele><time>2026-05-02T14:07:08.126Z</time></trkpt><trkpt lat="46.1118086" lon="13.429954"><ele>243.99999999999997</ele><time>2026-05-02T14:07:09.125Z</time></trkpt><trkpt lat="46.111752" lon="13.4298699"><ele>244.0</ele><time>2026-05-02T14:07:10.125Z</time></trkpt><trkpt lat="46.1116904" lon="13.4297851"><ele>243.99999999999997</ele><time>2026-05-02T14:07:11.125Z</time></trkpt><trkpt lat="46.1116154" lon="13.4297096"><ele>244.0</ele><time>2026-05-02T14:07:12.123Z</time></trkpt><trkpt lat="46.111541" lon="13.4296365"><ele>244.0</ele><time>2026-05-02T14:07:13.127Z</time></trkpt><trkpt lat="46.1114683" lon="13.4295666"><ele>244.0</ele><time>2026-05-02T14:07:14.13Z</time></trkpt><trkpt lat="46.1113933" lon="13.4294999"><ele>243.99999999999997</ele><time>2026-05-02T14:07:15.127Z</time></trkpt><trkpt lat="46.11132" lon="13.4294428"><ele>244.0</ele><time>2026-05-02T14:07:16.121Z</time></trkpt><trkpt lat="46.1112435" lon="13.429397"><ele>243.16666666666666</ele><time>2026-05-02T14:07:17.128Z</time></trkpt><trkpt lat="46.1111606" lon="13.4293574"><ele>242.33333333333331</ele><time>2026-05-02T14:07:18.141Z</time></trkpt><trkpt lat="46.1110747" lon="13.4293098"><ele>241.5</ele><time>2026-05-02T14:07:19.124Z</time></trkpt><trkpt lat="46.1109918" lon="13.4292678"><ele>240.66666666666669</ele><time>2026-05-02T14:07:20.12Z</time></trkpt><trkpt lat="46.1109159" lon="13.4292175"><ele>239.83333333333334</ele><time>2026-05-02T14:07:21.134Z</time></trkpt><trkpt lat="46.1108489" lon="13.4291684"><ele>239.0</ele><time>2026-05-02T14:07:22.126Z</time></trkpt><trkpt lat="46.1107864" lon="13.4291116"><ele>239.00000000000003</ele><time>2026-05-02T14:07:23.132Z</time></trkpt><trkpt lat="46.1107313" lon="13.4290574"><ele>239.0</ele><time>2026-05-02T14:07:24.119Z</time></trkpt><trkpt lat="46.1106602" lon="13.4289285"><ele>239.0</ele><time>2026-05-02T14:07:26.125Z</time></trkpt><trkpt lat="46.1106637" lon="13.4287607"><ele>239.0</ele><time>2026-05-02T14:07:28.124Z</time></trkpt><trkpt lat="46.1106618" lon="13.4286636"><ele>239.00000000000003</ele><time>2026-05-02T14:07:30.122Z</time></trkpt><trkpt lat="46.1107271" lon="13.4285983"><ele>239.0</ele><time>2026-05-02T14:08:23.135Z</time></trkpt><trkpt lat="46.1108121" lon="13.428534"><ele>237.39999999999998</ele><time>2026-05-02T14:08:26.144Z</time></trkpt><trkpt lat="46.1108815" lon="13.4284125"><ele>235.79999999999998</ele><time>2026-05-02T14:08:28.127Z</time></trkpt><trkpt lat="46.1109056" lon="13.4283085"><ele>234.20000000000002</ele><time>2026-05-02T14:08:29.127Z</time></trkpt><trkpt lat="46.110893" lon="13.4281307"><ele>232.60000000000002</ele><time>2026-05-02T14:08:31.124Z</time></trkpt><trkpt lat="46.1108285" lon="13.4279635"><ele>231.0</ele><time>2026-05-02T14:08:33.123Z</time></trkpt><trkpt lat="46.1107838" lon="13.4278571"><ele>229.16666666666666</ele><time>2026-05-02T14:08:34.126Z</time></trkpt><trkpt lat="46.1107369" lon="13.4277326"><ele>227.33333333333331</ele><time>2026-05-02T14:08:35.135Z</time></trkpt><trkpt lat="46.1106937" lon="13.4276176"><ele>225.5</ele><time>2026-05-02T14:08:36.138Z</time></trkpt><trkpt lat="46.1106462" lon="13.4275293"><ele>223.66666666666666</ele><time>2026-05-02T14:08:37.134Z</time></trkpt><trkpt lat="46.1105912" lon="13.4274796"><ele>221.83333333333331</ele><time>2026-05-02T14:08:38.139Z</time></trkpt><trkpt lat="46.1105248" lon="13.4274696"><ele>220.0</ele><time>2026-05-02T14:08:39.138Z</time></trkpt><trkpt lat="46.1104472" lon="13.4274785"><ele>219.99999999999997</ele><time>2026-05-02T14:08:40.132Z</time></trkpt><trkpt lat="46.1103615" lon="13.4274867"><ele>220.0</ele><time>2026-05-02T14:08:41.119Z</time></trkpt><trkpt lat="46.1102779" lon="13.4274665"><ele>220.0</ele><time>2026-05-02T14:08:42.118Z</time></trkpt><trkpt lat="46.1101959" lon="13.4274312"><ele>220.0</ele><time>2026-05-02T14:08:43.131Z</time></trkpt><trkpt lat="46.1101258" lon="13.4273947"><ele>219.99999999999997</ele><time>2026-05-02T14:08:44.123Z</time></trkpt><trkpt lat="46.1100674" lon="13.4273566"><ele>220.0</ele><time>2026-05-02T14:08:45.128Z</time></trkpt><trkpt lat="46.1099777" lon="13.4272858"><ele>220.4</ele><time>2026-05-02T14:08:47.125Z</time></trkpt><trkpt lat="46.1099061" lon="13.4272796"><ele>220.8</ele><time>2026-05-02T14:09:01.15Z</time></trkpt><trkpt lat="46.1098339" lon="13.4272776"><ele>221.2</ele><time>2026-05-02T14:09:04.142Z</time></trkpt><trkpt lat="46.1097481" lon="13.4271972"><ele>221.6</ele><time>2026-05-02T14:09:06.129Z</time></trkpt><trkpt lat="46.1096499" lon="13.4270647"><ele>222.0</ele><time>2026-05-02T14:09:08.13Z</time></trkpt><trkpt lat="46.1095903" lon="13.4270021"><ele>222.0</ele><time>2026-05-02T14:09:09.134Z</time></trkpt><trkpt lat="46.1095189" lon="13.4269456"><ele>222.0</ele><time>2026-05-02T14:09:10.138Z</time></trkpt><trkpt lat="46.1094576" lon="13.4268974"><ele>222.0</ele><time>2026-05-02T14:09:11.133Z</time></trkpt><trkpt lat="46.1093991" lon="13.4268538"><ele>222.0</ele><time>2026-05-02T14:09:12.136Z</time></trkpt><trkpt lat="46.1093438" lon="13.4268017"><ele>222.0</ele><time>2026-05-02T14:09:13.137Z</time></trkpt><trkpt lat="46.1092456" lon="13.4267035"><ele>222.0</ele><time>2026-05-02T14:09:15.132Z</time></trkpt><trkpt lat="46.1091572" lon="13.4265772"><ele>222.0</ele><time>2026-05-02T14:09:17.136Z</time></trkpt><trkpt lat="46.1091183" lon="13.4264969"><ele>222.0</ele><time>2026-05-02T14:09:18.135Z</time></trkpt><trkpt lat="46.1090817" lon="13.4264021"><ele>222.0</ele><time>2026-05-02T14:09:19.142Z</time></trkpt><trkpt lat="46.1090529" lon="13.4263024"><ele>222.0</ele><time>2026-05-02T14:09:20.136Z</time></trkpt><trkpt lat="46.1090317" lon="13.4262079"><ele>222.0</ele><time>2026-05-02T14:09:21.133Z</time></trkpt><trkpt lat="46.1090201" lon="13.4261183"><ele>222.0</ele><time>2026-05-02T14:09:22.126Z</time></trkpt><trkpt lat="46.1089794" lon="13.4259592"><ele>220.83333333333334</ele><time>2026-05-02T14:09:24.135Z</time></trkpt><trkpt lat="46.1089374" lon="13.4258914"><ele>219.66666666666669</ele><time>2026-05-02T14:09:25.14Z</time></trkpt><trkpt lat="46.1088799" lon="13.4258315"><ele>218.5</ele><time>2026-05-02T14:09:26.121Z</time></trkpt><trkpt lat="46.1088126" lon="13.425776"><ele>217.33333333333334</ele><time>2026-05-02T14:09:27.127Z</time></trkpt><trkpt lat="46.1087344" lon="13.425723"><ele>216.16666666666669</ele><time>2026-05-02T14:09:28.126Z</time></trkpt><trkpt lat="46.1086627" lon="13.4256527"><ele>215.0</ele><time>2026-05-02T14:09:29.128Z</time></trkpt><trkpt lat="46.1085903" lon="13.4255831"><ele>215.00000000000003</ele><time>2026-05-02T14:09:30.123Z</time></trkpt><trkpt lat="46.1085181" lon="13.4255203"><ele>215.0</ele><time>2026-05-02T14:09:31.138Z</time></trkpt><trkpt lat="46.1084391" lon="13.4254658"><ele>215.0</ele><time>2026-05-02T14:09:32.127Z</time></trkpt><trkpt lat="46.1083582" lon="13.4254306"><ele>215.0</ele><time>2026-05-02T14:09:33.128Z</time></trkpt><trkpt lat="46.1082799" lon="13.4254029"><ele>215.00000000000003</ele><time>2026-05-02T14:09:34.142Z</time></trkpt><trkpt lat="46.1082088" lon="13.4253765"><ele>215.0</ele><time>2026-05-02T14:09:35.135Z</time></trkpt><trkpt lat="46.1081466" lon="13.4253601"><ele>213.8</ele><time>2026-05-02T14:09:36.132Z</time></trkpt><trkpt lat="46.1080827" lon="13.42535"><ele>212.6</ele><time>2026-05-02T14:09:37.13Z</time></trkpt><trkpt lat="46.1079688" lon="13.4253007"><ele>211.39999999999998</ele><time>2026-05-02T14:09:39.126Z</time></trkpt><trkpt lat="46.1078876" lon="13.4251876"><ele>210.2</ele><time>2026-05-02T14:09:41.125Z</time></trkpt><trkpt lat="46.1078384" lon="13.4250268"><ele>209.0</ele><time>2026-05-02T14:09:43.113Z</time></trkpt><trkpt lat="46.1077986" lon="13.4248695"><ele>209.0</ele><time>2026-05-02T14:09:45.126Z</time></trkpt><trkpt lat="46.1077778" lon="13.4247761"><ele>209.0</ele><time>2026-05-02T14:09:46.129Z</time></trkpt><trkpt lat="46.1077619" lon="13.4246879"><ele>209.0</ele><time>2026-05-02T14:09:47.131Z</time></trkpt><trkpt lat="46.1077337" lon="13.4246017"><ele>209.0</ele><time>2026-05-02T14:09:48.133Z</time></trkpt><trkpt lat="46.1076924" lon="13.4245149"><ele>209.0</ele><time>2026-05-02T14:09:49.134Z</time></trkpt><trkpt lat="46.1076501" lon="13.4244268"><ele>209.0</ele><time>2026-05-02T14:09:50.132Z</time></trkpt><trkpt lat="46.1076051" lon="13.4243311"><ele>209.0</ele><time>2026-05-02T14:09:51.142Z</time></trkpt><trkpt lat="46.1075462" lon="13.4242304"><ele>209.50000000000003</ele><time>2026-05-02T14:09:52.137Z</time></trkpt><trkpt lat="46.1074857" lon="13.4241492"><ele>210.0</ele><time>2026-05-02T14:09:53.132Z</time></trkpt><trkpt lat="46.1074233" lon="13.4241056"><ele>210.5</ele><time>2026-05-02T14:09:54.134Z</time></trkpt><trkpt lat="46.1073063" lon="13.4240602"><ele>211.0</ele><time>2026-05-02T14:09:56.126Z</time></trkpt><trkpt lat="46.1072124" lon="13.424082"><ele>211.50000000000003</ele><time>2026-05-02T14:09:58.135Z</time></trkpt><trkpt lat="46.1071314" lon="13.4240907"><ele>212.0</ele><time>2026-05-02T14:10:00.142Z</time></trkpt><trkpt lat="46.1070518" lon="13.4241106"><ele>210.8</ele><time>2026-05-02T14:10:02.151Z</time></trkpt><trkpt lat="46.106968" lon="13.4241248"><ele>209.6</ele><time>2026-05-02T14:10:04.148Z</time></trkpt><trkpt lat="46.1068776" lon="13.4241136"><ele>208.4</ele><time>2026-05-02T14:10:06.133Z</time></trkpt><trkpt lat="46.1067759" lon="13.4241096"><ele>207.20000000000002</ele><time>2026-05-02T14:10:08.141Z</time></trkpt><trkpt lat="46.106689" lon="13.4241473"><ele>206.0</ele><time>2026-05-02T14:10:10.139Z</time></trkpt><trkpt lat="46.1066062" lon="13.4241738"><ele>207.20000000000002</ele><time>2026-05-02T14:10:12.133Z</time></trkpt><trkpt lat="46.1064841" lon="13.4242383"><ele>208.4</ele><time>2026-05-02T14:10:14.125Z</time></trkpt><trkpt lat="46.1064167" lon="13.4243109"><ele>209.6</ele><time>2026-05-02T14:10:15.131Z</time></trkpt><trkpt lat="46.1063358" lon="13.4243893"><ele>210.8</ele><time>2026-05-02T14:10:16.126Z</time></trkpt><trkpt lat="46.1062422" lon="13.42446"><ele>212.0</ele><time>2026-05-02T14:10:17.135Z</time></trkpt><trkpt lat="46.1061403" lon="13.4245173"><ele>212.0</ele><time>2026-05-02T14:10:18.131Z</time></trkpt><trkpt lat="46.1060141" lon="13.424563"><ele>212.0</ele><time>2026-05-02T14:10:19.137Z</time></trkpt><trkpt lat="46.1058658" lon="13.4246188"><ele>212.0</ele><time>2026-05-02T14:10:20.13Z</time></trkpt><trkpt lat="46.1057273" lon="13.4246819"><ele>212.0</ele><time>2026-05-02T14:10:21.133Z</time></trkpt><trkpt lat="46.1056109" lon="13.4247401"><ele>212.2</ele><time>2026-05-02T14:10:22.135Z</time></trkpt><trkpt lat="46.1055102" lon="13.4247571"><ele>212.39999999999998</ele><time>2026-05-02T14:10:23.139Z</time></trkpt><trkpt lat="46.1054051" lon="13.4247207"><ele>212.60000000000002</ele><time>2026-05-02T14:10:24.129Z</time></trkpt><trkpt lat="46.1052867" lon="13.4246797"><ele>212.8</ele><time>2026-05-02T14:10:25.122Z</time></trkpt><trkpt lat="46.1051831" lon="13.4246501"><ele>213.0</ele><time>2026-05-02T14:10:26.132Z</time></trkpt><trkpt lat="46.1050714" lon="13.4246341"><ele>211.25</ele><time>2026-05-02T14:10:27.125Z</time></trkpt><trkpt lat="46.1049432" lon="13.4246376"><ele>209.5</ele><time>2026-05-02T14:10:28.132Z</time></trkpt><trkpt lat="46.1048131" lon="13.4246438"><ele>207.75</ele><time>2026-05-02T14:10:29.151Z</time></trkpt><trkpt lat="46.1046798" lon="13.4246317"><ele>206.0</ele><time>2026-05-02T14:10:30.137Z</time></trkpt><trkpt lat="46.1045387" lon="13.4245942"><ele>203.5</ele><time>2026-05-02T14:10:31.141Z</time></trkpt><trkpt lat="46.1043967" lon="13.424551"><ele>201.0</ele><time>2026-05-02T14:10:32.137Z</time></trkpt><trkpt lat="46.1042652" lon="13.4245268"><ele>198.5</ele><time>2026-05-02T14:10:33.139Z</time></trkpt><trkpt lat="46.1041451" lon="13.4245088"><ele>196.0</ele><time>2026-05-02T14:10:34.134Z</time></trkpt><trkpt lat="46.1040379" lon="13.4244855"><ele>194.60000000000002</ele><time>2026-05-02T14:10:35.137Z</time></trkpt><trkpt lat="46.1039391" lon="13.424454"><ele>193.2</ele><time>2026-05-02T14:10:36.139Z</time></trkpt><trkpt lat="46.1038433" lon="13.4244203"><ele>191.8</ele><time>2026-05-02T14:10:37.13Z</time></trkpt><trkpt lat="46.1037382" lon="13.4243966"><ele>190.39999999999998</ele><time>2026-05-02T14:10:38.137Z</time></trkpt><trkpt lat="46.1036337" lon="13.4243994"><ele>189.0</ele><time>2026-05-02T14:10:39.137Z</time></trkpt><trkpt lat="46.1035327" lon="13.4244177"><ele>189.0</ele><time>2026-05-02T14:10:40.129Z</time></trkpt><trkpt lat="46.1034438" lon="13.424439"><ele>189.0</ele><time>2026-05-02T14:10:41.148Z</time></trkpt><trkpt lat="46.1033654" lon="13.4244352"><ele>189.0</ele><time>2026-05-02T14:10:42.135Z</time></trkpt><trkpt lat="46.103297" lon="13.4244244"><ele>189.0</ele><time>2026-05-02T14:10:43.14Z</time></trkpt><trkpt lat="46.1032155" lon="13.4244223"><ele>189.0</ele><time>2026-05-02T14:10:44.131Z</time></trkpt><trkpt lat="46.1031334" lon="13.4244606"><ele>189.0</ele><time>2026-05-02T14:10:45.127Z</time></trkpt><trkpt lat="46.1030547" lon="13.4245063"><ele>187.6</ele><time>2026-05-02T14:10:46.13Z</time></trkpt><trkpt lat="46.1029747" lon="13.424503"><ele>186.2</ele><time>2026-05-02T14:10:47.124Z</time></trkpt><trkpt lat="46.1028829" lon="13.4244532"><ele>184.79999999999998</ele><time>2026-05-02T14:10:48.129Z</time></trkpt><trkpt lat="46.1027782" lon="13.4243885"><ele>183.39999999999998</ele><time>2026-05-02T14:10:49.122Z</time></trkpt><trkpt lat="46.1026734" lon="13.4243274"><ele>182.0</ele><time>2026-05-02T14:10:50.114Z</time></trkpt><trkpt lat="46.1025705" lon="13.4242806"><ele>182.0</ele><time>2026-05-02T14:10:51.12Z</time></trkpt><trkpt lat="46.1024734" lon="13.424233"><ele>182.0</ele><time>2026-05-02T14:10:52.122Z</time></trkpt><trkpt lat="46.1023912" lon="13.4242018"><ele>182.0</ele><time>2026-05-02T14:10:53.119Z</time></trkpt><trkpt lat="46.1023177" lon="13.4241804"><ele>182.0</ele><time>2026-05-02T14:10:54.139Z</time></trkpt><trkpt lat="46.1022431" lon="13.424176"><ele>182.0</ele><time>2026-05-02T14:10:55.135Z</time></trkpt><trkpt lat="46.102165" lon="13.4241596"><ele>182.0</ele><time>2026-05-02T14:10:56.134Z</time></trkpt><trkpt lat="46.1020773" lon="13.4241389"><ele>180.66666666666666</ele><time>2026-05-02T14:10:57.133Z</time></trkpt><trkpt lat="46.1019931" lon="13.4241185"><ele>179.33333333333331</ele><time>2026-05-02T14:10:58.12Z</time></trkpt><trkpt lat="46.1019196" lon="13.4240742"><ele>178.0</ele><time>2026-05-02T14:11:00.128Z</time></trkpt><trkpt lat="46.1018316" lon="13.4240215"><ele>176.66666666666666</ele><time>2026-05-02T14:11:02.126Z</time></trkpt><trkpt lat="46.1017559" lon="13.424009"><ele>175.33333333333334</ele><time>2026-05-02T14:11:03.126Z</time></trkpt><trkpt lat="46.101664" lon="13.4239851"><ele>174.0</ele><time>2026-05-02T14:11:04.126Z</time></trkpt><trkpt lat="46.1015652" lon="13.4239307"><ele>172.5</ele><time>2026-05-02T14:11:05.12Z</time></trkpt><trkpt lat="46.1014718" lon="13.4238339"><ele>171.0</ele><time>2026-05-02T14:11:06.121Z</time></trkpt><trkpt lat="46.1013804" lon="13.4237163"><ele>169.5</ele><time>2026-05-02T14:11:07.132Z</time></trkpt><trkpt lat="46.1012938" lon="13.4236048"><ele>168.0</ele><time>2026-05-02T14:11:08.128Z</time></trkpt><trkpt lat="46.1012044" lon="13.4235034"><ele>168.0</ele><time>2026-05-02T14:11:09.126Z</time></trkpt><trkpt lat="46.101115" lon="13.4234167"><ele>168.0</ele><time>2026-05-02T14:11:10.13Z</time></trkpt><trkpt lat="46.1010168" lon="13.423366"><ele>168.0</ele><time>2026-05-02T14:11:11.13Z</time></trkpt><trkpt lat="46.1009111" lon="13.4233387"><ele>168.0</ele><time>2026-05-02T14:11:12.127Z</time></trkpt><trkpt lat="46.1008101" lon="13.4233662"><ele>168.0</ele><time>2026-05-02T14:11:13.139Z</time></trkpt><trkpt lat="46.1007042" lon="13.4234525"><ele>164.0</ele><time>2026-05-02T14:11:14.128Z</time></trkpt><trkpt lat="46.1006069" lon="13.42358"><ele>160.0</ele><time>2026-05-02T14:11:15.129Z</time></trkpt><trkpt lat="46.1005133" lon="13.4237313"><ele>156.0</ele><time>2026-05-02T14:11:16.126Z</time></trkpt><trkpt lat="46.1004274" lon="13.4238714"><ele>152.0</ele><time>2026-05-02T14:11:17.128Z</time></trkpt><trkpt lat="46.1003467" lon="13.4240092"><ele>152.0</ele><time>2026-05-02T14:11:18.123Z</time></trkpt><trkpt lat="46.100274" lon="13.424155"><ele>152.0</ele><time>2026-05-02T14:11:19.129Z</time></trkpt><trkpt lat="46.1002117" lon="13.4243122"><ele>152.0</ele><time>2026-05-02T14:11:20.132Z</time></trkpt><trkpt lat="46.1001704" lon="13.4244746"><ele>152.0</ele><time>2026-05-02T14:11:21.125Z</time></trkpt><trkpt lat="46.1001435" lon="13.4246393"><ele>151.25</ele><time>2026-05-02T14:11:22.13Z</time></trkpt><trkpt lat="46.1001164" lon="13.4248144"><ele>150.5</ele><time>2026-05-02T14:11:23.125Z</time></trkpt><trkpt lat="46.1000919" lon="13.4249859"><ele>149.75</ele><time>2026-05-02T14:11:24.135Z</time></trkpt><trkpt lat="46.1000768" lon="13.4251481"><ele>149.0</ele><time>2026-05-02T14:11:25.14Z</time></trkpt><trkpt lat="46.1000611" lon="13.4253084"><ele>149.0</ele><time>2026-05-02T14:11:26.13Z</time></trkpt><trkpt lat="46.1000641" lon="13.4254709"><ele>149.0</ele><time>2026-05-02T14:11:27.141Z</time></trkpt><trkpt lat="46.1000869" lon="13.4256252"><ele>149.0</ele><time>2026-05-02T14:11:28.131Z</time></trkpt><trkpt lat="46.1001117" lon="13.4257801"><ele>149.0</ele><time>2026-05-02T14:11:29.14Z</time></trkpt><trkpt lat="46.1001247" lon="13.4259093"><ele>149.0</ele><time>2026-05-02T14:11:30.134Z</time></trkpt><trkpt lat="46.1001311" lon="13.4260115"><ele>148.66666666666666</ele><time>2026-05-02T14:11:31.138Z</time></trkpt><trkpt lat="46.1001308" lon="13.4261105"><ele>148.33333333333331</ele><time>2026-05-02T14:11:32.144Z</time></trkpt><trkpt lat="46.1001222" lon="13.4262113"><ele>148.0</ele><time>2026-05-02T14:11:33.138Z</time></trkpt><trkpt lat="46.1001027" lon="13.426313"><ele>147.66666666666666</ele><time>2026-05-02T14:11:34.139Z</time></trkpt><trkpt lat="46.1000701" lon="13.4264228"><ele>147.33333333333334</ele><time>2026-05-02T14:11:35.149Z</time></trkpt><trkpt lat="46.1000146" lon="13.4265321"><ele>147.0</ele><time>2026-05-02T14:11:36.144Z</time></trkpt><trkpt lat="46.099945" lon="13.4266326"><ele>144.79999999999998</ele><time>2026-05-02T14:11:37.136Z</time></trkpt><trkpt lat="46.0998765" lon="13.4267301"><ele>142.6</ele><time>2026-05-02T14:11:38.143Z</time></trkpt><trkpt lat="46.0998098" lon="13.4268271"><ele>140.39999999999998</ele><time>2026-05-02T14:11:39.135Z</time></trkpt><trkpt lat="46.0997447" lon="13.4269227"><ele>138.2</ele><time>2026-05-02T14:11:40.138Z</time></trkpt><trkpt lat="46.0996802" lon="13.4270109"><ele>136.0</ele><time>2026-05-02T14:11:41.124Z</time></trkpt><trkpt lat="46.0996111" lon="13.4270785"><ele>136.0</ele><time>2026-05-02T14:11:42.127Z</time></trkpt><trkpt lat="46.099524" lon="13.427123"><ele>136.0</ele><time>2026-05-02T14:11:43.123Z</time></trkpt><trkpt lat="46.0994307" lon="13.4271436"><ele>136.0</ele><time>2026-05-02T14:11:44.122Z</time></trkpt><trkpt lat="46.0993394" lon="13.4271431"><ele>136.0</ele><time>2026-05-02T14:11:45.121Z</time></trkpt><trkpt lat="46.0992472" lon="13.4271212"><ele>136.0</ele><time>2026-05-02T14:11:46.134Z</time></trkpt><trkpt lat="46.0991549" lon="13.4270839"><ele>135.8</ele><time>2026-05-02T14:11:47.137Z</time></trkpt><trkpt lat="46.0990571" lon="13.4270462"><ele>135.6</ele><time>2026-05-02T14:11:48.136Z</time></trkpt><trkpt lat="46.0989648" lon="13.4270147"><ele>135.4</ele><time>2026-05-02T14:11:49.13Z</time></trkpt><trkpt lat="46.0988687" lon="13.4269836"><ele>135.2</ele><time>2026-05-02T14:11:50.134Z</time></trkpt><trkpt lat="46.0987756" lon="13.4269486"><ele>135.0</ele><time>2026-05-02T14:11:51.146Z</time></trkpt><trkpt lat="46.0986859" lon="13.4269221"><ele>135.0</ele><time>2026-05-02T14:11:52.143Z</time></trkpt><trkpt lat="46.098599" lon="13.4268894"><ele>135.0</ele><time>2026-05-02T14:11:53.149Z</time></trkpt><trkpt lat="46.0985158" lon="13.4268614"><ele>135.0</ele><time>2026-05-02T14:11:54.142Z</time></trkpt><trkpt lat="46.0984289" lon="13.4268265"><ele>135.0</ele><time>2026-05-02T14:11:55.135Z</time></trkpt><trkpt lat="46.098344" lon="13.4267789"><ele>135.0</ele><time>2026-05-02T14:11:56.141Z</time></trkpt><trkpt lat="46.0982565" lon="13.4267176"><ele>135.16666666666666</ele><time>2026-05-02T14:11:57.144Z</time></trkpt><trkpt lat="46.0981731" lon="13.4266646"><ele>135.33333333333334</ele><time>2026-05-02T14:11:58.137Z</time></trkpt><trkpt lat="46.0980955" lon="13.4266193"><ele>135.5</ele><time>2026-05-02T14:11:59.14Z</time></trkpt><trkpt lat="46.0980183" lon="13.4265723"><ele>135.66666666666669</ele><time>2026-05-02T14:12:00.147Z</time></trkpt><trkpt lat="46.0979503" lon="13.4265192"><ele>135.83333333333334</ele><time>2026-05-02T14:12:01.15Z</time></trkpt><trkpt lat="46.0978875" lon="13.4264686"><ele>136.0</ele><time>2026-05-02T14:12:02.137Z</time></trkpt><trkpt lat="46.0978237" lon="13.4264218"><ele>136.0</ele><time>2026-05-02T14:12:03.145Z</time></trkpt><trkpt lat="46.0977215" lon="13.4263573"><ele>136.0</ele><time>2026-05-02T14:12:05.138Z</time></trkpt><trkpt lat="46.0976498" lon="13.4263234"><ele>136.0</ele><time>2026-05-02T14:12:08.148Z</time></trkpt><trkpt lat="46.0975782" lon="13.4264023"><ele>136.0</ele><time>2026-05-02T14:12:10.134Z</time></trkpt><trkpt lat="46.0975318" lon="13.4264648"><ele>136.0</ele><time>2026-05-02T14:12:11.133Z</time></trkpt><trkpt lat="46.0974668" lon="13.4265142"><ele>136.0</ele><time>2026-05-02T14:12:12.122Z</time></trkpt><trkpt lat="46.0973882" lon="13.4265407"><ele>135.83333333333334</ele><time>2026-05-02T14:12:13.139Z</time></trkpt><trkpt lat="46.0973108" lon="13.4265622"><ele>135.66666666666669</ele><time>2026-05-02T14:12:14.126Z</time></trkpt><trkpt lat="46.0972356" lon="13.4265824"><ele>135.5</ele><time>2026-05-02T14:12:15.14Z</time></trkpt><trkpt lat="46.0971716" lon="13.4266099"><ele>135.33333333333334</ele><time>2026-05-02T14:12:16.128Z</time></trkpt><trkpt lat="46.097111" lon="13.4266349"><ele>135.16666666666666</ele><time>2026-05-02T14:12:17.142Z</time></trkpt><trkpt lat="46.0970154" lon="13.4266719"><ele>135.0</ele><time>2026-05-02T14:12:19.13Z</time></trkpt><trkpt lat="46.0969201" lon="13.4267026"><ele>135.0</ele><time>2026-05-02T14:12:21.133Z</time></trkpt><trkpt lat="46.0967893" lon="13.4267631"><ele>135.0</ele><time>2026-05-02T14:12:23.133Z</time></trkpt><trkpt lat="46.0967085" lon="13.4267976"><ele>135.0</ele><time>2026-05-02T14:12:24.138Z</time></trkpt><trkpt lat="46.0966217" lon="13.4268357"><ele>135.0</ele><time>2026-05-02T14:12:25.133Z</time></trkpt><trkpt lat="46.0965305" lon="13.4268796"><ele>135.0</ele><time>2026-05-02T14:12:26.129Z</time></trkpt><trkpt lat="46.096435" lon="13.4269257"><ele>134.83333333333334</ele><time>2026-05-02T14:12:27.134Z</time></trkpt><trkpt lat="46.096334" lon="13.4269764"><ele>134.66666666666666</ele><time>2026-05-02T14:12:28.134Z</time></trkpt><trkpt lat="46.0962336" lon="13.427031"><ele>134.5</ele><time>2026-05-02T14:12:29.133Z</time></trkpt><trkpt lat="46.0961534" lon="13.4270643"><ele>134.33333333333331</ele><time>2026-05-02T14:12:30.138Z</time></trkpt><trkpt lat="46.0960798" lon="13.427089"><ele>134.16666666666666</ele><time>2026-05-02T14:12:31.133Z</time></trkpt><trkpt lat="46.0960143" lon="13.4270932"><ele>134.0</ele><time>2026-05-02T14:12:32.138Z</time></trkpt><trkpt lat="46.0959477" lon="13.4270735"><ele>134.0</ele><time>2026-05-02T14:12:33.132Z</time></trkpt><trkpt lat="46.0958777" lon="13.4270015"><ele>134.0</ele><time>2026-05-02T14:12:34.129Z</time></trkpt><trkpt lat="46.0958264" lon="13.4268916"><ele>134.0</ele><time>2026-05-02T14:12:35.139Z</time></trkpt><trkpt lat="46.0957975" lon="13.426758"><ele>134.0</ele><time>2026-05-02T14:12:36.142Z</time></trkpt><trkpt lat="46.0957904" lon="13.4266072"><ele>134.0</ele><time>2026-05-02T14:12:37.142Z</time></trkpt><trkpt lat="46.0957906" lon="13.4264365"><ele>134.25</ele><time>2026-05-02T14:12:38.13Z</time></trkpt><trkpt lat="46.0957898" lon="13.4262453"><ele>134.5</ele><time>2026-05-02T14:12:39.131Z</time></trkpt><trkpt lat="46.0957902" lon="13.426031"><ele>134.75</ele><time>2026-05-02T14:12:40.132Z</time></trkpt><trkpt lat="46.0957946" lon="13.4258017"><ele>135.0</ele><time>2026-05-02T14:12:41.139Z</time></trkpt><trkpt lat="46.0957948" lon="13.4255923"><ele>134.75</ele><time>2026-05-02T14:12:42.142Z</time></trkpt><trkpt lat="46.0957941" lon="13.4253989"><ele>134.5</ele><time>2026-05-02T14:12:43.137Z</time></trkpt><trkpt lat="46.0957942" lon="13.4252169"><ele>134.25</ele><time>2026-05-02T14:12:44.147Z</time></trkpt><trkpt lat="46.0958072" lon="13.4250658"><ele>134.0</ele><time>2026-05-02T14:12:45.135Z</time></trkpt><trkpt lat="46.0958256" lon="13.424938"><ele>134.0</ele><time>2026-05-02T14:12:46.141Z</time></trkpt><trkpt lat="46.0958509" lon="13.4248213"><ele>134.0</ele><time>2026-05-02T14:12:47.133Z</time></trkpt><trkpt lat="46.0958832" lon="13.4247084"><ele>134.0</ele><time>2026-05-02T14:12:48.137Z</time></trkpt><trkpt lat="46.095918" lon="13.4246035"><ele>134.0</ele><time>2026-05-02T14:12:49.134Z</time></trkpt><trkpt lat="46.0959416" lon="13.4245043"><ele>134.0</ele><time>2026-05-02T14:12:50.13Z</time></trkpt><trkpt lat="46.0959418" lon="13.4244083"><ele>134.0</ele><time>2026-05-02T14:12:51.136Z</time></trkpt><trkpt lat="46.0959175" lon="13.424314"><ele>133.66666666666666</ele><time>2026-05-02T14:12:52.13Z</time></trkpt><trkpt lat="46.0958589" lon="13.4242519"><ele>133.33333333333331</ele><time>2026-05-02T14:12:53.139Z</time></trkpt><trkpt lat="46.0957823" lon="13.4242223"><ele>133.0</ele><time>2026-05-02T14:12:54.15Z</time></trkpt><trkpt lat="46.0957034" lon="13.4242404"><ele>132.66666666666666</ele><time>2026-05-02T14:12:55.141Z</time></trkpt><trkpt lat="46.0956257" lon="13.4242838"><ele>132.33333333333334</ele><time>2026-05-02T14:12:56.143Z</time></trkpt><trkpt lat="46.09555" lon="13.424314"><ele>132.0</ele><time>2026-05-02T14:12:57.141Z</time></trkpt><trkpt lat="46.0954769" lon="13.4243262"><ele>132.0</ele><time>2026-05-02T14:12:58.134Z</time></trkpt><trkpt lat="46.0954059" lon="13.4243244"><ele>132.0</ele><time>2026-05-02T14:12:59.146Z</time></trkpt><trkpt lat="46.0953105" lon="13.4242811"><ele>132.0</ele><time>2026-05-02T14:13:01.139Z</time></trkpt><trkpt lat="46.0952536" lon="13.4242161"><ele>132.0</ele><time>2026-05-02T14:13:03.143Z</time></trkpt><trkpt lat="46.0951761" lon="13.4241768"><ele>132.0</ele><time>2026-05-02T14:13:05.137Z</time></trkpt><trkpt lat="46.095107" lon="13.4241995"><ele>132.0</ele><time>2026-05-02T14:13:08.144Z</time></trkpt><trkpt lat="46.095046" lon="13.4242607"><ele>132.0</ele><time>2026-05-02T14:17:38.151Z</time></trkpt><trkpt lat="46.0949758" lon="13.4242971"><ele>132.0</ele><time>2026-05-02T14:17:41.158Z</time></trkpt><trkpt lat="46.0949027" lon="13.424326"><ele>132.0</ele><time>2026-05-02T14:17:43.17Z</time></trkpt><trkpt lat="46.0947775" lon="13.4243567"><ele>132.0</ele><time>2026-05-02T14:17:45.158Z</time></trkpt><trkpt lat="46.0946948" lon="13.4243786"><ele>132.0</ele><time>2026-05-02T14:17:46.157Z</time></trkpt><trkpt lat="46.0945757" lon="13.4244043"><ele>132.25</ele><time>2026-05-02T14:17:47.155Z</time></trkpt><trkpt lat="46.0944342" lon="13.4244192"><ele>132.5</ele><time>2026-05-02T14:17:48.137Z</time></trkpt><trkpt lat="46.0942961" lon="13.4244268"><ele>132.75</ele><time>2026-05-02T14:17:49.145Z</time></trkpt><trkpt lat="46.0941632" lon="13.424444"><ele>133.0</ele><time>2026-05-02T14:17:50.138Z</time></trkpt><trkpt lat="46.0940307" lon="13.4244663"><ele>133.0</ele><time>2026-05-02T14:17:51.148Z</time></trkpt><trkpt lat="46.0938972" lon="13.4244877"><ele>133.0</ele><time>2026-05-02T14:17:52.143Z</time></trkpt><trkpt lat="46.0937607" lon="13.424492"><ele>133.0</ele><time>2026-05-02T14:17:53.155Z</time></trkpt><trkpt lat="46.0936197" lon="13.4245057"><ele>133.0</ele><time>2026-05-02T14:17:54.155Z</time></trkpt><trkpt lat="46.0934798" lon="13.424514"><ele>133.0</ele><time>2026-05-02T14:17:55.153Z</time></trkpt><trkpt lat="46.0933398" lon="13.4245159"><ele>133.0</ele><time>2026-05-02T14:17:56.151Z</time></trkpt><trkpt lat="46.0931999" lon="13.4245272"><ele>133.0</ele><time>2026-05-02T14:17:57.16Z</time></trkpt><trkpt lat="46.0930645" lon="13.4245326"><ele>133.0</ele><time>2026-05-02T14:17:58.148Z</time></trkpt><trkpt lat="46.0929365" lon="13.4245402"><ele>133.4</ele><time>2026-05-02T14:17:59.15Z</time></trkpt><trkpt lat="46.0928253" lon="13.4245517"><ele>133.8</ele><time>2026-05-02T14:18:00.159Z</time></trkpt><trkpt lat="46.0927228" lon="13.4245731"><ele>134.2</ele><time>2026-05-02T14:18:01.165Z</time></trkpt><trkpt lat="46.0926264" lon="13.4246115"><ele>134.6</ele><time>2026-05-02T14:18:02.167Z</time></trkpt><trkpt lat="46.0925336" lon="13.4246746"><ele>135.0</ele><time>2026-05-02T14:18:03.163Z</time></trkpt><trkpt lat="46.0924463" lon="13.4247681"><ele>135.25</ele><time>2026-05-02T14:18:04.143Z</time></trkpt><trkpt lat="46.092357" lon="13.4248834"><ele>135.5</ele><time>2026-05-02T14:18:05.156Z</time></trkpt><trkpt lat="46.0922681" lon="13.4250002"><ele>135.75</ele><time>2026-05-02T14:18:06.153Z</time></trkpt><trkpt lat="46.092164" lon="13.4251048"><ele>136.0</ele><time>2026-05-02T14:18:07.152Z</time></trkpt><trkpt lat="46.0920466" lon="13.4251905"><ele>136.0</ele><time>2026-05-02T14:18:08.15Z</time></trkpt><trkpt lat="46.091927" lon="13.4252545"><ele>136.0</ele><time>2026-05-02T14:18:09.142Z</time></trkpt><trkpt lat="46.0918187" lon="13.4253145"><ele>136.0</ele><time>2026-05-02T14:18:10.134Z</time></trkpt><trkpt lat="46.0917058" lon="13.4253807"><ele>136.0</ele><time>2026-05-02T14:18:11.157Z</time></trkpt><trkpt lat="46.0915717" lon="13.4254559"><ele>134.66666666666669</ele><time>2026-05-02T14:18:12.144Z</time></trkpt><trkpt lat="46.0914198" lon="13.4255453"><ele>133.33333333333334</ele><time>2026-05-02T14:18:13.137Z</time></trkpt><trkpt lat="46.0912596" lon="13.4256324"><ele>132.0</ele><time>2026-05-02T14:18:14.138Z</time></trkpt><trkpt lat="46.0910942" lon="13.4257239"><ele>132.0</ele><time>2026-05-02T14:18:15.139Z</time></trkpt><trkpt lat="46.0909269" lon="13.425811"><ele>132.0</ele><time>2026-05-02T14:18:16.139Z</time></trkpt><trkpt lat="46.0907608" lon="13.4258923"><ele>132.0</ele><time>2026-05-02T14:18:17.136Z</time></trkpt><trkpt lat="46.0905812" lon="13.4259602"><ele>129.33333333333334</ele><time>2026-05-02T14:18:18.141Z</time></trkpt><trkpt lat="46.090396" lon="13.4260234"><ele>126.66666666666667</ele><time>2026-05-02T14:18:19.143Z</time></trkpt><trkpt lat="46.0902046" lon="13.4260887"><ele>124.0</ele><time>2026-05-02T14:18:20.147Z</time></trkpt><trkpt lat="46.0900088" lon="13.4261523"><ele>124.33333333333334</ele><time>2026-05-02T14:18:21.157Z</time></trkpt><trkpt lat="46.0898117" lon="13.4262134"><ele>124.66666666666666</ele><time>2026-05-02T14:18:22.161Z</time></trkpt><trkpt lat="46.0896241" lon="13.4262703"><ele>125.0</ele><time>2026-05-02T14:18:23.153Z</time></trkpt><trkpt lat="46.0894414" lon="13.4263177"><ele>125.0</ele><time>2026-05-02T14:18:24.157Z</time></trkpt><trkpt lat="46.08926" lon="13.4263599"><ele>125.0</ele><time>2026-05-02T14:18:25.167Z</time></trkpt><trkpt lat="46.089081" lon="13.426384"><ele>125.0</ele><time>2026-05-02T14:18:26.15Z</time></trkpt><trkpt lat="46.0889009" lon="13.426407"><ele>125.0</ele><time>2026-05-02T14:18:27.147Z</time></trkpt><trkpt lat="46.0887275" lon="13.4264233"><ele>125.0</ele><time>2026-05-02T14:18:28.148Z</time></trkpt><trkpt lat="46.0885539" lon="13.4264462"><ele>125.0</ele><time>2026-05-02T14:18:29.153Z</time></trkpt><trkpt lat="46.0883869" lon="13.4264884"><ele>125.33333333333333</ele><time>2026-05-02T14:18:30.15Z</time></trkpt><trkpt lat="46.0882251" lon="13.4265571"><ele>125.66666666666666</ele><time>2026-05-02T14:18:31.151Z</time></trkpt><trkpt lat="46.0880753" lon="13.4266541"><ele>126.0</ele><time>2026-05-02T14:18:32.15Z</time></trkpt><trkpt lat="46.0879423" lon="13.4267869"><ele>126.0</ele><time>2026-05-02T14:18:33.163Z</time></trkpt><trkpt lat="46.0878221" lon="13.4269354"><ele>126.0</ele><time>2026-05-02T14:18:34.154Z</time></trkpt><trkpt lat="46.0877204" lon="13.4270968"><ele>126.0</ele><time>2026-05-02T14:18:35.157Z</time></trkpt><trkpt lat="46.0876338" lon="13.4272765"><ele>127.75</ele><time>2026-05-02T14:18:36.16Z</time></trkpt><trkpt lat="46.0875501" lon="13.4274606"><ele>129.5</ele><time>2026-05-02T14:18:37.18Z</time></trkpt><trkpt lat="46.0874715" lon="13.4276402"><ele>131.25</ele><time>2026-05-02T14:18:38.182Z</time></trkpt><trkpt lat="46.0874003" lon="13.4278056"><ele>133.0</ele><time>2026-05-02T14:18:39.177Z</time></trkpt><trkpt lat="46.0873319" lon="13.427956"><ele>133.0</ele><time>2026-05-02T14:18:40.17Z</time></trkpt><trkpt lat="46.0872685" lon="13.4280867"><ele>133.0</ele><time>2026-05-02T14:18:41.169Z</time></trkpt><trkpt lat="46.0872032" lon="13.428189"><ele>133.0</ele><time>2026-05-02T14:18:42.162Z</time></trkpt><trkpt lat="46.0871524" lon="13.4282846"><ele>133.0</ele><time>2026-05-02T14:18:43.164Z</time></trkpt><trkpt lat="46.0871312" lon="13.4283771"><ele>133.0</ele><time>2026-05-02T14:18:44.165Z</time></trkpt><trkpt lat="46.0871468" lon="13.4284761"><ele>133.0</ele><time>2026-05-02T14:18:45.162Z</time></trkpt><trkpt lat="46.0871964" lon="13.4285531"><ele>133.0</ele><time>2026-05-02T14:18:46.156Z</time></trkpt><trkpt lat="46.0872616" lon="13.4286207"><ele>133.0</ele><time>2026-05-02T14:18:47.156Z</time></trkpt><trkpt lat="46.0873251" lon="13.4286832"><ele>133.0</ele><time>2026-05-02T14:18:48.145Z</time></trkpt><trkpt lat="46.0873807" lon="13.4287489"><ele>133.0</ele><time>2026-05-02T14:18:49.162Z</time></trkpt><trkpt lat="46.0874452" lon="13.4288204"><ele>133.0</ele><time>2026-05-02T14:18:50.161Z</time></trkpt><trkpt lat="46.0875172" lon="13.4289023"><ele>133.0</ele><time>2026-05-02T14:18:51.16Z</time></trkpt><trkpt lat="46.0876031" lon="13.4290128"><ele>132.75</ele><time>2026-05-02T14:18:52.163Z</time></trkpt><trkpt lat="46.0876896" lon="13.429139"><ele>132.5</ele><time>2026-05-02T14:18:53.166Z</time></trkpt><trkpt lat="46.0877865" lon="13.429294"><ele>132.25</ele><time>2026-05-02T14:18:54.167Z</time></trkpt><trkpt lat="46.0878846" lon="13.4294615"><ele>132.0</ele><time>2026-05-02T14:18:55.163Z</time></trkpt><trkpt lat="46.0879818" lon="13.4296423"><ele>132.0</ele><time>2026-05-02T14:18:56.158Z</time></trkpt><trkpt lat="46.0880693" lon="13.4298334"><ele>132.0</ele><time>2026-05-02T14:18:57.169Z</time></trkpt><trkpt lat="46.0881585" lon="13.430048"><ele>132.0</ele><time>2026-05-02T14:18:58.171Z</time></trkpt><trkpt lat="46.0882497" lon="13.4302692"><ele>132.66666666666666</ele><time>2026-05-02T14:18:59.165Z</time></trkpt><trkpt lat="46.088338" lon="13.4304914"><ele>133.33333333333331</ele><time>2026-05-02T14:19:00.157Z</time></trkpt><trkpt lat="46.0884198" lon="13.4307086"><ele>134.0</ele><time>2026-05-02T14:19:01.157Z</time></trkpt><trkpt lat="46.0885025" lon="13.4309097"><ele>134.0</ele><time>2026-05-02T14:19:02.157Z</time></trkpt><trkpt lat="46.0885803" lon="13.4310963"><ele>134.0</ele><time>2026-05-02T14:19:03.172Z</time></trkpt><trkpt lat="46.0886595" lon="13.4312767"><ele>134.0</ele><time>2026-05-02T14:19:04.157Z</time></trkpt><trkpt lat="46.0887301" lon="13.4314534"><ele>134.0</ele><time>2026-05-02T14:19:05.169Z</time></trkpt><trkpt lat="46.0888013" lon="13.4316291"><ele>134.25</ele><time>2026-05-02T14:19:06.158Z</time></trkpt><trkpt lat="46.0888721" lon="13.4318036"><ele>134.5</ele><time>2026-05-02T14:19:07.161Z</time></trkpt><trkpt lat="46.0889444" lon="13.4319885"><ele>134.75</ele><time>2026-05-02T14:19:08.149Z</time></trkpt><trkpt lat="46.0890138" lon="13.4321645"><ele>135.0</ele><time>2026-05-02T14:19:09.145Z</time></trkpt><trkpt lat="46.0890803" lon="13.4323338"><ele>135.6</ele><time>2026-05-02T14:19:10.149Z</time></trkpt><trkpt lat="46.0891447" lon="13.4324902"><ele>136.2</ele><time>2026-05-02T14:19:11.161Z</time></trkpt><trkpt lat="46.0892013" lon="13.4326247"><ele>136.8</ele><time>2026-05-02T14:19:12.151Z</time></trkpt><trkpt lat="46.0892471" lon="13.4327457"><ele>137.4</ele><time>2026-05-02T14:19:13.158Z</time></trkpt><trkpt lat="46.089289" lon="13.4328493"><ele>138.0</ele><time>2026-05-02T14:19:14.149Z</time></trkpt><trkpt lat="46.0893264" lon="13.4329423"><ele>137.4</ele><time>2026-05-02T14:19:15.17Z</time></trkpt><trkpt lat="46.0893919" lon="13.4330929"><ele>136.8</ele><time>2026-05-02T14:19:17.149Z</time></trkpt><trkpt lat="46.0894327" lon="13.4332215"><ele>136.2</ele><time>2026-05-02T14:19:19.145Z</time></trkpt><trkpt lat="46.0894767" lon="13.4333041"><ele>135.6</ele><time>2026-05-02T14:20:48.15Z</time></trkpt><trkpt lat="46.0894945" lon="13.4333989"><ele>135.0</ele><time>2026-05-02T14:20:49.155Z</time></trkpt><trkpt lat="46.0894976" lon="13.4335395"><ele>135.0</ele><time>2026-05-02T14:20:50.15Z</time></trkpt><trkpt lat="46.0894625" lon="13.4337176"><ele>135.0</ele><time>2026-05-02T14:20:51.136Z</time></trkpt><trkpt lat="46.0894593" lon="13.4339119"><ele>135.0</ele><time>2026-05-02T14:20:52.14Z</time></trkpt><trkpt lat="46.0894548" lon="13.4341402"><ele>135.0</ele><time>2026-05-02T14:20:53.139Z</time></trkpt><trkpt lat="46.0894473" lon="13.4343871"><ele>136.0</ele><time>2026-05-02T14:20:54.135Z</time></trkpt><trkpt lat="46.0894362" lon="13.434647"><ele>137.0</ele><time>2026-05-02T14:20:55.145Z</time></trkpt><trkpt lat="46.0894278" lon="13.4349145"><ele>138.0</ele><time>2026-05-02T14:20:56.134Z</time></trkpt><trkpt lat="46.0894172" lon="13.4351732"><ele>138.0</ele><time>2026-05-02T14:20:57.137Z</time></trkpt><trkpt lat="46.0894037" lon="13.4354274"><ele>138.0</ele><time>2026-05-02T14:20:58.127Z</time></trkpt><trkpt lat="46.0893872" lon="13.4356802"><ele>138.0</ele><time>2026-05-02T14:20:59.156Z</time></trkpt><trkpt lat="46.089369" lon="13.4359287"><ele>138.0</ele><time>2026-05-02T14:21:00.143Z</time></trkpt><trkpt lat="46.089354" lon="13.4361719"><ele>138.0</ele><time>2026-05-02T14:21:01.137Z</time></trkpt><trkpt lat="46.0893395" lon="13.4363975"><ele>138.0</ele><time>2026-05-02T14:21:02.144Z</time></trkpt><trkpt lat="46.0893312" lon="13.4366077"><ele>138.0</ele><time>2026-05-02T14:21:03.154Z</time></trkpt><trkpt lat="46.0893279" lon="13.4368116"><ele>138.0</ele><time>2026-05-02T14:21:04.135Z</time></trkpt><trkpt lat="46.0893224" lon="13.4369988"><ele>138.0</ele><time>2026-05-02T14:21:05.162Z</time></trkpt><trkpt lat="46.089317" lon="13.4371671"><ele>138.0</ele><time>2026-05-02T14:21:06.159Z</time></trkpt><trkpt lat="46.0893016" lon="13.4373231"><ele>138.5</ele><time>2026-05-02T14:21:07.141Z</time></trkpt><trkpt lat="46.0892805" lon="13.4374862"><ele>139.0</ele><time>2026-05-02T14:21:08.154Z</time></trkpt><trkpt lat="46.0892721" lon="13.4376505"><ele>139.5</ele><time>2026-05-02T14:21:09.147Z</time></trkpt><trkpt lat="46.0892579" lon="13.4378176"><ele>140.0</ele><time>2026-05-02T14:21:10.151Z</time></trkpt><trkpt lat="46.0892191" lon="13.4379646"><ele>140.0</ele><time>2026-05-02T14:21:11.149Z</time></trkpt><trkpt lat="46.0891708" lon="13.4380993"><ele>140.0</ele><time>2026-05-02T14:21:12.182Z</time></trkpt><trkpt lat="46.089121" lon="13.4382077"><ele>140.0</ele><time>2026-05-02T14:21:13.159Z</time></trkpt><trkpt lat="46.0890864" lon="13.4383061"><ele>140.0</ele><time>2026-05-02T14:21:14.16Z</time></trkpt><trkpt lat="46.0890761" lon="13.4384061"><ele>140.0</ele><time>2026-05-02T14:21:15.163Z</time></trkpt><trkpt lat="46.089104" lon="13.4384877"><ele>140.0</ele><time>2026-05-02T14:21:16.146Z</time></trkpt><trkpt lat="46.0891735" lon="13.4385391"><ele>140.0</ele><time>2026-05-02T14:21:17.157Z</time></trkpt><trkpt lat="46.0892641" lon="13.4385786"><ele>140.0</ele><time>2026-05-02T14:21:18.142Z</time></trkpt><trkpt lat="46.0893671" lon="13.4386109"><ele>140.0</ele><time>2026-05-02T14:21:19.164Z</time></trkpt><trkpt lat="46.0894762" lon="13.4386258"><ele>140.0</ele><time>2026-05-02T14:21:20.149Z</time></trkpt><trkpt lat="46.0895889" lon="13.4386183"><ele>140.0</ele><time>2026-05-02T14:21:21.152Z</time></trkpt><trkpt lat="46.0896905" lon="13.4385831"><ele>140.0</ele><time>2026-05-02T14:21:22.151Z</time></trkpt><trkpt lat="46.0897844" lon="13.4385559"><ele>140.0</ele><time>2026-05-02T14:21:23.159Z</time></trkpt><trkpt lat="46.0898757" lon="13.4385723"><ele>140.0</ele><time>2026-05-02T14:21:24.153Z</time></trkpt><trkpt lat="46.089942" lon="13.4386495"><ele>140.0</ele><time>2026-05-02T14:21:25.149Z</time></trkpt><trkpt lat="46.0900086" lon="13.4387542"><ele>140.0</ele><time>2026-05-02T14:21:26.145Z</time></trkpt><trkpt lat="46.0900668" lon="13.4389212"><ele>139.75</ele><time>2026-05-02T14:21:27.155Z</time></trkpt><trkpt lat="46.0901227" lon="13.4391085"><ele>139.5</ele><time>2026-05-02T14:21:28.144Z</time></trkpt><trkpt lat="46.0901777" lon="13.439315"><ele>139.25</ele><time>2026-05-02T14:21:29.157Z</time></trkpt><trkpt lat="46.090236" lon="13.4395161"><ele>139.0</ele><time>2026-05-02T14:21:30.149Z</time></trkpt><trkpt lat="46.0902931" lon="13.4397097"><ele>139.0</ele><time>2026-05-02T14:21:31.168Z</time></trkpt><trkpt lat="46.090348" lon="13.4399056"><ele>139.0</ele><time>2026-05-02T14:21:32.142Z</time></trkpt><trkpt lat="46.0904038" lon="13.4400974"><ele>139.0</ele><time>2026-05-02T14:21:33.143Z</time></trkpt><trkpt lat="46.0904511" lon="13.4402851"><ele>139.0</ele><time>2026-05-02T14:21:34.149Z</time></trkpt><trkpt lat="46.0904927" lon="13.4404643"><ele>138.5</ele><time>2026-05-02T14:21:35.156Z</time></trkpt><trkpt lat="46.0905292" lon="13.4406406"><ele>138.0</ele><time>2026-05-02T14:21:36.149Z</time></trkpt><trkpt lat="46.0905639" lon="13.4408117"><ele>137.5</ele><time>2026-05-02T14:21:37.168Z</time></trkpt><trkpt lat="46.0905982" lon="13.4409812"><ele>137.0</ele><time>2026-05-02T14:21:38.153Z</time></trkpt><trkpt lat="46.0906367" lon="13.4411519"><ele>137.0</ele><time>2026-05-02T14:21:39.158Z</time></trkpt><trkpt lat="46.090672" lon="13.4413214"><ele>137.0</ele><time>2026-05-02T14:21:40.152Z</time></trkpt><trkpt lat="46.0907067" lon="13.4414853"><ele>137.0</ele><time>2026-05-02T14:21:41.155Z</time></trkpt><trkpt lat="46.0907428" lon="13.4416472"><ele>137.0</ele><time>2026-05-02T14:21:42.151Z</time></trkpt><trkpt lat="46.090779" lon="13.4418134"><ele>137.25</ele><time>2026-05-02T14:21:43.159Z</time></trkpt><trkpt lat="46.0908146" lon="13.4419823"><ele>137.5</ele><time>2026-05-02T14:21:44.145Z</time></trkpt><trkpt lat="46.090847" lon="13.4421527"><ele>137.75</ele><time>2026-05-02T14:21:45.154Z</time></trkpt><trkpt lat="46.0908835" lon="13.4423299"><ele>138.0</ele><time>2026-05-02T14:21:46.149Z</time></trkpt><trkpt lat="46.0909248" lon="13.4425075"><ele>138.0</ele><time>2026-05-02T14:21:47.151Z</time></trkpt><trkpt lat="46.0909696" lon="13.4426741"><ele>138.0</ele><time>2026-05-02T14:21:48.155Z</time></trkpt><trkpt lat="46.0910224" lon="13.442844"><ele>138.0</ele><time>2026-05-02T14:21:49.145Z</time></trkpt><trkpt lat="46.0910769" lon="13.4430046"><ele>138.0</ele><time>2026-05-02T14:21:50.149Z</time></trkpt><trkpt lat="46.0911278" lon="13.4431635"><ele>138.0</ele><time>2026-05-02T14:21:51.163Z</time></trkpt><trkpt lat="46.0911742" lon="13.4433137"><ele>138.0</ele><time>2026-05-02T14:21:52.167Z</time></trkpt><trkpt lat="46.0912178" lon="13.4434592"><ele>138.0</ele><time>2026-05-02T14:21:53.151Z</time></trkpt><trkpt lat="46.0912637" lon="13.4436026"><ele>138.0</ele><time>2026-05-02T14:21:54.155Z</time></trkpt><trkpt lat="46.0913066" lon="13.4437475"><ele>138.0</ele><time>2026-05-02T14:21:55.162Z</time></trkpt><trkpt lat="46.0913491" lon="13.443901"><ele>138.0</ele><time>2026-05-02T14:21:56.157Z</time></trkpt><trkpt lat="46.0913978" lon="13.4440723"><ele>138.0</ele><time>2026-05-02T14:21:57.152Z</time></trkpt><trkpt lat="46.0914299" lon="13.4442392"><ele>138.0</ele><time>2026-05-02T14:21:58.15Z</time></trkpt><trkpt lat="46.0914662" lon="13.4444071"><ele>138.0</ele><time>2026-05-02T14:21:59.153Z</time></trkpt><trkpt lat="46.0915002" lon="13.4445808"><ele>138.5</ele><time>2026-05-02T14:22:00.144Z</time></trkpt><trkpt lat="46.0915297" lon="13.4447541"><ele>139.0</ele><time>2026-05-02T14:22:01.148Z</time></trkpt><trkpt lat="46.0915545" lon="13.4449298"><ele>139.5</ele><time>2026-05-02T14:22:02.144Z</time></trkpt><trkpt lat="46.0915764" lon="13.4451034"><ele>140.0</ele><time>2026-05-02T14:22:03.134Z</time></trkpt><trkpt lat="46.0915956" lon="13.4452742"><ele>140.25</ele><time>2026-05-02T14:22:04.14Z</time></trkpt><trkpt lat="46.09161" lon="13.4454403"><ele>140.5</ele><time>2026-05-02T14:22:05.146Z</time></trkpt><trkpt lat="46.0916267" lon="13.4456013"><ele>140.75</ele><time>2026-05-02T14:22:06.153Z</time></trkpt><trkpt lat="46.0916453" lon="13.4457583"><ele>141.0</ele><time>2026-05-02T14:22:07.147Z</time></trkpt><trkpt lat="46.0916746" lon="13.4459166"><ele>141.0</ele><time>2026-05-02T14:22:08.153Z</time></trkpt><trkpt lat="46.0917127" lon="13.4460826"><ele>141.0</ele><time>2026-05-02T14:22:09.148Z</time></trkpt><trkpt lat="46.0917519" lon="13.4462416"><ele>141.0</ele><time>2026-05-02T14:22:10.145Z</time></trkpt><trkpt lat="46.0917907" lon="13.4463989"><ele>141.0</ele><time>2026-05-02T14:22:11.146Z</time></trkpt><trkpt lat="46.0918293" lon="13.4465463"><ele>141.25</ele><time>2026-05-02T14:22:12.152Z</time></trkpt><trkpt lat="46.0918652" lon="13.4467025"><ele>141.5</ele><time>2026-05-02T14:22:13.166Z</time></trkpt><trkpt lat="46.0919033" lon="13.4468818"><ele>141.75</ele><time>2026-05-02T14:22:14.152Z</time></trkpt><trkpt lat="46.0919543" lon="13.4470827"><ele>142.0</ele><time>2026-05-02T14:22:15.14Z</time></trkpt><trkpt lat="46.0920124" lon="13.4472957"><ele>143.0</ele><time>2026-05-02T14:22:16.149Z</time></trkpt><trkpt lat="46.0920761" lon="13.4475227"><ele>144.0</ele><time>2026-05-02T14:22:17.137Z</time></trkpt><trkpt lat="46.0921452" lon="13.4477488"><ele>145.0</ele><time>2026-05-02T14:22:18.133Z</time></trkpt><trkpt lat="46.0922148" lon="13.447963"><ele>146.25</ele><time>2026-05-02T14:22:19.134Z</time></trkpt><trkpt lat="46.0922762" lon="13.4481554"><ele>147.5</ele><time>2026-05-02T14:22:20.148Z</time></trkpt><trkpt lat="46.0923136" lon="13.4483325"><ele>148.75</ele><time>2026-05-02T14:22:21.145Z</time></trkpt><trkpt lat="46.0923075" lon="13.4485051"><ele>150.0</ele><time>2026-05-02T14:22:22.138Z</time></trkpt><trkpt lat="46.0922756" lon="13.4486977"><ele>150.66666666666666</ele><time>2026-05-02T14:22:23.138Z</time></trkpt><trkpt lat="46.0922202" lon="13.4488993"><ele>151.33333333333331</ele><time>2026-05-02T14:22:24.134Z</time></trkpt><trkpt lat="46.0921676" lon="13.4491061"><ele>152.0</ele><time>2026-05-02T14:22:25.153Z</time></trkpt><trkpt lat="46.0921201" lon="13.4493218"><ele>152.0</ele><time>2026-05-02T14:22:26.142Z</time></trkpt><trkpt lat="46.0920851" lon="13.449547"><ele>152.0</ele><time>2026-05-02T14:22:27.14Z</time></trkpt><trkpt lat="46.0920442" lon="13.4497753"><ele>152.0</ele><time>2026-05-02T14:22:28.13Z</time></trkpt><trkpt lat="46.0920014" lon="13.4500108"><ele>154.0</ele><time>2026-05-02T14:22:29.142Z</time></trkpt><trkpt lat="46.0919669" lon="13.4502443"><ele>156.0</ele><time>2026-05-02T14:22:30.133Z</time></trkpt><trkpt lat="46.0919319" lon="13.4504811"><ele>158.0</ele><time>2026-05-02T14:22:31.138Z</time></trkpt><trkpt lat="46.0919041" lon="13.4507129"><ele>160.66666666666666</ele><time>2026-05-02T14:22:32.139Z</time></trkpt><trkpt lat="46.0918798" lon="13.4509518"><ele>163.33333333333334</ele><time>2026-05-02T14:22:33.13Z</time></trkpt><trkpt lat="46.0918573" lon="13.4511873"><ele>166.0</ele><time>2026-05-02T14:22:34.13Z</time></trkpt><trkpt lat="46.0918301" lon="13.451417"><ele>167.0</ele><time>2026-05-02T14:22:35.135Z</time></trkpt><trkpt lat="46.0917917" lon="13.4516369"><ele>168.0</ele><time>2026-05-02T14:22:36.137Z</time></trkpt><trkpt lat="46.0917609" lon="13.451845"><ele>169.0</ele><time>2026-05-02T14:22:37.133Z</time></trkpt><trkpt lat="46.091762" lon="13.4520405"><ele>170.0</ele><time>2026-05-02T14:22:38.148Z</time></trkpt><trkpt lat="46.0917886" lon="13.4522334"><ele>170.0</ele><time>2026-05-02T14:22:39.139Z</time></trkpt><trkpt lat="46.0918464" lon="13.452428"><ele>170.0</ele><time>2026-05-02T14:22:40.139Z</time></trkpt><trkpt lat="46.0919175" lon="13.4526362"><ele>170.0</ele><time>2026-05-02T14:22:41.141Z</time></trkpt><trkpt lat="46.0919827" lon="13.452859"><ele>169.0</ele><time>2026-05-02T14:22:42.141Z</time></trkpt><trkpt lat="46.0920366" lon="13.4530955"><ele>168.0</ele><time>2026-05-02T14:22:43.142Z</time></trkpt><trkpt lat="46.0920783" lon="13.4533376"><ele>167.0</ele><time>2026-05-02T14:22:44.131Z</time></trkpt><trkpt lat="46.092105" lon="13.453584"><ele>168.0</ele><time>2026-05-02T14:22:45.142Z</time></trkpt><trkpt lat="46.0921155" lon="13.4538317"><ele>169.0</ele><time>2026-05-02T14:22:46.135Z</time></trkpt><trkpt lat="46.0921182" lon="13.4540857"><ele>170.0</ele><time>2026-05-02T14:22:47.138Z</time></trkpt><trkpt lat="46.0921189" lon="13.4543387"><ele>170.0</ele><time>2026-05-02T14:22:48.135Z</time></trkpt><trkpt lat="46.0921155" lon="13.4545883"><ele>170.0</ele><time>2026-05-02T14:22:49.137Z</time></trkpt><trkpt lat="46.0921104" lon="13.4548331"><ele>170.0</ele><time>2026-05-02T14:22:50.126Z</time></trkpt><trkpt lat="46.092097" lon="13.4550797"><ele>172.33333333333331</ele><time>2026-05-02T14:22:51.126Z</time></trkpt><trkpt lat="46.0920787" lon="13.4553298"><ele>174.66666666666666</ele><time>2026-05-02T14:22:52.13Z</time></trkpt><trkpt lat="46.0920532" lon="13.4555834"><ele>177.0</ele><time>2026-05-02T14:22:53.135Z</time></trkpt><trkpt lat="46.0920228" lon="13.4558335"><ele>180.0</ele><time>2026-05-02T14:22:54.136Z</time></trkpt><trkpt lat="46.0919904" lon="13.4560902"><ele>183.0</ele><time>2026-05-02T14:22:55.134Z</time></trkpt><trkpt lat="46.091951" lon="13.4563447"><ele>186.0</ele><time>2026-05-02T14:22:56.132Z</time></trkpt><trkpt lat="46.0919073" lon="13.4565974"><ele>189.0</ele><time>2026-05-02T14:22:57.139Z</time></trkpt><trkpt lat="46.0918643" lon="13.456844"><ele>192.0</ele><time>2026-05-02T14:22:58.137Z</time></trkpt><trkpt lat="46.0918338" lon="13.4570903"><ele>195.0</ele><time>2026-05-02T14:22:59.139Z</time></trkpt><trkpt lat="46.0918148" lon="13.4573356"><ele>195.66666666666669</ele><time>2026-05-02T14:23:00.14Z</time></trkpt><trkpt lat="46.0918113" lon="13.4575819"><ele>196.33333333333334</ele><time>2026-05-02T14:23:01.139Z</time></trkpt><trkpt lat="46.0917969" lon="13.4578319"><ele>197.0</ele><time>2026-05-02T14:23:02.136Z</time></trkpt><trkpt lat="46.0917716" lon="13.4580815"><ele>199.66666666666669</ele><time>2026-05-02T14:23:03.147Z</time></trkpt><trkpt lat="46.0917363" lon="13.4583344"><ele>202.33333333333331</ele><time>2026-05-02T14:23:04.144Z</time></trkpt><trkpt lat="46.0916905" lon="13.4585832"><ele>205.0</ele><time>2026-05-02T14:23:05.136Z</time></trkpt><trkpt lat="46.091632" lon="13.4588228"><ele>200.0</ele><time>2026-05-02T14:23:06.141Z</time></trkpt><trkpt lat="46.0915616" lon="13.4590496"><ele>195.0</ele><time>2026-05-02T14:23:07.137Z</time></trkpt><trkpt lat="46.0914857" lon="13.4592553"><ele>190.0</ele><time>2026-05-02T14:23:08.138Z</time></trkpt><trkpt lat="46.0914" lon="13.4594481"><ele>193.66666666666669</ele><time>2026-05-02T14:23:09.15Z</time></trkpt><trkpt lat="46.0913286" lon="13.4596535"><ele>197.33333333333334</ele><time>2026-05-02T14:23:10.142Z</time></trkpt><trkpt lat="46.0912719" lon="13.4598932"><ele>201.0</ele><time>2026-05-02T14:23:11.144Z</time></trkpt><trkpt lat="46.0912256" lon="13.4601457"><ele>201.0</ele><time>2026-05-02T14:23:12.143Z</time></trkpt><trkpt lat="46.0911777" lon="13.4604055"><ele>201.0</ele><time>2026-05-02T14:23:13.137Z</time></trkpt><trkpt lat="46.09113" lon="13.4606566"><ele>201.0</ele><time>2026-05-02T14:23:14.14Z</time></trkpt><trkpt lat="46.0910791" lon="13.4609005"><ele>204.66666666666669</ele><time>2026-05-02T14:23:15.127Z</time></trkpt><trkpt lat="46.0910256" lon="13.461132"><ele>208.33333333333334</ele><time>2026-05-02T14:23:16.13Z</time></trkpt><trkpt lat="46.090974" lon="13.4613585"><ele>212.0</ele><time>2026-05-02T14:23:17.142Z</time></trkpt><trkpt lat="46.0909098" lon="13.4615658"><ele>214.5</ele><time>2026-05-02T14:23:18.134Z</time></trkpt><trkpt lat="46.0908367" lon="13.4617606"><ele>217.0</ele><time>2026-05-02T14:23:19.142Z</time></trkpt><trkpt lat="46.0907813" lon="13.4619503"><ele>219.5</ele><time>2026-05-02T14:23:20.136Z</time></trkpt><trkpt lat="46.0907467" lon="13.4621554"><ele>222.0</ele><time>2026-05-02T14:23:21.137Z</time></trkpt><trkpt lat="46.090732" lon="13.4623514"><ele>227.6</ele><time>2026-05-02T14:23:22.13Z</time></trkpt><trkpt lat="46.0907419" lon="13.4625176"><ele>233.2</ele><time>2026-05-02T14:23:23.142Z</time></trkpt><trkpt lat="46.0907463" lon="13.4626629"><ele>238.8</ele><time>2026-05-02T14:23:24.138Z</time></trkpt><trkpt lat="46.0907299" lon="13.4627643"><ele>244.4</ele><time>2026-05-02T14:23:25.138Z</time></trkpt><trkpt lat="46.0906017" lon="13.4627126"><ele>250.0</ele><time>2026-05-02T14:23:27.136Z</time></trkpt><trkpt lat="46.0905609" lon="13.4625931"><ele>249.99999999999997</ele><time>2026-05-02T14:23:28.124Z</time></trkpt><trkpt lat="46.09054" lon="13.4624461"><ele>250.0</ele><time>2026-05-02T14:23:29.127Z</time></trkpt><trkpt lat="46.0905178" lon="13.4622999"><ele>250.0</ele><time>2026-05-02T14:23:30.13Z</time></trkpt><trkpt lat="46.0904806" lon="13.4621891"><ele>250.0</ele><time>2026-05-02T14:23:31.139Z</time></trkpt><trkpt lat="46.0904198" lon="13.4621158"><ele>249.99999999999997</ele><time>2026-05-02T14:23:32.133Z</time></trkpt><trkpt lat="46.0903592" lon="13.4620814"><ele>250.0</ele><time>2026-05-02T14:23:33.137Z</time></trkpt><trkpt lat="46.0902731" lon="13.4621449"><ele>250.0</ele><time>2026-05-02T14:23:35.126Z</time></trkpt><trkpt lat="46.0903072" lon="13.4622912"><ele>250.0</ele><time>2026-05-02T14:23:37.141Z</time></trkpt><trkpt lat="46.0903733" lon="13.4623928"><ele>250.0</ele><time>2026-05-02T14:23:39.128Z</time></trkpt><trkpt lat="46.090413" lon="13.4625623"><ele>250.0</ele><time>2026-05-02T14:23:41.141Z</time></trkpt><trkpt lat="46.0903833" lon="13.4626938"><ele>250.0</ele><time>2026-05-02T14:23:42.138Z</time></trkpt><trkpt lat="46.0903525" lon="13.4628624"><ele>251.75</ele><time>2026-05-02T14:23:43.132Z</time></trkpt><trkpt lat="46.0903131" lon="13.4630523"><ele>253.5</ele><time>2026-05-02T14:23:44.137Z</time></trkpt><trkpt lat="46.0902461" lon="13.4632304"><ele>255.25</ele><time>2026-05-02T14:23:45.139Z</time></trkpt><trkpt lat="46.0901546" lon="13.4633924"><ele>257.0</ele><time>2026-05-02T14:23:46.134Z</time></trkpt><trkpt lat="46.0900536" lon="13.4635306"><ele>257.0</ele><time>2026-05-02T14:23:47.127Z</time></trkpt><trkpt lat="46.0899605" lon="13.4636693"><ele>257.0</ele><time>2026-05-02T14:23:48.133Z</time></trkpt><trkpt lat="46.0899109" lon="13.4638081"><ele>257.0</ele><time>2026-05-02T14:23:49.143Z</time></trkpt><trkpt lat="46.0898959" lon="13.4639408"><ele>257.0</ele><time>2026-05-02T14:23:50.144Z</time></trkpt><trkpt lat="46.0898966" lon="13.4640606"><ele>257.0</ele><time>2026-05-02T14:23:51.123Z</time></trkpt><trkpt lat="46.0898656" lon="13.4641411"><ele>260.8</ele><time>2026-05-02T14:23:52.142Z</time></trkpt><trkpt lat="46.0897894" lon="13.4641512"><ele>264.6</ele><time>2026-05-02T14:23:53.127Z</time></trkpt><trkpt lat="46.0897419" lon="13.4640884"><ele>268.40000000000003</ele><time>2026-05-02T14:23:54.124Z</time></trkpt><trkpt lat="46.0897263" lon="13.4639522"><ele>272.2</ele><time>2026-05-02T14:23:55.131Z</time></trkpt><trkpt lat="46.0897386" lon="13.4637925"><ele>276.0</ele><time>2026-05-02T14:23:56.126Z</time></trkpt><trkpt lat="46.0897683" lon="13.4636211"><ele>276.0</ele><time>2026-05-02T14:23:57.125Z</time></trkpt><trkpt lat="46.0897978" lon="13.4634321"><ele>276.0</ele><time>2026-05-02T14:23:58.127Z</time></trkpt><trkpt lat="46.0897935" lon="13.4632414"><ele>276.0</ele><time>2026-05-02T14:23:59.131Z</time></trkpt><trkpt lat="46.0897466" lon="13.4630778"><ele>276.0</ele><time>2026-05-02T14:24:00.153Z</time></trkpt><trkpt lat="46.0896684" lon="13.4629483"><ele>272.75</ele><time>2026-05-02T14:24:01.134Z</time></trkpt><trkpt lat="46.089562" lon="13.4628486"><ele>269.5</ele><time>2026-05-02T14:24:02.134Z</time></trkpt><trkpt lat="46.0894427" lon="13.4627533"><ele>266.25</ele><time>2026-05-02T14:24:03.137Z</time></trkpt><trkpt lat="46.0893243" lon="13.4626774"><ele>263.0</ele><time>2026-05-02T14:24:04.136Z</time></trkpt><trkpt lat="46.089219" lon="13.4626306"><ele>263.0</ele><time>2026-05-02T14:24:05.146Z</time></trkpt><trkpt lat="46.0891204" lon="13.4626296"><ele>263.0</ele><time>2026-05-02T14:24:06.134Z</time></trkpt><trkpt lat="46.0890237" lon="13.4626991"><ele>263.0</ele><time>2026-05-02T14:24:07.137Z</time></trkpt><trkpt lat="46.0889414" lon="13.4628164"><ele>263.0</ele><time>2026-05-02T14:24:08.13Z</time></trkpt><trkpt lat="46.0888856" lon="13.4629483"><ele>263.0</ele><time>2026-05-02T14:24:09.133Z</time></trkpt><trkpt lat="46.0888691" lon="13.4630863"><ele>265.6</ele><time>2026-05-02T14:24:10.133Z</time></trkpt><trkpt lat="46.0889017" lon="13.4632158"><ele>268.20000000000005</ele><time>2026-05-02T14:24:11.131Z</time></trkpt><trkpt lat="46.0889851" lon="13.4633001"><ele>270.8</ele><time>2026-05-02T14:24:12.14Z</time></trkpt><trkpt lat="46.089087" lon="13.4633589"><ele>273.40000000000003</ele><time>2026-05-02T14:24:13.129Z</time></trkpt><trkpt lat="46.0891765" lon="13.4634253"><ele>276.0</ele><time>2026-05-02T14:24:14.136Z</time></trkpt><trkpt lat="46.0892409" lon="13.4635551"><ele>276.0</ele><time>2026-05-02T14:24:15.141Z</time></trkpt><trkpt lat="46.0892665" lon="13.463738"><ele>276.0</ele><time>2026-05-02T14:24:16.129Z</time></trkpt><trkpt lat="46.0892723" lon="13.463929"><ele>276.0</ele><time>2026-05-02T14:24:17.135Z</time></trkpt><trkpt lat="46.0892572" lon="13.4641265"><ele>276.0</ele><time>2026-05-02T14:24:18.124Z</time></trkpt><trkpt lat="46.0892155" lon="13.4643337"><ele>279.3333333333333</ele><time>2026-05-02T14:24:19.134Z</time></trkpt><trkpt lat="46.0891395" lon="13.4645447"><ele>282.66666666666663</ele><time>2026-05-02T14:24:20.134Z</time></trkpt><trkpt lat="46.0890482" lon="13.464738"><ele>286.0</ele><time>2026-05-02T14:24:21.138Z</time></trkpt><trkpt lat="46.0889561" lon="13.4649051"><ele>289.0</ele><time>2026-05-02T14:24:22.137Z</time></trkpt><trkpt lat="46.0888469" lon="13.4650297"><ele>292.0</ele><time>2026-05-02T14:24:23.142Z</time></trkpt><trkpt lat="46.0887179" lon="13.4651265"><ele>295.0</ele><time>2026-05-02T14:24:24.134Z</time></trkpt><trkpt lat="46.0885906" lon="13.465218"><ele>298.0</ele><time>2026-05-02T14:24:25.145Z</time></trkpt><trkpt lat="46.0884606" lon="13.4653125"><ele>298.0</ele><time>2026-05-02T14:24:26.144Z</time></trkpt><trkpt lat="46.0883352" lon="13.4653987"><ele>298.0</ele><time>2026-05-02T14:24:27.138Z</time></trkpt><trkpt lat="46.0882175" lon="13.4654841"><ele>298.0</ele><time>2026-05-02T14:24:28.147Z</time></trkpt><trkpt lat="46.0881165" lon="13.4655825"><ele>298.0</ele><time>2026-05-02T14:24:29.142Z</time></trkpt><trkpt lat="46.0880197" lon="13.4656998"><ele>301.5</ele><time>2026-05-02T14:24:30.156Z</time></trkpt><trkpt lat="46.087926" lon="13.4658161"><ele>305.0</ele><time>2026-05-02T14:24:31.142Z</time></trkpt><trkpt lat="46.0878276" lon="13.4659366"><ele>308.5</ele><time>2026-05-02T14:24:32.132Z</time></trkpt><trkpt lat="46.0877317" lon="13.4660458"><ele>312.0</ele><time>2026-05-02T14:24:33.129Z</time></trkpt><trkpt lat="46.0876369" lon="13.4661639"><ele>310.25</ele><time>2026-05-02T14:24:34.127Z</time></trkpt><trkpt lat="46.0875485" lon="13.4662983"><ele>308.5</ele><time>2026-05-02T14:24:35.134Z</time></trkpt><trkpt lat="46.0874557" lon="13.4664583"><ele>306.75</ele><time>2026-05-02T14:24:36.144Z</time></trkpt><trkpt lat="46.0873724" lon="13.4666223"><ele>305.0</ele><time>2026-05-02T14:24:37.127Z</time></trkpt><trkpt lat="46.0872934" lon="13.4667738"><ele>310.8</ele><time>2026-05-02T14:24:38.137Z</time></trkpt><trkpt lat="46.0872289" lon="13.4669113"><ele>316.6</ele><time>2026-05-02T14:24:39.129Z</time></trkpt><trkpt lat="46.0871719" lon="13.4670448"><ele>322.4</ele><time>2026-05-02T14:24:40.139Z</time></trkpt><trkpt lat="46.0871273" lon="13.467176"><ele>328.2</ele><time>2026-05-02T14:24:41.133Z</time></trkpt><trkpt lat="46.0871402" lon="13.4673358"><ele>334.0</ele><time>2026-05-02T14:24:42.135Z</time></trkpt><trkpt lat="46.0871757" lon="13.4675063"><ele>334.0</ele><time>2026-05-02T14:24:43.117Z</time></trkpt><trkpt lat="46.0872171" lon="13.4676749"><ele>334.0</ele><time>2026-05-02T14:24:44.118Z</time></trkpt><trkpt lat="46.0872454" lon="13.4678476"><ele>334.0</ele><time>2026-05-02T14:24:45.131Z</time></trkpt><trkpt lat="46.0872798" lon="13.4679817"><ele>334.0</ele><time>2026-05-02T14:24:46.124Z</time></trkpt><trkpt lat="46.08735" lon="13.4680632"><ele>334.0</ele><time>2026-05-02T14:24:47.117Z</time></trkpt><trkpt lat="46.0874497" lon="13.4681087"><ele>331.0</ele><time>2026-05-02T14:24:48.118Z</time></trkpt><trkpt lat="46.0875738" lon="13.4681017"><ele>328.0</ele><time>2026-05-02T14:24:49.127Z</time></trkpt><trkpt lat="46.0877122" lon="13.4680947"><ele>325.0</ele><time>2026-05-02T14:24:50.123Z</time></trkpt><trkpt lat="46.0878527" lon="13.4680962"><ele>322.0</ele><time>2026-05-02T14:24:51.123Z</time></trkpt><trkpt lat="46.0879966" lon="13.4681633"><ele>322.0</ele><time>2026-05-02T14:24:52.119Z</time></trkpt><trkpt lat="46.0881381" lon="13.4683001"><ele>322.0</ele><time>2026-05-02T14:24:53.123Z</time></trkpt><trkpt lat="46.0882766" lon="13.4684464"><ele>322.0</ele><time>2026-05-02T14:24:54.119Z</time></trkpt><trkpt lat="46.0884146" lon="13.4685948"><ele>321.25</ele><time>2026-05-02T14:24:55.116Z</time></trkpt><trkpt lat="46.0885432" lon="13.4687452"><ele>320.5</ele><time>2026-05-02T14:24:56.124Z</time></trkpt><trkpt lat="46.0886724" lon="13.468879"><ele>319.75</ele><time>2026-05-02T14:24:57.125Z</time></trkpt><trkpt lat="46.0887707" lon="13.4689772"><ele>319.0</ele><time>2026-05-02T14:24:58.123Z</time></trkpt><trkpt lat="46.0888339" lon="13.4690639"><ele>319.0</ele><time>2026-05-02T14:24:59.123Z</time></trkpt><trkpt lat="46.0888741" lon="13.4691475"><ele>319.0</ele><time>2026-05-02T14:25:00.135Z</time></trkpt><trkpt lat="46.088863" lon="13.4692554"><ele>319.0</ele><time>2026-05-02T14:25:01.134Z</time></trkpt><trkpt lat="46.0887962" lon="13.4693509"><ele>319.0</ele><time>2026-05-02T14:25:02.128Z</time></trkpt><trkpt lat="46.0886842" lon="13.4694138"><ele>319.0</ele><time>2026-05-02T14:25:03.125Z</time></trkpt><trkpt lat="46.0885609" lon="13.4694684"><ele>319.0</ele><time>2026-05-02T14:25:04.123Z</time></trkpt><trkpt lat="46.088408" lon="13.4695182"><ele>319.0</ele><time>2026-05-02T14:25:05.133Z</time></trkpt><trkpt lat="46.0882484" lon="13.4695788"><ele>319.0</ele><time>2026-05-02T14:25:06.137Z</time></trkpt><trkpt lat="46.0880852" lon="13.4696431"><ele>315.66666666666663</ele><time>2026-05-02T14:25:07.133Z</time></trkpt><trkpt lat="46.0879292" lon="13.4697221"><ele>312.3333333333333</ele><time>2026-05-02T14:25:08.125Z</time></trkpt><trkpt lat="46.0877764" lon="13.4698053"><ele>309.0</ele><time>2026-05-02T14:25:09.121Z</time></trkpt><trkpt lat="46.0876274" lon="13.4698792"><ele>309.0</ele><time>2026-05-02T14:25:10.121Z</time></trkpt><trkpt lat="46.0874805" lon="13.4699436"><ele>309.0</ele><time>2026-05-02T14:25:11.129Z</time></trkpt><trkpt lat="46.0873456" lon="13.4700383"><ele>309.0</ele><time>2026-05-02T14:25:12.128Z</time></trkpt><trkpt lat="46.0872207" lon="13.4701672"><ele>308.5</ele><time>2026-05-02T14:25:13.125Z</time></trkpt><trkpt lat="46.0871113" lon="13.4703177"><ele>308.0</ele><time>2026-05-02T14:25:14.124Z</time></trkpt><trkpt lat="46.0870227" lon="13.4704929"><ele>307.5</ele><time>2026-05-02T14:25:15.129Z</time></trkpt><trkpt lat="46.0869567" lon="13.4706804"><ele>307.0</ele><time>2026-05-02T14:25:16.122Z</time></trkpt><trkpt lat="46.0868994" lon="13.4708859"><ele>307.0</ele><time>2026-05-02T14:25:17.131Z</time></trkpt><trkpt lat="46.0868664" lon="13.4710971"><ele>307.0</ele><time>2026-05-02T14:25:18.132Z</time></trkpt><trkpt lat="46.0868324" lon="13.4713015"><ele>307.0</ele><time>2026-05-02T14:25:19.123Z</time></trkpt><trkpt lat="46.0867997" lon="13.4715044"><ele>307.0</ele><time>2026-05-02T14:25:20.129Z</time></trkpt><trkpt lat="46.0867666" lon="13.4716943"><ele>304.0</ele><time>2026-05-02T14:25:21.129Z</time></trkpt><trkpt lat="46.0867287" lon="13.4718813"><ele>301.0</ele><time>2026-05-02T14:25:22.137Z</time></trkpt><trkpt lat="46.0866826" lon="13.4720652"><ele>298.0</ele><time>2026-05-02T14:25:23.13Z</time></trkpt><trkpt lat="46.086631" lon="13.4722463"><ele>295.0</ele><time>2026-05-02T14:25:24.121Z</time></trkpt><trkpt lat="46.0865452" lon="13.4724164"><ele>290.0</ele><time>2026-05-02T14:25:25.146Z</time></trkpt><trkpt lat="46.086427" lon="13.4725727"><ele>285.0</ele><time>2026-05-02T14:25:26.14Z</time></trkpt><trkpt lat="46.0863016" lon="13.4727216"><ele>280.0</ele><time>2026-05-02T14:25:27.129Z</time></trkpt><trkpt lat="46.0861773" lon="13.4728752"><ele>278.3333333333333</ele><time>2026-05-02T14:25:28.144Z</time></trkpt><trkpt lat="46.0860525" lon="13.4730333"><ele>276.6666666666667</ele><time>2026-05-02T14:25:29.144Z</time></trkpt><trkpt lat="46.0859297" lon="13.4731951"><ele>275.0</ele><time>2026-05-02T14:25:30.145Z</time></trkpt><trkpt lat="46.0858175" lon="13.4733714"><ele>273.33333333333337</ele><time>2026-05-02T14:25:31.138Z</time></trkpt><trkpt lat="46.0857148" lon="13.4735535"><ele>271.6666666666667</ele><time>2026-05-02T14:25:32.13Z</time></trkpt><trkpt lat="46.0856158" lon="13.4737378"><ele>270.0</ele><time>2026-05-02T14:25:33.138Z</time></trkpt><trkpt lat="46.0855231" lon="13.4739152"><ele>270.0</ele><time>2026-05-02T14:25:34.131Z</time></trkpt><trkpt lat="46.0854386" lon="13.4740879"><ele>270.0</ele><time>2026-05-02T14:25:35.135Z</time></trkpt><trkpt lat="46.085371" lon="13.4742507"><ele>270.0</ele><time>2026-05-02T14:25:36.141Z</time></trkpt><trkpt lat="46.0853219" lon="13.4744083"><ele>270.0</ele><time>2026-05-02T14:25:37.142Z</time></trkpt><trkpt lat="46.0853002" lon="13.4745827"><ele>270.5</ele><time>2026-05-02T14:25:38.14Z</time></trkpt><trkpt lat="46.085309" lon="13.4747747"><ele>271.0</ele><time>2026-05-02T14:25:39.143Z</time></trkpt><trkpt lat="46.0853454" lon="13.4749718"><ele>271.5</ele><time>2026-05-02T14:25:40.125Z</time></trkpt><trkpt lat="46.0854011" lon="13.4751797"><ele>272.0</ele><time>2026-05-02T14:25:41.138Z</time></trkpt><trkpt lat="46.0854536" lon="13.4753851"><ele>271.6666666666667</ele><time>2026-05-02T14:25:42.124Z</time></trkpt><trkpt lat="46.0855013" lon="13.4756063"><ele>271.3333333333333</ele><time>2026-05-02T14:25:43.129Z</time></trkpt><trkpt lat="46.0855448" lon="13.475824"><ele>271.0</ele><time>2026-05-02T14:25:44.118Z</time></trkpt><trkpt lat="46.0855922" lon="13.4760445"><ele>271.0</ele><time>2026-05-02T14:25:45.126Z</time></trkpt><trkpt lat="46.0856371" lon="13.4762575"><ele>271.0</ele><time>2026-05-02T14:25:46.133Z</time></trkpt><trkpt lat="46.085676" lon="13.4764664"><ele>271.0</ele><time>2026-05-02T14:25:47.133Z</time></trkpt><trkpt lat="46.0857055" lon="13.4766764"><ele>270.66666666666663</ele><time>2026-05-02T14:25:48.146Z</time></trkpt><trkpt lat="46.0857357" lon="13.4768966"><ele>270.3333333333333</ele><time>2026-05-02T14:25:49.148Z</time></trkpt><trkpt lat="46.0857463" lon="13.4771315"><ele>270.0</ele><time>2026-05-02T14:25:50.132Z</time></trkpt><trkpt lat="46.0857491" lon="13.4773726"><ele>269.0</ele><time>2026-05-02T14:25:51.136Z</time></trkpt><trkpt lat="46.0857514" lon="13.4776101"><ele>268.0</ele><time>2026-05-02T14:25:52.138Z</time></trkpt><trkpt lat="46.0857611" lon="13.4778378"><ele>267.0</ele><time>2026-05-02T14:25:53.143Z</time></trkpt><trkpt lat="46.0857869" lon="13.4780614"><ele>275.0</ele><time>2026-05-02T14:25:54.136Z</time></trkpt><trkpt lat="46.08583" lon="13.4782737"><ele>283.0</ele><time>2026-05-02T14:25:55.133Z</time></trkpt><trkpt lat="46.0858862" lon="13.4784722"><ele>291.0</ele><time>2026-05-02T14:25:56.125Z</time></trkpt><trkpt lat="46.0859428" lon="13.4786764"><ele>291.75</ele><time>2026-05-02T14:25:57.128Z</time></trkpt><trkpt lat="46.0860033" lon="13.4788673"><ele>292.5</ele><time>2026-05-02T14:25:58.124Z</time></trkpt><trkpt lat="46.0860608" lon="13.4790601"><ele>293.25</ele><time>2026-05-02T14:25:59.122Z</time></trkpt><trkpt lat="46.0861163" lon="13.4792552"><ele>294.0</ele><time>2026-05-02T14:26:00.124Z</time></trkpt><trkpt lat="46.0861661" lon="13.4794505"><ele>294.0</ele><time>2026-05-02T14:26:01.124Z</time></trkpt><trkpt lat="46.0862082" lon="13.4796463"><ele>294.0</ele><time>2026-05-02T14:26:02.141Z</time></trkpt><trkpt lat="46.0862466" lon="13.4798419"><ele>294.0</ele><time>2026-05-02T14:26:03.133Z</time></trkpt><trkpt lat="46.0862738" lon="13.4800121"><ele>294.0</ele><time>2026-05-02T14:26:04.138Z</time></trkpt><trkpt lat="46.0862988" lon="13.4801662"><ele>294.0</ele><time>2026-05-02T14:26:05.138Z</time></trkpt><trkpt lat="46.0863219" lon="13.4803016"><ele>294.0</ele><time>2026-05-02T14:26:06.145Z</time></trkpt><trkpt lat="46.0863458" lon="13.4804186"><ele>294.0</ele><time>2026-05-02T14:26:07.135Z</time></trkpt><trkpt lat="46.0863604" lon="13.4805408"><ele>294.0</ele><time>2026-05-02T14:26:08.139Z</time></trkpt><trkpt lat="46.0863724" lon="13.4806769"><ele>294.0</ele><time>2026-05-02T14:26:09.131Z</time></trkpt><trkpt lat="46.0863602" lon="13.4808119"><ele>294.8</ele><time>2026-05-02T14:26:10.132Z</time></trkpt><trkpt lat="46.0863431" lon="13.4809556"><ele>295.59999999999997</ele><time>2026-05-02T14:26:11.132Z</time></trkpt><trkpt lat="46.0863283" lon="13.4811038"><ele>296.4</ele><time>2026-05-02T14:26:12.128Z</time></trkpt><trkpt lat="46.0863156" lon="13.4812549"><ele>297.2</ele><time>2026-05-02T14:26:13.135Z</time></trkpt><trkpt lat="46.0863032" lon="13.4813951"><ele>298.0</ele><time>2026-05-02T14:26:14.131Z</time></trkpt><trkpt lat="46.0862927" lon="13.481536"><ele>299.8</ele><time>2026-05-02T14:26:15.123Z</time></trkpt><trkpt lat="46.0862857" lon="13.481674"><ele>301.6</ele><time>2026-05-02T14:26:16.129Z</time></trkpt><trkpt lat="46.086282" lon="13.4818117"><ele>303.4</ele><time>2026-05-02T14:26:17.133Z</time></trkpt><trkpt lat="46.0862857" lon="13.4819432"><ele>305.2</ele><time>2026-05-02T14:26:18.13Z</time></trkpt><trkpt lat="46.0863053" lon="13.4820621"><ele>307.0</ele><time>2026-05-02T14:26:19.134Z</time></trkpt><trkpt lat="46.0863409" lon="13.4821711"><ele>307.4</ele><time>2026-05-02T14:26:20.136Z</time></trkpt><trkpt lat="46.0863914" lon="13.482279"><ele>307.79999999999995</ele><time>2026-05-02T14:26:21.137Z</time></trkpt><trkpt lat="46.0864429" lon="13.4823861"><ele>308.2</ele><time>2026-05-02T14:26:22.13Z</time></trkpt><trkpt lat="46.086488" lon="13.4825078"><ele>308.59999999999997</ele><time>2026-05-02T14:26:23.12Z</time></trkpt><trkpt lat="46.0865269" lon="13.4826429"><ele>309.0</ele><time>2026-05-02T14:26:24.128Z</time></trkpt><trkpt lat="46.0865749" lon="13.4827659"><ele>311.6</ele><time>2026-05-02T14:26:25.123Z</time></trkpt><trkpt lat="46.0866331" lon="13.4828867"><ele>314.2</ele><time>2026-05-02T14:26:26.13Z</time></trkpt><trkpt lat="46.0867011" lon="13.4830002"><ele>316.8</ele><time>2026-05-02T14:26:27.13Z</time></trkpt><trkpt lat="46.0867692" lon="13.4831181"><ele>319.40000000000003</ele><time>2026-05-02T14:26:28.123Z</time></trkpt><trkpt lat="46.0868341" lon="13.4832388"><ele>322.0</ele><time>2026-05-02T14:26:29.135Z</time></trkpt><trkpt lat="46.0869032" lon="13.4833582"><ele>322.0</ele><time>2026-05-02T14:26:30.122Z</time></trkpt><trkpt lat="46.0869751" lon="13.4834748"><ele>322.0</ele><time>2026-05-02T14:26:31.133Z</time></trkpt><trkpt lat="46.0870487" lon="13.483579"><ele>322.0</ele><time>2026-05-02T14:26:32.131Z</time></trkpt><trkpt lat="46.0871118" lon="13.4836992"><ele>322.0</ele><time>2026-05-02T14:26:33.124Z</time></trkpt><trkpt lat="46.08716" lon="13.4838303"><ele>322.0</ele><time>2026-05-02T14:26:34.127Z</time></trkpt><trkpt lat="46.087197" lon="13.4839655"><ele>320.5</ele><time>2026-05-02T14:26:35.126Z</time></trkpt><trkpt lat="46.0872335" lon="13.4841015"><ele>319.0</ele><time>2026-05-02T14:26:36.145Z</time></trkpt><trkpt lat="46.0872664" lon="13.4842312"><ele>317.5</ele><time>2026-05-02T14:26:37.133Z</time></trkpt><trkpt lat="46.0873042" lon="13.4843503"><ele>316.0</ele><time>2026-05-02T14:26:38.12Z</time></trkpt><trkpt lat="46.087343" lon="13.4844519"><ele>314.5</ele><time>2026-05-02T14:26:39.133Z</time></trkpt><trkpt lat="46.0873911" lon="13.4845358"><ele>313.0</ele><time>2026-05-02T14:26:40.119Z</time></trkpt><trkpt lat="46.0874642" lon="13.4846022"><ele>317.0</ele><time>2026-05-02T14:26:41.127Z</time></trkpt><trkpt lat="46.087544" lon="13.4846565"><ele>321.0</ele><time>2026-05-02T14:26:42.119Z</time></trkpt><trkpt lat="46.0876319" lon="13.4846986"><ele>325.0</ele><time>2026-05-02T14:26:43.122Z</time></trkpt><trkpt lat="46.0877137" lon="13.4847358"><ele>329.0</ele><time>2026-05-02T14:26:44.131Z</time></trkpt><trkpt lat="46.0877935" lon="13.4847693"><ele>333.0</ele><time>2026-05-02T14:26:45.132Z</time></trkpt><trkpt lat="46.0878754" lon="13.4847996"><ele>337.0</ele><time>2026-05-02T14:26:46.129Z</time></trkpt><trkpt lat="46.0879563" lon="13.4848251"><ele>337.0</ele><time>2026-05-02T14:26:47.135Z</time></trkpt><trkpt lat="46.0880376" lon="13.484857"><ele>337.0</ele><time>2026-05-02T14:26:48.133Z</time></trkpt><trkpt lat="46.088121" lon="13.4848924"><ele>337.0</ele><time>2026-05-02T14:26:49.132Z</time></trkpt><trkpt lat="46.0882046" lon="13.4849289"><ele>337.0</ele><time>2026-05-02T14:26:50.137Z</time></trkpt><trkpt lat="46.0882835" lon="13.4849715"><ele>337.0</ele><time>2026-05-02T14:26:51.138Z</time></trkpt><trkpt lat="46.0883639" lon="13.4850225"><ele>337.0</ele><time>2026-05-02T14:26:52.13Z</time></trkpt><trkpt lat="46.08844" lon="13.4850739"><ele>336.16666666666663</ele><time>2026-05-02T14:26:53.136Z</time></trkpt><trkpt lat="46.088518" lon="13.4851358"><ele>335.3333333333333</ele><time>2026-05-02T14:26:54.13Z</time></trkpt><trkpt lat="46.0885935" lon="13.4852039"><ele>334.5</ele><time>2026-05-02T14:26:55.127Z</time></trkpt><trkpt lat="46.0886692" lon="13.4852781"><ele>333.6666666666667</ele><time>2026-05-02T14:26:56.139Z</time></trkpt><trkpt lat="46.0887413" lon="13.4853524"><ele>332.83333333333337</ele><time>2026-05-02T14:26:57.127Z</time></trkpt><trkpt lat="46.0888153" lon="13.4854192"><ele>332.0</ele><time>2026-05-02T14:26:58.134Z</time></trkpt><trkpt lat="46.0888833" lon="13.485489"><ele>332.0</ele><time>2026-05-02T14:26:59.134Z</time></trkpt><trkpt lat="46.0889492" lon="13.4855662"><ele>332.0</ele><time>2026-05-02T14:27:00.123Z</time></trkpt><trkpt lat="46.0890117" lon="13.4856392"><ele>332.0</ele><time>2026-05-02T14:27:01.128Z</time></trkpt><trkpt lat="46.0890776" lon="13.4857186"><ele>332.0</ele><time>2026-05-02T14:27:02.133Z</time></trkpt><trkpt lat="46.0891414" lon="13.4858013"><ele>332.0</ele><time>2026-05-02T14:27:03.132Z</time></trkpt><trkpt lat="46.0892039" lon="13.4858857"><ele>332.0</ele><time>2026-05-02T14:27:04.125Z</time></trkpt><trkpt lat="46.0892566" lon="13.4859801"><ele>334.33333333333337</ele><time>2026-05-02T14:27:05.125Z</time></trkpt><trkpt lat="46.0893115" lon="13.4860753"><ele>336.6666666666667</ele><time>2026-05-02T14:27:06.129Z</time></trkpt><trkpt lat="46.0893618" lon="13.486184"><ele>339.0</ele><time>2026-05-02T14:27:07.129Z</time></trkpt><trkpt lat="46.0894024" lon="13.4862955"><ele>341.3333333333333</ele><time>2026-05-02T14:27:08.138Z</time></trkpt><trkpt lat="46.0894258" lon="13.4864098"><ele>343.66666666666663</ele><time>2026-05-02T14:27:09.133Z</time></trkpt><trkpt lat="46.0894416" lon="13.4865281"><ele>346.0</ele><time>2026-05-02T14:27:10.126Z</time></trkpt><trkpt lat="46.0894558" lon="13.4866491"><ele>346.0</ele><time>2026-05-02T14:27:11.127Z</time></trkpt><trkpt lat="46.0894649" lon="13.4867685"><ele>346.0</ele><time>2026-05-02T14:27:12.123Z</time></trkpt><trkpt lat="46.0894772" lon="13.4868957"><ele>346.0</ele><time>2026-05-02T14:27:13.121Z</time></trkpt><trkpt lat="46.0894947" lon="13.4870347"><ele>346.0</ele><time>2026-05-02T14:27:14.12Z</time></trkpt><trkpt lat="46.0895205" lon="13.4871757"><ele>346.0</ele><time>2026-05-02T14:27:15.132Z</time></trkpt><trkpt lat="46.0895587" lon="13.4873134"><ele>344.20000000000005</ele><time>2026-05-02T14:27:16.128Z</time></trkpt><trkpt lat="46.0896042" lon="13.487454"><ele>342.40000000000003</ele><time>2026-05-02T14:27:17.124Z</time></trkpt><trkpt lat="46.0896564" lon="13.4875921"><ele>340.6</ele><time>2026-05-02T14:27:18.121Z</time></trkpt><trkpt lat="46.0897157" lon="13.4877235"><ele>338.8</ele><time>2026-05-02T14:27:19.141Z</time></trkpt><trkpt lat="46.0897835" lon="13.4878422"><ele>337.0</ele><time>2026-05-02T14:27:20.132Z</time></trkpt><trkpt lat="46.089858" lon="13.4879595"><ele>340.20000000000005</ele><time>2026-05-02T14:27:21.136Z</time></trkpt><trkpt lat="46.0899295" lon="13.4880755"><ele>343.4</ele><time>2026-05-02T14:27:22.127Z</time></trkpt><trkpt lat="46.0899995" lon="13.488195"><ele>346.6</ele><time>2026-05-02T14:27:23.137Z</time></trkpt><trkpt lat="46.0900647" lon="13.4883102"><ele>349.79999999999995</ele><time>2026-05-02T14:27:24.143Z</time></trkpt><trkpt lat="46.0901203" lon="13.488431"><ele>353.0</ele><time>2026-05-02T14:27:25.138Z</time></trkpt><trkpt lat="46.090162" lon="13.4885463"><ele>353.0</ele><time>2026-05-02T14:27:26.151Z</time></trkpt><trkpt lat="46.0901931" lon="13.4886651"><ele>353.0</ele><time>2026-05-02T14:27:27.138Z</time></trkpt><trkpt lat="46.0902126" lon="13.4887881"><ele>353.0</ele><time>2026-05-02T14:27:28.147Z</time></trkpt><trkpt lat="46.0902138" lon="13.4889273"><ele>353.0</ele><time>2026-05-02T14:27:29.138Z</time></trkpt><trkpt lat="46.0902033" lon="13.489073"><ele>353.0</ele><time>2026-05-02T14:27:30.148Z</time></trkpt><trkpt lat="46.0901931" lon="13.4892186"><ele>353.4</ele><time>2026-05-02T14:27:31.152Z</time></trkpt><trkpt lat="46.0901845" lon="13.4893761"><ele>353.79999999999995</ele><time>2026-05-02T14:27:32.152Z</time></trkpt><trkpt lat="46.0901737" lon="13.4895375"><ele>354.2</ele><time>2026-05-02T14:27:33.14Z</time></trkpt><trkpt lat="46.0901645" lon="13.4897014"><ele>354.6</ele><time>2026-05-02T14:27:34.163Z</time></trkpt><trkpt lat="46.0901504" lon="13.4898625"><ele>355.0</ele><time>2026-05-02T14:27:35.146Z</time></trkpt><trkpt lat="46.0901306" lon="13.4900245"><ele>355.6</ele><time>2026-05-02T14:27:36.14Z</time></trkpt><trkpt lat="46.0901071" lon="13.4901797"><ele>356.2</ele><time>2026-05-02T14:27:37.154Z</time></trkpt><trkpt lat="46.0900786" lon="13.4903334"><ele>356.79999999999995</ele><time>2026-05-02T14:27:38.145Z</time></trkpt><trkpt lat="46.0900539" lon="13.490486"><ele>357.4</ele><time>2026-05-02T14:27:39.15Z</time></trkpt><trkpt lat="46.0900306" lon="13.4906376"><ele>358.0</ele><time>2026-05-02T14:27:40.142Z</time></trkpt><trkpt lat="46.0900095" lon="13.4907873"><ele>359.0</ele><time>2026-05-02T14:27:41.15Z</time></trkpt><trkpt lat="46.0899886" lon="13.4909317"><ele>360.0</ele><time>2026-05-02T14:27:42.145Z</time></trkpt><trkpt lat="46.0899713" lon="13.4910742"><ele>361.0</ele><time>2026-05-02T14:27:43.143Z</time></trkpt><trkpt lat="46.0899593" lon="13.4912205"><ele>362.0</ele><time>2026-05-02T14:27:44.145Z</time></trkpt><trkpt lat="46.0899491" lon="13.4913658"><ele>363.0</ele><time>2026-05-02T14:27:45.148Z</time></trkpt><trkpt lat="46.0899418" lon="13.4915066"><ele>364.2</ele><time>2026-05-02T14:27:46.15Z</time></trkpt><trkpt lat="46.0899368" lon="13.4916472"><ele>365.4</ele><time>2026-05-02T14:27:47.149Z</time></trkpt><trkpt lat="46.0899373" lon="13.4917876"><ele>366.59999999999997</ele><time>2026-05-02T14:27:48.148Z</time></trkpt><trkpt lat="46.0899399" lon="13.4919271"><ele>367.79999999999995</ele><time>2026-05-02T14:27:49.142Z</time></trkpt><trkpt lat="46.0899385" lon="13.4920645"><ele>369.0</ele><time>2026-05-02T14:27:50.144Z</time></trkpt><trkpt lat="46.0899308" lon="13.4922065"><ele>365.79999999999995</ele><time>2026-05-02T14:27:51.136Z</time></trkpt><trkpt lat="46.0899249" lon="13.4923474"><ele>362.59999999999997</ele><time>2026-05-02T14:27:52.149Z</time></trkpt><trkpt lat="46.0899178" lon="13.4924879"><ele>359.4</ele><time>2026-05-02T14:27:53.134Z</time></trkpt><trkpt lat="46.0899132" lon="13.4926244"><ele>356.2</ele><time>2026-05-02T14:27:54.142Z</time></trkpt><trkpt lat="46.0899139" lon="13.4927621"><ele>353.0</ele><time>2026-05-02T14:27:55.142Z</time></trkpt><trkpt lat="46.0899181" lon="13.4929013"><ele>356.2</ele><time>2026-05-02T14:27:56.13Z</time></trkpt><trkpt lat="46.0899207" lon="13.4930342"><ele>359.4</ele><time>2026-05-02T14:27:57.138Z</time></trkpt><trkpt lat="46.0899246" lon="13.4931654"><ele>362.59999999999997</ele><time>2026-05-02T14:27:58.126Z</time></trkpt><trkpt lat="46.0899267" lon="13.4933004"><ele>365.79999999999995</ele><time>2026-05-02T14:27:59.14Z</time></trkpt><trkpt lat="46.089921" lon="13.4934413"><ele>369.0</ele><time>2026-05-02T14:28:00.135Z</time></trkpt><trkpt lat="46.0899077" lon="13.4935772"><ele>369.0</ele><time>2026-05-02T14:28:01.125Z</time></trkpt><trkpt lat="46.0898949" lon="13.4937018"><ele>369.0</ele><time>2026-05-02T14:28:02.128Z</time></trkpt><trkpt lat="46.0898726" lon="13.4938237"><ele>369.0</ele><time>2026-05-02T14:28:03.134Z</time></trkpt><trkpt lat="46.0898459" lon="13.4939415"><ele>369.0</ele><time>2026-05-02T14:28:04.135Z</time></trkpt><trkpt lat="46.0898178" lon="13.4940573"><ele>369.0</ele><time>2026-05-02T14:28:05.13Z</time></trkpt><trkpt lat="46.0897835" lon="13.4941686"><ele>369.0</ele><time>2026-05-02T14:28:06.136Z</time></trkpt><trkpt lat="46.0897365" lon="13.4942782"><ele>372.3333333333333</ele><time>2026-05-02T14:28:07.135Z</time></trkpt><trkpt lat="46.0896744" lon="13.4943636"><ele>375.66666666666663</ele><time>2026-05-02T14:28:08.125Z</time></trkpt><trkpt lat="46.0895869" lon="13.4944095"><ele>379.0</ele><time>2026-05-02T14:28:09.128Z</time></trkpt><trkpt lat="46.0894898" lon="13.4944202"><ele>382.3333333333333</ele><time>2026-05-02T14:28:10.124Z</time></trkpt><trkpt lat="46.0893963" lon="13.4944101"><ele>385.66666666666663</ele><time>2026-05-02T14:28:11.125Z</time></trkpt><trkpt lat="46.0893268" lon="13.494451"><ele>389.0</ele><time>2026-05-02T14:28:12.121Z</time></trkpt><trkpt lat="46.0892832" lon="13.4945409"><ele>391.2</ele><time>2026-05-02T14:28:13.128Z</time></trkpt><trkpt lat="46.089267" lon="13.4946719"><ele>393.4</ele><time>2026-05-02T14:28:14.123Z</time></trkpt><trkpt lat="46.0892555" lon="13.4947937"><ele>395.6</ele><time>2026-05-02T14:28:15.135Z</time></trkpt><trkpt lat="46.0892487" lon="13.4949051"><ele>397.8</ele><time>2026-05-02T14:28:16.129Z</time></trkpt><trkpt lat="46.0892877" lon="13.4950467"><ele>400.0</ele><time>2026-05-02T14:28:18.129Z</time></trkpt><trkpt lat="46.0893869" lon="13.4950463"><ele>400.00000000000006</ele><time>2026-05-02T14:28:20.13Z</time></trkpt><trkpt lat="46.0894517" lon="13.4949111"><ele>400.0</ele><time>2026-05-02T14:28:22.125Z</time></trkpt><trkpt lat="46.0895258" lon="13.4947818"><ele>400.0</ele><time>2026-05-02T14:28:24.147Z</time></trkpt><trkpt lat="46.0895899" lon="13.4947693"><ele>400.0</ele><time>2026-05-02T14:28:25.126Z</time></trkpt><trkpt lat="46.0896565" lon="13.4948118"><ele>400.00000000000006</ele><time>2026-05-02T14:28:26.13Z</time></trkpt><trkpt lat="46.0897276" lon="13.4948534"><ele>400.0</ele><time>2026-05-02T14:28:27.13Z</time></trkpt><trkpt lat="46.0898058" lon="13.4948891"><ele>400.0</ele><time>2026-05-02T14:28:28.128Z</time></trkpt><trkpt lat="46.0898891" lon="13.4949242"><ele>400.0</ele><time>2026-05-02T14:28:29.126Z</time></trkpt><trkpt lat="46.0899618" lon="13.4949981"><ele>400.0</ele><time>2026-05-02T14:28:30.124Z</time></trkpt><trkpt lat="46.0900262" lon="13.4950983"><ele>400.0</ele><time>2026-05-02T14:28:31.129Z</time></trkpt><trkpt lat="46.0900705" lon="13.4952189"><ele>400.0</ele><time>2026-05-02T14:28:32.134Z</time></trkpt><trkpt lat="46.0901047" lon="13.4953523"><ele>404.0</ele><time>2026-05-02T14:28:33.123Z</time></trkpt><trkpt lat="46.0901228" lon="13.4955008"><ele>408.0</ele><time>2026-05-02T14:28:34.121Z</time></trkpt><trkpt lat="46.0901355" lon="13.4956526"><ele>412.0</ele><time>2026-05-02T14:28:35.13Z</time></trkpt><trkpt lat="46.0901495" lon="13.4958051"><ele>416.0</ele><time>2026-05-02T14:28:36.137Z</time></trkpt><trkpt lat="46.0901684" lon="13.4959538"><ele>420.0</ele><time>2026-05-02T14:28:37.125Z</time></trkpt><trkpt lat="46.0901868" lon="13.4961062"><ele>420.0</ele><time>2026-05-02T14:28:38.128Z</time></trkpt><trkpt lat="46.0901993" lon="13.4962549"><ele>420.0</ele><time>2026-05-02T14:28:39.127Z</time></trkpt><trkpt lat="46.0902143" lon="13.4964086"><ele>420.0</ele><time>2026-05-02T14:28:40.132Z</time></trkpt><trkpt lat="46.0902329" lon="13.4965628"><ele>420.0</ele><time>2026-05-02T14:28:41.131Z</time></trkpt><trkpt lat="46.090253" lon="13.4967201"><ele>420.0</ele><time>2026-05-02T14:28:42.123Z</time></trkpt><trkpt lat="46.0902729" lon="13.4968702"><ele>420.0</ele><time>2026-05-02T14:28:43.126Z</time></trkpt><trkpt lat="46.0902937" lon="13.4970126"><ele>420.0</ele><time>2026-05-02T14:28:44.132Z</time></trkpt><trkpt lat="46.0903156" lon="13.4971452"><ele>420.0</ele><time>2026-05-02T14:28:45.127Z</time></trkpt><trkpt lat="46.0903408" lon="13.4972635"><ele>420.0</ele><time>2026-05-02T14:28:46.131Z</time></trkpt><trkpt lat="46.0903742" lon="13.49737"><ele>420.0</ele><time>2026-05-02T14:28:47.139Z</time></trkpt><trkpt lat="46.0904027" lon="13.497481"><ele>420.0</ele><time>2026-05-02T14:28:48.131Z</time></trkpt><trkpt lat="46.0904372" lon="13.497595"><ele>420.0</ele><time>2026-05-02T14:28:49.132Z</time></trkpt><trkpt lat="46.0904715" lon="13.4977172"><ele>420.0</ele><time>2026-05-02T14:28:50.121Z</time></trkpt><trkpt lat="46.0905085" lon="13.4978465"><ele>420.0</ele><time>2026-05-02T14:28:51.128Z</time></trkpt><trkpt lat="46.0905404" lon="13.4979767"><ele>420.0</ele><time>2026-05-02T14:28:52.127Z</time></trkpt><trkpt lat="46.0905716" lon="13.4981006"><ele>420.0</ele><time>2026-05-02T14:28:53.127Z</time></trkpt><trkpt lat="46.0906001" lon="13.4982195"><ele>419.4</ele><time>2026-05-02T14:28:54.134Z</time></trkpt><trkpt lat="46.0906328" lon="13.4983408"><ele>418.8</ele><time>2026-05-02T14:28:55.134Z</time></trkpt><trkpt lat="46.0906687" lon="13.4984677"><ele>418.20000000000005</ele><time>2026-05-02T14:28:56.127Z</time></trkpt><trkpt lat="46.0907033" lon="13.4986026"><ele>417.6</ele><time>2026-05-02T14:28:57.125Z</time></trkpt><trkpt lat="46.0907325" lon="13.498748"><ele>417.0</ele><time>2026-05-02T14:28:58.146Z</time></trkpt><trkpt lat="46.0907607" lon="13.4988971"><ele>423.0</ele><time>2026-05-02T14:28:59.136Z</time></trkpt><trkpt lat="46.0907931" lon="13.4990521"><ele>429.0</ele><time>2026-05-02T14:29:00.134Z</time></trkpt><trkpt lat="46.0908282" lon="13.4992195"><ele>435.0</ele><time>2026-05-02T14:29:01.141Z</time></trkpt><trkpt lat="46.0908705" lon="13.4993963"><ele>441.0</ele><time>2026-05-02T14:29:02.133Z</time></trkpt><trkpt lat="46.090915" lon="13.4996068"><ele>441.0</ele><time>2026-05-02T14:29:03.133Z</time></trkpt><trkpt lat="46.090968" lon="13.4998214"><ele>441.0</ele><time>2026-05-02T14:29:04.12Z</time></trkpt><trkpt lat="46.091022" lon="13.5000335"><ele>441.0</ele><time>2026-05-02T14:29:05.125Z</time></trkpt><trkpt lat="46.0910746" lon="13.5002471"><ele>442.66666666666663</ele><time>2026-05-02T14:29:06.135Z</time></trkpt><trkpt lat="46.0911138" lon="13.5004636"><ele>444.3333333333333</ele><time>2026-05-02T14:29:07.132Z</time></trkpt><trkpt lat="46.091131" lon="13.500705"><ele>446.0</ele><time>2026-05-02T14:29:08.122Z</time></trkpt><trkpt lat="46.0911264" lon="13.5009514"><ele>446.0</ele><time>2026-05-02T14:29:09.13Z</time></trkpt><trkpt lat="46.0911142" lon="13.5012185"><ele>446.0</ele><time>2026-05-02T14:29:10.135Z</time></trkpt><trkpt lat="46.091102" lon="13.5014763"><ele>446.0</ele><time>2026-05-02T14:29:11.128Z</time></trkpt><trkpt lat="46.0910997" lon="13.5017269"><ele>447.3333333333333</ele><time>2026-05-02T14:29:12.131Z</time></trkpt><trkpt lat="46.091096" lon="13.5019734"><ele>448.66666666666663</ele><time>2026-05-02T14:29:13.143Z</time></trkpt><trkpt lat="46.0910958" lon="13.502216"><ele>450.0</ele><time>2026-05-02T14:29:14.131Z</time></trkpt><trkpt lat="46.091094" lon="13.5024403"><ele>450.25</ele><time>2026-05-02T14:29:15.127Z</time></trkpt><trkpt lat="46.0910994" lon="13.5026522"><ele>450.5</ele><time>2026-05-02T14:29:16.134Z</time></trkpt><trkpt lat="46.091117" lon="13.5028479"><ele>450.75</ele><time>2026-05-02T14:29:17.133Z</time></trkpt><trkpt lat="46.0911463" lon="13.5030391"><ele>451.0</ele><time>2026-05-02T14:29:18.135Z</time></trkpt><trkpt lat="46.0912026" lon="13.5032236"><ele>451.0</ele><time>2026-05-02T14:29:19.135Z</time></trkpt><trkpt lat="46.0912849" lon="13.5033871"><ele>451.0</ele><time>2026-05-02T14:29:20.136Z</time></trkpt><trkpt lat="46.0913862" lon="13.5035359"><ele>451.0</ele><time>2026-05-02T14:29:21.123Z</time></trkpt><trkpt lat="46.0914841" lon="13.5036987"><ele>451.0</ele><time>2026-05-02T14:29:22.127Z</time></trkpt><trkpt lat="46.0915876" lon="13.5038646"><ele>457.0</ele><time>2026-05-02T14:29:23.135Z</time></trkpt><trkpt lat="46.0916928" lon="13.5040332"><ele>463.0</ele><time>2026-05-02T14:29:24.133Z</time></trkpt><trkpt lat="46.0917941" lon="13.5041912"><ele>469.0</ele><time>2026-05-02T14:29:25.13Z</time></trkpt><trkpt lat="46.0918919" lon="13.5043385"><ele>475.0</ele><time>2026-05-02T14:29:26.138Z</time></trkpt><trkpt lat="46.0919804" lon="13.5044813"><ele>474.25</ele><time>2026-05-02T14:29:27.133Z</time></trkpt><trkpt lat="46.0920655" lon="13.5046222"><ele>473.5</ele><time>2026-05-02T14:29:28.142Z</time></trkpt><trkpt lat="46.0921443" lon="13.5047682"><ele>472.75</ele><time>2026-05-02T14:29:29.128Z</time></trkpt><trkpt lat="46.0922257" lon="13.5048905"><ele>472.0</ele><time>2026-05-02T14:29:30.121Z</time></trkpt><trkpt lat="46.0923251" lon="13.5049618"><ele>477.0</ele><time>2026-05-02T14:29:31.135Z</time></trkpt><trkpt lat="46.092452" lon="13.505015"><ele>482.0</ele><time>2026-05-02T14:29:32.128Z</time></trkpt><trkpt lat="46.0925778" lon="13.5050664"><ele>487.0</ele><time>2026-05-02T14:29:33.138Z</time></trkpt><trkpt lat="46.0926974" lon="13.5051123"><ele>492.0</ele><time>2026-05-02T14:29:34.125Z</time></trkpt><trkpt lat="46.0928155" lon="13.5051174"><ele>492.0</ele><time>2026-05-02T14:29:35.125Z</time></trkpt><trkpt lat="46.0929283" lon="13.5050816"><ele>492.00000000000006</ele><time>2026-05-02T14:29:36.118Z</time></trkpt><trkpt lat="46.0930302" lon="13.5050344"><ele>492.00000000000006</ele><time>2026-05-02T14:29:37.137Z</time></trkpt><trkpt lat="46.0931095" lon="13.5050215"><ele>492.0</ele><time>2026-05-02T14:29:38.131Z</time></trkpt><trkpt lat="46.0931878" lon="13.5050951"><ele>492.0</ele><time>2026-05-02T14:29:40.125Z</time></trkpt><trkpt lat="46.0931528" lon="13.5050051"><ele>492.0</ele><time>2026-05-02T14:29:47.115Z</time></trkpt><trkpt lat="46.0930663" lon="13.5050124"><ele>492.0</ele><time>2026-05-02T14:29:48.135Z</time></trkpt><trkpt lat="46.0929814" lon="13.5050488"><ele>492.0</ele><time>2026-05-02T14:29:49.124Z</time></trkpt><trkpt lat="46.0928936" lon="13.5050824"><ele>492.0</ele><time>2026-05-02T14:29:50.127Z</time></trkpt><trkpt lat="46.0928125" lon="13.5050969"><ele>492.0</ele><time>2026-05-02T14:29:51.136Z</time></trkpt><trkpt lat="46.0927306" lon="13.5050999"><ele>492.0</ele><time>2026-05-02T14:29:52.129Z</time></trkpt><trkpt lat="46.0926602" lon="13.5050842"><ele>492.0</ele><time>2026-05-02T14:29:53.13Z</time></trkpt><trkpt lat="46.0926027" lon="13.5049874"><ele>492.00000000000006</ele><time>2026-05-02T14:29:55.13Z</time></trkpt><trkpt lat="46.0926285" lon="13.5048862"><ele>492.00000000000006</ele><time>2026-05-02T14:29:57.127Z</time></trkpt><trkpt lat="46.0927226" lon="13.5048256"><ele>492.0</ele><time>2026-05-02T14:29:59.142Z</time></trkpt><trkpt lat="46.0928387" lon="13.5048076"><ele>492.0</ele><time>2026-05-02T14:30:01.137Z</time></trkpt><trkpt lat="46.0929106" lon="13.5048158"><ele>492.00000000000006</ele><time>2026-05-02T14:30:02.13Z</time></trkpt><trkpt lat="46.0929847" lon="13.5048151"><ele>492.0</ele><time>2026-05-02T14:30:03.133Z</time></trkpt><trkpt lat="46.0930605" lon="13.5048092"><ele>492.00000000000006</ele><time>2026-05-02T14:30:04.143Z</time></trkpt><trkpt lat="46.0931305" lon="13.5048016"><ele>492.00000000000006</ele><time>2026-05-02T14:30:05.13Z</time></trkpt><trkpt lat="46.0931973" lon="13.5048"><ele>492.0</ele><time>2026-05-02T14:30:06.144Z</time></trkpt><trkpt lat="46.0932644" lon="13.5048178"><ele>492.00000000000006</ele><time>2026-05-02T14:30:07.145Z</time></trkpt><trkpt lat="46.0933339" lon="13.5048405"><ele>492.00000000000006</ele><time>2026-05-02T14:30:08.136Z</time></trkpt><trkpt lat="46.093413" lon="13.504895"><ele>493.25</ele><time>2026-05-02T14:30:09.141Z</time></trkpt><trkpt lat="46.0934984" lon="13.5049743"><ele>494.5</ele><time>2026-05-02T14:30:10.141Z</time></trkpt><trkpt lat="46.0936032" lon="13.505064"><ele>495.75</ele><time>2026-05-02T14:30:11.135Z</time></trkpt><trkpt lat="46.093707" lon="13.5051536"><ele>497.0</ele><time>2026-05-02T14:30:12.139Z</time></trkpt><trkpt lat="46.0938092" lon="13.5052372"><ele>497.0</ele><time>2026-05-02T14:30:13.134Z</time></trkpt><trkpt lat="46.0939042" lon="13.5053209"><ele>497.00000000000006</ele><time>2026-05-02T14:30:14.137Z</time></trkpt><trkpt lat="46.0939997" lon="13.5054018"><ele>497.00000000000006</ele><time>2026-05-02T14:30:15.138Z</time></trkpt><trkpt lat="46.0940892" lon="13.5054741"><ele>497.0</ele><time>2026-05-02T14:30:16.13Z</time></trkpt><trkpt lat="46.0941826" lon="13.5055302"><ele>497.0</ele><time>2026-05-02T14:30:17.136Z</time></trkpt><trkpt lat="46.0942768" lon="13.5055681"><ele>496.99999999999994</ele><time>2026-05-02T14:30:18.139Z</time></trkpt><trkpt lat="46.0943568" lon="13.5055995"><ele>497.0</ele><time>2026-05-02T14:30:19.135Z</time></trkpt><trkpt lat="46.0944321" lon="13.5056258"><ele>497.0</ele><time>2026-05-02T14:30:20.132Z</time></trkpt><trkpt lat="46.0945054" lon="13.505633"><ele>497.0</ele><time>2026-05-02T14:30:21.147Z</time></trkpt><trkpt lat="46.0945769" lon="13.5056036"><ele>496.99999999999994</ele><time>2026-05-02T14:30:22.135Z</time></trkpt><trkpt lat="46.0946489" lon="13.5055645"><ele>497.0</ele><time>2026-05-02T14:30:23.131Z</time></trkpt><trkpt lat="46.0947154" lon="13.5055059"><ele>496.99999999999994</ele><time>2026-05-02T14:30:24.123Z</time></trkpt><trkpt lat="46.0947792" lon="13.5054334"><ele>497.0</ele><time>2026-05-02T14:30:25.136Z</time></trkpt><trkpt lat="46.0948444" lon="13.5053737"><ele>497.0</ele><time>2026-05-02T14:30:26.147Z</time></trkpt><trkpt lat="46.0949021" lon="13.5053217"><ele>497.0</ele><time>2026-05-02T14:30:27.138Z</time></trkpt><trkpt lat="46.0949632" lon="13.5052782"><ele>496.99999999999994</ele><time>2026-05-02T14:30:28.153Z</time></trkpt><trkpt lat="46.0950894" lon="13.5052552"><ele>497.0</ele><time>2026-05-02T14:30:30.132Z</time></trkpt><trkpt lat="46.0951705" lon="13.505266"><ele>491.20000000000005</ele><time>2026-05-02T14:30:31.137Z</time></trkpt><trkpt lat="46.0952668" lon="13.5052732"><ele>485.40000000000003</ele><time>2026-05-02T14:30:32.138Z</time></trkpt><trkpt lat="46.0953559" lon="13.5052612"><ele>479.59999999999997</ele><time>2026-05-02T14:30:33.146Z</time></trkpt><trkpt lat="46.0954388" lon="13.5052281"><ele>473.79999999999995</ele><time>2026-05-02T14:30:34.136Z</time></trkpt><trkpt lat="46.0955215" lon="13.5051487"><ele>468.0</ele><time>2026-05-02T14:30:35.128Z</time></trkpt><trkpt lat="46.0956055" lon="13.5050327"><ele>468.0</ele><time>2026-05-02T14:30:36.129Z</time></trkpt><trkpt lat="46.0956843" lon="13.5048807"><ele>468.0</ele><time>2026-05-02T14:30:37.137Z</time></trkpt><trkpt lat="46.0957727" lon="13.5047414"><ele>468.0</ele><time>2026-05-02T14:30:38.138Z</time></trkpt><trkpt lat="46.0958662" lon="13.5046108"><ele>468.0</ele><time>2026-05-02T14:30:39.131Z</time></trkpt><trkpt lat="46.095963" lon="13.5044903"><ele>464.5</ele><time>2026-05-02T14:30:40.139Z</time></trkpt><trkpt lat="46.0960585" lon="13.5043688"><ele>461.0</ele><time>2026-05-02T14:30:41.157Z</time></trkpt><trkpt lat="46.0961621" lon="13.5042482"><ele>457.5</ele><time>2026-05-02T14:30:42.148Z</time></trkpt><trkpt lat="46.096278" lon="13.5041301"><ele>454.0</ele><time>2026-05-02T14:30:43.15Z</time></trkpt><trkpt lat="46.0963992" lon="13.5040114"><ele>454.0</ele><time>2026-05-02T14:30:44.147Z</time></trkpt><trkpt lat="46.0965202" lon="13.5038903"><ele>454.0</ele><time>2026-05-02T14:30:45.137Z</time></trkpt><trkpt lat="46.0966455" lon="13.5037679"><ele>454.0</ele><time>2026-05-02T14:30:46.142Z</time></trkpt><trkpt lat="46.0967635" lon="13.5036545"><ele>454.0</ele><time>2026-05-02T14:30:47.151Z</time></trkpt><trkpt lat="46.0968836" lon="13.5035582"><ele>452.5</ele><time>2026-05-02T14:30:48.135Z</time></trkpt><trkpt lat="46.0970114" lon="13.5034681"><ele>451.0</ele><time>2026-05-02T14:30:49.149Z</time></trkpt><trkpt lat="46.0971469" lon="13.5033784"><ele>449.5</ele><time>2026-05-02T14:30:50.142Z</time></trkpt><trkpt lat="46.0972907" lon="13.5032903"><ele>448.0</ele><time>2026-05-02T14:30:51.128Z</time></trkpt><trkpt lat="46.0974492" lon="13.5032028"><ele>444.6666666666667</ele><time>2026-05-02T14:30:52.133Z</time></trkpt><trkpt lat="46.0976085" lon="13.503122"><ele>441.33333333333337</ele><time>2026-05-02T14:30:53.133Z</time></trkpt><trkpt lat="46.0977572" lon="13.5030437"><ele>438.0</ele><time>2026-05-02T14:30:54.136Z</time></trkpt><trkpt lat="46.0978945" lon="13.5029749"><ele>437.0</ele><time>2026-05-02T14:30:55.137Z</time></trkpt><trkpt lat="46.0980227" lon="13.5029048"><ele>436.0</ele><time>2026-05-02T14:30:56.141Z</time></trkpt><trkpt lat="46.098138" lon="13.5028465"><ele>435.0</ele><time>2026-05-02T14:30:57.135Z</time></trkpt><trkpt lat="46.0982352" lon="13.5027843"><ele>434.0</ele><time>2026-05-02T14:30:58.149Z</time></trkpt><trkpt lat="46.0983223" lon="13.502714"><ele>434.0</ele><time>2026-05-02T14:30:59.154Z</time></trkpt><trkpt lat="46.098407" lon="13.5026245"><ele>434.0</ele><time>2026-05-02T14:31:00.141Z</time></trkpt><trkpt lat="46.0985012" lon="13.5025009"><ele>434.0</ele><time>2026-05-02T14:31:01.131Z</time></trkpt><trkpt lat="46.0986069" lon="13.5023326"><ele>434.0</ele><time>2026-05-02T14:31:02.152Z</time></trkpt><trkpt lat="46.0987161" lon="13.5021631"><ele>432.25</ele><time>2026-05-02T14:31:03.143Z</time></trkpt><trkpt lat="46.0988187" lon="13.5019886"><ele>430.5</ele><time>2026-05-02T14:31:04.135Z</time></trkpt><trkpt lat="46.0989182" lon="13.5018314"><ele>428.75</ele><time>2026-05-02T14:31:05.133Z</time></trkpt><trkpt lat="46.0990156" lon="13.5016969"><ele>427.0</ele><time>2026-05-02T14:31:06.137Z</time></trkpt><trkpt lat="46.0990989" lon="13.5015859"><ele>426.8</ele><time>2026-05-02T14:31:07.147Z</time></trkpt><trkpt lat="46.0991794" lon="13.5014836"><ele>426.6</ele><time>2026-05-02T14:31:08.139Z</time></trkpt><trkpt lat="46.0992427" lon="13.5013654"><ele>426.40000000000003</ele><time>2026-05-02T14:31:09.139Z</time></trkpt><trkpt lat="46.099293" lon="13.5012326"><ele>426.20000000000005</ele><time>2026-05-02T14:31:10.147Z</time></trkpt><trkpt lat="46.0993322" lon="13.5010753"><ele>426.0</ele><time>2026-05-02T14:31:11.153Z</time></trkpt><trkpt lat="46.0993708" lon="13.5008995"><ele>424.5</ele><time>2026-05-02T14:31:12.133Z</time></trkpt><trkpt lat="46.0994114" lon="13.5006873"><ele>423.0</ele><time>2026-05-02T14:31:13.137Z</time></trkpt><trkpt lat="46.0994467" lon="13.5004752"><ele>421.5</ele><time>2026-05-02T14:31:14.15Z</time></trkpt><trkpt lat="46.0994788" lon="13.5002906"><ele>420.0</ele><time>2026-05-02T14:31:15.143Z</time></trkpt><trkpt lat="46.0994992" lon="13.5001492"><ele>418.6</ele><time>2026-05-02T14:31:16.154Z</time></trkpt><trkpt lat="46.0995165" lon="13.5000269"><ele>417.2</ele><time>2026-05-02T14:31:17.13Z</time></trkpt><trkpt lat="46.0995297" lon="13.4999115"><ele>415.79999999999995</ele><time>2026-05-02T14:31:18.137Z</time></trkpt><trkpt lat="46.099538" lon="13.499816"><ele>414.4</ele><time>2026-05-02T14:31:19.146Z</time></trkpt><trkpt lat="46.0995443" lon="13.4996638"><ele>413.0</ele><time>2026-05-02T14:31:21.143Z</time></trkpt><trkpt lat="46.0995579" lon="13.4995025"><ele>411.59999999999997</ele><time>2026-05-02T14:31:23.135Z</time></trkpt><trkpt lat="46.0995663" lon="13.4994094"><ele>410.2</ele><time>2026-05-02T14:31:24.134Z</time></trkpt><trkpt lat="46.0995974" lon="13.4992955"><ele>408.8</ele><time>2026-05-02T14:31:25.134Z</time></trkpt><trkpt lat="46.0996491" lon="13.4991708"><ele>407.4</ele><time>2026-05-02T14:31:26.132Z</time></trkpt><trkpt lat="46.0997127" lon="13.4990178"><ele>406.0</ele><time>2026-05-02T14:31:27.133Z</time></trkpt><trkpt lat="46.0997854" lon="13.498839"><ele>401.6666666666667</ele><time>2026-05-02T14:31:28.138Z</time></trkpt><trkpt lat="46.0998587" lon="13.4986552"><ele>397.33333333333337</ele><time>2026-05-02T14:31:29.139Z</time></trkpt><trkpt lat="46.0999328" lon="13.4984589"><ele>393.0</ele><time>2026-05-02T14:31:30.135Z</time></trkpt><trkpt lat="46.1000015" lon="13.4982556"><ele>400.66666666666663</ele><time>2026-05-02T14:31:31.134Z</time></trkpt><trkpt lat="46.1000687" lon="13.4980538"><ele>408.3333333333333</ele><time>2026-05-02T14:31:32.13Z</time></trkpt><trkpt lat="46.1001356" lon="13.4978554"><ele>416.0</ele><time>2026-05-02T14:31:33.131Z</time></trkpt><trkpt lat="46.1001955" lon="13.4976541"><ele>416.0</ele><time>2026-05-02T14:31:34.133Z</time></trkpt><trkpt lat="46.100248" lon="13.4974482"><ele>416.0</ele><time>2026-05-02T14:31:35.136Z</time></trkpt><trkpt lat="46.1002981" lon="13.4972419"><ele>416.0</ele><time>2026-05-02T14:31:36.127Z</time></trkpt><trkpt lat="46.1003481" lon="13.4970352"><ele>414.0</ele><time>2026-05-02T14:31:37.132Z</time></trkpt><trkpt lat="46.1003975" lon="13.4968278"><ele>412.0</ele><time>2026-05-02T14:31:38.13Z</time></trkpt><trkpt lat="46.1004457" lon="13.4966254"><ele>410.0</ele><time>2026-05-02T14:31:39.119Z</time></trkpt><trkpt lat="46.1004831" lon="13.4964229"><ele>408.0</ele><time>2026-05-02T14:31:40.118Z</time></trkpt><trkpt lat="46.1005138" lon="13.4962286"><ele>404.75</ele><time>2026-05-02T14:31:41.129Z</time></trkpt><trkpt lat="46.1005451" lon="13.4960488"><ele>401.5</ele><time>2026-05-02T14:31:42.127Z</time></trkpt><trkpt lat="46.100578" lon="13.4958883"><ele>398.25</ele><time>2026-05-02T14:31:43.137Z</time></trkpt><trkpt lat="46.1006215" lon="13.4957338"><ele>395.0</ele><time>2026-05-02T14:31:44.132Z</time></trkpt><trkpt lat="46.1006821" lon="13.4955734"><ele>392.25</ele><time>2026-05-02T14:31:45.126Z</time></trkpt><trkpt lat="46.1007478" lon="13.4954197"><ele>389.5</ele><time>2026-05-02T14:31:46.137Z</time></trkpt><trkpt lat="46.1008209" lon="13.4952636"><ele>386.75</ele><time>2026-05-02T14:31:47.137Z</time></trkpt><trkpt lat="46.1009038" lon="13.4950983"><ele>384.0</ele><time>2026-05-02T14:31:48.132Z</time></trkpt><trkpt lat="46.1009936" lon="13.4949162"><ele>390.0</ele><time>2026-05-02T14:31:49.138Z</time></trkpt><trkpt lat="46.1010935" lon="13.4947191"><ele>396.0</ele><time>2026-05-02T14:31:50.135Z</time></trkpt><trkpt lat="46.1011784" lon="13.4945386"><ele>402.0</ele><time>2026-05-02T14:31:51.119Z</time></trkpt><trkpt lat="46.1012584" lon="13.4943562"><ele>402.0</ele><time>2026-05-02T14:31:52.132Z</time></trkpt><trkpt lat="46.1013307" lon="13.4941879"><ele>402.0</ele><time>2026-05-02T14:31:53.133Z</time></trkpt><trkpt lat="46.1014012" lon="13.4940373"><ele>402.0</ele><time>2026-05-02T14:31:54.145Z</time></trkpt><trkpt lat="46.1014732" lon="13.493893"><ele>402.0</ele><time>2026-05-02T14:31:55.139Z</time></trkpt><trkpt lat="46.1015355" lon="13.4937659"><ele>402.0</ele><time>2026-05-02T14:31:56.134Z</time></trkpt><trkpt lat="46.1015972" lon="13.493647"><ele>402.0</ele><time>2026-05-02T14:31:57.128Z</time></trkpt><trkpt lat="46.1016627" lon="13.4935419"><ele>402.0</ele><time>2026-05-02T14:31:58.128Z</time></trkpt><trkpt lat="46.1017413" lon="13.4934492"><ele>402.0</ele><time>2026-05-02T14:31:59.132Z</time></trkpt><trkpt lat="46.1018275" lon="13.4933622"><ele>402.0</ele><time>2026-05-02T14:32:00.138Z</time></trkpt><trkpt lat="46.1019093" lon="13.4932712"><ele>402.0</ele><time>2026-05-02T14:32:01.136Z</time></trkpt><trkpt lat="46.1019756" lon="13.4931643"><ele>402.0</ele><time>2026-05-02T14:32:02.135Z</time></trkpt><trkpt lat="46.1020422" lon="13.4930188"><ele>402.0</ele><time>2026-05-02T14:32:03.143Z</time></trkpt><trkpt lat="46.1021159" lon="13.4928352"><ele>402.0</ele><time>2026-05-02T14:32:04.137Z</time></trkpt><trkpt lat="46.1021945" lon="13.4926297"><ele>402.66666666666663</ele><time>2026-05-02T14:32:05.138Z</time></trkpt><trkpt lat="46.1022754" lon="13.4924172"><ele>403.3333333333333</ele><time>2026-05-02T14:32:06.148Z</time></trkpt><trkpt lat="46.1023516" lon="13.492219"><ele>404.0</ele><time>2026-05-02T14:32:07.137Z</time></trkpt><trkpt lat="46.1024196" lon="13.492043"><ele>404.0</ele><time>2026-05-02T14:32:08.154Z</time></trkpt><trkpt lat="46.1024873" lon="13.4918741"><ele>404.0</ele><time>2026-05-02T14:32:09.14Z</time></trkpt><trkpt lat="46.1025486" lon="13.4917079"><ele>404.0</ele><time>2026-05-02T14:32:10.149Z</time></trkpt><trkpt lat="46.102607" lon="13.4915531"><ele>404.0</ele><time>2026-05-02T14:32:11.144Z</time></trkpt><trkpt lat="46.1026546" lon="13.4914088"><ele>403.99999999999994</ele><time>2026-05-02T14:32:12.139Z</time></trkpt><trkpt lat="46.1026979" lon="13.4912865"><ele>404.0</ele><time>2026-05-02T14:32:13.138Z</time></trkpt><trkpt lat="46.1027362" lon="13.4911746"><ele>404.0</ele><time>2026-05-02T14:32:14.134Z</time></trkpt><trkpt lat="46.1027728" lon="13.4910807"><ele>404.0</ele><time>2026-05-02T14:32:15.137Z</time></trkpt><trkpt lat="46.1028187" lon="13.4910131"><ele>403.99999999999994</ele><time>2026-05-02T14:32:16.134Z</time></trkpt><trkpt lat="46.1028842" lon="13.4909847"><ele>404.0</ele><time>2026-05-02T14:32:17.12Z</time></trkpt><trkpt lat="46.1029589" lon="13.4909884"><ele>402.2</ele><time>2026-05-02T14:32:18.131Z</time></trkpt><trkpt lat="46.1030234" lon="13.490989"><ele>400.4</ele><time>2026-05-02T14:32:19.127Z</time></trkpt><trkpt lat="46.1030903" lon="13.4909068"><ele>398.6</ele><time>2026-05-02T14:32:21.139Z</time></trkpt><trkpt lat="46.1030664" lon="13.4908151"><ele>396.8</ele><time>2026-05-02T14:32:22.129Z</time></trkpt><trkpt lat="46.1029976" lon="13.4906953"><ele>395.0</ele><time>2026-05-02T14:32:23.125Z</time></trkpt><trkpt lat="46.1029128" lon="13.4905624"><ele>395.0</ele><time>2026-05-02T14:32:24.132Z</time></trkpt><trkpt lat="46.102834" lon="13.4904431"><ele>395.0</ele><time>2026-05-02T14:32:25.133Z</time></trkpt><trkpt lat="46.1027605" lon="13.4903411"><ele>395.0</ele><time>2026-05-02T14:32:26.142Z</time></trkpt><trkpt lat="46.1027135" lon="13.4902618"><ele>395.0</ele><time>2026-05-02T14:32:27.126Z</time></trkpt><trkpt lat="46.1027181" lon="13.4901283"><ele>395.0</ele><time>2026-05-02T14:32:29.133Z</time></trkpt><trkpt lat="46.1028" lon="13.4901122"><ele>391.8</ele><time>2026-05-02T14:32:30.124Z</time></trkpt><trkpt lat="46.1028996" lon="13.4901102"><ele>388.6</ele><time>2026-05-02T14:32:31.123Z</time></trkpt><trkpt lat="46.1029919" lon="13.4900643"><ele>385.4</ele><time>2026-05-02T14:32:32.125Z</time></trkpt><trkpt lat="46.103047" lon="13.4899784"><ele>382.2</ele><time>2026-05-02T14:32:33.129Z</time></trkpt><trkpt lat="46.1030823" lon="13.4898501"><ele>379.0</ele><time>2026-05-02T14:32:34.135Z</time></trkpt><trkpt lat="46.1030957" lon="13.4897093"><ele>374.25</ele><time>2026-05-02T14:32:35.125Z</time></trkpt><trkpt lat="46.1031022" lon="13.4895515"><ele>369.5</ele><time>2026-05-02T14:32:36.115Z</time></trkpt><trkpt lat="46.1031024" lon="13.4893683"><ele>364.75</ele><time>2026-05-02T14:32:37.119Z</time></trkpt><trkpt lat="46.1030994" lon="13.4891746"><ele>360.0</ele><time>2026-05-02T14:32:38.118Z</time></trkpt><trkpt lat="46.1030943" lon="13.4889777"><ele>360.0</ele><time>2026-05-02T14:32:39.128Z</time></trkpt><trkpt lat="46.1030891" lon="13.4887779"><ele>360.0</ele><time>2026-05-02T14:32:40.136Z</time></trkpt><trkpt lat="46.1030803" lon="13.4885887"><ele>360.0</ele><time>2026-05-02T14:32:41.122Z</time></trkpt><trkpt lat="46.1030823" lon="13.4884174"><ele>360.0</ele><time>2026-05-02T14:32:42.123Z</time></trkpt><trkpt lat="46.103087" lon="13.4882551"><ele>358.4</ele><time>2026-05-02T14:32:43.128Z</time></trkpt><trkpt lat="46.1030959" lon="13.4881109"><ele>356.8</ele><time>2026-05-02T14:32:44.118Z</time></trkpt><trkpt lat="46.1031043" lon="13.4879768"><ele>355.20000000000005</ele><time>2026-05-02T14:32:45.12Z</time></trkpt><trkpt lat="46.1030962" lon="13.4878486"><ele>353.6</ele><time>2026-05-02T14:32:46.128Z</time></trkpt><trkpt lat="46.1030767" lon="13.4877215"><ele>352.0</ele><time>2026-05-02T14:32:47.13Z</time></trkpt><trkpt lat="46.1030517" lon="13.4875916"><ele>351.20000000000005</ele><time>2026-05-02T14:32:48.126Z</time></trkpt><trkpt lat="46.1030384" lon="13.4874693"><ele>350.4</ele><time>2026-05-02T14:32:49.127Z</time></trkpt><trkpt lat="46.1030485" lon="13.4873484"><ele>349.6</ele><time>2026-05-02T14:32:50.132Z</time></trkpt><trkpt lat="46.103088" lon="13.4872026"><ele>348.79999999999995</ele><time>2026-05-02T14:32:51.118Z</time></trkpt><trkpt lat="46.1031349" lon="13.4870579"><ele>348.0</ele><time>2026-05-02T14:32:52.136Z</time></trkpt><trkpt lat="46.1031823" lon="13.4868958"><ele>345.75</ele><time>2026-05-02T14:32:53.126Z</time></trkpt><trkpt lat="46.1032219" lon="13.4867253"><ele>343.5</ele><time>2026-05-02T14:32:54.125Z</time></trkpt><trkpt lat="46.1032445" lon="13.4865543"><ele>341.25</ele><time>2026-05-02T14:32:55.121Z</time></trkpt><trkpt lat="46.1032552" lon="13.486379"><ele>339.0</ele><time>2026-05-02T14:32:56.118Z</time></trkpt><trkpt lat="46.1032574" lon="13.4861988"><ele>336.75</ele><time>2026-05-02T14:32:57.126Z</time></trkpt><trkpt lat="46.1032455" lon="13.4860182"><ele>334.5</ele><time>2026-05-02T14:32:58.125Z</time></trkpt><trkpt lat="46.1032245" lon="13.4858209"><ele>332.25</ele><time>2026-05-02T14:32:59.124Z</time></trkpt><trkpt lat="46.1032022" lon="13.4856452"><ele>330.0</ele><time>2026-05-02T14:33:00.123Z</time></trkpt><trkpt lat="46.1031903" lon="13.4854685"><ele>329.0</ele><time>2026-05-02T14:33:01.125Z</time></trkpt><trkpt lat="46.103186" lon="13.485288"><ele>328.0</ele><time>2026-05-02T14:33:02.128Z</time></trkpt><trkpt lat="46.103187" lon="13.4851037"><ele>327.0</ele><time>2026-05-02T14:33:03.119Z</time></trkpt><trkpt lat="46.1031951" lon="13.4849267"><ele>326.0</ele><time>2026-05-02T14:33:04.134Z</time></trkpt><trkpt lat="46.1031997" lon="13.484757"><ele>324.5</ele><time>2026-05-02T14:33:05.135Z</time></trkpt><trkpt lat="46.1032051" lon="13.4845948"><ele>323.0</ele><time>2026-05-02T14:33:06.129Z</time></trkpt><trkpt lat="46.1032179" lon="13.4844285"><ele>321.5</ele><time>2026-05-02T14:33:07.135Z</time></trkpt><trkpt lat="46.1032325" lon="13.4842636"><ele>320.0</ele><time>2026-05-02T14:33:08.127Z</time></trkpt><trkpt lat="46.1032659" lon="13.4840779"><ele>323.75</ele><time>2026-05-02T14:33:09.125Z</time></trkpt><trkpt lat="46.1032974" lon="13.4838879"><ele>327.5</ele><time>2026-05-02T14:33:10.122Z</time></trkpt><trkpt lat="46.1033284" lon="13.4837104"><ele>331.25</ele><time>2026-05-02T14:33:11.129Z</time></trkpt><trkpt lat="46.1033495" lon="13.4835411"><ele>335.0</ele><time>2026-05-02T14:33:12.133Z</time></trkpt><trkpt lat="46.1033665" lon="13.4833972"><ele>335.0</ele><time>2026-05-02T14:33:13.126Z</time></trkpt><trkpt lat="46.1033835" lon="13.4832735"><ele>335.0</ele><time>2026-05-02T14:33:14.13Z</time></trkpt><trkpt lat="46.1034003" lon="13.4831497"><ele>335.0</ele><time>2026-05-02T14:33:15.128Z</time></trkpt><trkpt lat="46.1034408" lon="13.4830396"><ele>335.0</ele><time>2026-05-02T14:33:16.132Z</time></trkpt><trkpt lat="46.1035048" lon="13.4829472"><ele>335.0</ele><time>2026-05-02T14:33:17.128Z</time></trkpt><trkpt lat="46.1035701" lon="13.4828678"><ele>335.0</ele><time>2026-05-02T14:33:18.118Z</time></trkpt><trkpt lat="46.1036369" lon="13.4828103"><ele>332.6666666666667</ele><time>2026-05-02T14:33:19.137Z</time></trkpt><trkpt lat="46.1037001" lon="13.4827853"><ele>330.33333333333337</ele><time>2026-05-02T14:33:20.129Z</time></trkpt><trkpt lat="46.1038263" lon="13.4827494"><ele>328.0</ele><time>2026-05-02T14:33:22.123Z</time></trkpt><trkpt lat="46.103896" lon="13.4827321"><ele>325.6666666666667</ele><time>2026-05-02T14:33:23.129Z</time></trkpt><trkpt lat="46.1039563" lon="13.482706"><ele>323.3333333333333</ele><time>2026-05-02T14:33:24.133Z</time></trkpt><trkpt lat="46.1040106" lon="13.4826435"><ele>321.0</ele><time>2026-05-02T14:33:25.112Z</time></trkpt><trkpt lat="46.1040489" lon="13.4825493"><ele>320.6</ele><time>2026-05-02T14:33:26.119Z</time></trkpt><trkpt lat="46.1040826" lon="13.4824412"><ele>320.20000000000005</ele><time>2026-05-02T14:33:27.108Z</time></trkpt><trkpt lat="46.104117" lon="13.4823203"><ele>319.79999999999995</ele><time>2026-05-02T14:33:28.12Z</time></trkpt><trkpt lat="46.1041611" lon="13.4822021"><ele>319.4</ele><time>2026-05-02T14:33:29.123Z</time></trkpt><trkpt lat="46.1042063" lon="13.4820665"><ele>319.0</ele><time>2026-05-02T14:33:30.131Z</time></trkpt><trkpt lat="46.1042599" lon="13.481935"><ele>319.0</ele><time>2026-05-02T14:33:31.122Z</time></trkpt><trkpt lat="46.1043121" lon="13.4818155"><ele>319.0</ele><time>2026-05-02T14:33:32.122Z</time></trkpt><trkpt lat="46.1043617" lon="13.4817138"><ele>319.0</ele><time>2026-05-02T14:33:33.131Z</time></trkpt><trkpt lat="46.1044117" lon="13.4816233"><ele>319.0</ele><time>2026-05-02T14:33:34.123Z</time></trkpt><trkpt lat="46.1044838" lon="13.4815433"><ele>319.0</ele><time>2026-05-02T14:33:35.137Z</time></trkpt><trkpt lat="46.104567" lon="13.4814679"><ele>319.0</ele><time>2026-05-02T14:33:36.128Z</time></trkpt><trkpt lat="46.1046515" lon="13.4814281"><ele>319.0</ele><time>2026-05-02T14:33:37.128Z</time></trkpt><trkpt lat="46.1047257" lon="13.4814039"><ele>319.0</ele><time>2026-05-02T14:33:38.115Z</time></trkpt><trkpt lat="46.1048489" lon="13.4814278"><ele>319.0</ele><time>2026-05-02T14:33:40.124Z</time></trkpt><trkpt lat="46.104913" lon="13.481496"><ele>319.0</ele><time>2026-05-02T14:33:41.129Z</time></trkpt><trkpt lat="46.1049845" lon="13.4816076"><ele>320.0</ele><time>2026-05-02T14:33:42.123Z</time></trkpt><trkpt lat="46.1050735" lon="13.4817417"><ele>321.0</ele><time>2026-05-02T14:33:43.12Z</time></trkpt><trkpt lat="46.1051569" lon="13.4818686"><ele>322.0</ele><time>2026-05-02T14:33:44.13Z</time></trkpt><trkpt lat="46.1052324" lon="13.48196"><ele>323.0</ele><time>2026-05-02T14:33:45.131Z</time></trkpt><trkpt lat="46.1052868" lon="13.4820283"><ele>324.0</ele><time>2026-05-02T14:33:46.13Z</time></trkpt><trkpt lat="46.1053854" lon="13.4820436"><ele>324.0</ele><time>2026-05-02T14:33:48.12Z</time></trkpt><trkpt lat="46.1054246" lon="13.4819658"><ele>324.0</ele><time>2026-05-02T14:33:49.117Z</time></trkpt><trkpt lat="46.1054876" lon="13.4818415"><ele>324.0</ele><time>2026-05-02T14:33:50.112Z</time></trkpt><trkpt lat="46.105562" lon="13.4816974"><ele>324.0</ele><time>2026-05-02T14:33:51.117Z</time></trkpt><trkpt lat="46.1056667" lon="13.4815525"><ele>324.0</ele><time>2026-05-02T14:33:52.125Z</time></trkpt><trkpt lat="46.1057809" lon="13.4814037"><ele>317.5</ele><time>2026-05-02T14:33:53.125Z</time></trkpt><trkpt lat="46.1058815" lon="13.4812599"><ele>311.0</ele><time>2026-05-02T14:33:54.121Z</time></trkpt><trkpt lat="46.1059807" lon="13.481126"><ele>304.5</ele><time>2026-05-02T14:33:55.121Z</time></trkpt><trkpt lat="46.1060863" lon="13.4809848"><ele>298.0</ele><time>2026-05-02T14:33:56.116Z</time></trkpt><trkpt lat="46.1061959" lon="13.4808413"><ele>298.0</ele><time>2026-05-02T14:33:57.122Z</time></trkpt><trkpt lat="46.1062963" lon="13.4806925"><ele>298.0</ele><time>2026-05-02T14:33:58.118Z</time></trkpt><trkpt lat="46.1063836" lon="13.4805663"><ele>298.0</ele><time>2026-05-02T14:33:59.129Z</time></trkpt><trkpt lat="46.1064618" lon="13.4804648"><ele>298.0</ele><time>2026-05-02T14:34:00.117Z</time></trkpt><trkpt lat="46.106535" lon="13.4803792"><ele>296.0</ele><time>2026-05-02T14:34:01.12Z</time></trkpt><trkpt lat="46.1066084" lon="13.4803083"><ele>294.0</ele><time>2026-05-02T14:34:02.131Z</time></trkpt><trkpt lat="46.1066912" lon="13.4802391"><ele>292.0</ele><time>2026-05-02T14:34:03.135Z</time></trkpt><trkpt lat="46.1067906" lon="13.4801711"><ele>290.0</ele><time>2026-05-02T14:34:04.121Z</time></trkpt><trkpt lat="46.1068814" lon="13.4801123"><ele>288.0</ele><time>2026-05-02T14:34:05.123Z</time></trkpt><trkpt lat="46.1069597" lon="13.4800778"><ele>288.0</ele><time>2026-05-02T14:34:06.132Z</time></trkpt><trkpt lat="46.107027" lon="13.4800586"><ele>288.0</ele><time>2026-05-02T14:34:07.121Z</time></trkpt><trkpt lat="46.1070909" lon="13.4800517"><ele>288.0</ele><time>2026-05-02T14:34:08.123Z</time></trkpt><trkpt lat="46.1071832" lon="13.480081"><ele>288.0</ele><time>2026-05-02T14:34:10.131Z</time></trkpt><trkpt lat="46.1072568" lon="13.4800622"><ele>288.0</ele><time>2026-05-02T14:34:12.125Z</time></trkpt><trkpt lat="46.10732" lon="13.4801224"><ele>288.0</ele><time>2026-05-02T14:35:34.138Z</time></trkpt><trkpt lat="46.1073427" lon="13.480227"><ele>288.0</ele><time>2026-05-02T14:35:36.132Z</time></trkpt><trkpt lat="46.1073665" lon="13.4803923"><ele>288.0</ele><time>2026-05-02T14:35:38.139Z</time></trkpt><trkpt lat="46.1074043" lon="13.4805471"><ele>288.0</ele><time>2026-05-02T14:35:40.135Z</time></trkpt><trkpt lat="46.1074472" lon="13.4807164"><ele>288.0</ele><time>2026-05-02T14:35:42.146Z</time></trkpt><trkpt lat="46.1074728" lon="13.4808149"><ele>288.0</ele><time>2026-05-02T14:35:43.133Z</time></trkpt><trkpt lat="46.1075054" lon="13.4809264"><ele>290.2</ele><time>2026-05-02T14:35:44.14Z</time></trkpt><trkpt lat="46.1075381" lon="13.4810479"><ele>292.4</ele><time>2026-05-02T14:35:45.127Z</time></trkpt><trkpt lat="46.1075721" lon="13.4811766"><ele>294.59999999999997</ele><time>2026-05-02T14:35:46.128Z</time></trkpt><trkpt lat="46.1076083" lon="13.4813061"><ele>296.8</ele><time>2026-05-02T14:35:47.128Z</time></trkpt><trkpt lat="46.1076501" lon="13.4814265"><ele>299.0</ele><time>2026-05-02T14:35:48.137Z</time></trkpt><trkpt lat="46.1076939" lon="13.4815461"><ele>303.0</ele><time>2026-05-02T14:35:49.131Z</time></trkpt><trkpt lat="46.1077377" lon="13.4816614"><ele>307.0</ele><time>2026-05-02T14:35:50.122Z</time></trkpt><trkpt lat="46.1077923" lon="13.4817809"><ele>311.0</ele><time>2026-05-02T14:35:51.128Z</time></trkpt><trkpt lat="46.1078518" lon="13.4818984"><ele>315.0</ele><time>2026-05-02T14:35:52.129Z</time></trkpt><trkpt lat="46.1079155" lon="13.4820174"><ele>319.0</ele><time>2026-05-02T14:35:53.125Z</time></trkpt><trkpt lat="46.1079787" lon="13.4821286"><ele>322.6</ele><time>2026-05-02T14:35:54.141Z</time></trkpt><trkpt lat="46.108034" lon="13.4822314"><ele>326.2</ele><time>2026-05-02T14:35:55.132Z</time></trkpt><trkpt lat="46.1080767" lon="13.4823283"><ele>329.8</ele><time>2026-05-02T14:35:56.129Z</time></trkpt><trkpt lat="46.1081071" lon="13.4824272"><ele>333.40000000000003</ele><time>2026-05-02T14:35:57.134Z</time></trkpt><trkpt lat="46.1081456" lon="13.4826072"><ele>337.0</ele><time>2026-05-02T14:35:59.126Z</time></trkpt><trkpt lat="46.1081544" lon="13.4827659"><ele>338.25</ele><time>2026-05-02T14:36:00.135Z</time></trkpt><trkpt lat="46.1081391" lon="13.4829713"><ele>339.5</ele><time>2026-05-02T14:36:01.128Z</time></trkpt><trkpt lat="46.1081176" lon="13.4831657"><ele>340.75</ele><time>2026-05-02T14:36:02.122Z</time></trkpt><trkpt lat="46.1080876" lon="13.4833428"><ele>342.0</ele><time>2026-05-02T14:36:03.131Z</time></trkpt><trkpt lat="46.1080488" lon="13.4835018"><ele>342.0</ele><time>2026-05-02T14:36:04.127Z</time></trkpt><trkpt lat="46.1079971" lon="13.4836539"><ele>342.0</ele><time>2026-05-02T14:36:05.119Z</time></trkpt><trkpt lat="46.1079468" lon="13.4837953"><ele>342.0</ele><time>2026-05-02T14:36:06.126Z</time></trkpt><trkpt lat="46.1079062" lon="13.4839344"><ele>342.0</ele><time>2026-05-02T14:36:07.124Z</time></trkpt><trkpt lat="46.1078752" lon="13.4840763"><ele>342.0</ele><time>2026-05-02T14:36:08.133Z</time></trkpt><trkpt lat="46.1078612" lon="13.4842388"><ele>340.75</ele><time>2026-05-02T14:36:09.123Z</time></trkpt><trkpt lat="46.1078592" lon="13.4844117"><ele>339.5</ele><time>2026-05-02T14:36:10.129Z</time></trkpt><trkpt lat="46.1078602" lon="13.4845931"><ele>338.25</ele><time>2026-05-02T14:36:11.136Z</time></trkpt><trkpt lat="46.1078668" lon="13.4847766"><ele>337.0</ele><time>2026-05-02T14:36:12.116Z</time></trkpt><trkpt lat="46.107894" lon="13.4849369"><ele>335.25</ele><time>2026-05-02T14:36:13.127Z</time></trkpt><trkpt lat="46.1079369" lon="13.4850994"><ele>333.5</ele><time>2026-05-02T14:36:14.117Z</time></trkpt><trkpt lat="46.1079816" lon="13.4852634"><ele>331.75</ele><time>2026-05-02T14:36:15.122Z</time></trkpt><trkpt lat="46.1080231" lon="13.4854192"><ele>330.0</ele><time>2026-05-02T14:36:16.126Z</time></trkpt><trkpt lat="46.1080634" lon="13.4855749"><ele>330.0</ele><time>2026-05-02T14:36:17.118Z</time></trkpt><trkpt lat="46.1081109" lon="13.4857217"><ele>330.0</ele><time>2026-05-02T14:36:18.131Z</time></trkpt><trkpt lat="46.1081588" lon="13.4858453"><ele>330.0</ele><time>2026-05-02T14:36:19.122Z</time></trkpt><trkpt lat="46.1082052" lon="13.4859591"><ele>330.0</ele><time>2026-05-02T14:36:20.118Z</time></trkpt><trkpt lat="46.1082422" lon="13.4860783"><ele>330.0</ele><time>2026-05-02T14:36:21.122Z</time></trkpt><trkpt lat="46.1082736" lon="13.4862129"><ele>321.25</ele><time>2026-05-02T14:36:22.121Z</time></trkpt><trkpt lat="46.1082845" lon="13.4863733"><ele>312.5</ele><time>2026-05-02T14:36:23.139Z</time></trkpt><trkpt lat="46.1082822" lon="13.4865783"><ele>303.75</ele><time>2026-05-02T14:36:24.114Z</time></trkpt><trkpt lat="46.1082798" lon="13.4867878"><ele>295.0</ele><time>2026-05-02T14:36:25.119Z</time></trkpt><trkpt lat="46.108289" lon="13.4869969"><ele>296.75</ele><time>2026-05-02T14:36:26.127Z</time></trkpt><trkpt lat="46.108298" lon="13.4871791"><ele>298.5</ele><time>2026-05-02T14:36:27.123Z</time></trkpt><trkpt lat="46.108311" lon="13.4873505"><ele>300.25</ele><time>2026-05-02T14:36:28.12Z</time></trkpt><trkpt lat="46.1083223" lon="13.4875206"><ele>302.0</ele><time>2026-05-02T14:36:29.125Z</time></trkpt><trkpt lat="46.1083243" lon="13.487698"><ele>302.0</ele><time>2026-05-02T14:36:30.128Z</time></trkpt><trkpt lat="46.1083097" lon="13.4878889"><ele>302.0</ele><time>2026-05-02T14:36:31.12Z</time></trkpt><trkpt lat="46.1082878" lon="13.4880926"><ele>302.0</ele><time>2026-05-02T14:36:32.125Z</time></trkpt><trkpt lat="46.1082737" lon="13.4882979"><ele>302.0</ele><time>2026-05-02T14:36:33.131Z</time></trkpt><trkpt lat="46.108256" lon="13.4884893"><ele>302.8</ele><time>2026-05-02T14:36:34.115Z</time></trkpt><trkpt lat="46.1082308" lon="13.488648"><ele>303.6</ele><time>2026-05-02T14:36:35.121Z</time></trkpt><trkpt lat="46.1082134" lon="13.4887913"><ele>304.40000000000003</ele><time>2026-05-02T14:36:36.121Z</time></trkpt><trkpt lat="46.1082096" lon="13.4889249"><ele>305.2</ele><time>2026-05-02T14:36:37.128Z</time></trkpt><trkpt lat="46.108221" lon="13.4890402"><ele>306.0</ele><time>2026-05-02T14:36:38.123Z</time></trkpt><trkpt lat="46.1082502" lon="13.4891444"><ele>306.0</ele><time>2026-05-02T14:36:39.122Z</time></trkpt><trkpt lat="46.1083077" lon="13.48922"><ele>306.0</ele><time>2026-05-02T14:36:40.126Z</time></trkpt><trkpt lat="46.1083942" lon="13.4892715"><ele>306.0</ele><time>2026-05-02T14:36:41.122Z</time></trkpt><trkpt lat="46.1085107" lon="13.4893356"><ele>306.0</ele><time>2026-05-02T14:36:42.113Z</time></trkpt><trkpt lat="46.1086357" lon="13.4894274"><ele>306.0</ele><time>2026-05-02T14:36:43.123Z</time></trkpt><trkpt lat="46.1087506" lon="13.4895139"><ele>306.0</ele><time>2026-05-02T14:36:44.12Z</time></trkpt><trkpt lat="46.1088477" lon="13.4895856"><ele>306.0</ele><time>2026-05-02T14:36:45.119Z</time></trkpt><trkpt lat="46.108906" lon="13.4896469"><ele>306.0</ele><time>2026-05-02T14:36:46.118Z</time></trkpt><trkpt lat="46.1089487" lon="13.4897189"><ele>306.0</ele><time>2026-05-02T14:36:47.118Z</time></trkpt><trkpt lat="46.10899" lon="13.4898034"><ele>306.0</ele><time>2026-05-02T14:36:48.115Z</time></trkpt><trkpt lat="46.1090327" lon="13.4899063"><ele>306.0</ele><time>2026-05-02T14:36:49.122Z</time></trkpt><trkpt lat="46.1090678" lon="13.4900334"><ele>304.75</ele><time>2026-05-02T14:36:50.124Z</time></trkpt><trkpt lat="46.1090841" lon="13.4901763"><ele>303.5</ele><time>2026-05-02T14:36:51.126Z</time></trkpt><trkpt lat="46.1091003" lon="13.4903385"><ele>302.25</ele><time>2026-05-02T14:36:52.125Z</time></trkpt><trkpt lat="46.1091122" lon="13.4905131"><ele>301.0</ele><time>2026-05-02T14:36:53.128Z</time></trkpt><trkpt lat="46.1091314" lon="13.4906916"><ele>303.2</ele><time>2026-05-02T14:36:54.127Z</time></trkpt><trkpt lat="46.1091502" lon="13.4908551"><ele>305.40000000000003</ele><time>2026-05-02T14:36:55.125Z</time></trkpt><trkpt lat="46.109169" lon="13.4909814"><ele>307.6</ele><time>2026-05-02T14:36:56.122Z</time></trkpt><trkpt lat="46.1091986" lon="13.4910913"><ele>309.8</ele><time>2026-05-02T14:36:57.124Z</time></trkpt><trkpt lat="46.1092508" lon="13.4911924"><ele>312.0</ele><time>2026-05-02T14:36:58.127Z</time></trkpt><trkpt lat="46.1093304" lon="13.4912769"><ele>312.0</ele><time>2026-05-02T14:36:59.128Z</time></trkpt><trkpt lat="46.1094255" lon="13.4913487"><ele>312.0</ele><time>2026-05-02T14:37:00.119Z</time></trkpt><trkpt lat="46.10952" lon="13.4914114"><ele>312.0</ele><time>2026-05-02T14:37:01.129Z</time></trkpt><trkpt lat="46.1096085" lon="13.491452"><ele>312.0</ele><time>2026-05-02T14:37:02.132Z</time></trkpt><trkpt lat="46.1096868" lon="13.4914727"><ele>312.0</ele><time>2026-05-02T14:37:03.128Z</time></trkpt><trkpt lat="46.1098035" lon="13.4915627"><ele>312.0</ele><time>2026-05-02T14:37:05.127Z</time></trkpt><trkpt lat="46.10985" lon="13.491661"><ele>312.0</ele><time>2026-05-02T14:37:06.13Z</time></trkpt><trkpt lat="46.1098899" lon="13.4918057"><ele>312.0</ele><time>2026-05-02T14:37:07.13Z</time></trkpt><trkpt lat="46.1099071" lon="13.4919641"><ele>312.0</ele><time>2026-05-02T14:37:08.121Z</time></trkpt><trkpt lat="46.1099281" lon="13.4921149"><ele>312.0</ele><time>2026-05-02T14:37:09.128Z</time></trkpt><trkpt lat="46.1099374" lon="13.4922567"><ele>309.4</ele><time>2026-05-02T14:37:10.134Z</time></trkpt><trkpt lat="46.1099316" lon="13.4924047"><ele>306.79999999999995</ele><time>2026-05-02T14:37:11.129Z</time></trkpt><trkpt lat="46.1099034" lon="13.4925588"><ele>304.2</ele><time>2026-05-02T14:37:12.127Z</time></trkpt><trkpt lat="46.1098759" lon="13.4927104"><ele>301.59999999999997</ele><time>2026-05-02T14:37:13.128Z</time></trkpt><trkpt lat="46.1098489" lon="13.4928506"><ele>299.0</ele><time>2026-05-02T14:37:14.132Z</time></trkpt><trkpt lat="46.1098135" lon="13.4929709"><ele>296.83333333333337</ele><time>2026-05-02T14:37:15.135Z</time></trkpt><trkpt lat="46.1097699" lon="13.4930561"><ele>294.6666666666667</ele><time>2026-05-02T14:37:16.126Z</time></trkpt><trkpt lat="46.1097061" lon="13.4931341"><ele>292.5</ele><time>2026-05-02T14:37:17.123Z</time></trkpt><trkpt lat="46.109637" lon="13.4932039"><ele>290.3333333333333</ele><time>2026-05-02T14:37:18.127Z</time></trkpt><trkpt lat="46.1095585" lon="13.493271"><ele>288.16666666666663</ele><time>2026-05-02T14:37:19.134Z</time></trkpt><trkpt lat="46.109458" lon="13.4933202"><ele>286.0</ele><time>2026-05-02T14:37:20.124Z</time></trkpt><trkpt lat="46.1093582" lon="13.4933653"><ele>286.0</ele><time>2026-05-02T14:37:21.127Z</time></trkpt><trkpt lat="46.1092694" lon="13.4933995"><ele>286.0</ele><time>2026-05-02T14:37:22.124Z</time></trkpt><trkpt lat="46.1091862" lon="13.4934165"><ele>286.0</ele><time>2026-05-02T14:37:23.129Z</time></trkpt><trkpt lat="46.1091049" lon="13.493428"><ele>286.0</ele><time>2026-05-02T14:37:24.123Z</time></trkpt><trkpt lat="46.1090241" lon="13.4934235"><ele>286.0</ele><time>2026-05-02T14:37:25.136Z</time></trkpt><trkpt lat="46.1089369" lon="13.4933854"><ele>286.0</ele><time>2026-05-02T14:37:26.118Z</time></trkpt><trkpt lat="46.1088491" lon="13.4933301"><ele>282.6</ele><time>2026-05-02T14:37:27.129Z</time></trkpt><trkpt lat="46.1087586" lon="13.4932462"><ele>279.20000000000005</ele><time>2026-05-02T14:37:28.132Z</time></trkpt><trkpt lat="46.1086592" lon="13.493179"><ele>275.79999999999995</ele><time>2026-05-02T14:37:29.117Z</time></trkpt><trkpt lat="46.1085618" lon="13.4931038"><ele>272.4</ele><time>2026-05-02T14:37:30.127Z</time></trkpt><trkpt lat="46.1084669" lon="13.4930415"><ele>269.0</ele><time>2026-05-02T14:37:31.119Z</time></trkpt><trkpt lat="46.1083878" lon="13.4929809"><ele>266.4</ele><time>2026-05-02T14:37:32.113Z</time></trkpt><trkpt lat="46.108328" lon="13.492922"><ele>263.79999999999995</ele><time>2026-05-02T14:37:33.123Z</time></trkpt><trkpt lat="46.1082202" lon="13.4929374"><ele>261.20000000000005</ele><time>2026-05-02T14:37:35.133Z</time></trkpt><trkpt lat="46.1081602" lon="13.4929923"><ele>258.6</ele><time>2026-05-02T14:37:36.12Z</time></trkpt><trkpt lat="46.10809" lon="13.4930933"><ele>256.0</ele><time>2026-05-02T14:37:37.121Z</time></trkpt><trkpt lat="46.1080107" lon="13.4932166"><ele>256.0</ele><time>2026-05-02T14:37:38.121Z</time></trkpt><trkpt lat="46.1079336" lon="13.4933135"><ele>256.0</ele><time>2026-05-02T14:37:39.121Z</time></trkpt><trkpt lat="46.1078589" lon="13.493372"><ele>256.0</ele><time>2026-05-02T14:37:40.118Z</time></trkpt><trkpt lat="46.1077729" lon="13.4934129"><ele>256.0</ele><time>2026-05-02T14:37:41.122Z</time></trkpt><trkpt lat="46.1076732" lon="13.4934555"><ele>256.0</ele><time>2026-05-02T14:37:42.124Z</time></trkpt><trkpt lat="46.1075839" lon="13.4934673"><ele>255.99999999999997</ele><time>2026-05-02T14:37:43.121Z</time></trkpt><trkpt lat="46.1074995" lon="13.4934552"><ele>256.0</ele><time>2026-05-02T14:37:44.117Z</time></trkpt><trkpt lat="46.1074296" lon="13.4934117"><ele>256.0</ele><time>2026-05-02T14:37:45.127Z</time></trkpt><trkpt lat="46.1073548" lon="13.4933334"><ele>256.0</ele><time>2026-05-02T14:37:46.114Z</time></trkpt><trkpt lat="46.1072825" lon="13.4932457"><ele>255.99999999999997</ele><time>2026-05-02T14:37:47.116Z</time></trkpt><trkpt lat="46.1072097" lon="13.4931754"><ele>256.0</ele><time>2026-05-02T14:37:48.113Z</time></trkpt><trkpt lat="46.1071285" lon="13.4931264"><ele>254.83333333333331</ele><time>2026-05-02T14:37:49.122Z</time></trkpt><trkpt lat="46.1070481" lon="13.4930911"><ele>253.66666666666666</ele><time>2026-05-02T14:37:50.126Z</time></trkpt><trkpt lat="46.1069674" lon="13.4930541"><ele>252.5</ele><time>2026-05-02T14:37:51.115Z</time></trkpt><trkpt lat="46.1068941" lon="13.493013"><ele>251.33333333333331</ele><time>2026-05-02T14:37:52.114Z</time></trkpt><trkpt lat="46.1068199" lon="13.4930228"><ele>250.16666666666666</ele><time>2026-05-02T14:37:53.124Z</time></trkpt><trkpt lat="46.106755" lon="13.4930928"><ele>249.0</ele><time>2026-05-02T14:37:54.116Z</time></trkpt><trkpt lat="46.1066904" lon="13.4932143"><ele>249.0</ele><time>2026-05-02T14:37:55.118Z</time></trkpt><trkpt lat="46.1066113" lon="13.4933518"><ele>248.99999999999997</ele><time>2026-05-02T14:37:56.11Z</time></trkpt><trkpt lat="46.1065315" lon="13.493473"><ele>248.99999999999997</ele><time>2026-05-02T14:37:57.108Z</time></trkpt><trkpt lat="46.1064658" lon="13.4935423"><ele>249.0</ele><time>2026-05-02T14:37:58.118Z</time></trkpt><trkpt lat="46.1063956" lon="13.4935626"><ele>249.0</ele><time>2026-05-02T14:37:59.115Z</time></trkpt><trkpt lat="46.1063257" lon="13.4935487"><ele>250.33333333333334</ele><time>2026-05-02T14:38:00.107Z</time></trkpt><trkpt lat="46.1062509" lon="13.4935233"><ele>251.66666666666669</ele><time>2026-05-02T14:38:01.122Z</time></trkpt><trkpt lat="46.1061776" lon="13.4934769"><ele>253.0</ele><time>2026-05-02T14:38:02.123Z</time></trkpt><trkpt lat="46.1061122" lon="13.4933923"><ele>254.33333333333334</ele><time>2026-05-02T14:38:03.11Z</time></trkpt><trkpt lat="46.1060634" lon="13.4932914"><ele>255.66666666666669</ele><time>2026-05-02T14:38:04.129Z</time></trkpt><trkpt lat="46.1060031" lon="13.4932031"><ele>257.0</ele><time>2026-05-02T14:38:05.115Z</time></trkpt><trkpt lat="46.105929" lon="13.4931256"><ele>257.0</ele><time>2026-05-02T14:38:06.111Z</time></trkpt><trkpt lat="46.105844" lon="13.4930521"><ele>257.0</ele><time>2026-05-02T14:38:07.119Z</time></trkpt><trkpt lat="46.1057477" lon="13.4929843"><ele>257.0</ele><time>2026-05-02T14:38:08.122Z</time></trkpt><trkpt lat="46.1056655" lon="13.4929453"><ele>257.0</ele><time>2026-05-02T14:38:09.121Z</time></trkpt><trkpt lat="46.1055859" lon="13.4929593"><ele>257.0</ele><time>2026-05-02T14:38:10.118Z</time></trkpt><trkpt lat="46.1055193" lon="13.4930068"><ele>257.0</ele><time>2026-05-02T14:38:11.11Z</time></trkpt><trkpt lat="46.1055127" lon="13.4931916"><ele>265.6</ele><time>2026-05-02T14:38:13.116Z</time></trkpt><trkpt lat="46.1055465" lon="13.4932942"><ele>274.2</ele><time>2026-05-02T14:38:14.111Z</time></trkpt><trkpt lat="46.1055905" lon="13.4934238"><ele>282.8</ele><time>2026-05-02T14:38:15.112Z</time></trkpt><trkpt lat="46.1056274" lon="13.49357"><ele>291.4</ele><time>2026-05-02T14:38:16.112Z</time></trkpt><trkpt lat="46.1056509" lon="13.4937254"><ele>300.0</ele><time>2026-05-02T14:38:17.114Z</time></trkpt><trkpt lat="46.1056523" lon="13.4938793"><ele>300.6</ele><time>2026-05-02T14:38:18.12Z</time></trkpt><trkpt lat="46.1056355" lon="13.4940148"><ele>301.2</ele><time>2026-05-02T14:38:19.111Z</time></trkpt><trkpt lat="46.105605" lon="13.4941438"><ele>301.8</ele><time>2026-05-02T14:38:20.119Z</time></trkpt><trkpt lat="46.1055647" lon="13.494289"><ele>302.4</ele><time>2026-05-02T14:38:21.116Z</time></trkpt><trkpt lat="46.1055341" lon="13.4944469"><ele>303.0</ele><time>2026-05-02T14:38:22.116Z</time></trkpt><trkpt lat="46.1055048" lon="13.4946251"><ele>299.0</ele><time>2026-05-02T14:38:23.11Z</time></trkpt><trkpt lat="46.1054859" lon="13.4948038"><ele>295.0</ele><time>2026-05-02T14:38:24.115Z</time></trkpt><trkpt lat="46.1054661" lon="13.4949623"><ele>291.0</ele><time>2026-05-02T14:38:25.119Z</time></trkpt><trkpt lat="46.1054535" lon="13.4950877"><ele>287.0</ele><time>2026-05-02T14:38:26.116Z</time></trkpt><trkpt lat="46.1054327" lon="13.4951969"><ele>283.0</ele><time>2026-05-02T14:38:27.115Z</time></trkpt><trkpt lat="46.1054081" lon="13.4952943"><ele>283.0</ele><time>2026-05-02T14:38:28.12Z</time></trkpt><trkpt lat="46.1053743" lon="13.4953863"><ele>283.0</ele><time>2026-05-02T14:38:29.124Z</time></trkpt><trkpt lat="46.105326" lon="13.4955045"><ele>283.0</ele><time>2026-05-02T14:38:30.117Z</time></trkpt><trkpt lat="46.1052689" lon="13.4956287"><ele>283.0</ele><time>2026-05-02T14:38:31.118Z</time></trkpt><trkpt lat="46.1051924" lon="13.4957642"><ele>283.0</ele><time>2026-05-02T14:38:32.118Z</time></trkpt><trkpt lat="46.1051184" lon="13.4959019"><ele>287.5</ele><time>2026-05-02T14:38:33.104Z</time></trkpt><trkpt lat="46.1050317" lon="13.4960351"><ele>292.0</ele><time>2026-05-02T14:38:34.114Z</time></trkpt><trkpt lat="46.1049526" lon="13.4961635"><ele>296.5</ele><time>2026-05-02T14:38:35.119Z</time></trkpt><trkpt lat="46.1048767" lon="13.4962751"><ele>301.0</ele><time>2026-05-02T14:38:36.113Z</time></trkpt><trkpt lat="46.1048105" lon="13.4964122"><ele>301.0</ele><time>2026-05-02T14:38:37.11Z</time></trkpt><trkpt lat="46.1047546" lon="13.4965444"><ele>301.0</ele><time>2026-05-02T14:38:38.108Z</time></trkpt><trkpt lat="46.104694" lon="13.496684"><ele>301.0</ele><time>2026-05-02T14:38:39.111Z</time></trkpt><trkpt lat="46.1046345" lon="13.4968196"><ele>301.0</ele><time>2026-05-02T14:38:40.126Z</time></trkpt><trkpt lat="46.1045781" lon="13.4969473"><ele>301.0</ele><time>2026-05-02T14:38:41.114Z</time></trkpt><trkpt lat="46.1045175" lon="13.4970669"><ele>302.6</ele><time>2026-05-02T14:38:42.118Z</time></trkpt><trkpt lat="46.1044764" lon="13.4971799"><ele>304.20000000000005</ele><time>2026-05-02T14:38:43.115Z</time></trkpt><trkpt lat="46.1044708" lon="13.4972711"><ele>305.79999999999995</ele><time>2026-05-02T14:38:44.112Z</time></trkpt><trkpt lat="46.104577" lon="13.497411"><ele>307.4</ele><time>2026-05-02T14:38:46.109Z</time></trkpt><trkpt lat="46.1046757" lon="13.4974493"><ele>309.0</ele><time>2026-05-02T14:38:47.105Z</time></trkpt><trkpt lat="46.104787" lon="13.497482"><ele>309.0</ele><time>2026-05-02T14:38:48.111Z</time></trkpt><trkpt lat="46.104878" lon="13.4975119"><ele>309.0</ele><time>2026-05-02T14:38:49.119Z</time></trkpt><trkpt lat="46.1049462" lon="13.4975363"><ele>309.0</ele><time>2026-05-02T14:38:50.113Z</time></trkpt><trkpt lat="46.1050064" lon="13.4976133"><ele>309.0</ele><time>2026-05-02T14:38:51.117Z</time></trkpt><trkpt lat="46.1050761" lon="13.4977211"><ele>309.0</ele><time>2026-05-02T14:38:52.105Z</time></trkpt><trkpt lat="46.1051504" lon="13.4978281"><ele>304.8</ele><time>2026-05-02T14:38:53.104Z</time></trkpt><trkpt lat="46.1052261" lon="13.4979388"><ele>300.59999999999997</ele><time>2026-05-02T14:38:54.107Z</time></trkpt><trkpt lat="46.1052966" lon="13.4980413"><ele>296.4</ele><time>2026-05-02T14:38:55.107Z</time></trkpt><trkpt lat="46.1053645" lon="13.4981515"><ele>292.2</ele><time>2026-05-02T14:38:56.116Z</time></trkpt><trkpt lat="46.1054293" lon="13.4982804"><ele>288.0</ele><time>2026-05-02T14:38:57.109Z</time></trkpt><trkpt lat="46.1054897" lon="13.4984151"><ele>288.0</ele><time>2026-05-02T14:38:58.107Z</time></trkpt><trkpt lat="46.1055439" lon="13.4985782"><ele>288.0</ele><time>2026-05-02T14:38:59.107Z</time></trkpt><trkpt lat="46.1056037" lon="13.498726"><ele>288.0</ele><time>2026-05-02T14:39:00.103Z</time></trkpt><trkpt lat="46.1056641" lon="13.49885"><ele>288.0</ele><time>2026-05-02T14:39:01.114Z</time></trkpt><trkpt lat="46.1057317" lon="13.4989575"><ele>285.6</ele><time>2026-05-02T14:39:02.1Z</time></trkpt><trkpt lat="46.1058237" lon="13.4990474"><ele>283.20000000000005</ele><time>2026-05-02T14:39:03.113Z</time></trkpt><trkpt lat="46.1059205" lon="13.4991204"><ele>280.8</ele><time>2026-05-02T14:39:04.102Z</time></trkpt><trkpt lat="46.1060107" lon="13.4991721"><ele>278.40000000000003</ele><time>2026-05-02T14:39:05.108Z</time></trkpt><trkpt lat="46.1060931" lon="13.4992053"><ele>276.0</ele><time>2026-05-02T14:39:06.113Z</time></trkpt><trkpt lat="46.1061673" lon="13.4991967"><ele>276.0</ele><time>2026-05-02T14:39:07.106Z</time></trkpt><trkpt lat="46.1062447" lon="13.4991474"><ele>276.0</ele><time>2026-05-02T14:39:08.111Z</time></trkpt><trkpt lat="46.1063329" lon="13.4990874"><ele>276.0</ele><time>2026-05-02T14:39:09.107Z</time></trkpt><trkpt lat="46.1064206" lon="13.4990197"><ele>276.0</ele><time>2026-05-02T14:39:10.112Z</time></trkpt><trkpt lat="46.1065061" lon="13.4989648"><ele>276.0</ele><time>2026-05-02T14:39:11.117Z</time></trkpt><trkpt lat="46.1065843" lon="13.4989294"><ele>271.0</ele><time>2026-05-02T14:39:12.117Z</time></trkpt><trkpt lat="46.1066733" lon="13.4989336"><ele>266.0</ele><time>2026-05-02T14:39:13.12Z</time></trkpt><trkpt lat="46.1067931" lon="13.4989691"><ele>261.0</ele><time>2026-05-02T14:39:14.116Z</time></trkpt><trkpt lat="46.1069041" lon="13.4989954"><ele>256.0</ele><time>2026-05-02T14:39:15.111Z</time></trkpt><trkpt lat="46.1070155" lon="13.4989877"><ele>251.0</ele><time>2026-05-02T14:39:16.121Z</time></trkpt><trkpt lat="46.1071272" lon="13.4989729"><ele>251.00000000000003</ele><time>2026-05-02T14:39:17.115Z</time></trkpt><trkpt lat="46.1072291" lon="13.4989749"><ele>251.0</ele><time>2026-05-02T14:39:18.104Z</time></trkpt><trkpt lat="46.1073223" lon="13.4989836"><ele>251.0</ele><time>2026-05-02T14:39:19.108Z</time></trkpt><trkpt lat="46.1074039" lon="13.4989972"><ele>251.0</ele><time>2026-05-02T14:39:20.12Z</time></trkpt><trkpt lat="46.1074774" lon="13.4990046"><ele>251.00000000000003</ele><time>2026-05-02T14:39:21.118Z</time></trkpt><trkpt lat="46.1075533" lon="13.4990166"><ele>251.0</ele><time>2026-05-02T14:39:22.131Z</time></trkpt><trkpt lat="46.1076313" lon="13.4990421"><ele>248.50000000000003</ele><time>2026-05-02T14:39:23.137Z</time></trkpt><trkpt lat="46.1077198" lon="13.4990737"><ele>246.0</ele><time>2026-05-02T14:39:24.12Z</time></trkpt><trkpt lat="46.1078109" lon="13.4991161"><ele>243.5</ele><time>2026-05-02T14:39:25.132Z</time></trkpt><trkpt lat="46.1078929" lon="13.499166"><ele>241.0</ele><time>2026-05-02T14:39:26.122Z</time></trkpt><trkpt lat="46.1079652" lon="13.4992206"><ele>238.50000000000003</ele><time>2026-05-02T14:39:27.131Z</time></trkpt><trkpt lat="46.1080197" lon="13.4992991"><ele>236.0</ele><time>2026-05-02T14:39:28.125Z</time></trkpt><trkpt lat="46.1080708" lon="13.4994041"><ele>236.0</ele><time>2026-05-02T14:39:29.129Z</time></trkpt><trkpt lat="46.1081071" lon="13.4995314"><ele>236.0</ele><time>2026-05-02T14:39:30.112Z</time></trkpt><trkpt lat="46.1081387" lon="13.4996744"><ele>236.0</ele><time>2026-05-02T14:39:31.122Z</time></trkpt><trkpt lat="46.1081669" lon="13.4998585"><ele>236.0</ele><time>2026-05-02T14:39:32.126Z</time></trkpt><trkpt lat="46.1081771" lon="13.5000404"><ele>235.33333333333334</ele><time>2026-05-02T14:39:33.128Z</time></trkpt><trkpt lat="46.1081811" lon="13.5002068"><ele>234.66666666666669</ele><time>2026-05-02T14:39:34.124Z</time></trkpt><trkpt lat="46.1081857" lon="13.5003329"><ele>234.0</ele><time>2026-05-02T14:39:35.126Z</time></trkpt><trkpt lat="46.1082144" lon="13.5004183"><ele>233.33333333333331</ele><time>2026-05-02T14:39:36.123Z</time></trkpt><trkpt lat="46.1082821" lon="13.500467"><ele>232.66666666666666</ele><time>2026-05-02T14:39:37.119Z</time></trkpt><trkpt lat="46.1083827" lon="13.5005003"><ele>232.0</ele><time>2026-05-02T14:39:38.111Z</time></trkpt><trkpt lat="46.1084947" lon="13.5005142"><ele>225.6</ele><time>2026-05-02T14:39:39.112Z</time></trkpt><trkpt lat="46.1086034" lon="13.5005137"><ele>219.2</ele><time>2026-05-02T14:39:40.12Z</time></trkpt><trkpt lat="46.1087102" lon="13.5005098"><ele>212.8</ele><time>2026-05-02T14:39:41.12Z</time></trkpt><trkpt lat="46.1088186" lon="13.5005002"><ele>206.4</ele><time>2026-05-02T14:39:42.114Z</time></trkpt><trkpt lat="46.1089407" lon="13.5004713"><ele>200.0</ele><time>2026-05-02T14:39:43.125Z</time></trkpt><trkpt lat="46.1090669" lon="13.500418"><ele>198.8</ele><time>2026-05-02T14:39:44.115Z</time></trkpt><trkpt lat="46.1091684" lon="13.5003662"><ele>197.6</ele><time>2026-05-02T14:39:45.126Z</time></trkpt><trkpt lat="46.1092486" lon="13.5003387"><ele>196.39999999999998</ele><time>2026-05-02T14:39:46.121Z</time></trkpt><trkpt lat="46.1093312" lon="13.5003243"><ele>195.2</ele><time>2026-05-02T14:39:47.127Z</time></trkpt><trkpt lat="46.1094086" lon="13.5003229"><ele>194.0</ele><time>2026-05-02T14:39:48.122Z</time></trkpt><trkpt lat="46.109511" lon="13.5003387"><ele>194.0</ele><time>2026-05-02T14:39:49.12Z</time></trkpt><trkpt lat="46.1096144" lon="13.5003544"><ele>194.0</ele><time>2026-05-02T14:39:50.133Z</time></trkpt><trkpt lat="46.1097123" lon="13.5003871"><ele>194.0</ele><time>2026-05-02T14:39:51.126Z</time></trkpt><trkpt lat="46.1097968" lon="13.500448"><ele>194.0</ele><time>2026-05-02T14:39:52.119Z</time></trkpt><trkpt lat="46.1098776" lon="13.500521"><ele>194.0</ele><time>2026-05-02T14:39:53.134Z</time></trkpt><trkpt lat="46.1099632" lon="13.5006306"><ele>191.0</ele><time>2026-05-02T14:39:54.125Z</time></trkpt><trkpt lat="46.1100554" lon="13.50075"><ele>188.0</ele><time>2026-05-02T14:39:55.126Z</time></trkpt><trkpt lat="46.1101573" lon="13.5008691"><ele>185.0</ele><time>2026-05-02T14:39:56.128Z</time></trkpt><trkpt lat="46.1102689" lon="13.5010041"><ele>182.0</ele><time>2026-05-02T14:39:57.126Z</time></trkpt><trkpt lat="46.1103681" lon="13.501138"><ele>180.2</ele><time>2026-05-02T14:39:58.126Z</time></trkpt><trkpt lat="46.1104377" lon="13.5012539"><ele>178.39999999999998</ele><time>2026-05-02T14:39:59.129Z</time></trkpt><trkpt lat="46.1104956" lon="13.5013691"><ele>176.60000000000002</ele><time>2026-05-02T14:40:00.122Z</time></trkpt><trkpt lat="46.1105531" lon="13.5014782"><ele>174.8</ele><time>2026-05-02T14:40:01.126Z</time></trkpt><trkpt lat="46.1106033" lon="13.5015927"><ele>173.0</ele><time>2026-05-02T14:40:02.121Z</time></trkpt><trkpt lat="46.1106411" lon="13.5017086"><ele>173.0</ele><time>2026-05-02T14:40:03.127Z</time></trkpt><trkpt lat="46.1106697" lon="13.5018225"><ele>173.0</ele><time>2026-05-02T14:40:04.117Z</time></trkpt><trkpt lat="46.1106938" lon="13.5019393"><ele>173.0</ele><time>2026-05-02T14:40:05.113Z</time></trkpt><trkpt lat="46.1107285" lon="13.5020377"><ele>173.0</ele><time>2026-05-02T14:40:06.12Z</time></trkpt><trkpt lat="46.1107768" lon="13.5021491"><ele>173.0</ele><time>2026-05-02T14:40:07.119Z</time></trkpt><trkpt lat="46.1108524" lon="13.5022813"><ele>170.60000000000002</ele><time>2026-05-02T14:40:08.111Z</time></trkpt><trkpt lat="46.1109377" lon="13.5023985"><ele>168.20000000000002</ele><time>2026-05-02T14:40:09.127Z</time></trkpt><trkpt lat="46.1110007" lon="13.5025068"><ele>165.8</ele><time>2026-05-02T14:40:10.116Z</time></trkpt><trkpt lat="46.1110753" lon="13.5026066"><ele>163.4</ele><time>2026-05-02T14:40:11.117Z</time></trkpt><trkpt lat="46.1111701" lon="13.5026963"><ele>161.0</ele><time>2026-05-02T14:40:12.117Z</time></trkpt><trkpt lat="46.1112749" lon="13.5027758"><ele>161.0</ele><time>2026-05-02T14:40:13.114Z</time></trkpt><trkpt lat="46.1113662" lon="13.5028478"><ele>161.0</ele><time>2026-05-02T14:40:14.114Z</time></trkpt><trkpt lat="46.1114456" lon="13.5029102"><ele>161.0</ele><time>2026-05-02T14:40:15.112Z</time></trkpt><trkpt lat="46.1115318" lon="13.5029644"><ele>161.0</ele><time>2026-05-02T14:40:16.113Z</time></trkpt><trkpt lat="46.1116424" lon="13.5029996"><ele>161.0</ele><time>2026-05-02T14:40:17.12Z</time></trkpt><trkpt lat="46.1117695" lon="13.5030215"><ele>159.20000000000002</ele><time>2026-05-02T14:40:18.103Z</time></trkpt><trkpt lat="46.1118818" lon="13.5030362"><ele>157.4</ele><time>2026-05-02T14:40:19.112Z</time></trkpt><trkpt lat="46.1119878" lon="13.5030521"><ele>155.6</ele><time>2026-05-02T14:40:20.117Z</time></trkpt><trkpt lat="46.1120858" lon="13.5030657"><ele>153.8</ele><time>2026-05-02T14:40:21.111Z</time></trkpt><trkpt lat="46.1121628" lon="13.5030881"><ele>152.0</ele><time>2026-05-02T14:40:22.125Z</time></trkpt><trkpt lat="46.1122527" lon="13.5031562"><ele>152.0</ele><time>2026-05-02T14:40:24.111Z</time></trkpt><trkpt lat="46.1122701" lon="13.5032582"><ele>152.0</ele><time>2026-05-02T14:40:26.109Z</time></trkpt><trkpt lat="46.1122734" lon="13.503366"><ele>152.0</ele><time>2026-05-02T14:40:29.106Z</time></trkpt><trkpt lat="46.1122516" lon="13.5035391"><ele>152.0</ele><time>2026-05-02T14:41:52.116Z</time></trkpt><trkpt lat="46.1122345" lon="13.5036544"><ele>152.0</ele><time>2026-05-02T14:41:53.121Z</time></trkpt><trkpt lat="46.1122095" lon="13.5037765"><ele>152.0</ele><time>2026-05-02T14:41:54.128Z</time></trkpt><trkpt lat="46.112175" lon="13.5039039"><ele>151.66666666666666</ele><time>2026-05-02T14:41:55.128Z</time></trkpt><trkpt lat="46.1121461" lon="13.5040027"><ele>151.33333333333331</ele><time>2026-05-02T14:41:56.141Z</time></trkpt><trkpt lat="46.1120908" lon="13.5041632"><ele>151.0</ele><time>2026-05-02T14:41:58.127Z</time></trkpt><trkpt lat="46.1120595" lon="13.504244"><ele>150.66666666666666</ele><time>2026-05-02T14:41:59.129Z</time></trkpt><trkpt lat="46.1120263" lon="13.504331"><ele>150.33333333333334</ele><time>2026-05-02T14:42:00.133Z</time></trkpt><trkpt lat="46.1119942" lon="13.5044252"><ele>150.0</ele><time>2026-05-02T14:42:01.116Z</time></trkpt><trkpt lat="46.1119599" lon="13.5045254"><ele>150.0</ele><time>2026-05-02T14:42:02.12Z</time></trkpt><trkpt lat="46.111929" lon="13.5046245"><ele>150.0</ele><time>2026-05-02T14:42:03.127Z</time></trkpt><trkpt lat="46.1118955" lon="13.5047253"><ele>150.0</ele><time>2026-05-02T14:42:04.134Z</time></trkpt><trkpt lat="46.111866" lon="13.5048205"><ele>150.0</ele><time>2026-05-02T14:42:05.117Z</time></trkpt><trkpt lat="46.1118416" lon="13.5049068"><ele>150.0</ele><time>2026-05-02T14:42:06.119Z</time></trkpt><trkpt lat="46.1118159" lon="13.5050743"><ele>150.0</ele><time>2026-05-02T14:42:08.118Z</time></trkpt><trkpt lat="46.1118255" lon="13.5051645"><ele>150.0</ele><time>2026-05-02T14:42:09.12Z</time></trkpt><trkpt lat="46.1118645" lon="13.5053147"><ele>150.0</ele><time>2026-05-02T14:42:11.122Z</time></trkpt><trkpt lat="46.1119458" lon="13.5054757"><ele>150.0</ele><time>2026-05-02T14:42:13.119Z</time></trkpt><trkpt lat="46.1120125" lon="13.5055903"><ele>150.0</ele><time>2026-05-02T14:42:14.121Z</time></trkpt><trkpt lat="46.1120867" lon="13.5057203"><ele>153.25</ele><time>2026-05-02T14:42:15.13Z</time></trkpt><trkpt lat="46.1121724" lon="13.5058508"><ele>156.5</ele><time>2026-05-02T14:42:16.192Z</time></trkpt><trkpt lat="46.1122617" lon="13.5059877"><ele>159.75</ele><time>2026-05-02T14:42:17.126Z</time></trkpt><trkpt lat="46.1123478" lon="13.5061187"><ele>163.0</ele><time>2026-05-02T14:42:18.129Z</time></trkpt><trkpt lat="46.1124315" lon="13.5062487"><ele>165.4</ele><time>2026-05-02T14:42:19.116Z</time></trkpt><trkpt lat="46.112506" lon="13.5063797"><ele>167.8</ele><time>2026-05-02T14:42:20.113Z</time></trkpt><trkpt lat="46.1125706" lon="13.5065087"><ele>170.2</ele><time>2026-05-02T14:42:21.118Z</time></trkpt><trkpt lat="46.1126363" lon="13.5066272"><ele>172.6</ele><time>2026-05-02T14:42:22.112Z</time></trkpt><trkpt lat="46.1127258" lon="13.5067321"><ele>175.0</ele><time>2026-05-02T14:42:23.121Z</time></trkpt><trkpt lat="46.1128167" lon="13.5068166"><ele>175.0</ele><time>2026-05-02T14:42:24.116Z</time></trkpt><trkpt lat="46.1128952" lon="13.506896"><ele>175.0</ele><time>2026-05-02T14:42:25.133Z</time></trkpt><trkpt lat="46.1129628" lon="13.5069891"><ele>175.0</ele><time>2026-05-02T14:42:26.125Z</time></trkpt><trkpt lat="46.1130349" lon="13.507125"><ele>175.0</ele><time>2026-05-02T14:42:27.133Z</time></trkpt><trkpt lat="46.1131029" lon="13.5072843"><ele>175.0</ele><time>2026-05-02T14:42:28.13Z</time></trkpt><trkpt lat="46.1131594" lon="13.5074446"><ele>176.6</ele><time>2026-05-02T14:42:29.12Z</time></trkpt><trkpt lat="46.1132024" lon="13.5075616"><ele>178.2</ele><time>2026-05-02T14:42:30.126Z</time></trkpt><trkpt lat="46.1132411" lon="13.507658"><ele>179.8</ele><time>2026-05-02T14:42:31.127Z</time></trkpt><trkpt lat="46.1132669" lon="13.5077586"><ele>181.4</ele><time>2026-05-02T14:42:32.146Z</time></trkpt><trkpt lat="46.1132988" lon="13.5078937"><ele>183.0</ele><time>2026-05-02T14:42:33.13Z</time></trkpt><trkpt lat="46.1133325" lon="13.5080457"><ele>176.0</ele><time>2026-05-02T14:42:34.124Z</time></trkpt><trkpt lat="46.1133754" lon="13.508183"><ele>169.0</ele><time>2026-05-02T14:42:35.12Z</time></trkpt><trkpt lat="46.1134411" lon="13.5083174"><ele>162.0</ele><time>2026-05-02T14:42:36.132Z</time></trkpt><trkpt lat="46.1135179" lon="13.5084443"><ele>155.0</ele><time>2026-05-02T14:42:37.122Z</time></trkpt><trkpt lat="46.1135982" lon="13.5085654"><ele>155.0</ele><time>2026-05-02T14:42:38.119Z</time></trkpt><trkpt lat="46.113679" lon="13.5086875"><ele>155.0</ele><time>2026-05-02T14:42:39.121Z</time></trkpt><trkpt lat="46.1137512" lon="13.5088068"><ele>155.0</ele><time>2026-05-02T14:42:40.117Z</time></trkpt><trkpt lat="46.1138201" lon="13.5089172"><ele>155.0</ele><time>2026-05-02T14:42:41.154Z</time></trkpt><trkpt lat="46.1138802" lon="13.5090138"><ele>155.0</ele><time>2026-05-02T14:42:42.128Z</time></trkpt><trkpt lat="46.1139212" lon="13.5091164"><ele>155.6</ele><time>2026-05-02T14:42:43.129Z</time></trkpt><trkpt lat="46.1138957" lon="13.5092661"><ele>156.2</ele><time>2026-05-02T14:42:45.123Z</time></trkpt><trkpt lat="46.1137886" lon="13.5093608"><ele>156.8</ele><time>2026-05-02T14:42:47.12Z</time></trkpt><trkpt lat="46.1137329" lon="13.5094997"><ele>157.4</ele><time>2026-05-02T14:42:49.134Z</time></trkpt><trkpt lat="46.1137325" lon="13.5096168"><ele>158.0</ele><time>2026-05-02T14:42:50.112Z</time></trkpt><trkpt lat="46.113752" lon="13.509769"><ele>159.0</ele><time>2026-05-02T14:42:51.116Z</time></trkpt><trkpt lat="46.1137703" lon="13.5099634"><ele>160.0</ele><time>2026-05-02T14:42:52.114Z</time></trkpt><trkpt lat="46.1137817" lon="13.5101669"><ele>161.0</ele><time>2026-05-02T14:42:53.119Z</time></trkpt><trkpt lat="46.1137949" lon="13.51037"><ele>162.0</ele><time>2026-05-02T14:42:54.107Z</time></trkpt><trkpt lat="46.113803" lon="13.5105685"><ele>162.0</ele><time>2026-05-02T14:42:55.113Z</time></trkpt><trkpt lat="46.1138174" lon="13.5107448"><ele>162.0</ele><time>2026-05-02T14:42:56.116Z</time></trkpt><trkpt lat="46.1138327" lon="13.5109206"><ele>162.0</ele><time>2026-05-02T14:42:57.115Z</time></trkpt><trkpt lat="46.1138408" lon="13.5110971"><ele>162.0</ele><time>2026-05-02T14:42:58.121Z</time></trkpt><trkpt lat="46.1138501" lon="13.5112746"><ele>162.2</ele><time>2026-05-02T14:42:59.111Z</time></trkpt><trkpt lat="46.113853" lon="13.5114526"><ele>162.39999999999998</ele><time>2026-05-02T14:43:00.104Z</time></trkpt><trkpt lat="46.1138462" lon="13.511606"><ele>162.60000000000002</ele><time>2026-05-02T14:43:01.12Z</time></trkpt><trkpt lat="46.1138442" lon="13.5117465"><ele>162.8</ele><time>2026-05-02T14:43:02.116Z</time></trkpt><trkpt lat="46.1138611" lon="13.5118893"><ele>163.0</ele><time>2026-05-02T14:43:03.111Z</time></trkpt><trkpt lat="46.1139001" lon="13.5120443"><ele>166.25</ele><time>2026-05-02T14:43:04.109Z</time></trkpt><trkpt lat="46.1139349" lon="13.5122014"><ele>169.5</ele><time>2026-05-02T14:43:05.115Z</time></trkpt><trkpt lat="46.1139742" lon="13.5123731"><ele>172.75</ele><time>2026-05-02T14:43:06.111Z</time></trkpt><trkpt lat="46.114009" lon="13.5125245"><ele>176.0</ele><time>2026-05-02T14:43:07.109Z</time></trkpt><trkpt lat="46.1140318" lon="13.5126655"><ele>176.0</ele><time>2026-05-02T14:43:08.113Z</time></trkpt><trkpt lat="46.1140497" lon="13.5128214"><ele>176.0</ele><time>2026-05-02T14:43:09.111Z</time></trkpt><trkpt lat="46.1140613" lon="13.5129813"><ele>176.0</ele><time>2026-05-02T14:43:10.116Z</time></trkpt><trkpt lat="46.1140729" lon="13.5131367"><ele>176.0</ele><time>2026-05-02T14:43:11.112Z</time></trkpt><trkpt lat="46.1140963" lon="13.5132935"><ele>176.0</ele><time>2026-05-02T14:43:12.106Z</time></trkpt><trkpt lat="46.1141301" lon="13.5134598"><ele>173.8</ele><time>2026-05-02T14:43:13.116Z</time></trkpt><trkpt lat="46.1141688" lon="13.5136205"><ele>171.60000000000002</ele><time>2026-05-02T14:43:14.112Z</time></trkpt><trkpt lat="46.1142082" lon="13.5137711"><ele>169.4</ele><time>2026-05-02T14:43:15.111Z</time></trkpt><trkpt lat="46.1142436" lon="13.5139062"><ele>167.2</ele><time>2026-05-02T14:43:16.109Z</time></trkpt><trkpt lat="46.1142729" lon="13.5140289"><ele>165.0</ele><time>2026-05-02T14:43:17.107Z</time></trkpt><trkpt lat="46.1142957" lon="13.514153"><ele>165.0</ele><time>2026-05-02T14:43:18.118Z</time></trkpt><trkpt lat="46.1143113" lon="13.5142974"><ele>165.0</ele><time>2026-05-02T14:43:19.127Z</time></trkpt><trkpt lat="46.114335" lon="13.5144555"><ele>165.0</ele><time>2026-05-02T14:43:20.123Z</time></trkpt><trkpt lat="46.1143637" lon="13.5146275"><ele>165.0</ele><time>2026-05-02T14:43:21.115Z</time></trkpt><trkpt lat="46.1143838" lon="13.514797"><ele>165.8</ele><time>2026-05-02T14:43:22.113Z</time></trkpt><trkpt lat="46.1143964" lon="13.5149569"><ele>166.6</ele><time>2026-05-02T14:43:23.119Z</time></trkpt><trkpt lat="46.1144048" lon="13.515117"><ele>167.39999999999998</ele><time>2026-05-02T14:43:24.11Z</time></trkpt><trkpt lat="46.1144072" lon="13.5152705"><ele>168.2</ele><time>2026-05-02T14:43:25.113Z</time></trkpt><trkpt lat="46.1144189" lon="13.515421"><ele>169.0</ele><time>2026-05-02T14:43:26.105Z</time></trkpt><trkpt lat="46.1144352" lon="13.5155754"><ele>169.5</ele><time>2026-05-02T14:43:27.12Z</time></trkpt><trkpt lat="46.114427" lon="13.5157056"><ele>170.0</ele><time>2026-05-02T14:43:28.117Z</time></trkpt><trkpt lat="46.1144286" lon="13.5158207"><ele>170.5</ele><time>2026-05-02T14:43:29.114Z</time></trkpt><trkpt lat="46.1144542" lon="13.5159427"><ele>171.0</ele><time>2026-05-02T14:43:30.108Z</time></trkpt><trkpt lat="46.1144861" lon="13.5160642"><ele>171.5</ele><time>2026-05-02T14:43:31.11Z</time></trkpt><trkpt lat="46.1145269" lon="13.5161932"><ele>172.0</ele><time>2026-05-02T14:43:32.113Z</time></trkpt><trkpt lat="46.1145631" lon="13.5163193"><ele>172.0</ele><time>2026-05-02T14:43:33.115Z</time></trkpt><trkpt lat="46.1146024" lon="13.5164445"><ele>172.0</ele><time>2026-05-02T14:43:34.127Z</time></trkpt><trkpt lat="46.1146591" lon="13.5165701"><ele>172.0</ele><time>2026-05-02T14:43:35.116Z</time></trkpt><trkpt lat="46.114736" lon="13.5167118"><ele>172.0</ele><time>2026-05-02T14:43:36.115Z</time></trkpt><trkpt lat="46.1148142" lon="13.5168605"><ele>172.0</ele><time>2026-05-02T14:43:37.121Z</time></trkpt><trkpt lat="46.1148982" lon="13.517018"><ele>172.0</ele><time>2026-05-02T14:43:38.119Z</time></trkpt><trkpt lat="46.1149802" lon="13.5171702"><ele>172.0</ele><time>2026-05-02T14:43:39.107Z</time></trkpt><trkpt lat="46.1150667" lon="13.5173104"><ele>172.0</ele><time>2026-05-02T14:43:40.106Z</time></trkpt><trkpt lat="46.1151523" lon="13.5174524"><ele>167.0</ele><time>2026-05-02T14:43:41.115Z</time></trkpt><trkpt lat="46.1152393" lon="13.517587"><ele>162.0</ele><time>2026-05-02T14:43:42.109Z</time></trkpt><trkpt lat="46.1153144" lon="13.5177124"><ele>157.0</ele><time>2026-05-02T14:43:43.117Z</time></trkpt><trkpt lat="46.115388" lon="13.5178289"><ele>152.0</ele><time>2026-05-02T14:43:44.109Z</time></trkpt><trkpt lat="46.1154629" lon="13.517944"><ele>151.75</ele><time>2026-05-02T14:43:45.118Z</time></trkpt><trkpt lat="46.1155402" lon="13.5180468"><ele>151.5</ele><time>2026-05-02T14:43:46.113Z</time></trkpt><trkpt lat="46.1156334" lon="13.5181465"><ele>151.25</ele><time>2026-05-02T14:43:47.112Z</time></trkpt><trkpt lat="46.1157252" lon="13.5182374"><ele>151.0</ele><time>2026-05-02T14:43:48.115Z</time></trkpt><trkpt lat="46.1158256" lon="13.5183286"><ele>151.0</ele><time>2026-05-02T14:43:49.114Z</time></trkpt><trkpt lat="46.1159322" lon="13.5184138"><ele>151.0</ele><time>2026-05-02T14:43:50.114Z</time></trkpt><trkpt lat="46.1160454" lon="13.5184934"><ele>151.0</ele><time>2026-05-02T14:43:51.123Z</time></trkpt><trkpt lat="46.1161571" lon="13.5185716"><ele>151.0</ele><time>2026-05-02T14:43:52.117Z</time></trkpt><trkpt lat="46.1162463" lon="13.518647"><ele>151.0</ele><time>2026-05-02T14:43:53.121Z</time></trkpt><trkpt lat="46.1163299" lon="13.5187387"><ele>151.0</ele><time>2026-05-02T14:43:54.12Z</time></trkpt><trkpt lat="46.1164182" lon="13.5188499"><ele>151.0</ele><time>2026-05-02T14:43:55.119Z</time></trkpt><trkpt lat="46.1165172" lon="13.5189572"><ele>151.0</ele><time>2026-05-02T14:43:56.124Z</time></trkpt><trkpt lat="46.1166303" lon="13.5190534"><ele>151.75</ele><time>2026-05-02T14:43:57.114Z</time></trkpt><trkpt lat="46.1167478" lon="13.5191487"><ele>152.5</ele><time>2026-05-02T14:43:58.129Z</time></trkpt><trkpt lat="46.1168609" lon="13.519239"><ele>153.25</ele><time>2026-05-02T14:43:59.126Z</time></trkpt><trkpt lat="46.1169698" lon="13.519333"><ele>154.0</ele><time>2026-05-02T14:44:00.112Z</time></trkpt><trkpt lat="46.117073" lon="13.5194357"><ele>154.0</ele><time>2026-05-02T14:44:01.119Z</time></trkpt><trkpt lat="46.117167" lon="13.5195463"><ele>154.0</ele><time>2026-05-02T14:44:02.12Z</time></trkpt><trkpt lat="46.1172554" lon="13.5196522"><ele>154.0</ele><time>2026-05-02T14:44:03.129Z</time></trkpt><trkpt lat="46.1173369" lon="13.5197418"><ele>154.0</ele><time>2026-05-02T14:44:04.123Z</time></trkpt><trkpt lat="46.1173868" lon="13.5198305"><ele>154.0</ele><time>2026-05-02T14:44:05.125Z</time></trkpt><trkpt lat="46.1174214" lon="13.5199472"><ele>153.8</ele><time>2026-05-02T14:44:06.114Z</time></trkpt><trkpt lat="46.1174531" lon="13.5200829"><ele>153.60000000000002</ele><time>2026-05-02T14:44:07.12Z</time></trkpt><trkpt lat="46.117478" lon="13.5202303"><ele>153.4</ele><time>2026-05-02T14:44:08.112Z</time></trkpt><trkpt lat="46.1175062" lon="13.5203622"><ele>153.20000000000002</ele><time>2026-05-02T14:44:09.123Z</time></trkpt><trkpt lat="46.1175555" lon="13.5204677"><ele>153.0</ele><time>2026-05-02T14:44:10.115Z</time></trkpt><trkpt lat="46.1176153" lon="13.5205496"><ele>153.0</ele><time>2026-05-02T14:44:11.112Z</time></trkpt><trkpt lat="46.1176679" lon="13.5206224"><ele>153.0</ele><time>2026-05-02T14:44:12.121Z</time></trkpt><trkpt lat="46.1177166" lon="13.520696"><ele>153.0</ele><time>2026-05-02T14:44:13.121Z</time></trkpt><trkpt lat="46.1177727" lon="13.520765"><ele>153.0</ele><time>2026-05-02T14:44:14.116Z</time></trkpt><trkpt lat="46.1178411" lon="13.5208332"><ele>153.0</ele><time>2026-05-02T14:44:15.12Z</time></trkpt><trkpt lat="46.1179272" lon="13.5209161"><ele>153.0</ele><time>2026-05-02T14:44:16.113Z</time></trkpt><trkpt lat="46.1180111" lon="13.5209954"><ele>153.0</ele><time>2026-05-02T14:44:17.127Z</time></trkpt><trkpt lat="46.1180876" lon="13.5210661"><ele>153.0</ele><time>2026-05-02T14:44:18.117Z</time></trkpt><trkpt lat="46.1181409" lon="13.5211363"><ele>153.0</ele><time>2026-05-02T14:44:19.117Z</time></trkpt><trkpt lat="46.118178" lon="13.5213098"><ele>153.0</ele><time>2026-05-02T14:44:21.12Z</time></trkpt><trkpt lat="46.1181686" lon="13.5214152"><ele>153.0</ele><time>2026-05-02T14:44:22.119Z</time></trkpt><trkpt lat="46.1181437" lon="13.521532"><ele>153.0</ele><time>2026-05-02T14:44:23.117Z</time></trkpt><trkpt lat="46.1181163" lon="13.5216439"><ele>153.0</ele><time>2026-05-02T14:44:24.114Z</time></trkpt><trkpt lat="46.1180969" lon="13.5217413"><ele>153.0</ele><time>2026-05-02T14:44:25.123Z</time></trkpt><trkpt lat="46.1181185" lon="13.5218424"><ele>153.0</ele><time>2026-05-02T14:44:27.127Z</time></trkpt><trkpt lat="46.1181866" lon="13.521862"><ele>153.0</ele><time>2026-05-02T14:44:28.128Z</time></trkpt><trkpt lat="46.1182872" lon="13.5218708"><ele>153.0</ele><time>2026-05-02T14:44:29.121Z</time></trkpt><trkpt lat="46.1184039" lon="13.5218881"><ele>153.0</ele><time>2026-05-02T14:44:30.119Z</time></trkpt><trkpt lat="46.1185185" lon="13.5219367"><ele>153.0</ele><time>2026-05-02T14:44:31.119Z</time></trkpt><trkpt lat="46.118627" lon="13.5220087"><ele>153.0</ele><time>2026-05-02T14:44:32.112Z</time></trkpt><trkpt lat="46.1187304" lon="13.5220697"><ele>153.0</ele><time>2026-05-02T14:44:33.114Z</time></trkpt><trkpt lat="46.1188218" lon="13.5221186"><ele>153.0</ele><time>2026-05-02T14:44:34.131Z</time></trkpt><trkpt lat="46.118909" lon="13.522162"><ele>153.0</ele><time>2026-05-02T14:44:35.109Z</time></trkpt><trkpt lat="46.1189968" lon="13.522207"><ele>153.4</ele><time>2026-05-02T14:44:36.122Z</time></trkpt><trkpt lat="46.119088" lon="13.5222451"><ele>153.8</ele><time>2026-05-02T14:44:37.12Z</time></trkpt><trkpt lat="46.1191809" lon="13.5222684"><ele>154.2</ele><time>2026-05-02T14:44:38.116Z</time></trkpt><trkpt lat="46.1192754" lon="13.5222741"><ele>154.6</ele><time>2026-05-02T14:44:39.122Z</time></trkpt><trkpt lat="46.1193671" lon="13.5222659"><ele>155.0</ele><time>2026-05-02T14:44:40.128Z</time></trkpt><trkpt lat="46.119452" lon="13.5222651"><ele>155.0</ele><time>2026-05-02T14:44:41.119Z</time></trkpt><trkpt lat="46.1195352" lon="13.5223026"><ele>155.0</ele><time>2026-05-02T14:44:42.12Z</time></trkpt><trkpt lat="46.1196172" lon="13.5223757"><ele>155.0</ele><time>2026-05-02T14:44:43.12Z</time></trkpt><trkpt lat="46.119684" lon="13.5224672"><ele>155.0</ele><time>2026-05-02T14:44:44.118Z</time></trkpt><trkpt lat="46.1197446" lon="13.5225494"><ele>155.0</ele><time>2026-05-02T14:44:45.119Z</time></trkpt><trkpt lat="46.1198018" lon="13.5226243"><ele>155.0</ele><time>2026-05-02T14:44:46.118Z</time></trkpt><trkpt lat="46.1198499" lon="13.522709"><ele>155.0</ele><time>2026-05-02T14:44:47.125Z</time></trkpt><trkpt lat="46.1198992" lon="13.5227945"><ele>155.0</ele><time>2026-05-02T14:44:48.113Z</time></trkpt><trkpt lat="46.1199529" lon="13.5228934"><ele>155.0</ele><time>2026-05-02T14:44:49.121Z</time></trkpt><trkpt lat="46.1200041" lon="13.5230015"><ele>155.0</ele><time>2026-05-02T14:44:50.125Z</time></trkpt><trkpt lat="46.1200528" lon="13.5231063"><ele>155.0</ele><time>2026-05-02T14:44:51.123Z</time></trkpt><trkpt lat="46.1201002" lon="13.5232033"><ele>155.0</ele><time>2026-05-02T14:44:52.139Z</time></trkpt><trkpt lat="46.1201476" lon="13.5233023"><ele>155.0</ele><time>2026-05-02T14:44:53.118Z</time></trkpt><trkpt lat="46.1201913" lon="13.5233948"><ele>155.0</ele><time>2026-05-02T14:44:54.124Z</time></trkpt><trkpt lat="46.1202321" lon="13.5234787"><ele>155.0</ele><time>2026-05-02T14:44:55.133Z</time></trkpt><trkpt lat="46.1202821" lon="13.5236263"><ele>155.0</ele><time>2026-05-02T14:44:57.127Z</time></trkpt><trkpt lat="46.1202119" lon="13.5237706"><ele>155.0</ele><time>2026-05-02T14:44:59.127Z</time></trkpt><trkpt lat="46.12015" lon="13.523834"><ele>155.0</ele><time>2026-05-02T14:45:00.117Z</time></trkpt><trkpt lat="46.1200912" lon="13.5238926"><ele>155.0</ele><time>2026-05-02T14:45:01.121Z</time></trkpt><trkpt lat="46.1200339" lon="13.523948"><ele>155.0</ele><time>2026-05-02T14:45:02.125Z</time></trkpt><trkpt lat="46.119959" lon="13.524013"><ele>155.0</ele><time>2026-05-02T14:45:04.121Z</time></trkpt><trkpt lat="46.1199383" lon="13.5241155"><ele>155.0</ele><time>2026-05-02T14:45:06.117Z</time></trkpt><trkpt lat="46.1198794" lon="13.5242314"><ele>155.0</ele><time>2026-05-02T14:45:09.118Z</time></trkpt><trkpt lat="46.1198108" lon="13.5242744"><ele>155.0</ele><time>2026-05-02T14:45:11.119Z</time></trkpt><trkpt lat="46.1197861" lon="13.5243684"><ele>155.0</ele><time>2026-05-02T14:45:14.112Z</time></trkpt><trkpt lat="46.1198606" lon="13.5243507"><ele>155.0</ele><time>2026-05-02T16:50:06.204Z</time></trkpt><trkpt lat="46.1199318" lon="13.5242765"><ele>155.0</ele><time>2026-05-02T16:50:09.18Z</time></trkpt><trkpt lat="46.1199934" lon="13.524196"><ele>155.0</ele><time>2026-05-02T16:50:11.12Z</time></trkpt><trkpt lat="46.1200617" lon="13.5241223"><ele>155.0</ele><time>2026-05-02T16:50:13.114Z</time></trkpt><trkpt lat="46.1201272" lon="13.5240528"><ele>155.0</ele><time>2026-05-02T16:50:15.118Z</time></trkpt><trkpt lat="46.1202354" lon="13.5239683"><ele>155.0</ele><time>2026-05-02T16:50:18.124Z</time></trkpt><trkpt lat="46.1202856" lon="13.5239099"><ele>155.0</ele><time>2026-05-02T16:50:20.115Z</time></trkpt><trkpt lat="46.120229" lon="13.5240044"><ele>155.0</ele><time>2026-05-02T16:50:25.128Z</time></trkpt><trkpt lat="46.1201677" lon="13.5239704"><ele>155.0</ele><time>2026-05-02T16:50:27.112Z</time></trkpt><trkpt lat="46.1201572" lon="13.5238649"><ele>155.0</ele><time>2026-05-02T16:50:29.113Z</time></trkpt><trkpt lat="46.1202103" lon="13.5237818"><ele>155.0</ele><time>2026-05-02T16:50:31.125Z</time></trkpt><trkpt lat="46.1202717" lon="13.523723"><ele>155.0</ele><time>2026-05-02T16:50:33.131Z</time></trkpt><trkpt lat="46.1202911" lon="13.5236281"><ele>155.0</ele><time>2026-05-02T16:50:35.14Z</time></trkpt><trkpt lat="46.1202662" lon="13.5235148"><ele>155.0</ele><time>2026-05-02T16:50:37.126Z</time></trkpt><trkpt lat="46.1202144" lon="13.5233964"><ele>155.0</ele><time>2026-05-02T16:50:39.141Z</time></trkpt><trkpt lat="46.1201535" lon="13.5232579"><ele>155.0</ele><time>2026-05-02T16:50:41.144Z</time></trkpt><trkpt lat="46.1200819" lon="13.523132"><ele>155.0</ele><time>2026-05-02T16:50:43.131Z</time></trkpt><trkpt lat="46.1200067" lon="13.5229986"><ele>155.0</ele><time>2026-05-02T16:50:45.121Z</time></trkpt><trkpt lat="46.1199426" lon="13.5228516"><ele>155.0</ele><time>2026-05-02T16:50:47.117Z</time></trkpt><trkpt lat="46.1198674" lon="13.5227188"><ele>155.0</ele><time>2026-05-02T16:50:49.169Z</time></trkpt><trkpt lat="46.1197844" lon="13.522593"><ele>155.0</ele><time>2026-05-02T16:50:51.186Z</time></trkpt><trkpt lat="46.1196951" lon="13.5224775"><ele>155.0</ele><time>2026-05-02T16:50:53.156Z</time></trkpt><trkpt lat="46.1196065" lon="13.5223561"><ele>155.0</ele><time>2026-05-02T16:50:55.184Z</time></trkpt><trkpt lat="46.1195093" lon="13.5222749"><ele>155.0</ele><time>2026-05-02T16:50:57.179Z</time></trkpt><trkpt lat="46.1193987" lon="13.5222562"><ele>155.0</ele><time>2026-05-02T16:50:59.189Z</time></trkpt><trkpt lat="46.1192944" lon="13.5222733"><ele>155.0</ele><time>2026-05-02T16:51:01.176Z</time></trkpt><trkpt lat="46.1191888" lon="13.5222847"><ele>155.0</ele><time>2026-05-02T16:51:03.2Z</time></trkpt><trkpt lat="46.1190975" lon="13.5223148"><ele>155.0</ele><time>2026-05-02T16:51:05.195Z</time></trkpt><trkpt lat="46.1190266" lon="13.5223827"><ele>155.0</ele><time>2026-05-02T16:51:07.205Z</time></trkpt><trkpt lat="46.1189756" lon="13.5224642"><ele>153.0</ele><time>2026-05-02T16:51:09.201Z</time></trkpt></trkseg></trk></gpx>